<?xml version="1.0" encoding="UTF-8" standalone="no" ?>
<gpx xmlns="http://www.topografix.com/GPX/1/1" xmlns:xsi="http://www.w3.org/2001/XMLSchema-instance" xsi:schemaLocation="http://www.topografix.com/GPX/1/1 http://www.topografix.com/GPX/1/1/gpx.xsd" version="1.1" creator="VisuGPX - https://www.visugpx.com">
  <metadata>
    <name>forêt de Dourdan</name>
    <desc><![CDATA[OC Gif, les délocalisées de l'été:
Boucle inspirée de la rando "la Grangeoise" en partant du parking du RDV près du péage de Saint Arnoult en Yvelines.
- Encadrant: moi
- Dénivelé barométrique: 759m]]></desc>
  </metadata>
  <trk>
    <name><![CDATA[2022-08-06 09:29]]></name>
    <desc><![CDATA[<p>Heure de départ: 08/06/2022 09:34<br/>Heure d'arrivée: 08/06/2022 14:03<br/>Distance: 50,2 km (04:29)<br/>Temps déplacement: 03:31<br/>Vitesse moyenne: 11,19 km/h<br/>Vitesse moyenne mouv.: 14,27 km/h<br/>Vitesse Max.: 37,09 km/h<br/>Altitude minimale: 95 m<br/>Altitude maximale: 218 m<br/>Vitesse de montée: 393,6 m/h<br/>Vitesse de descente: -537,9 m/h<br/>Gain d'altitude: 999 m<br/>Perte d'altitude: -1006 m<br/>Temps de montée: 02:32<br/>Temps de descente: 01:52<br/></p><hr align="center" width="480" style="height: 2px; width: 517px"/>]]></desc>
    <trkseg>
      <trkpt lat="48.55903" lon="1.94983">
        <ele>161.8</ele>
        <time>2022-08-06T07:34:14Z</time>
      </trkpt>
      <trkpt lat="48.55908" lon="1.94981">
        <ele>161.8</ele>
        <time>2022-08-06T07:34:34Z</time>
      </trkpt>
      <trkpt lat="48.55913" lon="1.94982">
        <ele>161.7</ele>
        <time>2022-08-06T07:34:38Z</time>
      </trkpt>
      <trkpt lat="48.55913" lon="1.94994">
        <ele>161.3</ele>
        <time>2022-08-06T07:34:42Z</time>
      </trkpt>
      <trkpt lat="48.55911" lon="1.95001">
        <ele>161.2</ele>
        <time>2022-08-06T07:34:46Z</time>
      </trkpt>
      <trkpt lat="48.55908" lon="1.95014">
        <ele>161.3</ele>
        <time>2022-08-06T07:34:54Z</time>
      </trkpt>
      <trkpt lat="48.55905" lon="1.95023">
        <ele>161.4</ele>
        <time>2022-08-06T07:34:56Z</time>
      </trkpt>
      <trkpt lat="48.55902" lon="1.95031">
        <ele>161.6</ele>
        <time>2022-08-06T07:34:58Z</time>
      </trkpt>
      <trkpt lat="48.55899" lon="1.95039">
        <ele>161.8</ele>
        <time>2022-08-06T07:35:00Z</time>
      </trkpt>
      <trkpt lat="48.55896" lon="1.95048">
        <ele>161.9</ele>
        <time>2022-08-06T07:35:02Z</time>
      </trkpt>
      <trkpt lat="48.55893" lon="1.95056">
        <ele>162</ele>
        <time>2022-08-06T07:35:04Z</time>
      </trkpt>
      <trkpt lat="48.5589" lon="1.95065">
        <ele>162</ele>
        <time>2022-08-06T07:35:06Z</time>
      </trkpt>
      <trkpt lat="48.55887" lon="1.95073">
        <ele>162</ele>
        <time>2022-08-06T07:35:08Z</time>
      </trkpt>
      <trkpt lat="48.55883" lon="1.95083">
        <ele>162</ele>
        <time>2022-08-06T07:35:10Z</time>
      </trkpt>
      <trkpt lat="48.55879" lon="1.95093">
        <ele>162</ele>
        <time>2022-08-06T07:35:12Z</time>
      </trkpt>
      <trkpt lat="48.55876" lon="1.95102">
        <ele>162</ele>
        <time>2022-08-06T07:35:14Z</time>
      </trkpt>
      <trkpt lat="48.55874" lon="1.95112">
        <ele>162</ele>
        <time>2022-08-06T07:35:16Z</time>
      </trkpt>
      <trkpt lat="48.55872" lon="1.95121">
        <ele>162</ele>
        <time>2022-08-06T07:35:18Z</time>
      </trkpt>
      <trkpt lat="48.55874" lon="1.95128">
        <ele>162</ele>
        <time>2022-08-06T07:35:20Z</time>
      </trkpt>
      <trkpt lat="48.5588" lon="1.95138">
        <ele>162</ele>
        <time>2022-08-06T07:35:24Z</time>
      </trkpt>
      <trkpt lat="48.55885" lon="1.95143">
        <ele>162</ele>
        <time>2022-08-06T07:35:26Z</time>
      </trkpt>
      <trkpt lat="48.5589" lon="1.95147">
        <ele>162</ele>
        <time>2022-08-06T07:35:28Z</time>
      </trkpt>
      <trkpt lat="48.55895" lon="1.95156">
        <ele>162.2</ele>
        <time>2022-08-06T07:35:32Z</time>
      </trkpt>
      <trkpt lat="48.55899" lon="1.95162">
        <ele>162.4</ele>
        <time>2022-08-06T07:35:34Z</time>
      </trkpt>
      <trkpt lat="48.55907" lon="1.95167">
        <ele>162.7</ele>
        <time>2022-08-06T07:35:38Z</time>
      </trkpt>
      <trkpt lat="48.55913" lon="1.95169">
        <ele>162.8</ele>
        <time>2022-08-06T07:35:40Z</time>
      </trkpt>
      <trkpt lat="48.55919" lon="1.95173">
        <ele>162.8</ele>
        <time>2022-08-06T07:35:42Z</time>
      </trkpt>
      <trkpt lat="48.55926" lon="1.95178">
        <ele>162.7</ele>
        <time>2022-08-06T07:35:44Z</time>
      </trkpt>
      <trkpt lat="48.55932" lon="1.95185">
        <ele>162.7</ele>
        <time>2022-08-06T07:35:46Z</time>
      </trkpt>
      <trkpt lat="48.55938" lon="1.95193">
        <ele>162.8</ele>
        <time>2022-08-06T07:35:48Z</time>
      </trkpt>
      <trkpt lat="48.55941" lon="1.95203">
        <ele>162.3</ele>
        <time>2022-08-06T07:35:50Z</time>
      </trkpt>
      <trkpt lat="48.55942" lon="1.95216">
        <ele>161.4</ele>
        <time>2022-08-06T07:35:52Z</time>
      </trkpt>
      <trkpt lat="48.5594" lon="1.9523">
        <ele>160.8</ele>
        <time>2022-08-06T07:35:54Z</time>
      </trkpt>
      <trkpt lat="48.55942" lon="1.95245">
        <ele>160.3</ele>
        <time>2022-08-06T07:35:56Z</time>
      </trkpt>
      <trkpt lat="48.55944" lon="1.9526">
        <ele>160</ele>
        <time>2022-08-06T07:35:58Z</time>
      </trkpt>
      <trkpt lat="48.55946" lon="1.95275">
        <ele>160</ele>
        <time>2022-08-06T07:36:00Z</time>
      </trkpt>
      <trkpt lat="48.55945" lon="1.95288">
        <ele>160</ele>
        <time>2022-08-06T07:36:02Z</time>
      </trkpt>
      <trkpt lat="48.55946" lon="1.95303">
        <ele>160</ele>
        <time>2022-08-06T07:36:04Z</time>
      </trkpt>
      <trkpt lat="48.55947" lon="1.95317">
        <ele>160</ele>
        <time>2022-08-06T07:36:06Z</time>
      </trkpt>
      <trkpt lat="48.55948" lon="1.9533">
        <ele>160</ele>
        <time>2022-08-06T07:36:08Z</time>
      </trkpt>
      <trkpt lat="48.55948" lon="1.95343">
        <ele>160</ele>
        <time>2022-08-06T07:36:10Z</time>
      </trkpt>
      <trkpt lat="48.5595" lon="1.95358">
        <ele>160</ele>
        <time>2022-08-06T07:36:12Z</time>
      </trkpt>
      <trkpt lat="48.5595" lon="1.95373">
        <ele>160</ele>
        <time>2022-08-06T07:36:14Z</time>
      </trkpt>
      <trkpt lat="48.5595" lon="1.95388">
        <ele>160</ele>
        <time>2022-08-06T07:36:16Z</time>
      </trkpt>
      <trkpt lat="48.5595" lon="1.95404">
        <ele>160</ele>
        <time>2022-08-06T07:36:18Z</time>
      </trkpt>
      <trkpt lat="48.55953" lon="1.95419">
        <ele>160</ele>
        <time>2022-08-06T07:36:20Z</time>
      </trkpt>
      <trkpt lat="48.55956" lon="1.95432">
        <ele>160</ele>
        <time>2022-08-06T07:36:22Z</time>
      </trkpt>
      <trkpt lat="48.5596" lon="1.95447">
        <ele>160</ele>
        <time>2022-08-06T07:36:24Z</time>
      </trkpt>
      <trkpt lat="48.55964" lon="1.95461">
        <ele>160</ele>
        <time>2022-08-06T07:36:26Z</time>
      </trkpt>
      <trkpt lat="48.55969" lon="1.95477">
        <ele>160</ele>
        <time>2022-08-06T07:36:28Z</time>
      </trkpt>
      <trkpt lat="48.55972" lon="1.95491">
        <ele>160</ele>
        <time>2022-08-06T07:36:30Z</time>
      </trkpt>
      <trkpt lat="48.55977" lon="1.95506">
        <ele>159.8</ele>
        <time>2022-08-06T07:36:32Z</time>
      </trkpt>
      <trkpt lat="48.55979" lon="1.95521">
        <ele>159.2</ele>
        <time>2022-08-06T07:36:34Z</time>
      </trkpt>
      <trkpt lat="48.55982" lon="1.95536">
        <ele>159</ele>
        <time>2022-08-06T07:36:36Z</time>
      </trkpt>
      <trkpt lat="48.55981" lon="1.9555">
        <ele>159</ele>
        <time>2022-08-06T07:36:38Z</time>
      </trkpt>
      <trkpt lat="48.55982" lon="1.95567">
        <ele>159</ele>
        <time>2022-08-06T07:36:40Z</time>
      </trkpt>
      <trkpt lat="48.55981" lon="1.95583">
        <ele>159</ele>
        <time>2022-08-06T07:36:42Z</time>
      </trkpt>
      <trkpt lat="48.5598" lon="1.95601">
        <ele>158.4</ele>
        <time>2022-08-06T07:36:44Z</time>
      </trkpt>
      <trkpt lat="48.5598" lon="1.95616">
        <ele>158</ele>
        <time>2022-08-06T07:36:46Z</time>
      </trkpt>
      <trkpt lat="48.55983" lon="1.95633">
        <ele>158</ele>
        <time>2022-08-06T07:36:48Z</time>
      </trkpt>
      <trkpt lat="48.55982" lon="1.9565">
        <ele>157.6</ele>
        <time>2022-08-06T07:36:50Z</time>
      </trkpt>
      <trkpt lat="48.55981" lon="1.95666">
        <ele>157</ele>
        <time>2022-08-06T07:36:52Z</time>
      </trkpt>
      <trkpt lat="48.55984" lon="1.95683">
        <ele>156.8</ele>
        <time>2022-08-06T07:36:54Z</time>
      </trkpt>
      <trkpt lat="48.55986" lon="1.957">
        <ele>156.3</ele>
        <time>2022-08-06T07:36:56Z</time>
      </trkpt>
      <trkpt lat="48.55986" lon="1.95717">
        <ele>155.7</ele>
        <time>2022-08-06T07:36:58Z</time>
      </trkpt>
      <trkpt lat="48.55987" lon="1.95733">
        <ele>155.5</ele>
        <time>2022-08-06T07:37:00Z</time>
      </trkpt>
      <trkpt lat="48.55986" lon="1.95748">
        <ele>155.5</ele>
        <time>2022-08-06T07:37:02Z</time>
      </trkpt>
      <trkpt lat="48.55987" lon="1.95763">
        <ele>155.5</ele>
        <time>2022-08-06T07:37:04Z</time>
      </trkpt>
      <trkpt lat="48.55991" lon="1.95777">
        <ele>155.3</ele>
        <time>2022-08-06T07:37:06Z</time>
      </trkpt>
      <trkpt lat="48.55993" lon="1.95792">
        <ele>155.3</ele>
        <time>2022-08-06T07:37:08Z</time>
      </trkpt>
      <trkpt lat="48.55996" lon="1.95807">
        <ele>155.1</ele>
        <time>2022-08-06T07:37:10Z</time>
      </trkpt>
      <trkpt lat="48.55998" lon="1.95821">
        <ele>155.1</ele>
        <time>2022-08-06T07:37:12Z</time>
      </trkpt>
      <trkpt lat="48.56001" lon="1.95834">
        <ele>155</ele>
        <time>2022-08-06T07:37:14Z</time>
      </trkpt>
      <trkpt lat="48.56003" lon="1.95849">
        <ele>155</ele>
        <time>2022-08-06T07:37:16Z</time>
      </trkpt>
      <trkpt lat="48.56005" lon="1.95863">
        <ele>155</ele>
        <time>2022-08-06T07:37:18Z</time>
      </trkpt>
      <trkpt lat="48.56007" lon="1.95879">
        <ele>155</ele>
        <time>2022-08-06T07:37:20Z</time>
      </trkpt>
      <trkpt lat="48.56007" lon="1.95894">
        <ele>155</ele>
        <time>2022-08-06T07:37:22Z</time>
      </trkpt>
      <trkpt lat="48.56008" lon="1.9591">
        <ele>155</ele>
        <time>2022-08-06T07:37:24Z</time>
      </trkpt>
      <trkpt lat="48.56011" lon="1.95924">
        <ele>155</ele>
        <time>2022-08-06T07:37:26Z</time>
      </trkpt>
      <trkpt lat="48.56012" lon="1.95934">
        <ele>155</ele>
        <time>2022-08-06T07:37:28Z</time>
      </trkpt>
      <trkpt lat="48.56011" lon="1.95944">
        <ele>155</ele>
        <time>2022-08-06T07:37:30Z</time>
      </trkpt>
      <trkpt lat="48.56006" lon="1.95951">
        <ele>155</ele>
        <time>2022-08-06T07:37:32Z</time>
      </trkpt>
      <trkpt lat="48.56003" lon="1.95958">
        <ele>155</ele>
        <time>2022-08-06T07:37:34Z</time>
      </trkpt>
      <trkpt lat="48.56004" lon="1.95966">
        <ele>155</ele>
        <time>2022-08-06T07:37:36Z</time>
      </trkpt>
      <trkpt lat="48.56004" lon="1.95976">
        <ele>155</ele>
        <time>2022-08-06T07:37:38Z</time>
      </trkpt>
      <trkpt lat="48.56005" lon="1.95985">
        <ele>155</ele>
        <time>2022-08-06T07:37:40Z</time>
      </trkpt>
      <trkpt lat="48.56007" lon="1.95996">
        <ele>155</ele>
        <time>2022-08-06T07:37:42Z</time>
      </trkpt>
      <trkpt lat="48.56009" lon="1.96008">
        <ele>155</ele>
        <time>2022-08-06T07:37:44Z</time>
      </trkpt>
      <trkpt lat="48.56012" lon="1.96019">
        <ele>155</ele>
        <time>2022-08-06T07:37:46Z</time>
      </trkpt>
      <trkpt lat="48.56015" lon="1.9603">
        <ele>155</ele>
        <time>2022-08-06T07:37:48Z</time>
      </trkpt>
      <trkpt lat="48.56015" lon="1.96039">
        <ele>155</ele>
        <time>2022-08-06T07:37:50Z</time>
      </trkpt>
      <trkpt lat="48.56016" lon="1.96049">
        <ele>155</ele>
        <time>2022-08-06T07:37:52Z</time>
      </trkpt>
      <trkpt lat="48.56017" lon="1.9606">
        <ele>155</ele>
        <time>2022-08-06T07:37:54Z</time>
      </trkpt>
      <trkpt lat="48.56017" lon="1.96072">
        <ele>155</ele>
        <time>2022-08-06T07:37:56Z</time>
      </trkpt>
      <trkpt lat="48.56019" lon="1.96083">
        <ele>155</ele>
        <time>2022-08-06T07:37:58Z</time>
      </trkpt>
      <trkpt lat="48.56019" lon="1.96094">
        <ele>155.1</ele>
        <time>2022-08-06T07:38:00Z</time>
      </trkpt>
      <trkpt lat="48.56022" lon="1.96104">
        <ele>155.2</ele>
        <time>2022-08-06T07:38:02Z</time>
      </trkpt>
      <trkpt lat="48.56025" lon="1.96115">
        <ele>155.2</ele>
        <time>2022-08-06T07:38:04Z</time>
      </trkpt>
      <trkpt lat="48.56028" lon="1.96125">
        <ele>155.5</ele>
        <time>2022-08-06T07:38:06Z</time>
      </trkpt>
      <trkpt lat="48.56031" lon="1.96137">
        <ele>155.8</ele>
        <time>2022-08-06T07:38:08Z</time>
      </trkpt>
      <trkpt lat="48.56034" lon="1.96148">
        <ele>155.9</ele>
        <time>2022-08-06T07:38:10Z</time>
      </trkpt>
      <trkpt lat="48.56038" lon="1.9616">
        <ele>155.9</ele>
        <time>2022-08-06T07:38:12Z</time>
      </trkpt>
      <trkpt lat="48.56042" lon="1.96172">
        <ele>156</ele>
        <time>2022-08-06T07:38:14Z</time>
      </trkpt>
      <trkpt lat="48.56045" lon="1.96184">
        <ele>156</ele>
        <time>2022-08-06T07:38:16Z</time>
      </trkpt>
      <trkpt lat="48.56048" lon="1.96196">
        <ele>156</ele>
        <time>2022-08-06T07:38:18Z</time>
      </trkpt>
      <trkpt lat="48.5605" lon="1.96209">
        <ele>156</ele>
        <time>2022-08-06T07:38:20Z</time>
      </trkpt>
      <trkpt lat="48.56051" lon="1.96222">
        <ele>156</ele>
        <time>2022-08-06T07:38:22Z</time>
      </trkpt>
      <trkpt lat="48.56053" lon="1.96235">
        <ele>156</ele>
        <time>2022-08-06T07:38:24Z</time>
      </trkpt>
      <trkpt lat="48.56055" lon="1.96246">
        <ele>156</ele>
        <time>2022-08-06T07:38:26Z</time>
      </trkpt>
      <trkpt lat="48.56055" lon="1.96258">
        <ele>156</ele>
        <time>2022-08-06T07:38:28Z</time>
      </trkpt>
      <trkpt lat="48.56058" lon="1.96271">
        <ele>155.9</ele>
        <time>2022-08-06T07:38:30Z</time>
      </trkpt>
      <trkpt lat="48.56059" lon="1.96284">
        <ele>155.9</ele>
        <time>2022-08-06T07:38:32Z</time>
      </trkpt>
      <trkpt lat="48.56059" lon="1.96298">
        <ele>155.9</ele>
        <time>2022-08-06T07:38:34Z</time>
      </trkpt>
      <trkpt lat="48.56062" lon="1.9631">
        <ele>155.6</ele>
        <time>2022-08-06T07:38:36Z</time>
      </trkpt>
      <trkpt lat="48.56062" lon="1.96324">
        <ele>155.1</ele>
        <time>2022-08-06T07:38:38Z</time>
      </trkpt>
      <trkpt lat="48.56064" lon="1.96335">
        <ele>154.7</ele>
        <time>2022-08-06T07:38:40Z</time>
      </trkpt>
      <trkpt lat="48.56064" lon="1.96346">
        <ele>154.7</ele>
        <time>2022-08-06T07:38:42Z</time>
      </trkpt>
      <trkpt lat="48.56063" lon="1.9636">
        <ele>154.7</ele>
        <time>2022-08-06T07:38:44Z</time>
      </trkpt>
      <trkpt lat="48.56065" lon="1.96374">
        <ele>154.2</ele>
        <time>2022-08-06T07:38:46Z</time>
      </trkpt>
      <trkpt lat="48.56065" lon="1.96387">
        <ele>153.7</ele>
        <time>2022-08-06T07:38:48Z</time>
      </trkpt>
      <trkpt lat="48.56069" lon="1.96402">
        <ele>153.3</ele>
        <time>2022-08-06T07:38:50Z</time>
      </trkpt>
      <trkpt lat="48.56073" lon="1.96414">
        <ele>153</ele>
        <time>2022-08-06T07:38:52Z</time>
      </trkpt>
      <trkpt lat="48.56074" lon="1.96427">
        <ele>152.7</ele>
        <time>2022-08-06T07:38:54Z</time>
      </trkpt>
      <trkpt lat="48.56076" lon="1.96443">
        <ele>152.3</ele>
        <time>2022-08-06T07:38:56Z</time>
      </trkpt>
      <trkpt lat="48.56075" lon="1.96456">
        <ele>152.2</ele>
        <time>2022-08-06T07:38:58Z</time>
      </trkpt>
      <trkpt lat="48.56075" lon="1.96468">
        <ele>152</ele>
        <time>2022-08-06T07:39:00Z</time>
      </trkpt>
      <trkpt lat="48.56075" lon="1.96481">
        <ele>152</ele>
        <time>2022-08-06T07:39:02Z</time>
      </trkpt>
      <trkpt lat="48.56073" lon="1.96495">
        <ele>152</ele>
        <time>2022-08-06T07:39:04Z</time>
      </trkpt>
      <trkpt lat="48.5607" lon="1.96509">
        <ele>152.2</ele>
        <time>2022-08-06T07:39:06Z</time>
      </trkpt>
      <trkpt lat="48.56067" lon="1.96524">
        <ele>152.3</ele>
        <time>2022-08-06T07:39:08Z</time>
      </trkpt>
      <trkpt lat="48.56065" lon="1.96539">
        <ele>152.5</ele>
        <time>2022-08-06T07:39:10Z</time>
      </trkpt>
      <trkpt lat="48.56063" lon="1.96552">
        <ele>152.5</ele>
        <time>2022-08-06T07:39:12Z</time>
      </trkpt>
      <trkpt lat="48.5606" lon="1.96565">
        <ele>152.6</ele>
        <time>2022-08-06T07:39:14Z</time>
      </trkpt>
      <trkpt lat="48.56059" lon="1.9658">
        <ele>153</ele>
        <time>2022-08-06T07:39:16Z</time>
      </trkpt>
      <trkpt lat="48.56058" lon="1.96593">
        <ele>153.1</ele>
        <time>2022-08-06T07:39:18Z</time>
      </trkpt>
      <trkpt lat="48.56056" lon="1.96608">
        <ele>153</ele>
        <time>2022-08-06T07:39:20Z</time>
      </trkpt>
      <trkpt lat="48.56055" lon="1.96622">
        <ele>153.4</ele>
        <time>2022-08-06T07:39:22Z</time>
      </trkpt>
      <trkpt lat="48.56053" lon="1.96634">
        <ele>153.7</ele>
        <time>2022-08-06T07:39:24Z</time>
      </trkpt>
      <trkpt lat="48.56051" lon="1.96649">
        <ele>153.8</ele>
        <time>2022-08-06T07:39:26Z</time>
      </trkpt>
      <trkpt lat="48.56049" lon="1.96664">
        <ele>153.8</ele>
        <time>2022-08-06T07:39:28Z</time>
      </trkpt>
      <trkpt lat="48.56045" lon="1.96677">
        <ele>153.6</ele>
        <time>2022-08-06T07:39:30Z</time>
      </trkpt>
      <trkpt lat="48.56042" lon="1.96692">
        <ele>153.5</ele>
        <time>2022-08-06T07:39:32Z</time>
      </trkpt>
      <trkpt lat="48.56039" lon="1.9671">
        <ele>153.4</ele>
        <time>2022-08-06T07:39:34Z</time>
      </trkpt>
      <trkpt lat="48.56042" lon="1.96725">
        <ele>153.5</ele>
        <time>2022-08-06T07:39:36Z</time>
      </trkpt>
      <trkpt lat="48.56038" lon="1.9674">
        <ele>153.4</ele>
        <time>2022-08-06T07:39:38Z</time>
      </trkpt>
      <trkpt lat="48.56037" lon="1.96756">
        <ele>153.3</ele>
        <time>2022-08-06T07:39:40Z</time>
      </trkpt>
      <trkpt lat="48.56035" lon="1.96771">
        <ele>153.3</ele>
        <time>2022-08-06T07:39:42Z</time>
      </trkpt>
      <trkpt lat="48.56035" lon="1.96786">
        <ele>153.5</ele>
        <time>2022-08-06T07:39:44Z</time>
      </trkpt>
      <trkpt lat="48.56031" lon="1.96801">
        <ele>153.9</ele>
        <time>2022-08-06T07:39:46Z</time>
      </trkpt>
      <trkpt lat="48.56028" lon="1.96816">
        <ele>154</ele>
        <time>2022-08-06T07:39:48Z</time>
      </trkpt>
      <trkpt lat="48.56022" lon="1.9683">
        <ele>153.8</ele>
        <time>2022-08-06T07:39:50Z</time>
      </trkpt>
      <trkpt lat="48.56017" lon="1.96844">
        <ele>153.6</ele>
        <time>2022-08-06T07:39:52Z</time>
      </trkpt>
      <trkpt lat="48.56012" lon="1.9686">
        <ele>153.4</ele>
        <time>2022-08-06T07:39:54Z</time>
      </trkpt>
      <trkpt lat="48.56007" lon="1.96874">
        <ele>153.6</ele>
        <time>2022-08-06T07:39:56Z</time>
      </trkpt>
      <trkpt lat="48.56001" lon="1.9689">
        <ele>154</ele>
        <time>2022-08-06T07:39:58Z</time>
      </trkpt>
      <trkpt lat="48.55996" lon="1.96907">
        <ele>153.8</ele>
        <time>2022-08-06T07:40:00Z</time>
      </trkpt>
      <trkpt lat="48.55989" lon="1.96921">
        <ele>153.6</ele>
        <time>2022-08-06T07:40:02Z</time>
      </trkpt>
      <trkpt lat="48.55983" lon="1.96936">
        <ele>153.4</ele>
        <time>2022-08-06T07:40:04Z</time>
      </trkpt>
      <trkpt lat="48.55978" lon="1.96952">
        <ele>153.2</ele>
        <time>2022-08-06T07:40:06Z</time>
      </trkpt>
      <trkpt lat="48.55974" lon="1.96968">
        <ele>153.1</ele>
        <time>2022-08-06T07:40:08Z</time>
      </trkpt>
      <trkpt lat="48.55969" lon="1.96982">
        <ele>152.9</ele>
        <time>2022-08-06T07:40:10Z</time>
      </trkpt>
      <trkpt lat="48.55961" lon="1.96995">
        <ele>152.9</ele>
        <time>2022-08-06T07:40:12Z</time>
      </trkpt>
      <trkpt lat="48.55952" lon="1.97006">
        <ele>153</ele>
        <time>2022-08-06T07:40:14Z</time>
      </trkpt>
      <trkpt lat="48.55943" lon="1.97017">
        <ele>152.9</ele>
        <time>2022-08-06T07:40:16Z</time>
      </trkpt>
      <trkpt lat="48.55936" lon="1.97028">
        <ele>152.7</ele>
        <time>2022-08-06T07:40:18Z</time>
      </trkpt>
      <trkpt lat="48.55928" lon="1.97039">
        <ele>152.4</ele>
        <time>2022-08-06T07:40:20Z</time>
      </trkpt>
      <trkpt lat="48.55921" lon="1.97053">
        <ele>152.2</ele>
        <time>2022-08-06T07:40:22Z</time>
      </trkpt>
      <trkpt lat="48.55917" lon="1.97069">
        <ele>152</ele>
        <time>2022-08-06T07:40:24Z</time>
      </trkpt>
      <trkpt lat="48.55915" lon="1.97087">
        <ele>152</ele>
        <time>2022-08-06T07:40:26Z</time>
      </trkpt>
      <trkpt lat="48.55914" lon="1.97104">
        <ele>152</ele>
        <time>2022-08-06T07:40:28Z</time>
      </trkpt>
      <trkpt lat="48.55912" lon="1.97122">
        <ele>152</ele>
        <time>2022-08-06T07:40:30Z</time>
      </trkpt>
      <trkpt lat="48.5591" lon="1.97136">
        <ele>152</ele>
        <time>2022-08-06T07:40:32Z</time>
      </trkpt>
      <trkpt lat="48.55908" lon="1.97152">
        <ele>152</ele>
        <time>2022-08-06T07:40:34Z</time>
      </trkpt>
      <trkpt lat="48.55901" lon="1.97169">
        <ele>151.9</ele>
        <time>2022-08-06T07:40:36Z</time>
      </trkpt>
      <trkpt lat="48.55893" lon="1.97184">
        <ele>151.5</ele>
        <time>2022-08-06T07:40:38Z</time>
      </trkpt>
      <trkpt lat="48.55881" lon="1.97194">
        <ele>151</ele>
        <time>2022-08-06T07:40:40Z</time>
      </trkpt>
      <trkpt lat="48.55873" lon="1.97208">
        <ele>151</ele>
        <time>2022-08-06T07:40:42Z</time>
      </trkpt>
      <trkpt lat="48.55864" lon="1.97219">
        <ele>151</ele>
        <time>2022-08-06T07:40:44Z</time>
      </trkpt>
      <trkpt lat="48.55855" lon="1.9723">
        <ele>151</ele>
        <time>2022-08-06T07:40:46Z</time>
      </trkpt>
      <trkpt lat="48.55844" lon="1.97241">
        <ele>151</ele>
        <time>2022-08-06T07:40:48Z</time>
      </trkpt>
      <trkpt lat="48.55834" lon="1.97253">
        <ele>151</ele>
        <time>2022-08-06T07:40:50Z</time>
      </trkpt>
      <trkpt lat="48.55825" lon="1.97265">
        <ele>151</ele>
        <time>2022-08-06T07:40:52Z</time>
      </trkpt>
      <trkpt lat="48.55815" lon="1.97275">
        <ele>151</ele>
        <time>2022-08-06T07:40:54Z</time>
      </trkpt>
      <trkpt lat="48.55806" lon="1.97282">
        <ele>151</ele>
        <time>2022-08-06T07:40:56Z</time>
      </trkpt>
      <trkpt lat="48.55797" lon="1.9729">
        <ele>151.2</ele>
        <time>2022-08-06T07:40:58Z</time>
      </trkpt>
      <trkpt lat="48.5579" lon="1.973">
        <ele>151.1</ele>
        <time>2022-08-06T07:41:00Z</time>
      </trkpt>
      <trkpt lat="48.55784" lon="1.97307">
        <ele>151</ele>
        <time>2022-08-06T07:41:02Z</time>
      </trkpt>
      <trkpt lat="48.55777" lon="1.97317">
        <ele>151</ele>
        <time>2022-08-06T07:41:04Z</time>
      </trkpt>
      <trkpt lat="48.5577" lon="1.97328">
        <ele>151.3</ele>
        <time>2022-08-06T07:41:06Z</time>
      </trkpt>
      <trkpt lat="48.55762" lon="1.97337">
        <ele>151.6</ele>
        <time>2022-08-06T07:41:08Z</time>
      </trkpt>
      <trkpt lat="48.55755" lon="1.97346">
        <ele>151.8</ele>
        <time>2022-08-06T07:41:10Z</time>
      </trkpt>
      <trkpt lat="48.55748" lon="1.97355">
        <ele>152</ele>
        <time>2022-08-06T07:41:12Z</time>
      </trkpt>
      <trkpt lat="48.5574" lon="1.97363">
        <ele>152</ele>
        <time>2022-08-06T07:41:14Z</time>
      </trkpt>
      <trkpt lat="48.55732" lon="1.97372">
        <ele>152</ele>
        <time>2022-08-06T07:41:16Z</time>
      </trkpt>
      <trkpt lat="48.55722" lon="1.97379">
        <ele>152</ele>
        <time>2022-08-06T07:41:18Z</time>
      </trkpt>
      <trkpt lat="48.55712" lon="1.97386">
        <ele>152</ele>
        <time>2022-08-06T07:41:20Z</time>
      </trkpt>
      <trkpt lat="48.55702" lon="1.9739">
        <ele>152</ele>
        <time>2022-08-06T07:41:22Z</time>
      </trkpt>
      <trkpt lat="48.55692" lon="1.97394">
        <ele>152.1</ele>
        <time>2022-08-06T07:41:24Z</time>
      </trkpt>
      <trkpt lat="48.55682" lon="1.97401">
        <ele>152.5</ele>
        <time>2022-08-06T07:41:26Z</time>
      </trkpt>
      <trkpt lat="48.55672" lon="1.97407">
        <ele>152.8</ele>
        <time>2022-08-06T07:41:28Z</time>
      </trkpt>
      <trkpt lat="48.55665" lon="1.97419">
        <ele>152.9</ele>
        <time>2022-08-06T07:41:30Z</time>
      </trkpt>
      <trkpt lat="48.55655" lon="1.97429">
        <ele>152.7</ele>
        <time>2022-08-06T07:41:32Z</time>
      </trkpt>
      <trkpt lat="48.55645" lon="1.97437">
        <ele>152.9</ele>
        <time>2022-08-06T07:41:34Z</time>
      </trkpt>
      <trkpt lat="48.55635" lon="1.97448">
        <ele>152.9</ele>
        <time>2022-08-06T07:41:36Z</time>
      </trkpt>
      <trkpt lat="48.55626" lon="1.97461">
        <ele>152.7</ele>
        <time>2022-08-06T07:41:38Z</time>
      </trkpt>
      <trkpt lat="48.55618" lon="1.97476">
        <ele>152.6</ele>
        <time>2022-08-06T07:41:40Z</time>
      </trkpt>
      <trkpt lat="48.5561" lon="1.97489">
        <ele>152.4</ele>
        <time>2022-08-06T07:41:42Z</time>
      </trkpt>
      <trkpt lat="48.55603" lon="1.97503">
        <ele>152.3</ele>
        <time>2022-08-06T07:41:44Z</time>
      </trkpt>
      <trkpt lat="48.55594" lon="1.97516">
        <ele>152.3</ele>
        <time>2022-08-06T07:41:46Z</time>
      </trkpt>
      <trkpt lat="48.55587" lon="1.9753">
        <ele>152</ele>
        <time>2022-08-06T07:41:48Z</time>
      </trkpt>
      <trkpt lat="48.55579" lon="1.97543">
        <ele>152.1</ele>
        <time>2022-08-06T07:41:50Z</time>
      </trkpt>
      <trkpt lat="48.55571" lon="1.97554">
        <ele>152</ele>
        <time>2022-08-06T07:41:52Z</time>
      </trkpt>
      <trkpt lat="48.55564" lon="1.97566">
        <ele>152</ele>
        <time>2022-08-06T07:41:54Z</time>
      </trkpt>
      <trkpt lat="48.55554" lon="1.97575">
        <ele>152</ele>
        <time>2022-08-06T07:41:56Z</time>
      </trkpt>
      <trkpt lat="48.55544" lon="1.97584">
        <ele>152.4</ele>
        <time>2022-08-06T07:41:58Z</time>
      </trkpt>
      <trkpt lat="48.55535" lon="1.97595">
        <ele>152.7</ele>
        <time>2022-08-06T07:42:00Z</time>
      </trkpt>
      <trkpt lat="48.55527" lon="1.97605">
        <ele>153</ele>
        <time>2022-08-06T07:42:02Z</time>
      </trkpt>
      <trkpt lat="48.55519" lon="1.97617">
        <ele>153</ele>
        <time>2022-08-06T07:42:04Z</time>
      </trkpt>
      <trkpt lat="48.5551" lon="1.97628">
        <ele>153</ele>
        <time>2022-08-06T07:42:06Z</time>
      </trkpt>
      <trkpt lat="48.55505" lon="1.97642">
        <ele>153</ele>
        <time>2022-08-06T07:42:08Z</time>
      </trkpt>
      <trkpt lat="48.55496" lon="1.97651">
        <ele>153.1</ele>
        <time>2022-08-06T07:42:10Z</time>
      </trkpt>
      <trkpt lat="48.55492" lon="1.97665">
        <ele>153.3</ele>
        <time>2022-08-06T07:42:12Z</time>
      </trkpt>
      <trkpt lat="48.55486" lon="1.97674">
        <ele>153.5</ele>
        <time>2022-08-06T07:42:14Z</time>
      </trkpt>
      <trkpt lat="48.55479" lon="1.97685">
        <ele>153.8</ele>
        <time>2022-08-06T07:42:16Z</time>
      </trkpt>
      <trkpt lat="48.55472" lon="1.97694">
        <ele>154</ele>
        <time>2022-08-06T07:42:18Z</time>
      </trkpt>
      <trkpt lat="48.55465" lon="1.97706">
        <ele>154</ele>
        <time>2022-08-06T07:42:20Z</time>
      </trkpt>
      <trkpt lat="48.55458" lon="1.97719">
        <ele>154</ele>
        <time>2022-08-06T07:42:22Z</time>
      </trkpt>
      <trkpt lat="48.55451" lon="1.9773">
        <ele>153.9</ele>
        <time>2022-08-06T07:42:24Z</time>
      </trkpt>
      <trkpt lat="48.55444" lon="1.97742">
        <ele>154</ele>
        <time>2022-08-06T07:42:26Z</time>
      </trkpt>
      <trkpt lat="48.55436" lon="1.97753">
        <ele>154.3</ele>
        <time>2022-08-06T07:42:28Z</time>
      </trkpt>
      <trkpt lat="48.55429" lon="1.97763">
        <ele>154.3</ele>
        <time>2022-08-06T07:42:30Z</time>
      </trkpt>
      <trkpt lat="48.55422" lon="1.97774">
        <ele>154.1</ele>
        <time>2022-08-06T07:42:32Z</time>
      </trkpt>
      <trkpt lat="48.55415" lon="1.97786">
        <ele>154</ele>
        <time>2022-08-06T07:42:34Z</time>
      </trkpt>
      <trkpt lat="48.55407" lon="1.97795">
        <ele>154.3</ele>
        <time>2022-08-06T07:42:36Z</time>
      </trkpt>
      <trkpt lat="48.55401" lon="1.97806">
        <ele>154.6</ele>
        <time>2022-08-06T07:42:38Z</time>
      </trkpt>
      <trkpt lat="48.55394" lon="1.97817">
        <ele>154.8</ele>
        <time>2022-08-06T07:42:40Z</time>
      </trkpt>
      <trkpt lat="48.55388" lon="1.97828">
        <ele>155</ele>
        <time>2022-08-06T07:42:42Z</time>
      </trkpt>
      <trkpt lat="48.55382" lon="1.9784">
        <ele>155</ele>
        <time>2022-08-06T07:42:44Z</time>
      </trkpt>
      <trkpt lat="48.55378" lon="1.97854">
        <ele>155</ele>
        <time>2022-08-06T07:42:46Z</time>
      </trkpt>
      <trkpt lat="48.5538" lon="1.97864">
        <ele>154.9</ele>
        <time>2022-08-06T07:42:48Z</time>
      </trkpt>
      <trkpt lat="48.55376" lon="1.97874">
        <ele>154.7</ele>
        <time>2022-08-06T07:42:50Z</time>
      </trkpt>
      <trkpt lat="48.55371" lon="1.97882">
        <ele>154.7</ele>
        <time>2022-08-06T07:42:52Z</time>
      </trkpt>
      <trkpt lat="48.55366" lon="1.97891">
        <ele>154.8</ele>
        <time>2022-08-06T07:42:54Z</time>
      </trkpt>
      <trkpt lat="48.55361" lon="1.97903">
        <ele>155</ele>
        <time>2022-08-06T07:42:56Z</time>
      </trkpt>
      <trkpt lat="48.55354" lon="1.97914">
        <ele>155</ele>
        <time>2022-08-06T07:42:58Z</time>
      </trkpt>
      <trkpt lat="48.55346" lon="1.97925">
        <ele>154.9</ele>
        <time>2022-08-06T07:43:00Z</time>
      </trkpt>
      <trkpt lat="48.55336" lon="1.97936">
        <ele>154.9</ele>
        <time>2022-08-06T07:43:02Z</time>
      </trkpt>
      <trkpt lat="48.55328" lon="1.97945">
        <ele>155</ele>
        <time>2022-08-06T07:43:04Z</time>
      </trkpt>
      <trkpt lat="48.55319" lon="1.97957">
        <ele>154.6</ele>
        <time>2022-08-06T07:43:06Z</time>
      </trkpt>
      <trkpt lat="48.55312" lon="1.97967">
        <ele>154.2</ele>
        <time>2022-08-06T07:43:08Z</time>
      </trkpt>
      <trkpt lat="48.55303" lon="1.97974">
        <ele>154.1</ele>
        <time>2022-08-06T07:43:10Z</time>
      </trkpt>
      <trkpt lat="48.55294" lon="1.97981">
        <ele>154.4</ele>
        <time>2022-08-06T07:43:12Z</time>
      </trkpt>
      <trkpt lat="48.55286" lon="1.97988">
        <ele>154.7</ele>
        <time>2022-08-06T07:43:14Z</time>
      </trkpt>
      <trkpt lat="48.55278" lon="1.97997">
        <ele>155</ele>
        <time>2022-08-06T07:43:16Z</time>
      </trkpt>
      <trkpt lat="48.5527" lon="1.98004">
        <ele>154.9</ele>
        <time>2022-08-06T07:43:18Z</time>
      </trkpt>
      <trkpt lat="48.55262" lon="1.98012">
        <ele>154.8</ele>
        <time>2022-08-06T07:43:20Z</time>
      </trkpt>
      <trkpt lat="48.55253" lon="1.98018">
        <ele>154.9</ele>
        <time>2022-08-06T07:43:22Z</time>
      </trkpt>
      <trkpt lat="48.55245" lon="1.98026">
        <ele>155.2</ele>
        <time>2022-08-06T07:43:24Z</time>
      </trkpt>
      <trkpt lat="48.55238" lon="1.98032">
        <ele>155.4</ele>
        <time>2022-08-06T07:43:26Z</time>
      </trkpt>
      <trkpt lat="48.55232" lon="1.98038">
        <ele>155.6</ele>
        <time>2022-08-06T07:43:28Z</time>
      </trkpt>
      <trkpt lat="48.55228" lon="1.98045">
        <ele>155.8</ele>
        <time>2022-08-06T07:43:30Z</time>
      </trkpt>
      <trkpt lat="48.55223" lon="1.98053">
        <ele>156</ele>
        <time>2022-08-06T07:43:34Z</time>
      </trkpt>
      <trkpt lat="48.55217" lon="1.98054">
        <ele>156</ele>
        <time>2022-08-06T07:43:36Z</time>
      </trkpt>
      <trkpt lat="48.55212" lon="1.98055">
        <ele>156</ele>
        <time>2022-08-06T07:43:38Z</time>
      </trkpt>
      <trkpt lat="48.55208" lon="1.98058">
        <ele>156</ele>
        <time>2022-08-06T07:43:40Z</time>
      </trkpt>
      <trkpt lat="48.55204" lon="1.98062">
        <ele>155.9</ele>
        <time>2022-08-06T07:43:42Z</time>
      </trkpt>
      <trkpt lat="48.55198" lon="1.9807">
        <ele>155.9</ele>
        <time>2022-08-06T07:43:44Z</time>
      </trkpt>
      <trkpt lat="48.5519" lon="1.98079">
        <ele>156.1</ele>
        <time>2022-08-06T07:43:46Z</time>
      </trkpt>
      <trkpt lat="48.55182" lon="1.98089">
        <ele>156.4</ele>
        <time>2022-08-06T07:43:48Z</time>
      </trkpt>
      <trkpt lat="48.55175" lon="1.981">
        <ele>156.7</ele>
        <time>2022-08-06T07:43:50Z</time>
      </trkpt>
      <trkpt lat="48.55169" lon="1.9811">
        <ele>156.9</ele>
        <time>2022-08-06T07:43:52Z</time>
      </trkpt>
      <trkpt lat="48.55161" lon="1.9812">
        <ele>156.7</ele>
        <time>2022-08-06T07:43:54Z</time>
      </trkpt>
      <trkpt lat="48.55157" lon="1.98133">
        <ele>156.5</ele>
        <time>2022-08-06T07:43:56Z</time>
      </trkpt>
      <trkpt lat="48.55151" lon="1.98146">
        <ele>156.6</ele>
        <time>2022-08-06T07:43:58Z</time>
      </trkpt>
      <trkpt lat="48.55147" lon="1.98157">
        <ele>156.7</ele>
        <time>2022-08-06T07:44:00Z</time>
      </trkpt>
      <trkpt lat="48.55143" lon="1.98165">
        <ele>156.9</ele>
        <time>2022-08-06T07:44:02Z</time>
      </trkpt>
      <trkpt lat="48.55139" lon="1.98177">
        <ele>157</ele>
        <time>2022-08-06T07:44:04Z</time>
      </trkpt>
      <trkpt lat="48.55136" lon="1.98188">
        <ele>157</ele>
        <time>2022-08-06T07:44:06Z</time>
      </trkpt>
      <trkpt lat="48.55135" lon="1.98201">
        <ele>156.8</ele>
        <time>2022-08-06T07:44:08Z</time>
      </trkpt>
      <trkpt lat="48.55134" lon="1.98212">
        <ele>156.5</ele>
        <time>2022-08-06T07:44:10Z</time>
      </trkpt>
      <trkpt lat="48.5513" lon="1.98225">
        <ele>156.3</ele>
        <time>2022-08-06T07:44:12Z</time>
      </trkpt>
      <trkpt lat="48.55129" lon="1.98238">
        <ele>156.3</ele>
        <time>2022-08-06T07:44:14Z</time>
      </trkpt>
      <trkpt lat="48.55128" lon="1.98249">
        <ele>156.4</ele>
        <time>2022-08-06T07:44:16Z</time>
      </trkpt>
      <trkpt lat="48.55127" lon="1.98258">
        <ele>156.4</ele>
        <time>2022-08-06T07:44:18Z</time>
      </trkpt>
      <trkpt lat="48.55127" lon="1.98269">
        <ele>156.4</ele>
        <time>2022-08-06T07:44:20Z</time>
      </trkpt>
      <trkpt lat="48.5513" lon="1.98277">
        <ele>156.3</ele>
        <time>2022-08-06T07:44:22Z</time>
      </trkpt>
      <trkpt lat="48.55135" lon="1.98289">
        <ele>156.1</ele>
        <time>2022-08-06T07:44:24Z</time>
      </trkpt>
      <trkpt lat="48.5514" lon="1.983">
        <ele>156</ele>
        <time>2022-08-06T07:44:26Z</time>
      </trkpt>
      <trkpt lat="48.55145" lon="1.98313">
        <ele>155.9</ele>
        <time>2022-08-06T07:44:28Z</time>
      </trkpt>
      <trkpt lat="48.55151" lon="1.98326">
        <ele>155.7</ele>
        <time>2022-08-06T07:44:30Z</time>
      </trkpt>
      <trkpt lat="48.55159" lon="1.98338">
        <ele>155.3</ele>
        <time>2022-08-06T07:44:32Z</time>
      </trkpt>
      <trkpt lat="48.55163" lon="1.98351">
        <ele>155.1</ele>
        <time>2022-08-06T07:44:34Z</time>
      </trkpt>
      <trkpt lat="48.55168" lon="1.98366">
        <ele>155</ele>
        <time>2022-08-06T07:44:36Z</time>
      </trkpt>
      <trkpt lat="48.55173" lon="1.98379">
        <ele>154.9</ele>
        <time>2022-08-06T07:44:38Z</time>
      </trkpt>
      <trkpt lat="48.55176" lon="1.98394">
        <ele>154.7</ele>
        <time>2022-08-06T07:44:40Z</time>
      </trkpt>
      <trkpt lat="48.55182" lon="1.98408">
        <ele>154.8</ele>
        <time>2022-08-06T07:44:42Z</time>
      </trkpt>
      <trkpt lat="48.55187" lon="1.98424">
        <ele>154.8</ele>
        <time>2022-08-06T07:44:44Z</time>
      </trkpt>
      <trkpt lat="48.55192" lon="1.98438">
        <ele>154.3</ele>
        <time>2022-08-06T07:44:46Z</time>
      </trkpt>
      <trkpt lat="48.55197" lon="1.98452">
        <ele>153.9</ele>
        <time>2022-08-06T07:44:48Z</time>
      </trkpt>
      <trkpt lat="48.55202" lon="1.98467">
        <ele>153.7</ele>
        <time>2022-08-06T07:44:50Z</time>
      </trkpt>
      <trkpt lat="48.55207" lon="1.9848">
        <ele>153.6</ele>
        <time>2022-08-06T07:44:52Z</time>
      </trkpt>
      <trkpt lat="48.55212" lon="1.98494">
        <ele>153.4</ele>
        <time>2022-08-06T07:44:54Z</time>
      </trkpt>
      <trkpt lat="48.55216" lon="1.98507">
        <ele>153.2</ele>
        <time>2022-08-06T07:44:56Z</time>
      </trkpt>
      <trkpt lat="48.55221" lon="1.98522">
        <ele>153</ele>
        <time>2022-08-06T07:44:58Z</time>
      </trkpt>
      <trkpt lat="48.55226" lon="1.98535">
        <ele>152.6</ele>
        <time>2022-08-06T07:45:00Z</time>
      </trkpt>
      <trkpt lat="48.55231" lon="1.98549">
        <ele>152.2</ele>
        <time>2022-08-06T07:45:02Z</time>
      </trkpt>
      <trkpt lat="48.55235" lon="1.98563">
        <ele>152</ele>
        <time>2022-08-06T07:45:04Z</time>
      </trkpt>
      <trkpt lat="48.55239" lon="1.98578">
        <ele>152</ele>
        <time>2022-08-06T07:45:06Z</time>
      </trkpt>
      <trkpt lat="48.55244" lon="1.98592">
        <ele>151.8</ele>
        <time>2022-08-06T07:45:08Z</time>
      </trkpt>
      <trkpt lat="48.5525" lon="1.98607">
        <ele>151.1</ele>
        <time>2022-08-06T07:45:10Z</time>
      </trkpt>
      <trkpt lat="48.55256" lon="1.98621">
        <ele>150.9</ele>
        <time>2022-08-06T07:45:12Z</time>
      </trkpt>
      <trkpt lat="48.55261" lon="1.98636">
        <ele>150.6</ele>
        <time>2022-08-06T07:45:14Z</time>
      </trkpt>
      <trkpt lat="48.55267" lon="1.9865">
        <ele>150.4</ele>
        <time>2022-08-06T07:45:16Z</time>
      </trkpt>
      <trkpt lat="48.55273" lon="1.98666">
        <ele>150.2</ele>
        <time>2022-08-06T07:45:18Z</time>
      </trkpt>
      <trkpt lat="48.55278" lon="1.98679">
        <ele>150</ele>
        <time>2022-08-06T07:45:20Z</time>
      </trkpt>
      <trkpt lat="48.55284" lon="1.98694">
        <ele>150</ele>
        <time>2022-08-06T07:45:22Z</time>
      </trkpt>
      <trkpt lat="48.55286" lon="1.98711">
        <ele>150</ele>
        <time>2022-08-06T07:45:24Z</time>
      </trkpt>
      <trkpt lat="48.55289" lon="1.98727">
        <ele>150</ele>
        <time>2022-08-06T07:45:26Z</time>
      </trkpt>
      <trkpt lat="48.55292" lon="1.98743">
        <ele>150</ele>
        <time>2022-08-06T07:45:28Z</time>
      </trkpt>
      <trkpt lat="48.55293" lon="1.98759">
        <ele>149.8</ele>
        <time>2022-08-06T07:45:30Z</time>
      </trkpt>
      <trkpt lat="48.55293" lon="1.98775">
        <ele>149.5</ele>
        <time>2022-08-06T07:45:32Z</time>
      </trkpt>
      <trkpt lat="48.55293" lon="1.98792">
        <ele>149.2</ele>
        <time>2022-08-06T07:45:34Z</time>
      </trkpt>
      <trkpt lat="48.55292" lon="1.98808">
        <ele>149</ele>
        <time>2022-08-06T07:45:36Z</time>
      </trkpt>
      <trkpt lat="48.55291" lon="1.98825">
        <ele>149</ele>
        <time>2022-08-06T07:45:38Z</time>
      </trkpt>
      <trkpt lat="48.55292" lon="1.98842">
        <ele>148.9</ele>
        <time>2022-08-06T07:45:40Z</time>
      </trkpt>
      <trkpt lat="48.55291" lon="1.98858">
        <ele>148.6</ele>
        <time>2022-08-06T07:45:42Z</time>
      </trkpt>
      <trkpt lat="48.55291" lon="1.98874">
        <ele>148.5</ele>
        <time>2022-08-06T07:45:44Z</time>
      </trkpt>
      <trkpt lat="48.55291" lon="1.9889">
        <ele>148.5</ele>
        <time>2022-08-06T07:45:46Z</time>
      </trkpt>
      <trkpt lat="48.55292" lon="1.98905">
        <ele>148.2</ele>
        <time>2022-08-06T07:45:48Z</time>
      </trkpt>
      <trkpt lat="48.55291" lon="1.9892">
        <ele>147.9</ele>
        <time>2022-08-06T07:45:50Z</time>
      </trkpt>
      <trkpt lat="48.55291" lon="1.98936">
        <ele>147.7</ele>
        <time>2022-08-06T07:45:52Z</time>
      </trkpt>
      <trkpt lat="48.5529" lon="1.98953">
        <ele>147.5</ele>
        <time>2022-08-06T07:45:54Z</time>
      </trkpt>
      <trkpt lat="48.5529" lon="1.98968">
        <ele>147.6</ele>
        <time>2022-08-06T07:45:56Z</time>
      </trkpt>
      <trkpt lat="48.55289" lon="1.98984">
        <ele>147.6</ele>
        <time>2022-08-06T07:45:58Z</time>
      </trkpt>
      <trkpt lat="48.5529" lon="1.99">
        <ele>147.5</ele>
        <time>2022-08-06T07:46:00Z</time>
      </trkpt>
      <trkpt lat="48.55292" lon="1.99014">
        <ele>147.2</ele>
        <time>2022-08-06T07:46:02Z</time>
      </trkpt>
      <trkpt lat="48.55292" lon="1.99028">
        <ele>147</ele>
        <time>2022-08-06T07:46:04Z</time>
      </trkpt>
      <trkpt lat="48.55292" lon="1.9904">
        <ele>147</ele>
        <time>2022-08-06T07:46:06Z</time>
      </trkpt>
      <trkpt lat="48.55291" lon="1.99052">
        <ele>147</ele>
        <time>2022-08-06T07:46:08Z</time>
      </trkpt>
      <trkpt lat="48.55291" lon="1.99064">
        <ele>146.8</ele>
        <time>2022-08-06T07:46:10Z</time>
      </trkpt>
      <trkpt lat="48.55291" lon="1.99077">
        <ele>146.6</ele>
        <time>2022-08-06T07:46:12Z</time>
      </trkpt>
      <trkpt lat="48.55291" lon="1.99091">
        <ele>146.5</ele>
        <time>2022-08-06T07:46:14Z</time>
      </trkpt>
      <trkpt lat="48.5529" lon="1.99107">
        <ele>146.4</ele>
        <time>2022-08-06T07:46:16Z</time>
      </trkpt>
      <trkpt lat="48.5529" lon="1.99122">
        <ele>146.4</ele>
        <time>2022-08-06T07:46:18Z</time>
      </trkpt>
      <trkpt lat="48.55289" lon="1.99137">
        <ele>146.4</ele>
        <time>2022-08-06T07:46:20Z</time>
      </trkpt>
      <trkpt lat="48.55289" lon="1.99154">
        <ele>145.9</ele>
        <time>2022-08-06T07:46:22Z</time>
      </trkpt>
      <trkpt lat="48.55289" lon="1.9917">
        <ele>145.3</ele>
        <time>2022-08-06T07:46:24Z</time>
      </trkpt>
      <trkpt lat="48.55288" lon="1.99186">
        <ele>144.9</ele>
        <time>2022-08-06T07:46:26Z</time>
      </trkpt>
      <trkpt lat="48.55288" lon="1.99201">
        <ele>144.5</ele>
        <time>2022-08-06T07:46:28Z</time>
      </trkpt>
      <trkpt lat="48.55289" lon="1.99217">
        <ele>144</ele>
        <time>2022-08-06T07:46:30Z</time>
      </trkpt>
      <trkpt lat="48.55292" lon="1.99235">
        <ele>143.6</ele>
        <time>2022-08-06T07:46:32Z</time>
      </trkpt>
      <trkpt lat="48.55294" lon="1.99255">
        <ele>142.9</ele>
        <time>2022-08-06T07:46:34Z</time>
      </trkpt>
      <trkpt lat="48.55297" lon="1.99276">
        <ele>141.8</ele>
        <time>2022-08-06T07:46:36Z</time>
      </trkpt>
      <trkpt lat="48.55301" lon="1.99299">
        <ele>141</ele>
        <time>2022-08-06T07:46:38Z</time>
      </trkpt>
      <trkpt lat="48.55306" lon="1.99322">
        <ele>139.8</ele>
        <time>2022-08-06T07:46:40Z</time>
      </trkpt>
      <trkpt lat="48.5531" lon="1.99346">
        <ele>138.5</ele>
        <time>2022-08-06T07:46:42Z</time>
      </trkpt>
      <trkpt lat="48.55314" lon="1.99369">
        <ele>137.5</ele>
        <time>2022-08-06T07:46:44Z</time>
      </trkpt>
      <trkpt lat="48.55318" lon="1.99391">
        <ele>136.8</ele>
        <time>2022-08-06T07:46:46Z</time>
      </trkpt>
      <trkpt lat="48.55324" lon="1.99413">
        <ele>136.1</ele>
        <time>2022-08-06T07:46:48Z</time>
      </trkpt>
      <trkpt lat="48.55329" lon="1.99434">
        <ele>135.4</ele>
        <time>2022-08-06T07:46:50Z</time>
      </trkpt>
      <trkpt lat="48.55334" lon="1.99458">
        <ele>134.1</ele>
        <time>2022-08-06T07:46:52Z</time>
      </trkpt>
      <trkpt lat="48.55335" lon="1.99482">
        <ele>132.4</ele>
        <time>2022-08-06T07:46:54Z</time>
      </trkpt>
      <trkpt lat="48.55334" lon="1.99508">
        <ele>130.5</ele>
        <time>2022-08-06T07:46:56Z</time>
      </trkpt>
      <trkpt lat="48.55331" lon="1.99536">
        <ele>128.6</ele>
        <time>2022-08-06T07:46:58Z</time>
      </trkpt>
      <trkpt lat="48.5533" lon="1.99565">
        <ele>127.6</ele>
        <time>2022-08-06T07:47:00Z</time>
      </trkpt>
      <trkpt lat="48.55331" lon="1.99594">
        <ele>126.6</ele>
        <time>2022-08-06T07:47:02Z</time>
      </trkpt>
      <trkpt lat="48.55336" lon="1.99621">
        <ele>125.7</ele>
        <time>2022-08-06T07:47:04Z</time>
      </trkpt>
      <trkpt lat="48.55344" lon="1.99645">
        <ele>124.9</ele>
        <time>2022-08-06T07:47:06Z</time>
      </trkpt>
      <trkpt lat="48.55355" lon="1.99667">
        <ele>124.2</ele>
        <time>2022-08-06T07:47:08Z</time>
      </trkpt>
      <trkpt lat="48.55367" lon="1.99685">
        <ele>123.9</ele>
        <time>2022-08-06T07:47:10Z</time>
      </trkpt>
      <trkpt lat="48.55378" lon="1.99702">
        <ele>123.4</ele>
        <time>2022-08-06T07:47:12Z</time>
      </trkpt>
      <trkpt lat="48.55385" lon="1.9972">
        <ele>123.1</ele>
        <time>2022-08-06T07:47:14Z</time>
      </trkpt>
      <trkpt lat="48.55391" lon="1.99739">
        <ele>122.9</ele>
        <time>2022-08-06T07:47:16Z</time>
      </trkpt>
      <trkpt lat="48.55399" lon="1.99757">
        <ele>122.6</ele>
        <time>2022-08-06T07:47:18Z</time>
      </trkpt>
      <trkpt lat="48.55405" lon="1.99773">
        <ele>122.4</ele>
        <time>2022-08-06T07:47:20Z</time>
      </trkpt>
      <trkpt lat="48.55412" lon="1.9979">
        <ele>121.8</ele>
        <time>2022-08-06T07:47:22Z</time>
      </trkpt>
      <trkpt lat="48.55417" lon="1.99809">
        <ele>121</ele>
        <time>2022-08-06T07:47:24Z</time>
      </trkpt>
      <trkpt lat="48.5542" lon="1.99829">
        <ele>120.9</ele>
        <time>2022-08-06T07:47:26Z</time>
      </trkpt>
      <trkpt lat="48.55422" lon="1.99848">
        <ele>120.8</ele>
        <time>2022-08-06T07:47:28Z</time>
      </trkpt>
      <trkpt lat="48.55424" lon="1.99865">
        <ele>120.9</ele>
        <time>2022-08-06T07:47:30Z</time>
      </trkpt>
      <trkpt lat="48.55426" lon="1.99882">
        <ele>121.1</ele>
        <time>2022-08-06T07:47:32Z</time>
      </trkpt>
      <trkpt lat="48.55428" lon="1.999">
        <ele>121.2</ele>
        <time>2022-08-06T07:47:34Z</time>
      </trkpt>
      <trkpt lat="48.5543" lon="1.99917">
        <ele>121</ele>
        <time>2022-08-06T07:47:36Z</time>
      </trkpt>
      <trkpt lat="48.55433" lon="1.99934">
        <ele>120.6</ele>
        <time>2022-08-06T07:47:38Z</time>
      </trkpt>
      <trkpt lat="48.55434" lon="1.9995">
        <ele>120.4</ele>
        <time>2022-08-06T07:47:40Z</time>
      </trkpt>
      <trkpt lat="48.55437" lon="1.99966">
        <ele>120.3</ele>
        <time>2022-08-06T07:47:42Z</time>
      </trkpt>
      <trkpt lat="48.55439" lon="1.99982">
        <ele>120</ele>
        <time>2022-08-06T07:47:44Z</time>
      </trkpt>
      <trkpt lat="48.55441" lon="1.99997">
        <ele>119.5</ele>
        <time>2022-08-06T07:47:46Z</time>
      </trkpt>
      <trkpt lat="48.55442" lon="2.0001">
        <ele>119.6</ele>
        <time>2022-08-06T07:47:48Z</time>
      </trkpt>
      <trkpt lat="48.55444" lon="2.00023">
        <ele>119.9</ele>
        <time>2022-08-06T07:47:50Z</time>
      </trkpt>
      <trkpt lat="48.55446" lon="2.00035">
        <ele>120.2</ele>
        <time>2022-08-06T07:47:52Z</time>
      </trkpt>
      <trkpt lat="48.55449" lon="2.00046">
        <ele>120.4</ele>
        <time>2022-08-06T07:47:54Z</time>
      </trkpt>
      <trkpt lat="48.55452" lon="2.00059">
        <ele>120.5</ele>
        <time>2022-08-06T07:47:56Z</time>
      </trkpt>
      <trkpt lat="48.55454" lon="2.00071">
        <ele>120.3</ele>
        <time>2022-08-06T07:47:58Z</time>
      </trkpt>
      <trkpt lat="48.55456" lon="2.00083">
        <ele>120.2</ele>
        <time>2022-08-06T07:48:00Z</time>
      </trkpt>
      <trkpt lat="48.55459" lon="2.00095">
        <ele>120.1</ele>
        <time>2022-08-06T07:48:02Z</time>
      </trkpt>
      <trkpt lat="48.55461" lon="2.00108">
        <ele>120.2</ele>
        <time>2022-08-06T07:48:04Z</time>
      </trkpt>
      <trkpt lat="48.55462" lon="2.00122">
        <ele>120.1</ele>
        <time>2022-08-06T07:48:06Z</time>
      </trkpt>
      <trkpt lat="48.55463" lon="2.00136">
        <ele>120</ele>
        <time>2022-08-06T07:48:08Z</time>
      </trkpt>
      <trkpt lat="48.55464" lon="2.00151">
        <ele>119.8</ele>
        <time>2022-08-06T07:48:10Z</time>
      </trkpt>
      <trkpt lat="48.55465" lon="2.00166">
        <ele>119.6</ele>
        <time>2022-08-06T07:48:12Z</time>
      </trkpt>
      <trkpt lat="48.55465" lon="2.0018">
        <ele>119.5</ele>
        <time>2022-08-06T07:48:14Z</time>
      </trkpt>
      <trkpt lat="48.55466" lon="2.00196">
        <ele>119.4</ele>
        <time>2022-08-06T07:48:16Z</time>
      </trkpt>
      <trkpt lat="48.55467" lon="2.00211">
        <ele>119.4</ele>
        <time>2022-08-06T07:48:18Z</time>
      </trkpt>
      <trkpt lat="48.55466" lon="2.00227">
        <ele>119.4</ele>
        <time>2022-08-06T07:48:20Z</time>
      </trkpt>
      <trkpt lat="48.55466" lon="2.00242">
        <ele>119.3</ele>
        <time>2022-08-06T07:48:22Z</time>
      </trkpt>
      <trkpt lat="48.55465" lon="2.00258">
        <ele>119.1</ele>
        <time>2022-08-06T07:48:24Z</time>
      </trkpt>
      <trkpt lat="48.55462" lon="2.00273">
        <ele>118.8</ele>
        <time>2022-08-06T07:48:26Z</time>
      </trkpt>
      <trkpt lat="48.5546" lon="2.00288">
        <ele>118.3</ele>
        <time>2022-08-06T07:48:28Z</time>
      </trkpt>
      <trkpt lat="48.55456" lon="2.00299">
        <ele>118</ele>
        <time>2022-08-06T07:48:30Z</time>
      </trkpt>
      <trkpt lat="48.5545" lon="2.003">
        <ele>118.2</ele>
        <time>2022-08-06T07:48:32Z</time>
      </trkpt>
      <trkpt lat="48.55442" lon="2.00293">
        <ele>119.2</ele>
        <time>2022-08-06T07:48:36Z</time>
      </trkpt>
      <trkpt lat="48.55437" lon="2.00289">
        <ele>119.9</ele>
        <time>2022-08-06T07:48:38Z</time>
      </trkpt>
      <trkpt lat="48.55432" lon="2.00286">
        <ele>120.5</ele>
        <time>2022-08-06T07:48:40Z</time>
      </trkpt>
      <trkpt lat="48.55427" lon="2.00283">
        <ele>121.1</ele>
        <time>2022-08-06T07:48:42Z</time>
      </trkpt>
      <trkpt lat="48.55422" lon="2.0028">
        <ele>121.6</ele>
        <time>2022-08-06T07:48:44Z</time>
      </trkpt>
      <trkpt lat="48.55417" lon="2.00277">
        <ele>122</ele>
        <time>2022-08-06T07:48:46Z</time>
      </trkpt>
      <trkpt lat="48.55412" lon="2.00274">
        <ele>122.2</ele>
        <time>2022-08-06T07:48:48Z</time>
      </trkpt>
      <trkpt lat="48.55407" lon="2.00273">
        <ele>122.4</ele>
        <time>2022-08-06T07:48:50Z</time>
      </trkpt>
      <trkpt lat="48.55402" lon="2.00271">
        <ele>122.7</ele>
        <time>2022-08-06T07:48:52Z</time>
      </trkpt>
      <trkpt lat="48.55398" lon="2.00268">
        <ele>122.9</ele>
        <time>2022-08-06T07:48:54Z</time>
      </trkpt>
      <trkpt lat="48.55393" lon="2.00265">
        <ele>123.2</ele>
        <time>2022-08-06T07:48:56Z</time>
      </trkpt>
      <trkpt lat="48.55388" lon="2.00262">
        <ele>123.6</ele>
        <time>2022-08-06T07:48:58Z</time>
      </trkpt>
      <trkpt lat="48.55384" lon="2.0026">
        <ele>124.1</ele>
        <time>2022-08-06T07:49:00Z</time>
      </trkpt>
      <trkpt lat="48.55379" lon="2.00257">
        <ele>124.6</ele>
        <time>2022-08-06T07:49:02Z</time>
      </trkpt>
      <trkpt lat="48.55374" lon="2.00256">
        <ele>125</ele>
        <time>2022-08-06T07:49:04Z</time>
      </trkpt>
      <trkpt lat="48.5537" lon="2.00253">
        <ele>125.4</ele>
        <time>2022-08-06T07:49:06Z</time>
      </trkpt>
      <trkpt lat="48.55365" lon="2.00251">
        <ele>125.7</ele>
        <time>2022-08-06T07:49:08Z</time>
      </trkpt>
      <trkpt lat="48.5536" lon="2.00249">
        <ele>126.1</ele>
        <time>2022-08-06T07:49:10Z</time>
      </trkpt>
      <trkpt lat="48.55356" lon="2.00246">
        <ele>126.6</ele>
        <time>2022-08-06T07:49:12Z</time>
      </trkpt>
      <trkpt lat="48.5535" lon="2.00245">
        <ele>127.2</ele>
        <time>2022-08-06T07:49:14Z</time>
      </trkpt>
      <trkpt lat="48.55345" lon="2.00244">
        <ele>127.7</ele>
        <time>2022-08-06T07:49:16Z</time>
      </trkpt>
      <trkpt lat="48.5534" lon="2.00242">
        <ele>128.3</ele>
        <time>2022-08-06T07:49:18Z</time>
      </trkpt>
      <trkpt lat="48.55335" lon="2.00241">
        <ele>128.8</ele>
        <time>2022-08-06T07:49:20Z</time>
      </trkpt>
      <trkpt lat="48.55327" lon="2.00241">
        <ele>129.7</ele>
        <time>2022-08-06T07:49:24Z</time>
      </trkpt>
      <trkpt lat="48.55318" lon="2.0024">
        <ele>130.6</ele>
        <time>2022-08-06T07:49:28Z</time>
      </trkpt>
      <trkpt lat="48.55313" lon="2.0024">
        <ele>131.2</ele>
        <time>2022-08-06T07:49:30Z</time>
      </trkpt>
      <trkpt lat="48.55309" lon="2.0024">
        <ele>131.7</ele>
        <time>2022-08-06T07:49:32Z</time>
      </trkpt>
      <trkpt lat="48.553" lon="2.00239">
        <ele>132.9</ele>
        <time>2022-08-06T07:49:36Z</time>
      </trkpt>
      <trkpt lat="48.55295" lon="2.0024">
        <ele>133.5</ele>
        <time>2022-08-06T07:49:38Z</time>
      </trkpt>
      <trkpt lat="48.5529" lon="2.0024">
        <ele>134.2</ele>
        <time>2022-08-06T07:49:40Z</time>
      </trkpt>
      <trkpt lat="48.55282" lon="2.00239">
        <ele>135.4</ele>
        <time>2022-08-06T07:49:44Z</time>
      </trkpt>
      <trkpt lat="48.55272" lon="2.00238">
        <ele>136.6</ele>
        <time>2022-08-06T07:49:48Z</time>
      </trkpt>
      <trkpt lat="48.55267" lon="2.00238">
        <ele>137.2</ele>
        <time>2022-08-06T07:49:50Z</time>
      </trkpt>
      <trkpt lat="48.55262" lon="2.00238">
        <ele>137.7</ele>
        <time>2022-08-06T07:49:52Z</time>
      </trkpt>
      <trkpt lat="48.55257" lon="2.00239">
        <ele>138.3</ele>
        <time>2022-08-06T07:49:54Z</time>
      </trkpt>
      <trkpt lat="48.55248" lon="2.00239">
        <ele>139.1</ele>
        <time>2022-08-06T07:49:58Z</time>
      </trkpt>
      <trkpt lat="48.55243" lon="2.0024">
        <ele>139.2</ele>
        <time>2022-08-06T07:50:00Z</time>
      </trkpt>
      <trkpt lat="48.55233" lon="2.0024">
        <ele>139.6</ele>
        <time>2022-08-06T07:50:04Z</time>
      </trkpt>
      <trkpt lat="48.55224" lon="2.0024">
        <ele>139.9</ele>
        <time>2022-08-06T07:50:08Z</time>
      </trkpt>
      <trkpt lat="48.5522" lon="2.00241">
        <ele>140</ele>
        <time>2022-08-06T07:50:10Z</time>
      </trkpt>
      <trkpt lat="48.55215" lon="2.00241">
        <ele>140.1</ele>
        <time>2022-08-06T07:50:12Z</time>
      </trkpt>
      <trkpt lat="48.5521" lon="2.00241">
        <ele>140.1</ele>
        <time>2022-08-06T07:50:14Z</time>
      </trkpt>
      <trkpt lat="48.55205" lon="2.00241">
        <ele>140.2</ele>
        <time>2022-08-06T07:50:16Z</time>
      </trkpt>
      <trkpt lat="48.552" lon="2.00241">
        <ele>140.3</ele>
        <time>2022-08-06T07:50:18Z</time>
      </trkpt>
      <trkpt lat="48.55195" lon="2.00242">
        <ele>140.3</ele>
        <time>2022-08-06T07:50:20Z</time>
      </trkpt>
      <trkpt lat="48.5519" lon="2.00242">
        <ele>140.4</ele>
        <time>2022-08-06T07:50:22Z</time>
      </trkpt>
      <trkpt lat="48.55184" lon="2.00241">
        <ele>140.6</ele>
        <time>2022-08-06T07:50:24Z</time>
      </trkpt>
      <trkpt lat="48.55178" lon="2.00241">
        <ele>140.7</ele>
        <time>2022-08-06T07:50:26Z</time>
      </trkpt>
      <trkpt lat="48.55171" lon="2.00241">
        <ele>140.9</ele>
        <time>2022-08-06T07:50:28Z</time>
      </trkpt>
      <trkpt lat="48.55165" lon="2.00241">
        <ele>141</ele>
        <time>2022-08-06T07:50:30Z</time>
      </trkpt>
      <trkpt lat="48.55158" lon="2.0024">
        <ele>141.1</ele>
        <time>2022-08-06T07:50:32Z</time>
      </trkpt>
      <trkpt lat="48.55151" lon="2.0024">
        <ele>141.2</ele>
        <time>2022-08-06T07:50:34Z</time>
      </trkpt>
      <trkpt lat="48.55144" lon="2.00239">
        <ele>141.3</ele>
        <time>2022-08-06T07:50:36Z</time>
      </trkpt>
      <trkpt lat="48.55137" lon="2.00238">
        <ele>141.4</ele>
        <time>2022-08-06T07:50:38Z</time>
      </trkpt>
      <trkpt lat="48.5513" lon="2.00238">
        <ele>141.4</ele>
        <time>2022-08-06T07:50:40Z</time>
      </trkpt>
      <trkpt lat="48.55123" lon="2.00238">
        <ele>141.4</ele>
        <time>2022-08-06T07:50:42Z</time>
      </trkpt>
      <trkpt lat="48.55116" lon="2.00238">
        <ele>141.4</ele>
        <time>2022-08-06T07:50:44Z</time>
      </trkpt>
      <trkpt lat="48.55108" lon="2.00237">
        <ele>141.5</ele>
        <time>2022-08-06T07:50:46Z</time>
      </trkpt>
      <trkpt lat="48.55101" lon="2.00236">
        <ele>141.5</ele>
        <time>2022-08-06T07:50:48Z</time>
      </trkpt>
      <trkpt lat="48.55094" lon="2.00236">
        <ele>141.5</ele>
        <time>2022-08-06T07:50:50Z</time>
      </trkpt>
      <trkpt lat="48.55086" lon="2.00234">
        <ele>141.6</ele>
        <time>2022-08-06T07:50:52Z</time>
      </trkpt>
      <trkpt lat="48.55078" lon="2.00233">
        <ele>141.6</ele>
        <time>2022-08-06T07:50:54Z</time>
      </trkpt>
      <trkpt lat="48.5507" lon="2.00233">
        <ele>141.6</ele>
        <time>2022-08-06T07:50:56Z</time>
      </trkpt>
      <trkpt lat="48.55061" lon="2.00234">
        <ele>141.6</ele>
        <time>2022-08-06T07:50:58Z</time>
      </trkpt>
      <trkpt lat="48.55052" lon="2.00235">
        <ele>141.5</ele>
        <time>2022-08-06T07:51:00Z</time>
      </trkpt>
      <trkpt lat="48.55043" lon="2.00236">
        <ele>141.3</ele>
        <time>2022-08-06T07:51:02Z</time>
      </trkpt>
      <trkpt lat="48.55034" lon="2.00236">
        <ele>141.1</ele>
        <time>2022-08-06T07:51:04Z</time>
      </trkpt>
      <trkpt lat="48.55025" lon="2.00236">
        <ele>140.9</ele>
        <time>2022-08-06T07:51:06Z</time>
      </trkpt>
      <trkpt lat="48.55016" lon="2.00236">
        <ele>140.6</ele>
        <time>2022-08-06T07:51:08Z</time>
      </trkpt>
      <trkpt lat="48.55006" lon="2.00237">
        <ele>140.2</ele>
        <time>2022-08-06T07:51:10Z</time>
      </trkpt>
      <trkpt lat="48.54996" lon="2.00236">
        <ele>139.8</ele>
        <time>2022-08-06T07:51:12Z</time>
      </trkpt>
      <trkpt lat="48.54986" lon="2.00236">
        <ele>139.5</ele>
        <time>2022-08-06T07:51:14Z</time>
      </trkpt>
      <trkpt lat="48.54976" lon="2.00236">
        <ele>139.1</ele>
        <time>2022-08-06T07:51:16Z</time>
      </trkpt>
      <trkpt lat="48.54966" lon="2.00234">
        <ele>139.1</ele>
        <time>2022-08-06T07:51:18Z</time>
      </trkpt>
      <trkpt lat="48.54955" lon="2.00232">
        <ele>139.3</ele>
        <time>2022-08-06T07:51:20Z</time>
      </trkpt>
      <trkpt lat="48.54945" lon="2.00231">
        <ele>139.4</ele>
        <time>2022-08-06T07:51:22Z</time>
      </trkpt>
      <trkpt lat="48.54935" lon="2.0023">
        <ele>139.5</ele>
        <time>2022-08-06T07:51:24Z</time>
      </trkpt>
      <trkpt lat="48.54926" lon="2.00231">
        <ele>139.6</ele>
        <time>2022-08-06T07:51:26Z</time>
      </trkpt>
      <trkpt lat="48.54918" lon="2.00236">
        <ele>139.5</ele>
        <time>2022-08-06T07:51:28Z</time>
      </trkpt>
      <trkpt lat="48.5491" lon="2.00243">
        <ele>139.7</ele>
        <time>2022-08-06T07:51:30Z</time>
      </trkpt>
      <trkpt lat="48.54903" lon="2.0025">
        <ele>140</ele>
        <time>2022-08-06T07:51:32Z</time>
      </trkpt>
      <trkpt lat="48.54896" lon="2.00258">
        <ele>140.2</ele>
        <time>2022-08-06T07:51:34Z</time>
      </trkpt>
      <trkpt lat="48.54889" lon="2.00264">
        <ele>140.5</ele>
        <time>2022-08-06T07:51:36Z</time>
      </trkpt>
      <trkpt lat="48.54882" lon="2.0027">
        <ele>140.8</ele>
        <time>2022-08-06T07:51:38Z</time>
      </trkpt>
      <trkpt lat="48.54875" lon="2.00276">
        <ele>141.1</ele>
        <time>2022-08-06T07:51:40Z</time>
      </trkpt>
      <trkpt lat="48.54868" lon="2.00282">
        <ele>141.4</ele>
        <time>2022-08-06T07:51:42Z</time>
      </trkpt>
      <trkpt lat="48.54861" lon="2.00286">
        <ele>141.7</ele>
        <time>2022-08-06T07:51:44Z</time>
      </trkpt>
      <trkpt lat="48.54855" lon="2.00292">
        <ele>142.1</ele>
        <time>2022-08-06T07:51:46Z</time>
      </trkpt>
      <trkpt lat="48.54848" lon="2.00297">
        <ele>142.6</ele>
        <time>2022-08-06T07:51:48Z</time>
      </trkpt>
      <trkpt lat="48.54842" lon="2.00302">
        <ele>143.1</ele>
        <time>2022-08-06T07:51:50Z</time>
      </trkpt>
      <trkpt lat="48.54837" lon="2.00307">
        <ele>143.7</ele>
        <time>2022-08-06T07:51:52Z</time>
      </trkpt>
      <trkpt lat="48.54831" lon="2.00312">
        <ele>144.2</ele>
        <time>2022-08-06T07:51:54Z</time>
      </trkpt>
      <trkpt lat="48.54826" lon="2.00317">
        <ele>144.5</ele>
        <time>2022-08-06T07:51:56Z</time>
      </trkpt>
      <trkpt lat="48.5482" lon="2.00323">
        <ele>144.9</ele>
        <time>2022-08-06T07:51:58Z</time>
      </trkpt>
      <trkpt lat="48.54815" lon="2.00329">
        <ele>145.3</ele>
        <time>2022-08-06T07:52:00Z</time>
      </trkpt>
      <trkpt lat="48.5481" lon="2.00334">
        <ele>145.7</ele>
        <time>2022-08-06T07:52:02Z</time>
      </trkpt>
      <trkpt lat="48.54806" lon="2.0034">
        <ele>146</ele>
        <time>2022-08-06T07:52:04Z</time>
      </trkpt>
      <trkpt lat="48.54801" lon="2.00345">
        <ele>146.3</ele>
        <time>2022-08-06T07:52:06Z</time>
      </trkpt>
      <trkpt lat="48.54796" lon="2.0035">
        <ele>146.7</ele>
        <time>2022-08-06T07:52:08Z</time>
      </trkpt>
      <trkpt lat="48.54791" lon="2.00356">
        <ele>147</ele>
        <time>2022-08-06T07:52:10Z</time>
      </trkpt>
      <trkpt lat="48.54786" lon="2.0036">
        <ele>147.4</ele>
        <time>2022-08-06T07:52:12Z</time>
      </trkpt>
      <trkpt lat="48.54781" lon="2.00364">
        <ele>147.8</ele>
        <time>2022-08-06T07:52:14Z</time>
      </trkpt>
      <trkpt lat="48.54775" lon="2.00369">
        <ele>148.1</ele>
        <time>2022-08-06T07:52:16Z</time>
      </trkpt>
      <trkpt lat="48.5477" lon="2.00373">
        <ele>148.4</ele>
        <time>2022-08-06T07:52:18Z</time>
      </trkpt>
      <trkpt lat="48.54765" lon="2.00378">
        <ele>148.7</ele>
        <time>2022-08-06T07:52:20Z</time>
      </trkpt>
      <trkpt lat="48.54761" lon="2.00385">
        <ele>149.2</ele>
        <time>2022-08-06T07:52:22Z</time>
      </trkpt>
      <trkpt lat="48.54755" lon="2.00391">
        <ele>149.6</ele>
        <time>2022-08-06T07:52:24Z</time>
      </trkpt>
      <trkpt lat="48.5475" lon="2.00397">
        <ele>150</ele>
        <time>2022-08-06T07:52:26Z</time>
      </trkpt>
      <trkpt lat="48.54744" lon="2.00402">
        <ele>150.2</ele>
        <time>2022-08-06T07:52:28Z</time>
      </trkpt>
      <trkpt lat="48.54739" lon="2.00408">
        <ele>150.4</ele>
        <time>2022-08-06T07:52:30Z</time>
      </trkpt>
      <trkpt lat="48.54733" lon="2.00413">
        <ele>150.6</ele>
        <time>2022-08-06T07:52:32Z</time>
      </trkpt>
      <trkpt lat="48.54727" lon="2.00419">
        <ele>150.8</ele>
        <time>2022-08-06T07:52:34Z</time>
      </trkpt>
      <trkpt lat="48.54721" lon="2.00423">
        <ele>151</ele>
        <time>2022-08-06T07:52:36Z</time>
      </trkpt>
      <trkpt lat="48.54716" lon="2.00429">
        <ele>151.2</ele>
        <time>2022-08-06T07:52:38Z</time>
      </trkpt>
      <trkpt lat="48.5471" lon="2.00434">
        <ele>151.4</ele>
        <time>2022-08-06T07:52:40Z</time>
      </trkpt>
      <trkpt lat="48.54704" lon="2.00439">
        <ele>151.6</ele>
        <time>2022-08-06T07:52:42Z</time>
      </trkpt>
      <trkpt lat="48.54699" lon="2.00444">
        <ele>151.8</ele>
        <time>2022-08-06T07:52:44Z</time>
      </trkpt>
      <trkpt lat="48.54694" lon="2.00448">
        <ele>152</ele>
        <time>2022-08-06T07:52:46Z</time>
      </trkpt>
      <trkpt lat="48.54689" lon="2.00452">
        <ele>152.2</ele>
        <time>2022-08-06T07:52:48Z</time>
      </trkpt>
      <trkpt lat="48.54683" lon="2.00457">
        <ele>152.4</ele>
        <time>2022-08-06T07:52:50Z</time>
      </trkpt>
      <trkpt lat="48.54678" lon="2.00462">
        <ele>152.6</ele>
        <time>2022-08-06T07:52:52Z</time>
      </trkpt>
      <trkpt lat="48.54672" lon="2.00466">
        <ele>152.8</ele>
        <time>2022-08-06T07:52:54Z</time>
      </trkpt>
      <trkpt lat="48.54666" lon="2.00472">
        <ele>153</ele>
        <time>2022-08-06T07:52:56Z</time>
      </trkpt>
      <trkpt lat="48.54661" lon="2.00477">
        <ele>153</ele>
        <time>2022-08-06T07:52:58Z</time>
      </trkpt>
      <trkpt lat="48.54654" lon="2.00482">
        <ele>153</ele>
        <time>2022-08-06T07:53:00Z</time>
      </trkpt>
      <trkpt lat="48.54648" lon="2.00487">
        <ele>153</ele>
        <time>2022-08-06T07:53:02Z</time>
      </trkpt>
      <trkpt lat="48.54642" lon="2.00493">
        <ele>153</ele>
        <time>2022-08-06T07:53:04Z</time>
      </trkpt>
      <trkpt lat="48.54636" lon="2.00498">
        <ele>153.1</ele>
        <time>2022-08-06T07:53:06Z</time>
      </trkpt>
      <trkpt lat="48.5463" lon="2.00504">
        <ele>153.4</ele>
        <time>2022-08-06T07:53:08Z</time>
      </trkpt>
      <trkpt lat="48.54624" lon="2.00509">
        <ele>153.7</ele>
        <time>2022-08-06T07:53:10Z</time>
      </trkpt>
      <trkpt lat="48.54618" lon="2.00515">
        <ele>153.9</ele>
        <time>2022-08-06T07:53:12Z</time>
      </trkpt>
      <trkpt lat="48.54611" lon="2.00521">
        <ele>154</ele>
        <time>2022-08-06T07:53:14Z</time>
      </trkpt>
      <trkpt lat="48.54605" lon="2.00528">
        <ele>154</ele>
        <time>2022-08-06T07:53:16Z</time>
      </trkpt>
      <trkpt lat="48.546" lon="2.00535">
        <ele>154</ele>
        <time>2022-08-06T07:53:18Z</time>
      </trkpt>
      <trkpt lat="48.54594" lon="2.00542">
        <ele>154</ele>
        <time>2022-08-06T07:53:20Z</time>
      </trkpt>
      <trkpt lat="48.54588" lon="2.00549">
        <ele>154</ele>
        <time>2022-08-06T07:53:22Z</time>
      </trkpt>
      <trkpt lat="48.54583" lon="2.00557">
        <ele>154</ele>
        <time>2022-08-06T07:53:24Z</time>
      </trkpt>
      <trkpt lat="48.54578" lon="2.00565">
        <ele>154.2</ele>
        <time>2022-08-06T07:53:26Z</time>
      </trkpt>
      <trkpt lat="48.54573" lon="2.00572">
        <ele>154.4</ele>
        <time>2022-08-06T07:53:28Z</time>
      </trkpt>
      <trkpt lat="48.54568" lon="2.00581">
        <ele>154.5</ele>
        <time>2022-08-06T07:53:30Z</time>
      </trkpt>
      <trkpt lat="48.54563" lon="2.00588">
        <ele>154.7</ele>
        <time>2022-08-06T07:53:32Z</time>
      </trkpt>
      <trkpt lat="48.54558" lon="2.00596">
        <ele>154.9</ele>
        <time>2022-08-06T07:53:34Z</time>
      </trkpt>
      <trkpt lat="48.54552" lon="2.00603">
        <ele>155</ele>
        <time>2022-08-06T07:53:36Z</time>
      </trkpt>
      <trkpt lat="48.54546" lon="2.0061">
        <ele>155</ele>
        <time>2022-08-06T07:53:38Z</time>
      </trkpt>
      <trkpt lat="48.5454" lon="2.00618">
        <ele>154.9</ele>
        <time>2022-08-06T07:53:40Z</time>
      </trkpt>
      <trkpt lat="48.54534" lon="2.00625">
        <ele>154.9</ele>
        <time>2022-08-06T07:53:42Z</time>
      </trkpt>
      <trkpt lat="48.54527" lon="2.00632">
        <ele>155</ele>
        <time>2022-08-06T07:53:44Z</time>
      </trkpt>
      <trkpt lat="48.54521" lon="2.0064">
        <ele>155</ele>
        <time>2022-08-06T07:53:46Z</time>
      </trkpt>
      <trkpt lat="48.54513" lon="2.00647">
        <ele>155</ele>
        <time>2022-08-06T07:53:48Z</time>
      </trkpt>
      <trkpt lat="48.54505" lon="2.00654">
        <ele>155</ele>
        <time>2022-08-06T07:53:50Z</time>
      </trkpt>
      <trkpt lat="48.54497" lon="2.00661">
        <ele>155.1</ele>
        <time>2022-08-06T07:53:52Z</time>
      </trkpt>
      <trkpt lat="48.5449" lon="2.00667">
        <ele>155.4</ele>
        <time>2022-08-06T07:53:54Z</time>
      </trkpt>
      <trkpt lat="48.54482" lon="2.00673">
        <ele>155.5</ele>
        <time>2022-08-06T07:53:56Z</time>
      </trkpt>
      <trkpt lat="48.54474" lon="2.00678">
        <ele>155.5</ele>
        <time>2022-08-06T07:53:58Z</time>
      </trkpt>
      <trkpt lat="48.54467" lon="2.00684">
        <ele>155.5</ele>
        <time>2022-08-06T07:54:00Z</time>
      </trkpt>
      <trkpt lat="48.54459" lon="2.0069">
        <ele>155.6</ele>
        <time>2022-08-06T07:54:02Z</time>
      </trkpt>
      <trkpt lat="48.54452" lon="2.00695">
        <ele>155.7</ele>
        <time>2022-08-06T07:54:04Z</time>
      </trkpt>
      <trkpt lat="48.54444" lon="2.007">
        <ele>156</ele>
        <time>2022-08-06T07:54:06Z</time>
      </trkpt>
      <trkpt lat="48.54437" lon="2.00705">
        <ele>156</ele>
        <time>2022-08-06T07:54:08Z</time>
      </trkpt>
      <trkpt lat="48.54429" lon="2.0071">
        <ele>156</ele>
        <time>2022-08-06T07:54:10Z</time>
      </trkpt>
      <trkpt lat="48.54422" lon="2.00715">
        <ele>156</ele>
        <time>2022-08-06T07:54:12Z</time>
      </trkpt>
      <trkpt lat="48.54415" lon="2.00719">
        <ele>156.1</ele>
        <time>2022-08-06T07:54:14Z</time>
      </trkpt>
      <trkpt lat="48.54408" lon="2.00723">
        <ele>156.3</ele>
        <time>2022-08-06T07:54:16Z</time>
      </trkpt>
      <trkpt lat="48.544" lon="2.00726">
        <ele>156.6</ele>
        <time>2022-08-06T07:54:18Z</time>
      </trkpt>
      <trkpt lat="48.54393" lon="2.00729">
        <ele>156.9</ele>
        <time>2022-08-06T07:54:20Z</time>
      </trkpt>
      <trkpt lat="48.54386" lon="2.00732">
        <ele>157</ele>
        <time>2022-08-06T07:54:22Z</time>
      </trkpt>
      <trkpt lat="48.54378" lon="2.00734">
        <ele>157</ele>
        <time>2022-08-06T07:54:24Z</time>
      </trkpt>
      <trkpt lat="48.54371" lon="2.00737">
        <ele>157</ele>
        <time>2022-08-06T07:54:26Z</time>
      </trkpt>
      <trkpt lat="48.54362" lon="2.00738">
        <ele>157</ele>
        <time>2022-08-06T07:54:28Z</time>
      </trkpt>
      <trkpt lat="48.54355" lon="2.00739">
        <ele>157</ele>
        <time>2022-08-06T07:54:30Z</time>
      </trkpt>
      <trkpt lat="48.54347" lon="2.00739">
        <ele>157</ele>
        <time>2022-08-06T07:54:32Z</time>
      </trkpt>
      <trkpt lat="48.54339" lon="2.0074">
        <ele>157</ele>
        <time>2022-08-06T07:54:34Z</time>
      </trkpt>
      <trkpt lat="48.54331" lon="2.00741">
        <ele>157.1</ele>
        <time>2022-08-06T07:54:36Z</time>
      </trkpt>
      <trkpt lat="48.54323" lon="2.0074">
        <ele>157.4</ele>
        <time>2022-08-06T07:54:38Z</time>
      </trkpt>
      <trkpt lat="48.54315" lon="2.0074">
        <ele>157.6</ele>
        <time>2022-08-06T07:54:40Z</time>
      </trkpt>
      <trkpt lat="48.54308" lon="2.00739">
        <ele>157.9</ele>
        <time>2022-08-06T07:54:42Z</time>
      </trkpt>
      <trkpt lat="48.543" lon="2.00738">
        <ele>158</ele>
        <time>2022-08-06T07:54:44Z</time>
      </trkpt>
      <trkpt lat="48.54292" lon="2.00737">
        <ele>158</ele>
        <time>2022-08-06T07:54:46Z</time>
      </trkpt>
      <trkpt lat="48.54284" lon="2.00735">
        <ele>158</ele>
        <time>2022-08-06T07:54:48Z</time>
      </trkpt>
      <trkpt lat="48.54277" lon="2.00733">
        <ele>158</ele>
        <time>2022-08-06T07:54:50Z</time>
      </trkpt>
      <trkpt lat="48.54269" lon="2.0073">
        <ele>158.3</ele>
        <time>2022-08-06T07:54:52Z</time>
      </trkpt>
      <trkpt lat="48.54261" lon="2.00725">
        <ele>158.6</ele>
        <time>2022-08-06T07:54:54Z</time>
      </trkpt>
      <trkpt lat="48.54254" lon="2.0072">
        <ele>158.9</ele>
        <time>2022-08-06T07:54:56Z</time>
      </trkpt>
      <trkpt lat="48.54247" lon="2.00716">
        <ele>159</ele>
        <time>2022-08-06T07:54:58Z</time>
      </trkpt>
      <trkpt lat="48.54241" lon="2.00711">
        <ele>159.1</ele>
        <time>2022-08-06T07:55:00Z</time>
      </trkpt>
      <trkpt lat="48.54235" lon="2.00706">
        <ele>159.3</ele>
        <time>2022-08-06T07:55:02Z</time>
      </trkpt>
      <trkpt lat="48.54228" lon="2.007">
        <ele>159.6</ele>
        <time>2022-08-06T07:55:04Z</time>
      </trkpt>
      <trkpt lat="48.54222" lon="2.00691">
        <ele>159.9</ele>
        <time>2022-08-06T07:55:06Z</time>
      </trkpt>
      <trkpt lat="48.54214" lon="2.00683">
        <ele>159.6</ele>
        <time>2022-08-06T07:55:08Z</time>
      </trkpt>
      <trkpt lat="48.54205" lon="2.00681">
        <ele>159.5</ele>
        <time>2022-08-06T07:55:10Z</time>
      </trkpt>
      <trkpt lat="48.54195" lon="2.00681">
        <ele>159.5</ele>
        <time>2022-08-06T07:55:12Z</time>
      </trkpt>
      <trkpt lat="48.54188" lon="2.00682">
        <ele>159.6</ele>
        <time>2022-08-06T07:55:14Z</time>
      </trkpt>
      <trkpt lat="48.54179" lon="2.00682">
        <ele>159.5</ele>
        <time>2022-08-06T07:55:16Z</time>
      </trkpt>
      <trkpt lat="48.54171" lon="2.00684">
        <ele>159.6</ele>
        <time>2022-08-06T07:55:18Z</time>
      </trkpt>
      <trkpt lat="48.54161" lon="2.00684">
        <ele>159.6</ele>
        <time>2022-08-06T07:55:20Z</time>
      </trkpt>
      <trkpt lat="48.54152" lon="2.00686">
        <ele>159.7</ele>
        <time>2022-08-06T07:55:22Z</time>
      </trkpt>
      <trkpt lat="48.54143" lon="2.00686">
        <ele>159.7</ele>
        <time>2022-08-06T07:55:24Z</time>
      </trkpt>
      <trkpt lat="48.54135" lon="2.00687">
        <ele>159.5</ele>
        <time>2022-08-06T07:55:26Z</time>
      </trkpt>
      <trkpt lat="48.54126" lon="2.00684">
        <ele>158.9</ele>
        <time>2022-08-06T07:55:28Z</time>
      </trkpt>
      <trkpt lat="48.54119" lon="2.0068">
        <ele>158.4</ele>
        <time>2022-08-06T07:55:30Z</time>
      </trkpt>
      <trkpt lat="48.54113" lon="2.00675">
        <ele>158.1</ele>
        <time>2022-08-06T07:55:32Z</time>
      </trkpt>
      <trkpt lat="48.54113" lon="2.00661">
        <ele>158.1</ele>
        <time>2022-08-06T07:55:36Z</time>
      </trkpt>
      <trkpt lat="48.54116" lon="2.00652">
        <ele>158.1</ele>
        <time>2022-08-06T07:55:38Z</time>
      </trkpt>
      <trkpt lat="48.5412" lon="2.0064">
        <ele>158</ele>
        <time>2022-08-06T07:55:40Z</time>
      </trkpt>
      <trkpt lat="48.54124" lon="2.00626">
        <ele>158</ele>
        <time>2022-08-06T07:55:42Z</time>
      </trkpt>
      <trkpt lat="48.54127" lon="2.00612">
        <ele>158</ele>
        <time>2022-08-06T07:55:44Z</time>
      </trkpt>
      <trkpt lat="48.54131" lon="2.00598">
        <ele>158</ele>
        <time>2022-08-06T07:55:46Z</time>
      </trkpt>
      <trkpt lat="48.54134" lon="2.00585">
        <ele>158</ele>
        <time>2022-08-06T07:55:48Z</time>
      </trkpt>
      <trkpt lat="48.54137" lon="2.00569">
        <ele>158</ele>
        <time>2022-08-06T07:55:50Z</time>
      </trkpt>
      <trkpt lat="48.54141" lon="2.00555">
        <ele>158</ele>
        <time>2022-08-06T07:55:52Z</time>
      </trkpt>
      <trkpt lat="48.54146" lon="2.00543">
        <ele>158.5</ele>
        <time>2022-08-06T07:55:54Z</time>
      </trkpt>
      <trkpt lat="48.5415" lon="2.0053">
        <ele>158.9</ele>
        <time>2022-08-06T07:55:56Z</time>
      </trkpt>
      <trkpt lat="48.54154" lon="2.00516">
        <ele>159</ele>
        <time>2022-08-06T07:55:58Z</time>
      </trkpt>
      <trkpt lat="48.54157" lon="2.005">
        <ele>159</ele>
        <time>2022-08-06T07:56:00Z</time>
      </trkpt>
      <trkpt lat="48.54162" lon="2.00486">
        <ele>159</ele>
        <time>2022-08-06T07:56:02Z</time>
      </trkpt>
      <trkpt lat="48.54167" lon="2.00472">
        <ele>159</ele>
        <time>2022-08-06T07:56:04Z</time>
      </trkpt>
      <trkpt lat="48.54171" lon="2.00457">
        <ele>159</ele>
        <time>2022-08-06T07:56:06Z</time>
      </trkpt>
      <trkpt lat="48.54175" lon="2.00442">
        <ele>159</ele>
        <time>2022-08-06T07:56:08Z</time>
      </trkpt>
      <trkpt lat="48.54178" lon="2.00426">
        <ele>159</ele>
        <time>2022-08-06T07:56:10Z</time>
      </trkpt>
      <trkpt lat="48.54183" lon="2.00412">
        <ele>159</ele>
        <time>2022-08-06T07:56:12Z</time>
      </trkpt>
      <trkpt lat="48.54187" lon="2.00397">
        <ele>159</ele>
        <time>2022-08-06T07:56:14Z</time>
      </trkpt>
      <trkpt lat="48.54191" lon="2.00383">
        <ele>159</ele>
        <time>2022-08-06T07:56:16Z</time>
      </trkpt>
      <trkpt lat="48.54196" lon="2.0037">
        <ele>159</ele>
        <time>2022-08-06T07:56:18Z</time>
      </trkpt>
      <trkpt lat="48.542" lon="2.00356">
        <ele>159</ele>
        <time>2022-08-06T07:56:20Z</time>
      </trkpt>
      <trkpt lat="48.54204" lon="2.00343">
        <ele>159</ele>
        <time>2022-08-06T07:56:22Z</time>
      </trkpt>
      <trkpt lat="48.54209" lon="2.00328">
        <ele>158.9</ele>
        <time>2022-08-06T07:56:24Z</time>
      </trkpt>
      <trkpt lat="48.54212" lon="2.00313">
        <ele>158.7</ele>
        <time>2022-08-06T07:56:26Z</time>
      </trkpt>
      <trkpt lat="48.54214" lon="2.00303">
        <ele>158.6</ele>
        <time>2022-08-06T07:56:28Z</time>
      </trkpt>
      <trkpt lat="48.54217" lon="2.00296">
        <ele>158.5</ele>
        <time>2022-08-06T07:56:30Z</time>
      </trkpt>
      <trkpt lat="48.54219" lon="2.00289">
        <ele>158.3</ele>
        <time>2022-08-06T07:56:32Z</time>
      </trkpt>
      <trkpt lat="48.54222" lon="2.00282">
        <ele>158.1</ele>
        <time>2022-08-06T07:56:34Z</time>
      </trkpt>
      <trkpt lat="48.54225" lon="2.00268">
        <ele>158.1</ele>
        <time>2022-08-06T07:56:38Z</time>
      </trkpt>
      <trkpt lat="48.54228" lon="2.00261">
        <ele>158.2</ele>
        <time>2022-08-06T07:56:40Z</time>
      </trkpt>
      <trkpt lat="48.54232" lon="2.00248">
        <ele>158.3</ele>
        <time>2022-08-06T07:56:42Z</time>
      </trkpt>
      <trkpt lat="48.54235" lon="2.00235">
        <ele>158.5</ele>
        <time>2022-08-06T07:56:44Z</time>
      </trkpt>
      <trkpt lat="48.54239" lon="2.0022">
        <ele>158.6</ele>
        <time>2022-08-06T07:56:46Z</time>
      </trkpt>
      <trkpt lat="48.54243" lon="2.00203">
        <ele>158.1</ele>
        <time>2022-08-06T07:56:48Z</time>
      </trkpt>
      <trkpt lat="48.54246" lon="2.00186">
        <ele>157.8</ele>
        <time>2022-08-06T07:56:50Z</time>
      </trkpt>
      <trkpt lat="48.5425" lon="2.00168">
        <ele>158</ele>
        <time>2022-08-06T07:56:52Z</time>
      </trkpt>
      <trkpt lat="48.54255" lon="2.00152">
        <ele>157.7</ele>
        <time>2022-08-06T07:56:54Z</time>
      </trkpt>
      <trkpt lat="48.54259" lon="2.00135">
        <ele>157.7</ele>
        <time>2022-08-06T07:56:56Z</time>
      </trkpt>
      <trkpt lat="48.54262" lon="2.00119">
        <ele>157.9</ele>
        <time>2022-08-06T07:56:58Z</time>
      </trkpt>
      <trkpt lat="48.54265" lon="2.00103">
        <ele>158.1</ele>
        <time>2022-08-06T07:57:00Z</time>
      </trkpt>
      <trkpt lat="48.54269" lon="2.00086">
        <ele>158.3</ele>
        <time>2022-08-06T07:57:02Z</time>
      </trkpt>
      <trkpt lat="48.54272" lon="2.00071">
        <ele>158.1</ele>
        <time>2022-08-06T07:57:04Z</time>
      </trkpt>
      <trkpt lat="48.54275" lon="2.00059">
        <ele>157.9</ele>
        <time>2022-08-06T07:57:06Z</time>
      </trkpt>
      <trkpt lat="48.54278" lon="2.00041">
        <ele>158</ele>
        <time>2022-08-06T07:57:08Z</time>
      </trkpt>
      <trkpt lat="48.5428" lon="2.00024">
        <ele>158.1</ele>
        <time>2022-08-06T07:57:10Z</time>
      </trkpt>
      <trkpt lat="48.54283" lon="2.00006">
        <ele>158.4</ele>
        <time>2022-08-06T07:57:12Z</time>
      </trkpt>
      <trkpt lat="48.54286" lon="1.99991">
        <ele>158.9</ele>
        <time>2022-08-06T07:57:14Z</time>
      </trkpt>
      <trkpt lat="48.54289" lon="1.99976">
        <ele>159.7</ele>
        <time>2022-08-06T07:57:16Z</time>
      </trkpt>
      <trkpt lat="48.54292" lon="1.99963">
        <ele>160.2</ele>
        <time>2022-08-06T07:57:18Z</time>
      </trkpt>
      <trkpt lat="48.54295" lon="1.99949">
        <ele>160.6</ele>
        <time>2022-08-06T07:57:20Z</time>
      </trkpt>
      <trkpt lat="48.54297" lon="1.99935">
        <ele>160.7</ele>
        <time>2022-08-06T07:57:22Z</time>
      </trkpt>
      <trkpt lat="48.54301" lon="1.99921">
        <ele>160.8</ele>
        <time>2022-08-06T07:57:24Z</time>
      </trkpt>
      <trkpt lat="48.54304" lon="1.99906">
        <ele>160.9</ele>
        <time>2022-08-06T07:57:26Z</time>
      </trkpt>
      <trkpt lat="48.54306" lon="1.9989">
        <ele>161</ele>
        <time>2022-08-06T07:57:28Z</time>
      </trkpt>
      <trkpt lat="48.54309" lon="1.99875">
        <ele>160.5</ele>
        <time>2022-08-06T07:57:30Z</time>
      </trkpt>
      <trkpt lat="48.54312" lon="1.99858">
        <ele>160</ele>
        <time>2022-08-06T07:57:32Z</time>
      </trkpt>
      <trkpt lat="48.54315" lon="1.99844">
        <ele>160</ele>
        <time>2022-08-06T07:57:34Z</time>
      </trkpt>
      <trkpt lat="48.54317" lon="1.99828">
        <ele>160</ele>
        <time>2022-08-06T07:57:36Z</time>
      </trkpt>
      <trkpt lat="48.5432" lon="1.99813">
        <ele>160</ele>
        <time>2022-08-06T07:57:38Z</time>
      </trkpt>
      <trkpt lat="48.54322" lon="1.99798">
        <ele>160</ele>
        <time>2022-08-06T07:57:40Z</time>
      </trkpt>
      <trkpt lat="48.54326" lon="1.99786">
        <ele>160</ele>
        <time>2022-08-06T07:57:42Z</time>
      </trkpt>
      <trkpt lat="48.54329" lon="1.99771">
        <ele>160</ele>
        <time>2022-08-06T07:57:44Z</time>
      </trkpt>
      <trkpt lat="48.54332" lon="1.99756">
        <ele>160</ele>
        <time>2022-08-06T07:57:46Z</time>
      </trkpt>
      <trkpt lat="48.54335" lon="1.9974">
        <ele>160</ele>
        <time>2022-08-06T07:57:48Z</time>
      </trkpt>
      <trkpt lat="48.54338" lon="1.99725">
        <ele>160</ele>
        <time>2022-08-06T07:57:50Z</time>
      </trkpt>
      <trkpt lat="48.54339" lon="1.99709">
        <ele>160</ele>
        <time>2022-08-06T07:57:52Z</time>
      </trkpt>
      <trkpt lat="48.54339" lon="1.99693">
        <ele>160</ele>
        <time>2022-08-06T07:57:54Z</time>
      </trkpt>
      <trkpt lat="48.54336" lon="1.99678">
        <ele>160</ele>
        <time>2022-08-06T07:57:56Z</time>
      </trkpt>
      <trkpt lat="48.54332" lon="1.99662">
        <ele>160</ele>
        <time>2022-08-06T07:57:58Z</time>
      </trkpt>
      <trkpt lat="48.54327" lon="1.99647">
        <ele>160</ele>
        <time>2022-08-06T07:58:00Z</time>
      </trkpt>
      <trkpt lat="48.54322" lon="1.99633">
        <ele>160</ele>
        <time>2022-08-06T07:58:02Z</time>
      </trkpt>
      <trkpt lat="48.54314" lon="1.99624">
        <ele>160</ele>
        <time>2022-08-06T07:58:04Z</time>
      </trkpt>
      <trkpt lat="48.54305" lon="1.99616">
        <ele>160</ele>
        <time>2022-08-06T07:58:06Z</time>
      </trkpt>
      <trkpt lat="48.54295" lon="1.99608">
        <ele>160</ele>
        <time>2022-08-06T07:58:08Z</time>
      </trkpt>
      <trkpt lat="48.54285" lon="1.99602">
        <ele>160.2</ele>
        <time>2022-08-06T07:58:10Z</time>
      </trkpt>
      <trkpt lat="48.54276" lon="1.99596">
        <ele>160.6</ele>
        <time>2022-08-06T07:58:12Z</time>
      </trkpt>
      <trkpt lat="48.54268" lon="1.99591">
        <ele>160.8</ele>
        <time>2022-08-06T07:58:14Z</time>
      </trkpt>
      <trkpt lat="48.54259" lon="1.99586">
        <ele>161</ele>
        <time>2022-08-06T07:58:16Z</time>
      </trkpt>
      <trkpt lat="48.54253" lon="1.99582">
        <ele>161</ele>
        <time>2022-08-06T07:58:18Z</time>
      </trkpt>
      <trkpt lat="48.54248" lon="1.9958">
        <ele>161</ele>
        <time>2022-08-06T07:58:20Z</time>
      </trkpt>
      <trkpt lat="48.54244" lon="1.99572">
        <ele>161</ele>
        <time>2022-08-06T07:58:24Z</time>
      </trkpt>
      <trkpt lat="48.54237" lon="1.99571">
        <ele>161</ele>
        <time>2022-08-06T07:58:28Z</time>
      </trkpt>
      <trkpt lat="48.54237" lon="1.99564">
        <ele>161</ele>
        <time>2022-08-06T07:58:30Z</time>
      </trkpt>
      <trkpt lat="48.54238" lon="1.99556">
        <ele>161</ele>
        <time>2022-08-06T07:58:32Z</time>
      </trkpt>
      <trkpt lat="48.54238" lon="1.99547">
        <ele>161.1</ele>
        <time>2022-08-06T07:58:34Z</time>
      </trkpt>
      <trkpt lat="48.54238" lon="1.99538">
        <ele>161.3</ele>
        <time>2022-08-06T07:58:36Z</time>
      </trkpt>
      <trkpt lat="48.54239" lon="1.9953">
        <ele>161.4</ele>
        <time>2022-08-06T07:58:38Z</time>
      </trkpt>
      <trkpt lat="48.54239" lon="1.99521">
        <ele>161.4</ele>
        <time>2022-08-06T07:58:40Z</time>
      </trkpt>
      <trkpt lat="48.54242" lon="1.99511">
        <ele>161.3</ele>
        <time>2022-08-06T07:58:42Z</time>
      </trkpt>
      <trkpt lat="48.54245" lon="1.99501">
        <ele>161.2</ele>
        <time>2022-08-06T07:58:44Z</time>
      </trkpt>
      <trkpt lat="48.54247" lon="1.99491">
        <ele>161.1</ele>
        <time>2022-08-06T07:58:46Z</time>
      </trkpt>
      <trkpt lat="48.54245" lon="1.99484">
        <ele>161.1</ele>
        <time>2022-08-06T07:58:48Z</time>
      </trkpt>
      <trkpt lat="48.54238" lon="1.99479">
        <ele>161.1</ele>
        <time>2022-08-06T07:58:52Z</time>
      </trkpt>
      <trkpt lat="48.54236" lon="1.99473">
        <ele>161</ele>
        <time>2022-08-06T07:58:54Z</time>
      </trkpt>
      <trkpt lat="48.54231" lon="1.99467">
        <ele>161</ele>
        <time>2022-08-06T07:58:58Z</time>
      </trkpt>
      <trkpt lat="48.54225" lon="1.99464">
        <ele>161</ele>
        <time>2022-08-06T07:59:02Z</time>
      </trkpt>
      <trkpt lat="48.54218" lon="1.99459">
        <ele>161</ele>
        <time>2022-08-06T07:59:06Z</time>
      </trkpt>
      <trkpt lat="48.54211" lon="1.99454">
        <ele>161</ele>
        <time>2022-08-06T07:59:10Z</time>
      </trkpt>
      <trkpt lat="48.54205" lon="1.99448">
        <ele>161</ele>
        <time>2022-08-06T07:59:14Z</time>
      </trkpt>
      <trkpt lat="48.54201" lon="1.99446">
        <ele>161</ele>
        <time>2022-08-06T07:59:16Z</time>
      </trkpt>
      <trkpt lat="48.54196" lon="1.99443">
        <ele>160.9</ele>
        <time>2022-08-06T07:59:18Z</time>
      </trkpt>
      <trkpt lat="48.5419" lon="1.99439">
        <ele>160.8</ele>
        <time>2022-08-06T07:59:20Z</time>
      </trkpt>
      <trkpt lat="48.54184" lon="1.99434">
        <ele>160.6</ele>
        <time>2022-08-06T07:59:22Z</time>
      </trkpt>
      <trkpt lat="48.54177" lon="1.9943">
        <ele>160.5</ele>
        <time>2022-08-06T07:59:24Z</time>
      </trkpt>
      <trkpt lat="48.54169" lon="1.99424">
        <ele>160.3</ele>
        <time>2022-08-06T07:59:26Z</time>
      </trkpt>
      <trkpt lat="48.54162" lon="1.99419">
        <ele>159.9</ele>
        <time>2022-08-06T07:59:28Z</time>
      </trkpt>
      <trkpt lat="48.54154" lon="1.99413">
        <ele>159.3</ele>
        <time>2022-08-06T07:59:30Z</time>
      </trkpt>
      <trkpt lat="48.54146" lon="1.99406">
        <ele>158.8</ele>
        <time>2022-08-06T07:59:32Z</time>
      </trkpt>
      <trkpt lat="48.54138" lon="1.99403">
        <ele>158.5</ele>
        <time>2022-08-06T07:59:34Z</time>
      </trkpt>
      <trkpt lat="48.5413" lon="1.99397">
        <ele>158.5</ele>
        <time>2022-08-06T07:59:36Z</time>
      </trkpt>
      <trkpt lat="48.54122" lon="1.99392">
        <ele>158.7</ele>
        <time>2022-08-06T07:59:38Z</time>
      </trkpt>
      <trkpt lat="48.54115" lon="1.99385">
        <ele>158.7</ele>
        <time>2022-08-06T07:59:40Z</time>
      </trkpt>
      <trkpt lat="48.54107" lon="1.99379">
        <ele>158.7</ele>
        <time>2022-08-06T07:59:42Z</time>
      </trkpt>
      <trkpt lat="48.54099" lon="1.99373">
        <ele>158.7</ele>
        <time>2022-08-06T07:59:44Z</time>
      </trkpt>
      <trkpt lat="48.54091" lon="1.99365">
        <ele>158.8</ele>
        <time>2022-08-06T07:59:46Z</time>
      </trkpt>
      <trkpt lat="48.54082" lon="1.9936">
        <ele>158.9</ele>
        <time>2022-08-06T07:59:48Z</time>
      </trkpt>
      <trkpt lat="48.54074" lon="1.99353">
        <ele>158.5</ele>
        <time>2022-08-06T07:59:50Z</time>
      </trkpt>
      <trkpt lat="48.54066" lon="1.99346">
        <ele>158.2</ele>
        <time>2022-08-06T07:59:52Z</time>
      </trkpt>
      <trkpt lat="48.54057" lon="1.9934">
        <ele>158</ele>
        <time>2022-08-06T07:59:54Z</time>
      </trkpt>
      <trkpt lat="48.54047" lon="1.99333">
        <ele>157.7</ele>
        <time>2022-08-06T07:59:56Z</time>
      </trkpt>
      <trkpt lat="48.54039" lon="1.99326">
        <ele>157.2</ele>
        <time>2022-08-06T07:59:58Z</time>
      </trkpt>
      <trkpt lat="48.54032" lon="1.99318">
        <ele>156.6</ele>
        <time>2022-08-06T08:00:00Z</time>
      </trkpt>
      <trkpt lat="48.54024" lon="1.99311">
        <ele>156.1</ele>
        <time>2022-08-06T08:00:02Z</time>
      </trkpt>
      <trkpt lat="48.54015" lon="1.99302">
        <ele>155.1</ele>
        <time>2022-08-06T08:00:04Z</time>
      </trkpt>
      <trkpt lat="48.54002" lon="1.99293">
        <ele>153.3</ele>
        <time>2022-08-06T08:00:06Z</time>
      </trkpt>
      <trkpt lat="48.5399" lon="1.99286">
        <ele>151.7</ele>
        <time>2022-08-06T08:00:08Z</time>
      </trkpt>
      <trkpt lat="48.53977" lon="1.99278">
        <ele>150.2</ele>
        <time>2022-08-06T08:00:10Z</time>
      </trkpt>
      <trkpt lat="48.53968" lon="1.99269">
        <ele>148.4</ele>
        <time>2022-08-06T08:00:12Z</time>
      </trkpt>
      <trkpt lat="48.53959" lon="1.99259">
        <ele>146.7</ele>
        <time>2022-08-06T08:00:14Z</time>
      </trkpt>
      <trkpt lat="48.53953" lon="1.99255">
        <ele>145.9</ele>
        <time>2022-08-06T08:00:16Z</time>
      </trkpt>
      <trkpt lat="48.53949" lon="1.99248">
        <ele>144.9</ele>
        <time>2022-08-06T08:00:18Z</time>
      </trkpt>
      <trkpt lat="48.53945" lon="1.99242">
        <ele>144.1</ele>
        <time>2022-08-06T08:00:20Z</time>
      </trkpt>
      <trkpt lat="48.53943" lon="1.99235">
        <ele>143.2</ele>
        <time>2022-08-06T08:00:22Z</time>
      </trkpt>
      <trkpt lat="48.53941" lon="1.99226">
        <ele>142.2</ele>
        <time>2022-08-06T08:00:24Z</time>
      </trkpt>
      <trkpt lat="48.5394" lon="1.99217">
        <ele>141.2</ele>
        <time>2022-08-06T08:00:26Z</time>
      </trkpt>
      <trkpt lat="48.53943" lon="1.99205">
        <ele>140.1</ele>
        <time>2022-08-06T08:00:28Z</time>
      </trkpt>
      <trkpt lat="48.53946" lon="1.99193">
        <ele>138.8</ele>
        <time>2022-08-06T08:00:30Z</time>
      </trkpt>
      <trkpt lat="48.53947" lon="1.9918">
        <ele>137.3</ele>
        <time>2022-08-06T08:00:32Z</time>
      </trkpt>
      <trkpt lat="48.53949" lon="1.9917">
        <ele>136.2</ele>
        <time>2022-08-06T08:00:34Z</time>
      </trkpt>
      <trkpt lat="48.53954" lon="1.99166">
        <ele>135.6</ele>
        <time>2022-08-06T08:00:36Z</time>
      </trkpt>
      <trkpt lat="48.53959" lon="1.99161">
        <ele>134.8</ele>
        <time>2022-08-06T08:00:38Z</time>
      </trkpt>
      <trkpt lat="48.53967" lon="1.9916">
        <ele>134.5</ele>
        <time>2022-08-06T08:00:40Z</time>
      </trkpt>
      <trkpt lat="48.53971" lon="1.99157">
        <ele>134</ele>
        <time>2022-08-06T08:00:42Z</time>
      </trkpt>
      <trkpt lat="48.53981" lon="1.9915">
        <ele>133.4</ele>
        <time>2022-08-06T08:00:44Z</time>
      </trkpt>
      <trkpt lat="48.53991" lon="1.99145">
        <ele>133.1</ele>
        <time>2022-08-06T08:00:46Z</time>
      </trkpt>
      <trkpt lat="48.53999" lon="1.99141">
        <ele>133.1</ele>
        <time>2022-08-06T08:00:48Z</time>
      </trkpt>
      <trkpt lat="48.54007" lon="1.99135">
        <ele>133.2</ele>
        <time>2022-08-06T08:00:50Z</time>
      </trkpt>
      <trkpt lat="48.54014" lon="1.99126">
        <ele>133.3</ele>
        <time>2022-08-06T08:00:52Z</time>
      </trkpt>
      <trkpt lat="48.54019" lon="1.99115">
        <ele>133.4</ele>
        <time>2022-08-06T08:00:54Z</time>
      </trkpt>
      <trkpt lat="48.54027" lon="1.99109">
        <ele>134</ele>
        <time>2022-08-06T08:00:56Z</time>
      </trkpt>
      <trkpt lat="48.54033" lon="1.99101">
        <ele>134.6</ele>
        <time>2022-08-06T08:00:58Z</time>
      </trkpt>
      <trkpt lat="48.54036" lon="1.99093">
        <ele>135.1</ele>
        <time>2022-08-06T08:01:00Z</time>
      </trkpt>
      <trkpt lat="48.5404" lon="1.99087">
        <ele>135.7</ele>
        <time>2022-08-06T08:01:02Z</time>
      </trkpt>
      <trkpt lat="48.54044" lon="1.99082">
        <ele>136.3</ele>
        <time>2022-08-06T08:01:04Z</time>
      </trkpt>
      <trkpt lat="48.5405" lon="1.99077">
        <ele>137</ele>
        <time>2022-08-06T08:01:06Z</time>
      </trkpt>
      <trkpt lat="48.54055" lon="1.99072">
        <ele>137.8</ele>
        <time>2022-08-06T08:01:08Z</time>
      </trkpt>
      <trkpt lat="48.5406" lon="1.99066">
        <ele>138.1</ele>
        <time>2022-08-06T08:01:10Z</time>
      </trkpt>
      <trkpt lat="48.54065" lon="1.99059">
        <ele>138.4</ele>
        <time>2022-08-06T08:01:12Z</time>
      </trkpt>
      <trkpt lat="48.54068" lon="1.99052">
        <ele>138.7</ele>
        <time>2022-08-06T08:01:14Z</time>
      </trkpt>
      <trkpt lat="48.54072" lon="1.99047">
        <ele>138.9</ele>
        <time>2022-08-06T08:01:16Z</time>
      </trkpt>
      <trkpt lat="48.54076" lon="1.99042">
        <ele>139.1</ele>
        <time>2022-08-06T08:01:18Z</time>
      </trkpt>
      <trkpt lat="48.5408" lon="1.99038">
        <ele>139.3</ele>
        <time>2022-08-06T08:01:20Z</time>
      </trkpt>
      <trkpt lat="48.54087" lon="1.99028">
        <ele>140.3</ele>
        <time>2022-08-06T08:01:24Z</time>
      </trkpt>
      <trkpt lat="48.54091" lon="1.99018">
        <ele>141.7</ele>
        <time>2022-08-06T08:01:28Z</time>
      </trkpt>
      <trkpt lat="48.54099" lon="1.99008">
        <ele>143.6</ele>
        <time>2022-08-06T08:01:32Z</time>
      </trkpt>
      <trkpt lat="48.54102" lon="1.99003">
        <ele>144.7</ele>
        <time>2022-08-06T08:01:34Z</time>
      </trkpt>
      <trkpt lat="48.5411" lon="1.98996">
        <ele>146.1</ele>
        <time>2022-08-06T08:01:38Z</time>
      </trkpt>
      <trkpt lat="48.54116" lon="1.98988">
        <ele>147.3</ele>
        <time>2022-08-06T08:01:42Z</time>
      </trkpt>
      <trkpt lat="48.54121" lon="1.98985">
        <ele>147.9</ele>
        <time>2022-08-06T08:01:44Z</time>
      </trkpt>
      <trkpt lat="48.54126" lon="1.98982">
        <ele>148.6</ele>
        <time>2022-08-06T08:01:46Z</time>
      </trkpt>
      <trkpt lat="48.54133" lon="1.98976">
        <ele>149.4</ele>
        <time>2022-08-06T08:01:50Z</time>
      </trkpt>
      <trkpt lat="48.54138" lon="1.98972">
        <ele>149.9</ele>
        <time>2022-08-06T08:01:52Z</time>
      </trkpt>
      <trkpt lat="48.54142" lon="1.98967">
        <ele>150.3</ele>
        <time>2022-08-06T08:01:54Z</time>
      </trkpt>
      <trkpt lat="48.54147" lon="1.98963">
        <ele>150.7</ele>
        <time>2022-08-06T08:01:56Z</time>
      </trkpt>
      <trkpt lat="48.54154" lon="1.98958">
        <ele>151.1</ele>
        <time>2022-08-06T08:02:00Z</time>
      </trkpt>
      <trkpt lat="48.54162" lon="1.98954">
        <ele>151.4</ele>
        <time>2022-08-06T08:02:04Z</time>
      </trkpt>
      <trkpt lat="48.54167" lon="1.98951">
        <ele>151.5</ele>
        <time>2022-08-06T08:02:06Z</time>
      </trkpt>
      <trkpt lat="48.54172" lon="1.98949">
        <ele>151.9</ele>
        <time>2022-08-06T08:02:08Z</time>
      </trkpt>
      <trkpt lat="48.54179" lon="1.98943">
        <ele>152.2</ele>
        <time>2022-08-06T08:02:12Z</time>
      </trkpt>
      <trkpt lat="48.54187" lon="1.98937">
        <ele>152.2</ele>
        <time>2022-08-06T08:02:16Z</time>
      </trkpt>
      <trkpt lat="48.54194" lon="1.98934">
        <ele>152.7</ele>
        <time>2022-08-06T08:02:20Z</time>
      </trkpt>
      <trkpt lat="48.54199" lon="1.98927">
        <ele>153.2</ele>
        <time>2022-08-06T08:02:24Z</time>
      </trkpt>
      <trkpt lat="48.54205" lon="1.98919">
        <ele>153.8</ele>
        <time>2022-08-06T08:02:28Z</time>
      </trkpt>
      <trkpt lat="48.54211" lon="1.98911">
        <ele>154.9</ele>
        <time>2022-08-06T08:02:32Z</time>
      </trkpt>
      <trkpt lat="48.54216" lon="1.98904">
        <ele>156</ele>
        <time>2022-08-06T08:02:36Z</time>
      </trkpt>
      <trkpt lat="48.54219" lon="1.98897">
        <ele>156.4</ele>
        <time>2022-08-06T08:02:38Z</time>
      </trkpt>
      <trkpt lat="48.54223" lon="1.98892">
        <ele>157.2</ele>
        <time>2022-08-06T08:02:40Z</time>
      </trkpt>
      <trkpt lat="48.54229" lon="1.98886">
        <ele>157.5</ele>
        <time>2022-08-06T08:02:44Z</time>
      </trkpt>
      <trkpt lat="48.54233" lon="1.9888">
        <ele>157.3</ele>
        <time>2022-08-06T08:02:48Z</time>
      </trkpt>
      <trkpt lat="48.54238" lon="1.98873">
        <ele>157.3</ele>
        <time>2022-08-06T08:02:52Z</time>
      </trkpt>
      <trkpt lat="48.54244" lon="1.98866">
        <ele>157.5</ele>
        <time>2022-08-06T08:02:56Z</time>
      </trkpt>
      <trkpt lat="48.54247" lon="1.98862">
        <ele>157.6</ele>
        <time>2022-08-06T08:02:58Z</time>
      </trkpt>
      <trkpt lat="48.54252" lon="1.98856">
        <ele>157.9</ele>
        <time>2022-08-06T08:03:00Z</time>
      </trkpt>
      <trkpt lat="48.54259" lon="1.98848">
        <ele>157.9</ele>
        <time>2022-08-06T08:03:02Z</time>
      </trkpt>
      <trkpt lat="48.54264" lon="1.9884">
        <ele>158.3</ele>
        <time>2022-08-06T08:03:04Z</time>
      </trkpt>
      <trkpt lat="48.54268" lon="1.98828">
        <ele>158.6</ele>
        <time>2022-08-06T08:03:06Z</time>
      </trkpt>
      <trkpt lat="48.54274" lon="1.98821">
        <ele>159.4</ele>
        <time>2022-08-06T08:03:08Z</time>
      </trkpt>
      <trkpt lat="48.54277" lon="1.98812">
        <ele>159.8</ele>
        <time>2022-08-06T08:03:10Z</time>
      </trkpt>
      <trkpt lat="48.5428" lon="1.98804">
        <ele>160.1</ele>
        <time>2022-08-06T08:03:12Z</time>
      </trkpt>
      <trkpt lat="48.54283" lon="1.98797">
        <ele>160.2</ele>
        <time>2022-08-06T08:03:14Z</time>
      </trkpt>
      <trkpt lat="48.54287" lon="1.9879">
        <ele>160.3</ele>
        <time>2022-08-06T08:03:16Z</time>
      </trkpt>
      <trkpt lat="48.54292" lon="1.98782">
        <ele>160.5</ele>
        <time>2022-08-06T08:03:18Z</time>
      </trkpt>
      <trkpt lat="48.54295" lon="1.98773">
        <ele>160.4</ele>
        <time>2022-08-06T08:03:20Z</time>
      </trkpt>
      <trkpt lat="48.54299" lon="1.98764">
        <ele>160.2</ele>
        <time>2022-08-06T08:03:22Z</time>
      </trkpt>
      <trkpt lat="48.54303" lon="1.98757">
        <ele>160.1</ele>
        <time>2022-08-06T08:03:24Z</time>
      </trkpt>
      <trkpt lat="48.54306" lon="1.98752">
        <ele>160.1</ele>
        <time>2022-08-06T08:03:26Z</time>
      </trkpt>
      <trkpt lat="48.54309" lon="1.98745">
        <ele>159.9</ele>
        <time>2022-08-06T08:03:28Z</time>
      </trkpt>
      <trkpt lat="48.54312" lon="1.98736">
        <ele>159.7</ele>
        <time>2022-08-06T08:03:30Z</time>
      </trkpt>
      <trkpt lat="48.54314" lon="1.98729">
        <ele>159.6</ele>
        <time>2022-08-06T08:03:32Z</time>
      </trkpt>
      <trkpt lat="48.54312" lon="1.98738">
        <ele>159.8</ele>
        <time>2022-08-06T08:03:46Z</time>
      </trkpt>
      <trkpt lat="48.54307" lon="1.98741">
        <ele>159.7</ele>
        <time>2022-08-06T08:03:48Z</time>
      </trkpt>
      <trkpt lat="48.54301" lon="1.98736">
        <ele>159.1</ele>
        <time>2022-08-06T08:03:52Z</time>
      </trkpt>
      <trkpt lat="48.54298" lon="1.9873">
        <ele>158.5</ele>
        <time>2022-08-06T08:03:54Z</time>
      </trkpt>
      <trkpt lat="48.5429" lon="1.98723">
        <ele>157.4</ele>
        <time>2022-08-06T08:03:56Z</time>
      </trkpt>
      <trkpt lat="48.54279" lon="1.98713">
        <ele>155.5</ele>
        <time>2022-08-06T08:03:58Z</time>
      </trkpt>
      <trkpt lat="48.54267" lon="1.98703">
        <ele>154</ele>
        <time>2022-08-06T08:04:00Z</time>
      </trkpt>
      <trkpt lat="48.54257" lon="1.98691">
        <ele>152.4</ele>
        <time>2022-08-06T08:04:02Z</time>
      </trkpt>
      <trkpt lat="48.54248" lon="1.98678">
        <ele>150.7</ele>
        <time>2022-08-06T08:04:04Z</time>
      </trkpt>
      <trkpt lat="48.54238" lon="1.9867">
        <ele>149</ele>
        <time>2022-08-06T08:04:06Z</time>
      </trkpt>
      <trkpt lat="48.54225" lon="1.98663">
        <ele>147.6</ele>
        <time>2022-08-06T08:04:08Z</time>
      </trkpt>
      <trkpt lat="48.54213" lon="1.98661">
        <ele>146</ele>
        <time>2022-08-06T08:04:10Z</time>
      </trkpt>
      <trkpt lat="48.54204" lon="1.98666">
        <ele>143.8</ele>
        <time>2022-08-06T08:04:12Z</time>
      </trkpt>
      <trkpt lat="48.54194" lon="1.98673">
        <ele>142.1</ele>
        <time>2022-08-06T08:04:14Z</time>
      </trkpt>
      <trkpt lat="48.54178" lon="1.98683">
        <ele>139.8</ele>
        <time>2022-08-06T08:04:16Z</time>
      </trkpt>
      <trkpt lat="48.54162" lon="1.98692">
        <ele>136.5</ele>
        <time>2022-08-06T08:04:18Z</time>
      </trkpt>
      <trkpt lat="48.54151" lon="1.98696">
        <ele>134.7</ele>
        <time>2022-08-06T08:04:20Z</time>
      </trkpt>
      <trkpt lat="48.54141" lon="1.98698">
        <ele>133.1</ele>
        <time>2022-08-06T08:04:22Z</time>
      </trkpt>
      <trkpt lat="48.54128" lon="1.98706">
        <ele>131</ele>
        <time>2022-08-06T08:04:24Z</time>
      </trkpt>
      <trkpt lat="48.54116" lon="1.9871">
        <ele>129.2</ele>
        <time>2022-08-06T08:04:26Z</time>
      </trkpt>
      <trkpt lat="48.54105" lon="1.98706">
        <ele>127.6</ele>
        <time>2022-08-06T08:04:28Z</time>
      </trkpt>
      <trkpt lat="48.54092" lon="1.98699">
        <ele>125.6</ele>
        <time>2022-08-06T08:04:30Z</time>
      </trkpt>
      <trkpt lat="48.54085" lon="1.98692">
        <ele>124.4</ele>
        <time>2022-08-06T08:04:32Z</time>
      </trkpt>
      <trkpt lat="48.54079" lon="1.98687">
        <ele>123.9</ele>
        <time>2022-08-06T08:04:34Z</time>
      </trkpt>
      <trkpt lat="48.54076" lon="1.98682">
        <ele>123.8</ele>
        <time>2022-08-06T08:04:36Z</time>
      </trkpt>
      <trkpt lat="48.5407" lon="1.98675">
        <ele>123.4</ele>
        <time>2022-08-06T08:04:38Z</time>
      </trkpt>
      <trkpt lat="48.54068" lon="1.98669">
        <ele>123.3</ele>
        <time>2022-08-06T08:04:42Z</time>
      </trkpt>
      <trkpt lat="48.54064" lon="1.98664">
        <ele>123</ele>
        <time>2022-08-06T08:04:52Z</time>
      </trkpt>
      <trkpt lat="48.54059" lon="1.98658">
        <ele>122.7</ele>
        <time>2022-08-06T08:04:56Z</time>
      </trkpt>
      <trkpt lat="48.54056" lon="1.98653">
        <ele>122.6</ele>
        <time>2022-08-06T08:04:58Z</time>
      </trkpt>
      <trkpt lat="48.54051" lon="1.98649">
        <ele>122.7</ele>
        <time>2022-08-06T08:05:00Z</time>
      </trkpt>
      <trkpt lat="48.54046" lon="1.98645">
        <ele>123</ele>
        <time>2022-08-06T08:05:02Z</time>
      </trkpt>
      <trkpt lat="48.5404" lon="1.9864">
        <ele>123.5</ele>
        <time>2022-08-06T08:05:04Z</time>
      </trkpt>
      <trkpt lat="48.54035" lon="1.98635">
        <ele>123.9</ele>
        <time>2022-08-06T08:05:06Z</time>
      </trkpt>
      <trkpt lat="48.5403" lon="1.98628">
        <ele>124.3</ele>
        <time>2022-08-06T08:05:08Z</time>
      </trkpt>
      <trkpt lat="48.54024" lon="1.98623">
        <ele>124.7</ele>
        <time>2022-08-06T08:05:10Z</time>
      </trkpt>
      <trkpt lat="48.54017" lon="1.98615">
        <ele>125.3</ele>
        <time>2022-08-06T08:05:14Z</time>
      </trkpt>
      <trkpt lat="48.54012" lon="1.98607">
        <ele>125.6</ele>
        <time>2022-08-06T08:05:16Z</time>
      </trkpt>
      <trkpt lat="48.54007" lon="1.986">
        <ele>125.7</ele>
        <time>2022-08-06T08:05:18Z</time>
      </trkpt>
      <trkpt lat="48.54002" lon="1.98593">
        <ele>125.9</ele>
        <time>2022-08-06T08:05:20Z</time>
      </trkpt>
      <trkpt lat="48.53997" lon="1.98586">
        <ele>126.1</ele>
        <time>2022-08-06T08:05:22Z</time>
      </trkpt>
      <trkpt lat="48.53993" lon="1.98578">
        <ele>126.4</ele>
        <time>2022-08-06T08:05:24Z</time>
      </trkpt>
      <trkpt lat="48.5399" lon="1.98571">
        <ele>126.7</ele>
        <time>2022-08-06T08:05:26Z</time>
      </trkpt>
      <trkpt lat="48.53984" lon="1.98562">
        <ele>126.9</ele>
        <time>2022-08-06T08:05:28Z</time>
      </trkpt>
      <trkpt lat="48.53978" lon="1.98556">
        <ele>127</ele>
        <time>2022-08-06T08:05:30Z</time>
      </trkpt>
      <trkpt lat="48.53971" lon="1.98546">
        <ele>127.4</ele>
        <time>2022-08-06T08:05:32Z</time>
      </trkpt>
      <trkpt lat="48.53964" lon="1.98534">
        <ele>127.8</ele>
        <time>2022-08-06T08:05:34Z</time>
      </trkpt>
      <trkpt lat="48.53958" lon="1.98524">
        <ele>128.1</ele>
        <time>2022-08-06T08:05:36Z</time>
      </trkpt>
      <trkpt lat="48.53953" lon="1.98516">
        <ele>128.3</ele>
        <time>2022-08-06T08:05:38Z</time>
      </trkpt>
      <trkpt lat="48.53947" lon="1.98506">
        <ele>128.7</ele>
        <time>2022-08-06T08:05:40Z</time>
      </trkpt>
      <trkpt lat="48.53942" lon="1.98496">
        <ele>129</ele>
        <time>2022-08-06T08:05:42Z</time>
      </trkpt>
      <trkpt lat="48.53938" lon="1.98487">
        <ele>129.1</ele>
        <time>2022-08-06T08:05:44Z</time>
      </trkpt>
      <trkpt lat="48.53933" lon="1.98481">
        <ele>129.3</ele>
        <time>2022-08-06T08:05:46Z</time>
      </trkpt>
      <trkpt lat="48.53929" lon="1.98474">
        <ele>129.5</ele>
        <time>2022-08-06T08:05:48Z</time>
      </trkpt>
      <trkpt lat="48.53924" lon="1.98464">
        <ele>129.8</ele>
        <time>2022-08-06T08:05:50Z</time>
      </trkpt>
      <trkpt lat="48.5392" lon="1.98456">
        <ele>130</ele>
        <time>2022-08-06T08:05:52Z</time>
      </trkpt>
      <trkpt lat="48.53913" lon="1.98451">
        <ele>130.1</ele>
        <time>2022-08-06T08:05:54Z</time>
      </trkpt>
      <trkpt lat="48.53905" lon="1.98447">
        <ele>130.4</ele>
        <time>2022-08-06T08:05:56Z</time>
      </trkpt>
      <trkpt lat="48.53898" lon="1.98441">
        <ele>130.8</ele>
        <time>2022-08-06T08:05:58Z</time>
      </trkpt>
      <trkpt lat="48.5389" lon="1.98438">
        <ele>131.2</ele>
        <time>2022-08-06T08:06:00Z</time>
      </trkpt>
      <trkpt lat="48.53882" lon="1.98436">
        <ele>131.3</ele>
        <time>2022-08-06T08:06:02Z</time>
      </trkpt>
      <trkpt lat="48.53873" lon="1.98432">
        <ele>131.5</ele>
        <time>2022-08-06T08:06:04Z</time>
      </trkpt>
      <trkpt lat="48.53864" lon="1.9843">
        <ele>131.5</ele>
        <time>2022-08-06T08:06:06Z</time>
      </trkpt>
      <trkpt lat="48.53856" lon="1.98428">
        <ele>131.7</ele>
        <time>2022-08-06T08:06:08Z</time>
      </trkpt>
      <trkpt lat="48.53847" lon="1.98426">
        <ele>132</ele>
        <time>2022-08-06T08:06:10Z</time>
      </trkpt>
      <trkpt lat="48.53838" lon="1.98424">
        <ele>132.3</ele>
        <time>2022-08-06T08:06:12Z</time>
      </trkpt>
      <trkpt lat="48.5383" lon="1.98424">
        <ele>132.5</ele>
        <time>2022-08-06T08:06:14Z</time>
      </trkpt>
      <trkpt lat="48.53821" lon="1.98423">
        <ele>132.6</ele>
        <time>2022-08-06T08:06:16Z</time>
      </trkpt>
      <trkpt lat="48.53813" lon="1.98419">
        <ele>132.9</ele>
        <time>2022-08-06T08:06:18Z</time>
      </trkpt>
      <trkpt lat="48.53805" lon="1.98415">
        <ele>133.1</ele>
        <time>2022-08-06T08:06:20Z</time>
      </trkpt>
      <trkpt lat="48.53796" lon="1.98409">
        <ele>132.9</ele>
        <time>2022-08-06T08:06:22Z</time>
      </trkpt>
      <trkpt lat="48.53789" lon="1.98402">
        <ele>132.9</ele>
        <time>2022-08-06T08:06:24Z</time>
      </trkpt>
      <trkpt lat="48.53781" lon="1.98396">
        <ele>132.9</ele>
        <time>2022-08-06T08:06:26Z</time>
      </trkpt>
      <trkpt lat="48.53772" lon="1.98387">
        <ele>133.1</ele>
        <time>2022-08-06T08:06:28Z</time>
      </trkpt>
      <trkpt lat="48.53762" lon="1.98384">
        <ele>133.2</ele>
        <time>2022-08-06T08:06:30Z</time>
      </trkpt>
      <trkpt lat="48.53752" lon="1.98381">
        <ele>133.3</ele>
        <time>2022-08-06T08:06:32Z</time>
      </trkpt>
      <trkpt lat="48.53743" lon="1.98377">
        <ele>133.2</ele>
        <time>2022-08-06T08:06:34Z</time>
      </trkpt>
      <trkpt lat="48.53734" lon="1.98372">
        <ele>133</ele>
        <time>2022-08-06T08:06:36Z</time>
      </trkpt>
      <trkpt lat="48.53724" lon="1.98365">
        <ele>132.9</ele>
        <time>2022-08-06T08:06:38Z</time>
      </trkpt>
      <trkpt lat="48.53712" lon="1.98354">
        <ele>132.5</ele>
        <time>2022-08-06T08:06:40Z</time>
      </trkpt>
      <trkpt lat="48.53699" lon="1.98344">
        <ele>132</ele>
        <time>2022-08-06T08:06:42Z</time>
      </trkpt>
      <trkpt lat="48.53687" lon="1.98333">
        <ele>131.5</ele>
        <time>2022-08-06T08:06:44Z</time>
      </trkpt>
      <trkpt lat="48.53674" lon="1.98323">
        <ele>130.9</ele>
        <time>2022-08-06T08:06:46Z</time>
      </trkpt>
      <trkpt lat="48.5366" lon="1.98318">
        <ele>130.1</ele>
        <time>2022-08-06T08:06:48Z</time>
      </trkpt>
      <trkpt lat="48.53648" lon="1.98318">
        <ele>129.2</ele>
        <time>2022-08-06T08:06:50Z</time>
      </trkpt>
      <trkpt lat="48.53641" lon="1.98316">
        <ele>128.7</ele>
        <time>2022-08-06T08:06:52Z</time>
      </trkpt>
      <trkpt lat="48.53635" lon="1.98312">
        <ele>128.5</ele>
        <time>2022-08-06T08:06:54Z</time>
      </trkpt>
      <trkpt lat="48.53628" lon="1.98309">
        <ele>128.1</ele>
        <time>2022-08-06T08:06:56Z</time>
      </trkpt>
      <trkpt lat="48.53618" lon="1.98304">
        <ele>127.6</ele>
        <time>2022-08-06T08:06:58Z</time>
      </trkpt>
      <trkpt lat="48.53607" lon="1.98299">
        <ele>127</ele>
        <time>2022-08-06T08:07:00Z</time>
      </trkpt>
      <trkpt lat="48.53597" lon="1.98296">
        <ele>126.7</ele>
        <time>2022-08-06T08:07:02Z</time>
      </trkpt>
      <trkpt lat="48.53592" lon="1.98294">
        <ele>126.4</ele>
        <time>2022-08-06T08:07:04Z</time>
      </trkpt>
      <trkpt lat="48.53584" lon="1.9829">
        <ele>126</ele>
        <time>2022-08-06T08:07:10Z</time>
      </trkpt>
      <trkpt lat="48.53577" lon="1.98287">
        <ele>125.8</ele>
        <time>2022-08-06T08:07:12Z</time>
      </trkpt>
      <trkpt lat="48.5357" lon="1.98285">
        <ele>125.5</ele>
        <time>2022-08-06T08:07:14Z</time>
      </trkpt>
      <trkpt lat="48.53561" lon="1.98281">
        <ele>125.2</ele>
        <time>2022-08-06T08:07:16Z</time>
      </trkpt>
      <trkpt lat="48.53552" lon="1.98277">
        <ele>125.2</ele>
        <time>2022-08-06T08:07:18Z</time>
      </trkpt>
      <trkpt lat="48.53542" lon="1.98276">
        <ele>125.6</ele>
        <time>2022-08-06T08:07:20Z</time>
      </trkpt>
      <trkpt lat="48.53531" lon="1.98275">
        <ele>126</ele>
        <time>2022-08-06T08:07:22Z</time>
      </trkpt>
      <trkpt lat="48.53522" lon="1.98277">
        <ele>125.8</ele>
        <time>2022-08-06T08:07:24Z</time>
      </trkpt>
      <trkpt lat="48.53513" lon="1.98285">
        <ele>125.2</ele>
        <time>2022-08-06T08:07:26Z</time>
      </trkpt>
      <trkpt lat="48.53503" lon="1.98291">
        <ele>124.7</ele>
        <time>2022-08-06T08:07:28Z</time>
      </trkpt>
      <trkpt lat="48.53494" lon="1.98297">
        <ele>124.3</ele>
        <time>2022-08-06T08:07:30Z</time>
      </trkpt>
      <trkpt lat="48.53484" lon="1.98306">
        <ele>124</ele>
        <time>2022-08-06T08:07:32Z</time>
      </trkpt>
      <trkpt lat="48.53473" lon="1.98316">
        <ele>123.6</ele>
        <time>2022-08-06T08:07:34Z</time>
      </trkpt>
      <trkpt lat="48.53463" lon="1.98325">
        <ele>123.3</ele>
        <time>2022-08-06T08:07:36Z</time>
      </trkpt>
      <trkpt lat="48.5345" lon="1.98335">
        <ele>122.9</ele>
        <time>2022-08-06T08:07:38Z</time>
      </trkpt>
      <trkpt lat="48.53438" lon="1.98346">
        <ele>122.3</ele>
        <time>2022-08-06T08:07:40Z</time>
      </trkpt>
      <trkpt lat="48.53425" lon="1.98357">
        <ele>121.5</ele>
        <time>2022-08-06T08:07:42Z</time>
      </trkpt>
      <trkpt lat="48.53413" lon="1.98366">
        <ele>121</ele>
        <time>2022-08-06T08:07:44Z</time>
      </trkpt>
      <trkpt lat="48.53402" lon="1.98377">
        <ele>120.7</ele>
        <time>2022-08-06T08:07:46Z</time>
      </trkpt>
      <trkpt lat="48.53391" lon="1.98388">
        <ele>120.1</ele>
        <time>2022-08-06T08:07:48Z</time>
      </trkpt>
      <trkpt lat="48.53385" lon="1.98392">
        <ele>119.7</ele>
        <time>2022-08-06T08:07:50Z</time>
      </trkpt>
      <trkpt lat="48.53379" lon="1.984">
        <ele>119.3</ele>
        <time>2022-08-06T08:07:54Z</time>
      </trkpt>
      <trkpt lat="48.53372" lon="1.98399">
        <ele>119</ele>
        <time>2022-08-06T08:07:56Z</time>
      </trkpt>
      <trkpt lat="48.53368" lon="1.98389">
        <ele>119.3</ele>
        <time>2022-08-06T08:07:58Z</time>
      </trkpt>
      <trkpt lat="48.53367" lon="1.98379">
        <ele>119.6</ele>
        <time>2022-08-06T08:08:00Z</time>
      </trkpt>
      <trkpt lat="48.53364" lon="1.98367">
        <ele>119.9</ele>
        <time>2022-08-06T08:08:02Z</time>
      </trkpt>
      <trkpt lat="48.53363" lon="1.98356">
        <ele>120.2</ele>
        <time>2022-08-06T08:08:04Z</time>
      </trkpt>
      <trkpt lat="48.53363" lon="1.98344">
        <ele>120.7</ele>
        <time>2022-08-06T08:08:06Z</time>
      </trkpt>
      <trkpt lat="48.53363" lon="1.98334">
        <ele>121.1</ele>
        <time>2022-08-06T08:08:08Z</time>
      </trkpt>
      <trkpt lat="48.53361" lon="1.98323">
        <ele>121</ele>
        <time>2022-08-06T08:08:10Z</time>
      </trkpt>
      <trkpt lat="48.5336" lon="1.9831">
        <ele>121</ele>
        <time>2022-08-06T08:08:12Z</time>
      </trkpt>
      <trkpt lat="48.53358" lon="1.98294">
        <ele>121.3</ele>
        <time>2022-08-06T08:08:14Z</time>
      </trkpt>
      <trkpt lat="48.53357" lon="1.98283">
        <ele>121.7</ele>
        <time>2022-08-06T08:08:16Z</time>
      </trkpt>
      <trkpt lat="48.53356" lon="1.98271">
        <ele>122</ele>
        <time>2022-08-06T08:08:18Z</time>
      </trkpt>
      <trkpt lat="48.53356" lon="1.98259">
        <ele>122.4</ele>
        <time>2022-08-06T08:08:20Z</time>
      </trkpt>
      <trkpt lat="48.53356" lon="1.98244">
        <ele>122.7</ele>
        <time>2022-08-06T08:08:22Z</time>
      </trkpt>
      <trkpt lat="48.53357" lon="1.98229">
        <ele>122.7</ele>
        <time>2022-08-06T08:08:24Z</time>
      </trkpt>
      <trkpt lat="48.53357" lon="1.98213">
        <ele>122.7</ele>
        <time>2022-08-06T08:08:26Z</time>
      </trkpt>
      <trkpt lat="48.53358" lon="1.98201">
        <ele>122.8</ele>
        <time>2022-08-06T08:08:28Z</time>
      </trkpt>
      <trkpt lat="48.53358" lon="1.98182">
        <ele>122.4</ele>
        <time>2022-08-06T08:08:30Z</time>
      </trkpt>
      <trkpt lat="48.53358" lon="1.98161">
        <ele>121.7</ele>
        <time>2022-08-06T08:08:32Z</time>
      </trkpt>
      <trkpt lat="48.53357" lon="1.98141">
        <ele>121.2</ele>
        <time>2022-08-06T08:08:34Z</time>
      </trkpt>
      <trkpt lat="48.53358" lon="1.9812">
        <ele>121.2</ele>
        <time>2022-08-06T08:08:36Z</time>
      </trkpt>
      <trkpt lat="48.53359" lon="1.98098">
        <ele>120.7</ele>
        <time>2022-08-06T08:08:38Z</time>
      </trkpt>
      <trkpt lat="48.5336" lon="1.98074">
        <ele>119.4</ele>
        <time>2022-08-06T08:08:40Z</time>
      </trkpt>
      <trkpt lat="48.53359" lon="1.98052">
        <ele>118</ele>
        <time>2022-08-06T08:08:42Z</time>
      </trkpt>
      <trkpt lat="48.53358" lon="1.98031">
        <ele>116.5</ele>
        <time>2022-08-06T08:08:44Z</time>
      </trkpt>
      <trkpt lat="48.53355" lon="1.98015">
        <ele>115.4</ele>
        <time>2022-08-06T08:08:46Z</time>
      </trkpt>
      <trkpt lat="48.53352" lon="1.98004">
        <ele>114.7</ele>
        <time>2022-08-06T08:08:48Z</time>
      </trkpt>
      <trkpt lat="48.53348" lon="1.97998">
        <ele>114.3</ele>
        <time>2022-08-06T08:08:50Z</time>
      </trkpt>
      <trkpt lat="48.53344" lon="1.97994">
        <ele>114.1</ele>
        <time>2022-08-06T08:08:52Z</time>
      </trkpt>
      <trkpt lat="48.53335" lon="1.9799">
        <ele>113.9</ele>
        <time>2022-08-06T08:08:54Z</time>
      </trkpt>
      <trkpt lat="48.53326" lon="1.97985">
        <ele>113.6</ele>
        <time>2022-08-06T08:08:56Z</time>
      </trkpt>
      <trkpt lat="48.53314" lon="1.97978">
        <ele>113.3</ele>
        <time>2022-08-06T08:08:58Z</time>
      </trkpt>
      <trkpt lat="48.53303" lon="1.97978">
        <ele>113.7</ele>
        <time>2022-08-06T08:09:00Z</time>
      </trkpt>
      <trkpt lat="48.53296" lon="1.97975">
        <ele>113.3</ele>
        <time>2022-08-06T08:09:02Z</time>
      </trkpt>
      <trkpt lat="48.53284" lon="1.97966">
        <ele>112.4</ele>
        <time>2022-08-06T08:09:04Z</time>
      </trkpt>
      <trkpt lat="48.53272" lon="1.97961">
        <ele>112.1</ele>
        <time>2022-08-06T08:09:06Z</time>
      </trkpt>
      <trkpt lat="48.5326" lon="1.97954">
        <ele>112.3</ele>
        <time>2022-08-06T08:09:08Z</time>
      </trkpt>
      <trkpt lat="48.5325" lon="1.97945">
        <ele>112</ele>
        <time>2022-08-06T08:09:10Z</time>
      </trkpt>
      <trkpt lat="48.53241" lon="1.97936">
        <ele>111.7</ele>
        <time>2022-08-06T08:09:12Z</time>
      </trkpt>
      <trkpt lat="48.53231" lon="1.97926">
        <ele>111.4</ele>
        <time>2022-08-06T08:09:14Z</time>
      </trkpt>
      <trkpt lat="48.53219" lon="1.97916">
        <ele>111.4</ele>
        <time>2022-08-06T08:09:16Z</time>
      </trkpt>
      <trkpt lat="48.53205" lon="1.97908">
        <ele>112.1</ele>
        <time>2022-08-06T08:09:18Z</time>
      </trkpt>
      <trkpt lat="48.53195" lon="1.979">
        <ele>112.2</ele>
        <time>2022-08-06T08:09:20Z</time>
      </trkpt>
      <trkpt lat="48.53188" lon="1.97895">
        <ele>112.1</ele>
        <time>2022-08-06T08:09:22Z</time>
      </trkpt>
      <trkpt lat="48.53178" lon="1.97889">
        <ele>112.2</ele>
        <time>2022-08-06T08:09:24Z</time>
      </trkpt>
      <trkpt lat="48.53165" lon="1.97881">
        <ele>112</ele>
        <time>2022-08-06T08:09:26Z</time>
      </trkpt>
      <trkpt lat="48.53152" lon="1.97871">
        <ele>111.1</ele>
        <time>2022-08-06T08:09:28Z</time>
      </trkpt>
      <trkpt lat="48.53138" lon="1.9786">
        <ele>110</ele>
        <time>2022-08-06T08:09:30Z</time>
      </trkpt>
      <trkpt lat="48.53125" lon="1.97853">
        <ele>110.3</ele>
        <time>2022-08-06T08:09:32Z</time>
      </trkpt>
      <trkpt lat="48.53114" lon="1.97848">
        <ele>110.9</ele>
        <time>2022-08-06T08:09:34Z</time>
      </trkpt>
      <trkpt lat="48.53103" lon="1.97845">
        <ele>111.3</ele>
        <time>2022-08-06T08:09:36Z</time>
      </trkpt>
      <trkpt lat="48.53096" lon="1.97843">
        <ele>111.6</ele>
        <time>2022-08-06T08:09:38Z</time>
      </trkpt>
      <trkpt lat="48.5309" lon="1.97846">
        <ele>112.3</ele>
        <time>2022-08-06T08:09:42Z</time>
      </trkpt>
      <trkpt lat="48.53082" lon="1.97843">
        <ele>112.4</ele>
        <time>2022-08-06T08:09:46Z</time>
      </trkpt>
      <trkpt lat="48.53077" lon="1.97843">
        <ele>112.1</ele>
        <time>2022-08-06T08:09:48Z</time>
      </trkpt>
      <trkpt lat="48.53072" lon="1.97844">
        <ele>112</ele>
        <time>2022-08-06T08:09:50Z</time>
      </trkpt>
      <trkpt lat="48.53065" lon="1.97845">
        <ele>111.8</ele>
        <time>2022-08-06T08:09:52Z</time>
      </trkpt>
      <trkpt lat="48.53057" lon="1.97847">
        <ele>111.5</ele>
        <time>2022-08-06T08:09:54Z</time>
      </trkpt>
      <trkpt lat="48.53045" lon="1.97852">
        <ele>110.6</ele>
        <time>2022-08-06T08:09:56Z</time>
      </trkpt>
      <trkpt lat="48.53039" lon="1.97864">
        <ele>110.8</ele>
        <time>2022-08-06T08:09:58Z</time>
      </trkpt>
      <trkpt lat="48.53033" lon="1.97872">
        <ele>110.6</ele>
        <time>2022-08-06T08:10:00Z</time>
      </trkpt>
      <trkpt lat="48.5303" lon="1.97879">
        <ele>110.6</ele>
        <time>2022-08-06T08:10:02Z</time>
      </trkpt>
      <trkpt lat="48.53028" lon="1.97888">
        <ele>111</ele>
        <time>2022-08-06T08:10:04Z</time>
      </trkpt>
      <trkpt lat="48.53028" lon="1.97897">
        <ele>111.4</ele>
        <time>2022-08-06T08:10:06Z</time>
      </trkpt>
      <trkpt lat="48.5303" lon="1.97906">
        <ele>112</ele>
        <time>2022-08-06T08:10:08Z</time>
      </trkpt>
      <trkpt lat="48.53032" lon="1.97915">
        <ele>112.7</ele>
        <time>2022-08-06T08:10:10Z</time>
      </trkpt>
      <trkpt lat="48.53034" lon="1.97922">
        <ele>112.8</ele>
        <time>2022-08-06T08:10:12Z</time>
      </trkpt>
      <trkpt lat="48.53036" lon="1.97933">
        <ele>112.9</ele>
        <time>2022-08-06T08:10:14Z</time>
      </trkpt>
      <trkpt lat="48.53035" lon="1.97945">
        <ele>112.4</ele>
        <time>2022-08-06T08:10:16Z</time>
      </trkpt>
      <trkpt lat="48.53037" lon="1.97961">
        <ele>112.5</ele>
        <time>2022-08-06T08:10:18Z</time>
      </trkpt>
      <trkpt lat="48.53041" lon="1.97972">
        <ele>112.9</ele>
        <time>2022-08-06T08:10:20Z</time>
      </trkpt>
      <trkpt lat="48.53045" lon="1.97987">
        <ele>112.9</ele>
        <time>2022-08-06T08:10:22Z</time>
      </trkpt>
      <trkpt lat="48.53042" lon="1.97996">
        <ele>112.1</ele>
        <time>2022-08-06T08:10:24Z</time>
      </trkpt>
      <trkpt lat="48.53033" lon="1.98001">
        <ele>110.8</ele>
        <time>2022-08-06T08:10:26Z</time>
      </trkpt>
      <trkpt lat="48.53028" lon="1.98007">
        <ele>109.8</ele>
        <time>2022-08-06T08:10:28Z</time>
      </trkpt>
      <trkpt lat="48.53024" lon="1.98012">
        <ele>109</ele>
        <time>2022-08-06T08:10:34Z</time>
      </trkpt>
      <trkpt lat="48.53018" lon="1.98007">
        <ele>108</ele>
        <time>2022-08-06T08:10:40Z</time>
      </trkpt>
      <trkpt lat="48.53012" lon="1.98006">
        <ele>107</ele>
        <time>2022-08-06T08:10:42Z</time>
      </trkpt>
      <trkpt lat="48.53005" lon="1.98014">
        <ele>105.9</ele>
        <time>2022-08-06T08:10:44Z</time>
      </trkpt>
      <trkpt lat="48.53001" lon="1.98023">
        <ele>105.1</ele>
        <time>2022-08-06T08:10:46Z</time>
      </trkpt>
      <trkpt lat="48.52997" lon="1.98033">
        <ele>104.9</ele>
        <time>2022-08-06T08:10:48Z</time>
      </trkpt>
      <trkpt lat="48.52998" lon="1.98048">
        <ele>104.9</ele>
        <time>2022-08-06T08:10:50Z</time>
      </trkpt>
      <trkpt lat="48.52997" lon="1.98062">
        <ele>104.9</ele>
        <time>2022-08-06T08:10:52Z</time>
      </trkpt>
      <trkpt lat="48.52995" lon="1.9807">
        <ele>104.7</ele>
        <time>2022-08-06T08:10:54Z</time>
      </trkpt>
      <trkpt lat="48.52989" lon="1.9808">
        <ele>104.3</ele>
        <time>2022-08-06T08:10:56Z</time>
      </trkpt>
      <trkpt lat="48.52983" lon="1.9809">
        <ele>103.6</ele>
        <time>2022-08-06T08:10:58Z</time>
      </trkpt>
      <trkpt lat="48.52977" lon="1.98097">
        <ele>102.9</ele>
        <time>2022-08-06T08:11:00Z</time>
      </trkpt>
      <trkpt lat="48.52972" lon="1.98106">
        <ele>102.2</ele>
        <time>2022-08-06T08:11:02Z</time>
      </trkpt>
      <trkpt lat="48.5297" lon="1.98117">
        <ele>101.6</ele>
        <time>2022-08-06T08:11:04Z</time>
      </trkpt>
      <trkpt lat="48.52967" lon="1.98123">
        <ele>101.3</ele>
        <time>2022-08-06T08:11:42Z</time>
      </trkpt>
      <trkpt lat="48.52972" lon="1.98128">
        <ele>101.4</ele>
        <time>2022-08-06T08:11:48Z</time>
      </trkpt>
      <trkpt lat="48.52979" lon="1.98134">
        <ele>102.2</ele>
        <time>2022-08-06T08:12:00Z</time>
      </trkpt>
      <trkpt lat="48.52983" lon="1.98142">
        <ele>102.4</ele>
        <time>2022-08-06T08:12:02Z</time>
      </trkpt>
      <trkpt lat="48.52987" lon="1.98151">
        <ele>102.4</ele>
        <time>2022-08-06T08:12:04Z</time>
      </trkpt>
      <trkpt lat="48.5299" lon="1.98161">
        <ele>102.2</ele>
        <time>2022-08-06T08:12:06Z</time>
      </trkpt>
      <trkpt lat="48.52993" lon="1.98171">
        <ele>102.1</ele>
        <time>2022-08-06T08:12:08Z</time>
      </trkpt>
      <trkpt lat="48.52998" lon="1.98181">
        <ele>102.3</ele>
        <time>2022-08-06T08:12:10Z</time>
      </trkpt>
      <trkpt lat="48.53001" lon="1.9819">
        <ele>102.4</ele>
        <time>2022-08-06T08:12:12Z</time>
      </trkpt>
      <trkpt lat="48.53004" lon="1.982">
        <ele>102.7</ele>
        <time>2022-08-06T08:12:14Z</time>
      </trkpt>
      <trkpt lat="48.53007" lon="1.9821">
        <ele>103.1</ele>
        <time>2022-08-06T08:12:16Z</time>
      </trkpt>
      <trkpt lat="48.53009" lon="1.9822">
        <ele>103.3</ele>
        <time>2022-08-06T08:12:18Z</time>
      </trkpt>
      <trkpt lat="48.53011" lon="1.98229">
        <ele>103.4</ele>
        <time>2022-08-06T08:12:20Z</time>
      </trkpt>
      <trkpt lat="48.53016" lon="1.9824">
        <ele>103.9</ele>
        <time>2022-08-06T08:12:22Z</time>
      </trkpt>
      <trkpt lat="48.53018" lon="1.9825">
        <ele>104</ele>
        <time>2022-08-06T08:12:24Z</time>
      </trkpt>
      <trkpt lat="48.53023" lon="1.98262">
        <ele>104.1</ele>
        <time>2022-08-06T08:12:26Z</time>
      </trkpt>
      <trkpt lat="48.53026" lon="1.98279">
        <ele>103.7</ele>
        <time>2022-08-06T08:12:28Z</time>
      </trkpt>
      <trkpt lat="48.53033" lon="1.98295">
        <ele>103.1</ele>
        <time>2022-08-06T08:12:30Z</time>
      </trkpt>
      <trkpt lat="48.53038" lon="1.98311">
        <ele>102.6</ele>
        <time>2022-08-06T08:12:32Z</time>
      </trkpt>
      <trkpt lat="48.53045" lon="1.98327">
        <ele>102.8</ele>
        <time>2022-08-06T08:12:34Z</time>
      </trkpt>
      <trkpt lat="48.53049" lon="1.98345">
        <ele>102.3</ele>
        <time>2022-08-06T08:12:36Z</time>
      </trkpt>
      <trkpt lat="48.53055" lon="1.9836">
        <ele>102</ele>
        <time>2022-08-06T08:12:38Z</time>
      </trkpt>
      <trkpt lat="48.5306" lon="1.98375">
        <ele>102.4</ele>
        <time>2022-08-06T08:12:40Z</time>
      </trkpt>
      <trkpt lat="48.53063" lon="1.98389">
        <ele>102.6</ele>
        <time>2022-08-06T08:12:42Z</time>
      </trkpt>
      <trkpt lat="48.53069" lon="1.98403">
        <ele>102.9</ele>
        <time>2022-08-06T08:12:44Z</time>
      </trkpt>
      <trkpt lat="48.5307" lon="1.98419">
        <ele>103</ele>
        <time>2022-08-06T08:12:46Z</time>
      </trkpt>
      <trkpt lat="48.5307" lon="1.98434">
        <ele>102.4</ele>
        <time>2022-08-06T08:12:48Z</time>
      </trkpt>
      <trkpt lat="48.53074" lon="1.9845">
        <ele>102.3</ele>
        <time>2022-08-06T08:12:50Z</time>
      </trkpt>
      <trkpt lat="48.53078" lon="1.98466">
        <ele>102.6</ele>
        <time>2022-08-06T08:12:52Z</time>
      </trkpt>
      <trkpt lat="48.5308" lon="1.98481">
        <ele>102.5</ele>
        <time>2022-08-06T08:12:54Z</time>
      </trkpt>
      <trkpt lat="48.53084" lon="1.98496">
        <ele>102.2</ele>
        <time>2022-08-06T08:12:56Z</time>
      </trkpt>
      <trkpt lat="48.53088" lon="1.9851">
        <ele>102.3</ele>
        <time>2022-08-06T08:12:58Z</time>
      </trkpt>
      <trkpt lat="48.53092" lon="1.98525">
        <ele>102.3</ele>
        <time>2022-08-06T08:13:00Z</time>
      </trkpt>
      <trkpt lat="48.53095" lon="1.98539">
        <ele>102.2</ele>
        <time>2022-08-06T08:13:02Z</time>
      </trkpt>
      <trkpt lat="48.53098" lon="1.98553">
        <ele>102.1</ele>
        <time>2022-08-06T08:13:04Z</time>
      </trkpt>
      <trkpt lat="48.53099" lon="1.98567">
        <ele>101.7</ele>
        <time>2022-08-06T08:13:06Z</time>
      </trkpt>
      <trkpt lat="48.53103" lon="1.98581">
        <ele>101.5</ele>
        <time>2022-08-06T08:13:08Z</time>
      </trkpt>
      <trkpt lat="48.53108" lon="1.98595">
        <ele>101.8</ele>
        <time>2022-08-06T08:13:10Z</time>
      </trkpt>
      <trkpt lat="48.53112" lon="1.98608">
        <ele>102.1</ele>
        <time>2022-08-06T08:13:12Z</time>
      </trkpt>
      <trkpt lat="48.53114" lon="1.9862">
        <ele>102.2</ele>
        <time>2022-08-06T08:13:14Z</time>
      </trkpt>
      <trkpt lat="48.53118" lon="1.98632">
        <ele>102.5</ele>
        <time>2022-08-06T08:13:16Z</time>
      </trkpt>
      <trkpt lat="48.5312" lon="1.98646">
        <ele>102.6</ele>
        <time>2022-08-06T08:13:18Z</time>
      </trkpt>
      <trkpt lat="48.53123" lon="1.9866">
        <ele>102.5</ele>
        <time>2022-08-06T08:13:20Z</time>
      </trkpt>
      <trkpt lat="48.53123" lon="1.98674">
        <ele>102.4</ele>
        <time>2022-08-06T08:13:22Z</time>
      </trkpt>
      <trkpt lat="48.53123" lon="1.98688">
        <ele>102.4</ele>
        <time>2022-08-06T08:13:24Z</time>
      </trkpt>
      <trkpt lat="48.53126" lon="1.98704">
        <ele>102.6</ele>
        <time>2022-08-06T08:13:26Z</time>
      </trkpt>
      <trkpt lat="48.5313" lon="1.98719">
        <ele>102.7</ele>
        <time>2022-08-06T08:13:28Z</time>
      </trkpt>
      <trkpt lat="48.53128" lon="1.98732">
        <ele>102.6</ele>
        <time>2022-08-06T08:13:30Z</time>
      </trkpt>
      <trkpt lat="48.53124" lon="1.98743">
        <ele>102.5</ele>
        <time>2022-08-06T08:13:32Z</time>
      </trkpt>
      <trkpt lat="48.53112" lon="1.98747">
        <ele>102</ele>
        <time>2022-08-06T08:13:34Z</time>
      </trkpt>
      <trkpt lat="48.531" lon="1.98749">
        <ele>101.6</ele>
        <time>2022-08-06T08:13:36Z</time>
      </trkpt>
      <trkpt lat="48.53088" lon="1.98751">
        <ele>101.2</ele>
        <time>2022-08-06T08:13:38Z</time>
      </trkpt>
      <trkpt lat="48.53076" lon="1.98752">
        <ele>100.7</ele>
        <time>2022-08-06T08:13:40Z</time>
      </trkpt>
      <trkpt lat="48.53062" lon="1.98752">
        <ele>100.2</ele>
        <time>2022-08-06T08:13:42Z</time>
      </trkpt>
      <trkpt lat="48.53049" lon="1.98752">
        <ele>99.8</ele>
        <time>2022-08-06T08:13:44Z</time>
      </trkpt>
      <trkpt lat="48.53036" lon="1.98752">
        <ele>99.3</ele>
        <time>2022-08-06T08:13:46Z</time>
      </trkpt>
      <trkpt lat="48.53025" lon="1.98753">
        <ele>99.1</ele>
        <time>2022-08-06T08:13:48Z</time>
      </trkpt>
      <trkpt lat="48.53012" lon="1.98756">
        <ele>99.1</ele>
        <time>2022-08-06T08:13:50Z</time>
      </trkpt>
      <trkpt lat="48.52999" lon="1.98756">
        <ele>99</ele>
        <time>2022-08-06T08:13:52Z</time>
      </trkpt>
      <trkpt lat="48.52987" lon="1.98759">
        <ele>99</ele>
        <time>2022-08-06T08:13:54Z</time>
      </trkpt>
      <trkpt lat="48.52977" lon="1.9876">
        <ele>99</ele>
        <time>2022-08-06T08:13:56Z</time>
      </trkpt>
      <trkpt lat="48.52965" lon="1.98764">
        <ele>99</ele>
        <time>2022-08-06T08:13:58Z</time>
      </trkpt>
      <trkpt lat="48.52955" lon="1.98767">
        <ele>99</ele>
        <time>2022-08-06T08:14:00Z</time>
      </trkpt>
      <trkpt lat="48.52949" lon="1.98776">
        <ele>99</ele>
        <time>2022-08-06T08:14:02Z</time>
      </trkpt>
      <trkpt lat="48.52946" lon="1.98791">
        <ele>99</ele>
        <time>2022-08-06T08:14:04Z</time>
      </trkpt>
      <trkpt lat="48.52947" lon="1.98804">
        <ele>99</ele>
        <time>2022-08-06T08:14:06Z</time>
      </trkpt>
      <trkpt lat="48.52948" lon="1.9882">
        <ele>99.5</ele>
        <time>2022-08-06T08:14:08Z</time>
      </trkpt>
      <trkpt lat="48.52949" lon="1.98837">
        <ele>99.8</ele>
        <time>2022-08-06T08:14:10Z</time>
      </trkpt>
      <trkpt lat="48.52951" lon="1.98856">
        <ele>99.8</ele>
        <time>2022-08-06T08:14:12Z</time>
      </trkpt>
      <trkpt lat="48.52951" lon="1.98874">
        <ele>99.4</ele>
        <time>2022-08-06T08:14:14Z</time>
      </trkpt>
      <trkpt lat="48.52952" lon="1.98889">
        <ele>99</ele>
        <time>2022-08-06T08:14:16Z</time>
      </trkpt>
      <trkpt lat="48.52952" lon="1.98907">
        <ele>99</ele>
        <time>2022-08-06T08:14:18Z</time>
      </trkpt>
      <trkpt lat="48.52954" lon="1.98924">
        <ele>99</ele>
        <time>2022-08-06T08:14:20Z</time>
      </trkpt>
      <trkpt lat="48.52955" lon="1.9894">
        <ele>99</ele>
        <time>2022-08-06T08:14:22Z</time>
      </trkpt>
      <trkpt lat="48.52959" lon="1.98956">
        <ele>99</ele>
        <time>2022-08-06T08:14:24Z</time>
      </trkpt>
      <trkpt lat="48.52962" lon="1.98971">
        <ele>99</ele>
        <time>2022-08-06T08:14:26Z</time>
      </trkpt>
      <trkpt lat="48.52966" lon="1.98987">
        <ele>99</ele>
        <time>2022-08-06T08:14:28Z</time>
      </trkpt>
      <trkpt lat="48.5297" lon="1.99">
        <ele>99</ele>
        <time>2022-08-06T08:14:30Z</time>
      </trkpt>
      <trkpt lat="48.52972" lon="1.99017">
        <ele>99</ele>
        <time>2022-08-06T08:14:32Z</time>
      </trkpt>
      <trkpt lat="48.52973" lon="1.99033">
        <ele>99</ele>
        <time>2022-08-06T08:14:34Z</time>
      </trkpt>
      <trkpt lat="48.52971" lon="1.99049">
        <ele>99</ele>
        <time>2022-08-06T08:14:36Z</time>
      </trkpt>
      <trkpt lat="48.5297" lon="1.99065">
        <ele>99</ele>
        <time>2022-08-06T08:14:38Z</time>
      </trkpt>
      <trkpt lat="48.52968" lon="1.99082">
        <ele>99</ele>
        <time>2022-08-06T08:14:40Z</time>
      </trkpt>
      <trkpt lat="48.52966" lon="1.99098">
        <ele>99</ele>
        <time>2022-08-06T08:14:42Z</time>
      </trkpt>
      <trkpt lat="48.52963" lon="1.99114">
        <ele>99</ele>
        <time>2022-08-06T08:14:44Z</time>
      </trkpt>
      <trkpt lat="48.52963" lon="1.99133">
        <ele>99</ele>
        <time>2022-08-06T08:14:46Z</time>
      </trkpt>
      <trkpt lat="48.52963" lon="1.99149">
        <ele>99</ele>
        <time>2022-08-06T08:14:48Z</time>
      </trkpt>
      <trkpt lat="48.52964" lon="1.99165">
        <ele>99</ele>
        <time>2022-08-06T08:14:50Z</time>
      </trkpt>
      <trkpt lat="48.52966" lon="1.99183">
        <ele>99.1</ele>
        <time>2022-08-06T08:14:52Z</time>
      </trkpt>
      <trkpt lat="48.52966" lon="1.99198">
        <ele>99.2</ele>
        <time>2022-08-06T08:14:54Z</time>
      </trkpt>
      <trkpt lat="48.5297" lon="1.99212">
        <ele>99.1</ele>
        <time>2022-08-06T08:14:56Z</time>
      </trkpt>
      <trkpt lat="48.52974" lon="1.99227">
        <ele>99</ele>
        <time>2022-08-06T08:14:58Z</time>
      </trkpt>
      <trkpt lat="48.52979" lon="1.99241">
        <ele>98.8</ele>
        <time>2022-08-06T08:15:00Z</time>
      </trkpt>
      <trkpt lat="48.52982" lon="1.99256">
        <ele>98.6</ele>
        <time>2022-08-06T08:15:02Z</time>
      </trkpt>
      <trkpt lat="48.52985" lon="1.99269">
        <ele>98.6</ele>
        <time>2022-08-06T08:15:04Z</time>
      </trkpt>
      <trkpt lat="48.52987" lon="1.99279">
        <ele>98.4</ele>
        <time>2022-08-06T08:15:06Z</time>
      </trkpt>
      <trkpt lat="48.52983" lon="1.99287">
        <ele>98.4</ele>
        <time>2022-08-06T08:15:10Z</time>
      </trkpt>
      <trkpt lat="48.52978" lon="1.99289">
        <ele>98.5</ele>
        <time>2022-08-06T08:15:12Z</time>
      </trkpt>
      <trkpt lat="48.52968" lon="1.99288">
        <ele>98.8</ele>
        <time>2022-08-06T08:15:16Z</time>
      </trkpt>
      <trkpt lat="48.52963" lon="1.99284">
        <ele>99.2</ele>
        <time>2022-08-06T08:15:18Z</time>
      </trkpt>
      <trkpt lat="48.52956" lon="1.99281">
        <ele>99.5</ele>
        <time>2022-08-06T08:15:20Z</time>
      </trkpt>
      <trkpt lat="48.5295" lon="1.99277">
        <ele>99.8</ele>
        <time>2022-08-06T08:15:22Z</time>
      </trkpt>
      <trkpt lat="48.52945" lon="1.99275">
        <ele>100</ele>
        <time>2022-08-06T08:15:24Z</time>
      </trkpt>
      <trkpt lat="48.52939" lon="1.99272">
        <ele>100.3</ele>
        <time>2022-08-06T08:15:26Z</time>
      </trkpt>
      <trkpt lat="48.52934" lon="1.99269">
        <ele>100.6</ele>
        <time>2022-08-06T08:15:28Z</time>
      </trkpt>
      <trkpt lat="48.52928" lon="1.99268">
        <ele>100.9</ele>
        <time>2022-08-06T08:15:30Z</time>
      </trkpt>
      <trkpt lat="48.52923" lon="1.99267">
        <ele>101.3</ele>
        <time>2022-08-06T08:15:32Z</time>
      </trkpt>
      <trkpt lat="48.52917" lon="1.99268">
        <ele>101.6</ele>
        <time>2022-08-06T08:15:34Z</time>
      </trkpt>
      <trkpt lat="48.52912" lon="1.99269">
        <ele>101.9</ele>
        <time>2022-08-06T08:15:36Z</time>
      </trkpt>
      <trkpt lat="48.52907" lon="1.99271">
        <ele>102.2</ele>
        <time>2022-08-06T08:15:38Z</time>
      </trkpt>
      <trkpt lat="48.52901" lon="1.99271">
        <ele>102.4</ele>
        <time>2022-08-06T08:15:40Z</time>
      </trkpt>
      <trkpt lat="48.52896" lon="1.99272">
        <ele>102.7</ele>
        <time>2022-08-06T08:15:42Z</time>
      </trkpt>
      <trkpt lat="48.52891" lon="1.99273">
        <ele>102.9</ele>
        <time>2022-08-06T08:15:44Z</time>
      </trkpt>
      <trkpt lat="48.52886" lon="1.99274">
        <ele>103.2</ele>
        <time>2022-08-06T08:15:46Z</time>
      </trkpt>
      <trkpt lat="48.52878" lon="1.99275">
        <ele>103.7</ele>
        <time>2022-08-06T08:15:50Z</time>
      </trkpt>
      <trkpt lat="48.52873" lon="1.99276">
        <ele>104.1</ele>
        <time>2022-08-06T08:15:54Z</time>
      </trkpt>
      <trkpt lat="48.52867" lon="1.99273">
        <ele>104.4</ele>
        <time>2022-08-06T08:16:10Z</time>
      </trkpt>
      <trkpt lat="48.52861" lon="1.99261">
        <ele>104.5</ele>
        <time>2022-08-06T08:16:14Z</time>
      </trkpt>
      <trkpt lat="48.52856" lon="1.99254">
        <ele>104.6</ele>
        <time>2022-08-06T08:16:16Z</time>
      </trkpt>
      <trkpt lat="48.52852" lon="1.99244">
        <ele>105</ele>
        <time>2022-08-06T08:16:18Z</time>
      </trkpt>
      <trkpt lat="48.52847" lon="1.99234">
        <ele>105.5</ele>
        <time>2022-08-06T08:16:20Z</time>
      </trkpt>
      <trkpt lat="48.52842" lon="1.99224">
        <ele>106.1</ele>
        <time>2022-08-06T08:16:22Z</time>
      </trkpt>
      <trkpt lat="48.52837" lon="1.99213">
        <ele>106.3</ele>
        <time>2022-08-06T08:16:24Z</time>
      </trkpt>
      <trkpt lat="48.52832" lon="1.99202">
        <ele>106.4</ele>
        <time>2022-08-06T08:16:26Z</time>
      </trkpt>
      <trkpt lat="48.52827" lon="1.99192">
        <ele>106.4</ele>
        <time>2022-08-06T08:16:28Z</time>
      </trkpt>
      <trkpt lat="48.52822" lon="1.99182">
        <ele>106.6</ele>
        <time>2022-08-06T08:16:30Z</time>
      </trkpt>
      <trkpt lat="48.52818" lon="1.9917">
        <ele>106.6</ele>
        <time>2022-08-06T08:16:32Z</time>
      </trkpt>
      <trkpt lat="48.52814" lon="1.99159">
        <ele>106.6</ele>
        <time>2022-08-06T08:16:34Z</time>
      </trkpt>
      <trkpt lat="48.52812" lon="1.99146">
        <ele>106.6</ele>
        <time>2022-08-06T08:16:36Z</time>
      </trkpt>
      <trkpt lat="48.52811" lon="1.99133">
        <ele>106.6</ele>
        <time>2022-08-06T08:16:38Z</time>
      </trkpt>
      <trkpt lat="48.52811" lon="1.99119">
        <ele>106.6</ele>
        <time>2022-08-06T08:16:40Z</time>
      </trkpt>
      <trkpt lat="48.52811" lon="1.99105">
        <ele>106.6</ele>
        <time>2022-08-06T08:16:42Z</time>
      </trkpt>
      <trkpt lat="48.5281" lon="1.99089">
        <ele>106.5</ele>
        <time>2022-08-06T08:16:44Z</time>
      </trkpt>
      <trkpt lat="48.52809" lon="1.99073">
        <ele>106.6</ele>
        <time>2022-08-06T08:16:46Z</time>
      </trkpt>
      <trkpt lat="48.52808" lon="1.99055">
        <ele>106.8</ele>
        <time>2022-08-06T08:16:48Z</time>
      </trkpt>
      <trkpt lat="48.52807" lon="1.99038">
        <ele>106.2</ele>
        <time>2022-08-06T08:16:50Z</time>
      </trkpt>
      <trkpt lat="48.52806" lon="1.9902">
        <ele>106</ele>
        <time>2022-08-06T08:16:52Z</time>
      </trkpt>
      <trkpt lat="48.52805" lon="1.99002">
        <ele>106</ele>
        <time>2022-08-06T08:16:54Z</time>
      </trkpt>
      <trkpt lat="48.52804" lon="1.98984">
        <ele>106.1</ele>
        <time>2022-08-06T08:16:56Z</time>
      </trkpt>
      <trkpt lat="48.52804" lon="1.98967">
        <ele>106.1</ele>
        <time>2022-08-06T08:16:58Z</time>
      </trkpt>
      <trkpt lat="48.52803" lon="1.98948">
        <ele>106.2</ele>
        <time>2022-08-06T08:17:00Z</time>
      </trkpt>
      <trkpt lat="48.52802" lon="1.98931">
        <ele>106.3</ele>
        <time>2022-08-06T08:17:02Z</time>
      </trkpt>
      <trkpt lat="48.52801" lon="1.98914">
        <ele>106.3</ele>
        <time>2022-08-06T08:17:04Z</time>
      </trkpt>
      <trkpt lat="48.528" lon="1.98897">
        <ele>106.4</ele>
        <time>2022-08-06T08:17:06Z</time>
      </trkpt>
      <trkpt lat="48.528" lon="1.98879">
        <ele>106.4</ele>
        <time>2022-08-06T08:17:08Z</time>
      </trkpt>
      <trkpt lat="48.52798" lon="1.9886">
        <ele>106.5</ele>
        <time>2022-08-06T08:17:10Z</time>
      </trkpt>
      <trkpt lat="48.52798" lon="1.98843">
        <ele>106.6</ele>
        <time>2022-08-06T08:17:12Z</time>
      </trkpt>
      <trkpt lat="48.52797" lon="1.98825">
        <ele>106.6</ele>
        <time>2022-08-06T08:17:14Z</time>
      </trkpt>
      <trkpt lat="48.52796" lon="1.98807">
        <ele>106.7</ele>
        <time>2022-08-06T08:17:16Z</time>
      </trkpt>
      <trkpt lat="48.52795" lon="1.98789">
        <ele>106.2</ele>
        <time>2022-08-06T08:17:18Z</time>
      </trkpt>
      <trkpt lat="48.52794" lon="1.9877">
        <ele>105.8</ele>
        <time>2022-08-06T08:17:20Z</time>
      </trkpt>
      <trkpt lat="48.52794" lon="1.98751">
        <ele>105.9</ele>
        <time>2022-08-06T08:17:22Z</time>
      </trkpt>
      <trkpt lat="48.52793" lon="1.98733">
        <ele>105.9</ele>
        <time>2022-08-06T08:17:24Z</time>
      </trkpt>
      <trkpt lat="48.52792" lon="1.98715">
        <ele>106.1</ele>
        <time>2022-08-06T08:17:26Z</time>
      </trkpt>
      <trkpt lat="48.52792" lon="1.98696">
        <ele>106.5</ele>
        <time>2022-08-06T08:17:28Z</time>
      </trkpt>
      <trkpt lat="48.52791" lon="1.98678">
        <ele>106.2</ele>
        <time>2022-08-06T08:17:30Z</time>
      </trkpt>
      <trkpt lat="48.52791" lon="1.9866">
        <ele>106.1</ele>
        <time>2022-08-06T08:17:32Z</time>
      </trkpt>
      <trkpt lat="48.52791" lon="1.98642">
        <ele>106.1</ele>
        <time>2022-08-06T08:17:34Z</time>
      </trkpt>
      <trkpt lat="48.5279" lon="1.98624">
        <ele>106.3</ele>
        <time>2022-08-06T08:17:36Z</time>
      </trkpt>
      <trkpt lat="48.52789" lon="1.98606">
        <ele>106.5</ele>
        <time>2022-08-06T08:17:38Z</time>
      </trkpt>
      <trkpt lat="48.52787" lon="1.98587">
        <ele>106.4</ele>
        <time>2022-08-06T08:17:40Z</time>
      </trkpt>
      <trkpt lat="48.52786" lon="1.98568">
        <ele>106.4</ele>
        <time>2022-08-06T08:17:42Z</time>
      </trkpt>
      <trkpt lat="48.52786" lon="1.9855">
        <ele>106.5</ele>
        <time>2022-08-06T08:17:44Z</time>
      </trkpt>
      <trkpt lat="48.52785" lon="1.98532">
        <ele>106.7</ele>
        <time>2022-08-06T08:17:46Z</time>
      </trkpt>
      <trkpt lat="48.52785" lon="1.98512">
        <ele>106.6</ele>
        <time>2022-08-06T08:17:48Z</time>
      </trkpt>
      <trkpt lat="48.52784" lon="1.98493">
        <ele>106.6</ele>
        <time>2022-08-06T08:17:50Z</time>
      </trkpt>
      <trkpt lat="48.52784" lon="1.98474">
        <ele>106.8</ele>
        <time>2022-08-06T08:17:52Z</time>
      </trkpt>
      <trkpt lat="48.52783" lon="1.98455">
        <ele>106.7</ele>
        <time>2022-08-06T08:17:54Z</time>
      </trkpt>
      <trkpt lat="48.52783" lon="1.98437">
        <ele>106.6</ele>
        <time>2022-08-06T08:17:56Z</time>
      </trkpt>
      <trkpt lat="48.52782" lon="1.98418">
        <ele>106.7</ele>
        <time>2022-08-06T08:17:58Z</time>
      </trkpt>
      <trkpt lat="48.52781" lon="1.98401">
        <ele>106.8</ele>
        <time>2022-08-06T08:18:00Z</time>
      </trkpt>
      <trkpt lat="48.5278" lon="1.98384">
        <ele>106.8</ele>
        <time>2022-08-06T08:18:02Z</time>
      </trkpt>
      <trkpt lat="48.52779" lon="1.98366">
        <ele>106.9</ele>
        <time>2022-08-06T08:18:04Z</time>
      </trkpt>
      <trkpt lat="48.52778" lon="1.98348">
        <ele>107</ele>
        <time>2022-08-06T08:18:06Z</time>
      </trkpt>
      <trkpt lat="48.52778" lon="1.98332">
        <ele>107</ele>
        <time>2022-08-06T08:18:08Z</time>
      </trkpt>
      <trkpt lat="48.52777" lon="1.98316">
        <ele>107</ele>
        <time>2022-08-06T08:18:10Z</time>
      </trkpt>
      <trkpt lat="48.52776" lon="1.983">
        <ele>107.1</ele>
        <time>2022-08-06T08:18:12Z</time>
      </trkpt>
      <trkpt lat="48.52772" lon="1.98287">
        <ele>107.2</ele>
        <time>2022-08-06T08:18:14Z</time>
      </trkpt>
      <trkpt lat="48.52766" lon="1.98287">
        <ele>107.4</ele>
        <time>2022-08-06T08:18:16Z</time>
      </trkpt>
      <trkpt lat="48.52761" lon="1.98288">
        <ele>107.6</ele>
        <time>2022-08-06T08:18:18Z</time>
      </trkpt>
      <trkpt lat="48.52762" lon="1.98281">
        <ele>107.6</ele>
        <time>2022-08-06T08:18:44Z</time>
      </trkpt>
      <trkpt lat="48.5276" lon="1.98269">
        <ele>107.9</ele>
        <time>2022-08-06T08:18:48Z</time>
      </trkpt>
      <trkpt lat="48.5276" lon="1.9826">
        <ele>108.1</ele>
        <time>2022-08-06T08:18:50Z</time>
      </trkpt>
      <trkpt lat="48.52758" lon="1.98252">
        <ele>108.4</ele>
        <time>2022-08-06T08:18:52Z</time>
      </trkpt>
      <trkpt lat="48.52756" lon="1.98241">
        <ele>108.6</ele>
        <time>2022-08-06T08:18:56Z</time>
      </trkpt>
      <trkpt lat="48.52754" lon="1.98228">
        <ele>108.7</ele>
        <time>2022-08-06T08:19:00Z</time>
      </trkpt>
      <trkpt lat="48.52752" lon="1.9822">
        <ele>108.8</ele>
        <time>2022-08-06T08:19:02Z</time>
      </trkpt>
      <trkpt lat="48.52751" lon="1.98207">
        <ele>108.9</ele>
        <time>2022-08-06T08:19:06Z</time>
      </trkpt>
      <trkpt lat="48.52752" lon="1.98195">
        <ele>108.8</ele>
        <time>2022-08-06T08:19:10Z</time>
      </trkpt>
      <trkpt lat="48.52754" lon="1.98185">
        <ele>108.3</ele>
        <time>2022-08-06T08:19:12Z</time>
      </trkpt>
      <trkpt lat="48.52756" lon="1.98173">
        <ele>107.7</ele>
        <time>2022-08-06T08:19:14Z</time>
      </trkpt>
      <trkpt lat="48.52759" lon="1.98163">
        <ele>107.3</ele>
        <time>2022-08-06T08:19:16Z</time>
      </trkpt>
      <trkpt lat="48.52761" lon="1.98157">
        <ele>106.9</ele>
        <time>2022-08-06T08:19:18Z</time>
      </trkpt>
      <trkpt lat="48.52763" lon="1.98149">
        <ele>106.4</ele>
        <time>2022-08-06T08:19:20Z</time>
      </trkpt>
      <trkpt lat="48.52763" lon="1.98138">
        <ele>106.1</ele>
        <time>2022-08-06T08:19:24Z</time>
      </trkpt>
      <trkpt lat="48.52756" lon="1.98136">
        <ele>106.6</ele>
        <time>2022-08-06T08:20:04Z</time>
      </trkpt>
      <trkpt lat="48.5275" lon="1.98137">
        <ele>107</ele>
        <time>2022-08-06T08:20:08Z</time>
      </trkpt>
      <trkpt lat="48.52743" lon="1.98136">
        <ele>107.4</ele>
        <time>2022-08-06T08:20:12Z</time>
      </trkpt>
      <trkpt lat="48.52738" lon="1.98135">
        <ele>107.8</ele>
        <time>2022-08-06T08:20:16Z</time>
      </trkpt>
      <trkpt lat="48.52732" lon="1.98135">
        <ele>108.2</ele>
        <time>2022-08-06T08:20:20Z</time>
      </trkpt>
      <trkpt lat="48.52727" lon="1.98135">
        <ele>108.6</ele>
        <time>2022-08-06T08:20:24Z</time>
      </trkpt>
      <trkpt lat="48.52721" lon="1.98134">
        <ele>108.8</ele>
        <time>2022-08-06T08:20:28Z</time>
      </trkpt>
      <trkpt lat="48.52716" lon="1.98133">
        <ele>109</ele>
        <time>2022-08-06T08:20:32Z</time>
      </trkpt>
      <trkpt lat="48.52721" lon="1.98134">
        <ele>108.9</ele>
        <time>2022-08-06T08:21:18Z</time>
      </trkpt>
      <trkpt lat="48.52727" lon="1.98133">
        <ele>108.5</ele>
        <time>2022-08-06T08:21:26Z</time>
      </trkpt>
      <trkpt lat="48.52733" lon="1.98131">
        <ele>108</ele>
        <time>2022-08-06T08:21:32Z</time>
      </trkpt>
      <trkpt lat="48.52744" lon="1.98133">
        <ele>107.4</ele>
        <time>2022-08-06T08:21:36Z</time>
      </trkpt>
      <trkpt lat="48.52749" lon="1.98133">
        <ele>107.1</ele>
        <time>2022-08-06T08:21:38Z</time>
      </trkpt>
      <trkpt lat="48.52754" lon="1.98133">
        <ele>106.7</ele>
        <time>2022-08-06T08:21:40Z</time>
      </trkpt>
      <trkpt lat="48.52759" lon="1.98133">
        <ele>106.4</ele>
        <time>2022-08-06T08:21:42Z</time>
      </trkpt>
      <trkpt lat="48.52763" lon="1.98129">
        <ele>106.1</ele>
        <time>2022-08-06T08:21:46Z</time>
      </trkpt>
      <trkpt lat="48.52769" lon="1.9813">
        <ele>105.6</ele>
        <time>2022-08-06T08:21:50Z</time>
      </trkpt>
      <trkpt lat="48.52771" lon="1.98137">
        <ele>105.5</ele>
        <time>2022-08-06T08:21:52Z</time>
      </trkpt>
      <trkpt lat="48.52771" lon="1.98147">
        <ele>105.8</ele>
        <time>2022-08-06T08:21:54Z</time>
      </trkpt>
      <trkpt lat="48.52771" lon="1.98157">
        <ele>106.1</ele>
        <time>2022-08-06T08:21:56Z</time>
      </trkpt>
      <trkpt lat="48.52772" lon="1.98169">
        <ele>106.4</ele>
        <time>2022-08-06T08:21:58Z</time>
      </trkpt>
      <trkpt lat="48.52772" lon="1.98183">
        <ele>106.5</ele>
        <time>2022-08-06T08:22:00Z</time>
      </trkpt>
      <trkpt lat="48.52774" lon="1.98196">
        <ele>106.5</ele>
        <time>2022-08-06T08:22:02Z</time>
      </trkpt>
      <trkpt lat="48.52775" lon="1.98208">
        <ele>106.8</ele>
        <time>2022-08-06T08:22:04Z</time>
      </trkpt>
      <trkpt lat="48.52776" lon="1.9822">
        <ele>107.1</ele>
        <time>2022-08-06T08:22:06Z</time>
      </trkpt>
      <trkpt lat="48.52777" lon="1.98234">
        <ele>107.1</ele>
        <time>2022-08-06T08:22:08Z</time>
      </trkpt>
      <trkpt lat="48.52778" lon="1.98247">
        <ele>107</ele>
        <time>2022-08-06T08:22:10Z</time>
      </trkpt>
      <trkpt lat="48.52779" lon="1.98259">
        <ele>106.9</ele>
        <time>2022-08-06T08:22:12Z</time>
      </trkpt>
      <trkpt lat="48.52778" lon="1.9827">
        <ele>107</ele>
        <time>2022-08-06T08:22:14Z</time>
      </trkpt>
      <trkpt lat="48.52778" lon="1.98282">
        <ele>107</ele>
        <time>2022-08-06T08:22:16Z</time>
      </trkpt>
      <trkpt lat="48.52775" lon="1.9829">
        <ele>107.1</ele>
        <time>2022-08-06T08:22:18Z</time>
      </trkpt>
      <trkpt lat="48.52769" lon="1.98293">
        <ele>107.3</ele>
        <time>2022-08-06T08:22:20Z</time>
      </trkpt>
      <trkpt lat="48.52762" lon="1.98292">
        <ele>107.6</ele>
        <time>2022-08-06T08:22:22Z</time>
      </trkpt>
      <trkpt lat="48.52756" lon="1.98292">
        <ele>107.8</ele>
        <time>2022-08-06T08:22:24Z</time>
      </trkpt>
      <trkpt lat="48.52747" lon="1.98291">
        <ele>108.1</ele>
        <time>2022-08-06T08:22:28Z</time>
      </trkpt>
      <trkpt lat="48.52739" lon="1.98291">
        <ele>108.4</ele>
        <time>2022-08-06T08:22:32Z</time>
      </trkpt>
      <trkpt lat="48.52732" lon="1.98291">
        <ele>108.7</ele>
        <time>2022-08-06T08:22:36Z</time>
      </trkpt>
      <trkpt lat="48.52724" lon="1.98291">
        <ele>108.9</ele>
        <time>2022-08-06T08:22:40Z</time>
      </trkpt>
      <trkpt lat="48.52715" lon="1.98291">
        <ele>109.4</ele>
        <time>2022-08-06T08:22:44Z</time>
      </trkpt>
      <trkpt lat="48.52711" lon="1.98292">
        <ele>109.6</ele>
        <time>2022-08-06T08:22:46Z</time>
      </trkpt>
      <trkpt lat="48.52706" lon="1.98291">
        <ele>109.9</ele>
        <time>2022-08-06T08:22:48Z</time>
      </trkpt>
      <trkpt lat="48.52701" lon="1.98292">
        <ele>110.1</ele>
        <time>2022-08-06T08:22:50Z</time>
      </trkpt>
      <trkpt lat="48.52693" lon="1.98293">
        <ele>110.5</ele>
        <time>2022-08-06T08:22:54Z</time>
      </trkpt>
      <trkpt lat="48.52685" lon="1.98294">
        <ele>110.8</ele>
        <time>2022-08-06T08:22:58Z</time>
      </trkpt>
      <trkpt lat="48.52678" lon="1.98294">
        <ele>111</ele>
        <time>2022-08-06T08:23:02Z</time>
      </trkpt>
      <trkpt lat="48.5267" lon="1.98294">
        <ele>111.3</ele>
        <time>2022-08-06T08:23:06Z</time>
      </trkpt>
      <trkpt lat="48.52663" lon="1.98295">
        <ele>111.7</ele>
        <time>2022-08-06T08:23:10Z</time>
      </trkpt>
      <trkpt lat="48.52656" lon="1.98296">
        <ele>112.1</ele>
        <time>2022-08-06T08:23:14Z</time>
      </trkpt>
      <trkpt lat="48.52648" lon="1.98296">
        <ele>112.7</ele>
        <time>2022-08-06T08:23:18Z</time>
      </trkpt>
      <trkpt lat="48.52641" lon="1.98296">
        <ele>113.2</ele>
        <time>2022-08-06T08:23:22Z</time>
      </trkpt>
      <trkpt lat="48.52632" lon="1.98297">
        <ele>113.7</ele>
        <time>2022-08-06T08:23:26Z</time>
      </trkpt>
      <trkpt lat="48.52624" lon="1.98297">
        <ele>114.2</ele>
        <time>2022-08-06T08:23:30Z</time>
      </trkpt>
      <trkpt lat="48.52616" lon="1.98297">
        <ele>114.7</ele>
        <time>2022-08-06T08:23:34Z</time>
      </trkpt>
      <trkpt lat="48.5261" lon="1.98298">
        <ele>115.1</ele>
        <time>2022-08-06T08:23:38Z</time>
      </trkpt>
      <trkpt lat="48.52602" lon="1.98297">
        <ele>115.4</ele>
        <time>2022-08-06T08:23:42Z</time>
      </trkpt>
      <trkpt lat="48.52594" lon="1.98298">
        <ele>115.8</ele>
        <time>2022-08-06T08:23:46Z</time>
      </trkpt>
      <trkpt lat="48.52587" lon="1.98298">
        <ele>116.1</ele>
        <time>2022-08-06T08:23:50Z</time>
      </trkpt>
      <trkpt lat="48.5258" lon="1.98298">
        <ele>116.4</ele>
        <time>2022-08-06T08:23:54Z</time>
      </trkpt>
      <trkpt lat="48.52572" lon="1.98297">
        <ele>116.7</ele>
        <time>2022-08-06T08:23:58Z</time>
      </trkpt>
      <trkpt lat="48.52565" lon="1.98294">
        <ele>117.1</ele>
        <time>2022-08-06T08:24:02Z</time>
      </trkpt>
      <trkpt lat="48.52557" lon="1.98292">
        <ele>117.4</ele>
        <time>2022-08-06T08:24:06Z</time>
      </trkpt>
      <trkpt lat="48.5255" lon="1.98291">
        <ele>117.9</ele>
        <time>2022-08-06T08:24:10Z</time>
      </trkpt>
      <trkpt lat="48.52542" lon="1.98291">
        <ele>118.5</ele>
        <time>2022-08-06T08:24:14Z</time>
      </trkpt>
      <trkpt lat="48.52536" lon="1.9829">
        <ele>119</ele>
        <time>2022-08-06T08:24:18Z</time>
      </trkpt>
      <trkpt lat="48.5253" lon="1.98291">
        <ele>119.4</ele>
        <time>2022-08-06T08:24:24Z</time>
      </trkpt>
      <trkpt lat="48.52523" lon="1.98291">
        <ele>119.8</ele>
        <time>2022-08-06T08:24:28Z</time>
      </trkpt>
      <trkpt lat="48.52515" lon="1.9829">
        <ele>120.2</ele>
        <time>2022-08-06T08:24:32Z</time>
      </trkpt>
      <trkpt lat="48.52508" lon="1.9829">
        <ele>120.6</ele>
        <time>2022-08-06T08:24:36Z</time>
      </trkpt>
      <trkpt lat="48.52499" lon="1.98287">
        <ele>121.1</ele>
        <time>2022-08-06T08:24:40Z</time>
      </trkpt>
      <trkpt lat="48.52494" lon="1.98285">
        <ele>121.7</ele>
        <time>2022-08-06T08:24:42Z</time>
      </trkpt>
      <trkpt lat="48.52489" lon="1.98283">
        <ele>122.2</ele>
        <time>2022-08-06T08:24:44Z</time>
      </trkpt>
      <trkpt lat="48.52485" lon="1.9828">
        <ele>122.6</ele>
        <time>2022-08-06T08:24:46Z</time>
      </trkpt>
      <trkpt lat="48.52481" lon="1.98276">
        <ele>123</ele>
        <time>2022-08-06T08:24:50Z</time>
      </trkpt>
      <trkpt lat="48.52475" lon="1.98279">
        <ele>123.7</ele>
        <time>2022-08-06T08:24:54Z</time>
      </trkpt>
      <trkpt lat="48.52473" lon="1.98285">
        <ele>123.9</ele>
        <time>2022-08-06T08:24:56Z</time>
      </trkpt>
      <trkpt lat="48.5247" lon="1.98297">
        <ele>124.4</ele>
        <time>2022-08-06T08:25:00Z</time>
      </trkpt>
      <trkpt lat="48.52469" lon="1.98308">
        <ele>124.4</ele>
        <time>2022-08-06T08:25:04Z</time>
      </trkpt>
      <trkpt lat="48.52465" lon="1.98314">
        <ele>124.7</ele>
        <time>2022-08-06T08:25:06Z</time>
      </trkpt>
      <trkpt lat="48.52462" lon="1.98329">
        <ele>124.5</ele>
        <time>2022-08-06T08:25:10Z</time>
      </trkpt>
      <trkpt lat="48.52459" lon="1.98337">
        <ele>124.6</ele>
        <time>2022-08-06T08:25:12Z</time>
      </trkpt>
      <trkpt lat="48.52455" lon="1.98344">
        <ele>124.7</ele>
        <time>2022-08-06T08:25:14Z</time>
      </trkpt>
      <trkpt lat="48.52451" lon="1.98356">
        <ele>124.4</ele>
        <time>2022-08-06T08:25:18Z</time>
      </trkpt>
      <trkpt lat="48.52447" lon="1.98365">
        <ele>124.3</ele>
        <time>2022-08-06T08:25:20Z</time>
      </trkpt>
      <trkpt lat="48.52444" lon="1.98376">
        <ele>124</ele>
        <time>2022-08-06T08:25:22Z</time>
      </trkpt>
      <trkpt lat="48.5244" lon="1.98386">
        <ele>123.7</ele>
        <time>2022-08-06T08:25:24Z</time>
      </trkpt>
      <trkpt lat="48.52435" lon="1.98396">
        <ele>123.4</ele>
        <time>2022-08-06T08:25:26Z</time>
      </trkpt>
      <trkpt lat="48.52429" lon="1.98403">
        <ele>123.4</ele>
        <time>2022-08-06T08:25:28Z</time>
      </trkpt>
      <trkpt lat="48.52426" lon="1.98417">
        <ele>122.7</ele>
        <time>2022-08-06T08:25:30Z</time>
      </trkpt>
      <trkpt lat="48.52419" lon="1.98431">
        <ele>122.6</ele>
        <time>2022-08-06T08:25:32Z</time>
      </trkpt>
      <trkpt lat="48.52414" lon="1.98444">
        <ele>122.4</ele>
        <time>2022-08-06T08:25:34Z</time>
      </trkpt>
      <trkpt lat="48.52408" lon="1.98458">
        <ele>122.6</ele>
        <time>2022-08-06T08:25:36Z</time>
      </trkpt>
      <trkpt lat="48.52402" lon="1.98467">
        <ele>122.8</ele>
        <time>2022-08-06T08:25:38Z</time>
      </trkpt>
      <trkpt lat="48.52398" lon="1.98477">
        <ele>122.9</ele>
        <time>2022-08-06T08:25:40Z</time>
      </trkpt>
      <trkpt lat="48.52394" lon="1.98492">
        <ele>123</ele>
        <time>2022-08-06T08:25:42Z</time>
      </trkpt>
      <trkpt lat="48.52388" lon="1.98502">
        <ele>123.2</ele>
        <time>2022-08-06T08:25:44Z</time>
      </trkpt>
      <trkpt lat="48.52383" lon="1.98514">
        <ele>124</ele>
        <time>2022-08-06T08:25:46Z</time>
      </trkpt>
      <trkpt lat="48.52378" lon="1.9853">
        <ele>124.8</ele>
        <time>2022-08-06T08:25:48Z</time>
      </trkpt>
      <trkpt lat="48.52372" lon="1.98543">
        <ele>125.7</ele>
        <time>2022-08-06T08:25:50Z</time>
      </trkpt>
      <trkpt lat="48.52368" lon="1.98552">
        <ele>126.2</ele>
        <time>2022-08-06T08:25:52Z</time>
      </trkpt>
      <trkpt lat="48.52363" lon="1.98563">
        <ele>126.7</ele>
        <time>2022-08-06T08:25:54Z</time>
      </trkpt>
      <trkpt lat="48.5236" lon="1.98575">
        <ele>127.3</ele>
        <time>2022-08-06T08:25:56Z</time>
      </trkpt>
      <trkpt lat="48.52355" lon="1.98586">
        <ele>127.9</ele>
        <time>2022-08-06T08:25:58Z</time>
      </trkpt>
      <trkpt lat="48.52351" lon="1.98595">
        <ele>128.2</ele>
        <time>2022-08-06T08:26:00Z</time>
      </trkpt>
      <trkpt lat="48.5235" lon="1.98605">
        <ele>128.7</ele>
        <time>2022-08-06T08:26:02Z</time>
      </trkpt>
      <trkpt lat="48.52348" lon="1.98615">
        <ele>129.2</ele>
        <time>2022-08-06T08:26:04Z</time>
      </trkpt>
      <trkpt lat="48.52345" lon="1.98624">
        <ele>129.7</ele>
        <time>2022-08-06T08:26:06Z</time>
      </trkpt>
      <trkpt lat="48.52342" lon="1.98633">
        <ele>130</ele>
        <time>2022-08-06T08:26:08Z</time>
      </trkpt>
      <trkpt lat="48.5234" lon="1.98644">
        <ele>130.4</ele>
        <time>2022-08-06T08:26:10Z</time>
      </trkpt>
      <trkpt lat="48.5234" lon="1.98654">
        <ele>130.8</ele>
        <time>2022-08-06T08:26:12Z</time>
      </trkpt>
      <trkpt lat="48.52339" lon="1.98662">
        <ele>131</ele>
        <time>2022-08-06T08:26:14Z</time>
      </trkpt>
      <trkpt lat="48.52337" lon="1.9867">
        <ele>131.3</ele>
        <time>2022-08-06T08:26:16Z</time>
      </trkpt>
      <trkpt lat="48.52337" lon="1.9868">
        <ele>131.7</ele>
        <time>2022-08-06T08:26:18Z</time>
      </trkpt>
      <trkpt lat="48.52335" lon="1.98689">
        <ele>131.9</ele>
        <time>2022-08-06T08:26:20Z</time>
      </trkpt>
      <trkpt lat="48.52334" lon="1.98698">
        <ele>132.3</ele>
        <time>2022-08-06T08:26:22Z</time>
      </trkpt>
      <trkpt lat="48.5233" lon="1.98705">
        <ele>132.9</ele>
        <time>2022-08-06T08:26:24Z</time>
      </trkpt>
      <trkpt lat="48.5233" lon="1.98716">
        <ele>133.7</ele>
        <time>2022-08-06T08:26:26Z</time>
      </trkpt>
      <trkpt lat="48.5233" lon="1.98723">
        <ele>134.1</ele>
        <time>2022-08-06T08:26:28Z</time>
      </trkpt>
      <trkpt lat="48.5233" lon="1.98731">
        <ele>134.5</ele>
        <time>2022-08-06T08:26:30Z</time>
      </trkpt>
      <trkpt lat="48.52329" lon="1.98741">
        <ele>134.8</ele>
        <time>2022-08-06T08:26:32Z</time>
      </trkpt>
      <trkpt lat="48.52328" lon="1.9875">
        <ele>135.2</ele>
        <time>2022-08-06T08:26:34Z</time>
      </trkpt>
      <trkpt lat="48.5233" lon="1.98758">
        <ele>135.4</ele>
        <time>2022-08-06T08:26:36Z</time>
      </trkpt>
      <trkpt lat="48.52329" lon="1.98768">
        <ele>135.8</ele>
        <time>2022-08-06T08:26:38Z</time>
      </trkpt>
      <trkpt lat="48.52328" lon="1.98776">
        <ele>136.1</ele>
        <time>2022-08-06T08:26:40Z</time>
      </trkpt>
      <trkpt lat="48.52328" lon="1.98786">
        <ele>136.5</ele>
        <time>2022-08-06T08:26:42Z</time>
      </trkpt>
      <trkpt lat="48.52326" lon="1.98795">
        <ele>136.9</ele>
        <time>2022-08-06T08:26:44Z</time>
      </trkpt>
      <trkpt lat="48.52325" lon="1.98802">
        <ele>137.2</ele>
        <time>2022-08-06T08:26:46Z</time>
      </trkpt>
      <trkpt lat="48.52321" lon="1.98814">
        <ele>137.6</ele>
        <time>2022-08-06T08:26:50Z</time>
      </trkpt>
      <trkpt lat="48.52318" lon="1.98819">
        <ele>137.8</ele>
        <time>2022-08-06T08:26:52Z</time>
      </trkpt>
      <trkpt lat="48.52314" lon="1.98826">
        <ele>138.2</ele>
        <time>2022-08-06T08:26:54Z</time>
      </trkpt>
      <trkpt lat="48.52312" lon="1.98832">
        <ele>138.5</ele>
        <time>2022-08-06T08:26:56Z</time>
      </trkpt>
      <trkpt lat="48.52308" lon="1.98839">
        <ele>138.9</ele>
        <time>2022-08-06T08:26:58Z</time>
      </trkpt>
      <trkpt lat="48.52305" lon="1.9885">
        <ele>139</ele>
        <time>2022-08-06T08:27:00Z</time>
      </trkpt>
      <trkpt lat="48.52301" lon="1.98859">
        <ele>139.2</ele>
        <time>2022-08-06T08:27:02Z</time>
      </trkpt>
      <trkpt lat="48.52298" lon="1.98868">
        <ele>139.1</ele>
        <time>2022-08-06T08:27:04Z</time>
      </trkpt>
      <trkpt lat="48.52296" lon="1.98876">
        <ele>139</ele>
        <time>2022-08-06T08:27:06Z</time>
      </trkpt>
      <trkpt lat="48.52296" lon="1.98886">
        <ele>138.8</ele>
        <time>2022-08-06T08:27:08Z</time>
      </trkpt>
      <trkpt lat="48.52294" lon="1.98896">
        <ele>138.7</ele>
        <time>2022-08-06T08:27:10Z</time>
      </trkpt>
      <trkpt lat="48.52291" lon="1.98905">
        <ele>138.7</ele>
        <time>2022-08-06T08:27:12Z</time>
      </trkpt>
      <trkpt lat="48.52289" lon="1.98914">
        <ele>138.7</ele>
        <time>2022-08-06T08:27:14Z</time>
      </trkpt>
      <trkpt lat="48.52288" lon="1.98923">
        <ele>138.6</ele>
        <time>2022-08-06T08:27:16Z</time>
      </trkpt>
      <trkpt lat="48.52288" lon="1.98936">
        <ele>138.4</ele>
        <time>2022-08-06T08:27:18Z</time>
      </trkpt>
      <trkpt lat="48.5229" lon="1.98951">
        <ele>137.9</ele>
        <time>2022-08-06T08:27:20Z</time>
      </trkpt>
      <trkpt lat="48.52291" lon="1.98966">
        <ele>137.3</ele>
        <time>2022-08-06T08:27:22Z</time>
      </trkpt>
      <trkpt lat="48.52289" lon="1.98985">
        <ele>136.7</ele>
        <time>2022-08-06T08:27:24Z</time>
      </trkpt>
      <trkpt lat="48.52287" lon="1.99006">
        <ele>136.1</ele>
        <time>2022-08-06T08:27:26Z</time>
      </trkpt>
      <trkpt lat="48.52283" lon="1.99023">
        <ele>135.8</ele>
        <time>2022-08-06T08:27:28Z</time>
      </trkpt>
      <trkpt lat="48.52277" lon="1.99038">
        <ele>135.3</ele>
        <time>2022-08-06T08:27:30Z</time>
      </trkpt>
      <trkpt lat="48.52266" lon="1.99049">
        <ele>134.9</ele>
        <time>2022-08-06T08:27:32Z</time>
      </trkpt>
      <trkpt lat="48.52254" lon="1.99062">
        <ele>134.6</ele>
        <time>2022-08-06T08:27:34Z</time>
      </trkpt>
      <trkpt lat="48.52246" lon="1.99069">
        <ele>134.5</ele>
        <time>2022-08-06T08:27:36Z</time>
      </trkpt>
      <trkpt lat="48.52239" lon="1.99075">
        <ele>134.3</ele>
        <time>2022-08-06T08:27:38Z</time>
      </trkpt>
      <trkpt lat="48.52234" lon="1.99076">
        <ele>134.2</ele>
        <time>2022-08-06T08:27:40Z</time>
      </trkpt>
      <trkpt lat="48.52229" lon="1.99078">
        <ele>134.2</ele>
        <time>2022-08-06T08:27:42Z</time>
      </trkpt>
      <trkpt lat="48.52224" lon="1.99078">
        <ele>134.2</ele>
        <time>2022-08-06T08:27:48Z</time>
      </trkpt>
      <trkpt lat="48.52216" lon="1.99071">
        <ele>134.6</ele>
        <time>2022-08-06T08:27:52Z</time>
      </trkpt>
      <trkpt lat="48.5221" lon="1.99064">
        <ele>134.8</ele>
        <time>2022-08-06T08:27:54Z</time>
      </trkpt>
      <trkpt lat="48.52203" lon="1.99059">
        <ele>135</ele>
        <time>2022-08-06T08:27:56Z</time>
      </trkpt>
      <trkpt lat="48.52196" lon="1.99053">
        <ele>135</ele>
        <time>2022-08-06T08:27:58Z</time>
      </trkpt>
      <trkpt lat="48.5219" lon="1.99048">
        <ele>135</ele>
        <time>2022-08-06T08:28:00Z</time>
      </trkpt>
      <trkpt lat="48.52185" lon="1.99042">
        <ele>135</ele>
        <time>2022-08-06T08:28:02Z</time>
      </trkpt>
      <trkpt lat="48.5218" lon="1.99034">
        <ele>135</ele>
        <time>2022-08-06T08:28:04Z</time>
      </trkpt>
      <trkpt lat="48.52175" lon="1.99026">
        <ele>135</ele>
        <time>2022-08-06T08:28:06Z</time>
      </trkpt>
      <trkpt lat="48.52171" lon="1.9902">
        <ele>135</ele>
        <time>2022-08-06T08:28:08Z</time>
      </trkpt>
      <trkpt lat="48.52167" lon="1.99012">
        <ele>135</ele>
        <time>2022-08-06T08:28:10Z</time>
      </trkpt>
      <trkpt lat="48.52164" lon="1.99005">
        <ele>135.2</ele>
        <time>2022-08-06T08:28:12Z</time>
      </trkpt>
      <trkpt lat="48.52161" lon="1.98995">
        <ele>135.7</ele>
        <time>2022-08-06T08:28:14Z</time>
      </trkpt>
      <trkpt lat="48.52159" lon="1.98986">
        <ele>136.3</ele>
        <time>2022-08-06T08:28:16Z</time>
      </trkpt>
      <trkpt lat="48.52154" lon="1.98979">
        <ele>136.7</ele>
        <time>2022-08-06T08:28:18Z</time>
      </trkpt>
      <trkpt lat="48.52149" lon="1.98974">
        <ele>136.9</ele>
        <time>2022-08-06T08:28:20Z</time>
      </trkpt>
      <trkpt lat="48.52143" lon="1.98969">
        <ele>137.1</ele>
        <time>2022-08-06T08:28:22Z</time>
      </trkpt>
      <trkpt lat="48.52137" lon="1.98963">
        <ele>137.5</ele>
        <time>2022-08-06T08:28:24Z</time>
      </trkpt>
      <trkpt lat="48.52131" lon="1.98958">
        <ele>138.1</ele>
        <time>2022-08-06T08:28:26Z</time>
      </trkpt>
      <trkpt lat="48.52125" lon="1.98953">
        <ele>138.5</ele>
        <time>2022-08-06T08:28:28Z</time>
      </trkpt>
      <trkpt lat="48.5212" lon="1.98948">
        <ele>138.7</ele>
        <time>2022-08-06T08:28:30Z</time>
      </trkpt>
      <trkpt lat="48.52114" lon="1.98943">
        <ele>138.9</ele>
        <time>2022-08-06T08:28:32Z</time>
      </trkpt>
      <trkpt lat="48.52107" lon="1.98939">
        <ele>139.6</ele>
        <time>2022-08-06T08:28:34Z</time>
      </trkpt>
      <trkpt lat="48.52101" lon="1.98935">
        <ele>140.3</ele>
        <time>2022-08-06T08:28:36Z</time>
      </trkpt>
      <trkpt lat="48.52097" lon="1.9893">
        <ele>140.8</ele>
        <time>2022-08-06T08:28:38Z</time>
      </trkpt>
      <trkpt lat="48.52092" lon="1.98926">
        <ele>141.3</ele>
        <time>2022-08-06T08:28:40Z</time>
      </trkpt>
      <trkpt lat="48.52083" lon="1.98918">
        <ele>142</ele>
        <time>2022-08-06T08:28:44Z</time>
      </trkpt>
      <trkpt lat="48.52078" lon="1.98915">
        <ele>142.4</ele>
        <time>2022-08-06T08:28:46Z</time>
      </trkpt>
      <trkpt lat="48.52073" lon="1.98911">
        <ele>142.7</ele>
        <time>2022-08-06T08:28:48Z</time>
      </trkpt>
      <trkpt lat="48.52068" lon="1.98907">
        <ele>142.9</ele>
        <time>2022-08-06T08:28:50Z</time>
      </trkpt>
      <trkpt lat="48.52063" lon="1.98903">
        <ele>143.1</ele>
        <time>2022-08-06T08:28:52Z</time>
      </trkpt>
      <trkpt lat="48.52059" lon="1.989">
        <ele>143.2</ele>
        <time>2022-08-06T08:28:54Z</time>
      </trkpt>
      <trkpt lat="48.52054" lon="1.98895">
        <ele>143.4</ele>
        <time>2022-08-06T08:28:56Z</time>
      </trkpt>
      <trkpt lat="48.52049" lon="1.98891">
        <ele>143.6</ele>
        <time>2022-08-06T08:28:58Z</time>
      </trkpt>
      <trkpt lat="48.52044" lon="1.98887">
        <ele>143.8</ele>
        <time>2022-08-06T08:29:00Z</time>
      </trkpt>
      <trkpt lat="48.5204" lon="1.98883">
        <ele>144.2</ele>
        <time>2022-08-06T08:29:02Z</time>
      </trkpt>
      <trkpt lat="48.52037" lon="1.98877">
        <ele>144.5</ele>
        <time>2022-08-06T08:29:10Z</time>
      </trkpt>
      <trkpt lat="48.52032" lon="1.9887">
        <ele>144.8</ele>
        <time>2022-08-06T08:29:14Z</time>
      </trkpt>
      <trkpt lat="48.52027" lon="1.98865">
        <ele>145</ele>
        <time>2022-08-06T08:29:16Z</time>
      </trkpt>
      <trkpt lat="48.52023" lon="1.98858">
        <ele>145.5</ele>
        <time>2022-08-06T08:29:18Z</time>
      </trkpt>
      <trkpt lat="48.52018" lon="1.98852">
        <ele>146.2</ele>
        <time>2022-08-06T08:29:20Z</time>
      </trkpt>
      <trkpt lat="48.52013" lon="1.98845">
        <ele>146.6</ele>
        <time>2022-08-06T08:29:22Z</time>
      </trkpt>
      <trkpt lat="48.52008" lon="1.98838">
        <ele>146.9</ele>
        <time>2022-08-06T08:29:24Z</time>
      </trkpt>
      <trkpt lat="48.52003" lon="1.98831">
        <ele>147.1</ele>
        <time>2022-08-06T08:29:26Z</time>
      </trkpt>
      <trkpt lat="48.51998" lon="1.98825">
        <ele>147.2</ele>
        <time>2022-08-06T08:29:28Z</time>
      </trkpt>
      <trkpt lat="48.51994" lon="1.98818">
        <ele>147.1</ele>
        <time>2022-08-06T08:29:30Z</time>
      </trkpt>
      <trkpt lat="48.51991" lon="1.98808">
        <ele>147</ele>
        <time>2022-08-06T08:29:32Z</time>
      </trkpt>
      <trkpt lat="48.51991" lon="1.98799">
        <ele>147.2</ele>
        <time>2022-08-06T08:29:34Z</time>
      </trkpt>
      <trkpt lat="48.51992" lon="1.9879">
        <ele>147.6</ele>
        <time>2022-08-06T08:29:36Z</time>
      </trkpt>
      <trkpt lat="48.51994" lon="1.98781">
        <ele>148</ele>
        <time>2022-08-06T08:29:38Z</time>
      </trkpt>
      <trkpt lat="48.51996" lon="1.98773">
        <ele>148.4</ele>
        <time>2022-08-06T08:29:40Z</time>
      </trkpt>
      <trkpt lat="48.51998" lon="1.98765">
        <ele>148.6</ele>
        <time>2022-08-06T08:29:42Z</time>
      </trkpt>
      <trkpt lat="48.52" lon="1.98758">
        <ele>149</ele>
        <time>2022-08-06T08:29:44Z</time>
      </trkpt>
      <trkpt lat="48.52004" lon="1.98749">
        <ele>149.2</ele>
        <time>2022-08-06T08:29:46Z</time>
      </trkpt>
      <trkpt lat="48.52007" lon="1.98742">
        <ele>149.2</ele>
        <time>2022-08-06T08:29:48Z</time>
      </trkpt>
      <trkpt lat="48.52011" lon="1.98734">
        <ele>149.4</ele>
        <time>2022-08-06T08:29:50Z</time>
      </trkpt>
      <trkpt lat="48.52015" lon="1.98727">
        <ele>149.7</ele>
        <time>2022-08-06T08:29:52Z</time>
      </trkpt>
      <trkpt lat="48.52019" lon="1.98718">
        <ele>150.3</ele>
        <time>2022-08-06T08:29:54Z</time>
      </trkpt>
      <trkpt lat="48.5202" lon="1.98709">
        <ele>150.6</ele>
        <time>2022-08-06T08:29:56Z</time>
      </trkpt>
      <trkpt lat="48.52022" lon="1.98701">
        <ele>150.8</ele>
        <time>2022-08-06T08:29:58Z</time>
      </trkpt>
      <trkpt lat="48.52025" lon="1.98693">
        <ele>151.5</ele>
        <time>2022-08-06T08:30:00Z</time>
      </trkpt>
      <trkpt lat="48.52026" lon="1.98686">
        <ele>151.6</ele>
        <time>2022-08-06T08:30:02Z</time>
      </trkpt>
      <trkpt lat="48.52027" lon="1.98679">
        <ele>151.8</ele>
        <time>2022-08-06T08:30:04Z</time>
      </trkpt>
      <trkpt lat="48.52027" lon="1.9867">
        <ele>151.9</ele>
        <time>2022-08-06T08:30:06Z</time>
      </trkpt>
      <trkpt lat="48.52027" lon="1.98661">
        <ele>151.9</ele>
        <time>2022-08-06T08:30:08Z</time>
      </trkpt>
      <trkpt lat="48.52028" lon="1.98651">
        <ele>152</ele>
        <time>2022-08-06T08:30:10Z</time>
      </trkpt>
      <trkpt lat="48.52029" lon="1.98642">
        <ele>152.1</ele>
        <time>2022-08-06T08:30:12Z</time>
      </trkpt>
      <trkpt lat="48.52028" lon="1.98626">
        <ele>152.4</ele>
        <time>2022-08-06T08:30:16Z</time>
      </trkpt>
      <trkpt lat="48.52026" lon="1.98618">
        <ele>152.4</ele>
        <time>2022-08-06T08:30:18Z</time>
      </trkpt>
      <trkpt lat="48.52025" lon="1.98611">
        <ele>152.4</ele>
        <time>2022-08-06T08:30:20Z</time>
      </trkpt>
      <trkpt lat="48.52019" lon="1.98605">
        <ele>151.4</ele>
        <time>2022-08-06T08:30:24Z</time>
      </trkpt>
      <trkpt lat="48.52012" lon="1.98608">
        <ele>149.9</ele>
        <time>2022-08-06T08:30:26Z</time>
      </trkpt>
      <trkpt lat="48.52005" lon="1.98611">
        <ele>148</ele>
        <time>2022-08-06T08:30:28Z</time>
      </trkpt>
      <trkpt lat="48.51995" lon="1.98619">
        <ele>145.9</ele>
        <time>2022-08-06T08:30:30Z</time>
      </trkpt>
      <trkpt lat="48.51983" lon="1.98626">
        <ele>143.4</ele>
        <time>2022-08-06T08:30:32Z</time>
      </trkpt>
      <trkpt lat="48.51969" lon="1.98636">
        <ele>140.3</ele>
        <time>2022-08-06T08:30:34Z</time>
      </trkpt>
      <trkpt lat="48.51957" lon="1.9865">
        <ele>138.2</ele>
        <time>2022-08-06T08:30:36Z</time>
      </trkpt>
      <trkpt lat="48.51946" lon="1.98668">
        <ele>135.1</ele>
        <time>2022-08-06T08:30:38Z</time>
      </trkpt>
      <trkpt lat="48.51937" lon="1.98692">
        <ele>133.9</ele>
        <time>2022-08-06T08:30:40Z</time>
      </trkpt>
      <trkpt lat="48.51927" lon="1.98713">
        <ele>132.4</ele>
        <time>2022-08-06T08:30:42Z</time>
      </trkpt>
      <trkpt lat="48.51917" lon="1.98732">
        <ele>130</ele>
        <time>2022-08-06T08:30:44Z</time>
      </trkpt>
      <trkpt lat="48.51908" lon="1.9875">
        <ele>129.4</ele>
        <time>2022-08-06T08:30:46Z</time>
      </trkpt>
      <trkpt lat="48.51891" lon="1.98769">
        <ele>127.5</ele>
        <time>2022-08-06T08:30:48Z</time>
      </trkpt>
      <trkpt lat="48.51875" lon="1.98783">
        <ele>126.8</ele>
        <time>2022-08-06T08:30:50Z</time>
      </trkpt>
      <trkpt lat="48.51859" lon="1.98795">
        <ele>126.5</ele>
        <time>2022-08-06T08:30:52Z</time>
      </trkpt>
      <trkpt lat="48.51842" lon="1.98803">
        <ele>125</ele>
        <time>2022-08-06T08:30:54Z</time>
      </trkpt>
      <trkpt lat="48.51825" lon="1.98812">
        <ele>124.2</ele>
        <time>2022-08-06T08:30:56Z</time>
      </trkpt>
      <trkpt lat="48.51807" lon="1.98819">
        <ele>122.7</ele>
        <time>2022-08-06T08:30:58Z</time>
      </trkpt>
      <trkpt lat="48.51789" lon="1.98825">
        <ele>121.1</ele>
        <time>2022-08-06T08:31:00Z</time>
      </trkpt>
      <trkpt lat="48.51773" lon="1.98833">
        <ele>119.8</ele>
        <time>2022-08-06T08:31:02Z</time>
      </trkpt>
      <trkpt lat="48.51757" lon="1.98838">
        <ele>119.6</ele>
        <time>2022-08-06T08:31:04Z</time>
      </trkpt>
      <trkpt lat="48.51742" lon="1.98841">
        <ele>119.2</ele>
        <time>2022-08-06T08:31:06Z</time>
      </trkpt>
      <trkpt lat="48.51727" lon="1.98845">
        <ele>118.7</ele>
        <time>2022-08-06T08:31:08Z</time>
      </trkpt>
      <trkpt lat="48.51719" lon="1.98847">
        <ele>118.3</ele>
        <time>2022-08-06T08:31:10Z</time>
      </trkpt>
      <trkpt lat="48.51714" lon="1.98848">
        <ele>118</ele>
        <time>2022-08-06T08:31:12Z</time>
      </trkpt>
      <trkpt lat="48.51709" lon="1.98855">
        <ele>117.8</ele>
        <time>2022-08-06T08:31:16Z</time>
      </trkpt>
      <trkpt lat="48.51707" lon="1.98863">
        <ele>118</ele>
        <time>2022-08-06T08:31:22Z</time>
      </trkpt>
      <trkpt lat="48.51707" lon="1.98872">
        <ele>118.5</ele>
        <time>2022-08-06T08:31:26Z</time>
      </trkpt>
      <trkpt lat="48.51708" lon="1.98885">
        <ele>119.2</ele>
        <time>2022-08-06T08:31:30Z</time>
      </trkpt>
      <trkpt lat="48.5171" lon="1.98892">
        <ele>119.7</ele>
        <time>2022-08-06T08:31:32Z</time>
      </trkpt>
      <trkpt lat="48.51714" lon="1.98904">
        <ele>120.1</ele>
        <time>2022-08-06T08:31:36Z</time>
      </trkpt>
      <trkpt lat="48.51717" lon="1.98911">
        <ele>120.4</ele>
        <time>2022-08-06T08:31:38Z</time>
      </trkpt>
      <trkpt lat="48.51719" lon="1.98919">
        <ele>120.6</ele>
        <time>2022-08-06T08:31:40Z</time>
      </trkpt>
      <trkpt lat="48.51722" lon="1.98928">
        <ele>120.5</ele>
        <time>2022-08-06T08:31:42Z</time>
      </trkpt>
      <trkpt lat="48.51724" lon="1.98936">
        <ele>120.5</ele>
        <time>2022-08-06T08:31:44Z</time>
      </trkpt>
      <trkpt lat="48.51727" lon="1.98946">
        <ele>120.4</ele>
        <time>2022-08-06T08:31:46Z</time>
      </trkpt>
      <trkpt lat="48.51729" lon="1.98959">
        <ele>119.9</ele>
        <time>2022-08-06T08:31:48Z</time>
      </trkpt>
      <trkpt lat="48.51732" lon="1.98972">
        <ele>119.4</ele>
        <time>2022-08-06T08:31:50Z</time>
      </trkpt>
      <trkpt lat="48.51733" lon="1.98986">
        <ele>119.1</ele>
        <time>2022-08-06T08:31:52Z</time>
      </trkpt>
      <trkpt lat="48.51736" lon="1.99003">
        <ele>119</ele>
        <time>2022-08-06T08:31:54Z</time>
      </trkpt>
      <trkpt lat="48.5174" lon="1.99019">
        <ele>119.5</ele>
        <time>2022-08-06T08:31:56Z</time>
      </trkpt>
      <trkpt lat="48.51741" lon="1.99034">
        <ele>119.7</ele>
        <time>2022-08-06T08:31:58Z</time>
      </trkpt>
      <trkpt lat="48.51742" lon="1.99052">
        <ele>119.8</ele>
        <time>2022-08-06T08:32:00Z</time>
      </trkpt>
      <trkpt lat="48.51744" lon="1.9907">
        <ele>119.6</ele>
        <time>2022-08-06T08:32:02Z</time>
      </trkpt>
      <trkpt lat="48.51745" lon="1.99087">
        <ele>119</ele>
        <time>2022-08-06T08:32:04Z</time>
      </trkpt>
      <trkpt lat="48.51747" lon="1.99104">
        <ele>118.1</ele>
        <time>2022-08-06T08:32:06Z</time>
      </trkpt>
      <trkpt lat="48.5175" lon="1.99121">
        <ele>117.3</ele>
        <time>2022-08-06T08:32:08Z</time>
      </trkpt>
      <trkpt lat="48.51754" lon="1.99137">
        <ele>116.7</ele>
        <time>2022-08-06T08:32:10Z</time>
      </trkpt>
      <trkpt lat="48.51757" lon="1.99159">
        <ele>115.4</ele>
        <time>2022-08-06T08:32:12Z</time>
      </trkpt>
      <trkpt lat="48.5176" lon="1.99176">
        <ele>114.7</ele>
        <time>2022-08-06T08:32:14Z</time>
      </trkpt>
      <trkpt lat="48.5176" lon="1.99186">
        <ele>114.3</ele>
        <time>2022-08-06T08:32:16Z</time>
      </trkpt>
      <trkpt lat="48.51759" lon="1.99197">
        <ele>113.8</ele>
        <time>2022-08-06T08:32:18Z</time>
      </trkpt>
      <trkpt lat="48.51755" lon="1.99204">
        <ele>113.1</ele>
        <time>2022-08-06T08:32:20Z</time>
      </trkpt>
      <trkpt lat="48.51751" lon="1.99211">
        <ele>112.5</ele>
        <time>2022-08-06T08:32:22Z</time>
      </trkpt>
      <trkpt lat="48.51743" lon="1.99219">
        <ele>111.9</ele>
        <time>2022-08-06T08:32:24Z</time>
      </trkpt>
      <trkpt lat="48.51735" lon="1.99229">
        <ele>111.5</ele>
        <time>2022-08-06T08:32:26Z</time>
      </trkpt>
      <trkpt lat="48.51729" lon="1.99235">
        <ele>111.2</ele>
        <time>2022-08-06T08:32:28Z</time>
      </trkpt>
      <trkpt lat="48.51723" lon="1.99237">
        <ele>111</ele>
        <time>2022-08-06T08:32:32Z</time>
      </trkpt>
      <trkpt lat="48.51719" lon="1.9924">
        <ele>110.9</ele>
        <time>2022-08-06T08:32:36Z</time>
      </trkpt>
      <trkpt lat="48.51712" lon="1.99234">
        <ele>110.6</ele>
        <time>2022-08-06T08:33:02Z</time>
      </trkpt>
      <trkpt lat="48.51707" lon="1.99228">
        <ele>110.5</ele>
        <time>2022-08-06T08:33:04Z</time>
      </trkpt>
      <trkpt lat="48.51702" lon="1.9922">
        <ele>110.3</ele>
        <time>2022-08-06T08:33:06Z</time>
      </trkpt>
      <trkpt lat="48.51695" lon="1.99211">
        <ele>110</ele>
        <time>2022-08-06T08:33:08Z</time>
      </trkpt>
      <trkpt lat="48.51688" lon="1.99201">
        <ele>110</ele>
        <time>2022-08-06T08:33:10Z</time>
      </trkpt>
      <trkpt lat="48.51682" lon="1.99194">
        <ele>110</ele>
        <time>2022-08-06T08:33:12Z</time>
      </trkpt>
      <trkpt lat="48.51675" lon="1.99182">
        <ele>110.1</ele>
        <time>2022-08-06T08:33:14Z</time>
      </trkpt>
      <trkpt lat="48.51668" lon="1.99172">
        <ele>110.1</ele>
        <time>2022-08-06T08:33:16Z</time>
      </trkpt>
      <trkpt lat="48.51662" lon="1.99162">
        <ele>110</ele>
        <time>2022-08-06T08:33:18Z</time>
      </trkpt>
      <trkpt lat="48.51656" lon="1.99154">
        <ele>110</ele>
        <time>2022-08-06T08:33:20Z</time>
      </trkpt>
      <trkpt lat="48.5165" lon="1.99146">
        <ele>110</ele>
        <time>2022-08-06T08:33:22Z</time>
      </trkpt>
      <trkpt lat="48.51645" lon="1.99141">
        <ele>110</ele>
        <time>2022-08-06T08:33:24Z</time>
      </trkpt>
      <trkpt lat="48.51639" lon="1.99135">
        <ele>110</ele>
        <time>2022-08-06T08:33:26Z</time>
      </trkpt>
      <trkpt lat="48.51633" lon="1.99131">
        <ele>110.2</ele>
        <time>2022-08-06T08:33:28Z</time>
      </trkpt>
      <trkpt lat="48.51627" lon="1.99132">
        <ele>110.4</ele>
        <time>2022-08-06T08:33:30Z</time>
      </trkpt>
      <trkpt lat="48.51623" lon="1.99138">
        <ele>110.6</ele>
        <time>2022-08-06T08:33:32Z</time>
      </trkpt>
      <trkpt lat="48.51617" lon="1.99147">
        <ele>110.8</ele>
        <time>2022-08-06T08:33:36Z</time>
      </trkpt>
      <trkpt lat="48.51612" lon="1.99159">
        <ele>111</ele>
        <time>2022-08-06T08:33:40Z</time>
      </trkpt>
      <trkpt lat="48.51608" lon="1.99165">
        <ele>111.1</ele>
        <time>2022-08-06T08:33:42Z</time>
      </trkpt>
      <trkpt lat="48.51606" lon="1.99171">
        <ele>111.2</ele>
        <time>2022-08-06T08:33:44Z</time>
      </trkpt>
      <trkpt lat="48.51602" lon="1.99175">
        <ele>111.3</ele>
        <time>2022-08-06T08:33:46Z</time>
      </trkpt>
      <trkpt lat="48.51597" lon="1.99184">
        <ele>111.5</ele>
        <time>2022-08-06T08:33:50Z</time>
      </trkpt>
      <trkpt lat="48.51589" lon="1.99189">
        <ele>111.8</ele>
        <time>2022-08-06T08:33:54Z</time>
      </trkpt>
      <trkpt lat="48.51584" lon="1.99192">
        <ele>112</ele>
        <time>2022-08-06T08:33:56Z</time>
      </trkpt>
      <trkpt lat="48.51579" lon="1.99194">
        <ele>112.3</ele>
        <time>2022-08-06T08:33:58Z</time>
      </trkpt>
      <trkpt lat="48.51575" lon="1.99197">
        <ele>112.6</ele>
        <time>2022-08-06T08:34:00Z</time>
      </trkpt>
      <trkpt lat="48.51566" lon="1.99197">
        <ele>113.2</ele>
        <time>2022-08-06T08:34:04Z</time>
      </trkpt>
      <trkpt lat="48.51559" lon="1.99198">
        <ele>113.7</ele>
        <time>2022-08-06T08:34:06Z</time>
      </trkpt>
      <trkpt lat="48.51551" lon="1.99198">
        <ele>114.1</ele>
        <time>2022-08-06T08:34:08Z</time>
      </trkpt>
      <trkpt lat="48.51543" lon="1.99197">
        <ele>114.4</ele>
        <time>2022-08-06T08:34:10Z</time>
      </trkpt>
      <trkpt lat="48.51537" lon="1.99196">
        <ele>114.6</ele>
        <time>2022-08-06T08:34:12Z</time>
      </trkpt>
      <trkpt lat="48.51531" lon="1.99193">
        <ele>114.9</ele>
        <time>2022-08-06T08:34:14Z</time>
      </trkpt>
      <trkpt lat="48.51525" lon="1.9919">
        <ele>115.2</ele>
        <time>2022-08-06T08:34:16Z</time>
      </trkpt>
      <trkpt lat="48.5152" lon="1.99189">
        <ele>115.6</ele>
        <time>2022-08-06T08:34:18Z</time>
      </trkpt>
      <trkpt lat="48.51512" lon="1.99184">
        <ele>116.2</ele>
        <time>2022-08-06T08:34:22Z</time>
      </trkpt>
      <trkpt lat="48.51507" lon="1.99184">
        <ele>116.5</ele>
        <time>2022-08-06T08:34:24Z</time>
      </trkpt>
      <trkpt lat="48.51503" lon="1.99189">
        <ele>116.8</ele>
        <time>2022-08-06T08:34:26Z</time>
      </trkpt>
      <trkpt lat="48.51502" lon="1.99197">
        <ele>116.8</ele>
        <time>2022-08-06T08:34:28Z</time>
      </trkpt>
      <trkpt lat="48.51501" lon="1.99207">
        <ele>116.9</ele>
        <time>2022-08-06T08:34:30Z</time>
      </trkpt>
      <trkpt lat="48.515" lon="1.9922">
        <ele>117</ele>
        <time>2022-08-06T08:34:32Z</time>
      </trkpt>
      <trkpt lat="48.51501" lon="1.99233">
        <ele>116.9</ele>
        <time>2022-08-06T08:34:34Z</time>
      </trkpt>
      <trkpt lat="48.51502" lon="1.99246">
        <ele>116.9</ele>
        <time>2022-08-06T08:34:36Z</time>
      </trkpt>
      <trkpt lat="48.51501" lon="1.99259">
        <ele>116.9</ele>
        <time>2022-08-06T08:34:38Z</time>
      </trkpt>
      <trkpt lat="48.515" lon="1.99275">
        <ele>117</ele>
        <time>2022-08-06T08:34:40Z</time>
      </trkpt>
      <trkpt lat="48.515" lon="1.99289">
        <ele>117</ele>
        <time>2022-08-06T08:34:42Z</time>
      </trkpt>
      <trkpt lat="48.515" lon="1.99301">
        <ele>117</ele>
        <time>2022-08-06T08:34:44Z</time>
      </trkpt>
      <trkpt lat="48.515" lon="1.99316">
        <ele>116.6</ele>
        <time>2022-08-06T08:34:46Z</time>
      </trkpt>
      <trkpt lat="48.51501" lon="1.99332">
        <ele>116</ele>
        <time>2022-08-06T08:34:48Z</time>
      </trkpt>
      <trkpt lat="48.51499" lon="1.99348">
        <ele>116</ele>
        <time>2022-08-06T08:34:50Z</time>
      </trkpt>
      <trkpt lat="48.51497" lon="1.99364">
        <ele>116.2</ele>
        <time>2022-08-06T08:34:52Z</time>
      </trkpt>
      <trkpt lat="48.51493" lon="1.99376">
        <ele>116.5</ele>
        <time>2022-08-06T08:34:54Z</time>
      </trkpt>
      <trkpt lat="48.51493" lon="1.99389">
        <ele>116.5</ele>
        <time>2022-08-06T08:34:56Z</time>
      </trkpt>
      <trkpt lat="48.51493" lon="1.99405">
        <ele>116.5</ele>
        <time>2022-08-06T08:34:58Z</time>
      </trkpt>
      <trkpt lat="48.51491" lon="1.9942">
        <ele>116.6</ele>
        <time>2022-08-06T08:35:00Z</time>
      </trkpt>
      <trkpt lat="48.51491" lon="1.99435">
        <ele>116.7</ele>
        <time>2022-08-06T08:35:02Z</time>
      </trkpt>
      <trkpt lat="48.51489" lon="1.9945">
        <ele>116.8</ele>
        <time>2022-08-06T08:35:04Z</time>
      </trkpt>
      <trkpt lat="48.51485" lon="1.99463">
        <ele>117.1</ele>
        <time>2022-08-06T08:35:06Z</time>
      </trkpt>
      <trkpt lat="48.51482" lon="1.99478">
        <ele>117.2</ele>
        <time>2022-08-06T08:35:08Z</time>
      </trkpt>
      <trkpt lat="48.51479" lon="1.99494">
        <ele>116.9</ele>
        <time>2022-08-06T08:35:10Z</time>
      </trkpt>
      <trkpt lat="48.51478" lon="1.99509">
        <ele>116.8</ele>
        <time>2022-08-06T08:35:12Z</time>
      </trkpt>
      <trkpt lat="48.51477" lon="1.99525">
        <ele>116.8</ele>
        <time>2022-08-06T08:35:14Z</time>
      </trkpt>
      <trkpt lat="48.51476" lon="1.99541">
        <ele>116.8</ele>
        <time>2022-08-06T08:35:16Z</time>
      </trkpt>
      <trkpt lat="48.51473" lon="1.99556">
        <ele>117</ele>
        <time>2022-08-06T08:35:18Z</time>
      </trkpt>
      <trkpt lat="48.51469" lon="1.99572">
        <ele>116.5</ele>
        <time>2022-08-06T08:35:20Z</time>
      </trkpt>
      <trkpt lat="48.51465" lon="1.99588">
        <ele>116.1</ele>
        <time>2022-08-06T08:35:22Z</time>
      </trkpt>
      <trkpt lat="48.51465" lon="1.99602">
        <ele>115.6</ele>
        <time>2022-08-06T08:35:24Z</time>
      </trkpt>
      <trkpt lat="48.51459" lon="1.99616">
        <ele>115.5</ele>
        <time>2022-08-06T08:35:26Z</time>
      </trkpt>
      <trkpt lat="48.51457" lon="1.99629">
        <ele>115.5</ele>
        <time>2022-08-06T08:35:28Z</time>
      </trkpt>
      <trkpt lat="48.51455" lon="1.99648">
        <ele>115.4</ele>
        <time>2022-08-06T08:35:30Z</time>
      </trkpt>
      <trkpt lat="48.51449" lon="1.99663">
        <ele>115.1</ele>
        <time>2022-08-06T08:35:32Z</time>
      </trkpt>
      <trkpt lat="48.51446" lon="1.9968">
        <ele>115</ele>
        <time>2022-08-06T08:35:34Z</time>
      </trkpt>
      <trkpt lat="48.51445" lon="1.99695">
        <ele>115</ele>
        <time>2022-08-06T08:35:36Z</time>
      </trkpt>
      <trkpt lat="48.51444" lon="1.99707">
        <ele>115</ele>
        <time>2022-08-06T08:35:38Z</time>
      </trkpt>
      <trkpt lat="48.51444" lon="1.99715">
        <ele>115</ele>
        <time>2022-08-06T08:35:40Z</time>
      </trkpt>
      <trkpt lat="48.51445" lon="1.99727">
        <ele>115.2</ele>
        <time>2022-08-06T08:35:44Z</time>
      </trkpt>
      <trkpt lat="48.51449" lon="1.99732">
        <ele>115.3</ele>
        <time>2022-08-06T08:35:56Z</time>
      </trkpt>
      <trkpt lat="48.51445" lon="1.99735">
        <ele>115.5</ele>
        <time>2022-08-06T08:36:18Z</time>
      </trkpt>
      <trkpt lat="48.51447" lon="1.99741">
        <ele>115.6</ele>
        <time>2022-08-06T08:37:06Z</time>
      </trkpt>
      <trkpt lat="48.51451" lon="1.99752">
        <ele>115.7</ele>
        <time>2022-08-06T08:37:10Z</time>
      </trkpt>
      <trkpt lat="48.51455" lon="1.9976">
        <ele>115.6</ele>
        <time>2022-08-06T08:37:12Z</time>
      </trkpt>
      <trkpt lat="48.51462" lon="1.99768">
        <ele>115.4</ele>
        <time>2022-08-06T08:37:14Z</time>
      </trkpt>
      <trkpt lat="48.51469" lon="1.99777">
        <ele>115.1</ele>
        <time>2022-08-06T08:37:16Z</time>
      </trkpt>
      <trkpt lat="48.51475" lon="1.99789">
        <ele>115</ele>
        <time>2022-08-06T08:37:18Z</time>
      </trkpt>
      <trkpt lat="48.51483" lon="1.99801">
        <ele>115</ele>
        <time>2022-08-06T08:37:20Z</time>
      </trkpt>
      <trkpt lat="48.5149" lon="1.99814">
        <ele>115</ele>
        <time>2022-08-06T08:37:22Z</time>
      </trkpt>
      <trkpt lat="48.515" lon="1.99826">
        <ele>115</ele>
        <time>2022-08-06T08:37:24Z</time>
      </trkpt>
      <trkpt lat="48.51508" lon="1.99839">
        <ele>114.7</ele>
        <time>2022-08-06T08:37:26Z</time>
      </trkpt>
      <trkpt lat="48.51515" lon="1.99851">
        <ele>114.4</ele>
        <time>2022-08-06T08:37:28Z</time>
      </trkpt>
      <trkpt lat="48.51523" lon="1.99862">
        <ele>114.2</ele>
        <time>2022-08-06T08:37:30Z</time>
      </trkpt>
      <trkpt lat="48.5153" lon="1.99875">
        <ele>113.9</ele>
        <time>2022-08-06T08:37:32Z</time>
      </trkpt>
      <trkpt lat="48.51539" lon="1.99887">
        <ele>113.6</ele>
        <time>2022-08-06T08:37:34Z</time>
      </trkpt>
      <trkpt lat="48.51549" lon="1.99896">
        <ele>113.2</ele>
        <time>2022-08-06T08:37:36Z</time>
      </trkpt>
      <trkpt lat="48.5156" lon="1.99904">
        <ele>112.8</ele>
        <time>2022-08-06T08:37:38Z</time>
      </trkpt>
      <trkpt lat="48.51571" lon="1.99914">
        <ele>111.9</ele>
        <time>2022-08-06T08:37:40Z</time>
      </trkpt>
      <trkpt lat="48.51583" lon="1.99923">
        <ele>111</ele>
        <time>2022-08-06T08:37:42Z</time>
      </trkpt>
      <trkpt lat="48.51595" lon="1.99932">
        <ele>110.5</ele>
        <time>2022-08-06T08:37:44Z</time>
      </trkpt>
      <trkpt lat="48.51607" lon="1.99943">
        <ele>109.4</ele>
        <time>2022-08-06T08:37:46Z</time>
      </trkpt>
      <trkpt lat="48.5162" lon="1.99952">
        <ele>108.9</ele>
        <time>2022-08-06T08:37:48Z</time>
      </trkpt>
      <trkpt lat="48.51632" lon="1.99961">
        <ele>108.5</ele>
        <time>2022-08-06T08:37:50Z</time>
      </trkpt>
      <trkpt lat="48.51645" lon="1.99971">
        <ele>107.8</ele>
        <time>2022-08-06T08:37:52Z</time>
      </trkpt>
      <trkpt lat="48.51659" lon="1.9998">
        <ele>107.1</ele>
        <time>2022-08-06T08:37:54Z</time>
      </trkpt>
      <trkpt lat="48.51672" lon="1.9999">
        <ele>106.2</ele>
        <time>2022-08-06T08:37:56Z</time>
      </trkpt>
      <trkpt lat="48.51685" lon="2">
        <ele>105.3</ele>
        <time>2022-08-06T08:37:58Z</time>
      </trkpt>
      <trkpt lat="48.51699" lon="2.0001">
        <ele>104.9</ele>
        <time>2022-08-06T08:38:00Z</time>
      </trkpt>
      <trkpt lat="48.51711" lon="2.00018">
        <ele>104.6</ele>
        <time>2022-08-06T08:38:02Z</time>
      </trkpt>
      <trkpt lat="48.51724" lon="2.00028">
        <ele>104</ele>
        <time>2022-08-06T08:38:04Z</time>
      </trkpt>
      <trkpt lat="48.51736" lon="2.00038">
        <ele>103.8</ele>
        <time>2022-08-06T08:38:06Z</time>
      </trkpt>
      <trkpt lat="48.51748" lon="2.00048">
        <ele>103.3</ele>
        <time>2022-08-06T08:38:08Z</time>
      </trkpt>
      <trkpt lat="48.5176" lon="2.00057">
        <ele>103</ele>
        <time>2022-08-06T08:38:10Z</time>
      </trkpt>
      <trkpt lat="48.51773" lon="2.00066">
        <ele>103</ele>
        <time>2022-08-06T08:38:12Z</time>
      </trkpt>
      <trkpt lat="48.51785" lon="2.00075">
        <ele>103</ele>
        <time>2022-08-06T08:38:14Z</time>
      </trkpt>
      <trkpt lat="48.51797" lon="2.00084">
        <ele>103</ele>
        <time>2022-08-06T08:38:16Z</time>
      </trkpt>
      <trkpt lat="48.51809" lon="2.00093">
        <ele>103.1</ele>
        <time>2022-08-06T08:38:18Z</time>
      </trkpt>
      <trkpt lat="48.51819" lon="2.00105">
        <ele>103.1</ele>
        <time>2022-08-06T08:38:20Z</time>
      </trkpt>
      <trkpt lat="48.5183" lon="2.00115">
        <ele>103</ele>
        <time>2022-08-06T08:38:22Z</time>
      </trkpt>
      <trkpt lat="48.51839" lon="2.00125">
        <ele>103.2</ele>
        <time>2022-08-06T08:38:24Z</time>
      </trkpt>
      <trkpt lat="48.51848" lon="2.00134">
        <ele>103.5</ele>
        <time>2022-08-06T08:38:26Z</time>
      </trkpt>
      <trkpt lat="48.51856" lon="2.00144">
        <ele>103.8</ele>
        <time>2022-08-06T08:38:28Z</time>
      </trkpt>
      <trkpt lat="48.51863" lon="2.00154">
        <ele>104.1</ele>
        <time>2022-08-06T08:38:30Z</time>
      </trkpt>
      <trkpt lat="48.5187" lon="2.00165">
        <ele>104.3</ele>
        <time>2022-08-06T08:38:32Z</time>
      </trkpt>
      <trkpt lat="48.51877" lon="2.00174">
        <ele>104.7</ele>
        <time>2022-08-06T08:38:34Z</time>
      </trkpt>
      <trkpt lat="48.51884" lon="2.00184">
        <ele>104.9</ele>
        <time>2022-08-06T08:38:36Z</time>
      </trkpt>
      <trkpt lat="48.51891" lon="2.00193">
        <ele>105.1</ele>
        <time>2022-08-06T08:38:38Z</time>
      </trkpt>
      <trkpt lat="48.51898" lon="2.00202">
        <ele>105.5</ele>
        <time>2022-08-06T08:38:40Z</time>
      </trkpt>
      <trkpt lat="48.51904" lon="2.00212">
        <ele>105.8</ele>
        <time>2022-08-06T08:38:42Z</time>
      </trkpt>
      <trkpt lat="48.51911" lon="2.0022">
        <ele>106</ele>
        <time>2022-08-06T08:38:44Z</time>
      </trkpt>
      <trkpt lat="48.51917" lon="2.00229">
        <ele>106.3</ele>
        <time>2022-08-06T08:38:46Z</time>
      </trkpt>
      <trkpt lat="48.51923" lon="2.00237">
        <ele>106.6</ele>
        <time>2022-08-06T08:38:48Z</time>
      </trkpt>
      <trkpt lat="48.51929" lon="2.00246">
        <ele>106.9</ele>
        <time>2022-08-06T08:38:50Z</time>
      </trkpt>
      <trkpt lat="48.51935" lon="2.00253">
        <ele>107.1</ele>
        <time>2022-08-06T08:38:52Z</time>
      </trkpt>
      <trkpt lat="48.51942" lon="2.0026">
        <ele>107.4</ele>
        <time>2022-08-06T08:38:54Z</time>
      </trkpt>
      <trkpt lat="48.51947" lon="2.00268">
        <ele>107.7</ele>
        <time>2022-08-06T08:38:56Z</time>
      </trkpt>
      <trkpt lat="48.51953" lon="2.00276">
        <ele>107.9</ele>
        <time>2022-08-06T08:38:58Z</time>
      </trkpt>
      <trkpt lat="48.51958" lon="2.00284">
        <ele>108.2</ele>
        <time>2022-08-06T08:39:00Z</time>
      </trkpt>
      <trkpt lat="48.51963" lon="2.00291">
        <ele>108.5</ele>
        <time>2022-08-06T08:39:02Z</time>
      </trkpt>
      <trkpt lat="48.51968" lon="2.00297">
        <ele>108.7</ele>
        <time>2022-08-06T08:39:04Z</time>
      </trkpt>
      <trkpt lat="48.51973" lon="2.00304">
        <ele>109</ele>
        <time>2022-08-06T08:39:06Z</time>
      </trkpt>
      <trkpt lat="48.51978" lon="2.00311">
        <ele>109.7</ele>
        <time>2022-08-06T08:39:08Z</time>
      </trkpt>
      <trkpt lat="48.51983" lon="2.00317">
        <ele>110.3</ele>
        <time>2022-08-06T08:39:10Z</time>
      </trkpt>
      <trkpt lat="48.51987" lon="2.00323">
        <ele>110.7</ele>
        <time>2022-08-06T08:39:12Z</time>
      </trkpt>
      <trkpt lat="48.51992" lon="2.00329">
        <ele>110.9</ele>
        <time>2022-08-06T08:39:14Z</time>
      </trkpt>
      <trkpt lat="48.51996" lon="2.00336">
        <ele>111.1</ele>
        <time>2022-08-06T08:39:16Z</time>
      </trkpt>
      <trkpt lat="48.52" lon="2.00341">
        <ele>111.6</ele>
        <time>2022-08-06T08:39:18Z</time>
      </trkpt>
      <trkpt lat="48.52005" lon="2.00346">
        <ele>112.1</ele>
        <time>2022-08-06T08:39:20Z</time>
      </trkpt>
      <trkpt lat="48.52008" lon="2.00351">
        <ele>112.6</ele>
        <time>2022-08-06T08:39:22Z</time>
      </trkpt>
      <trkpt lat="48.52008" lon="2.00359">
        <ele>113.1</ele>
        <time>2022-08-06T08:39:26Z</time>
      </trkpt>
      <trkpt lat="48.52007" lon="2.00367">
        <ele>113.4</ele>
        <time>2022-08-06T08:39:30Z</time>
      </trkpt>
      <trkpt lat="48.52011" lon="2.0037">
        <ele>113.7</ele>
        <time>2022-08-06T08:39:34Z</time>
      </trkpt>
      <trkpt lat="48.52014" lon="2.00375">
        <ele>114</ele>
        <time>2022-08-06T08:39:36Z</time>
      </trkpt>
      <trkpt lat="48.52018" lon="2.00386">
        <ele>114.6</ele>
        <time>2022-08-06T08:39:40Z</time>
      </trkpt>
      <trkpt lat="48.52021" lon="2.00397">
        <ele>115.1</ele>
        <time>2022-08-06T08:39:44Z</time>
      </trkpt>
      <trkpt lat="48.52025" lon="2.00407">
        <ele>115.6</ele>
        <time>2022-08-06T08:39:48Z</time>
      </trkpt>
      <trkpt lat="48.52031" lon="2.00414">
        <ele>116</ele>
        <time>2022-08-06T08:39:52Z</time>
      </trkpt>
      <trkpt lat="48.52036" lon="2.00426">
        <ele>116.9</ele>
        <time>2022-08-06T08:39:56Z</time>
      </trkpt>
      <trkpt lat="48.52043" lon="2.00433">
        <ele>117.4</ele>
        <time>2022-08-06T08:40:00Z</time>
      </trkpt>
      <trkpt lat="48.5205" lon="2.00439">
        <ele>117.8</ele>
        <time>2022-08-06T08:40:04Z</time>
      </trkpt>
      <trkpt lat="48.52056" lon="2.00447">
        <ele>118.2</ele>
        <time>2022-08-06T08:40:08Z</time>
      </trkpt>
      <trkpt lat="48.5206" lon="2.00452">
        <ele>118.7</ele>
        <time>2022-08-06T08:40:10Z</time>
      </trkpt>
      <trkpt lat="48.52067" lon="2.00462">
        <ele>119.4</ele>
        <time>2022-08-06T08:40:14Z</time>
      </trkpt>
      <trkpt lat="48.5207" lon="2.00468">
        <ele>119.8</ele>
        <time>2022-08-06T08:40:16Z</time>
      </trkpt>
      <trkpt lat="48.52072" lon="2.00475">
        <ele>120.1</ele>
        <time>2022-08-06T08:40:18Z</time>
      </trkpt>
      <trkpt lat="48.52076" lon="2.00482">
        <ele>120.3</ele>
        <time>2022-08-06T08:40:22Z</time>
      </trkpt>
      <trkpt lat="48.52079" lon="2.00492">
        <ele>120.7</ele>
        <time>2022-08-06T08:40:26Z</time>
      </trkpt>
      <trkpt lat="48.52074" lon="2.00496">
        <ele>120.8</ele>
        <time>2022-08-06T08:40:30Z</time>
      </trkpt>
      <trkpt lat="48.52068" lon="2.00498">
        <ele>120.9</ele>
        <time>2022-08-06T08:40:32Z</time>
      </trkpt>
      <trkpt lat="48.52063" lon="2.00503">
        <ele>121.2</ele>
        <time>2022-08-06T08:40:34Z</time>
      </trkpt>
      <trkpt lat="48.5206" lon="2.0051">
        <ele>121.7</ele>
        <time>2022-08-06T08:40:36Z</time>
      </trkpt>
      <trkpt lat="48.52056" lon="2.00519">
        <ele>122.4</ele>
        <time>2022-08-06T08:40:40Z</time>
      </trkpt>
      <trkpt lat="48.52053" lon="2.00531">
        <ele>123.2</ele>
        <time>2022-08-06T08:40:44Z</time>
      </trkpt>
      <trkpt lat="48.52051" lon="2.00542">
        <ele>124.1</ele>
        <time>2022-08-06T08:40:48Z</time>
      </trkpt>
      <trkpt lat="48.52046" lon="2.0055">
        <ele>124.6</ele>
        <time>2022-08-06T08:40:52Z</time>
      </trkpt>
      <trkpt lat="48.52042" lon="2.00554">
        <ele>124.9</ele>
        <time>2022-08-06T08:40:56Z</time>
      </trkpt>
      <trkpt lat="48.52035" lon="2.00551">
        <ele>124.6</ele>
        <time>2022-08-06T08:41:00Z</time>
      </trkpt>
      <trkpt lat="48.52031" lon="2.0055">
        <ele>124.6</ele>
        <time>2022-08-06T08:41:02Z</time>
      </trkpt>
      <trkpt lat="48.52026" lon="2.00545">
        <ele>124.3</ele>
        <time>2022-08-06T08:41:04Z</time>
      </trkpt>
      <trkpt lat="48.52021" lon="2.00541">
        <ele>123.9</ele>
        <time>2022-08-06T08:41:06Z</time>
      </trkpt>
      <trkpt lat="48.52015" lon="2.00538">
        <ele>123.7</ele>
        <time>2022-08-06T08:41:08Z</time>
      </trkpt>
      <trkpt lat="48.52006" lon="2.00532">
        <ele>123.3</ele>
        <time>2022-08-06T08:41:10Z</time>
      </trkpt>
      <trkpt lat="48.51998" lon="2.00528">
        <ele>123</ele>
        <time>2022-08-06T08:41:12Z</time>
      </trkpt>
      <trkpt lat="48.51987" lon="2.00527">
        <ele>122.9</ele>
        <time>2022-08-06T08:41:14Z</time>
      </trkpt>
      <trkpt lat="48.51977" lon="2.00522">
        <ele>122.6</ele>
        <time>2022-08-06T08:41:16Z</time>
      </trkpt>
      <trkpt lat="48.51965" lon="2.00517">
        <ele>122</ele>
        <time>2022-08-06T08:41:18Z</time>
      </trkpt>
      <trkpt lat="48.51953" lon="2.00514">
        <ele>121.3</ele>
        <time>2022-08-06T08:41:20Z</time>
      </trkpt>
      <trkpt lat="48.51942" lon="2.00513">
        <ele>120.9</ele>
        <time>2022-08-06T08:41:22Z</time>
      </trkpt>
      <trkpt lat="48.51931" lon="2.00511">
        <ele>120.8</ele>
        <time>2022-08-06T08:41:24Z</time>
      </trkpt>
      <trkpt lat="48.5192" lon="2.00512">
        <ele>120.8</ele>
        <time>2022-08-06T08:41:26Z</time>
      </trkpt>
      <trkpt lat="48.51909" lon="2.00514">
        <ele>120.6</ele>
        <time>2022-08-06T08:41:28Z</time>
      </trkpt>
      <trkpt lat="48.51899" lon="2.00521">
        <ele>120.4</ele>
        <time>2022-08-06T08:41:30Z</time>
      </trkpt>
      <trkpt lat="48.51891" lon="2.00525">
        <ele>120</ele>
        <time>2022-08-06T08:41:32Z</time>
      </trkpt>
      <trkpt lat="48.51881" lon="2.00528">
        <ele>119.5</ele>
        <time>2022-08-06T08:41:34Z</time>
      </trkpt>
      <trkpt lat="48.51872" lon="2.00533">
        <ele>118.9</ele>
        <time>2022-08-06T08:41:36Z</time>
      </trkpt>
      <trkpt lat="48.5186" lon="2.00538">
        <ele>118.2</ele>
        <time>2022-08-06T08:41:38Z</time>
      </trkpt>
      <trkpt lat="48.51848" lon="2.00543">
        <ele>117.4</ele>
        <time>2022-08-06T08:41:40Z</time>
      </trkpt>
      <trkpt lat="48.51837" lon="2.00553">
        <ele>117</ele>
        <time>2022-08-06T08:41:42Z</time>
      </trkpt>
      <trkpt lat="48.51825" lon="2.00561">
        <ele>116.4</ele>
        <time>2022-08-06T08:41:44Z</time>
      </trkpt>
      <trkpt lat="48.51815" lon="2.0057">
        <ele>115.9</ele>
        <time>2022-08-06T08:41:46Z</time>
      </trkpt>
      <trkpt lat="48.51808" lon="2.00576">
        <ele>115.7</ele>
        <time>2022-08-06T08:41:48Z</time>
      </trkpt>
      <trkpt lat="48.51804" lon="2.00581">
        <ele>115.6</ele>
        <time>2022-08-06T08:41:50Z</time>
      </trkpt>
      <trkpt lat="48.51792" lon="2.00586">
        <ele>114.7</ele>
        <time>2022-08-06T08:41:54Z</time>
      </trkpt>
      <trkpt lat="48.5178" lon="2.00585">
        <ele>113.4</ele>
        <time>2022-08-06T08:41:56Z</time>
      </trkpt>
      <trkpt lat="48.51766" lon="2.00581">
        <ele>111.6</ele>
        <time>2022-08-06T08:41:58Z</time>
      </trkpt>
      <trkpt lat="48.51752" lon="2.00575">
        <ele>109.6</ele>
        <time>2022-08-06T08:42:00Z</time>
      </trkpt>
      <trkpt lat="48.51733" lon="2.00572">
        <ele>107.6</ele>
        <time>2022-08-06T08:42:02Z</time>
      </trkpt>
      <trkpt lat="48.51717" lon="2.00565">
        <ele>106</ele>
        <time>2022-08-06T08:42:04Z</time>
      </trkpt>
      <trkpt lat="48.51704" lon="2.00558">
        <ele>104.8</ele>
        <time>2022-08-06T08:42:06Z</time>
      </trkpt>
      <trkpt lat="48.51698" lon="2.00553">
        <ele>104.2</ele>
        <time>2022-08-06T08:42:08Z</time>
      </trkpt>
      <trkpt lat="48.51692" lon="2.00552">
        <ele>103.7</ele>
        <time>2022-08-06T08:42:10Z</time>
      </trkpt>
      <trkpt lat="48.51686" lon="2.0055">
        <ele>103.3</ele>
        <time>2022-08-06T08:42:12Z</time>
      </trkpt>
      <trkpt lat="48.51679" lon="2.00548">
        <ele>102.7</ele>
        <time>2022-08-06T08:42:14Z</time>
      </trkpt>
      <trkpt lat="48.51672" lon="2.00546">
        <ele>102.3</ele>
        <time>2022-08-06T08:42:16Z</time>
      </trkpt>
      <trkpt lat="48.51664" lon="2.00545">
        <ele>101.9</ele>
        <time>2022-08-06T08:42:18Z</time>
      </trkpt>
      <trkpt lat="48.51657" lon="2.00546">
        <ele>101.6</ele>
        <time>2022-08-06T08:42:22Z</time>
      </trkpt>
      <trkpt lat="48.51651" lon="2.0055">
        <ele>101.4</ele>
        <time>2022-08-06T08:42:26Z</time>
      </trkpt>
      <trkpt lat="48.51647" lon="2.00554">
        <ele>101.3</ele>
        <time>2022-08-06T08:42:28Z</time>
      </trkpt>
      <trkpt lat="48.51642" lon="2.00563">
        <ele>101.7</ele>
        <time>2022-08-06T08:42:32Z</time>
      </trkpt>
      <trkpt lat="48.51639" lon="2.00569">
        <ele>102</ele>
        <time>2022-08-06T08:42:34Z</time>
      </trkpt>
      <trkpt lat="48.51635" lon="2.00577">
        <ele>102.4</ele>
        <time>2022-08-06T08:42:36Z</time>
      </trkpt>
      <trkpt lat="48.51631" lon="2.00583">
        <ele>102.7</ele>
        <time>2022-08-06T08:42:38Z</time>
      </trkpt>
      <trkpt lat="48.51628" lon="2.0059">
        <ele>103</ele>
        <time>2022-08-06T08:42:40Z</time>
      </trkpt>
      <trkpt lat="48.51625" lon="2.00598">
        <ele>103.3</ele>
        <time>2022-08-06T08:42:42Z</time>
      </trkpt>
      <trkpt lat="48.5162" lon="2.00605">
        <ele>103.6</ele>
        <time>2022-08-06T08:42:44Z</time>
      </trkpt>
      <trkpt lat="48.51614" lon="2.00613">
        <ele>104.1</ele>
        <time>2022-08-06T08:42:46Z</time>
      </trkpt>
      <trkpt lat="48.5161" lon="2.00618">
        <ele>104.2</ele>
        <time>2022-08-06T08:42:48Z</time>
      </trkpt>
      <trkpt lat="48.51606" lon="2.00626">
        <ele>104.2</ele>
        <time>2022-08-06T08:42:50Z</time>
      </trkpt>
      <trkpt lat="48.51602" lon="2.00633">
        <ele>104.1</ele>
        <time>2022-08-06T08:42:52Z</time>
      </trkpt>
      <trkpt lat="48.51597" lon="2.00641">
        <ele>104</ele>
        <time>2022-08-06T08:42:54Z</time>
      </trkpt>
      <trkpt lat="48.51593" lon="2.00648">
        <ele>103.9</ele>
        <time>2022-08-06T08:42:56Z</time>
      </trkpt>
      <trkpt lat="48.51589" lon="2.00654">
        <ele>103.8</ele>
        <time>2022-08-06T08:42:58Z</time>
      </trkpt>
      <trkpt lat="48.51583" lon="2.00663">
        <ele>103.9</ele>
        <time>2022-08-06T08:43:00Z</time>
      </trkpt>
      <trkpt lat="48.51578" lon="2.00671">
        <ele>103.5</ele>
        <time>2022-08-06T08:43:02Z</time>
      </trkpt>
      <trkpt lat="48.51573" lon="2.00682">
        <ele>102.7</ele>
        <time>2022-08-06T08:43:04Z</time>
      </trkpt>
      <trkpt lat="48.51566" lon="2.00695">
        <ele>101.8</ele>
        <time>2022-08-06T08:43:06Z</time>
      </trkpt>
      <trkpt lat="48.5156" lon="2.00709">
        <ele>101.3</ele>
        <time>2022-08-06T08:43:08Z</time>
      </trkpt>
      <trkpt lat="48.51554" lon="2.00724">
        <ele>100.9</ele>
        <time>2022-08-06T08:43:10Z</time>
      </trkpt>
      <trkpt lat="48.51545" lon="2.00738">
        <ele>100.1</ele>
        <time>2022-08-06T08:43:12Z</time>
      </trkpt>
      <trkpt lat="48.51539" lon="2.00753">
        <ele>99.4</ele>
        <time>2022-08-06T08:43:14Z</time>
      </trkpt>
      <trkpt lat="48.51534" lon="2.00767">
        <ele>99.2</ele>
        <time>2022-08-06T08:43:16Z</time>
      </trkpt>
      <trkpt lat="48.5153" lon="2.00782">
        <ele>99.1</ele>
        <time>2022-08-06T08:43:18Z</time>
      </trkpt>
      <trkpt lat="48.51522" lon="2.00794">
        <ele>99.1</ele>
        <time>2022-08-06T08:43:20Z</time>
      </trkpt>
      <trkpt lat="48.51516" lon="2.00807">
        <ele>99.4</ele>
        <time>2022-08-06T08:43:22Z</time>
      </trkpt>
      <trkpt lat="48.51509" lon="2.0082">
        <ele>99.7</ele>
        <time>2022-08-06T08:43:24Z</time>
      </trkpt>
      <trkpt lat="48.51505" lon="2.00832">
        <ele>99.8</ele>
        <time>2022-08-06T08:43:26Z</time>
      </trkpt>
      <trkpt lat="48.51499" lon="2.00842">
        <ele>100</ele>
        <time>2022-08-06T08:43:28Z</time>
      </trkpt>
      <trkpt lat="48.51494" lon="2.00853">
        <ele>100.4</ele>
        <time>2022-08-06T08:43:30Z</time>
      </trkpt>
      <trkpt lat="48.51491" lon="2.00861">
        <ele>100.6</ele>
        <time>2022-08-06T08:43:32Z</time>
      </trkpt>
      <trkpt lat="48.51485" lon="2.00869">
        <ele>101.2</ele>
        <time>2022-08-06T08:43:34Z</time>
      </trkpt>
      <trkpt lat="48.51481" lon="2.00879">
        <ele>101.6</ele>
        <time>2022-08-06T08:43:36Z</time>
      </trkpt>
      <trkpt lat="48.51478" lon="2.0089">
        <ele>101.8</ele>
        <time>2022-08-06T08:43:38Z</time>
      </trkpt>
      <trkpt lat="48.51473" lon="2.00898">
        <ele>102.3</ele>
        <time>2022-08-06T08:43:40Z</time>
      </trkpt>
      <trkpt lat="48.51469" lon="2.00907">
        <ele>102.8</ele>
        <time>2022-08-06T08:43:42Z</time>
      </trkpt>
      <trkpt lat="48.51465" lon="2.0092">
        <ele>103.2</ele>
        <time>2022-08-06T08:43:44Z</time>
      </trkpt>
      <trkpt lat="48.51463" lon="2.00932">
        <ele>103.3</ele>
        <time>2022-08-06T08:43:46Z</time>
      </trkpt>
      <trkpt lat="48.5146" lon="2.00943">
        <ele>103.4</ele>
        <time>2022-08-06T08:43:48Z</time>
      </trkpt>
      <trkpt lat="48.51456" lon="2.00951">
        <ele>103.7</ele>
        <time>2022-08-06T08:43:50Z</time>
      </trkpt>
      <trkpt lat="48.51447" lon="2.0096">
        <ele>104</ele>
        <time>2022-08-06T08:43:54Z</time>
      </trkpt>
      <trkpt lat="48.51441" lon="2.00962">
        <ele>104</ele>
        <time>2022-08-06T08:43:56Z</time>
      </trkpt>
      <trkpt lat="48.51434" lon="2.00963">
        <ele>104</ele>
        <time>2022-08-06T08:43:58Z</time>
      </trkpt>
      <trkpt lat="48.51425" lon="2.00966">
        <ele>104</ele>
        <time>2022-08-06T08:44:00Z</time>
      </trkpt>
      <trkpt lat="48.51416" lon="2.00969">
        <ele>104</ele>
        <time>2022-08-06T08:44:02Z</time>
      </trkpt>
      <trkpt lat="48.51411" lon="2.00972">
        <ele>104.2</ele>
        <time>2022-08-06T08:44:04Z</time>
      </trkpt>
      <trkpt lat="48.51403" lon="2.00977">
        <ele>104.6</ele>
        <time>2022-08-06T08:44:06Z</time>
      </trkpt>
      <trkpt lat="48.51399" lon="2.00984">
        <ele>104.8</ele>
        <time>2022-08-06T08:44:08Z</time>
      </trkpt>
      <trkpt lat="48.51393" lon="2.0099">
        <ele>104.9</ele>
        <time>2022-08-06T08:44:10Z</time>
      </trkpt>
      <trkpt lat="48.51384" lon="2.00996">
        <ele>105.2</ele>
        <time>2022-08-06T08:44:12Z</time>
      </trkpt>
      <trkpt lat="48.51382" lon="2.01002">
        <ele>105.3</ele>
        <time>2022-08-06T08:44:14Z</time>
      </trkpt>
      <trkpt lat="48.51373" lon="2.01008">
        <ele>105.7</ele>
        <time>2022-08-06T08:44:18Z</time>
      </trkpt>
      <trkpt lat="48.51368" lon="2.01013">
        <ele>105.9</ele>
        <time>2022-08-06T08:44:20Z</time>
      </trkpt>
      <trkpt lat="48.51364" lon="2.01018">
        <ele>106</ele>
        <time>2022-08-06T08:44:22Z</time>
      </trkpt>
      <trkpt lat="48.51357" lon="2.01019">
        <ele>106.2</ele>
        <time>2022-08-06T08:44:24Z</time>
      </trkpt>
      <trkpt lat="48.51352" lon="2.01021">
        <ele>106.4</ele>
        <time>2022-08-06T08:44:26Z</time>
      </trkpt>
      <trkpt lat="48.51346" lon="2.01024">
        <ele>106.6</ele>
        <time>2022-08-06T08:44:30Z</time>
      </trkpt>
      <trkpt lat="48.51343" lon="2.01036">
        <ele>106.8</ele>
        <time>2022-08-06T08:44:34Z</time>
      </trkpt>
      <trkpt lat="48.51342" lon="2.01046">
        <ele>107.2</ele>
        <time>2022-08-06T08:44:36Z</time>
      </trkpt>
      <trkpt lat="48.51336" lon="2.01058">
        <ele>107.8</ele>
        <time>2022-08-06T08:44:38Z</time>
      </trkpt>
      <trkpt lat="48.51334" lon="2.01069">
        <ele>108</ele>
        <time>2022-08-06T08:44:40Z</time>
      </trkpt>
      <trkpt lat="48.51329" lon="2.0108">
        <ele>108.4</ele>
        <time>2022-08-06T08:44:42Z</time>
      </trkpt>
      <trkpt lat="48.5133" lon="2.01091">
        <ele>108.5</ele>
        <time>2022-08-06T08:44:44Z</time>
      </trkpt>
      <trkpt lat="48.51329" lon="2.01101">
        <ele>108.9</ele>
        <time>2022-08-06T08:44:46Z</time>
      </trkpt>
      <trkpt lat="48.51328" lon="2.01113">
        <ele>109.2</ele>
        <time>2022-08-06T08:44:48Z</time>
      </trkpt>
      <trkpt lat="48.51328" lon="2.01121">
        <ele>109.2</ele>
        <time>2022-08-06T08:44:50Z</time>
      </trkpt>
      <trkpt lat="48.51323" lon="2.01129">
        <ele>109.4</ele>
        <time>2022-08-06T08:44:52Z</time>
      </trkpt>
      <trkpt lat="48.51316" lon="2.0114">
        <ele>109.7</ele>
        <time>2022-08-06T08:44:56Z</time>
      </trkpt>
      <trkpt lat="48.51312" lon="2.01145">
        <ele>110</ele>
        <time>2022-08-06T08:44:58Z</time>
      </trkpt>
      <trkpt lat="48.5131" lon="2.01151">
        <ele>110.3</ele>
        <time>2022-08-06T08:45:00Z</time>
      </trkpt>
      <trkpt lat="48.51309" lon="2.01158">
        <ele>110.6</ele>
        <time>2022-08-06T08:45:02Z</time>
      </trkpt>
      <trkpt lat="48.51307" lon="2.01165">
        <ele>110.9</ele>
        <time>2022-08-06T08:45:04Z</time>
      </trkpt>
      <trkpt lat="48.51306" lon="2.01173">
        <ele>111.4</ele>
        <time>2022-08-06T08:45:06Z</time>
      </trkpt>
      <trkpt lat="48.51303" lon="2.01179">
        <ele>112.1</ele>
        <time>2022-08-06T08:45:08Z</time>
      </trkpt>
      <trkpt lat="48.51299" lon="2.01189">
        <ele>113.1</ele>
        <time>2022-08-06T08:45:12Z</time>
      </trkpt>
      <trkpt lat="48.51296" lon="2.012">
        <ele>114</ele>
        <time>2022-08-06T08:45:16Z</time>
      </trkpt>
      <trkpt lat="48.51292" lon="2.0121">
        <ele>115.1</ele>
        <time>2022-08-06T08:45:20Z</time>
      </trkpt>
      <trkpt lat="48.51286" lon="2.01219">
        <ele>116.1</ele>
        <time>2022-08-06T08:45:24Z</time>
      </trkpt>
      <trkpt lat="48.51281" lon="2.01229">
        <ele>117</ele>
        <time>2022-08-06T08:45:28Z</time>
      </trkpt>
      <trkpt lat="48.51276" lon="2.01239">
        <ele>117.8</ele>
        <time>2022-08-06T08:45:32Z</time>
      </trkpt>
      <trkpt lat="48.51272" lon="2.01248">
        <ele>118.6</ele>
        <time>2022-08-06T08:45:36Z</time>
      </trkpt>
      <trkpt lat="48.51269" lon="2.0126">
        <ele>119.5</ele>
        <time>2022-08-06T08:45:40Z</time>
      </trkpt>
      <trkpt lat="48.51264" lon="2.0127">
        <ele>120.6</ele>
        <time>2022-08-06T08:45:44Z</time>
      </trkpt>
      <trkpt lat="48.51261" lon="2.01275">
        <ele>121.1</ele>
        <time>2022-08-06T08:45:46Z</time>
      </trkpt>
      <trkpt lat="48.51258" lon="2.01286">
        <ele>121.5</ele>
        <time>2022-08-06T08:45:50Z</time>
      </trkpt>
      <trkpt lat="48.51253" lon="2.01296">
        <ele>121.8</ele>
        <time>2022-08-06T08:45:54Z</time>
      </trkpt>
      <trkpt lat="48.5125" lon="2.01305">
        <ele>122</ele>
        <time>2022-08-06T08:45:58Z</time>
      </trkpt>
      <trkpt lat="48.51247" lon="2.01311">
        <ele>122.1</ele>
        <time>2022-08-06T08:46:00Z</time>
      </trkpt>
      <trkpt lat="48.51242" lon="2.01319">
        <ele>122.2</ele>
        <time>2022-08-06T08:46:02Z</time>
      </trkpt>
      <trkpt lat="48.51238" lon="2.01329">
        <ele>122.1</ele>
        <time>2022-08-06T08:46:04Z</time>
      </trkpt>
      <trkpt lat="48.51237" lon="2.01337">
        <ele>121.6</ele>
        <time>2022-08-06T08:46:06Z</time>
      </trkpt>
      <trkpt lat="48.51233" lon="2.01349">
        <ele>121.1</ele>
        <time>2022-08-06T08:46:08Z</time>
      </trkpt>
      <trkpt lat="48.51229" lon="2.0136">
        <ele>120.6</ele>
        <time>2022-08-06T08:46:10Z</time>
      </trkpt>
      <trkpt lat="48.51225" lon="2.0137">
        <ele>119.9</ele>
        <time>2022-08-06T08:46:12Z</time>
      </trkpt>
      <trkpt lat="48.5122" lon="2.01383">
        <ele>119</ele>
        <time>2022-08-06T08:46:14Z</time>
      </trkpt>
      <trkpt lat="48.51213" lon="2.01396">
        <ele>119.2</ele>
        <time>2022-08-06T08:46:16Z</time>
      </trkpt>
      <trkpt lat="48.51208" lon="2.01406">
        <ele>119.3</ele>
        <time>2022-08-06T08:46:18Z</time>
      </trkpt>
      <trkpt lat="48.51202" lon="2.01419">
        <ele>119</ele>
        <time>2022-08-06T08:46:20Z</time>
      </trkpt>
      <trkpt lat="48.51199" lon="2.01432">
        <ele>118.5</ele>
        <time>2022-08-06T08:46:22Z</time>
      </trkpt>
      <trkpt lat="48.51194" lon="2.01438">
        <ele>118.5</ele>
        <time>2022-08-06T08:46:24Z</time>
      </trkpt>
      <trkpt lat="48.5119" lon="2.01447">
        <ele>119.1</ele>
        <time>2022-08-06T08:46:26Z</time>
      </trkpt>
      <trkpt lat="48.51184" lon="2.01457">
        <ele>120.3</ele>
        <time>2022-08-06T08:46:28Z</time>
      </trkpt>
      <trkpt lat="48.5118" lon="2.01469">
        <ele>121.1</ele>
        <time>2022-08-06T08:46:30Z</time>
      </trkpt>
      <trkpt lat="48.51174" lon="2.01478">
        <ele>122.1</ele>
        <time>2022-08-06T08:46:32Z</time>
      </trkpt>
      <trkpt lat="48.51172" lon="2.01487">
        <ele>122.5</ele>
        <time>2022-08-06T08:46:34Z</time>
      </trkpt>
      <trkpt lat="48.5117" lon="2.01494">
        <ele>122.7</ele>
        <time>2022-08-06T08:46:36Z</time>
      </trkpt>
      <trkpt lat="48.51165" lon="2.01501">
        <ele>123.4</ele>
        <time>2022-08-06T08:46:38Z</time>
      </trkpt>
      <trkpt lat="48.51163" lon="2.01509">
        <ele>124.2</ele>
        <time>2022-08-06T08:46:40Z</time>
      </trkpt>
      <trkpt lat="48.51161" lon="2.01519">
        <ele>125</ele>
        <time>2022-08-06T08:46:42Z</time>
      </trkpt>
      <trkpt lat="48.51159" lon="2.01528">
        <ele>125.5</ele>
        <time>2022-08-06T08:46:44Z</time>
      </trkpt>
      <trkpt lat="48.51159" lon="2.01536">
        <ele>125.5</ele>
        <time>2022-08-06T08:46:46Z</time>
      </trkpt>
      <trkpt lat="48.51155" lon="2.01547">
        <ele>125.6</ele>
        <time>2022-08-06T08:46:48Z</time>
      </trkpt>
      <trkpt lat="48.51151" lon="2.01552">
        <ele>125.6</ele>
        <time>2022-08-06T08:46:50Z</time>
      </trkpt>
      <trkpt lat="48.51145" lon="2.01559">
        <ele>125.7</ele>
        <time>2022-08-06T08:46:52Z</time>
      </trkpt>
      <trkpt lat="48.51141" lon="2.01566">
        <ele>125.6</ele>
        <time>2022-08-06T08:46:54Z</time>
      </trkpt>
      <trkpt lat="48.51137" lon="2.01574">
        <ele>125.4</ele>
        <time>2022-08-06T08:46:56Z</time>
      </trkpt>
      <trkpt lat="48.51132" lon="2.01586">
        <ele>125</ele>
        <time>2022-08-06T08:46:58Z</time>
      </trkpt>
      <trkpt lat="48.51124" lon="2.01599">
        <ele>124.4</ele>
        <time>2022-08-06T08:47:00Z</time>
      </trkpt>
      <trkpt lat="48.51113" lon="2.01616">
        <ele>123.4</ele>
        <time>2022-08-06T08:47:02Z</time>
      </trkpt>
      <trkpt lat="48.51103" lon="2.01628">
        <ele>121.7</ele>
        <time>2022-08-06T08:47:04Z</time>
      </trkpt>
      <trkpt lat="48.5109" lon="2.01641">
        <ele>120.1</ele>
        <time>2022-08-06T08:47:06Z</time>
      </trkpt>
      <trkpt lat="48.51078" lon="2.01648">
        <ele>119.7</ele>
        <time>2022-08-06T08:47:08Z</time>
      </trkpt>
      <trkpt lat="48.51065" lon="2.01655">
        <ele>119.8</ele>
        <time>2022-08-06T08:47:10Z</time>
      </trkpt>
      <trkpt lat="48.51054" lon="2.01662">
        <ele>120.1</ele>
        <time>2022-08-06T08:47:12Z</time>
      </trkpt>
      <trkpt lat="48.51046" lon="2.0167">
        <ele>120.3</ele>
        <time>2022-08-06T08:47:14Z</time>
      </trkpt>
      <trkpt lat="48.51042" lon="2.01676">
        <ele>120.3</ele>
        <time>2022-08-06T08:47:16Z</time>
      </trkpt>
      <trkpt lat="48.5104" lon="2.01687">
        <ele>120.1</ele>
        <time>2022-08-06T08:47:20Z</time>
      </trkpt>
      <trkpt lat="48.51037" lon="2.01696">
        <ele>120</ele>
        <time>2022-08-06T08:47:22Z</time>
      </trkpt>
      <trkpt lat="48.51034" lon="2.01706">
        <ele>119.9</ele>
        <time>2022-08-06T08:47:24Z</time>
      </trkpt>
      <trkpt lat="48.51028" lon="2.01719">
        <ele>120</ele>
        <time>2022-08-06T08:47:26Z</time>
      </trkpt>
      <trkpt lat="48.51021" lon="2.01735">
        <ele>118.9</ele>
        <time>2022-08-06T08:47:28Z</time>
      </trkpt>
      <trkpt lat="48.5102" lon="2.01746">
        <ele>118</ele>
        <time>2022-08-06T08:47:30Z</time>
      </trkpt>
      <trkpt lat="48.51018" lon="2.01754">
        <ele>117.4</ele>
        <time>2022-08-06T08:47:32Z</time>
      </trkpt>
      <trkpt lat="48.51012" lon="2.01759">
        <ele>117</ele>
        <time>2022-08-06T08:47:34Z</time>
      </trkpt>
      <trkpt lat="48.51006" lon="2.01759">
        <ele>116.9</ele>
        <time>2022-08-06T08:47:36Z</time>
      </trkpt>
      <trkpt lat="48.51" lon="2.01762">
        <ele>116.6</ele>
        <time>2022-08-06T08:47:40Z</time>
      </trkpt>
      <trkpt lat="48.50996" lon="2.01766">
        <ele>116.2</ele>
        <time>2022-08-06T08:47:44Z</time>
      </trkpt>
      <trkpt lat="48.50989" lon="2.01767">
        <ele>115.8</ele>
        <time>2022-08-06T08:47:48Z</time>
      </trkpt>
      <trkpt lat="48.50978" lon="2.01771">
        <ele>114.9</ele>
        <time>2022-08-06T08:47:52Z</time>
      </trkpt>
      <trkpt lat="48.50972" lon="2.01774">
        <ele>114.3</ele>
        <time>2022-08-06T08:47:54Z</time>
      </trkpt>
      <trkpt lat="48.50965" lon="2.01776">
        <ele>113.9</ele>
        <time>2022-08-06T08:47:56Z</time>
      </trkpt>
      <trkpt lat="48.5096" lon="2.01779">
        <ele>113.5</ele>
        <time>2022-08-06T08:47:58Z</time>
      </trkpt>
      <trkpt lat="48.50954" lon="2.01783">
        <ele>113.2</ele>
        <time>2022-08-06T08:48:00Z</time>
      </trkpt>
      <trkpt lat="48.50944" lon="2.01784">
        <ele>112.8</ele>
        <time>2022-08-06T08:48:02Z</time>
      </trkpt>
      <trkpt lat="48.50933" lon="2.01784">
        <ele>112.9</ele>
        <time>2022-08-06T08:48:04Z</time>
      </trkpt>
      <trkpt lat="48.50927" lon="2.01785">
        <ele>112.9</ele>
        <time>2022-08-06T08:48:06Z</time>
      </trkpt>
      <trkpt lat="48.50922" lon="2.01785">
        <ele>112.9</ele>
        <time>2022-08-06T08:48:08Z</time>
      </trkpt>
      <trkpt lat="48.50917" lon="2.01784">
        <ele>113</ele>
        <time>2022-08-06T08:48:10Z</time>
      </trkpt>
      <trkpt lat="48.5091" lon="2.01779">
        <ele>113.2</ele>
        <time>2022-08-06T08:48:14Z</time>
      </trkpt>
      <trkpt lat="48.50906" lon="2.01773">
        <ele>113.5</ele>
        <time>2022-08-06T08:48:16Z</time>
      </trkpt>
      <trkpt lat="48.50902" lon="2.01767">
        <ele>113.7</ele>
        <time>2022-08-06T08:48:18Z</time>
      </trkpt>
      <trkpt lat="48.50897" lon="2.0176">
        <ele>113.9</ele>
        <time>2022-08-06T08:48:20Z</time>
      </trkpt>
      <trkpt lat="48.50894" lon="2.01754">
        <ele>114</ele>
        <time>2022-08-06T08:48:22Z</time>
      </trkpt>
      <trkpt lat="48.50888" lon="2.01748">
        <ele>114.1</ele>
        <time>2022-08-06T08:48:24Z</time>
      </trkpt>
      <trkpt lat="48.50884" lon="2.01742">
        <ele>114.4</ele>
        <time>2022-08-06T08:48:26Z</time>
      </trkpt>
      <trkpt lat="48.50879" lon="2.01736">
        <ele>114.7</ele>
        <time>2022-08-06T08:48:28Z</time>
      </trkpt>
      <trkpt lat="48.50873" lon="2.01733">
        <ele>114.8</ele>
        <time>2022-08-06T08:48:30Z</time>
      </trkpt>
      <trkpt lat="48.50868" lon="2.01729">
        <ele>114.9</ele>
        <time>2022-08-06T08:48:32Z</time>
      </trkpt>
      <trkpt lat="48.50861" lon="2.01726">
        <ele>115</ele>
        <time>2022-08-06T08:48:34Z</time>
      </trkpt>
      <trkpt lat="48.50856" lon="2.01725">
        <ele>115</ele>
        <time>2022-08-06T08:48:36Z</time>
      </trkpt>
      <trkpt lat="48.50851" lon="2.01723">
        <ele>115</ele>
        <time>2022-08-06T08:48:38Z</time>
      </trkpt>
      <trkpt lat="48.50843" lon="2.01722">
        <ele>115</ele>
        <time>2022-08-06T08:48:42Z</time>
      </trkpt>
      <trkpt lat="48.50837" lon="2.01727">
        <ele>115.3</ele>
        <time>2022-08-06T08:48:46Z</time>
      </trkpt>
      <trkpt lat="48.50831" lon="2.01728">
        <ele>115.5</ele>
        <time>2022-08-06T08:48:48Z</time>
      </trkpt>
      <trkpt lat="48.50825" lon="2.01729">
        <ele>115.8</ele>
        <time>2022-08-06T08:48:50Z</time>
      </trkpt>
      <trkpt lat="48.5082" lon="2.01732">
        <ele>116.2</ele>
        <time>2022-08-06T08:48:54Z</time>
      </trkpt>
      <trkpt lat="48.50814" lon="2.01738">
        <ele>116.9</ele>
        <time>2022-08-06T08:48:58Z</time>
      </trkpt>
      <trkpt lat="48.50809" lon="2.0174">
        <ele>117.2</ele>
        <time>2022-08-06T08:49:00Z</time>
      </trkpt>
      <trkpt lat="48.50803" lon="2.0174">
        <ele>117.3</ele>
        <time>2022-08-06T08:49:02Z</time>
      </trkpt>
      <trkpt lat="48.50797" lon="2.01741">
        <ele>117.5</ele>
        <time>2022-08-06T08:49:04Z</time>
      </trkpt>
      <trkpt lat="48.50793" lon="2.0174">
        <ele>117.6</ele>
        <time>2022-08-06T08:49:06Z</time>
      </trkpt>
      <trkpt lat="48.50787" lon="2.0174">
        <ele>117.7</ele>
        <time>2022-08-06T08:49:08Z</time>
      </trkpt>
      <trkpt lat="48.50777" lon="2.0174">
        <ele>117.9</ele>
        <time>2022-08-06T08:49:10Z</time>
      </trkpt>
      <trkpt lat="48.5077" lon="2.01743">
        <ele>118.3</ele>
        <time>2022-08-06T08:49:12Z</time>
      </trkpt>
      <trkpt lat="48.50763" lon="2.01748">
        <ele>118.9</ele>
        <time>2022-08-06T08:49:14Z</time>
      </trkpt>
      <trkpt lat="48.50756" lon="2.01751">
        <ele>119.1</ele>
        <time>2022-08-06T08:49:16Z</time>
      </trkpt>
      <trkpt lat="48.50747" lon="2.01752">
        <ele>119.4</ele>
        <time>2022-08-06T08:49:18Z</time>
      </trkpt>
      <trkpt lat="48.5074" lon="2.01754">
        <ele>120</ele>
        <time>2022-08-06T08:49:20Z</time>
      </trkpt>
      <trkpt lat="48.50733" lon="2.01757">
        <ele>120.6</ele>
        <time>2022-08-06T08:49:22Z</time>
      </trkpt>
      <trkpt lat="48.50726" lon="2.01757">
        <ele>120.8</ele>
        <time>2022-08-06T08:49:24Z</time>
      </trkpt>
      <trkpt lat="48.50722" lon="2.01752">
        <ele>120.4</ele>
        <time>2022-08-06T08:49:26Z</time>
      </trkpt>
      <trkpt lat="48.50715" lon="2.01749">
        <ele>120.7</ele>
        <time>2022-08-06T08:49:28Z</time>
      </trkpt>
      <trkpt lat="48.50709" lon="2.01743">
        <ele>120.9</ele>
        <time>2022-08-06T08:49:30Z</time>
      </trkpt>
      <trkpt lat="48.50702" lon="2.01738">
        <ele>121</ele>
        <time>2022-08-06T08:49:32Z</time>
      </trkpt>
      <trkpt lat="48.50697" lon="2.01737">
        <ele>121.4</ele>
        <time>2022-08-06T08:49:34Z</time>
      </trkpt>
      <trkpt lat="48.50692" lon="2.01734">
        <ele>121.4</ele>
        <time>2022-08-06T08:49:36Z</time>
      </trkpt>
      <trkpt lat="48.50687" lon="2.0173">
        <ele>121.3</ele>
        <time>2022-08-06T08:49:38Z</time>
      </trkpt>
      <trkpt lat="48.50681" lon="2.01728">
        <ele>121.2</ele>
        <time>2022-08-06T08:49:40Z</time>
      </trkpt>
      <trkpt lat="48.50675" lon="2.01726">
        <ele>121.2</ele>
        <time>2022-08-06T08:49:42Z</time>
      </trkpt>
      <trkpt lat="48.50669" lon="2.01724">
        <ele>121.1</ele>
        <time>2022-08-06T08:49:44Z</time>
      </trkpt>
      <trkpt lat="48.50663" lon="2.01723">
        <ele>121.2</ele>
        <time>2022-08-06T08:49:46Z</time>
      </trkpt>
      <trkpt lat="48.50657" lon="2.01725">
        <ele>121.8</ele>
        <time>2022-08-06T08:49:48Z</time>
      </trkpt>
      <trkpt lat="48.50649" lon="2.01728">
        <ele>122.6</ele>
        <time>2022-08-06T08:49:52Z</time>
      </trkpt>
      <trkpt lat="48.50641" lon="2.01732">
        <ele>123.7</ele>
        <time>2022-08-06T08:49:56Z</time>
      </trkpt>
      <trkpt lat="48.50635" lon="2.01733">
        <ele>123.8</ele>
        <time>2022-08-06T08:49:58Z</time>
      </trkpt>
      <trkpt lat="48.50627" lon="2.01734">
        <ele>123.5</ele>
        <time>2022-08-06T08:50:00Z</time>
      </trkpt>
      <trkpt lat="48.50618" lon="2.01735">
        <ele>123.1</ele>
        <time>2022-08-06T08:50:02Z</time>
      </trkpt>
      <trkpt lat="48.50608" lon="2.01734">
        <ele>122.7</ele>
        <time>2022-08-06T08:50:04Z</time>
      </trkpt>
      <trkpt lat="48.506" lon="2.01733">
        <ele>122.4</ele>
        <time>2022-08-06T08:50:06Z</time>
      </trkpt>
      <trkpt lat="48.50594" lon="2.01732">
        <ele>122.2</ele>
        <time>2022-08-06T08:50:08Z</time>
      </trkpt>
      <trkpt lat="48.50587" lon="2.01727">
        <ele>121.6</ele>
        <time>2022-08-06T08:50:10Z</time>
      </trkpt>
      <trkpt lat="48.50579" lon="2.01722">
        <ele>121.2</ele>
        <time>2022-08-06T08:50:12Z</time>
      </trkpt>
      <trkpt lat="48.50572" lon="2.01717">
        <ele>121.4</ele>
        <time>2022-08-06T08:50:14Z</time>
      </trkpt>
      <trkpt lat="48.50567" lon="2.01713">
        <ele>121.6</ele>
        <time>2022-08-06T08:50:16Z</time>
      </trkpt>
      <trkpt lat="48.50563" lon="2.01708">
        <ele>121.7</ele>
        <time>2022-08-06T08:50:18Z</time>
      </trkpt>
      <trkpt lat="48.50555" lon="2.017">
        <ele>122</ele>
        <time>2022-08-06T08:50:20Z</time>
      </trkpt>
      <trkpt lat="48.50545" lon="2.01691">
        <ele>122.7</ele>
        <time>2022-08-06T08:50:22Z</time>
      </trkpt>
      <trkpt lat="48.50538" lon="2.01683">
        <ele>123</ele>
        <time>2022-08-06T08:50:24Z</time>
      </trkpt>
      <trkpt lat="48.50531" lon="2.01679">
        <ele>123.3</ele>
        <time>2022-08-06T08:50:26Z</time>
      </trkpt>
      <trkpt lat="48.50524" lon="2.01679">
        <ele>124.1</ele>
        <time>2022-08-06T08:50:30Z</time>
      </trkpt>
      <trkpt lat="48.50519" lon="2.01678">
        <ele>124.8</ele>
        <time>2022-08-06T08:50:34Z</time>
      </trkpt>
      <trkpt lat="48.50515" lon="2.01674">
        <ele>125.3</ele>
        <time>2022-08-06T08:50:38Z</time>
      </trkpt>
      <trkpt lat="48.5051" lon="2.01669">
        <ele>125.7</ele>
        <time>2022-08-06T08:50:42Z</time>
      </trkpt>
      <trkpt lat="48.50505" lon="2.0166">
        <ele>126.1</ele>
        <time>2022-08-06T08:50:46Z</time>
      </trkpt>
      <trkpt lat="48.50502" lon="2.01652">
        <ele>126.3</ele>
        <time>2022-08-06T08:50:50Z</time>
      </trkpt>
      <trkpt lat="48.50497" lon="2.01646">
        <ele>126.7</ele>
        <time>2022-08-06T08:50:54Z</time>
      </trkpt>
      <trkpt lat="48.50493" lon="2.01639">
        <ele>126.8</ele>
        <time>2022-08-06T08:50:58Z</time>
      </trkpt>
      <trkpt lat="48.50488" lon="2.01637">
        <ele>127.2</ele>
        <time>2022-08-06T08:51:00Z</time>
      </trkpt>
      <trkpt lat="48.50482" lon="2.01635">
        <ele>127.6</ele>
        <time>2022-08-06T08:51:02Z</time>
      </trkpt>
      <trkpt lat="48.50475" lon="2.01631">
        <ele>127.9</ele>
        <time>2022-08-06T08:51:04Z</time>
      </trkpt>
      <trkpt lat="48.50467" lon="2.01626">
        <ele>128</ele>
        <time>2022-08-06T08:51:06Z</time>
      </trkpt>
      <trkpt lat="48.5046" lon="2.0162">
        <ele>127.9</ele>
        <time>2022-08-06T08:51:08Z</time>
      </trkpt>
      <trkpt lat="48.5045" lon="2.01613">
        <ele>127.8</ele>
        <time>2022-08-06T08:51:10Z</time>
      </trkpt>
      <trkpt lat="48.50444" lon="2.01607">
        <ele>127.8</ele>
        <time>2022-08-06T08:51:12Z</time>
      </trkpt>
      <trkpt lat="48.50436" lon="2.01599">
        <ele>127.9</ele>
        <time>2022-08-06T08:51:14Z</time>
      </trkpt>
      <trkpt lat="48.50432" lon="2.01593">
        <ele>127.8</ele>
        <time>2022-08-06T08:51:16Z</time>
      </trkpt>
      <trkpt lat="48.50426" lon="2.01588">
        <ele>127.8</ele>
        <time>2022-08-06T08:51:18Z</time>
      </trkpt>
      <trkpt lat="48.50421" lon="2.01581">
        <ele>127.6</ele>
        <time>2022-08-06T08:51:20Z</time>
      </trkpt>
      <trkpt lat="48.50412" lon="2.01573">
        <ele>128.2</ele>
        <time>2022-08-06T08:51:22Z</time>
      </trkpt>
      <trkpt lat="48.50405" lon="2.01566">
        <ele>128.6</ele>
        <time>2022-08-06T08:51:24Z</time>
      </trkpt>
      <trkpt lat="48.504" lon="2.01558">
        <ele>128.4</ele>
        <time>2022-08-06T08:51:26Z</time>
      </trkpt>
      <trkpt lat="48.50395" lon="2.01551">
        <ele>128.4</ele>
        <time>2022-08-06T08:51:28Z</time>
      </trkpt>
      <trkpt lat="48.5039" lon="2.01544">
        <ele>128.5</ele>
        <time>2022-08-06T08:51:30Z</time>
      </trkpt>
      <trkpt lat="48.50384" lon="2.0154">
        <ele>128.7</ele>
        <time>2022-08-06T08:51:32Z</time>
      </trkpt>
      <trkpt lat="48.50376" lon="2.01539">
        <ele>129</ele>
        <time>2022-08-06T08:51:34Z</time>
      </trkpt>
      <trkpt lat="48.50367" lon="2.01536">
        <ele>129.3</ele>
        <time>2022-08-06T08:51:36Z</time>
      </trkpt>
      <trkpt lat="48.50361" lon="2.01535">
        <ele>129.5</ele>
        <time>2022-08-06T08:51:38Z</time>
      </trkpt>
      <trkpt lat="48.50355" lon="2.01533">
        <ele>129.8</ele>
        <time>2022-08-06T08:51:40Z</time>
      </trkpt>
      <trkpt lat="48.50348" lon="2.01533">
        <ele>130.4</ele>
        <time>2022-08-06T08:51:42Z</time>
      </trkpt>
      <trkpt lat="48.50343" lon="2.01532">
        <ele>130.6</ele>
        <time>2022-08-06T08:51:44Z</time>
      </trkpt>
      <trkpt lat="48.50335" lon="2.01529">
        <ele>131</ele>
        <time>2022-08-06T08:51:48Z</time>
      </trkpt>
      <trkpt lat="48.50335" lon="2.01518">
        <ele>130.9</ele>
        <time>2022-08-06T08:51:52Z</time>
      </trkpt>
      <trkpt lat="48.50338" lon="2.01511">
        <ele>130.6</ele>
        <time>2022-08-06T08:51:54Z</time>
      </trkpt>
      <trkpt lat="48.50343" lon="2.01503">
        <ele>130.3</ele>
        <time>2022-08-06T08:51:56Z</time>
      </trkpt>
      <trkpt lat="48.50348" lon="2.01493">
        <ele>130</ele>
        <time>2022-08-06T08:51:58Z</time>
      </trkpt>
      <trkpt lat="48.50353" lon="2.01481">
        <ele>129.6</ele>
        <time>2022-08-06T08:52:00Z</time>
      </trkpt>
      <trkpt lat="48.5036" lon="2.01472">
        <ele>129.1</ele>
        <time>2022-08-06T08:52:02Z</time>
      </trkpt>
      <trkpt lat="48.50366" lon="2.01464">
        <ele>129.3</ele>
        <time>2022-08-06T08:52:04Z</time>
      </trkpt>
      <trkpt lat="48.50373" lon="2.01457">
        <ele>129.8</ele>
        <time>2022-08-06T08:52:06Z</time>
      </trkpt>
      <trkpt lat="48.50378" lon="2.01453">
        <ele>130.1</ele>
        <time>2022-08-06T08:52:08Z</time>
      </trkpt>
      <trkpt lat="48.50379" lon="2.01445">
        <ele>130.6</ele>
        <time>2022-08-06T08:52:10Z</time>
      </trkpt>
      <trkpt lat="48.50381" lon="2.01438">
        <ele>131.2</ele>
        <time>2022-08-06T08:52:12Z</time>
      </trkpt>
      <trkpt lat="48.50384" lon="2.01431">
        <ele>131.8</ele>
        <time>2022-08-06T08:52:14Z</time>
      </trkpt>
      <trkpt lat="48.50387" lon="2.01425">
        <ele>132.4</ele>
        <time>2022-08-06T08:52:16Z</time>
      </trkpt>
      <trkpt lat="48.5039" lon="2.01419">
        <ele>132.8</ele>
        <time>2022-08-06T08:52:18Z</time>
      </trkpt>
      <trkpt lat="48.50394" lon="2.01409">
        <ele>133.6</ele>
        <time>2022-08-06T08:52:22Z</time>
      </trkpt>
      <trkpt lat="48.504" lon="2.014">
        <ele>134.2</ele>
        <time>2022-08-06T08:52:26Z</time>
      </trkpt>
      <trkpt lat="48.50403" lon="2.01395">
        <ele>134.6</ele>
        <time>2022-08-06T08:52:28Z</time>
      </trkpt>
      <trkpt lat="48.50405" lon="2.01385">
        <ele>135.3</ele>
        <time>2022-08-06T08:52:32Z</time>
      </trkpt>
      <trkpt lat="48.5041" lon="2.01375">
        <ele>136.4</ele>
        <time>2022-08-06T08:52:36Z</time>
      </trkpt>
      <trkpt lat="48.50414" lon="2.0137">
        <ele>137</ele>
        <time>2022-08-06T08:52:38Z</time>
      </trkpt>
      <trkpt lat="48.50418" lon="2.01364">
        <ele>137.6</ele>
        <time>2022-08-06T08:52:40Z</time>
      </trkpt>
      <trkpt lat="48.50421" lon="2.01359">
        <ele>138.2</ele>
        <time>2022-08-06T08:52:42Z</time>
      </trkpt>
      <trkpt lat="48.50425" lon="2.01347">
        <ele>139.2</ele>
        <time>2022-08-06T08:52:46Z</time>
      </trkpt>
      <trkpt lat="48.50428" lon="2.01336">
        <ele>140.2</ele>
        <time>2022-08-06T08:52:50Z</time>
      </trkpt>
      <trkpt lat="48.50429" lon="2.01325">
        <ele>140.9</ele>
        <time>2022-08-06T08:52:54Z</time>
      </trkpt>
      <trkpt lat="48.50431" lon="2.01319">
        <ele>141.3</ele>
        <time>2022-08-06T08:52:56Z</time>
      </trkpt>
      <trkpt lat="48.50437" lon="2.01308">
        <ele>142.3</ele>
        <time>2022-08-06T08:53:00Z</time>
      </trkpt>
      <trkpt lat="48.5044" lon="2.01298">
        <ele>143</ele>
        <time>2022-08-06T08:53:04Z</time>
      </trkpt>
      <trkpt lat="48.50439" lon="2.01286">
        <ele>143.4</ele>
        <time>2022-08-06T08:53:08Z</time>
      </trkpt>
      <trkpt lat="48.50433" lon="2.01277">
        <ele>143.6</ele>
        <time>2022-08-06T08:53:12Z</time>
      </trkpt>
      <trkpt lat="48.50429" lon="2.0127">
        <ele>143.9</ele>
        <time>2022-08-06T08:53:16Z</time>
      </trkpt>
      <trkpt lat="48.50427" lon="2.0126">
        <ele>144.2</ele>
        <time>2022-08-06T08:53:20Z</time>
      </trkpt>
      <trkpt lat="48.50423" lon="2.0125">
        <ele>144.5</ele>
        <time>2022-08-06T08:53:24Z</time>
      </trkpt>
      <trkpt lat="48.50425" lon="2.01243">
        <ele>144.6</ele>
        <time>2022-08-06T08:53:26Z</time>
      </trkpt>
      <trkpt lat="48.50427" lon="2.01235">
        <ele>144.9</ele>
        <time>2022-08-06T08:53:28Z</time>
      </trkpt>
      <trkpt lat="48.5043" lon="2.01229">
        <ele>145.4</ele>
        <time>2022-08-06T08:53:30Z</time>
      </trkpt>
      <trkpt lat="48.50434" lon="2.01222">
        <ele>145.8</ele>
        <time>2022-08-06T08:53:32Z</time>
      </trkpt>
      <trkpt lat="48.50437" lon="2.01214">
        <ele>146.3</ele>
        <time>2022-08-06T08:53:34Z</time>
      </trkpt>
      <trkpt lat="48.50439" lon="2.01205">
        <ele>146.5</ele>
        <time>2022-08-06T08:53:36Z</time>
      </trkpt>
      <trkpt lat="48.50441" lon="2.01198">
        <ele>146.7</ele>
        <time>2022-08-06T08:53:38Z</time>
      </trkpt>
      <trkpt lat="48.50443" lon="2.01191">
        <ele>147</ele>
        <time>2022-08-06T08:53:40Z</time>
      </trkpt>
      <trkpt lat="48.50445" lon="2.01182">
        <ele>147.5</ele>
        <time>2022-08-06T08:53:42Z</time>
      </trkpt>
      <trkpt lat="48.50446" lon="2.01175">
        <ele>147.8</ele>
        <time>2022-08-06T08:53:44Z</time>
      </trkpt>
      <trkpt lat="48.50446" lon="2.01168">
        <ele>148.1</ele>
        <time>2022-08-06T08:53:46Z</time>
      </trkpt>
      <trkpt lat="48.50447" lon="2.01158">
        <ele>148.5</ele>
        <time>2022-08-06T08:53:48Z</time>
      </trkpt>
      <trkpt lat="48.50449" lon="2.0115">
        <ele>148.8</ele>
        <time>2022-08-06T08:53:50Z</time>
      </trkpt>
      <trkpt lat="48.50451" lon="2.01142">
        <ele>149.2</ele>
        <time>2022-08-06T08:53:52Z</time>
      </trkpt>
      <trkpt lat="48.50452" lon="2.01134">
        <ele>149.5</ele>
        <time>2022-08-06T08:53:54Z</time>
      </trkpt>
      <trkpt lat="48.50454" lon="2.01126">
        <ele>149.8</ele>
        <time>2022-08-06T08:53:56Z</time>
      </trkpt>
      <trkpt lat="48.50455" lon="2.01117">
        <ele>150.2</ele>
        <time>2022-08-06T08:53:58Z</time>
      </trkpt>
      <trkpt lat="48.50458" lon="2.01109">
        <ele>150.5</ele>
        <time>2022-08-06T08:54:00Z</time>
      </trkpt>
      <trkpt lat="48.50459" lon="2.01101">
        <ele>150.5</ele>
        <time>2022-08-06T08:54:02Z</time>
      </trkpt>
      <trkpt lat="48.50461" lon="2.01093">
        <ele>150.6</ele>
        <time>2022-08-06T08:54:04Z</time>
      </trkpt>
      <trkpt lat="48.50462" lon="2.01085">
        <ele>150.6</ele>
        <time>2022-08-06T08:54:06Z</time>
      </trkpt>
      <trkpt lat="48.50464" lon="2.01077">
        <ele>150.8</ele>
        <time>2022-08-06T08:54:08Z</time>
      </trkpt>
      <trkpt lat="48.50465" lon="2.01067">
        <ele>150.9</ele>
        <time>2022-08-06T08:54:10Z</time>
      </trkpt>
      <trkpt lat="48.50468" lon="2.01057">
        <ele>151</ele>
        <time>2022-08-06T08:54:12Z</time>
      </trkpt>
      <trkpt lat="48.5047" lon="2.01047">
        <ele>151.3</ele>
        <time>2022-08-06T08:54:14Z</time>
      </trkpt>
      <trkpt lat="48.50471" lon="2.01037">
        <ele>151.6</ele>
        <time>2022-08-06T08:54:16Z</time>
      </trkpt>
      <trkpt lat="48.50472" lon="2.01027">
        <ele>152</ele>
        <time>2022-08-06T08:54:18Z</time>
      </trkpt>
      <trkpt lat="48.50474" lon="2.01016">
        <ele>152</ele>
        <time>2022-08-06T08:54:20Z</time>
      </trkpt>
      <trkpt lat="48.50475" lon="2.01005">
        <ele>152.1</ele>
        <time>2022-08-06T08:54:22Z</time>
      </trkpt>
      <trkpt lat="48.50477" lon="2.00995">
        <ele>152.3</ele>
        <time>2022-08-06T08:54:24Z</time>
      </trkpt>
      <trkpt lat="48.50479" lon="2.00986">
        <ele>152.6</ele>
        <time>2022-08-06T08:54:26Z</time>
      </trkpt>
      <trkpt lat="48.5048" lon="2.00976">
        <ele>152.9</ele>
        <time>2022-08-06T08:54:28Z</time>
      </trkpt>
      <trkpt lat="48.50481" lon="2.00966">
        <ele>153</ele>
        <time>2022-08-06T08:54:30Z</time>
      </trkpt>
      <trkpt lat="48.50482" lon="2.00956">
        <ele>153</ele>
        <time>2022-08-06T08:54:32Z</time>
      </trkpt>
      <trkpt lat="48.50484" lon="2.00945">
        <ele>153</ele>
        <time>2022-08-06T08:54:34Z</time>
      </trkpt>
      <trkpt lat="48.50486" lon="2.00933">
        <ele>153.2</ele>
        <time>2022-08-06T08:54:36Z</time>
      </trkpt>
      <trkpt lat="48.50487" lon="2.00921">
        <ele>153.4</ele>
        <time>2022-08-06T08:54:38Z</time>
      </trkpt>
      <trkpt lat="48.50489" lon="2.0091">
        <ele>153.7</ele>
        <time>2022-08-06T08:54:40Z</time>
      </trkpt>
      <trkpt lat="48.50491" lon="2.00899">
        <ele>153.9</ele>
        <time>2022-08-06T08:54:42Z</time>
      </trkpt>
      <trkpt lat="48.50493" lon="2.00887">
        <ele>154</ele>
        <time>2022-08-06T08:54:44Z</time>
      </trkpt>
      <trkpt lat="48.50495" lon="2.00876">
        <ele>154</ele>
        <time>2022-08-06T08:54:46Z</time>
      </trkpt>
      <trkpt lat="48.50496" lon="2.00865">
        <ele>154</ele>
        <time>2022-08-06T08:54:48Z</time>
      </trkpt>
      <trkpt lat="48.50498" lon="2.00854">
        <ele>154.2</ele>
        <time>2022-08-06T08:54:50Z</time>
      </trkpt>
      <trkpt lat="48.505" lon="2.00843">
        <ele>154.7</ele>
        <time>2022-08-06T08:54:52Z</time>
      </trkpt>
      <trkpt lat="48.50502" lon="2.00832">
        <ele>155</ele>
        <time>2022-08-06T08:54:54Z</time>
      </trkpt>
      <trkpt lat="48.50503" lon="2.00822">
        <ele>155</ele>
        <time>2022-08-06T08:54:56Z</time>
      </trkpt>
      <trkpt lat="48.50505" lon="2.0081">
        <ele>155</ele>
        <time>2022-08-06T08:54:58Z</time>
      </trkpt>
      <trkpt lat="48.50507" lon="2.00799">
        <ele>155</ele>
        <time>2022-08-06T08:55:00Z</time>
      </trkpt>
      <trkpt lat="48.50509" lon="2.00787">
        <ele>155</ele>
        <time>2022-08-06T08:55:02Z</time>
      </trkpt>
      <trkpt lat="48.50511" lon="2.00775">
        <ele>155</ele>
        <time>2022-08-06T08:55:04Z</time>
      </trkpt>
      <trkpt lat="48.50512" lon="2.00763">
        <ele>155</ele>
        <time>2022-08-06T08:55:06Z</time>
      </trkpt>
      <trkpt lat="48.50514" lon="2.00751">
        <ele>155</ele>
        <time>2022-08-06T08:55:08Z</time>
      </trkpt>
      <trkpt lat="48.50516" lon="2.00738">
        <ele>155</ele>
        <time>2022-08-06T08:55:10Z</time>
      </trkpt>
      <trkpt lat="48.50518" lon="2.00726">
        <ele>155</ele>
        <time>2022-08-06T08:55:12Z</time>
      </trkpt>
      <trkpt lat="48.5052" lon="2.00712">
        <ele>155.4</ele>
        <time>2022-08-06T08:55:14Z</time>
      </trkpt>
      <trkpt lat="48.50522" lon="2.00699">
        <ele>155.8</ele>
        <time>2022-08-06T08:55:16Z</time>
      </trkpt>
      <trkpt lat="48.50524" lon="2.00684">
        <ele>156</ele>
        <time>2022-08-06T08:55:18Z</time>
      </trkpt>
      <trkpt lat="48.50527" lon="2.00668">
        <ele>156</ele>
        <time>2022-08-06T08:55:20Z</time>
      </trkpt>
      <trkpt lat="48.50529" lon="2.00653">
        <ele>156</ele>
        <time>2022-08-06T08:55:22Z</time>
      </trkpt>
      <trkpt lat="48.50531" lon="2.00638">
        <ele>156</ele>
        <time>2022-08-06T08:55:24Z</time>
      </trkpt>
      <trkpt lat="48.50534" lon="2.00624">
        <ele>156</ele>
        <time>2022-08-06T08:55:26Z</time>
      </trkpt>
      <trkpt lat="48.50536" lon="2.00611">
        <ele>156</ele>
        <time>2022-08-06T08:55:28Z</time>
      </trkpt>
      <trkpt lat="48.50538" lon="2.00598">
        <ele>156</ele>
        <time>2022-08-06T08:55:30Z</time>
      </trkpt>
      <trkpt lat="48.50539" lon="2.00585">
        <ele>156</ele>
        <time>2022-08-06T08:55:32Z</time>
      </trkpt>
      <trkpt lat="48.50541" lon="2.00573">
        <ele>156</ele>
        <time>2022-08-06T08:55:34Z</time>
      </trkpt>
      <trkpt lat="48.50543" lon="2.0056">
        <ele>156</ele>
        <time>2022-08-06T08:55:36Z</time>
      </trkpt>
      <trkpt lat="48.50545" lon="2.00547">
        <ele>156.2</ele>
        <time>2022-08-06T08:55:38Z</time>
      </trkpt>
      <trkpt lat="48.50547" lon="2.00534">
        <ele>156.5</ele>
        <time>2022-08-06T08:55:40Z</time>
      </trkpt>
      <trkpt lat="48.50548" lon="2.00521">
        <ele>156.7</ele>
        <time>2022-08-06T08:55:42Z</time>
      </trkpt>
      <trkpt lat="48.5055" lon="2.00508">
        <ele>156.8</ele>
        <time>2022-08-06T08:55:44Z</time>
      </trkpt>
      <trkpt lat="48.50552" lon="2.00496">
        <ele>156.7</ele>
        <time>2022-08-06T08:55:46Z</time>
      </trkpt>
      <trkpt lat="48.50554" lon="2.00483">
        <ele>156.4</ele>
        <time>2022-08-06T08:55:48Z</time>
      </trkpt>
      <trkpt lat="48.50556" lon="2.00469">
        <ele>156</ele>
        <time>2022-08-06T08:55:50Z</time>
      </trkpt>
      <trkpt lat="48.50558" lon="2.00456">
        <ele>156</ele>
        <time>2022-08-06T08:55:52Z</time>
      </trkpt>
      <trkpt lat="48.50561" lon="2.00442">
        <ele>156</ele>
        <time>2022-08-06T08:55:54Z</time>
      </trkpt>
      <trkpt lat="48.50563" lon="2.00429">
        <ele>156</ele>
        <time>2022-08-06T08:55:56Z</time>
      </trkpt>
      <trkpt lat="48.50567" lon="2.00417">
        <ele>156</ele>
        <time>2022-08-06T08:55:58Z</time>
      </trkpt>
      <trkpt lat="48.50569" lon="2.00405">
        <ele>156</ele>
        <time>2022-08-06T08:56:00Z</time>
      </trkpt>
      <trkpt lat="48.50572" lon="2.00392">
        <ele>156</ele>
        <time>2022-08-06T08:56:02Z</time>
      </trkpt>
      <trkpt lat="48.50574" lon="2.0038">
        <ele>156</ele>
        <time>2022-08-06T08:56:04Z</time>
      </trkpt>
      <trkpt lat="48.50577" lon="2.0037">
        <ele>156</ele>
        <time>2022-08-06T08:56:06Z</time>
      </trkpt>
      <trkpt lat="48.50579" lon="2.0036">
        <ele>156</ele>
        <time>2022-08-06T08:56:08Z</time>
      </trkpt>
      <trkpt lat="48.50581" lon="2.0035">
        <ele>156</ele>
        <time>2022-08-06T08:56:10Z</time>
      </trkpt>
      <trkpt lat="48.50583" lon="2.0034">
        <ele>156</ele>
        <time>2022-08-06T08:56:12Z</time>
      </trkpt>
      <trkpt lat="48.50587" lon="2.0033">
        <ele>156</ele>
        <time>2022-08-06T08:56:14Z</time>
      </trkpt>
      <trkpt lat="48.50589" lon="2.00322">
        <ele>155.9</ele>
        <time>2022-08-06T08:56:16Z</time>
      </trkpt>
      <trkpt lat="48.50592" lon="2.00313">
        <ele>155.8</ele>
        <time>2022-08-06T08:56:18Z</time>
      </trkpt>
      <trkpt lat="48.50595" lon="2.003">
        <ele>155.6</ele>
        <time>2022-08-06T08:56:20Z</time>
      </trkpt>
      <trkpt lat="48.50599" lon="2.00288">
        <ele>155.4</ele>
        <time>2022-08-06T08:56:22Z</time>
      </trkpt>
      <trkpt lat="48.50602" lon="2.00278">
        <ele>155.3</ele>
        <time>2022-08-06T08:56:24Z</time>
      </trkpt>
      <trkpt lat="48.50605" lon="2.00266">
        <ele>155.1</ele>
        <time>2022-08-06T08:56:26Z</time>
      </trkpt>
      <trkpt lat="48.50606" lon="2.00259">
        <ele>155.1</ele>
        <time>2022-08-06T08:56:42Z</time>
      </trkpt>
      <trkpt lat="48.50607" lon="2.00251">
        <ele>155</ele>
        <time>2022-08-06T08:57:28Z</time>
      </trkpt>
      <trkpt lat="48.50609" lon="2.00244">
        <ele>154.6</ele>
        <time>2022-08-06T08:57:30Z</time>
      </trkpt>
      <trkpt lat="48.50611" lon="2.00236">
        <ele>154</ele>
        <time>2022-08-06T08:57:32Z</time>
      </trkpt>
      <trkpt lat="48.50607" lon="2.00223">
        <ele>153.2</ele>
        <time>2022-08-06T08:57:36Z</time>
      </trkpt>
      <trkpt lat="48.506" lon="2.00219">
        <ele>153.2</ele>
        <time>2022-08-06T08:57:38Z</time>
      </trkpt>
      <trkpt lat="48.50595" lon="2.00226">
        <ele>153.7</ele>
        <time>2022-08-06T08:57:40Z</time>
      </trkpt>
      <trkpt lat="48.50591" lon="2.00228">
        <ele>154</ele>
        <time>2022-08-06T08:57:42Z</time>
      </trkpt>
      <trkpt lat="48.50593" lon="2.00222">
        <ele>153.6</ele>
        <time>2022-08-06T08:58:00Z</time>
      </trkpt>
      <trkpt lat="48.50598" lon="2.00219">
        <ele>153.2</ele>
        <time>2022-08-06T08:58:04Z</time>
      </trkpt>
      <trkpt lat="48.50605" lon="2.00225">
        <ele>153.4</ele>
        <time>2022-08-06T08:58:08Z</time>
      </trkpt>
      <trkpt lat="48.50612" lon="2.00224">
        <ele>153.1</ele>
        <time>2022-08-06T08:58:12Z</time>
      </trkpt>
      <trkpt lat="48.50617" lon="2.00219">
        <ele>152.7</ele>
        <time>2022-08-06T08:58:14Z</time>
      </trkpt>
      <trkpt lat="48.50622" lon="2.00215">
        <ele>152.3</ele>
        <time>2022-08-06T08:58:16Z</time>
      </trkpt>
      <trkpt lat="48.50625" lon="2.00209">
        <ele>151.8</ele>
        <time>2022-08-06T08:58:18Z</time>
      </trkpt>
      <trkpt lat="48.5063" lon="2.00204">
        <ele>151.2</ele>
        <time>2022-08-06T08:58:20Z</time>
      </trkpt>
      <trkpt lat="48.50636" lon="2.00196">
        <ele>150.2</ele>
        <time>2022-08-06T08:58:22Z</time>
      </trkpt>
      <trkpt lat="48.50643" lon="2.00188">
        <ele>149.1</ele>
        <time>2022-08-06T08:58:24Z</time>
      </trkpt>
      <trkpt lat="48.50649" lon="2.00179">
        <ele>148.3</ele>
        <time>2022-08-06T08:58:26Z</time>
      </trkpt>
      <trkpt lat="48.50653" lon="2.00168">
        <ele>147.2</ele>
        <time>2022-08-06T08:58:28Z</time>
      </trkpt>
      <trkpt lat="48.50656" lon="2.00159">
        <ele>146.1</ele>
        <time>2022-08-06T08:58:30Z</time>
      </trkpt>
      <trkpt lat="48.50659" lon="2.00148">
        <ele>145</ele>
        <time>2022-08-06T08:58:32Z</time>
      </trkpt>
      <trkpt lat="48.50662" lon="2.00137">
        <ele>143.7</ele>
        <time>2022-08-06T08:58:34Z</time>
      </trkpt>
      <trkpt lat="48.50661" lon="2.00124">
        <ele>141.2</ele>
        <time>2022-08-06T08:58:36Z</time>
      </trkpt>
      <trkpt lat="48.50661" lon="2.00105">
        <ele>138</ele>
        <time>2022-08-06T08:58:38Z</time>
      </trkpt>
      <trkpt lat="48.5066" lon="2.00086">
        <ele>134.7</ele>
        <time>2022-08-06T08:58:40Z</time>
      </trkpt>
      <trkpt lat="48.5066" lon="2.00072">
        <ele>132.2</ele>
        <time>2022-08-06T08:58:42Z</time>
      </trkpt>
      <trkpt lat="48.50664" lon="2.00061">
        <ele>131.2</ele>
        <time>2022-08-06T08:58:44Z</time>
      </trkpt>
      <trkpt lat="48.50669" lon="2.00048">
        <ele>130.6</ele>
        <time>2022-08-06T08:58:46Z</time>
      </trkpt>
      <trkpt lat="48.50672" lon="2.0004">
        <ele>129.8</ele>
        <time>2022-08-06T08:58:48Z</time>
      </trkpt>
      <trkpt lat="48.50675" lon="2.00027">
        <ele>128.1</ele>
        <time>2022-08-06T08:58:50Z</time>
      </trkpt>
      <trkpt lat="48.50679" lon="2.00017">
        <ele>126.7</ele>
        <time>2022-08-06T08:58:52Z</time>
      </trkpt>
      <trkpt lat="48.50683" lon="2.0001">
        <ele>126</ele>
        <time>2022-08-06T08:58:54Z</time>
      </trkpt>
      <trkpt lat="48.50686" lon="2.00004">
        <ele>125.2</ele>
        <time>2022-08-06T08:58:56Z</time>
      </trkpt>
      <trkpt lat="48.5069" lon="1.99999">
        <ele>124.7</ele>
        <time>2022-08-06T08:58:58Z</time>
      </trkpt>
      <trkpt lat="48.50692" lon="1.99991">
        <ele>123.3</ele>
        <time>2022-08-06T08:59:00Z</time>
      </trkpt>
      <trkpt lat="48.50696" lon="1.99981">
        <ele>121.5</ele>
        <time>2022-08-06T08:59:02Z</time>
      </trkpt>
      <trkpt lat="48.507" lon="1.99974">
        <ele>120.6</ele>
        <time>2022-08-06T08:59:04Z</time>
      </trkpt>
      <trkpt lat="48.50704" lon="1.99965">
        <ele>119.7</ele>
        <time>2022-08-06T08:59:06Z</time>
      </trkpt>
      <trkpt lat="48.50708" lon="1.99954">
        <ele>118.4</ele>
        <time>2022-08-06T08:59:08Z</time>
      </trkpt>
      <trkpt lat="48.50711" lon="1.99943">
        <ele>116.7</ele>
        <time>2022-08-06T08:59:10Z</time>
      </trkpt>
      <trkpt lat="48.50713" lon="1.99934">
        <ele>115.3</ele>
        <time>2022-08-06T08:59:12Z</time>
      </trkpt>
      <trkpt lat="48.50715" lon="1.99924">
        <ele>113.5</ele>
        <time>2022-08-06T08:59:14Z</time>
      </trkpt>
      <trkpt lat="48.50718" lon="1.99915">
        <ele>112.1</ele>
        <time>2022-08-06T08:59:16Z</time>
      </trkpt>
      <trkpt lat="48.50722" lon="1.99904">
        <ele>111.1</ele>
        <time>2022-08-06T08:59:18Z</time>
      </trkpt>
      <trkpt lat="48.50728" lon="1.99896">
        <ele>111</ele>
        <time>2022-08-06T08:59:20Z</time>
      </trkpt>
      <trkpt lat="48.50729" lon="1.99884">
        <ele>109.4</ele>
        <time>2022-08-06T08:59:22Z</time>
      </trkpt>
      <trkpt lat="48.50727" lon="1.99877">
        <ele>108.3</ele>
        <time>2022-08-06T08:59:24Z</time>
      </trkpt>
      <trkpt lat="48.50724" lon="1.99871">
        <ele>107.2</ele>
        <time>2022-08-06T08:59:26Z</time>
      </trkpt>
      <trkpt lat="48.50719" lon="1.9987">
        <ele>106.8</ele>
        <time>2022-08-06T08:59:44Z</time>
      </trkpt>
      <trkpt lat="48.50715" lon="1.99873">
        <ele>106.9</ele>
        <time>2022-08-06T08:59:52Z</time>
      </trkpt>
      <trkpt lat="48.50711" lon="1.99877">
        <ele>107.1</ele>
        <time>2022-08-06T08:59:54Z</time>
      </trkpt>
      <trkpt lat="48.50706" lon="1.99883">
        <ele>107.4</ele>
        <time>2022-08-06T08:59:56Z</time>
      </trkpt>
      <trkpt lat="48.50701" lon="1.99888">
        <ele>107.4</ele>
        <time>2022-08-06T08:59:58Z</time>
      </trkpt>
      <trkpt lat="48.50695" lon="1.99894">
        <ele>107.4</ele>
        <time>2022-08-06T09:00:00Z</time>
      </trkpt>
      <trkpt lat="48.5069" lon="1.99901">
        <ele>107.6</ele>
        <time>2022-08-06T09:00:02Z</time>
      </trkpt>
      <trkpt lat="48.50683" lon="1.99909">
        <ele>107.7</ele>
        <time>2022-08-06T09:00:04Z</time>
      </trkpt>
      <trkpt lat="48.50675" lon="1.99917">
        <ele>107.6</ele>
        <time>2022-08-06T09:00:06Z</time>
      </trkpt>
      <trkpt lat="48.50669" lon="1.99926">
        <ele>108.2</ele>
        <time>2022-08-06T09:00:08Z</time>
      </trkpt>
      <trkpt lat="48.50658" lon="1.99935">
        <ele>108.4</ele>
        <time>2022-08-06T09:00:10Z</time>
      </trkpt>
      <trkpt lat="48.50649" lon="1.9994">
        <ele>108.4</ele>
        <time>2022-08-06T09:00:12Z</time>
      </trkpt>
      <trkpt lat="48.50641" lon="1.99947">
        <ele>108.5</ele>
        <time>2022-08-06T09:00:14Z</time>
      </trkpt>
      <trkpt lat="48.50632" lon="1.9995">
        <ele>108.3</ele>
        <time>2022-08-06T09:00:16Z</time>
      </trkpt>
      <trkpt lat="48.50625" lon="1.99953">
        <ele>108.3</ele>
        <time>2022-08-06T09:00:18Z</time>
      </trkpt>
      <trkpt lat="48.50617" lon="1.99957">
        <ele>108.2</ele>
        <time>2022-08-06T09:00:20Z</time>
      </trkpt>
      <trkpt lat="48.5061" lon="1.99963">
        <ele>108.3</ele>
        <time>2022-08-06T09:00:22Z</time>
      </trkpt>
      <trkpt lat="48.50601" lon="1.99966">
        <ele>108.3</ele>
        <time>2022-08-06T09:00:24Z</time>
      </trkpt>
      <trkpt lat="48.50592" lon="1.99967">
        <ele>108.1</ele>
        <time>2022-08-06T09:00:26Z</time>
      </trkpt>
      <trkpt lat="48.50582" lon="1.99969">
        <ele>107.9</ele>
        <time>2022-08-06T09:00:28Z</time>
      </trkpt>
      <trkpt lat="48.50573" lon="1.99972">
        <ele>108</ele>
        <time>2022-08-06T09:00:30Z</time>
      </trkpt>
      <trkpt lat="48.50563" lon="1.99976">
        <ele>108.4</ele>
        <time>2022-08-06T09:00:32Z</time>
      </trkpt>
      <trkpt lat="48.50553" lon="1.99979">
        <ele>108.6</ele>
        <time>2022-08-06T09:00:34Z</time>
      </trkpt>
      <trkpt lat="48.50543" lon="1.99982">
        <ele>108.6</ele>
        <time>2022-08-06T09:00:36Z</time>
      </trkpt>
      <trkpt lat="48.50533" lon="1.99984">
        <ele>108.5</ele>
        <time>2022-08-06T09:00:38Z</time>
      </trkpt>
      <trkpt lat="48.50526" lon="1.99988">
        <ele>108.6</ele>
        <time>2022-08-06T09:00:40Z</time>
      </trkpt>
      <trkpt lat="48.50517" lon="1.99997">
        <ele>109</ele>
        <time>2022-08-06T09:00:42Z</time>
      </trkpt>
      <trkpt lat="48.5051" lon="2.00005">
        <ele>109.2</ele>
        <time>2022-08-06T09:00:44Z</time>
      </trkpt>
      <trkpt lat="48.50502" lon="2.00013">
        <ele>109.1</ele>
        <time>2022-08-06T09:00:46Z</time>
      </trkpt>
      <trkpt lat="48.50493" lon="2.00021">
        <ele>109.1</ele>
        <time>2022-08-06T09:00:48Z</time>
      </trkpt>
      <trkpt lat="48.50487" lon="2.00031">
        <ele>109.3</ele>
        <time>2022-08-06T09:00:50Z</time>
      </trkpt>
      <trkpt lat="48.5048" lon="2.0004">
        <ele>109.2</ele>
        <time>2022-08-06T09:00:52Z</time>
      </trkpt>
      <trkpt lat="48.50472" lon="2.00048">
        <ele>108.7</ele>
        <time>2022-08-06T09:00:54Z</time>
      </trkpt>
      <trkpt lat="48.50463" lon="2.00057">
        <ele>108.8</ele>
        <time>2022-08-06T09:00:56Z</time>
      </trkpt>
      <trkpt lat="48.50456" lon="2.00064">
        <ele>109.1</ele>
        <time>2022-08-06T09:00:58Z</time>
      </trkpt>
      <trkpt lat="48.50448" lon="2.00068">
        <ele>108.7</ele>
        <time>2022-08-06T09:01:00Z</time>
      </trkpt>
      <trkpt lat="48.5044" lon="2.00073">
        <ele>108.5</ele>
        <time>2022-08-06T09:01:02Z</time>
      </trkpt>
      <trkpt lat="48.50433" lon="2.00077">
        <ele>108.5</ele>
        <time>2022-08-06T09:01:04Z</time>
      </trkpt>
      <trkpt lat="48.50427" lon="2.0008">
        <ele>108.3</ele>
        <time>2022-08-06T09:01:06Z</time>
      </trkpt>
      <trkpt lat="48.50419" lon="2.00082">
        <ele>108.1</ele>
        <time>2022-08-06T09:01:08Z</time>
      </trkpt>
      <trkpt lat="48.5041" lon="2.00082">
        <ele>108</ele>
        <time>2022-08-06T09:01:10Z</time>
      </trkpt>
      <trkpt lat="48.50403" lon="2.00081">
        <ele>108</ele>
        <time>2022-08-06T09:01:12Z</time>
      </trkpt>
      <trkpt lat="48.50395" lon="2.00081">
        <ele>108</ele>
        <time>2022-08-06T09:01:14Z</time>
      </trkpt>
      <trkpt lat="48.50386" lon="2.00081">
        <ele>108</ele>
        <time>2022-08-06T09:01:16Z</time>
      </trkpt>
      <trkpt lat="48.50378" lon="2.00081">
        <ele>108</ele>
        <time>2022-08-06T09:01:18Z</time>
      </trkpt>
      <trkpt lat="48.5037" lon="2.0008">
        <ele>108</ele>
        <time>2022-08-06T09:01:20Z</time>
      </trkpt>
      <trkpt lat="48.50363" lon="2.00081">
        <ele>108</ele>
        <time>2022-08-06T09:01:22Z</time>
      </trkpt>
      <trkpt lat="48.50357" lon="2.00077">
        <ele>108</ele>
        <time>2022-08-06T09:01:24Z</time>
      </trkpt>
      <trkpt lat="48.50354" lon="2.0007">
        <ele>108</ele>
        <time>2022-08-06T09:01:26Z</time>
      </trkpt>
      <trkpt lat="48.50353" lon="2.0006">
        <ele>108</ele>
        <time>2022-08-06T09:01:28Z</time>
      </trkpt>
      <trkpt lat="48.50351" lon="2.00053">
        <ele>108.1</ele>
        <time>2022-08-06T09:01:30Z</time>
      </trkpt>
      <trkpt lat="48.50349" lon="2.00042">
        <ele>108.5</ele>
        <time>2022-08-06T09:01:32Z</time>
      </trkpt>
      <trkpt lat="48.50348" lon="2.00032">
        <ele>108.8</ele>
        <time>2022-08-06T09:01:34Z</time>
      </trkpt>
      <trkpt lat="48.50347" lon="2.00023">
        <ele>109.2</ele>
        <time>2022-08-06T09:01:36Z</time>
      </trkpt>
      <trkpt lat="48.50345" lon="2.00012">
        <ele>109.6</ele>
        <time>2022-08-06T09:01:38Z</time>
      </trkpt>
      <trkpt lat="48.50343" lon="2.00004">
        <ele>109.9</ele>
        <time>2022-08-06T09:01:40Z</time>
      </trkpt>
      <trkpt lat="48.50343" lon="1.99995">
        <ele>110.1</ele>
        <time>2022-08-06T09:01:42Z</time>
      </trkpt>
      <trkpt lat="48.50341" lon="1.99986">
        <ele>110.4</ele>
        <time>2022-08-06T09:01:44Z</time>
      </trkpt>
      <trkpt lat="48.50337" lon="1.99977">
        <ele>110.7</ele>
        <time>2022-08-06T09:01:46Z</time>
      </trkpt>
      <trkpt lat="48.50334" lon="1.99969">
        <ele>111.1</ele>
        <time>2022-08-06T09:01:48Z</time>
      </trkpt>
      <trkpt lat="48.50329" lon="1.99955">
        <ele>111.7</ele>
        <time>2022-08-06T09:01:52Z</time>
      </trkpt>
      <trkpt lat="48.50325" lon="1.99948">
        <ele>112.1</ele>
        <time>2022-08-06T09:01:54Z</time>
      </trkpt>
      <trkpt lat="48.50322" lon="1.9994">
        <ele>112.6</ele>
        <time>2022-08-06T09:01:56Z</time>
      </trkpt>
      <trkpt lat="48.50318" lon="1.99933">
        <ele>113.1</ele>
        <time>2022-08-06T09:01:58Z</time>
      </trkpt>
      <trkpt lat="48.50314" lon="1.99925">
        <ele>113.6</ele>
        <time>2022-08-06T09:02:00Z</time>
      </trkpt>
      <trkpt lat="48.50308" lon="1.99918">
        <ele>113.9</ele>
        <time>2022-08-06T09:02:02Z</time>
      </trkpt>
      <trkpt lat="48.50305" lon="1.9991">
        <ele>114.3</ele>
        <time>2022-08-06T09:02:04Z</time>
      </trkpt>
      <trkpt lat="48.50301" lon="1.99902">
        <ele>114.5</ele>
        <time>2022-08-06T09:02:06Z</time>
      </trkpt>
      <trkpt lat="48.50297" lon="1.99895">
        <ele>114.8</ele>
        <time>2022-08-06T09:02:08Z</time>
      </trkpt>
      <trkpt lat="48.50294" lon="1.99887">
        <ele>115</ele>
        <time>2022-08-06T09:02:10Z</time>
      </trkpt>
      <trkpt lat="48.5029" lon="1.99879">
        <ele>115.2</ele>
        <time>2022-08-06T09:02:12Z</time>
      </trkpt>
      <trkpt lat="48.50286" lon="1.9987">
        <ele>115.2</ele>
        <time>2022-08-06T09:02:14Z</time>
      </trkpt>
      <trkpt lat="48.50283" lon="1.99861">
        <ele>115.2</ele>
        <time>2022-08-06T09:02:16Z</time>
      </trkpt>
      <trkpt lat="48.50277" lon="1.9985">
        <ele>115.4</ele>
        <time>2022-08-06T09:02:18Z</time>
      </trkpt>
      <trkpt lat="48.50271" lon="1.99838">
        <ele>115.6</ele>
        <time>2022-08-06T09:02:20Z</time>
      </trkpt>
      <trkpt lat="48.50268" lon="1.99828">
        <ele>115.7</ele>
        <time>2022-08-06T09:02:22Z</time>
      </trkpt>
      <trkpt lat="48.50266" lon="1.99819">
        <ele>115.6</ele>
        <time>2022-08-06T09:02:24Z</time>
      </trkpt>
      <trkpt lat="48.50265" lon="1.99807">
        <ele>115.5</ele>
        <time>2022-08-06T09:02:26Z</time>
      </trkpt>
      <trkpt lat="48.50263" lon="1.99795">
        <ele>115.9</ele>
        <time>2022-08-06T09:02:28Z</time>
      </trkpt>
      <trkpt lat="48.50261" lon="1.99784">
        <ele>116.2</ele>
        <time>2022-08-06T09:02:30Z</time>
      </trkpt>
      <trkpt lat="48.50261" lon="1.99771">
        <ele>116.4</ele>
        <time>2022-08-06T09:02:32Z</time>
      </trkpt>
      <trkpt lat="48.50259" lon="1.9976">
        <ele>116.3</ele>
        <time>2022-08-06T09:02:34Z</time>
      </trkpt>
      <trkpt lat="48.50256" lon="1.9975">
        <ele>116.2</ele>
        <time>2022-08-06T09:02:36Z</time>
      </trkpt>
      <trkpt lat="48.50256" lon="1.99737">
        <ele>116.2</ele>
        <time>2022-08-06T09:02:38Z</time>
      </trkpt>
      <trkpt lat="48.50257" lon="1.99725">
        <ele>116.2</ele>
        <time>2022-08-06T09:02:40Z</time>
      </trkpt>
      <trkpt lat="48.50255" lon="1.99715">
        <ele>116.4</ele>
        <time>2022-08-06T09:02:42Z</time>
      </trkpt>
      <trkpt lat="48.50255" lon="1.99704">
        <ele>116.8</ele>
        <time>2022-08-06T09:02:44Z</time>
      </trkpt>
      <trkpt lat="48.50256" lon="1.99693">
        <ele>117.2</ele>
        <time>2022-08-06T09:02:46Z</time>
      </trkpt>
      <trkpt lat="48.50256" lon="1.99681">
        <ele>117.2</ele>
        <time>2022-08-06T09:02:48Z</time>
      </trkpt>
      <trkpt lat="48.50256" lon="1.99668">
        <ele>117.2</ele>
        <time>2022-08-06T09:02:50Z</time>
      </trkpt>
      <trkpt lat="48.50256" lon="1.99657">
        <ele>117.3</ele>
        <time>2022-08-06T09:02:52Z</time>
      </trkpt>
      <trkpt lat="48.50257" lon="1.99645">
        <ele>117.4</ele>
        <time>2022-08-06T09:02:54Z</time>
      </trkpt>
      <trkpt lat="48.50256" lon="1.99635">
        <ele>117.5</ele>
        <time>2022-08-06T09:02:56Z</time>
      </trkpt>
      <trkpt lat="48.50255" lon="1.99623">
        <ele>117.8</ele>
        <time>2022-08-06T09:02:58Z</time>
      </trkpt>
      <trkpt lat="48.50255" lon="1.99611">
        <ele>118.2</ele>
        <time>2022-08-06T09:03:00Z</time>
      </trkpt>
      <trkpt lat="48.50255" lon="1.99601">
        <ele>118.5</ele>
        <time>2022-08-06T09:03:02Z</time>
      </trkpt>
      <trkpt lat="48.50253" lon="1.99588">
        <ele>118.9</ele>
        <time>2022-08-06T09:03:04Z</time>
      </trkpt>
      <trkpt lat="48.50254" lon="1.99578">
        <ele>119.3</ele>
        <time>2022-08-06T09:03:06Z</time>
      </trkpt>
      <trkpt lat="48.50254" lon="1.99567">
        <ele>119.6</ele>
        <time>2022-08-06T09:03:08Z</time>
      </trkpt>
      <trkpt lat="48.50253" lon="1.99555">
        <ele>120</ele>
        <time>2022-08-06T09:03:10Z</time>
      </trkpt>
      <trkpt lat="48.50254" lon="1.99544">
        <ele>120.1</ele>
        <time>2022-08-06T09:03:12Z</time>
      </trkpt>
      <trkpt lat="48.50253" lon="1.99534">
        <ele>120.1</ele>
        <time>2022-08-06T09:03:14Z</time>
      </trkpt>
      <trkpt lat="48.50254" lon="1.99525">
        <ele>120.2</ele>
        <time>2022-08-06T09:03:16Z</time>
      </trkpt>
      <trkpt lat="48.50254" lon="1.99517">
        <ele>120.5</ele>
        <time>2022-08-06T09:03:18Z</time>
      </trkpt>
      <trkpt lat="48.50253" lon="1.99507">
        <ele>120.9</ele>
        <time>2022-08-06T09:03:20Z</time>
      </trkpt>
      <trkpt lat="48.50252" lon="1.99497">
        <ele>121.2</ele>
        <time>2022-08-06T09:03:22Z</time>
      </trkpt>
      <trkpt lat="48.50252" lon="1.99489">
        <ele>121.4</ele>
        <time>2022-08-06T09:03:24Z</time>
      </trkpt>
      <trkpt lat="48.5025" lon="1.99481">
        <ele>121.7</ele>
        <time>2022-08-06T09:03:28Z</time>
      </trkpt>
      <trkpt lat="48.50245" lon="1.99478">
        <ele>121.4</ele>
        <time>2022-08-06T09:03:38Z</time>
      </trkpt>
      <trkpt lat="48.50239" lon="1.99481">
        <ele>120.9</ele>
        <time>2022-08-06T09:03:46Z</time>
      </trkpt>
      <trkpt lat="48.50233" lon="1.99476">
        <ele>120.6</ele>
        <time>2022-08-06T09:03:56Z</time>
      </trkpt>
      <trkpt lat="48.50227" lon="1.99472">
        <ele>120.3</ele>
        <time>2022-08-06T09:03:58Z</time>
      </trkpt>
      <trkpt lat="48.5022" lon="1.99466">
        <ele>120.3</ele>
        <time>2022-08-06T09:04:00Z</time>
      </trkpt>
      <trkpt lat="48.50212" lon="1.99459">
        <ele>120.1</ele>
        <time>2022-08-06T09:04:02Z</time>
      </trkpt>
      <trkpt lat="48.50204" lon="1.99453">
        <ele>119.6</ele>
        <time>2022-08-06T09:04:04Z</time>
      </trkpt>
      <trkpt lat="48.502" lon="1.99446">
        <ele>119.5</ele>
        <time>2022-08-06T09:04:06Z</time>
      </trkpt>
      <trkpt lat="48.50192" lon="1.99441">
        <ele>119</ele>
        <time>2022-08-06T09:04:08Z</time>
      </trkpt>
      <trkpt lat="48.50185" lon="1.99435">
        <ele>118.9</ele>
        <time>2022-08-06T09:04:10Z</time>
      </trkpt>
      <trkpt lat="48.50177" lon="1.99429">
        <ele>118.5</ele>
        <time>2022-08-06T09:04:12Z</time>
      </trkpt>
      <trkpt lat="48.50172" lon="1.99425">
        <ele>118.3</ele>
        <time>2022-08-06T09:04:14Z</time>
      </trkpt>
      <trkpt lat="48.50166" lon="1.99417">
        <ele>118</ele>
        <time>2022-08-06T09:04:18Z</time>
      </trkpt>
      <trkpt lat="48.50161" lon="1.99408">
        <ele>118.4</ele>
        <time>2022-08-06T09:04:22Z</time>
      </trkpt>
      <trkpt lat="48.50152" lon="1.99402">
        <ele>118.5</ele>
        <time>2022-08-06T09:04:24Z</time>
      </trkpt>
      <trkpt lat="48.50146" lon="1.99398">
        <ele>118.6</ele>
        <time>2022-08-06T09:04:26Z</time>
      </trkpt>
      <trkpt lat="48.5014" lon="1.99391">
        <ele>118.9</ele>
        <time>2022-08-06T09:04:28Z</time>
      </trkpt>
      <trkpt lat="48.50134" lon="1.99385">
        <ele>119.2</ele>
        <time>2022-08-06T09:04:30Z</time>
      </trkpt>
      <trkpt lat="48.5013" lon="1.99382">
        <ele>119.2</ele>
        <time>2022-08-06T09:04:36Z</time>
      </trkpt>
      <trkpt lat="48.50125" lon="1.99377">
        <ele>119.3</ele>
        <time>2022-08-06T09:04:48Z</time>
      </trkpt>
      <trkpt lat="48.5012" lon="1.99373">
        <ele>119.5</ele>
        <time>2022-08-06T09:04:52Z</time>
      </trkpt>
      <trkpt lat="48.50115" lon="1.99364">
        <ele>119.9</ele>
        <time>2022-08-06T09:04:58Z</time>
      </trkpt>
      <trkpt lat="48.50111" lon="1.99361">
        <ele>120</ele>
        <time>2022-08-06T09:05:02Z</time>
      </trkpt>
      <trkpt lat="48.50109" lon="1.99354">
        <ele>120.8</ele>
        <time>2022-08-06T09:05:20Z</time>
      </trkpt>
      <trkpt lat="48.50106" lon="1.99346">
        <ele>121.6</ele>
        <time>2022-08-06T09:05:28Z</time>
      </trkpt>
      <trkpt lat="48.50105" lon="1.99339">
        <ele>122.2</ele>
        <time>2022-08-06T09:05:32Z</time>
      </trkpt>
      <trkpt lat="48.50104" lon="1.99331">
        <ele>122.9</ele>
        <time>2022-08-06T09:05:36Z</time>
      </trkpt>
      <trkpt lat="48.50103" lon="1.99321">
        <ele>123.9</ele>
        <time>2022-08-06T09:05:42Z</time>
      </trkpt>
      <trkpt lat="48.50102" lon="1.99312">
        <ele>124.7</ele>
        <time>2022-08-06T09:05:48Z</time>
      </trkpt>
      <trkpt lat="48.50101" lon="1.99321">
        <ele>123.8</ele>
        <time>2022-08-06T09:06:12Z</time>
      </trkpt>
      <trkpt lat="48.50102" lon="1.99329">
        <ele>123.1</ele>
        <time>2022-08-06T09:06:14Z</time>
      </trkpt>
      <trkpt lat="48.50104" lon="1.99338">
        <ele>122.3</ele>
        <time>2022-08-06T09:06:16Z</time>
      </trkpt>
      <trkpt lat="48.50106" lon="1.99348">
        <ele>121.4</ele>
        <time>2022-08-06T09:06:18Z</time>
      </trkpt>
      <trkpt lat="48.50109" lon="1.99358">
        <ele>120.3</ele>
        <time>2022-08-06T09:06:20Z</time>
      </trkpt>
      <trkpt lat="48.50114" lon="1.99366">
        <ele>119.8</ele>
        <time>2022-08-06T09:06:22Z</time>
      </trkpt>
      <trkpt lat="48.5012" lon="1.99373">
        <ele>119.4</ele>
        <time>2022-08-06T09:06:24Z</time>
      </trkpt>
      <trkpt lat="48.50127" lon="1.99381">
        <ele>119.1</ele>
        <time>2022-08-06T09:06:26Z</time>
      </trkpt>
      <trkpt lat="48.50134" lon="1.9939">
        <ele>118.8</ele>
        <time>2022-08-06T09:06:28Z</time>
      </trkpt>
      <trkpt lat="48.50142" lon="1.99398">
        <ele>118.4</ele>
        <time>2022-08-06T09:06:30Z</time>
      </trkpt>
      <trkpt lat="48.5015" lon="1.99404">
        <ele>118.3</ele>
        <time>2022-08-06T09:06:32Z</time>
      </trkpt>
      <trkpt lat="48.50153" lon="1.9941">
        <ele>118</ele>
        <time>2022-08-06T09:09:44Z</time>
      </trkpt>
      <trkpt lat="48.50157" lon="1.99415">
        <ele>117.8</ele>
        <time>2022-08-06T09:09:50Z</time>
      </trkpt>
      <trkpt lat="48.50161" lon="1.99418">
        <ele>117.7</ele>
        <time>2022-08-06T09:09:58Z</time>
      </trkpt>
      <trkpt lat="48.50166" lon="1.99416">
        <ele>118</ele>
        <time>2022-08-06T09:12:34Z</time>
      </trkpt>
      <trkpt lat="48.50166" lon="1.99423">
        <ele>117.7</ele>
        <time>2022-08-06T09:14:54Z</time>
      </trkpt>
      <trkpt lat="48.50162" lon="1.99418">
        <ele>117.8</ele>
        <time>2022-08-06T09:15:52Z</time>
      </trkpt>
      <trkpt lat="48.5016" lon="1.99411">
        <ele>118.1</ele>
        <time>2022-08-06T09:16:00Z</time>
      </trkpt>
      <trkpt lat="48.50156" lon="1.99406">
        <ele>118.4</ele>
        <time>2022-08-06T09:16:10Z</time>
      </trkpt>
      <trkpt lat="48.50152" lon="1.99407">
        <ele>118.2</ele>
        <time>2022-08-06T09:27:22Z</time>
      </trkpt>
      <trkpt lat="48.50147" lon="1.99405">
        <ele>118.1</ele>
        <time>2022-08-06T09:42:32Z</time>
      </trkpt>
      <trkpt lat="48.50142" lon="1.99403">
        <ele>118.1</ele>
        <time>2022-08-06T09:42:40Z</time>
      </trkpt>
      <trkpt lat="48.50136" lon="1.99397">
        <ele>118.3</ele>
        <time>2022-08-06T09:42:44Z</time>
      </trkpt>
      <trkpt lat="48.5013" lon="1.99391">
        <ele>118.5</ele>
        <time>2022-08-06T09:42:48Z</time>
      </trkpt>
      <trkpt lat="48.50124" lon="1.99385">
        <ele>118.7</ele>
        <time>2022-08-06T09:42:52Z</time>
      </trkpt>
      <trkpt lat="48.50119" lon="1.9938">
        <ele>118.9</ele>
        <time>2022-08-06T09:42:56Z</time>
      </trkpt>
      <trkpt lat="48.50113" lon="1.99374">
        <ele>119.2</ele>
        <time>2022-08-06T09:43:00Z</time>
      </trkpt>
      <trkpt lat="48.50105" lon="1.9937">
        <ele>119.4</ele>
        <time>2022-08-06T09:43:04Z</time>
      </trkpt>
      <trkpt lat="48.50099" lon="1.9937">
        <ele>119.4</ele>
        <time>2022-08-06T09:43:06Z</time>
      </trkpt>
      <trkpt lat="48.50094" lon="1.99369">
        <ele>119.5</ele>
        <time>2022-08-06T09:43:08Z</time>
      </trkpt>
      <trkpt lat="48.50086" lon="1.99368">
        <ele>119.5</ele>
        <time>2022-08-06T09:43:10Z</time>
      </trkpt>
      <trkpt lat="48.50078" lon="1.99369">
        <ele>119.1</ele>
        <time>2022-08-06T09:43:12Z</time>
      </trkpt>
      <trkpt lat="48.5007" lon="1.99368">
        <ele>118.7</ele>
        <time>2022-08-06T09:43:14Z</time>
      </trkpt>
      <trkpt lat="48.50063" lon="1.99367">
        <ele>118.3</ele>
        <time>2022-08-06T09:43:16Z</time>
      </trkpt>
      <trkpt lat="48.50057" lon="1.99365">
        <ele>118</ele>
        <time>2022-08-06T09:43:18Z</time>
      </trkpt>
      <trkpt lat="48.5005" lon="1.99364">
        <ele>117.5</ele>
        <time>2022-08-06T09:43:20Z</time>
      </trkpt>
      <trkpt lat="48.5004" lon="1.99369">
        <ele>116.6</ele>
        <time>2022-08-06T09:43:22Z</time>
      </trkpt>
      <trkpt lat="48.50025" lon="1.99368">
        <ele>115.7</ele>
        <time>2022-08-06T09:43:24Z</time>
      </trkpt>
      <trkpt lat="48.50014" lon="1.99362">
        <ele>115.5</ele>
        <time>2022-08-06T09:43:26Z</time>
      </trkpt>
      <trkpt lat="48.5" lon="1.99351">
        <ele>115</ele>
        <time>2022-08-06T09:43:28Z</time>
      </trkpt>
      <trkpt lat="48.49989" lon="1.99339">
        <ele>115</ele>
        <time>2022-08-06T09:43:30Z</time>
      </trkpt>
      <trkpt lat="48.4998" lon="1.99331">
        <ele>115</ele>
        <time>2022-08-06T09:43:32Z</time>
      </trkpt>
      <trkpt lat="48.49972" lon="1.99326">
        <ele>115</ele>
        <time>2022-08-06T09:43:34Z</time>
      </trkpt>
      <trkpt lat="48.49964" lon="1.99322">
        <ele>115.3</ele>
        <time>2022-08-06T09:43:36Z</time>
      </trkpt>
      <trkpt lat="48.49957" lon="1.99323">
        <ele>115.5</ele>
        <time>2022-08-06T09:43:38Z</time>
      </trkpt>
      <trkpt lat="48.49952" lon="1.99321">
        <ele>115.7</ele>
        <time>2022-08-06T09:43:40Z</time>
      </trkpt>
      <trkpt lat="48.49947" lon="1.99319">
        <ele>115.9</ele>
        <time>2022-08-06T09:43:42Z</time>
      </trkpt>
      <trkpt lat="48.4994" lon="1.99315">
        <ele>116.2</ele>
        <time>2022-08-06T09:43:44Z</time>
      </trkpt>
      <trkpt lat="48.49935" lon="1.99311">
        <ele>116.6</ele>
        <time>2022-08-06T09:43:46Z</time>
      </trkpt>
      <trkpt lat="48.4993" lon="1.99309">
        <ele>117</ele>
        <time>2022-08-06T09:43:48Z</time>
      </trkpt>
      <trkpt lat="48.49924" lon="1.99305">
        <ele>117.5</ele>
        <time>2022-08-06T09:43:50Z</time>
      </trkpt>
      <trkpt lat="48.49918" lon="1.99305">
        <ele>117.9</ele>
        <time>2022-08-06T09:43:52Z</time>
      </trkpt>
      <trkpt lat="48.49908" lon="1.993">
        <ele>118.4</ele>
        <time>2022-08-06T09:43:56Z</time>
      </trkpt>
      <trkpt lat="48.49903" lon="1.99295">
        <ele>118.7</ele>
        <time>2022-08-06T09:43:58Z</time>
      </trkpt>
      <trkpt lat="48.49899" lon="1.99287">
        <ele>119</ele>
        <time>2022-08-06T09:44:00Z</time>
      </trkpt>
      <trkpt lat="48.49896" lon="1.99283">
        <ele>119.4</ele>
        <time>2022-08-06T09:44:02Z</time>
      </trkpt>
      <trkpt lat="48.49892" lon="1.99278">
        <ele>119.8</ele>
        <time>2022-08-06T09:44:04Z</time>
      </trkpt>
      <trkpt lat="48.49888" lon="1.9927">
        <ele>120</ele>
        <time>2022-08-06T09:44:08Z</time>
      </trkpt>
      <trkpt lat="48.49884" lon="1.99263">
        <ele>120.4</ele>
        <time>2022-08-06T09:44:12Z</time>
      </trkpt>
      <trkpt lat="48.49879" lon="1.99257">
        <ele>120.7</ele>
        <time>2022-08-06T09:44:14Z</time>
      </trkpt>
      <trkpt lat="48.49874" lon="1.99254">
        <ele>121</ele>
        <time>2022-08-06T09:44:16Z</time>
      </trkpt>
      <trkpt lat="48.49867" lon="1.99249">
        <ele>121.6</ele>
        <time>2022-08-06T09:44:20Z</time>
      </trkpt>
      <trkpt lat="48.49859" lon="1.99242">
        <ele>122.2</ele>
        <time>2022-08-06T09:44:24Z</time>
      </trkpt>
      <trkpt lat="48.49854" lon="1.99239">
        <ele>122.8</ele>
        <time>2022-08-06T09:44:26Z</time>
      </trkpt>
      <trkpt lat="48.49849" lon="1.99229">
        <ele>123.4</ele>
        <time>2022-08-06T09:44:30Z</time>
      </trkpt>
      <trkpt lat="48.49841" lon="1.99222">
        <ele>124.2</ele>
        <time>2022-08-06T09:44:34Z</time>
      </trkpt>
      <trkpt lat="48.49835" lon="1.99218">
        <ele>124.6</ele>
        <time>2022-08-06T09:44:36Z</time>
      </trkpt>
      <trkpt lat="48.49828" lon="1.99213">
        <ele>125.2</ele>
        <time>2022-08-06T09:44:40Z</time>
      </trkpt>
      <trkpt lat="48.49824" lon="1.9921">
        <ele>125.5</ele>
        <time>2022-08-06T09:44:42Z</time>
      </trkpt>
      <trkpt lat="48.49817" lon="1.99209">
        <ele>126</ele>
        <time>2022-08-06T09:44:46Z</time>
      </trkpt>
      <trkpt lat="48.49808" lon="1.99208">
        <ele>126.8</ele>
        <time>2022-08-06T09:44:50Z</time>
      </trkpt>
      <trkpt lat="48.498" lon="1.99208">
        <ele>127.5</ele>
        <time>2022-08-06T09:44:54Z</time>
      </trkpt>
      <trkpt lat="48.49795" lon="1.99207">
        <ele>128.1</ele>
        <time>2022-08-06T09:44:56Z</time>
      </trkpt>
      <trkpt lat="48.4979" lon="1.99205">
        <ele>128.5</ele>
        <time>2022-08-06T09:44:58Z</time>
      </trkpt>
      <trkpt lat="48.49785" lon="1.99208">
        <ele>129.2</ele>
        <time>2022-08-06T09:45:02Z</time>
      </trkpt>
      <trkpt lat="48.49779" lon="1.99207">
        <ele>129.8</ele>
        <time>2022-08-06T09:45:06Z</time>
      </trkpt>
      <trkpt lat="48.4977" lon="1.99209">
        <ele>130.8</ele>
        <time>2022-08-06T09:45:10Z</time>
      </trkpt>
      <trkpt lat="48.49763" lon="1.99208">
        <ele>131.6</ele>
        <time>2022-08-06T09:45:14Z</time>
      </trkpt>
      <trkpt lat="48.49757" lon="1.99208">
        <ele>132.2</ele>
        <time>2022-08-06T09:45:18Z</time>
      </trkpt>
      <trkpt lat="48.4975" lon="1.99209">
        <ele>133</ele>
        <time>2022-08-06T09:45:22Z</time>
      </trkpt>
      <trkpt lat="48.49743" lon="1.99208">
        <ele>133.9</ele>
        <time>2022-08-06T09:45:26Z</time>
      </trkpt>
      <trkpt lat="48.49735" lon="1.99208">
        <ele>134.9</ele>
        <time>2022-08-06T09:45:30Z</time>
      </trkpt>
      <trkpt lat="48.4973" lon="1.99209">
        <ele>135.6</ele>
        <time>2022-08-06T09:45:34Z</time>
      </trkpt>
      <trkpt lat="48.49724" lon="1.9921">
        <ele>136.4</ele>
        <time>2022-08-06T09:45:38Z</time>
      </trkpt>
      <trkpt lat="48.49717" lon="1.99211">
        <ele>137.4</ele>
        <time>2022-08-06T09:45:42Z</time>
      </trkpt>
      <trkpt lat="48.4971" lon="1.99212">
        <ele>138.4</ele>
        <time>2022-08-06T09:45:48Z</time>
      </trkpt>
      <trkpt lat="48.49704" lon="1.99212">
        <ele>139.2</ele>
        <time>2022-08-06T09:45:52Z</time>
      </trkpt>
      <trkpt lat="48.49698" lon="1.99212">
        <ele>140.1</ele>
        <time>2022-08-06T09:45:56Z</time>
      </trkpt>
      <trkpt lat="48.49692" lon="1.9921">
        <ele>140.9</ele>
        <time>2022-08-06T09:46:00Z</time>
      </trkpt>
      <trkpt lat="48.49688" lon="1.99208">
        <ele>141.4</ele>
        <time>2022-08-06T09:46:04Z</time>
      </trkpt>
      <trkpt lat="48.49683" lon="1.99205">
        <ele>142.1</ele>
        <time>2022-08-06T09:46:08Z</time>
      </trkpt>
      <trkpt lat="48.49677" lon="1.99203">
        <ele>142.8</ele>
        <time>2022-08-06T09:46:12Z</time>
      </trkpt>
      <trkpt lat="48.49672" lon="1.99199">
        <ele>143.4</ele>
        <time>2022-08-06T09:46:16Z</time>
      </trkpt>
      <trkpt lat="48.49666" lon="1.99195">
        <ele>144.2</ele>
        <time>2022-08-06T09:46:20Z</time>
      </trkpt>
      <trkpt lat="48.49659" lon="1.99193">
        <ele>145</ele>
        <time>2022-08-06T09:46:24Z</time>
      </trkpt>
      <trkpt lat="48.49652" lon="1.99196">
        <ele>146.1</ele>
        <time>2022-08-06T09:46:28Z</time>
      </trkpt>
      <trkpt lat="48.49646" lon="1.99203">
        <ele>147.3</ele>
        <time>2022-08-06T09:46:32Z</time>
      </trkpt>
      <trkpt lat="48.49641" lon="1.99209">
        <ele>148.3</ele>
        <time>2022-08-06T09:46:36Z</time>
      </trkpt>
      <trkpt lat="48.49635" lon="1.99215">
        <ele>149</ele>
        <time>2022-08-06T09:46:42Z</time>
      </trkpt>
      <trkpt lat="48.49628" lon="1.99216">
        <ele>149.6</ele>
        <time>2022-08-06T09:46:46Z</time>
      </trkpt>
      <trkpt lat="48.49622" lon="1.99216">
        <ele>150</ele>
        <time>2022-08-06T09:46:50Z</time>
      </trkpt>
      <trkpt lat="48.4962" lon="1.99209">
        <ele>149.9</ele>
        <time>2022-08-06T09:46:54Z</time>
      </trkpt>
      <trkpt lat="48.49617" lon="1.992">
        <ele>149.8</ele>
        <time>2022-08-06T09:46:58Z</time>
      </trkpt>
      <trkpt lat="48.4961" lon="1.99189">
        <ele>149.9</ele>
        <time>2022-08-06T09:47:02Z</time>
      </trkpt>
      <trkpt lat="48.49606" lon="1.99183">
        <ele>150</ele>
        <time>2022-08-06T09:47:04Z</time>
      </trkpt>
      <trkpt lat="48.49599" lon="1.99171">
        <ele>150.4</ele>
        <time>2022-08-06T09:47:08Z</time>
      </trkpt>
      <trkpt lat="48.49594" lon="1.99165">
        <ele>150.8</ele>
        <time>2022-08-06T09:47:10Z</time>
      </trkpt>
      <trkpt lat="48.49591" lon="1.99159">
        <ele>151</ele>
        <time>2022-08-06T09:47:12Z</time>
      </trkpt>
      <trkpt lat="48.49587" lon="1.99151">
        <ele>151.1</ele>
        <time>2022-08-06T09:47:14Z</time>
      </trkpt>
      <trkpt lat="48.49584" lon="1.99144">
        <ele>151.1</ele>
        <time>2022-08-06T09:47:16Z</time>
      </trkpt>
      <trkpt lat="48.49579" lon="1.99134">
        <ele>151</ele>
        <time>2022-08-06T09:47:18Z</time>
      </trkpt>
      <trkpt lat="48.49575" lon="1.99126">
        <ele>151</ele>
        <time>2022-08-06T09:47:20Z</time>
      </trkpt>
      <trkpt lat="48.49572" lon="1.99118">
        <ele>151</ele>
        <time>2022-08-06T09:47:22Z</time>
      </trkpt>
      <trkpt lat="48.49568" lon="1.99108">
        <ele>151</ele>
        <time>2022-08-06T09:47:24Z</time>
      </trkpt>
      <trkpt lat="48.49567" lon="1.99099">
        <ele>150.9</ele>
        <time>2022-08-06T09:47:26Z</time>
      </trkpt>
      <trkpt lat="48.49565" lon="1.99086">
        <ele>150.7</ele>
        <time>2022-08-06T09:47:28Z</time>
      </trkpt>
      <trkpt lat="48.4956" lon="1.99073">
        <ele>150.8</ele>
        <time>2022-08-06T09:47:30Z</time>
      </trkpt>
      <trkpt lat="48.4956" lon="1.99062">
        <ele>150.7</ele>
        <time>2022-08-06T09:47:32Z</time>
      </trkpt>
      <trkpt lat="48.49559" lon="1.99049">
        <ele>150.8</ele>
        <time>2022-08-06T09:47:34Z</time>
      </trkpt>
      <trkpt lat="48.49559" lon="1.99037">
        <ele>150.7</ele>
        <time>2022-08-06T09:47:36Z</time>
      </trkpt>
      <trkpt lat="48.49558" lon="1.99024">
        <ele>150.7</ele>
        <time>2022-08-06T09:47:38Z</time>
      </trkpt>
      <trkpt lat="48.49553" lon="1.9901">
        <ele>150.5</ele>
        <time>2022-08-06T09:47:40Z</time>
      </trkpt>
      <trkpt lat="48.49548" lon="1.98997">
        <ele>150.5</ele>
        <time>2022-08-06T09:47:42Z</time>
      </trkpt>
      <trkpt lat="48.49541" lon="1.98985">
        <ele>150.8</ele>
        <time>2022-08-06T09:47:44Z</time>
      </trkpt>
      <trkpt lat="48.49535" lon="1.98971">
        <ele>150.8</ele>
        <time>2022-08-06T09:47:46Z</time>
      </trkpt>
      <trkpt lat="48.49529" lon="1.98959">
        <ele>150.9</ele>
        <time>2022-08-06T09:47:48Z</time>
      </trkpt>
      <trkpt lat="48.49523" lon="1.98947">
        <ele>151.2</ele>
        <time>2022-08-06T09:47:50Z</time>
      </trkpt>
      <trkpt lat="48.49519" lon="1.9894">
        <ele>151.2</ele>
        <time>2022-08-06T09:47:52Z</time>
      </trkpt>
      <trkpt lat="48.49513" lon="1.9893">
        <ele>151.3</ele>
        <time>2022-08-06T09:47:54Z</time>
      </trkpt>
      <trkpt lat="48.49508" lon="1.98919">
        <ele>151.4</ele>
        <time>2022-08-06T09:47:56Z</time>
      </trkpt>
      <trkpt lat="48.49502" lon="1.98911">
        <ele>151.7</ele>
        <time>2022-08-06T09:47:58Z</time>
      </trkpt>
      <trkpt lat="48.49497" lon="1.98902">
        <ele>151.6</ele>
        <time>2022-08-06T09:48:00Z</time>
      </trkpt>
      <trkpt lat="48.49493" lon="1.98894">
        <ele>151.4</ele>
        <time>2022-08-06T09:48:02Z</time>
      </trkpt>
      <trkpt lat="48.49487" lon="1.98885">
        <ele>151.5</ele>
        <time>2022-08-06T09:48:04Z</time>
      </trkpt>
      <trkpt lat="48.49484" lon="1.98874">
        <ele>151.6</ele>
        <time>2022-08-06T09:48:06Z</time>
      </trkpt>
      <trkpt lat="48.49481" lon="1.98863">
        <ele>151.7</ele>
        <time>2022-08-06T09:48:08Z</time>
      </trkpt>
      <trkpt lat="48.49475" lon="1.98853">
        <ele>151.6</ele>
        <time>2022-08-06T09:48:10Z</time>
      </trkpt>
      <trkpt lat="48.49469" lon="1.98841">
        <ele>151.4</ele>
        <time>2022-08-06T09:48:12Z</time>
      </trkpt>
      <trkpt lat="48.49463" lon="1.98832">
        <ele>151.3</ele>
        <time>2022-08-06T09:48:14Z</time>
      </trkpt>
      <trkpt lat="48.49459" lon="1.98824">
        <ele>151.2</ele>
        <time>2022-08-06T09:48:16Z</time>
      </trkpt>
      <trkpt lat="48.49454" lon="1.98816">
        <ele>151</ele>
        <time>2022-08-06T09:48:20Z</time>
      </trkpt>
      <trkpt lat="48.49458" lon="1.9881">
        <ele>150.7</ele>
        <time>2022-08-06T09:48:24Z</time>
      </trkpt>
      <trkpt lat="48.49462" lon="1.98805">
        <ele>150.4</ele>
        <time>2022-08-06T09:48:26Z</time>
      </trkpt>
      <trkpt lat="48.49468" lon="1.98797">
        <ele>149.8</ele>
        <time>2022-08-06T09:48:28Z</time>
      </trkpt>
      <trkpt lat="48.49476" lon="1.98783">
        <ele>148.8</ele>
        <time>2022-08-06T09:48:30Z</time>
      </trkpt>
      <trkpt lat="48.49483" lon="1.98769">
        <ele>146.9</ele>
        <time>2022-08-06T09:48:32Z</time>
      </trkpt>
      <trkpt lat="48.49491" lon="1.98755">
        <ele>145</ele>
        <time>2022-08-06T09:48:34Z</time>
      </trkpt>
      <trkpt lat="48.49497" lon="1.98743">
        <ele>143.4</ele>
        <time>2022-08-06T09:48:36Z</time>
      </trkpt>
      <trkpt lat="48.49505" lon="1.98728">
        <ele>140.9</ele>
        <time>2022-08-06T09:48:38Z</time>
      </trkpt>
      <trkpt lat="48.49514" lon="1.98715">
        <ele>138</ele>
        <time>2022-08-06T09:48:40Z</time>
      </trkpt>
      <trkpt lat="48.49524" lon="1.98697">
        <ele>134.1</ele>
        <time>2022-08-06T09:48:42Z</time>
      </trkpt>
      <trkpt lat="48.49537" lon="1.98677">
        <ele>131.4</ele>
        <time>2022-08-06T09:48:44Z</time>
      </trkpt>
      <trkpt lat="48.49546" lon="1.98661">
        <ele>130.2</ele>
        <time>2022-08-06T09:48:46Z</time>
      </trkpt>
      <trkpt lat="48.49552" lon="1.98646">
        <ele>130</ele>
        <time>2022-08-06T09:48:48Z</time>
      </trkpt>
      <trkpt lat="48.49557" lon="1.98638">
        <ele>129.8</ele>
        <time>2022-08-06T09:48:50Z</time>
      </trkpt>
      <trkpt lat="48.4956" lon="1.98632">
        <ele>129.1</ele>
        <time>2022-08-06T09:48:52Z</time>
      </trkpt>
      <trkpt lat="48.49565" lon="1.98625">
        <ele>128.2</ele>
        <time>2022-08-06T09:48:54Z</time>
      </trkpt>
      <trkpt lat="48.49571" lon="1.98613">
        <ele>126.8</ele>
        <time>2022-08-06T09:48:56Z</time>
      </trkpt>
      <trkpt lat="48.49577" lon="1.98599">
        <ele>125.5</ele>
        <time>2022-08-06T09:48:58Z</time>
      </trkpt>
      <trkpt lat="48.4959" lon="1.9859">
        <ele>123.8</ele>
        <time>2022-08-06T09:49:00Z</time>
      </trkpt>
      <trkpt lat="48.496" lon="1.98576">
        <ele>122.7</ele>
        <time>2022-08-06T09:49:02Z</time>
      </trkpt>
      <trkpt lat="48.49611" lon="1.98565">
        <ele>122</ele>
        <time>2022-08-06T09:49:04Z</time>
      </trkpt>
      <trkpt lat="48.49622" lon="1.98554">
        <ele>122.1</ele>
        <time>2022-08-06T09:49:06Z</time>
      </trkpt>
      <trkpt lat="48.49632" lon="1.98545">
        <ele>122.4</ele>
        <time>2022-08-06T09:49:08Z</time>
      </trkpt>
      <trkpt lat="48.49641" lon="1.98537">
        <ele>122.8</ele>
        <time>2022-08-06T09:49:10Z</time>
      </trkpt>
      <trkpt lat="48.4965" lon="1.98526">
        <ele>123.5</ele>
        <time>2022-08-06T09:49:12Z</time>
      </trkpt>
      <trkpt lat="48.49658" lon="1.98519">
        <ele>124.3</ele>
        <time>2022-08-06T09:49:14Z</time>
      </trkpt>
      <trkpt lat="48.49663" lon="1.98513">
        <ele>124.9</ele>
        <time>2022-08-06T09:49:16Z</time>
      </trkpt>
      <trkpt lat="48.4967" lon="1.98508">
        <ele>125.7</ele>
        <time>2022-08-06T09:49:18Z</time>
      </trkpt>
      <trkpt lat="48.49675" lon="1.98502">
        <ele>126.5</ele>
        <time>2022-08-06T09:49:20Z</time>
      </trkpt>
      <trkpt lat="48.49681" lon="1.98498">
        <ele>127.1</ele>
        <time>2022-08-06T09:49:22Z</time>
      </trkpt>
      <trkpt lat="48.49687" lon="1.98495">
        <ele>127.8</ele>
        <time>2022-08-06T09:49:24Z</time>
      </trkpt>
      <trkpt lat="48.49691" lon="1.98491">
        <ele>128.3</ele>
        <time>2022-08-06T09:49:26Z</time>
      </trkpt>
      <trkpt lat="48.49694" lon="1.98484">
        <ele>129.1</ele>
        <time>2022-08-06T09:49:32Z</time>
      </trkpt>
      <trkpt lat="48.497" lon="1.98476">
        <ele>130.3</ele>
        <time>2022-08-06T09:49:36Z</time>
      </trkpt>
      <trkpt lat="48.49704" lon="1.98471">
        <ele>131.1</ele>
        <time>2022-08-06T09:49:40Z</time>
      </trkpt>
      <trkpt lat="48.49707" lon="1.98464">
        <ele>131.8</ele>
        <time>2022-08-06T09:49:44Z</time>
      </trkpt>
      <trkpt lat="48.49714" lon="1.98459">
        <ele>132.9</ele>
        <time>2022-08-06T09:49:48Z</time>
      </trkpt>
      <trkpt lat="48.49717" lon="1.98453">
        <ele>133.7</ele>
        <time>2022-08-06T09:49:50Z</time>
      </trkpt>
      <trkpt lat="48.49721" lon="1.98449">
        <ele>134.5</ele>
        <time>2022-08-06T09:49:54Z</time>
      </trkpt>
      <trkpt lat="48.49727" lon="1.98444">
        <ele>136</ele>
        <time>2022-08-06T09:49:58Z</time>
      </trkpt>
      <trkpt lat="48.49733" lon="1.98439">
        <ele>137.2</ele>
        <time>2022-08-06T09:50:02Z</time>
      </trkpt>
      <trkpt lat="48.49739" lon="1.98436">
        <ele>138.4</ele>
        <time>2022-08-06T09:50:06Z</time>
      </trkpt>
      <trkpt lat="48.49745" lon="1.9843">
        <ele>140.1</ele>
        <time>2022-08-06T09:50:10Z</time>
      </trkpt>
      <trkpt lat="48.49752" lon="1.98427">
        <ele>141.5</ele>
        <time>2022-08-06T09:50:14Z</time>
      </trkpt>
      <trkpt lat="48.49758" lon="1.98421">
        <ele>142.8</ele>
        <time>2022-08-06T09:50:20Z</time>
      </trkpt>
      <trkpt lat="48.49764" lon="1.98418">
        <ele>143.9</ele>
        <time>2022-08-06T09:50:24Z</time>
      </trkpt>
      <trkpt lat="48.49769" lon="1.98414">
        <ele>144.7</ele>
        <time>2022-08-06T09:50:28Z</time>
      </trkpt>
      <trkpt lat="48.49775" lon="1.98409">
        <ele>145.6</ele>
        <time>2022-08-06T09:50:32Z</time>
      </trkpt>
      <trkpt lat="48.4978" lon="1.98406">
        <ele>146.2</ele>
        <time>2022-08-06T09:50:36Z</time>
      </trkpt>
      <trkpt lat="48.49786" lon="1.98403">
        <ele>146.7</ele>
        <time>2022-08-06T09:50:40Z</time>
      </trkpt>
      <trkpt lat="48.49791" lon="1.98397">
        <ele>147.3</ele>
        <time>2022-08-06T09:50:44Z</time>
      </trkpt>
      <trkpt lat="48.49796" lon="1.9839">
        <ele>147.9</ele>
        <time>2022-08-06T09:50:48Z</time>
      </trkpt>
      <trkpt lat="48.49803" lon="1.98386">
        <ele>148.7</ele>
        <time>2022-08-06T09:50:52Z</time>
      </trkpt>
      <trkpt lat="48.49809" lon="1.98379">
        <ele>149.1</ele>
        <time>2022-08-06T09:50:56Z</time>
      </trkpt>
      <trkpt lat="48.49816" lon="1.98373">
        <ele>149.4</ele>
        <time>2022-08-06T09:51:00Z</time>
      </trkpt>
      <trkpt lat="48.49822" lon="1.98367">
        <ele>149.6</ele>
        <time>2022-08-06T09:51:04Z</time>
      </trkpt>
      <trkpt lat="48.4983" lon="1.98363">
        <ele>149.9</ele>
        <time>2022-08-06T09:51:08Z</time>
      </trkpt>
      <trkpt lat="48.49836" lon="1.98357">
        <ele>150.1</ele>
        <time>2022-08-06T09:51:12Z</time>
      </trkpt>
      <trkpt lat="48.49842" lon="1.98353">
        <ele>150.3</ele>
        <time>2022-08-06T09:51:14Z</time>
      </trkpt>
      <trkpt lat="48.49851" lon="1.98347">
        <ele>150.6</ele>
        <time>2022-08-06T09:51:18Z</time>
      </trkpt>
      <trkpt lat="48.49856" lon="1.98345">
        <ele>150.8</ele>
        <time>2022-08-06T09:51:20Z</time>
      </trkpt>
      <trkpt lat="48.49862" lon="1.9834">
        <ele>151</ele>
        <time>2022-08-06T09:51:22Z</time>
      </trkpt>
      <trkpt lat="48.49869" lon="1.98334">
        <ele>151.3</ele>
        <time>2022-08-06T09:51:24Z</time>
      </trkpt>
      <trkpt lat="48.49876" lon="1.9833">
        <ele>151.4</ele>
        <time>2022-08-06T09:51:26Z</time>
      </trkpt>
      <trkpt lat="48.49881" lon="1.98326">
        <ele>151.4</ele>
        <time>2022-08-06T09:51:28Z</time>
      </trkpt>
      <trkpt lat="48.49887" lon="1.98324">
        <ele>151.6</ele>
        <time>2022-08-06T09:51:30Z</time>
      </trkpt>
      <trkpt lat="48.49894" lon="1.98319">
        <ele>151.5</ele>
        <time>2022-08-06T09:51:32Z</time>
      </trkpt>
      <trkpt lat="48.49903" lon="1.98316">
        <ele>151.4</ele>
        <time>2022-08-06T09:51:34Z</time>
      </trkpt>
      <trkpt lat="48.4991" lon="1.98311">
        <ele>151.2</ele>
        <time>2022-08-06T09:51:36Z</time>
      </trkpt>
      <trkpt lat="48.49919" lon="1.98309">
        <ele>151.2</ele>
        <time>2022-08-06T09:51:38Z</time>
      </trkpt>
      <trkpt lat="48.49927" lon="1.98307">
        <ele>151.4</ele>
        <time>2022-08-06T09:51:40Z</time>
      </trkpt>
      <trkpt lat="48.49934" lon="1.98304">
        <ele>151.6</ele>
        <time>2022-08-06T09:51:42Z</time>
      </trkpt>
      <trkpt lat="48.49943" lon="1.98299">
        <ele>151.7</ele>
        <time>2022-08-06T09:51:44Z</time>
      </trkpt>
      <trkpt lat="48.49948" lon="1.98297">
        <ele>151.7</ele>
        <time>2022-08-06T09:51:46Z</time>
      </trkpt>
      <trkpt lat="48.49955" lon="1.98294">
        <ele>151.6</ele>
        <time>2022-08-06T09:51:48Z</time>
      </trkpt>
      <trkpt lat="48.49963" lon="1.98292">
        <ele>151.5</ele>
        <time>2022-08-06T09:51:50Z</time>
      </trkpt>
      <trkpt lat="48.49972" lon="1.98289">
        <ele>151.4</ele>
        <time>2022-08-06T09:51:52Z</time>
      </trkpt>
      <trkpt lat="48.4998" lon="1.98286">
        <ele>151.5</ele>
        <time>2022-08-06T09:51:54Z</time>
      </trkpt>
      <trkpt lat="48.4999" lon="1.98283">
        <ele>151.7</ele>
        <time>2022-08-06T09:51:56Z</time>
      </trkpt>
      <trkpt lat="48.49994" lon="1.98279">
        <ele>151.8</ele>
        <time>2022-08-06T09:51:58Z</time>
      </trkpt>
      <trkpt lat="48.50004" lon="1.98277">
        <ele>152</ele>
        <time>2022-08-06T09:52:02Z</time>
      </trkpt>
      <trkpt lat="48.50013" lon="1.98275">
        <ele>152</ele>
        <time>2022-08-06T09:52:04Z</time>
      </trkpt>
      <trkpt lat="48.50018" lon="1.98272">
        <ele>152</ele>
        <time>2022-08-06T09:52:06Z</time>
      </trkpt>
      <trkpt lat="48.50025" lon="1.9827">
        <ele>152</ele>
        <time>2022-08-06T09:52:08Z</time>
      </trkpt>
      <trkpt lat="48.50031" lon="1.98268">
        <ele>152</ele>
        <time>2022-08-06T09:52:10Z</time>
      </trkpt>
      <trkpt lat="48.50037" lon="1.98265">
        <ele>152</ele>
        <time>2022-08-06T09:52:12Z</time>
      </trkpt>
      <trkpt lat="48.5004" lon="1.9826">
        <ele>152</ele>
        <time>2022-08-06T09:52:14Z</time>
      </trkpt>
      <trkpt lat="48.50051" lon="1.98263">
        <ele>152</ele>
        <time>2022-08-06T09:52:16Z</time>
      </trkpt>
      <trkpt lat="48.50059" lon="1.98264">
        <ele>152.1</ele>
        <time>2022-08-06T09:52:18Z</time>
      </trkpt>
      <trkpt lat="48.50067" lon="1.98267">
        <ele>152.4</ele>
        <time>2022-08-06T09:52:20Z</time>
      </trkpt>
      <trkpt lat="48.50073" lon="1.98269">
        <ele>152.6</ele>
        <time>2022-08-06T09:52:22Z</time>
      </trkpt>
      <trkpt lat="48.50083" lon="1.98272">
        <ele>153</ele>
        <time>2022-08-06T09:52:24Z</time>
      </trkpt>
      <trkpt lat="48.50092" lon="1.98275">
        <ele>153</ele>
        <time>2022-08-06T09:52:26Z</time>
      </trkpt>
      <trkpt lat="48.501" lon="1.98276">
        <ele>153</ele>
        <time>2022-08-06T09:52:28Z</time>
      </trkpt>
      <trkpt lat="48.5011" lon="1.98279">
        <ele>153</ele>
        <time>2022-08-06T09:52:30Z</time>
      </trkpt>
      <trkpt lat="48.50118" lon="1.98278">
        <ele>153</ele>
        <time>2022-08-06T09:52:32Z</time>
      </trkpt>
      <trkpt lat="48.50127" lon="1.98277">
        <ele>153</ele>
        <time>2022-08-06T09:52:34Z</time>
      </trkpt>
      <trkpt lat="48.50137" lon="1.98274">
        <ele>153</ele>
        <time>2022-08-06T09:52:36Z</time>
      </trkpt>
      <trkpt lat="48.50144" lon="1.98267">
        <ele>153.2</ele>
        <time>2022-08-06T09:52:38Z</time>
      </trkpt>
      <trkpt lat="48.50151" lon="1.9826">
        <ele>153.4</ele>
        <time>2022-08-06T09:52:40Z</time>
      </trkpt>
      <trkpt lat="48.50156" lon="1.98257">
        <ele>153.6</ele>
        <time>2022-08-06T09:52:42Z</time>
      </trkpt>
      <trkpt lat="48.50165" lon="1.98254">
        <ele>153.9</ele>
        <time>2022-08-06T09:52:44Z</time>
      </trkpt>
      <trkpt lat="48.50172" lon="1.98248">
        <ele>153.9</ele>
        <time>2022-08-06T09:52:46Z</time>
      </trkpt>
      <trkpt lat="48.50178" lon="1.98243">
        <ele>153.9</ele>
        <time>2022-08-06T09:52:48Z</time>
      </trkpt>
      <trkpt lat="48.50184" lon="1.9824">
        <ele>153.9</ele>
        <time>2022-08-06T09:52:50Z</time>
      </trkpt>
      <trkpt lat="48.50191" lon="1.98233">
        <ele>153.9</ele>
        <time>2022-08-06T09:52:52Z</time>
      </trkpt>
      <trkpt lat="48.50198" lon="1.98229">
        <ele>154</ele>
        <time>2022-08-06T09:52:54Z</time>
      </trkpt>
      <trkpt lat="48.50205" lon="1.98224">
        <ele>154</ele>
        <time>2022-08-06T09:52:56Z</time>
      </trkpt>
      <trkpt lat="48.50214" lon="1.9822">
        <ele>154</ele>
        <time>2022-08-06T09:52:58Z</time>
      </trkpt>
      <trkpt lat="48.50226" lon="1.98214">
        <ele>154</ele>
        <time>2022-08-06T09:53:00Z</time>
      </trkpt>
      <trkpt lat="48.50236" lon="1.98207">
        <ele>154</ele>
        <time>2022-08-06T09:53:02Z</time>
      </trkpt>
      <trkpt lat="48.50244" lon="1.98203">
        <ele>154</ele>
        <time>2022-08-06T09:53:04Z</time>
      </trkpt>
      <trkpt lat="48.50253" lon="1.98198">
        <ele>154</ele>
        <time>2022-08-06T09:53:06Z</time>
      </trkpt>
      <trkpt lat="48.50263" lon="1.98195">
        <ele>154</ele>
        <time>2022-08-06T09:53:08Z</time>
      </trkpt>
      <trkpt lat="48.50268" lon="1.98191">
        <ele>154</ele>
        <time>2022-08-06T09:53:10Z</time>
      </trkpt>
      <trkpt lat="48.50278" lon="1.98185">
        <ele>154</ele>
        <time>2022-08-06T09:53:12Z</time>
      </trkpt>
      <trkpt lat="48.5029" lon="1.98181">
        <ele>154</ele>
        <time>2022-08-06T09:53:14Z</time>
      </trkpt>
      <trkpt lat="48.50301" lon="1.98174">
        <ele>154</ele>
        <time>2022-08-06T09:53:16Z</time>
      </trkpt>
      <trkpt lat="48.50309" lon="1.98166">
        <ele>154</ele>
        <time>2022-08-06T09:53:18Z</time>
      </trkpt>
      <trkpt lat="48.50313" lon="1.98159">
        <ele>153.8</ele>
        <time>2022-08-06T09:53:20Z</time>
      </trkpt>
      <trkpt lat="48.50321" lon="1.98151">
        <ele>153.7</ele>
        <time>2022-08-06T09:53:22Z</time>
      </trkpt>
      <trkpt lat="48.50326" lon="1.98146">
        <ele>153.8</ele>
        <time>2022-08-06T09:53:24Z</time>
      </trkpt>
      <trkpt lat="48.5033" lon="1.98147">
        <ele>153.9</ele>
        <time>2022-08-06T09:53:36Z</time>
      </trkpt>
      <trkpt lat="48.50335" lon="1.98142">
        <ele>154</ele>
        <time>2022-08-06T09:53:54Z</time>
      </trkpt>
      <trkpt lat="48.50341" lon="1.98132">
        <ele>154</ele>
        <time>2022-08-06T09:53:58Z</time>
      </trkpt>
      <trkpt lat="48.50349" lon="1.98122">
        <ele>154</ele>
        <time>2022-08-06T09:54:02Z</time>
      </trkpt>
      <trkpt lat="48.50356" lon="1.98115">
        <ele>154</ele>
        <time>2022-08-06T09:54:04Z</time>
      </trkpt>
      <trkpt lat="48.50362" lon="1.98107">
        <ele>154</ele>
        <time>2022-08-06T09:54:06Z</time>
      </trkpt>
      <trkpt lat="48.50369" lon="1.98096">
        <ele>154.1</ele>
        <time>2022-08-06T09:54:08Z</time>
      </trkpt>
      <trkpt lat="48.50375" lon="1.98088">
        <ele>154.1</ele>
        <time>2022-08-06T09:54:10Z</time>
      </trkpt>
      <trkpt lat="48.50383" lon="1.98079">
        <ele>154</ele>
        <time>2022-08-06T09:54:12Z</time>
      </trkpt>
      <trkpt lat="48.50389" lon="1.98069">
        <ele>154</ele>
        <time>2022-08-06T09:54:14Z</time>
      </trkpt>
      <trkpt lat="48.50396" lon="1.98061">
        <ele>154.3</ele>
        <time>2022-08-06T09:54:16Z</time>
      </trkpt>
      <trkpt lat="48.50404" lon="1.98052">
        <ele>154.5</ele>
        <time>2022-08-06T09:54:18Z</time>
      </trkpt>
      <trkpt lat="48.50409" lon="1.98043">
        <ele>154.7</ele>
        <time>2022-08-06T09:54:20Z</time>
      </trkpt>
      <trkpt lat="48.50416" lon="1.98034">
        <ele>155</ele>
        <time>2022-08-06T09:54:22Z</time>
      </trkpt>
      <trkpt lat="48.50423" lon="1.98026">
        <ele>155</ele>
        <time>2022-08-06T09:54:24Z</time>
      </trkpt>
      <trkpt lat="48.50429" lon="1.98019">
        <ele>155</ele>
        <time>2022-08-06T09:54:26Z</time>
      </trkpt>
      <trkpt lat="48.50436" lon="1.98013">
        <ele>155</ele>
        <time>2022-08-06T09:54:28Z</time>
      </trkpt>
      <trkpt lat="48.50441" lon="1.98005">
        <ele>155</ele>
        <time>2022-08-06T09:54:30Z</time>
      </trkpt>
      <trkpt lat="48.50448" lon="1.97998">
        <ele>155</ele>
        <time>2022-08-06T09:54:32Z</time>
      </trkpt>
      <trkpt lat="48.50453" lon="1.9799">
        <ele>155</ele>
        <time>2022-08-06T09:54:34Z</time>
      </trkpt>
      <trkpt lat="48.50458" lon="1.97983">
        <ele>155</ele>
        <time>2022-08-06T09:54:36Z</time>
      </trkpt>
      <trkpt lat="48.50464" lon="1.97975">
        <ele>155</ele>
        <time>2022-08-06T09:54:38Z</time>
      </trkpt>
      <trkpt lat="48.50468" lon="1.97967">
        <ele>155</ele>
        <time>2022-08-06T09:54:40Z</time>
      </trkpt>
      <trkpt lat="48.50472" lon="1.9796">
        <ele>155</ele>
        <time>2022-08-06T09:54:42Z</time>
      </trkpt>
      <trkpt lat="48.50477" lon="1.97953">
        <ele>155.2</ele>
        <time>2022-08-06T09:54:44Z</time>
      </trkpt>
      <trkpt lat="48.50481" lon="1.97948">
        <ele>155.3</ele>
        <time>2022-08-06T09:54:46Z</time>
      </trkpt>
      <trkpt lat="48.50484" lon="1.97944">
        <ele>155.4</ele>
        <time>2022-08-06T09:54:48Z</time>
      </trkpt>
      <trkpt lat="48.5049" lon="1.97934">
        <ele>155.7</ele>
        <time>2022-08-06T09:54:52Z</time>
      </trkpt>
      <trkpt lat="48.50494" lon="1.97929">
        <ele>155.8</ele>
        <time>2022-08-06T09:54:54Z</time>
      </trkpt>
      <trkpt lat="48.50501" lon="1.97921">
        <ele>156</ele>
        <time>2022-08-06T09:54:58Z</time>
      </trkpt>
      <trkpt lat="48.50505" lon="1.97917">
        <ele>156</ele>
        <time>2022-08-06T09:55:00Z</time>
      </trkpt>
      <trkpt lat="48.50508" lon="1.97912">
        <ele>155.9</ele>
        <time>2022-08-06T09:55:02Z</time>
      </trkpt>
      <trkpt lat="48.50512" lon="1.97907">
        <ele>155.8</ele>
        <time>2022-08-06T09:55:04Z</time>
      </trkpt>
      <trkpt lat="48.50516" lon="1.97901">
        <ele>155.8</ele>
        <time>2022-08-06T09:55:06Z</time>
      </trkpt>
      <trkpt lat="48.5052" lon="1.97896">
        <ele>155.8</ele>
        <time>2022-08-06T09:55:08Z</time>
      </trkpt>
      <trkpt lat="48.50525" lon="1.9789">
        <ele>155.9</ele>
        <time>2022-08-06T09:55:10Z</time>
      </trkpt>
      <trkpt lat="48.50529" lon="1.97883">
        <ele>155.8</ele>
        <time>2022-08-06T09:55:12Z</time>
      </trkpt>
      <trkpt lat="48.50534" lon="1.97876">
        <ele>155.6</ele>
        <time>2022-08-06T09:55:14Z</time>
      </trkpt>
      <trkpt lat="48.50539" lon="1.9787">
        <ele>155.6</ele>
        <time>2022-08-06T09:55:16Z</time>
      </trkpt>
      <trkpt lat="48.50543" lon="1.97863">
        <ele>155.6</ele>
        <time>2022-08-06T09:55:18Z</time>
      </trkpt>
      <trkpt lat="48.50546" lon="1.97857">
        <ele>155.6</ele>
        <time>2022-08-06T09:55:20Z</time>
      </trkpt>
      <trkpt lat="48.50549" lon="1.97851">
        <ele>155.5</ele>
        <time>2022-08-06T09:55:22Z</time>
      </trkpt>
      <trkpt lat="48.50554" lon="1.97843">
        <ele>155.3</ele>
        <time>2022-08-06T09:55:24Z</time>
      </trkpt>
      <trkpt lat="48.50559" lon="1.97835">
        <ele>155.2</ele>
        <time>2022-08-06T09:55:26Z</time>
      </trkpt>
      <trkpt lat="48.50563" lon="1.97828">
        <ele>155.2</ele>
        <time>2022-08-06T09:55:28Z</time>
      </trkpt>
      <trkpt lat="48.50567" lon="1.97824">
        <ele>155.3</ele>
        <time>2022-08-06T09:55:30Z</time>
      </trkpt>
      <trkpt lat="48.5057" lon="1.97834">
        <ele>155.5</ele>
        <time>2022-08-06T09:55:34Z</time>
      </trkpt>
      <trkpt lat="48.50573" lon="1.97846">
        <ele>155.8</ele>
        <time>2022-08-06T09:55:38Z</time>
      </trkpt>
      <trkpt lat="48.50575" lon="1.97856">
        <ele>155.9</ele>
        <time>2022-08-06T09:55:40Z</time>
      </trkpt>
      <trkpt lat="48.50576" lon="1.97868">
        <ele>156</ele>
        <time>2022-08-06T09:55:42Z</time>
      </trkpt>
      <trkpt lat="48.50579" lon="1.9788">
        <ele>156</ele>
        <time>2022-08-06T09:55:44Z</time>
      </trkpt>
      <trkpt lat="48.5058" lon="1.97893">
        <ele>156</ele>
        <time>2022-08-06T09:55:46Z</time>
      </trkpt>
      <trkpt lat="48.50583" lon="1.97908">
        <ele>156</ele>
        <time>2022-08-06T09:55:48Z</time>
      </trkpt>
      <trkpt lat="48.50587" lon="1.97922">
        <ele>156</ele>
        <time>2022-08-06T09:55:50Z</time>
      </trkpt>
      <trkpt lat="48.50588" lon="1.97933">
        <ele>156</ele>
        <time>2022-08-06T09:55:52Z</time>
      </trkpt>
      <trkpt lat="48.50593" lon="1.97945">
        <ele>156</ele>
        <time>2022-08-06T09:55:54Z</time>
      </trkpt>
      <trkpt lat="48.50599" lon="1.97957">
        <ele>156</ele>
        <time>2022-08-06T09:55:56Z</time>
      </trkpt>
      <trkpt lat="48.50605" lon="1.97972">
        <ele>156</ele>
        <time>2022-08-06T09:55:58Z</time>
      </trkpt>
      <trkpt lat="48.5061" lon="1.97986">
        <ele>156</ele>
        <time>2022-08-06T09:56:00Z</time>
      </trkpt>
      <trkpt lat="48.50617" lon="1.97997">
        <ele>156</ele>
        <time>2022-08-06T09:56:02Z</time>
      </trkpt>
      <trkpt lat="48.5062" lon="1.9801">
        <ele>156</ele>
        <time>2022-08-06T09:56:04Z</time>
      </trkpt>
      <trkpt lat="48.50624" lon="1.98023">
        <ele>156</ele>
        <time>2022-08-06T09:56:06Z</time>
      </trkpt>
      <trkpt lat="48.50628" lon="1.98035">
        <ele>156</ele>
        <time>2022-08-06T09:56:08Z</time>
      </trkpt>
      <trkpt lat="48.50631" lon="1.98049">
        <ele>156</ele>
        <time>2022-08-06T09:56:10Z</time>
      </trkpt>
      <trkpt lat="48.50634" lon="1.98062">
        <ele>156</ele>
        <time>2022-08-06T09:56:12Z</time>
      </trkpt>
      <trkpt lat="48.50637" lon="1.98078">
        <ele>156</ele>
        <time>2022-08-06T09:56:14Z</time>
      </trkpt>
      <trkpt lat="48.50641" lon="1.98091">
        <ele>156</ele>
        <time>2022-08-06T09:56:16Z</time>
      </trkpt>
      <trkpt lat="48.50645" lon="1.98105">
        <ele>156</ele>
        <time>2022-08-06T09:56:18Z</time>
      </trkpt>
      <trkpt lat="48.50646" lon="1.9812">
        <ele>156</ele>
        <time>2022-08-06T09:56:20Z</time>
      </trkpt>
      <trkpt lat="48.50646" lon="1.98136">
        <ele>156</ele>
        <time>2022-08-06T09:56:22Z</time>
      </trkpt>
      <trkpt lat="48.50646" lon="1.9815">
        <ele>156</ele>
        <time>2022-08-06T09:56:24Z</time>
      </trkpt>
      <trkpt lat="48.50645" lon="1.98166">
        <ele>156</ele>
        <time>2022-08-06T09:56:26Z</time>
      </trkpt>
      <trkpt lat="48.50647" lon="1.9818">
        <ele>156</ele>
        <time>2022-08-06T09:56:28Z</time>
      </trkpt>
      <trkpt lat="48.50649" lon="1.98196">
        <ele>156</ele>
        <time>2022-08-06T09:56:30Z</time>
      </trkpt>
      <trkpt lat="48.50652" lon="1.9821">
        <ele>156</ele>
        <time>2022-08-06T09:56:32Z</time>
      </trkpt>
      <trkpt lat="48.50657" lon="1.98222">
        <ele>156</ele>
        <time>2022-08-06T09:56:34Z</time>
      </trkpt>
      <trkpt lat="48.50662" lon="1.98233">
        <ele>156</ele>
        <time>2022-08-06T09:56:36Z</time>
      </trkpt>
      <trkpt lat="48.50664" lon="1.98246">
        <ele>156</ele>
        <time>2022-08-06T09:56:38Z</time>
      </trkpt>
      <trkpt lat="48.50668" lon="1.98258">
        <ele>155.9</ele>
        <time>2022-08-06T09:56:40Z</time>
      </trkpt>
      <trkpt lat="48.50672" lon="1.98271">
        <ele>155.8</ele>
        <time>2022-08-06T09:56:42Z</time>
      </trkpt>
      <trkpt lat="48.50676" lon="1.98284">
        <ele>155.7</ele>
        <time>2022-08-06T09:56:44Z</time>
      </trkpt>
      <trkpt lat="48.50681" lon="1.98297">
        <ele>155.5</ele>
        <time>2022-08-06T09:56:46Z</time>
      </trkpt>
      <trkpt lat="48.50686" lon="1.98309">
        <ele>155.3</ele>
        <time>2022-08-06T09:56:48Z</time>
      </trkpt>
      <trkpt lat="48.5069" lon="1.98322">
        <ele>155.1</ele>
        <time>2022-08-06T09:56:50Z</time>
      </trkpt>
      <trkpt lat="48.50691" lon="1.98335">
        <ele>155</ele>
        <time>2022-08-06T09:56:52Z</time>
      </trkpt>
      <trkpt lat="48.50695" lon="1.98347">
        <ele>155</ele>
        <time>2022-08-06T09:56:54Z</time>
      </trkpt>
      <trkpt lat="48.50697" lon="1.9836">
        <ele>155</ele>
        <time>2022-08-06T09:56:56Z</time>
      </trkpt>
      <trkpt lat="48.50697" lon="1.98375">
        <ele>154.5</ele>
        <time>2022-08-06T09:56:58Z</time>
      </trkpt>
      <trkpt lat="48.50695" lon="1.98389">
        <ele>154</ele>
        <time>2022-08-06T09:57:00Z</time>
      </trkpt>
      <trkpt lat="48.50692" lon="1.98404">
        <ele>154</ele>
        <time>2022-08-06T09:57:02Z</time>
      </trkpt>
      <trkpt lat="48.50688" lon="1.98419">
        <ele>153.9</ele>
        <time>2022-08-06T09:57:04Z</time>
      </trkpt>
      <trkpt lat="48.50683" lon="1.98434">
        <ele>153.4</ele>
        <time>2022-08-06T09:57:06Z</time>
      </trkpt>
      <trkpt lat="48.5068" lon="1.9845">
        <ele>153</ele>
        <time>2022-08-06T09:57:08Z</time>
      </trkpt>
      <trkpt lat="48.50681" lon="1.98465">
        <ele>153</ele>
        <time>2022-08-06T09:57:10Z</time>
      </trkpt>
      <trkpt lat="48.50682" lon="1.98482">
        <ele>152.6</ele>
        <time>2022-08-06T09:57:12Z</time>
      </trkpt>
      <trkpt lat="48.50684" lon="1.985">
        <ele>152</ele>
        <time>2022-08-06T09:57:14Z</time>
      </trkpt>
      <trkpt lat="48.50686" lon="1.98517">
        <ele>151.8</ele>
        <time>2022-08-06T09:57:16Z</time>
      </trkpt>
      <trkpt lat="48.50689" lon="1.98534">
        <ele>151.6</ele>
        <time>2022-08-06T09:57:18Z</time>
      </trkpt>
      <trkpt lat="48.50691" lon="1.9855">
        <ele>151.2</ele>
        <time>2022-08-06T09:57:20Z</time>
      </trkpt>
      <trkpt lat="48.50693" lon="1.98567">
        <ele>150.6</ele>
        <time>2022-08-06T09:57:22Z</time>
      </trkpt>
      <trkpt lat="48.50694" lon="1.98582">
        <ele>150</ele>
        <time>2022-08-06T09:57:24Z</time>
      </trkpt>
      <trkpt lat="48.50699" lon="1.98599">
        <ele>148.9</ele>
        <time>2022-08-06T09:57:26Z</time>
      </trkpt>
      <trkpt lat="48.50704" lon="1.98614">
        <ele>148.1</ele>
        <time>2022-08-06T09:57:28Z</time>
      </trkpt>
      <trkpt lat="48.50703" lon="1.98631">
        <ele>146.9</ele>
        <time>2022-08-06T09:57:30Z</time>
      </trkpt>
      <trkpt lat="48.50701" lon="1.98653">
        <ele>144.8</ele>
        <time>2022-08-06T09:57:32Z</time>
      </trkpt>
      <trkpt lat="48.507" lon="1.98674">
        <ele>142.6</ele>
        <time>2022-08-06T09:57:34Z</time>
      </trkpt>
      <trkpt lat="48.50697" lon="1.98699">
        <ele>140.6</ele>
        <time>2022-08-06T09:57:36Z</time>
      </trkpt>
      <trkpt lat="48.50692" lon="1.98724">
        <ele>137.9</ele>
        <time>2022-08-06T09:57:38Z</time>
      </trkpt>
      <trkpt lat="48.50688" lon="1.98751">
        <ele>136</ele>
        <time>2022-08-06T09:57:40Z</time>
      </trkpt>
      <trkpt lat="48.50683" lon="1.98771">
        <ele>135</ele>
        <time>2022-08-06T09:57:42Z</time>
      </trkpt>
      <trkpt lat="48.50681" lon="1.98795">
        <ele>133.6</ele>
        <time>2022-08-06T09:57:44Z</time>
      </trkpt>
      <trkpt lat="48.50679" lon="1.98817">
        <ele>132.6</ele>
        <time>2022-08-06T09:57:46Z</time>
      </trkpt>
      <trkpt lat="48.50674" lon="1.98837">
        <ele>131.9</ele>
        <time>2022-08-06T09:57:48Z</time>
      </trkpt>
      <trkpt lat="48.50673" lon="1.98861">
        <ele>131</ele>
        <time>2022-08-06T09:57:50Z</time>
      </trkpt>
      <trkpt lat="48.5067" lon="1.98885">
        <ele>130.1</ele>
        <time>2022-08-06T09:57:52Z</time>
      </trkpt>
      <trkpt lat="48.50666" lon="1.98906">
        <ele>129.4</ele>
        <time>2022-08-06T09:57:54Z</time>
      </trkpt>
      <trkpt lat="48.50662" lon="1.98923">
        <ele>129.4</ele>
        <time>2022-08-06T09:57:56Z</time>
      </trkpt>
      <trkpt lat="48.50662" lon="1.98931">
        <ele>129.3</ele>
        <time>2022-08-06T09:57:58Z</time>
      </trkpt>
      <trkpt lat="48.50665" lon="1.98937">
        <ele>129.1</ele>
        <time>2022-08-06T09:58:08Z</time>
      </trkpt>
      <trkpt lat="48.50666" lon="1.9893">
        <ele>129</ele>
        <time>2022-08-06T09:58:32Z</time>
      </trkpt>
      <trkpt lat="48.50672" lon="1.98929">
        <ele>128.9</ele>
        <time>2022-08-06T09:58:36Z</time>
      </trkpt>
      <trkpt lat="48.50677" lon="1.98933">
        <ele>128.8</ele>
        <time>2022-08-06T09:58:38Z</time>
      </trkpt>
      <trkpt lat="48.50682" lon="1.98939">
        <ele>128.6</ele>
        <time>2022-08-06T09:58:40Z</time>
      </trkpt>
      <trkpt lat="48.50687" lon="1.98946">
        <ele>128.2</ele>
        <time>2022-08-06T09:58:42Z</time>
      </trkpt>
      <trkpt lat="48.5069" lon="1.98951">
        <ele>127.9</ele>
        <time>2022-08-06T09:58:44Z</time>
      </trkpt>
      <trkpt lat="48.50693" lon="1.98961">
        <ele>127.4</ele>
        <time>2022-08-06T09:58:48Z</time>
      </trkpt>
      <trkpt lat="48.50697" lon="1.9897">
        <ele>127.2</ele>
        <time>2022-08-06T09:58:50Z</time>
      </trkpt>
      <trkpt lat="48.50701" lon="1.98979">
        <ele>127</ele>
        <time>2022-08-06T09:58:52Z</time>
      </trkpt>
      <trkpt lat="48.50705" lon="1.98991">
        <ele>126.7</ele>
        <time>2022-08-06T09:58:54Z</time>
      </trkpt>
      <trkpt lat="48.50709" lon="1.99003">
        <ele>126.4</ele>
        <time>2022-08-06T09:58:56Z</time>
      </trkpt>
      <trkpt lat="48.50713" lon="1.99018">
        <ele>125.6</ele>
        <time>2022-08-06T09:58:58Z</time>
      </trkpt>
      <trkpt lat="48.50717" lon="1.99031">
        <ele>125</ele>
        <time>2022-08-06T09:59:00Z</time>
      </trkpt>
      <trkpt lat="48.50723" lon="1.99044">
        <ele>125</ele>
        <time>2022-08-06T09:59:02Z</time>
      </trkpt>
      <trkpt lat="48.50728" lon="1.99054">
        <ele>125.2</ele>
        <time>2022-08-06T09:59:04Z</time>
      </trkpt>
      <trkpt lat="48.50733" lon="1.99067">
        <ele>125</ele>
        <time>2022-08-06T09:59:06Z</time>
      </trkpt>
      <trkpt lat="48.5074" lon="1.99081">
        <ele>124.7</ele>
        <time>2022-08-06T09:59:08Z</time>
      </trkpt>
      <trkpt lat="48.50743" lon="1.99095">
        <ele>124.4</ele>
        <time>2022-08-06T09:59:10Z</time>
      </trkpt>
      <trkpt lat="48.50749" lon="1.99109">
        <ele>124.1</ele>
        <time>2022-08-06T09:59:12Z</time>
      </trkpt>
      <trkpt lat="48.50754" lon="1.9912">
        <ele>123.5</ele>
        <time>2022-08-06T09:59:14Z</time>
      </trkpt>
      <trkpt lat="48.50758" lon="1.99129">
        <ele>123</ele>
        <time>2022-08-06T09:59:16Z</time>
      </trkpt>
      <trkpt lat="48.50758" lon="1.99137">
        <ele>122.4</ele>
        <time>2022-08-06T09:59:20Z</time>
      </trkpt>
      <trkpt lat="48.50755" lon="1.99143">
        <ele>122</ele>
        <time>2022-08-06T09:59:32Z</time>
      </trkpt>
      <trkpt lat="48.5075" lon="1.99142">
        <ele>121.9</ele>
        <time>2022-08-06T09:59:34Z</time>
      </trkpt>
      <trkpt lat="48.50744" lon="1.99138">
        <ele>122.3</ele>
        <time>2022-08-06T09:59:36Z</time>
      </trkpt>
      <trkpt lat="48.50738" lon="1.99136">
        <ele>122.6</ele>
        <time>2022-08-06T09:59:38Z</time>
      </trkpt>
      <trkpt lat="48.50732" lon="1.99135">
        <ele>122.9</ele>
        <time>2022-08-06T09:59:40Z</time>
      </trkpt>
      <trkpt lat="48.50725" lon="1.99136">
        <ele>123</ele>
        <time>2022-08-06T09:59:42Z</time>
      </trkpt>
      <trkpt lat="48.50718" lon="1.99137">
        <ele>123.4</ele>
        <time>2022-08-06T09:59:44Z</time>
      </trkpt>
      <trkpt lat="48.50711" lon="1.99139">
        <ele>123.8</ele>
        <time>2022-08-06T09:59:46Z</time>
      </trkpt>
      <trkpt lat="48.50704" lon="1.9914">
        <ele>124.3</ele>
        <time>2022-08-06T09:59:48Z</time>
      </trkpt>
      <trkpt lat="48.50697" lon="1.99141">
        <ele>124.7</ele>
        <time>2022-08-06T09:59:50Z</time>
      </trkpt>
      <trkpt lat="48.50691" lon="1.99141">
        <ele>125</ele>
        <time>2022-08-06T09:59:52Z</time>
      </trkpt>
      <trkpt lat="48.50685" lon="1.99141">
        <ele>125.3</ele>
        <time>2022-08-06T09:59:54Z</time>
      </trkpt>
      <trkpt lat="48.50679" lon="1.99141">
        <ele>125.5</ele>
        <time>2022-08-06T09:59:56Z</time>
      </trkpt>
      <trkpt lat="48.50673" lon="1.99141">
        <ele>125.7</ele>
        <time>2022-08-06T09:59:58Z</time>
      </trkpt>
      <trkpt lat="48.50667" lon="1.99142">
        <ele>125.9</ele>
        <time>2022-08-06T10:00:00Z</time>
      </trkpt>
      <trkpt lat="48.50661" lon="1.99142">
        <ele>126.1</ele>
        <time>2022-08-06T10:00:02Z</time>
      </trkpt>
      <trkpt lat="48.50656" lon="1.99142">
        <ele>126.3</ele>
        <time>2022-08-06T10:00:04Z</time>
      </trkpt>
      <trkpt lat="48.50649" lon="1.99141">
        <ele>126.6</ele>
        <time>2022-08-06T10:00:08Z</time>
      </trkpt>
      <trkpt lat="48.50644" lon="1.99141">
        <ele>126.8</ele>
        <time>2022-08-06T10:00:26Z</time>
      </trkpt>
      <trkpt lat="48.50646" lon="1.99147">
        <ele>126.4</ele>
        <time>2022-08-06T10:00:32Z</time>
      </trkpt>
      <trkpt lat="48.50657" lon="1.99141">
        <ele>126.3</ele>
        <time>2022-08-06T10:00:36Z</time>
      </trkpt>
      <trkpt lat="48.50666" lon="1.9914">
        <ele>126</ele>
        <time>2022-08-06T10:00:38Z</time>
      </trkpt>
      <trkpt lat="48.50677" lon="1.99138">
        <ele>125.6</ele>
        <time>2022-08-06T10:00:40Z</time>
      </trkpt>
      <trkpt lat="48.50688" lon="1.99136">
        <ele>125.1</ele>
        <time>2022-08-06T10:00:42Z</time>
      </trkpt>
      <trkpt lat="48.50699" lon="1.99135">
        <ele>124.6</ele>
        <time>2022-08-06T10:00:44Z</time>
      </trkpt>
      <trkpt lat="48.5071" lon="1.99134">
        <ele>123.9</ele>
        <time>2022-08-06T10:00:46Z</time>
      </trkpt>
      <trkpt lat="48.50721" lon="1.99132">
        <ele>123.3</ele>
        <time>2022-08-06T10:00:48Z</time>
      </trkpt>
      <trkpt lat="48.50732" lon="1.99132">
        <ele>123</ele>
        <time>2022-08-06T10:00:50Z</time>
      </trkpt>
      <trkpt lat="48.50744" lon="1.99132">
        <ele>122.7</ele>
        <time>2022-08-06T10:00:52Z</time>
      </trkpt>
      <trkpt lat="48.50755" lon="1.99137">
        <ele>122.3</ele>
        <time>2022-08-06T10:00:54Z</time>
      </trkpt>
      <trkpt lat="48.50766" lon="1.99138">
        <ele>122.7</ele>
        <time>2022-08-06T10:00:56Z</time>
      </trkpt>
      <trkpt lat="48.50781" lon="1.99135">
        <ele>123.4</ele>
        <time>2022-08-06T10:00:58Z</time>
      </trkpt>
      <trkpt lat="48.50788" lon="1.99137">
        <ele>123.9</ele>
        <time>2022-08-06T10:01:00Z</time>
      </trkpt>
      <trkpt lat="48.50796" lon="1.99136">
        <ele>124.5</ele>
        <time>2022-08-06T10:01:02Z</time>
      </trkpt>
      <trkpt lat="48.50808" lon="1.9914">
        <ele>125</ele>
        <time>2022-08-06T10:01:06Z</time>
      </trkpt>
      <trkpt lat="48.50812" lon="1.99142">
        <ele>125</ele>
        <time>2022-08-06T10:01:08Z</time>
      </trkpt>
      <trkpt lat="48.50817" lon="1.99146">
        <ele>124.9</ele>
        <time>2022-08-06T10:01:18Z</time>
      </trkpt>
      <trkpt lat="48.50829" lon="1.99149">
        <ele>125.1</ele>
        <time>2022-08-06T10:01:22Z</time>
      </trkpt>
      <trkpt lat="48.50837" lon="1.99154">
        <ele>124.9</ele>
        <time>2022-08-06T10:01:24Z</time>
      </trkpt>
      <trkpt lat="48.50844" lon="1.99162">
        <ele>124.3</ele>
        <time>2022-08-06T10:01:26Z</time>
      </trkpt>
      <trkpt lat="48.50853" lon="1.99169">
        <ele>123.9</ele>
        <time>2022-08-06T10:01:28Z</time>
      </trkpt>
      <trkpt lat="48.50863" lon="1.99171">
        <ele>123.8</ele>
        <time>2022-08-06T10:01:30Z</time>
      </trkpt>
      <trkpt lat="48.50872" lon="1.99177">
        <ele>123.6</ele>
        <time>2022-08-06T10:01:32Z</time>
      </trkpt>
      <trkpt lat="48.50883" lon="1.99181">
        <ele>123.7</ele>
        <time>2022-08-06T10:01:34Z</time>
      </trkpt>
      <trkpt lat="48.50891" lon="1.99183">
        <ele>123.8</ele>
        <time>2022-08-06T10:01:36Z</time>
      </trkpt>
      <trkpt lat="48.509" lon="1.99181">
        <ele>123.9</ele>
        <time>2022-08-06T10:01:38Z</time>
      </trkpt>
      <trkpt lat="48.50908" lon="1.99184">
        <ele>123.8</ele>
        <time>2022-08-06T10:01:40Z</time>
      </trkpt>
      <trkpt lat="48.50919" lon="1.99188">
        <ele>123.5</ele>
        <time>2022-08-06T10:01:42Z</time>
      </trkpt>
      <trkpt lat="48.50929" lon="1.99194">
        <ele>123</ele>
        <time>2022-08-06T10:01:44Z</time>
      </trkpt>
      <trkpt lat="48.50938" lon="1.992">
        <ele>122.6</ele>
        <time>2022-08-06T10:01:46Z</time>
      </trkpt>
      <trkpt lat="48.50951" lon="1.99207">
        <ele>122</ele>
        <time>2022-08-06T10:01:48Z</time>
      </trkpt>
      <trkpt lat="48.50964" lon="1.99207">
        <ele>121.8</ele>
        <time>2022-08-06T10:01:50Z</time>
      </trkpt>
      <trkpt lat="48.50975" lon="1.99208">
        <ele>121.5</ele>
        <time>2022-08-06T10:01:52Z</time>
      </trkpt>
      <trkpt lat="48.50981" lon="1.9921">
        <ele>121.3</ele>
        <time>2022-08-06T10:01:54Z</time>
      </trkpt>
      <trkpt lat="48.50989" lon="1.99217">
        <ele>121</ele>
        <time>2022-08-06T10:01:56Z</time>
      </trkpt>
      <trkpt lat="48.50997" lon="1.99221">
        <ele>121</ele>
        <time>2022-08-06T10:01:58Z</time>
      </trkpt>
      <trkpt lat="48.51007" lon="1.99228">
        <ele>120.6</ele>
        <time>2022-08-06T10:02:00Z</time>
      </trkpt>
      <trkpt lat="48.51015" lon="1.99236">
        <ele>120</ele>
        <time>2022-08-06T10:02:02Z</time>
      </trkpt>
      <trkpt lat="48.51022" lon="1.99246">
        <ele>119.3</ele>
        <time>2022-08-06T10:02:04Z</time>
      </trkpt>
      <trkpt lat="48.5103" lon="1.99256">
        <ele>118.8</ele>
        <time>2022-08-06T10:02:06Z</time>
      </trkpt>
      <trkpt lat="48.51039" lon="1.99264">
        <ele>118.5</ele>
        <time>2022-08-06T10:02:08Z</time>
      </trkpt>
      <trkpt lat="48.51049" lon="1.99275">
        <ele>118.1</ele>
        <time>2022-08-06T10:02:10Z</time>
      </trkpt>
      <trkpt lat="48.5106" lon="1.99285">
        <ele>117.2</ele>
        <time>2022-08-06T10:02:12Z</time>
      </trkpt>
      <trkpt lat="48.5107" lon="1.99299">
        <ele>115.8</ele>
        <time>2022-08-06T10:02:14Z</time>
      </trkpt>
      <trkpt lat="48.51077" lon="1.99312">
        <ele>115</ele>
        <time>2022-08-06T10:02:16Z</time>
      </trkpt>
      <trkpt lat="48.5108" lon="1.99317">
        <ele>114.7</ele>
        <time>2022-08-06T10:02:18Z</time>
      </trkpt>
      <trkpt lat="48.51084" lon="1.9931">
        <ele>114.8</ele>
        <time>2022-08-06T10:02:22Z</time>
      </trkpt>
      <trkpt lat="48.51089" lon="1.993">
        <ele>114.9</ele>
        <time>2022-08-06T10:02:26Z</time>
      </trkpt>
      <trkpt lat="48.51093" lon="1.99292">
        <ele>115</ele>
        <time>2022-08-06T10:02:28Z</time>
      </trkpt>
      <trkpt lat="48.51097" lon="1.99285">
        <ele>114.9</ele>
        <time>2022-08-06T10:02:30Z</time>
      </trkpt>
      <trkpt lat="48.51103" lon="1.99276">
        <ele>114.6</ele>
        <time>2022-08-06T10:02:32Z</time>
      </trkpt>
      <trkpt lat="48.51107" lon="1.99267">
        <ele>114.7</ele>
        <time>2022-08-06T10:02:34Z</time>
      </trkpt>
      <trkpt lat="48.51113" lon="1.99257">
        <ele>114.7</ele>
        <time>2022-08-06T10:02:36Z</time>
      </trkpt>
      <trkpt lat="48.51117" lon="1.99245">
        <ele>114.8</ele>
        <time>2022-08-06T10:02:38Z</time>
      </trkpt>
      <trkpt lat="48.51123" lon="1.99231">
        <ele>114.6</ele>
        <time>2022-08-06T10:02:40Z</time>
      </trkpt>
      <trkpt lat="48.5113" lon="1.99218">
        <ele>114.3</ele>
        <time>2022-08-06T10:02:42Z</time>
      </trkpt>
      <trkpt lat="48.51134" lon="1.99206">
        <ele>114.2</ele>
        <time>2022-08-06T10:02:44Z</time>
      </trkpt>
      <trkpt lat="48.51139" lon="1.99192">
        <ele>114</ele>
        <time>2022-08-06T10:02:46Z</time>
      </trkpt>
      <trkpt lat="48.51145" lon="1.99183">
        <ele>114.2</ele>
        <time>2022-08-06T10:02:48Z</time>
      </trkpt>
      <trkpt lat="48.5115" lon="1.99174">
        <ele>114.4</ele>
        <time>2022-08-06T10:02:50Z</time>
      </trkpt>
      <trkpt lat="48.51154" lon="1.99163">
        <ele>114.8</ele>
        <time>2022-08-06T10:02:52Z</time>
      </trkpt>
      <trkpt lat="48.5116" lon="1.99154">
        <ele>115.3</ele>
        <time>2022-08-06T10:02:54Z</time>
      </trkpt>
      <trkpt lat="48.51164" lon="1.99145">
        <ele>115.7</ele>
        <time>2022-08-06T10:02:56Z</time>
      </trkpt>
      <trkpt lat="48.51169" lon="1.99133">
        <ele>116.7</ele>
        <time>2022-08-06T10:03:00Z</time>
      </trkpt>
      <trkpt lat="48.51171" lon="1.99125">
        <ele>117.5</ele>
        <time>2022-08-06T10:03:02Z</time>
      </trkpt>
      <trkpt lat="48.51174" lon="1.99118">
        <ele>118.3</ele>
        <time>2022-08-06T10:03:04Z</time>
      </trkpt>
      <trkpt lat="48.5118" lon="1.9911">
        <ele>119.5</ele>
        <time>2022-08-06T10:03:08Z</time>
      </trkpt>
      <trkpt lat="48.51186" lon="1.991">
        <ele>120.5</ele>
        <time>2022-08-06T10:03:12Z</time>
      </trkpt>
      <trkpt lat="48.51189" lon="1.99092">
        <ele>121.2</ele>
        <time>2022-08-06T10:03:14Z</time>
      </trkpt>
      <trkpt lat="48.51195" lon="1.99081">
        <ele>122.2</ele>
        <time>2022-08-06T10:03:18Z</time>
      </trkpt>
      <trkpt lat="48.512" lon="1.99072">
        <ele>123.6</ele>
        <time>2022-08-06T10:03:22Z</time>
      </trkpt>
      <trkpt lat="48.51204" lon="1.99064">
        <ele>124.6</ele>
        <time>2022-08-06T10:03:26Z</time>
      </trkpt>
      <trkpt lat="48.51206" lon="1.99056">
        <ele>125.3</ele>
        <time>2022-08-06T10:03:30Z</time>
      </trkpt>
      <trkpt lat="48.51209" lon="1.9905">
        <ele>126.1</ele>
        <time>2022-08-06T10:03:32Z</time>
      </trkpt>
      <trkpt lat="48.51212" lon="1.99043">
        <ele>126.9</ele>
        <time>2022-08-06T10:03:34Z</time>
      </trkpt>
      <trkpt lat="48.51215" lon="1.99037">
        <ele>127.7</ele>
        <time>2022-08-06T10:03:36Z</time>
      </trkpt>
      <trkpt lat="48.51217" lon="1.99031">
        <ele>128.4</ele>
        <time>2022-08-06T10:03:38Z</time>
      </trkpt>
      <trkpt lat="48.5122" lon="1.99019">
        <ele>129.8</ele>
        <time>2022-08-06T10:03:42Z</time>
      </trkpt>
      <trkpt lat="48.51223" lon="1.9901">
        <ele>131</ele>
        <time>2022-08-06T10:03:46Z</time>
      </trkpt>
      <trkpt lat="48.51228" lon="1.99002">
        <ele>131.8</ele>
        <time>2022-08-06T10:03:50Z</time>
      </trkpt>
      <trkpt lat="48.51232" lon="1.98994">
        <ele>132.5</ele>
        <time>2022-08-06T10:03:54Z</time>
      </trkpt>
      <trkpt lat="48.51237" lon="1.98985">
        <ele>133.1</ele>
        <time>2022-08-06T10:03:58Z</time>
      </trkpt>
      <trkpt lat="48.51242" lon="1.98975">
        <ele>133.4</ele>
        <time>2022-08-06T10:04:02Z</time>
      </trkpt>
      <trkpt lat="48.51245" lon="1.98962">
        <ele>134.1</ele>
        <time>2022-08-06T10:04:06Z</time>
      </trkpt>
      <trkpt lat="48.51249" lon="1.98956">
        <ele>134.3</ele>
        <time>2022-08-06T10:04:08Z</time>
      </trkpt>
      <trkpt lat="48.51254" lon="1.98948">
        <ele>134.4</ele>
        <time>2022-08-06T10:04:12Z</time>
      </trkpt>
      <trkpt lat="48.51258" lon="1.9894">
        <ele>134.3</ele>
        <time>2022-08-06T10:04:14Z</time>
      </trkpt>
      <trkpt lat="48.51261" lon="1.98931">
        <ele>134.1</ele>
        <time>2022-08-06T10:04:16Z</time>
      </trkpt>
      <trkpt lat="48.51265" lon="1.98925">
        <ele>133.7</ele>
        <time>2022-08-06T10:04:18Z</time>
      </trkpt>
      <trkpt lat="48.5127" lon="1.9892">
        <ele>133.2</ele>
        <time>2022-08-06T10:04:20Z</time>
      </trkpt>
      <trkpt lat="48.51273" lon="1.98914">
        <ele>132.8</ele>
        <time>2022-08-06T10:04:22Z</time>
      </trkpt>
      <trkpt lat="48.51281" lon="1.98899">
        <ele>132.2</ele>
        <time>2022-08-06T10:04:26Z</time>
      </trkpt>
      <trkpt lat="48.51288" lon="1.98887">
        <ele>131.5</ele>
        <time>2022-08-06T10:04:28Z</time>
      </trkpt>
      <trkpt lat="48.51294" lon="1.9887">
        <ele>130.4</ele>
        <time>2022-08-06T10:04:30Z</time>
      </trkpt>
      <trkpt lat="48.51301" lon="1.98855">
        <ele>129.2</ele>
        <time>2022-08-06T10:04:32Z</time>
      </trkpt>
      <trkpt lat="48.51309" lon="1.98833">
        <ele>127.6</ele>
        <time>2022-08-06T10:04:34Z</time>
      </trkpt>
      <trkpt lat="48.51319" lon="1.98806">
        <ele>127</ele>
        <time>2022-08-06T10:04:36Z</time>
      </trkpt>
      <trkpt lat="48.51326" lon="1.98788">
        <ele>127</ele>
        <time>2022-08-06T10:04:38Z</time>
      </trkpt>
      <trkpt lat="48.51332" lon="1.98771">
        <ele>127.5</ele>
        <time>2022-08-06T10:04:40Z</time>
      </trkpt>
      <trkpt lat="48.51339" lon="1.9876">
        <ele>128</ele>
        <time>2022-08-06T10:04:42Z</time>
      </trkpt>
      <trkpt lat="48.51344" lon="1.98748">
        <ele>128.3</ele>
        <time>2022-08-06T10:04:44Z</time>
      </trkpt>
      <trkpt lat="48.51349" lon="1.98737">
        <ele>128.3</ele>
        <time>2022-08-06T10:04:46Z</time>
      </trkpt>
      <trkpt lat="48.51352" lon="1.98728">
        <ele>128.5</ele>
        <time>2022-08-06T10:04:48Z</time>
      </trkpt>
      <trkpt lat="48.51354" lon="1.98721">
        <ele>128.5</ele>
        <time>2022-08-06T10:04:50Z</time>
      </trkpt>
      <trkpt lat="48.5136" lon="1.98718">
        <ele>128.1</ele>
        <time>2022-08-06T10:04:54Z</time>
      </trkpt>
      <trkpt lat="48.51363" lon="1.9871">
        <ele>127.8</ele>
        <time>2022-08-06T10:04:58Z</time>
      </trkpt>
      <trkpt lat="48.51365" lon="1.98702">
        <ele>127.7</ele>
        <time>2022-08-06T10:05:00Z</time>
      </trkpt>
      <trkpt lat="48.51366" lon="1.98695">
        <ele>127.6</ele>
        <time>2022-08-06T10:05:02Z</time>
      </trkpt>
      <trkpt lat="48.51374" lon="1.98687">
        <ele>127.1</ele>
        <time>2022-08-06T10:05:06Z</time>
      </trkpt>
      <trkpt lat="48.51379" lon="1.98681">
        <ele>126.7</ele>
        <time>2022-08-06T10:05:08Z</time>
      </trkpt>
      <trkpt lat="48.51383" lon="1.98671">
        <ele>126.4</ele>
        <time>2022-08-06T10:05:10Z</time>
      </trkpt>
      <trkpt lat="48.51387" lon="1.98659">
        <ele>125.9</ele>
        <time>2022-08-06T10:05:12Z</time>
      </trkpt>
      <trkpt lat="48.51393" lon="1.98648">
        <ele>125</ele>
        <time>2022-08-06T10:05:14Z</time>
      </trkpt>
      <trkpt lat="48.51399" lon="1.98634">
        <ele>124.2</ele>
        <time>2022-08-06T10:05:16Z</time>
      </trkpt>
      <trkpt lat="48.51406" lon="1.9862">
        <ele>123.4</ele>
        <time>2022-08-06T10:05:18Z</time>
      </trkpt>
      <trkpt lat="48.51412" lon="1.98604">
        <ele>122.5</ele>
        <time>2022-08-06T10:05:20Z</time>
      </trkpt>
      <trkpt lat="48.51419" lon="1.98588">
        <ele>121.8</ele>
        <time>2022-08-06T10:05:22Z</time>
      </trkpt>
      <trkpt lat="48.51428" lon="1.98571">
        <ele>121.4</ele>
        <time>2022-08-06T10:05:24Z</time>
      </trkpt>
      <trkpt lat="48.51433" lon="1.98559">
        <ele>121.3</ele>
        <time>2022-08-06T10:05:26Z</time>
      </trkpt>
      <trkpt lat="48.51438" lon="1.98551">
        <ele>121.3</ele>
        <time>2022-08-06T10:05:28Z</time>
      </trkpt>
      <trkpt lat="48.51441" lon="1.98541">
        <ele>121.2</ele>
        <time>2022-08-06T10:05:32Z</time>
      </trkpt>
      <trkpt lat="48.51446" lon="1.98534">
        <ele>121</ele>
        <time>2022-08-06T10:06:04Z</time>
      </trkpt>
      <trkpt lat="48.51449" lon="1.98529">
        <ele>120.8</ele>
        <time>2022-08-06T10:06:06Z</time>
      </trkpt>
      <trkpt lat="48.51457" lon="1.98522">
        <ele>120.7</ele>
        <time>2022-08-06T10:06:08Z</time>
      </trkpt>
      <trkpt lat="48.51465" lon="1.98516">
        <ele>120.4</ele>
        <time>2022-08-06T10:06:10Z</time>
      </trkpt>
      <trkpt lat="48.51473" lon="1.98506">
        <ele>119.9</ele>
        <time>2022-08-06T10:06:12Z</time>
      </trkpt>
      <trkpt lat="48.51483" lon="1.98497">
        <ele>118.8</ele>
        <time>2022-08-06T10:06:14Z</time>
      </trkpt>
      <trkpt lat="48.51495" lon="1.98486">
        <ele>117.5</ele>
        <time>2022-08-06T10:06:16Z</time>
      </trkpt>
      <trkpt lat="48.5151" lon="1.98476">
        <ele>116.3</ele>
        <time>2022-08-06T10:06:18Z</time>
      </trkpt>
      <trkpt lat="48.51522" lon="1.98468">
        <ele>115.4</ele>
        <time>2022-08-06T10:06:20Z</time>
      </trkpt>
      <trkpt lat="48.51536" lon="1.98461">
        <ele>115.1</ele>
        <time>2022-08-06T10:06:22Z</time>
      </trkpt>
      <trkpt lat="48.51546" lon="1.98451">
        <ele>115.5</ele>
        <time>2022-08-06T10:06:24Z</time>
      </trkpt>
      <trkpt lat="48.51556" lon="1.98443">
        <ele>116.1</ele>
        <time>2022-08-06T10:06:26Z</time>
      </trkpt>
      <trkpt lat="48.51564" lon="1.98437">
        <ele>116.7</ele>
        <time>2022-08-06T10:06:28Z</time>
      </trkpt>
      <trkpt lat="48.51572" lon="1.98432">
        <ele>117.1</ele>
        <time>2022-08-06T10:06:30Z</time>
      </trkpt>
      <trkpt lat="48.51578" lon="1.98423">
        <ele>117.7</ele>
        <time>2022-08-06T10:06:32Z</time>
      </trkpt>
      <trkpt lat="48.51585" lon="1.98416">
        <ele>117.8</ele>
        <time>2022-08-06T10:06:34Z</time>
      </trkpt>
      <trkpt lat="48.51594" lon="1.98407">
        <ele>117.4</ele>
        <time>2022-08-06T10:06:36Z</time>
      </trkpt>
      <trkpt lat="48.51602" lon="1.98398">
        <ele>116.8</ele>
        <time>2022-08-06T10:06:38Z</time>
      </trkpt>
      <trkpt lat="48.51613" lon="1.98393">
        <ele>115.9</ele>
        <time>2022-08-06T10:06:40Z</time>
      </trkpt>
      <trkpt lat="48.51619" lon="1.98388">
        <ele>116.3</ele>
        <time>2022-08-06T10:06:42Z</time>
      </trkpt>
      <trkpt lat="48.51629" lon="1.9838">
        <ele>116.7</ele>
        <time>2022-08-06T10:06:44Z</time>
      </trkpt>
      <trkpt lat="48.51637" lon="1.98374">
        <ele>117</ele>
        <time>2022-08-06T10:06:46Z</time>
      </trkpt>
      <trkpt lat="48.51639" lon="1.98368">
        <ele>117</ele>
        <time>2022-08-06T10:06:48Z</time>
      </trkpt>
      <trkpt lat="48.51642" lon="1.98361">
        <ele>117.5</ele>
        <time>2022-08-06T10:06:50Z</time>
      </trkpt>
      <trkpt lat="48.51645" lon="1.98356">
        <ele>118.1</ele>
        <time>2022-08-06T10:06:52Z</time>
      </trkpt>
      <trkpt lat="48.51648" lon="1.98347">
        <ele>118.5</ele>
        <time>2022-08-06T10:06:56Z</time>
      </trkpt>
      <trkpt lat="48.51651" lon="1.98336">
        <ele>118.9</ele>
        <time>2022-08-06T10:07:00Z</time>
      </trkpt>
      <trkpt lat="48.51654" lon="1.98329">
        <ele>119</ele>
        <time>2022-08-06T10:07:02Z</time>
      </trkpt>
      <trkpt lat="48.51655" lon="1.98315">
        <ele>118.9</ele>
        <time>2022-08-06T10:07:04Z</time>
      </trkpt>
      <trkpt lat="48.51654" lon="1.98301">
        <ele>118.7</ele>
        <time>2022-08-06T10:07:06Z</time>
      </trkpt>
      <trkpt lat="48.51648" lon="1.9829">
        <ele>118.4</ele>
        <time>2022-08-06T10:07:08Z</time>
      </trkpt>
      <trkpt lat="48.51642" lon="1.98279">
        <ele>118.2</ele>
        <time>2022-08-06T10:07:10Z</time>
      </trkpt>
      <trkpt lat="48.51635" lon="1.98269">
        <ele>118.3</ele>
        <time>2022-08-06T10:07:12Z</time>
      </trkpt>
      <trkpt lat="48.51625" lon="1.9826">
        <ele>118.3</ele>
        <time>2022-08-06T10:07:14Z</time>
      </trkpt>
      <trkpt lat="48.51616" lon="1.9825">
        <ele>118.2</ele>
        <time>2022-08-06T10:07:16Z</time>
      </trkpt>
      <trkpt lat="48.51608" lon="1.98237">
        <ele>118.9</ele>
        <time>2022-08-06T10:07:18Z</time>
      </trkpt>
      <trkpt lat="48.516" lon="1.98226">
        <ele>119.4</ele>
        <time>2022-08-06T10:07:20Z</time>
      </trkpt>
      <trkpt lat="48.51593" lon="1.98213">
        <ele>119.8</ele>
        <time>2022-08-06T10:07:22Z</time>
      </trkpt>
      <trkpt lat="48.51586" lon="1.98201">
        <ele>119.9</ele>
        <time>2022-08-06T10:07:24Z</time>
      </trkpt>
      <trkpt lat="48.51581" lon="1.98191">
        <ele>120.3</ele>
        <time>2022-08-06T10:07:26Z</time>
      </trkpt>
      <trkpt lat="48.51576" lon="1.98178">
        <ele>120.9</ele>
        <time>2022-08-06T10:07:28Z</time>
      </trkpt>
      <trkpt lat="48.51572" lon="1.98165">
        <ele>121.3</ele>
        <time>2022-08-06T10:07:30Z</time>
      </trkpt>
      <trkpt lat="48.51571" lon="1.98154">
        <ele>121.8</ele>
        <time>2022-08-06T10:07:32Z</time>
      </trkpt>
      <trkpt lat="48.51571" lon="1.9814">
        <ele>122.5</ele>
        <time>2022-08-06T10:07:34Z</time>
      </trkpt>
      <trkpt lat="48.51569" lon="1.98125">
        <ele>123.2</ele>
        <time>2022-08-06T10:07:36Z</time>
      </trkpt>
      <trkpt lat="48.51569" lon="1.98111">
        <ele>124</ele>
        <time>2022-08-06T10:07:38Z</time>
      </trkpt>
      <trkpt lat="48.5157" lon="1.98097">
        <ele>124.4</ele>
        <time>2022-08-06T10:07:40Z</time>
      </trkpt>
      <trkpt lat="48.51573" lon="1.98083">
        <ele>124.9</ele>
        <time>2022-08-06T10:07:42Z</time>
      </trkpt>
      <trkpt lat="48.51575" lon="1.98071">
        <ele>124.5</ele>
        <time>2022-08-06T10:07:44Z</time>
      </trkpt>
      <trkpt lat="48.51584" lon="1.98065">
        <ele>124.7</ele>
        <time>2022-08-06T10:07:46Z</time>
      </trkpt>
      <trkpt lat="48.51593" lon="1.98059">
        <ele>125.7</ele>
        <time>2022-08-06T10:07:48Z</time>
      </trkpt>
      <trkpt lat="48.516" lon="1.98054">
        <ele>126.4</ele>
        <time>2022-08-06T10:07:50Z</time>
      </trkpt>
      <trkpt lat="48.51606" lon="1.98047">
        <ele>126.5</ele>
        <time>2022-08-06T10:07:52Z</time>
      </trkpt>
      <trkpt lat="48.51611" lon="1.98038">
        <ele>126</ele>
        <time>2022-08-06T10:07:54Z</time>
      </trkpt>
      <trkpt lat="48.51617" lon="1.98028">
        <ele>124.8</ele>
        <time>2022-08-06T10:07:56Z</time>
      </trkpt>
      <trkpt lat="48.51622" lon="1.98019">
        <ele>124.1</ele>
        <time>2022-08-06T10:07:58Z</time>
      </trkpt>
      <trkpt lat="48.51626" lon="1.98007">
        <ele>123.4</ele>
        <time>2022-08-06T10:08:00Z</time>
      </trkpt>
      <trkpt lat="48.51628" lon="1.97994">
        <ele>122.9</ele>
        <time>2022-08-06T10:08:02Z</time>
      </trkpt>
      <trkpt lat="48.5163" lon="1.97981">
        <ele>122.8</ele>
        <time>2022-08-06T10:08:04Z</time>
      </trkpt>
      <trkpt lat="48.51631" lon="1.97968">
        <ele>122.7</ele>
        <time>2022-08-06T10:08:06Z</time>
      </trkpt>
      <trkpt lat="48.51632" lon="1.97958">
        <ele>122.6</ele>
        <time>2022-08-06T10:08:08Z</time>
      </trkpt>
      <trkpt lat="48.5163" lon="1.97947">
        <ele>122.4</ele>
        <time>2022-08-06T10:08:10Z</time>
      </trkpt>
      <trkpt lat="48.51631" lon="1.97935">
        <ele>122.4</ele>
        <time>2022-08-06T10:08:12Z</time>
      </trkpt>
      <trkpt lat="48.51631" lon="1.97922">
        <ele>122.4</ele>
        <time>2022-08-06T10:08:14Z</time>
      </trkpt>
      <trkpt lat="48.51631" lon="1.97908">
        <ele>122.5</ele>
        <time>2022-08-06T10:08:16Z</time>
      </trkpt>
      <trkpt lat="48.5163" lon="1.97896">
        <ele>122.6</ele>
        <time>2022-08-06T10:08:18Z</time>
      </trkpt>
      <trkpt lat="48.51632" lon="1.97886">
        <ele>122.9</ele>
        <time>2022-08-06T10:08:20Z</time>
      </trkpt>
      <trkpt lat="48.51629" lon="1.97873">
        <ele>123.4</ele>
        <time>2022-08-06T10:08:22Z</time>
      </trkpt>
      <trkpt lat="48.51629" lon="1.97861">
        <ele>123.9</ele>
        <time>2022-08-06T10:08:24Z</time>
      </trkpt>
      <trkpt lat="48.51628" lon="1.9785">
        <ele>124.4</ele>
        <time>2022-08-06T10:08:26Z</time>
      </trkpt>
      <trkpt lat="48.51622" lon="1.97839">
        <ele>124.3</ele>
        <time>2022-08-06T10:08:28Z</time>
      </trkpt>
      <trkpt lat="48.51617" lon="1.97828">
        <ele>123.9</ele>
        <time>2022-08-06T10:08:30Z</time>
      </trkpt>
      <trkpt lat="48.51617" lon="1.97816">
        <ele>123.9</ele>
        <time>2022-08-06T10:08:32Z</time>
      </trkpt>
      <trkpt lat="48.51616" lon="1.97804">
        <ele>124</ele>
        <time>2022-08-06T10:08:34Z</time>
      </trkpt>
      <trkpt lat="48.51617" lon="1.97795">
        <ele>124.4</ele>
        <time>2022-08-06T10:08:36Z</time>
      </trkpt>
      <trkpt lat="48.51615" lon="1.97785">
        <ele>124.4</ele>
        <time>2022-08-06T10:08:38Z</time>
      </trkpt>
      <trkpt lat="48.51613" lon="1.97776">
        <ele>124.3</ele>
        <time>2022-08-06T10:08:40Z</time>
      </trkpt>
      <trkpt lat="48.51611" lon="1.97768">
        <ele>124.3</ele>
        <time>2022-08-06T10:08:42Z</time>
      </trkpt>
      <trkpt lat="48.51609" lon="1.97757">
        <ele>124.6</ele>
        <time>2022-08-06T10:08:44Z</time>
      </trkpt>
      <trkpt lat="48.51607" lon="1.97748">
        <ele>124.6</ele>
        <time>2022-08-06T10:08:46Z</time>
      </trkpt>
      <trkpt lat="48.51603" lon="1.97738">
        <ele>124.6</ele>
        <time>2022-08-06T10:08:48Z</time>
      </trkpt>
      <trkpt lat="48.516" lon="1.97724">
        <ele>124.7</ele>
        <time>2022-08-06T10:08:50Z</time>
      </trkpt>
      <trkpt lat="48.51596" lon="1.97712">
        <ele>124.6</ele>
        <time>2022-08-06T10:08:52Z</time>
      </trkpt>
      <trkpt lat="48.51594" lon="1.97697">
        <ele>124.4</ele>
        <time>2022-08-06T10:08:54Z</time>
      </trkpt>
      <trkpt lat="48.5159" lon="1.97684">
        <ele>124.1</ele>
        <time>2022-08-06T10:08:56Z</time>
      </trkpt>
      <trkpt lat="48.5159" lon="1.9767">
        <ele>124.4</ele>
        <time>2022-08-06T10:08:58Z</time>
      </trkpt>
      <trkpt lat="48.51589" lon="1.97661">
        <ele>124.3</ele>
        <time>2022-08-06T10:09:00Z</time>
      </trkpt>
      <trkpt lat="48.51589" lon="1.9765">
        <ele>124.2</ele>
        <time>2022-08-06T10:09:06Z</time>
      </trkpt>
      <trkpt lat="48.5159" lon="1.97641">
        <ele>124.5</ele>
        <time>2022-08-06T10:09:08Z</time>
      </trkpt>
      <trkpt lat="48.51592" lon="1.97632">
        <ele>124.9</ele>
        <time>2022-08-06T10:09:10Z</time>
      </trkpt>
      <trkpt lat="48.51591" lon="1.97624">
        <ele>124.9</ele>
        <time>2022-08-06T10:09:12Z</time>
      </trkpt>
      <trkpt lat="48.5159" lon="1.97616">
        <ele>124.8</ele>
        <time>2022-08-06T10:09:14Z</time>
      </trkpt>
      <trkpt lat="48.51588" lon="1.97608">
        <ele>124.7</ele>
        <time>2022-08-06T10:09:16Z</time>
      </trkpt>
      <trkpt lat="48.51586" lon="1.976">
        <ele>124.7</ele>
        <time>2022-08-06T10:09:18Z</time>
      </trkpt>
      <trkpt lat="48.51585" lon="1.97593">
        <ele>124.9</ele>
        <time>2022-08-06T10:09:20Z</time>
      </trkpt>
      <trkpt lat="48.51583" lon="1.97583">
        <ele>125</ele>
        <time>2022-08-06T10:09:22Z</time>
      </trkpt>
      <trkpt lat="48.51581" lon="1.97575">
        <ele>125.5</ele>
        <time>2022-08-06T10:09:24Z</time>
      </trkpt>
      <trkpt lat="48.5158" lon="1.97568">
        <ele>125.9</ele>
        <time>2022-08-06T10:09:26Z</time>
      </trkpt>
      <trkpt lat="48.51579" lon="1.9756">
        <ele>126.4</ele>
        <time>2022-08-06T10:09:28Z</time>
      </trkpt>
      <trkpt lat="48.51577" lon="1.97553">
        <ele>126.7</ele>
        <time>2022-08-06T10:09:30Z</time>
      </trkpt>
      <trkpt lat="48.51577" lon="1.97543">
        <ele>127.3</ele>
        <time>2022-08-06T10:09:32Z</time>
      </trkpt>
      <trkpt lat="48.51577" lon="1.97532">
        <ele>128</ele>
        <time>2022-08-06T10:09:34Z</time>
      </trkpt>
      <trkpt lat="48.51575" lon="1.97525">
        <ele>128.2</ele>
        <time>2022-08-06T10:09:36Z</time>
      </trkpt>
      <trkpt lat="48.51576" lon="1.9751">
        <ele>128.8</ele>
        <time>2022-08-06T10:09:40Z</time>
      </trkpt>
      <trkpt lat="48.51575" lon="1.97502">
        <ele>129</ele>
        <time>2022-08-06T10:09:42Z</time>
      </trkpt>
      <trkpt lat="48.51575" lon="1.97494">
        <ele>129.3</ele>
        <time>2022-08-06T10:09:44Z</time>
      </trkpt>
      <trkpt lat="48.51573" lon="1.97484">
        <ele>129.5</ele>
        <time>2022-08-06T10:09:46Z</time>
      </trkpt>
      <trkpt lat="48.5157" lon="1.97474">
        <ele>129.5</ele>
        <time>2022-08-06T10:09:48Z</time>
      </trkpt>
      <trkpt lat="48.51568" lon="1.97464">
        <ele>129.2</ele>
        <time>2022-08-06T10:09:50Z</time>
      </trkpt>
      <trkpt lat="48.51565" lon="1.97452">
        <ele>128.7</ele>
        <time>2022-08-06T10:09:52Z</time>
      </trkpt>
      <trkpt lat="48.51562" lon="1.97439">
        <ele>128.3</ele>
        <time>2022-08-06T10:09:54Z</time>
      </trkpt>
      <trkpt lat="48.51565" lon="1.97425">
        <ele>128.2</ele>
        <time>2022-08-06T10:09:56Z</time>
      </trkpt>
      <trkpt lat="48.51568" lon="1.97408">
        <ele>128.2</ele>
        <time>2022-08-06T10:09:58Z</time>
      </trkpt>
      <trkpt lat="48.51571" lon="1.9739">
        <ele>128.2</ele>
        <time>2022-08-06T10:10:00Z</time>
      </trkpt>
      <trkpt lat="48.51574" lon="1.97374">
        <ele>128.2</ele>
        <time>2022-08-06T10:10:02Z</time>
      </trkpt>
      <trkpt lat="48.51573" lon="1.97362">
        <ele>127.9</ele>
        <time>2022-08-06T10:10:04Z</time>
      </trkpt>
      <trkpt lat="48.51572" lon="1.97351">
        <ele>127.9</ele>
        <time>2022-08-06T10:10:06Z</time>
      </trkpt>
      <trkpt lat="48.51572" lon="1.97341">
        <ele>128.1</ele>
        <time>2022-08-06T10:10:08Z</time>
      </trkpt>
      <trkpt lat="48.5157" lon="1.97329">
        <ele>128.1</ele>
        <time>2022-08-06T10:10:10Z</time>
      </trkpt>
      <trkpt lat="48.51565" lon="1.97322">
        <ele>127.7</ele>
        <time>2022-08-06T10:10:12Z</time>
      </trkpt>
      <trkpt lat="48.5156" lon="1.97322">
        <ele>127.3</ele>
        <time>2022-08-06T10:10:14Z</time>
      </trkpt>
      <trkpt lat="48.51555" lon="1.97324">
        <ele>127</ele>
        <time>2022-08-06T10:10:16Z</time>
      </trkpt>
      <trkpt lat="48.5155" lon="1.97325">
        <ele>126.9</ele>
        <time>2022-08-06T10:10:18Z</time>
      </trkpt>
      <trkpt lat="48.51545" lon="1.97328">
        <ele>126.7</ele>
        <time>2022-08-06T10:10:20Z</time>
      </trkpt>
      <trkpt lat="48.51538" lon="1.97334">
        <ele>126.4</ele>
        <time>2022-08-06T10:10:22Z</time>
      </trkpt>
      <trkpt lat="48.51531" lon="1.97336">
        <ele>126.1</ele>
        <time>2022-08-06T10:10:24Z</time>
      </trkpt>
      <trkpt lat="48.51524" lon="1.97339">
        <ele>126.1</ele>
        <time>2022-08-06T10:10:26Z</time>
      </trkpt>
      <trkpt lat="48.51518" lon="1.97343">
        <ele>126.2</ele>
        <time>2022-08-06T10:10:28Z</time>
      </trkpt>
      <trkpt lat="48.5151" lon="1.97348">
        <ele>126.3</ele>
        <time>2022-08-06T10:10:30Z</time>
      </trkpt>
      <trkpt lat="48.515" lon="1.97351">
        <ele>126.4</ele>
        <time>2022-08-06T10:10:32Z</time>
      </trkpt>
      <trkpt lat="48.51495" lon="1.97357">
        <ele>126.6</ele>
        <time>2022-08-06T10:10:34Z</time>
      </trkpt>
      <trkpt lat="48.51487" lon="1.9736">
        <ele>127</ele>
        <time>2022-08-06T10:10:36Z</time>
      </trkpt>
      <trkpt lat="48.51479" lon="1.97365">
        <ele>127.4</ele>
        <time>2022-08-06T10:10:38Z</time>
      </trkpt>
      <trkpt lat="48.51472" lon="1.97366">
        <ele>127.8</ele>
        <time>2022-08-06T10:10:40Z</time>
      </trkpt>
      <trkpt lat="48.51464" lon="1.97372">
        <ele>128</ele>
        <time>2022-08-06T10:10:42Z</time>
      </trkpt>
      <trkpt lat="48.51458" lon="1.97377">
        <ele>128.3</ele>
        <time>2022-08-06T10:10:44Z</time>
      </trkpt>
      <trkpt lat="48.51452" lon="1.97381">
        <ele>128.5</ele>
        <time>2022-08-06T10:10:46Z</time>
      </trkpt>
      <trkpt lat="48.51446" lon="1.97385">
        <ele>128.9</ele>
        <time>2022-08-06T10:10:48Z</time>
      </trkpt>
      <trkpt lat="48.51441" lon="1.97389">
        <ele>129.4</ele>
        <time>2022-08-06T10:10:50Z</time>
      </trkpt>
      <trkpt lat="48.51436" lon="1.97394">
        <ele>130.1</ele>
        <time>2022-08-06T10:10:52Z</time>
      </trkpt>
      <trkpt lat="48.51432" lon="1.97396">
        <ele>130.6</ele>
        <time>2022-08-06T10:10:54Z</time>
      </trkpt>
      <trkpt lat="48.51426" lon="1.974">
        <ele>131.4</ele>
        <time>2022-08-06T10:10:58Z</time>
      </trkpt>
      <trkpt lat="48.51421" lon="1.97405">
        <ele>132.1</ele>
        <time>2022-08-06T10:11:02Z</time>
      </trkpt>
      <trkpt lat="48.51416" lon="1.97409">
        <ele>132.8</ele>
        <time>2022-08-06T10:11:06Z</time>
      </trkpt>
      <trkpt lat="48.51411" lon="1.97412">
        <ele>133.6</ele>
        <time>2022-08-06T10:11:10Z</time>
      </trkpt>
      <trkpt lat="48.51406" lon="1.97416">
        <ele>134.5</ele>
        <time>2022-08-06T10:11:16Z</time>
      </trkpt>
      <trkpt lat="48.51401" lon="1.97419">
        <ele>135.4</ele>
        <time>2022-08-06T10:11:20Z</time>
      </trkpt>
      <trkpt lat="48.51396" lon="1.97421">
        <ele>136.3</ele>
        <time>2022-08-06T10:11:24Z</time>
      </trkpt>
      <trkpt lat="48.51389" lon="1.97424">
        <ele>137.2</ele>
        <time>2022-08-06T10:11:28Z</time>
      </trkpt>
      <trkpt lat="48.51385" lon="1.97426">
        <ele>138.1</ele>
        <time>2022-08-06T10:11:32Z</time>
      </trkpt>
      <trkpt lat="48.51378" lon="1.9743">
        <ele>139.4</ele>
        <time>2022-08-06T10:11:36Z</time>
      </trkpt>
      <trkpt lat="48.51373" lon="1.97434">
        <ele>140.5</ele>
        <time>2022-08-06T10:11:40Z</time>
      </trkpt>
      <trkpt lat="48.51368" lon="1.97437">
        <ele>141.5</ele>
        <time>2022-08-06T10:11:44Z</time>
      </trkpt>
      <trkpt lat="48.51364" lon="1.9744">
        <ele>142.4</ele>
        <time>2022-08-06T10:11:48Z</time>
      </trkpt>
      <trkpt lat="48.51359" lon="1.97443">
        <ele>143.2</ele>
        <time>2022-08-06T10:11:52Z</time>
      </trkpt>
      <trkpt lat="48.51354" lon="1.97447">
        <ele>143.7</ele>
        <time>2022-08-06T10:11:58Z</time>
      </trkpt>
      <trkpt lat="48.5135" lon="1.97454">
        <ele>143.9</ele>
        <time>2022-08-06T10:12:04Z</time>
      </trkpt>
      <trkpt lat="48.51345" lon="1.97458">
        <ele>144.2</ele>
        <time>2022-08-06T10:12:10Z</time>
      </trkpt>
      <trkpt lat="48.51342" lon="1.97452">
        <ele>144.8</ele>
        <time>2022-08-06T10:12:18Z</time>
      </trkpt>
      <trkpt lat="48.51343" lon="1.9746">
        <ele>144.4</ele>
        <time>2022-08-06T10:12:26Z</time>
      </trkpt>
      <trkpt lat="48.51337" lon="1.97463">
        <ele>144.9</ele>
        <time>2022-08-06T10:12:32Z</time>
      </trkpt>
      <trkpt lat="48.51331" lon="1.97466">
        <ele>145.4</ele>
        <time>2022-08-06T10:12:36Z</time>
      </trkpt>
      <trkpt lat="48.51324" lon="1.97468">
        <ele>145.8</ele>
        <time>2022-08-06T10:12:40Z</time>
      </trkpt>
      <trkpt lat="48.51316" lon="1.97473">
        <ele>146.2</ele>
        <time>2022-08-06T10:12:44Z</time>
      </trkpt>
      <trkpt lat="48.51309" lon="1.97477">
        <ele>146.6</ele>
        <time>2022-08-06T10:12:48Z</time>
      </trkpt>
      <trkpt lat="48.51304" lon="1.9748">
        <ele>146.8</ele>
        <time>2022-08-06T10:12:50Z</time>
      </trkpt>
      <trkpt lat="48.51296" lon="1.97484">
        <ele>147.2</ele>
        <time>2022-08-06T10:12:54Z</time>
      </trkpt>
      <trkpt lat="48.5129" lon="1.97487">
        <ele>147.6</ele>
        <time>2022-08-06T10:12:56Z</time>
      </trkpt>
      <trkpt lat="48.51285" lon="1.97489">
        <ele>147.9</ele>
        <time>2022-08-06T10:12:58Z</time>
      </trkpt>
      <trkpt lat="48.5128" lon="1.97492">
        <ele>148.1</ele>
        <time>2022-08-06T10:13:00Z</time>
      </trkpt>
      <trkpt lat="48.51275" lon="1.97496">
        <ele>148.3</ele>
        <time>2022-08-06T10:13:02Z</time>
      </trkpt>
      <trkpt lat="48.5127" lon="1.97501">
        <ele>148.5</ele>
        <time>2022-08-06T10:13:04Z</time>
      </trkpt>
      <trkpt lat="48.51265" lon="1.97505">
        <ele>148.8</ele>
        <time>2022-08-06T10:13:06Z</time>
      </trkpt>
      <trkpt lat="48.51261" lon="1.97509">
        <ele>149</ele>
        <time>2022-08-06T10:13:08Z</time>
      </trkpt>
      <trkpt lat="48.51255" lon="1.97512">
        <ele>149.3</ele>
        <time>2022-08-06T10:13:10Z</time>
      </trkpt>
      <trkpt lat="48.5125" lon="1.97515">
        <ele>149.4</ele>
        <time>2022-08-06T10:13:12Z</time>
      </trkpt>
      <trkpt lat="48.51244" lon="1.97518">
        <ele>149.3</ele>
        <time>2022-08-06T10:13:14Z</time>
      </trkpt>
      <trkpt lat="48.51238" lon="1.97526">
        <ele>149.1</ele>
        <time>2022-08-06T10:13:16Z</time>
      </trkpt>
      <trkpt lat="48.51234" lon="1.97534">
        <ele>148.8</ele>
        <time>2022-08-06T10:13:18Z</time>
      </trkpt>
      <trkpt lat="48.51228" lon="1.97543">
        <ele>148.4</ele>
        <time>2022-08-06T10:13:20Z</time>
      </trkpt>
      <trkpt lat="48.51224" lon="1.97552">
        <ele>148.1</ele>
        <time>2022-08-06T10:13:22Z</time>
      </trkpt>
      <trkpt lat="48.5122" lon="1.97564">
        <ele>147.7</ele>
        <time>2022-08-06T10:13:24Z</time>
      </trkpt>
      <trkpt lat="48.51216" lon="1.97575">
        <ele>147.1</ele>
        <time>2022-08-06T10:13:26Z</time>
      </trkpt>
      <trkpt lat="48.51211" lon="1.97585">
        <ele>146.5</ele>
        <time>2022-08-06T10:13:28Z</time>
      </trkpt>
      <trkpt lat="48.51206" lon="1.976">
        <ele>145.8</ele>
        <time>2022-08-06T10:13:30Z</time>
      </trkpt>
      <trkpt lat="48.51201" lon="1.97612">
        <ele>145.1</ele>
        <time>2022-08-06T10:13:32Z</time>
      </trkpt>
      <trkpt lat="48.51195" lon="1.97614">
        <ele>144.7</ele>
        <time>2022-08-06T10:13:34Z</time>
      </trkpt>
      <trkpt lat="48.51191" lon="1.97608">
        <ele>144.9</ele>
        <time>2022-08-06T10:13:36Z</time>
      </trkpt>
      <trkpt lat="48.51187" lon="1.97603">
        <ele>144.9</ele>
        <time>2022-08-06T10:13:38Z</time>
      </trkpt>
      <trkpt lat="48.51182" lon="1.97597">
        <ele>144.9</ele>
        <time>2022-08-06T10:13:40Z</time>
      </trkpt>
      <trkpt lat="48.51178" lon="1.97592">
        <ele>145</ele>
        <time>2022-08-06T10:13:42Z</time>
      </trkpt>
      <trkpt lat="48.51176" lon="1.97583">
        <ele>145.3</ele>
        <time>2022-08-06T10:13:44Z</time>
      </trkpt>
      <trkpt lat="48.51174" lon="1.97574">
        <ele>145.7</ele>
        <time>2022-08-06T10:13:46Z</time>
      </trkpt>
      <trkpt lat="48.51173" lon="1.97564">
        <ele>146.1</ele>
        <time>2022-08-06T10:13:48Z</time>
      </trkpt>
      <trkpt lat="48.51171" lon="1.97555">
        <ele>146.3</ele>
        <time>2022-08-06T10:13:50Z</time>
      </trkpt>
      <trkpt lat="48.5117" lon="1.97548">
        <ele>146.8</ele>
        <time>2022-08-06T10:13:52Z</time>
      </trkpt>
      <trkpt lat="48.51167" lon="1.9754">
        <ele>147.1</ele>
        <time>2022-08-06T10:13:54Z</time>
      </trkpt>
      <trkpt lat="48.51164" lon="1.9753">
        <ele>147.7</ele>
        <time>2022-08-06T10:13:56Z</time>
      </trkpt>
      <trkpt lat="48.51162" lon="1.9752">
        <ele>148</ele>
        <time>2022-08-06T10:13:58Z</time>
      </trkpt>
      <trkpt lat="48.5116" lon="1.97509">
        <ele>148.2</ele>
        <time>2022-08-06T10:14:00Z</time>
      </trkpt>
      <trkpt lat="48.5116" lon="1.97498">
        <ele>148.6</ele>
        <time>2022-08-06T10:14:02Z</time>
      </trkpt>
      <trkpt lat="48.5116" lon="1.97491">
        <ele>148.8</ele>
        <time>2022-08-06T10:14:04Z</time>
      </trkpt>
      <trkpt lat="48.51158" lon="1.97479">
        <ele>149.2</ele>
        <time>2022-08-06T10:14:06Z</time>
      </trkpt>
      <trkpt lat="48.51156" lon="1.97469">
        <ele>149.3</ele>
        <time>2022-08-06T10:14:08Z</time>
      </trkpt>
      <trkpt lat="48.51152" lon="1.97458">
        <ele>149.5</ele>
        <time>2022-08-06T10:14:10Z</time>
      </trkpt>
      <trkpt lat="48.5115" lon="1.97447">
        <ele>149.9</ele>
        <time>2022-08-06T10:14:12Z</time>
      </trkpt>
      <trkpt lat="48.51148" lon="1.97437">
        <ele>150.1</ele>
        <time>2022-08-06T10:14:14Z</time>
      </trkpt>
      <trkpt lat="48.51145" lon="1.97428">
        <ele>150.1</ele>
        <time>2022-08-06T10:14:16Z</time>
      </trkpt>
      <trkpt lat="48.51142" lon="1.97416">
        <ele>150.2</ele>
        <time>2022-08-06T10:14:18Z</time>
      </trkpt>
      <trkpt lat="48.51139" lon="1.97405">
        <ele>150.4</ele>
        <time>2022-08-06T10:14:20Z</time>
      </trkpt>
      <trkpt lat="48.51138" lon="1.97395">
        <ele>150.7</ele>
        <time>2022-08-06T10:14:22Z</time>
      </trkpt>
      <trkpt lat="48.51136" lon="1.97385">
        <ele>150.8</ele>
        <time>2022-08-06T10:14:24Z</time>
      </trkpt>
      <trkpt lat="48.51134" lon="1.97374">
        <ele>150.7</ele>
        <time>2022-08-06T10:14:26Z</time>
      </trkpt>
      <trkpt lat="48.51133" lon="1.97362">
        <ele>150.6</ele>
        <time>2022-08-06T10:14:28Z</time>
      </trkpt>
      <trkpt lat="48.51132" lon="1.9735">
        <ele>150.8</ele>
        <time>2022-08-06T10:14:30Z</time>
      </trkpt>
      <trkpt lat="48.5113" lon="1.97339">
        <ele>150.9</ele>
        <time>2022-08-06T10:14:32Z</time>
      </trkpt>
      <trkpt lat="48.5113" lon="1.9733">
        <ele>151.1</ele>
        <time>2022-08-06T10:14:34Z</time>
      </trkpt>
      <trkpt lat="48.51128" lon="1.97319">
        <ele>151</ele>
        <time>2022-08-06T10:14:36Z</time>
      </trkpt>
      <trkpt lat="48.51126" lon="1.97309">
        <ele>151</ele>
        <time>2022-08-06T10:14:38Z</time>
      </trkpt>
      <trkpt lat="48.51125" lon="1.97298">
        <ele>151.1</ele>
        <time>2022-08-06T10:14:40Z</time>
      </trkpt>
      <trkpt lat="48.51125" lon="1.9729">
        <ele>151.3</ele>
        <time>2022-08-06T10:14:42Z</time>
      </trkpt>
      <trkpt lat="48.51123" lon="1.97281">
        <ele>151.3</ele>
        <time>2022-08-06T10:14:44Z</time>
      </trkpt>
      <trkpt lat="48.51121" lon="1.97271">
        <ele>151.6</ele>
        <time>2022-08-06T10:14:46Z</time>
      </trkpt>
      <trkpt lat="48.51119" lon="1.9726">
        <ele>151.9</ele>
        <time>2022-08-06T10:14:48Z</time>
      </trkpt>
      <trkpt lat="48.51118" lon="1.97251">
        <ele>152.2</ele>
        <time>2022-08-06T10:14:50Z</time>
      </trkpt>
      <trkpt lat="48.51114" lon="1.9724">
        <ele>152.4</ele>
        <time>2022-08-06T10:14:52Z</time>
      </trkpt>
      <trkpt lat="48.51111" lon="1.97229">
        <ele>152.8</ele>
        <time>2022-08-06T10:14:54Z</time>
      </trkpt>
      <trkpt lat="48.51108" lon="1.97218">
        <ele>152.8</ele>
        <time>2022-08-06T10:14:56Z</time>
      </trkpt>
      <trkpt lat="48.51104" lon="1.97208">
        <ele>152.6</ele>
        <time>2022-08-06T10:14:58Z</time>
      </trkpt>
      <trkpt lat="48.51101" lon="1.97198">
        <ele>152.6</ele>
        <time>2022-08-06T10:15:00Z</time>
      </trkpt>
      <trkpt lat="48.51098" lon="1.97187">
        <ele>152.5</ele>
        <time>2022-08-06T10:15:02Z</time>
      </trkpt>
      <trkpt lat="48.51094" lon="1.97177">
        <ele>152.4</ele>
        <time>2022-08-06T10:15:04Z</time>
      </trkpt>
      <trkpt lat="48.51092" lon="1.97168">
        <ele>152.3</ele>
        <time>2022-08-06T10:15:06Z</time>
      </trkpt>
      <trkpt lat="48.5109" lon="1.97157">
        <ele>152.5</ele>
        <time>2022-08-06T10:15:08Z</time>
      </trkpt>
      <trkpt lat="48.5109" lon="1.97144">
        <ele>152.9</ele>
        <time>2022-08-06T10:15:10Z</time>
      </trkpt>
      <trkpt lat="48.5109" lon="1.97132">
        <ele>153</ele>
        <time>2022-08-06T10:15:12Z</time>
      </trkpt>
      <trkpt lat="48.5109" lon="1.97121">
        <ele>153</ele>
        <time>2022-08-06T10:15:14Z</time>
      </trkpt>
      <trkpt lat="48.51091" lon="1.97108">
        <ele>153</ele>
        <time>2022-08-06T10:15:16Z</time>
      </trkpt>
      <trkpt lat="48.51091" lon="1.97096">
        <ele>153</ele>
        <time>2022-08-06T10:15:18Z</time>
      </trkpt>
      <trkpt lat="48.51089" lon="1.97085">
        <ele>153</ele>
        <time>2022-08-06T10:15:20Z</time>
      </trkpt>
      <trkpt lat="48.51086" lon="1.97074">
        <ele>153</ele>
        <time>2022-08-06T10:15:22Z</time>
      </trkpt>
      <trkpt lat="48.51086" lon="1.97065">
        <ele>153</ele>
        <time>2022-08-06T10:15:24Z</time>
      </trkpt>
      <trkpt lat="48.51084" lon="1.97055">
        <ele>153</ele>
        <time>2022-08-06T10:15:26Z</time>
      </trkpt>
      <trkpt lat="48.51083" lon="1.97048">
        <ele>153.3</ele>
        <time>2022-08-06T10:15:28Z</time>
      </trkpt>
      <trkpt lat="48.51084" lon="1.9703">
        <ele>153.9</ele>
        <time>2022-08-06T10:15:32Z</time>
      </trkpt>
      <trkpt lat="48.51084" lon="1.97019">
        <ele>154</ele>
        <time>2022-08-06T10:15:34Z</time>
      </trkpt>
      <trkpt lat="48.51085" lon="1.97008">
        <ele>154</ele>
        <time>2022-08-06T10:15:36Z</time>
      </trkpt>
      <trkpt lat="48.51087" lon="1.96996">
        <ele>154</ele>
        <time>2022-08-06T10:15:38Z</time>
      </trkpt>
      <trkpt lat="48.51088" lon="1.96983">
        <ele>154</ele>
        <time>2022-08-06T10:15:40Z</time>
      </trkpt>
      <trkpt lat="48.51088" lon="1.9697">
        <ele>154.1</ele>
        <time>2022-08-06T10:15:42Z</time>
      </trkpt>
      <trkpt lat="48.51091" lon="1.9696">
        <ele>154.3</ele>
        <time>2022-08-06T10:15:44Z</time>
      </trkpt>
      <trkpt lat="48.51094" lon="1.96952">
        <ele>154.4</ele>
        <time>2022-08-06T10:15:46Z</time>
      </trkpt>
      <trkpt lat="48.51093" lon="1.96944">
        <ele>154.7</ele>
        <time>2022-08-06T10:15:48Z</time>
      </trkpt>
      <trkpt lat="48.51091" lon="1.96933">
        <ele>154.8</ele>
        <time>2022-08-06T10:15:50Z</time>
      </trkpt>
      <trkpt lat="48.51095" lon="1.96925">
        <ele>154.9</ele>
        <time>2022-08-06T10:15:52Z</time>
      </trkpt>
      <trkpt lat="48.51099" lon="1.96916">
        <ele>155</ele>
        <time>2022-08-06T10:15:54Z</time>
      </trkpt>
      <trkpt lat="48.51104" lon="1.96908">
        <ele>155</ele>
        <time>2022-08-06T10:15:56Z</time>
      </trkpt>
      <trkpt lat="48.5111" lon="1.969">
        <ele>155</ele>
        <time>2022-08-06T10:15:58Z</time>
      </trkpt>
      <trkpt lat="48.51116" lon="1.96892">
        <ele>154.8</ele>
        <time>2022-08-06T10:16:00Z</time>
      </trkpt>
      <trkpt lat="48.51122" lon="1.96883">
        <ele>154.7</ele>
        <time>2022-08-06T10:16:02Z</time>
      </trkpt>
      <trkpt lat="48.51127" lon="1.96874">
        <ele>154.7</ele>
        <time>2022-08-06T10:16:04Z</time>
      </trkpt>
      <trkpt lat="48.51133" lon="1.96865">
        <ele>154.9</ele>
        <time>2022-08-06T10:16:06Z</time>
      </trkpt>
      <trkpt lat="48.5114" lon="1.96856">
        <ele>155</ele>
        <time>2022-08-06T10:16:08Z</time>
      </trkpt>
      <trkpt lat="48.51146" lon="1.96846">
        <ele>154.8</ele>
        <time>2022-08-06T10:16:10Z</time>
      </trkpt>
      <trkpt lat="48.51151" lon="1.96837">
        <ele>154.6</ele>
        <time>2022-08-06T10:16:12Z</time>
      </trkpt>
      <trkpt lat="48.51156" lon="1.96828">
        <ele>154.4</ele>
        <time>2022-08-06T10:16:14Z</time>
      </trkpt>
      <trkpt lat="48.51161" lon="1.96819">
        <ele>154.2</ele>
        <time>2022-08-06T10:16:16Z</time>
      </trkpt>
      <trkpt lat="48.51167" lon="1.96809">
        <ele>154</ele>
        <time>2022-08-06T10:16:18Z</time>
      </trkpt>
      <trkpt lat="48.51174" lon="1.96801">
        <ele>154</ele>
        <time>2022-08-06T10:16:20Z</time>
      </trkpt>
      <trkpt lat="48.51179" lon="1.96791">
        <ele>154</ele>
        <time>2022-08-06T10:16:22Z</time>
      </trkpt>
      <trkpt lat="48.51185" lon="1.96782">
        <ele>154</ele>
        <time>2022-08-06T10:16:24Z</time>
      </trkpt>
      <trkpt lat="48.51191" lon="1.96773">
        <ele>154</ele>
        <time>2022-08-06T10:16:26Z</time>
      </trkpt>
      <trkpt lat="48.51197" lon="1.96764">
        <ele>153.8</ele>
        <time>2022-08-06T10:16:28Z</time>
      </trkpt>
      <trkpt lat="48.51202" lon="1.96755">
        <ele>153.5</ele>
        <time>2022-08-06T10:16:30Z</time>
      </trkpt>
      <trkpt lat="48.51208" lon="1.96743">
        <ele>153.1</ele>
        <time>2022-08-06T10:16:32Z</time>
      </trkpt>
      <trkpt lat="48.51215" lon="1.96733">
        <ele>152.9</ele>
        <time>2022-08-06T10:16:34Z</time>
      </trkpt>
      <trkpt lat="48.51222" lon="1.96723">
        <ele>153</ele>
        <time>2022-08-06T10:16:36Z</time>
      </trkpt>
      <trkpt lat="48.51228" lon="1.96713">
        <ele>152.4</ele>
        <time>2022-08-06T10:16:38Z</time>
      </trkpt>
      <trkpt lat="48.51234" lon="1.967">
        <ele>151.7</ele>
        <time>2022-08-06T10:16:40Z</time>
      </trkpt>
      <trkpt lat="48.5124" lon="1.96689">
        <ele>151.1</ele>
        <time>2022-08-06T10:16:42Z</time>
      </trkpt>
      <trkpt lat="48.51245" lon="1.96675">
        <ele>150.5</ele>
        <time>2022-08-06T10:16:44Z</time>
      </trkpt>
      <trkpt lat="48.51254" lon="1.96661">
        <ele>149.5</ele>
        <time>2022-08-06T10:16:46Z</time>
      </trkpt>
      <trkpt lat="48.51261" lon="1.96647">
        <ele>148.4</ele>
        <time>2022-08-06T10:16:48Z</time>
      </trkpt>
      <trkpt lat="48.51271" lon="1.96634">
        <ele>147.1</ele>
        <time>2022-08-06T10:16:50Z</time>
      </trkpt>
      <trkpt lat="48.51282" lon="1.96621">
        <ele>146</ele>
        <time>2022-08-06T10:16:52Z</time>
      </trkpt>
      <trkpt lat="48.51293" lon="1.96609">
        <ele>144.9</ele>
        <time>2022-08-06T10:16:54Z</time>
      </trkpt>
      <trkpt lat="48.51302" lon="1.96597">
        <ele>143.5</ele>
        <time>2022-08-06T10:16:56Z</time>
      </trkpt>
      <trkpt lat="48.5131" lon="1.96584">
        <ele>142.7</ele>
        <time>2022-08-06T10:16:58Z</time>
      </trkpt>
      <trkpt lat="48.51319" lon="1.96571">
        <ele>142.1</ele>
        <time>2022-08-06T10:17:00Z</time>
      </trkpt>
      <trkpt lat="48.51323" lon="1.96556">
        <ele>141.8</ele>
        <time>2022-08-06T10:17:02Z</time>
      </trkpt>
      <trkpt lat="48.51327" lon="1.96538">
        <ele>141.4</ele>
        <time>2022-08-06T10:17:04Z</time>
      </trkpt>
      <trkpt lat="48.51337" lon="1.96527">
        <ele>141</ele>
        <time>2022-08-06T10:17:06Z</time>
      </trkpt>
      <trkpt lat="48.51344" lon="1.96517">
        <ele>141</ele>
        <time>2022-08-06T10:17:08Z</time>
      </trkpt>
      <trkpt lat="48.51347" lon="1.9651">
        <ele>141</ele>
        <time>2022-08-06T10:17:10Z</time>
      </trkpt>
      <trkpt lat="48.51354" lon="1.96511">
        <ele>141</ele>
        <time>2022-08-06T10:17:14Z</time>
      </trkpt>
      <trkpt lat="48.51362" lon="1.9651">
        <ele>141</ele>
        <time>2022-08-06T10:17:20Z</time>
      </trkpt>
      <trkpt lat="48.51367" lon="1.96508">
        <ele>141.1</ele>
        <time>2022-08-06T10:17:22Z</time>
      </trkpt>
      <trkpt lat="48.51372" lon="1.96506">
        <ele>141.1</ele>
        <time>2022-08-06T10:17:24Z</time>
      </trkpt>
      <trkpt lat="48.51381" lon="1.96506">
        <ele>141.2</ele>
        <time>2022-08-06T10:17:26Z</time>
      </trkpt>
      <trkpt lat="48.51388" lon="1.96506">
        <ele>141.2</ele>
        <time>2022-08-06T10:17:28Z</time>
      </trkpt>
      <trkpt lat="48.51396" lon="1.96505">
        <ele>141.4</ele>
        <time>2022-08-06T10:17:30Z</time>
      </trkpt>
      <trkpt lat="48.51402" lon="1.96503">
        <ele>141.6</ele>
        <time>2022-08-06T10:17:32Z</time>
      </trkpt>
      <trkpt lat="48.51408" lon="1.96504">
        <ele>141.8</ele>
        <time>2022-08-06T10:17:34Z</time>
      </trkpt>
      <trkpt lat="48.51413" lon="1.96505">
        <ele>142.1</ele>
        <time>2022-08-06T10:17:36Z</time>
      </trkpt>
      <trkpt lat="48.51419" lon="1.9651">
        <ele>142.6</ele>
        <time>2022-08-06T10:17:40Z</time>
      </trkpt>
      <trkpt lat="48.51424" lon="1.96509">
        <ele>143.2</ele>
        <time>2022-08-06T10:17:44Z</time>
      </trkpt>
      <trkpt lat="48.51431" lon="1.96511">
        <ele>144.2</ele>
        <time>2022-08-06T10:17:48Z</time>
      </trkpt>
      <trkpt lat="48.51438" lon="1.96508">
        <ele>144.8</ele>
        <time>2022-08-06T10:17:52Z</time>
      </trkpt>
      <trkpt lat="48.51444" lon="1.96509">
        <ele>145.5</ele>
        <time>2022-08-06T10:17:54Z</time>
      </trkpt>
      <trkpt lat="48.51452" lon="1.9651">
        <ele>146.8</ele>
        <time>2022-08-06T10:17:58Z</time>
      </trkpt>
      <trkpt lat="48.51459" lon="1.96507">
        <ele>147.6</ele>
        <time>2022-08-06T10:18:02Z</time>
      </trkpt>
      <trkpt lat="48.51466" lon="1.96507">
        <ele>148.6</ele>
        <time>2022-08-06T10:18:06Z</time>
      </trkpt>
      <trkpt lat="48.51472" lon="1.96508">
        <ele>149.5</ele>
        <time>2022-08-06T10:18:10Z</time>
      </trkpt>
      <trkpt lat="48.51477" lon="1.96508">
        <ele>150</ele>
        <time>2022-08-06T10:18:12Z</time>
      </trkpt>
      <trkpt lat="48.51485" lon="1.96511">
        <ele>151</ele>
        <time>2022-08-06T10:18:16Z</time>
      </trkpt>
      <trkpt lat="48.51488" lon="1.96515">
        <ele>151.5</ele>
        <time>2022-08-06T10:18:18Z</time>
      </trkpt>
      <trkpt lat="48.51492" lon="1.9652">
        <ele>152.1</ele>
        <time>2022-08-06T10:18:20Z</time>
      </trkpt>
      <trkpt lat="48.51496" lon="1.96524">
        <ele>152.6</ele>
        <time>2022-08-06T10:18:22Z</time>
      </trkpt>
      <trkpt lat="48.51503" lon="1.96531">
        <ele>153</ele>
        <time>2022-08-06T10:18:26Z</time>
      </trkpt>
      <trkpt lat="48.51508" lon="1.96535">
        <ele>153</ele>
        <time>2022-08-06T10:18:28Z</time>
      </trkpt>
      <trkpt lat="48.51513" lon="1.9654">
        <ele>153</ele>
        <time>2022-08-06T10:18:30Z</time>
      </trkpt>
      <trkpt lat="48.51521" lon="1.96549">
        <ele>153</ele>
        <time>2022-08-06T10:18:34Z</time>
      </trkpt>
      <trkpt lat="48.51525" lon="1.96555">
        <ele>153</ele>
        <time>2022-08-06T10:18:36Z</time>
      </trkpt>
      <trkpt lat="48.5153" lon="1.9656">
        <ele>153.1</ele>
        <time>2022-08-06T10:18:38Z</time>
      </trkpt>
      <trkpt lat="48.51536" lon="1.96566">
        <ele>153.3</ele>
        <time>2022-08-06T10:18:40Z</time>
      </trkpt>
      <trkpt lat="48.51542" lon="1.96573">
        <ele>153.5</ele>
        <time>2022-08-06T10:18:42Z</time>
      </trkpt>
      <trkpt lat="48.51547" lon="1.96584">
        <ele>153.7</ele>
        <time>2022-08-06T10:18:44Z</time>
      </trkpt>
      <trkpt lat="48.51552" lon="1.96592">
        <ele>153.6</ele>
        <time>2022-08-06T10:18:46Z</time>
      </trkpt>
      <trkpt lat="48.5156" lon="1.96601">
        <ele>153.4</ele>
        <time>2022-08-06T10:18:48Z</time>
      </trkpt>
      <trkpt lat="48.51566" lon="1.96609">
        <ele>153.1</ele>
        <time>2022-08-06T10:18:50Z</time>
      </trkpt>
      <trkpt lat="48.51572" lon="1.96619">
        <ele>153</ele>
        <time>2022-08-06T10:18:52Z</time>
      </trkpt>
      <trkpt lat="48.51577" lon="1.96629">
        <ele>153</ele>
        <time>2022-08-06T10:18:54Z</time>
      </trkpt>
      <trkpt lat="48.51582" lon="1.96638">
        <ele>153</ele>
        <time>2022-08-06T10:18:56Z</time>
      </trkpt>
      <trkpt lat="48.51586" lon="1.96648">
        <ele>152.7</ele>
        <time>2022-08-06T10:18:58Z</time>
      </trkpt>
      <trkpt lat="48.51589" lon="1.96657">
        <ele>152.5</ele>
        <time>2022-08-06T10:19:00Z</time>
      </trkpt>
      <trkpt lat="48.51592" lon="1.96666">
        <ele>152.3</ele>
        <time>2022-08-06T10:19:02Z</time>
      </trkpt>
      <trkpt lat="48.51598" lon="1.96675">
        <ele>152.2</ele>
        <time>2022-08-06T10:19:04Z</time>
      </trkpt>
      <trkpt lat="48.51604" lon="1.96683">
        <ele>152.2</ele>
        <time>2022-08-06T10:19:06Z</time>
      </trkpt>
      <trkpt lat="48.51609" lon="1.96691">
        <ele>152.1</ele>
        <time>2022-08-06T10:19:08Z</time>
      </trkpt>
      <trkpt lat="48.51612" lon="1.96697">
        <ele>152</ele>
        <time>2022-08-06T10:19:10Z</time>
      </trkpt>
      <trkpt lat="48.51617" lon="1.96705">
        <ele>152.2</ele>
        <time>2022-08-06T10:19:12Z</time>
      </trkpt>
      <trkpt lat="48.51624" lon="1.96712">
        <ele>152.4</ele>
        <time>2022-08-06T10:19:14Z</time>
      </trkpt>
      <trkpt lat="48.51629" lon="1.96721">
        <ele>152.7</ele>
        <time>2022-08-06T10:19:16Z</time>
      </trkpt>
      <trkpt lat="48.51635" lon="1.96729">
        <ele>152.8</ele>
        <time>2022-08-06T10:19:18Z</time>
      </trkpt>
      <trkpt lat="48.51639" lon="1.96738">
        <ele>153</ele>
        <time>2022-08-06T10:19:20Z</time>
      </trkpt>
      <trkpt lat="48.51644" lon="1.96746">
        <ele>153</ele>
        <time>2022-08-06T10:19:22Z</time>
      </trkpt>
      <trkpt lat="48.51649" lon="1.96754">
        <ele>152.9</ele>
        <time>2022-08-06T10:19:24Z</time>
      </trkpt>
      <trkpt lat="48.51655" lon="1.96763">
        <ele>152.8</ele>
        <time>2022-08-06T10:19:26Z</time>
      </trkpt>
      <trkpt lat="48.5166" lon="1.96773">
        <ele>152.8</ele>
        <time>2022-08-06T10:19:28Z</time>
      </trkpt>
      <trkpt lat="48.51665" lon="1.9678">
        <ele>152.9</ele>
        <time>2022-08-06T10:19:30Z</time>
      </trkpt>
      <trkpt lat="48.51671" lon="1.96787">
        <ele>153.1</ele>
        <time>2022-08-06T10:19:32Z</time>
      </trkpt>
      <trkpt lat="48.51677" lon="1.96794">
        <ele>153.4</ele>
        <time>2022-08-06T10:19:34Z</time>
      </trkpt>
      <trkpt lat="48.51682" lon="1.968">
        <ele>153.6</ele>
        <time>2022-08-06T10:19:36Z</time>
      </trkpt>
      <trkpt lat="48.51687" lon="1.96809">
        <ele>153.7</ele>
        <time>2022-08-06T10:19:38Z</time>
      </trkpt>
      <trkpt lat="48.51692" lon="1.96819">
        <ele>153.9</ele>
        <time>2022-08-06T10:19:40Z</time>
      </trkpt>
      <trkpt lat="48.51696" lon="1.96827">
        <ele>154</ele>
        <time>2022-08-06T10:19:42Z</time>
      </trkpt>
      <trkpt lat="48.51701" lon="1.96836">
        <ele>154</ele>
        <time>2022-08-06T10:19:44Z</time>
      </trkpt>
      <trkpt lat="48.51705" lon="1.96845">
        <ele>154</ele>
        <time>2022-08-06T10:19:46Z</time>
      </trkpt>
      <trkpt lat="48.51711" lon="1.96853">
        <ele>154</ele>
        <time>2022-08-06T10:19:48Z</time>
      </trkpt>
      <trkpt lat="48.51718" lon="1.96861">
        <ele>154</ele>
        <time>2022-08-06T10:19:50Z</time>
      </trkpt>
      <trkpt lat="48.51723" lon="1.96866">
        <ele>154</ele>
        <time>2022-08-06T10:19:52Z</time>
      </trkpt>
      <trkpt lat="48.5173" lon="1.96876">
        <ele>154</ele>
        <time>2022-08-06T10:19:54Z</time>
      </trkpt>
      <trkpt lat="48.51736" lon="1.96885">
        <ele>154</ele>
        <time>2022-08-06T10:19:56Z</time>
      </trkpt>
      <trkpt lat="48.51744" lon="1.96893">
        <ele>154</ele>
        <time>2022-08-06T10:19:58Z</time>
      </trkpt>
      <trkpt lat="48.51749" lon="1.96902">
        <ele>154</ele>
        <time>2022-08-06T10:20:00Z</time>
      </trkpt>
      <trkpt lat="48.51753" lon="1.96909">
        <ele>154</ele>
        <time>2022-08-06T10:20:02Z</time>
      </trkpt>
      <trkpt lat="48.51758" lon="1.9692">
        <ele>153.9</ele>
        <time>2022-08-06T10:20:04Z</time>
      </trkpt>
      <trkpt lat="48.51761" lon="1.96931">
        <ele>153.7</ele>
        <time>2022-08-06T10:20:06Z</time>
      </trkpt>
      <trkpt lat="48.51767" lon="1.9694">
        <ele>153.7</ele>
        <time>2022-08-06T10:20:08Z</time>
      </trkpt>
      <trkpt lat="48.51772" lon="1.9695">
        <ele>153.6</ele>
        <time>2022-08-06T10:20:10Z</time>
      </trkpt>
      <trkpt lat="48.51776" lon="1.96961">
        <ele>153.3</ele>
        <time>2022-08-06T10:20:12Z</time>
      </trkpt>
      <trkpt lat="48.51782" lon="1.96972">
        <ele>153.2</ele>
        <time>2022-08-06T10:20:14Z</time>
      </trkpt>
      <trkpt lat="48.51787" lon="1.96981">
        <ele>153.3</ele>
        <time>2022-08-06T10:20:16Z</time>
      </trkpt>
      <trkpt lat="48.5179" lon="1.96992">
        <ele>153.4</ele>
        <time>2022-08-06T10:20:18Z</time>
      </trkpt>
      <trkpt lat="48.51793" lon="1.97003">
        <ele>153.4</ele>
        <time>2022-08-06T10:20:20Z</time>
      </trkpt>
      <trkpt lat="48.51797" lon="1.97014">
        <ele>153.2</ele>
        <time>2022-08-06T10:20:22Z</time>
      </trkpt>
      <trkpt lat="48.51801" lon="1.97024">
        <ele>153</ele>
        <time>2022-08-06T10:20:24Z</time>
      </trkpt>
      <trkpt lat="48.51806" lon="1.97031">
        <ele>153</ele>
        <time>2022-08-06T10:20:26Z</time>
      </trkpt>
      <trkpt lat="48.5181" lon="1.97042">
        <ele>153.1</ele>
        <time>2022-08-06T10:20:28Z</time>
      </trkpt>
      <trkpt lat="48.51816" lon="1.97054">
        <ele>153</ele>
        <time>2022-08-06T10:20:30Z</time>
      </trkpt>
      <trkpt lat="48.51822" lon="1.97067">
        <ele>152.8</ele>
        <time>2022-08-06T10:20:32Z</time>
      </trkpt>
      <trkpt lat="48.51827" lon="1.97077">
        <ele>152.8</ele>
        <time>2022-08-06T10:20:34Z</time>
      </trkpt>
      <trkpt lat="48.51831" lon="1.97086">
        <ele>152.8</ele>
        <time>2022-08-06T10:20:36Z</time>
      </trkpt>
      <trkpt lat="48.51835" lon="1.97096">
        <ele>152.6</ele>
        <time>2022-08-06T10:20:38Z</time>
      </trkpt>
      <trkpt lat="48.5184" lon="1.97106">
        <ele>152.6</ele>
        <time>2022-08-06T10:20:40Z</time>
      </trkpt>
      <trkpt lat="48.51844" lon="1.97116">
        <ele>152.7</ele>
        <time>2022-08-06T10:20:42Z</time>
      </trkpt>
      <trkpt lat="48.51848" lon="1.97126">
        <ele>152.8</ele>
        <time>2022-08-06T10:20:44Z</time>
      </trkpt>
      <trkpt lat="48.51852" lon="1.97135">
        <ele>152.8</ele>
        <time>2022-08-06T10:20:46Z</time>
      </trkpt>
      <trkpt lat="48.51855" lon="1.97146">
        <ele>152.7</ele>
        <time>2022-08-06T10:20:48Z</time>
      </trkpt>
      <trkpt lat="48.51859" lon="1.97155">
        <ele>152.9</ele>
        <time>2022-08-06T10:20:50Z</time>
      </trkpt>
      <trkpt lat="48.51863" lon="1.97166">
        <ele>153.1</ele>
        <time>2022-08-06T10:20:52Z</time>
      </trkpt>
      <trkpt lat="48.51868" lon="1.97176">
        <ele>153.5</ele>
        <time>2022-08-06T10:20:54Z</time>
      </trkpt>
      <trkpt lat="48.51871" lon="1.97186">
        <ele>153.7</ele>
        <time>2022-08-06T10:20:56Z</time>
      </trkpt>
      <trkpt lat="48.51875" lon="1.97197">
        <ele>154</ele>
        <time>2022-08-06T10:20:58Z</time>
      </trkpt>
      <trkpt lat="48.51879" lon="1.97207">
        <ele>154.5</ele>
        <time>2022-08-06T10:21:00Z</time>
      </trkpt>
      <trkpt lat="48.51883" lon="1.97218">
        <ele>154.8</ele>
        <time>2022-08-06T10:21:02Z</time>
      </trkpt>
      <trkpt lat="48.51887" lon="1.97228">
        <ele>154.9</ele>
        <time>2022-08-06T10:21:04Z</time>
      </trkpt>
      <trkpt lat="48.51891" lon="1.97237">
        <ele>155</ele>
        <time>2022-08-06T10:21:06Z</time>
      </trkpt>
      <trkpt lat="48.51895" lon="1.97247">
        <ele>155</ele>
        <time>2022-08-06T10:21:08Z</time>
      </trkpt>
      <trkpt lat="48.51897" lon="1.97259">
        <ele>155</ele>
        <time>2022-08-06T10:21:10Z</time>
      </trkpt>
      <trkpt lat="48.51898" lon="1.97272">
        <ele>155</ele>
        <time>2022-08-06T10:21:12Z</time>
      </trkpt>
      <trkpt lat="48.51897" lon="1.97284">
        <ele>155</ele>
        <time>2022-08-06T10:21:14Z</time>
      </trkpt>
      <trkpt lat="48.51898" lon="1.97298">
        <ele>155</ele>
        <time>2022-08-06T10:21:16Z</time>
      </trkpt>
      <trkpt lat="48.51897" lon="1.97311">
        <ele>155</ele>
        <time>2022-08-06T10:21:18Z</time>
      </trkpt>
      <trkpt lat="48.51896" lon="1.97322">
        <ele>155</ele>
        <time>2022-08-06T10:21:20Z</time>
      </trkpt>
      <trkpt lat="48.51897" lon="1.97336">
        <ele>155</ele>
        <time>2022-08-06T10:21:22Z</time>
      </trkpt>
      <trkpt lat="48.51897" lon="1.97349">
        <ele>155</ele>
        <time>2022-08-06T10:21:24Z</time>
      </trkpt>
      <trkpt lat="48.51896" lon="1.97363">
        <ele>155</ele>
        <time>2022-08-06T10:21:26Z</time>
      </trkpt>
      <trkpt lat="48.51896" lon="1.97377">
        <ele>155</ele>
        <time>2022-08-06T10:21:28Z</time>
      </trkpt>
      <trkpt lat="48.51895" lon="1.9739">
        <ele>155</ele>
        <time>2022-08-06T10:21:30Z</time>
      </trkpt>
      <trkpt lat="48.51896" lon="1.97406">
        <ele>155</ele>
        <time>2022-08-06T10:21:32Z</time>
      </trkpt>
      <trkpt lat="48.51897" lon="1.97419">
        <ele>154.9</ele>
        <time>2022-08-06T10:21:34Z</time>
      </trkpt>
      <trkpt lat="48.51896" lon="1.97432">
        <ele>154.6</ele>
        <time>2022-08-06T10:21:36Z</time>
      </trkpt>
      <trkpt lat="48.51895" lon="1.97444">
        <ele>154.2</ele>
        <time>2022-08-06T10:21:38Z</time>
      </trkpt>
      <trkpt lat="48.51895" lon="1.97457">
        <ele>154.2</ele>
        <time>2022-08-06T10:21:40Z</time>
      </trkpt>
      <trkpt lat="48.51895" lon="1.97472">
        <ele>154.2</ele>
        <time>2022-08-06T10:21:42Z</time>
      </trkpt>
      <trkpt lat="48.51895" lon="1.97485">
        <ele>154.2</ele>
        <time>2022-08-06T10:21:44Z</time>
      </trkpt>
      <trkpt lat="48.51893" lon="1.97496">
        <ele>154.1</ele>
        <time>2022-08-06T10:21:46Z</time>
      </trkpt>
      <trkpt lat="48.5189" lon="1.97505">
        <ele>154</ele>
        <time>2022-08-06T10:21:48Z</time>
      </trkpt>
      <trkpt lat="48.5189" lon="1.97516">
        <ele>154.1</ele>
        <time>2022-08-06T10:21:50Z</time>
      </trkpt>
      <trkpt lat="48.51887" lon="1.97527">
        <ele>153.8</ele>
        <time>2022-08-06T10:21:52Z</time>
      </trkpt>
      <trkpt lat="48.51885" lon="1.97539">
        <ele>153.7</ele>
        <time>2022-08-06T10:21:54Z</time>
      </trkpt>
      <trkpt lat="48.51884" lon="1.97552">
        <ele>153.6</ele>
        <time>2022-08-06T10:21:56Z</time>
      </trkpt>
      <trkpt lat="48.51882" lon="1.97565">
        <ele>153.6</ele>
        <time>2022-08-06T10:21:58Z</time>
      </trkpt>
      <trkpt lat="48.51881" lon="1.97577">
        <ele>153.7</ele>
        <time>2022-08-06T10:22:00Z</time>
      </trkpt>
      <trkpt lat="48.51881" lon="1.97589">
        <ele>153.9</ele>
        <time>2022-08-06T10:22:02Z</time>
      </trkpt>
      <trkpt lat="48.5188" lon="1.97599">
        <ele>154.2</ele>
        <time>2022-08-06T10:22:04Z</time>
      </trkpt>
      <trkpt lat="48.51881" lon="1.97609">
        <ele>154.7</ele>
        <time>2022-08-06T10:22:06Z</time>
      </trkpt>
      <trkpt lat="48.51884" lon="1.9762">
        <ele>154.8</ele>
        <time>2022-08-06T10:22:08Z</time>
      </trkpt>
      <trkpt lat="48.51887" lon="1.97633">
        <ele>154.9</ele>
        <time>2022-08-06T10:22:10Z</time>
      </trkpt>
      <trkpt lat="48.5189" lon="1.97646">
        <ele>155</ele>
        <time>2022-08-06T10:22:12Z</time>
      </trkpt>
      <trkpt lat="48.51893" lon="1.97658">
        <ele>155</ele>
        <time>2022-08-06T10:22:14Z</time>
      </trkpt>
      <trkpt lat="48.51895" lon="1.9767">
        <ele>155</ele>
        <time>2022-08-06T10:22:16Z</time>
      </trkpt>
      <trkpt lat="48.51898" lon="1.97682">
        <ele>155</ele>
        <time>2022-08-06T10:22:18Z</time>
      </trkpt>
      <trkpt lat="48.519" lon="1.97694">
        <ele>155</ele>
        <time>2022-08-06T10:22:20Z</time>
      </trkpt>
      <trkpt lat="48.51903" lon="1.97706">
        <ele>155</ele>
        <time>2022-08-06T10:22:22Z</time>
      </trkpt>
      <trkpt lat="48.51906" lon="1.97717">
        <ele>155</ele>
        <time>2022-08-06T10:22:24Z</time>
      </trkpt>
      <trkpt lat="48.51909" lon="1.97729">
        <ele>155</ele>
        <time>2022-08-06T10:22:26Z</time>
      </trkpt>
      <trkpt lat="48.51911" lon="1.97742">
        <ele>155</ele>
        <time>2022-08-06T10:22:28Z</time>
      </trkpt>
      <trkpt lat="48.51914" lon="1.97755">
        <ele>155</ele>
        <time>2022-08-06T10:22:30Z</time>
      </trkpt>
      <trkpt lat="48.51914" lon="1.97768">
        <ele>154.9</ele>
        <time>2022-08-06T10:22:32Z</time>
      </trkpt>
      <trkpt lat="48.51917" lon="1.97779">
        <ele>155</ele>
        <time>2022-08-06T10:22:34Z</time>
      </trkpt>
      <trkpt lat="48.51919" lon="1.97792">
        <ele>155</ele>
        <time>2022-08-06T10:22:36Z</time>
      </trkpt>
      <trkpt lat="48.51922" lon="1.97805">
        <ele>155</ele>
        <time>2022-08-06T10:22:38Z</time>
      </trkpt>
      <trkpt lat="48.51923" lon="1.97816">
        <ele>155</ele>
        <time>2022-08-06T10:22:40Z</time>
      </trkpt>
      <trkpt lat="48.51925" lon="1.97827">
        <ele>155</ele>
        <time>2022-08-06T10:22:42Z</time>
      </trkpt>
      <trkpt lat="48.51926" lon="1.97839">
        <ele>155</ele>
        <time>2022-08-06T10:22:44Z</time>
      </trkpt>
      <trkpt lat="48.51927" lon="1.97851">
        <ele>155</ele>
        <time>2022-08-06T10:22:46Z</time>
      </trkpt>
      <trkpt lat="48.51928" lon="1.97864">
        <ele>155</ele>
        <time>2022-08-06T10:22:48Z</time>
      </trkpt>
      <trkpt lat="48.51927" lon="1.97879">
        <ele>155</ele>
        <time>2022-08-06T10:22:50Z</time>
      </trkpt>
      <trkpt lat="48.51926" lon="1.97893">
        <ele>155</ele>
        <time>2022-08-06T10:22:52Z</time>
      </trkpt>
      <trkpt lat="48.51926" lon="1.97904">
        <ele>155</ele>
        <time>2022-08-06T10:22:54Z</time>
      </trkpt>
      <trkpt lat="48.51926" lon="1.97915">
        <ele>155</ele>
        <time>2022-08-06T10:22:56Z</time>
      </trkpt>
      <trkpt lat="48.51925" lon="1.97925">
        <ele>155</ele>
        <time>2022-08-06T10:22:58Z</time>
      </trkpt>
      <trkpt lat="48.51925" lon="1.97936">
        <ele>155</ele>
        <time>2022-08-06T10:23:00Z</time>
      </trkpt>
      <trkpt lat="48.51925" lon="1.97945">
        <ele>155</ele>
        <time>2022-08-06T10:23:02Z</time>
      </trkpt>
      <trkpt lat="48.51925" lon="1.97956">
        <ele>155</ele>
        <time>2022-08-06T10:23:04Z</time>
      </trkpt>
      <trkpt lat="48.51925" lon="1.97966">
        <ele>155</ele>
        <time>2022-08-06T10:23:06Z</time>
      </trkpt>
      <trkpt lat="48.51926" lon="1.97977">
        <ele>155</ele>
        <time>2022-08-06T10:23:08Z</time>
      </trkpt>
      <trkpt lat="48.51926" lon="1.9799">
        <ele>155</ele>
        <time>2022-08-06T10:23:10Z</time>
      </trkpt>
      <trkpt lat="48.51926" lon="1.98002">
        <ele>155</ele>
        <time>2022-08-06T10:23:12Z</time>
      </trkpt>
      <trkpt lat="48.51927" lon="1.98011">
        <ele>155</ele>
        <time>2022-08-06T10:23:14Z</time>
      </trkpt>
      <trkpt lat="48.51928" lon="1.98022">
        <ele>155</ele>
        <time>2022-08-06T10:23:16Z</time>
      </trkpt>
      <trkpt lat="48.5193" lon="1.98034">
        <ele>155</ele>
        <time>2022-08-06T10:23:18Z</time>
      </trkpt>
      <trkpt lat="48.5193" lon="1.98045">
        <ele>155</ele>
        <time>2022-08-06T10:23:20Z</time>
      </trkpt>
      <trkpt lat="48.51932" lon="1.98058">
        <ele>155</ele>
        <time>2022-08-06T10:23:22Z</time>
      </trkpt>
      <trkpt lat="48.51931" lon="1.98068">
        <ele>155.2</ele>
        <time>2022-08-06T10:23:24Z</time>
      </trkpt>
      <trkpt lat="48.51929" lon="1.98082">
        <ele>155.4</ele>
        <time>2022-08-06T10:23:26Z</time>
      </trkpt>
      <trkpt lat="48.51928" lon="1.98096">
        <ele>154.9</ele>
        <time>2022-08-06T10:23:28Z</time>
      </trkpt>
      <trkpt lat="48.51926" lon="1.98108">
        <ele>154.4</ele>
        <time>2022-08-06T10:23:30Z</time>
      </trkpt>
      <trkpt lat="48.51924" lon="1.9812">
        <ele>154.3</ele>
        <time>2022-08-06T10:23:32Z</time>
      </trkpt>
      <trkpt lat="48.5192" lon="1.98133">
        <ele>154.1</ele>
        <time>2022-08-06T10:23:34Z</time>
      </trkpt>
      <trkpt lat="48.51919" lon="1.98139">
        <ele>154.1</ele>
        <time>2022-08-06T10:23:36Z</time>
      </trkpt>
      <trkpt lat="48.51925" lon="1.98145">
        <ele>154.3</ele>
        <time>2022-08-06T10:23:38Z</time>
      </trkpt>
      <trkpt lat="48.51929" lon="1.98143">
        <ele>154.4</ele>
        <time>2022-08-06T10:23:40Z</time>
      </trkpt>
      <trkpt lat="48.51933" lon="1.98139">
        <ele>154.6</ele>
        <time>2022-08-06T10:23:42Z</time>
      </trkpt>
      <trkpt lat="48.51938" lon="1.98136">
        <ele>154.8</ele>
        <time>2022-08-06T10:23:44Z</time>
      </trkpt>
      <trkpt lat="48.51944" lon="1.98133">
        <ele>155</ele>
        <time>2022-08-06T10:23:46Z</time>
      </trkpt>
      <trkpt lat="48.51949" lon="1.98131">
        <ele>155.2</ele>
        <time>2022-08-06T10:23:48Z</time>
      </trkpt>
      <trkpt lat="48.51955" lon="1.98127">
        <ele>155.4</ele>
        <time>2022-08-06T10:23:50Z</time>
      </trkpt>
      <trkpt lat="48.51959" lon="1.98125">
        <ele>155.5</ele>
        <time>2022-08-06T10:23:52Z</time>
      </trkpt>
      <trkpt lat="48.51963" lon="1.98118">
        <ele>155.7</ele>
        <time>2022-08-06T10:23:54Z</time>
      </trkpt>
      <trkpt lat="48.51972" lon="1.98116">
        <ele>156</ele>
        <time>2022-08-06T10:23:56Z</time>
      </trkpt>
      <trkpt lat="48.51977" lon="1.98111">
        <ele>156</ele>
        <time>2022-08-06T10:23:58Z</time>
      </trkpt>
      <trkpt lat="48.51985" lon="1.98107">
        <ele>156</ele>
        <time>2022-08-06T10:24:00Z</time>
      </trkpt>
      <trkpt lat="48.51992" lon="1.98103">
        <ele>156</ele>
        <time>2022-08-06T10:24:02Z</time>
      </trkpt>
      <trkpt lat="48.51998" lon="1.98098">
        <ele>156</ele>
        <time>2022-08-06T10:24:04Z</time>
      </trkpt>
      <trkpt lat="48.52006" lon="1.98092">
        <ele>156</ele>
        <time>2022-08-06T10:24:06Z</time>
      </trkpt>
      <trkpt lat="48.52012" lon="1.98087">
        <ele>156</ele>
        <time>2022-08-06T10:24:08Z</time>
      </trkpt>
      <trkpt lat="48.5202" lon="1.98083">
        <ele>156</ele>
        <time>2022-08-06T10:24:10Z</time>
      </trkpt>
      <trkpt lat="48.52026" lon="1.98077">
        <ele>156</ele>
        <time>2022-08-06T10:24:12Z</time>
      </trkpt>
      <trkpt lat="48.52033" lon="1.98074">
        <ele>156</ele>
        <time>2022-08-06T10:24:14Z</time>
      </trkpt>
      <trkpt lat="48.52041" lon="1.98069">
        <ele>156</ele>
        <time>2022-08-06T10:24:16Z</time>
      </trkpt>
      <trkpt lat="48.52048" lon="1.98067">
        <ele>156</ele>
        <time>2022-08-06T10:24:18Z</time>
      </trkpt>
      <trkpt lat="48.52056" lon="1.98065">
        <ele>156</ele>
        <time>2022-08-06T10:24:20Z</time>
      </trkpt>
      <trkpt lat="48.52065" lon="1.98063">
        <ele>156</ele>
        <time>2022-08-06T10:24:22Z</time>
      </trkpt>
      <trkpt lat="48.52072" lon="1.98061">
        <ele>156</ele>
        <time>2022-08-06T10:24:24Z</time>
      </trkpt>
      <trkpt lat="48.52081" lon="1.98059">
        <ele>156</ele>
        <time>2022-08-06T10:24:26Z</time>
      </trkpt>
      <trkpt lat="48.52087" lon="1.98057">
        <ele>156</ele>
        <time>2022-08-06T10:24:28Z</time>
      </trkpt>
      <trkpt lat="48.52094" lon="1.98055">
        <ele>156</ele>
        <time>2022-08-06T10:24:30Z</time>
      </trkpt>
      <trkpt lat="48.52102" lon="1.98055">
        <ele>156</ele>
        <time>2022-08-06T10:24:32Z</time>
      </trkpt>
      <trkpt lat="48.52108" lon="1.98054">
        <ele>156</ele>
        <time>2022-08-06T10:24:34Z</time>
      </trkpt>
      <trkpt lat="48.52116" lon="1.98052">
        <ele>155.7</ele>
        <time>2022-08-06T10:24:36Z</time>
      </trkpt>
      <trkpt lat="48.52124" lon="1.98051">
        <ele>155.1</ele>
        <time>2022-08-06T10:24:38Z</time>
      </trkpt>
      <trkpt lat="48.52133" lon="1.98049">
        <ele>154.6</ele>
        <time>2022-08-06T10:24:40Z</time>
      </trkpt>
      <trkpt lat="48.52141" lon="1.98048">
        <ele>154</ele>
        <time>2022-08-06T10:24:42Z</time>
      </trkpt>
      <trkpt lat="48.52148" lon="1.98046">
        <ele>153.5</ele>
        <time>2022-08-06T10:24:44Z</time>
      </trkpt>
      <trkpt lat="48.52155" lon="1.98045">
        <ele>152.8</ele>
        <time>2022-08-06T10:24:46Z</time>
      </trkpt>
      <trkpt lat="48.52163" lon="1.98044">
        <ele>152.2</ele>
        <time>2022-08-06T10:24:48Z</time>
      </trkpt>
      <trkpt lat="48.52173" lon="1.98042">
        <ele>151.5</ele>
        <time>2022-08-06T10:24:50Z</time>
      </trkpt>
      <trkpt lat="48.52183" lon="1.9804">
        <ele>151</ele>
        <time>2022-08-06T10:24:52Z</time>
      </trkpt>
      <trkpt lat="48.52194" lon="1.98037">
        <ele>150.7</ele>
        <time>2022-08-06T10:24:54Z</time>
      </trkpt>
      <trkpt lat="48.52203" lon="1.98035">
        <ele>149.7</ele>
        <time>2022-08-06T10:24:56Z</time>
      </trkpt>
      <trkpt lat="48.52215" lon="1.98033">
        <ele>148.4</ele>
        <time>2022-08-06T10:24:58Z</time>
      </trkpt>
      <trkpt lat="48.5223" lon="1.98031">
        <ele>146.8</ele>
        <time>2022-08-06T10:25:00Z</time>
      </trkpt>
      <trkpt lat="48.52247" lon="1.98029">
        <ele>145.3</ele>
        <time>2022-08-06T10:25:02Z</time>
      </trkpt>
      <trkpt lat="48.52261" lon="1.98025">
        <ele>143.5</ele>
        <time>2022-08-06T10:25:04Z</time>
      </trkpt>
      <trkpt lat="48.52278" lon="1.98025">
        <ele>141.1</ele>
        <time>2022-08-06T10:25:06Z</time>
      </trkpt>
      <trkpt lat="48.52293" lon="1.98022">
        <ele>139</ele>
        <time>2022-08-06T10:25:08Z</time>
      </trkpt>
      <trkpt lat="48.52307" lon="1.98019">
        <ele>137</ele>
        <time>2022-08-06T10:25:10Z</time>
      </trkpt>
      <trkpt lat="48.52315" lon="1.98017">
        <ele>135.5</ele>
        <time>2022-08-06T10:25:12Z</time>
      </trkpt>
      <trkpt lat="48.52323" lon="1.98013">
        <ele>134.2</ele>
        <time>2022-08-06T10:25:14Z</time>
      </trkpt>
      <trkpt lat="48.52337" lon="1.98009">
        <ele>131.7</ele>
        <time>2022-08-06T10:25:16Z</time>
      </trkpt>
      <trkpt lat="48.52352" lon="1.98011">
        <ele>129.2</ele>
        <time>2022-08-06T10:25:18Z</time>
      </trkpt>
      <trkpt lat="48.52368" lon="1.98006">
        <ele>127.4</ele>
        <time>2022-08-06T10:25:20Z</time>
      </trkpt>
      <trkpt lat="48.52384" lon="1.98006">
        <ele>125.3</ele>
        <time>2022-08-06T10:25:22Z</time>
      </trkpt>
      <trkpt lat="48.52401" lon="1.98004">
        <ele>123.5</ele>
        <time>2022-08-06T10:25:24Z</time>
      </trkpt>
      <trkpt lat="48.52416" lon="1.98003">
        <ele>121.9</ele>
        <time>2022-08-06T10:25:26Z</time>
      </trkpt>
      <trkpt lat="48.52428" lon="1.98003">
        <ele>120.8</ele>
        <time>2022-08-06T10:25:28Z</time>
      </trkpt>
      <trkpt lat="48.52438" lon="1.98">
        <ele>119.7</ele>
        <time>2022-08-06T10:25:30Z</time>
      </trkpt>
      <trkpt lat="48.52445" lon="1.97998">
        <ele>119</ele>
        <time>2022-08-06T10:25:32Z</time>
      </trkpt>
      <trkpt lat="48.52451" lon="1.97998">
        <ele>118.8</ele>
        <time>2022-08-06T10:25:34Z</time>
      </trkpt>
      <trkpt lat="48.52456" lon="1.98">
        <ele>118.6</ele>
        <time>2022-08-06T10:25:36Z</time>
      </trkpt>
      <trkpt lat="48.52461" lon="1.97995">
        <ele>118.4</ele>
        <time>2022-08-06T10:25:40Z</time>
      </trkpt>
      <trkpt lat="48.52465" lon="1.97983">
        <ele>118.3</ele>
        <time>2022-08-06T10:25:44Z</time>
      </trkpt>
      <trkpt lat="48.52469" lon="1.97975">
        <ele>118.1</ele>
        <time>2022-08-06T10:25:46Z</time>
      </trkpt>
      <trkpt lat="48.52475" lon="1.97967">
        <ele>118.5</ele>
        <time>2022-08-06T10:25:48Z</time>
      </trkpt>
      <trkpt lat="48.52477" lon="1.97956">
        <ele>119.4</ele>
        <time>2022-08-06T10:25:50Z</time>
      </trkpt>
      <trkpt lat="48.52478" lon="1.97945">
        <ele>120.2</ele>
        <time>2022-08-06T10:25:52Z</time>
      </trkpt>
      <trkpt lat="48.52478" lon="1.97936">
        <ele>120.5</ele>
        <time>2022-08-06T10:25:54Z</time>
      </trkpt>
      <trkpt lat="48.52478" lon="1.97928">
        <ele>120.8</ele>
        <time>2022-08-06T10:25:56Z</time>
      </trkpt>
      <trkpt lat="48.5248" lon="1.9792">
        <ele>121.1</ele>
        <time>2022-08-06T10:25:58Z</time>
      </trkpt>
      <trkpt lat="48.52481" lon="1.97913">
        <ele>121.7</ele>
        <time>2022-08-06T10:26:00Z</time>
      </trkpt>
      <trkpt lat="48.52483" lon="1.97905">
        <ele>122.5</ele>
        <time>2022-08-06T10:26:02Z</time>
      </trkpt>
      <trkpt lat="48.52485" lon="1.97898">
        <ele>123.1</ele>
        <time>2022-08-06T10:26:04Z</time>
      </trkpt>
      <trkpt lat="48.52487" lon="1.97891">
        <ele>123.8</ele>
        <time>2022-08-06T10:26:06Z</time>
      </trkpt>
      <trkpt lat="48.52489" lon="1.97885">
        <ele>124.1</ele>
        <time>2022-08-06T10:26:08Z</time>
      </trkpt>
      <trkpt lat="48.52491" lon="1.97876">
        <ele>124.3</ele>
        <time>2022-08-06T10:26:10Z</time>
      </trkpt>
      <trkpt lat="48.52492" lon="1.97868">
        <ele>124.4</ele>
        <time>2022-08-06T10:26:12Z</time>
      </trkpt>
      <trkpt lat="48.52492" lon="1.9786">
        <ele>124.5</ele>
        <time>2022-08-06T10:26:14Z</time>
      </trkpt>
      <trkpt lat="48.52491" lon="1.97847">
        <ele>124.6</ele>
        <time>2022-08-06T10:26:18Z</time>
      </trkpt>
      <trkpt lat="48.52486" lon="1.97841">
        <ele>125</ele>
        <time>2022-08-06T10:26:22Z</time>
      </trkpt>
      <trkpt lat="48.52478" lon="1.97835">
        <ele>125.6</ele>
        <time>2022-08-06T10:26:26Z</time>
      </trkpt>
      <trkpt lat="48.52473" lon="1.97833">
        <ele>125.9</ele>
        <time>2022-08-06T10:26:28Z</time>
      </trkpt>
      <trkpt lat="48.52465" lon="1.9783">
        <ele>126.3</ele>
        <time>2022-08-06T10:26:32Z</time>
      </trkpt>
      <trkpt lat="48.52456" lon="1.97827">
        <ele>126.7</ele>
        <time>2022-08-06T10:26:36Z</time>
      </trkpt>
      <trkpt lat="48.52451" lon="1.97825">
        <ele>127</ele>
        <time>2022-08-06T10:26:38Z</time>
      </trkpt>
      <trkpt lat="48.52443" lon="1.97821">
        <ele>127.5</ele>
        <time>2022-08-06T10:26:42Z</time>
      </trkpt>
      <trkpt lat="48.52437" lon="1.97818">
        <ele>127.7</ele>
        <time>2022-08-06T10:26:44Z</time>
      </trkpt>
      <trkpt lat="48.52431" lon="1.97816">
        <ele>127.9</ele>
        <time>2022-08-06T10:26:46Z</time>
      </trkpt>
      <trkpt lat="48.52426" lon="1.97813">
        <ele>128.2</ele>
        <time>2022-08-06T10:26:48Z</time>
      </trkpt>
      <trkpt lat="48.52421" lon="1.97811">
        <ele>128.5</ele>
        <time>2022-08-06T10:26:50Z</time>
      </trkpt>
      <trkpt lat="48.52415" lon="1.97809">
        <ele>128.8</ele>
        <time>2022-08-06T10:26:52Z</time>
      </trkpt>
      <trkpt lat="48.5241" lon="1.97807">
        <ele>129.1</ele>
        <time>2022-08-06T10:26:54Z</time>
      </trkpt>
      <trkpt lat="48.52405" lon="1.97804">
        <ele>129.5</ele>
        <time>2022-08-06T10:26:56Z</time>
      </trkpt>
      <trkpt lat="48.52399" lon="1.97801">
        <ele>129.8</ele>
        <time>2022-08-06T10:26:58Z</time>
      </trkpt>
      <trkpt lat="48.5239" lon="1.97796">
        <ele>130.3</ele>
        <time>2022-08-06T10:27:02Z</time>
      </trkpt>
      <trkpt lat="48.52385" lon="1.97793">
        <ele>130.7</ele>
        <time>2022-08-06T10:27:04Z</time>
      </trkpt>
      <trkpt lat="48.5238" lon="1.97791">
        <ele>131</ele>
        <time>2022-08-06T10:27:06Z</time>
      </trkpt>
      <trkpt lat="48.52371" lon="1.97787">
        <ele>131.8</ele>
        <time>2022-08-06T10:27:10Z</time>
      </trkpt>
      <trkpt lat="48.52366" lon="1.97786">
        <ele>132.1</ele>
        <time>2022-08-06T10:27:12Z</time>
      </trkpt>
      <trkpt lat="48.52361" lon="1.97784">
        <ele>132.6</ele>
        <time>2022-08-06T10:27:14Z</time>
      </trkpt>
      <trkpt lat="48.52355" lon="1.9778">
        <ele>133</ele>
        <time>2022-08-06T10:27:16Z</time>
      </trkpt>
      <trkpt lat="48.5235" lon="1.97779">
        <ele>133.3</ele>
        <time>2022-08-06T10:27:18Z</time>
      </trkpt>
      <trkpt lat="48.52344" lon="1.97777">
        <ele>133.7</ele>
        <time>2022-08-06T10:27:20Z</time>
      </trkpt>
      <trkpt lat="48.52338" lon="1.97774">
        <ele>134.1</ele>
        <time>2022-08-06T10:27:22Z</time>
      </trkpt>
      <trkpt lat="48.52333" lon="1.97771">
        <ele>134.5</ele>
        <time>2022-08-06T10:27:24Z</time>
      </trkpt>
      <trkpt lat="48.52325" lon="1.97766">
        <ele>135.4</ele>
        <time>2022-08-06T10:27:28Z</time>
      </trkpt>
      <trkpt lat="48.52321" lon="1.97763">
        <ele>136</ele>
        <time>2022-08-06T10:27:30Z</time>
      </trkpt>
      <trkpt lat="48.52313" lon="1.97759">
        <ele>136.8</ele>
        <time>2022-08-06T10:27:34Z</time>
      </trkpt>
      <trkpt lat="48.52305" lon="1.97756">
        <ele>137.7</ele>
        <time>2022-08-06T10:27:38Z</time>
      </trkpt>
      <trkpt lat="48.52297" lon="1.97752">
        <ele>138.7</ele>
        <time>2022-08-06T10:27:42Z</time>
      </trkpt>
      <trkpt lat="48.52289" lon="1.97748">
        <ele>139.7</ele>
        <time>2022-08-06T10:27:46Z</time>
      </trkpt>
      <trkpt lat="48.52284" lon="1.9774">
        <ele>140.3</ele>
        <time>2022-08-06T10:27:50Z</time>
      </trkpt>
      <trkpt lat="48.52284" lon="1.97732">
        <ele>140.4</ele>
        <time>2022-08-06T10:27:52Z</time>
      </trkpt>
      <trkpt lat="48.52286" lon="1.97723">
        <ele>140.1</ele>
        <time>2022-08-06T10:27:56Z</time>
      </trkpt>
      <trkpt lat="48.52286" lon="1.97716">
        <ele>139.7</ele>
        <time>2022-08-06T10:28:16Z</time>
      </trkpt>
      <trkpt lat="48.52286" lon="1.97706">
        <ele>139</ele>
        <time>2022-08-06T10:28:24Z</time>
      </trkpt>
      <trkpt lat="48.52285" lon="1.97686">
        <ele>137.3</ele>
        <time>2022-08-06T10:28:28Z</time>
      </trkpt>
      <trkpt lat="48.52283" lon="1.9767">
        <ele>136</ele>
        <time>2022-08-06T10:28:30Z</time>
      </trkpt>
      <trkpt lat="48.52282" lon="1.97652">
        <ele>134.2</ele>
        <time>2022-08-06T10:28:32Z</time>
      </trkpt>
      <trkpt lat="48.52278" lon="1.97638">
        <ele>132.9</ele>
        <time>2022-08-06T10:28:34Z</time>
      </trkpt>
      <trkpt lat="48.52276" lon="1.97618">
        <ele>131.7</ele>
        <time>2022-08-06T10:28:36Z</time>
      </trkpt>
      <trkpt lat="48.52278" lon="1.97594">
        <ele>131.6</ele>
        <time>2022-08-06T10:28:38Z</time>
      </trkpt>
      <trkpt lat="48.52283" lon="1.97576">
        <ele>131.5</ele>
        <time>2022-08-06T10:28:40Z</time>
      </trkpt>
      <trkpt lat="48.52285" lon="1.97561">
        <ele>131.5</ele>
        <time>2022-08-06T10:28:42Z</time>
      </trkpt>
      <trkpt lat="48.52287" lon="1.97551">
        <ele>131.1</ele>
        <time>2022-08-06T10:28:44Z</time>
      </trkpt>
      <trkpt lat="48.52288" lon="1.97538">
        <ele>130.1</ele>
        <time>2022-08-06T10:28:46Z</time>
      </trkpt>
      <trkpt lat="48.52287" lon="1.97521">
        <ele>129.2</ele>
        <time>2022-08-06T10:28:48Z</time>
      </trkpt>
      <trkpt lat="48.52286" lon="1.97502">
        <ele>128.2</ele>
        <time>2022-08-06T10:28:50Z</time>
      </trkpt>
      <trkpt lat="48.52286" lon="1.97478">
        <ele>127.3</ele>
        <time>2022-08-06T10:28:52Z</time>
      </trkpt>
      <trkpt lat="48.52289" lon="1.97453">
        <ele>126.5</ele>
        <time>2022-08-06T10:28:54Z</time>
      </trkpt>
      <trkpt lat="48.52292" lon="1.97434">
        <ele>126.3</ele>
        <time>2022-08-06T10:28:56Z</time>
      </trkpt>
      <trkpt lat="48.52293" lon="1.97419">
        <ele>126.7</ele>
        <time>2022-08-06T10:28:58Z</time>
      </trkpt>
      <trkpt lat="48.52293" lon="1.97404">
        <ele>127.3</ele>
        <time>2022-08-06T10:29:00Z</time>
      </trkpt>
      <trkpt lat="48.52293" lon="1.97391">
        <ele>127.7</ele>
        <time>2022-08-06T10:29:02Z</time>
      </trkpt>
      <trkpt lat="48.52295" lon="1.9738">
        <ele>127.9</ele>
        <time>2022-08-06T10:29:04Z</time>
      </trkpt>
      <trkpt lat="48.52296" lon="1.97368">
        <ele>128.2</ele>
        <time>2022-08-06T10:29:06Z</time>
      </trkpt>
      <trkpt lat="48.52296" lon="1.97357">
        <ele>128.3</ele>
        <time>2022-08-06T10:29:08Z</time>
      </trkpt>
      <trkpt lat="48.52296" lon="1.97342">
        <ele>128.3</ele>
        <time>2022-08-06T10:29:10Z</time>
      </trkpt>
      <trkpt lat="48.52297" lon="1.97328">
        <ele>128</ele>
        <time>2022-08-06T10:29:12Z</time>
      </trkpt>
      <trkpt lat="48.52298" lon="1.97314">
        <ele>127.4</ele>
        <time>2022-08-06T10:29:14Z</time>
      </trkpt>
      <trkpt lat="48.52301" lon="1.97297">
        <ele>126.4</ele>
        <time>2022-08-06T10:29:16Z</time>
      </trkpt>
      <trkpt lat="48.52302" lon="1.97276">
        <ele>125.4</ele>
        <time>2022-08-06T10:29:18Z</time>
      </trkpt>
      <trkpt lat="48.52303" lon="1.97251">
        <ele>122.6</ele>
        <time>2022-08-06T10:29:20Z</time>
      </trkpt>
      <trkpt lat="48.52305" lon="1.97225">
        <ele>120.3</ele>
        <time>2022-08-06T10:29:22Z</time>
      </trkpt>
      <trkpt lat="48.52307" lon="1.97198">
        <ele>119.1</ele>
        <time>2022-08-06T10:29:24Z</time>
      </trkpt>
      <trkpt lat="48.52308" lon="1.97174">
        <ele>119.7</ele>
        <time>2022-08-06T10:29:26Z</time>
      </trkpt>
      <trkpt lat="48.5231" lon="1.97157">
        <ele>120.7</ele>
        <time>2022-08-06T10:29:28Z</time>
      </trkpt>
      <trkpt lat="48.52313" lon="1.97148">
        <ele>121.3</ele>
        <time>2022-08-06T10:29:30Z</time>
      </trkpt>
      <trkpt lat="48.52315" lon="1.97139">
        <ele>122</ele>
        <time>2022-08-06T10:29:34Z</time>
      </trkpt>
      <trkpt lat="48.52319" lon="1.97137">
        <ele>122.1</ele>
        <time>2022-08-06T10:29:38Z</time>
      </trkpt>
      <trkpt lat="48.52325" lon="1.97136">
        <ele>122.2</ele>
        <time>2022-08-06T10:29:44Z</time>
      </trkpt>
      <trkpt lat="48.5233" lon="1.97136">
        <ele>122.2</ele>
        <time>2022-08-06T10:29:48Z</time>
      </trkpt>
      <trkpt lat="48.52335" lon="1.97137">
        <ele>122.1</ele>
        <time>2022-08-06T10:29:52Z</time>
      </trkpt>
      <trkpt lat="48.52342" lon="1.97138">
        <ele>121.7</ele>
        <time>2022-08-06T10:30:28Z</time>
      </trkpt>
      <trkpt lat="48.52348" lon="1.97139">
        <ele>121.4</ele>
        <time>2022-08-06T10:30:30Z</time>
      </trkpt>
      <trkpt lat="48.52356" lon="1.9714">
        <ele>121.1</ele>
        <time>2022-08-06T10:30:32Z</time>
      </trkpt>
      <trkpt lat="48.52364" lon="1.97142">
        <ele>120.8</ele>
        <time>2022-08-06T10:30:34Z</time>
      </trkpt>
      <trkpt lat="48.52373" lon="1.97144">
        <ele>120.6</ele>
        <time>2022-08-06T10:30:36Z</time>
      </trkpt>
      <trkpt lat="48.52381" lon="1.97145">
        <ele>120.5</ele>
        <time>2022-08-06T10:30:38Z</time>
      </trkpt>
      <trkpt lat="48.52392" lon="1.97147">
        <ele>120.5</ele>
        <time>2022-08-06T10:30:40Z</time>
      </trkpt>
      <trkpt lat="48.52401" lon="1.97149">
        <ele>120.6</ele>
        <time>2022-08-06T10:30:42Z</time>
      </trkpt>
      <trkpt lat="48.52411" lon="1.9715">
        <ele>120.7</ele>
        <time>2022-08-06T10:30:44Z</time>
      </trkpt>
      <trkpt lat="48.52419" lon="1.97152">
        <ele>120.7</ele>
        <time>2022-08-06T10:30:46Z</time>
      </trkpt>
      <trkpt lat="48.52426" lon="1.97151">
        <ele>121.1</ele>
        <time>2022-08-06T10:30:48Z</time>
      </trkpt>
      <trkpt lat="48.52433" lon="1.97149">
        <ele>121.5</ele>
        <time>2022-08-06T10:30:50Z</time>
      </trkpt>
      <trkpt lat="48.52442" lon="1.9715">
        <ele>121.7</ele>
        <time>2022-08-06T10:30:52Z</time>
      </trkpt>
      <trkpt lat="48.52449" lon="1.97151">
        <ele>121.8</ele>
        <time>2022-08-06T10:30:54Z</time>
      </trkpt>
      <trkpt lat="48.52455" lon="1.97151">
        <ele>122.1</ele>
        <time>2022-08-06T10:30:56Z</time>
      </trkpt>
      <trkpt lat="48.52461" lon="1.97153">
        <ele>122.1</ele>
        <time>2022-08-06T10:30:58Z</time>
      </trkpt>
      <trkpt lat="48.52468" lon="1.97153">
        <ele>122.3</ele>
        <time>2022-08-06T10:31:00Z</time>
      </trkpt>
      <trkpt lat="48.52476" lon="1.97152">
        <ele>122.5</ele>
        <time>2022-08-06T10:31:02Z</time>
      </trkpt>
      <trkpt lat="48.52481" lon="1.97152">
        <ele>122.5</ele>
        <time>2022-08-06T10:31:04Z</time>
      </trkpt>
      <trkpt lat="48.52487" lon="1.97153">
        <ele>122.5</ele>
        <time>2022-08-06T10:31:06Z</time>
      </trkpt>
      <trkpt lat="48.52496" lon="1.97154">
        <ele>122.4</ele>
        <time>2022-08-06T10:31:08Z</time>
      </trkpt>
      <trkpt lat="48.52502" lon="1.97154">
        <ele>122.4</ele>
        <time>2022-08-06T10:31:10Z</time>
      </trkpt>
      <trkpt lat="48.52509" lon="1.97154">
        <ele>122.3</ele>
        <time>2022-08-06T10:31:12Z</time>
      </trkpt>
      <trkpt lat="48.52517" lon="1.97156">
        <ele>122.1</ele>
        <time>2022-08-06T10:31:14Z</time>
      </trkpt>
      <trkpt lat="48.52524" lon="1.97158">
        <ele>121.9</ele>
        <time>2022-08-06T10:31:16Z</time>
      </trkpt>
      <trkpt lat="48.5253" lon="1.9716">
        <ele>121.7</ele>
        <time>2022-08-06T10:31:18Z</time>
      </trkpt>
      <trkpt lat="48.52538" lon="1.9716">
        <ele>121.6</ele>
        <time>2022-08-06T10:31:20Z</time>
      </trkpt>
      <trkpt lat="48.52546" lon="1.97162">
        <ele>121.4</ele>
        <time>2022-08-06T10:31:22Z</time>
      </trkpt>
      <trkpt lat="48.52554" lon="1.97163">
        <ele>121.2</ele>
        <time>2022-08-06T10:31:24Z</time>
      </trkpt>
      <trkpt lat="48.52561" lon="1.97165">
        <ele>121.1</ele>
        <time>2022-08-06T10:31:26Z</time>
      </trkpt>
      <trkpt lat="48.52569" lon="1.97165">
        <ele>121.1</ele>
        <time>2022-08-06T10:31:28Z</time>
      </trkpt>
      <trkpt lat="48.52577" lon="1.97167">
        <ele>121</ele>
        <time>2022-08-06T10:31:30Z</time>
      </trkpt>
      <trkpt lat="48.52585" lon="1.97168">
        <ele>120.8</ele>
        <time>2022-08-06T10:31:32Z</time>
      </trkpt>
      <trkpt lat="48.52593" lon="1.97168">
        <ele>120.6</ele>
        <time>2022-08-06T10:31:34Z</time>
      </trkpt>
      <trkpt lat="48.526" lon="1.9717">
        <ele>120.2</ele>
        <time>2022-08-06T10:31:36Z</time>
      </trkpt>
      <trkpt lat="48.52607" lon="1.97172">
        <ele>119.9</ele>
        <time>2022-08-06T10:31:38Z</time>
      </trkpt>
      <trkpt lat="48.52613" lon="1.97174">
        <ele>119.6</ele>
        <time>2022-08-06T10:31:40Z</time>
      </trkpt>
      <trkpt lat="48.52618" lon="1.97171">
        <ele>119.4</ele>
        <time>2022-08-06T10:31:42Z</time>
      </trkpt>
      <trkpt lat="48.5262" lon="1.97164">
        <ele>119.3</ele>
        <time>2022-08-06T10:31:44Z</time>
      </trkpt>
      <trkpt lat="48.52614" lon="1.97159">
        <ele>119.6</ele>
        <time>2022-08-06T10:31:48Z</time>
      </trkpt>
      <trkpt lat="48.52609" lon="1.97149">
        <ele>119.5</ele>
        <time>2022-08-06T10:31:52Z</time>
      </trkpt>
      <trkpt lat="48.52605" lon="1.97144">
        <ele>119.6</ele>
        <time>2022-08-06T10:31:54Z</time>
      </trkpt>
      <trkpt lat="48.52601" lon="1.9714">
        <ele>119.7</ele>
        <time>2022-08-06T10:31:56Z</time>
      </trkpt>
      <trkpt lat="48.52597" lon="1.97136">
        <ele>119.9</ele>
        <time>2022-08-06T10:31:58Z</time>
      </trkpt>
      <trkpt lat="48.52592" lon="1.97132">
        <ele>120.1</ele>
        <time>2022-08-06T10:32:00Z</time>
      </trkpt>
      <trkpt lat="48.52586" lon="1.97129">
        <ele>120.4</ele>
        <time>2022-08-06T10:32:02Z</time>
      </trkpt>
      <trkpt lat="48.52581" lon="1.97126">
        <ele>120.7</ele>
        <time>2022-08-06T10:32:04Z</time>
      </trkpt>
      <trkpt lat="48.52578" lon="1.97122">
        <ele>121.1</ele>
        <time>2022-08-06T10:32:06Z</time>
      </trkpt>
      <trkpt lat="48.52572" lon="1.9712">
        <ele>121.7</ele>
        <time>2022-08-06T10:32:08Z</time>
      </trkpt>
      <trkpt lat="48.52566" lon="1.97118">
        <ele>122.4</ele>
        <time>2022-08-06T10:32:10Z</time>
      </trkpt>
      <trkpt lat="48.52562" lon="1.97116">
        <ele>123</ele>
        <time>2022-08-06T10:32:12Z</time>
      </trkpt>
      <trkpt lat="48.52556" lon="1.97115">
        <ele>123.8</ele>
        <time>2022-08-06T10:32:14Z</time>
      </trkpt>
      <trkpt lat="48.52547" lon="1.9711">
        <ele>124.2</ele>
        <time>2022-08-06T10:32:18Z</time>
      </trkpt>
      <trkpt lat="48.52542" lon="1.97106">
        <ele>124.2</ele>
        <time>2022-08-06T10:32:20Z</time>
      </trkpt>
      <trkpt lat="48.52538" lon="1.97102">
        <ele>124.3</ele>
        <time>2022-08-06T10:32:22Z</time>
      </trkpt>
      <trkpt lat="48.52534" lon="1.97099">
        <ele>124.5</ele>
        <time>2022-08-06T10:32:24Z</time>
      </trkpt>
      <trkpt lat="48.52529" lon="1.97098">
        <ele>124.9</ele>
        <time>2022-08-06T10:32:26Z</time>
      </trkpt>
      <trkpt lat="48.52522" lon="1.97093">
        <ele>125.3</ele>
        <time>2022-08-06T10:32:30Z</time>
      </trkpt>
      <trkpt lat="48.52515" lon="1.97084">
        <ele>125.9</ele>
        <time>2022-08-06T10:32:34Z</time>
      </trkpt>
      <trkpt lat="48.52509" lon="1.9708">
        <ele>126.2</ele>
        <time>2022-08-06T10:32:36Z</time>
      </trkpt>
      <trkpt lat="48.52503" lon="1.97076">
        <ele>126.5</ele>
        <time>2022-08-06T10:32:38Z</time>
      </trkpt>
      <trkpt lat="48.52496" lon="1.97071">
        <ele>126.6</ele>
        <time>2022-08-06T10:32:40Z</time>
      </trkpt>
      <trkpt lat="48.52489" lon="1.97067">
        <ele>126.6</ele>
        <time>2022-08-06T10:32:42Z</time>
      </trkpt>
      <trkpt lat="48.52483" lon="1.97063">
        <ele>126.7</ele>
        <time>2022-08-06T10:32:44Z</time>
      </trkpt>
      <trkpt lat="48.52476" lon="1.97059">
        <ele>126.9</ele>
        <time>2022-08-06T10:32:46Z</time>
      </trkpt>
      <trkpt lat="48.5247" lon="1.97055">
        <ele>127.1</ele>
        <time>2022-08-06T10:32:48Z</time>
      </trkpt>
      <trkpt lat="48.52463" lon="1.97052">
        <ele>127.2</ele>
        <time>2022-08-06T10:32:50Z</time>
      </trkpt>
      <trkpt lat="48.52456" lon="1.97049">
        <ele>127.3</ele>
        <time>2022-08-06T10:32:52Z</time>
      </trkpt>
      <trkpt lat="48.5245" lon="1.97046">
        <ele>127.5</ele>
        <time>2022-08-06T10:32:54Z</time>
      </trkpt>
      <trkpt lat="48.52443" lon="1.97044">
        <ele>127.6</ele>
        <time>2022-08-06T10:32:56Z</time>
      </trkpt>
      <trkpt lat="48.52437" lon="1.97043">
        <ele>128</ele>
        <time>2022-08-06T10:32:58Z</time>
      </trkpt>
      <trkpt lat="48.52431" lon="1.97042">
        <ele>128.2</ele>
        <time>2022-08-06T10:33:00Z</time>
      </trkpt>
      <trkpt lat="48.52425" lon="1.9704">
        <ele>128.5</ele>
        <time>2022-08-06T10:33:02Z</time>
      </trkpt>
      <trkpt lat="48.52418" lon="1.97037">
        <ele>128.9</ele>
        <time>2022-08-06T10:33:04Z</time>
      </trkpt>
      <trkpt lat="48.52411" lon="1.97036">
        <ele>128.9</ele>
        <time>2022-08-06T10:33:06Z</time>
      </trkpt>
      <trkpt lat="48.52406" lon="1.97033">
        <ele>128.9</ele>
        <time>2022-08-06T10:33:08Z</time>
      </trkpt>
      <trkpt lat="48.52399" lon="1.9703">
        <ele>129</ele>
        <time>2022-08-06T10:33:10Z</time>
      </trkpt>
      <trkpt lat="48.52392" lon="1.97029">
        <ele>129</ele>
        <time>2022-08-06T10:33:12Z</time>
      </trkpt>
      <trkpt lat="48.52386" lon="1.97027">
        <ele>129</ele>
        <time>2022-08-06T10:33:14Z</time>
      </trkpt>
      <trkpt lat="48.52381" lon="1.97025">
        <ele>129.1</ele>
        <time>2022-08-06T10:33:16Z</time>
      </trkpt>
      <trkpt lat="48.52376" lon="1.97022">
        <ele>129.2</ele>
        <time>2022-08-06T10:33:18Z</time>
      </trkpt>
      <trkpt lat="48.52369" lon="1.9702">
        <ele>129.4</ele>
        <time>2022-08-06T10:33:20Z</time>
      </trkpt>
      <trkpt lat="48.52363" lon="1.97018">
        <ele>129.6</ele>
        <time>2022-08-06T10:33:22Z</time>
      </trkpt>
      <trkpt lat="48.52358" lon="1.97016">
        <ele>130.1</ele>
        <time>2022-08-06T10:33:24Z</time>
      </trkpt>
      <trkpt lat="48.52353" lon="1.97015">
        <ele>130.7</ele>
        <time>2022-08-06T10:33:26Z</time>
      </trkpt>
      <trkpt lat="48.52343" lon="1.97013">
        <ele>131.7</ele>
        <time>2022-08-06T10:33:30Z</time>
      </trkpt>
      <trkpt lat="48.52338" lon="1.97013">
        <ele>132.1</ele>
        <time>2022-08-06T10:33:32Z</time>
      </trkpt>
      <trkpt lat="48.52332" lon="1.97013">
        <ele>132.7</ele>
        <time>2022-08-06T10:33:34Z</time>
      </trkpt>
      <trkpt lat="48.52325" lon="1.97014">
        <ele>133.2</ele>
        <time>2022-08-06T10:33:36Z</time>
      </trkpt>
      <trkpt lat="48.5232" lon="1.97015">
        <ele>133.7</ele>
        <time>2022-08-06T10:33:38Z</time>
      </trkpt>
      <trkpt lat="48.5231" lon="1.97012">
        <ele>134.7</ele>
        <time>2022-08-06T10:33:42Z</time>
      </trkpt>
      <trkpt lat="48.52304" lon="1.97009">
        <ele>135.4</ele>
        <time>2022-08-06T10:33:46Z</time>
      </trkpt>
      <trkpt lat="48.52299" lon="1.97005">
        <ele>136</ele>
        <time>2022-08-06T10:33:48Z</time>
      </trkpt>
      <trkpt lat="48.52296" lon="1.97001">
        <ele>136.7</ele>
        <time>2022-08-06T10:33:50Z</time>
      </trkpt>
      <trkpt lat="48.52293" lon="1.96994">
        <ele>137.4</ele>
        <time>2022-08-06T10:33:52Z</time>
      </trkpt>
      <trkpt lat="48.52288" lon="1.96983">
        <ele>138.5</ele>
        <time>2022-08-06T10:33:56Z</time>
      </trkpt>
      <trkpt lat="48.52285" lon="1.96978">
        <ele>139.1</ele>
        <time>2022-08-06T10:33:58Z</time>
      </trkpt>
      <trkpt lat="48.52282" lon="1.96963">
        <ele>140.4</ele>
        <time>2022-08-06T10:34:02Z</time>
      </trkpt>
      <trkpt lat="48.5228" lon="1.96949">
        <ele>141.6</ele>
        <time>2022-08-06T10:34:06Z</time>
      </trkpt>
      <trkpt lat="48.5228" lon="1.96942">
        <ele>142.1</ele>
        <time>2022-08-06T10:34:08Z</time>
      </trkpt>
      <trkpt lat="48.52278" lon="1.96936">
        <ele>142.6</ele>
        <time>2022-08-06T10:34:10Z</time>
      </trkpt>
      <trkpt lat="48.52278" lon="1.96928">
        <ele>143.2</ele>
        <time>2022-08-06T10:34:12Z</time>
      </trkpt>
      <trkpt lat="48.52279" lon="1.96914">
        <ele>144.1</ele>
        <time>2022-08-06T10:34:16Z</time>
      </trkpt>
      <trkpt lat="48.52279" lon="1.96901">
        <ele>144.5</ele>
        <time>2022-08-06T10:34:20Z</time>
      </trkpt>
      <trkpt lat="48.52279" lon="1.96894">
        <ele>144.8</ele>
        <time>2022-08-06T10:34:22Z</time>
      </trkpt>
      <trkpt lat="48.52278" lon="1.96881">
        <ele>145.3</ele>
        <time>2022-08-06T10:34:26Z</time>
      </trkpt>
      <trkpt lat="48.52275" lon="1.9687">
        <ele>145.6</ele>
        <time>2022-08-06T10:34:30Z</time>
      </trkpt>
      <trkpt lat="48.52271" lon="1.96858">
        <ele>146.2</ele>
        <time>2022-08-06T10:34:34Z</time>
      </trkpt>
      <trkpt lat="48.52268" lon="1.96849">
        <ele>146.8</ele>
        <time>2022-08-06T10:34:38Z</time>
      </trkpt>
      <trkpt lat="48.52263" lon="1.96837">
        <ele>147.7</ele>
        <time>2022-08-06T10:34:42Z</time>
      </trkpt>
      <trkpt lat="48.52262" lon="1.96828">
        <ele>148.2</ele>
        <time>2022-08-06T10:34:46Z</time>
      </trkpt>
      <trkpt lat="48.52258" lon="1.96819">
        <ele>149</ele>
        <time>2022-08-06T10:34:50Z</time>
      </trkpt>
      <trkpt lat="48.52254" lon="1.96811">
        <ele>150</ele>
        <time>2022-08-06T10:34:52Z</time>
      </trkpt>
      <trkpt lat="48.52249" lon="1.96807">
        <ele>150.9</ele>
        <time>2022-08-06T10:34:54Z</time>
      </trkpt>
      <trkpt lat="48.52246" lon="1.96802">
        <ele>151.4</ele>
        <time>2022-08-06T10:34:56Z</time>
      </trkpt>
      <trkpt lat="48.5224" lon="1.96797">
        <ele>152</ele>
        <time>2022-08-06T10:35:00Z</time>
      </trkpt>
      <trkpt lat="48.52234" lon="1.9679">
        <ele>152.7</ele>
        <time>2022-08-06T10:35:04Z</time>
      </trkpt>
      <trkpt lat="48.52225" lon="1.96783">
        <ele>153.5</ele>
        <time>2022-08-06T10:35:08Z</time>
      </trkpt>
      <trkpt lat="48.52221" lon="1.9678">
        <ele>153.8</ele>
        <time>2022-08-06T10:35:10Z</time>
      </trkpt>
      <trkpt lat="48.52214" lon="1.96774">
        <ele>153.9</ele>
        <time>2022-08-06T10:35:14Z</time>
      </trkpt>
      <trkpt lat="48.52209" lon="1.9677">
        <ele>154</ele>
        <time>2022-08-06T10:35:16Z</time>
      </trkpt>
      <trkpt lat="48.52205" lon="1.96764">
        <ele>154.2</ele>
        <time>2022-08-06T10:35:18Z</time>
      </trkpt>
      <trkpt lat="48.52199" lon="1.96758">
        <ele>154.4</ele>
        <time>2022-08-06T10:35:20Z</time>
      </trkpt>
      <trkpt lat="48.52195" lon="1.96754">
        <ele>154.7</ele>
        <time>2022-08-06T10:35:22Z</time>
      </trkpt>
      <trkpt lat="48.52191" lon="1.96749">
        <ele>155</ele>
        <time>2022-08-06T10:35:24Z</time>
      </trkpt>
      <trkpt lat="48.52182" lon="1.96742">
        <ele>155.2</ele>
        <time>2022-08-06T10:35:28Z</time>
      </trkpt>
      <trkpt lat="48.52177" lon="1.96737">
        <ele>155.2</ele>
        <time>2022-08-06T10:35:30Z</time>
      </trkpt>
      <trkpt lat="48.52173" lon="1.96733">
        <ele>155.1</ele>
        <time>2022-08-06T10:35:32Z</time>
      </trkpt>
      <trkpt lat="48.52168" lon="1.96729">
        <ele>155</ele>
        <time>2022-08-06T10:35:34Z</time>
      </trkpt>
      <trkpt lat="48.52163" lon="1.96725">
        <ele>155</ele>
        <time>2022-08-06T10:35:36Z</time>
      </trkpt>
      <trkpt lat="48.52158" lon="1.9672">
        <ele>155.1</ele>
        <time>2022-08-06T10:35:38Z</time>
      </trkpt>
      <trkpt lat="48.52153" lon="1.96716">
        <ele>155.2</ele>
        <time>2022-08-06T10:35:40Z</time>
      </trkpt>
      <trkpt lat="48.5215" lon="1.96711">
        <ele>155.4</ele>
        <time>2022-08-06T10:35:42Z</time>
      </trkpt>
      <trkpt lat="48.52145" lon="1.96707">
        <ele>155.5</ele>
        <time>2022-08-06T10:35:44Z</time>
      </trkpt>
      <trkpt lat="48.5214" lon="1.96703">
        <ele>155.7</ele>
        <time>2022-08-06T10:35:46Z</time>
      </trkpt>
      <trkpt lat="48.52135" lon="1.967">
        <ele>155.8</ele>
        <time>2022-08-06T10:35:48Z</time>
      </trkpt>
      <trkpt lat="48.5213" lon="1.96696">
        <ele>156</ele>
        <time>2022-08-06T10:35:50Z</time>
      </trkpt>
      <trkpt lat="48.52121" lon="1.96693">
        <ele>156</ele>
        <time>2022-08-06T10:35:54Z</time>
      </trkpt>
      <trkpt lat="48.52115" lon="1.96689">
        <ele>156</ele>
        <time>2022-08-06T10:35:56Z</time>
      </trkpt>
      <trkpt lat="48.52108" lon="1.96685">
        <ele>156</ele>
        <time>2022-08-06T10:35:58Z</time>
      </trkpt>
      <trkpt lat="48.52103" lon="1.96681">
        <ele>156</ele>
        <time>2022-08-06T10:36:00Z</time>
      </trkpt>
      <trkpt lat="48.52097" lon="1.96678">
        <ele>156</ele>
        <time>2022-08-06T10:36:02Z</time>
      </trkpt>
      <trkpt lat="48.52092" lon="1.96673">
        <ele>156</ele>
        <time>2022-08-06T10:36:04Z</time>
      </trkpt>
      <trkpt lat="48.52087" lon="1.96668">
        <ele>156</ele>
        <time>2022-08-06T10:36:06Z</time>
      </trkpt>
      <trkpt lat="48.52081" lon="1.96661">
        <ele>156</ele>
        <time>2022-08-06T10:36:08Z</time>
      </trkpt>
      <trkpt lat="48.5208" lon="1.96654">
        <ele>156</ele>
        <time>2022-08-06T10:36:10Z</time>
      </trkpt>
      <trkpt lat="48.52082" lon="1.96646">
        <ele>156</ele>
        <time>2022-08-06T10:36:12Z</time>
      </trkpt>
      <trkpt lat="48.52085" lon="1.9664">
        <ele>156</ele>
        <time>2022-08-06T10:36:16Z</time>
      </trkpt>
      <trkpt lat="48.52083" lon="1.96633">
        <ele>156</ele>
        <time>2022-08-06T10:39:56Z</time>
      </trkpt>
      <trkpt lat="48.52083" lon="1.96626">
        <ele>156</ele>
        <time>2022-08-06T10:41:18Z</time>
      </trkpt>
      <trkpt lat="48.52085" lon="1.9662">
        <ele>156</ele>
        <time>2022-08-06T10:41:22Z</time>
      </trkpt>
      <trkpt lat="48.52089" lon="1.96607">
        <ele>156.3</ele>
        <time>2022-08-06T10:41:26Z</time>
      </trkpt>
      <trkpt lat="48.52092" lon="1.96599">
        <ele>156.6</ele>
        <time>2022-08-06T10:41:28Z</time>
      </trkpt>
      <trkpt lat="48.52095" lon="1.9659">
        <ele>156.9</ele>
        <time>2022-08-06T10:41:30Z</time>
      </trkpt>
      <trkpt lat="48.52099" lon="1.96581">
        <ele>157</ele>
        <time>2022-08-06T10:41:32Z</time>
      </trkpt>
      <trkpt lat="48.52104" lon="1.96572">
        <ele>157</ele>
        <time>2022-08-06T10:41:34Z</time>
      </trkpt>
      <trkpt lat="48.52108" lon="1.96563">
        <ele>157</ele>
        <time>2022-08-06T10:41:36Z</time>
      </trkpt>
      <trkpt lat="48.52113" lon="1.96553">
        <ele>156.9</ele>
        <time>2022-08-06T10:41:38Z</time>
      </trkpt>
      <trkpt lat="48.52117" lon="1.96544">
        <ele>156.8</ele>
        <time>2022-08-06T10:41:40Z</time>
      </trkpt>
      <trkpt lat="48.52121" lon="1.96534">
        <ele>156.6</ele>
        <time>2022-08-06T10:41:42Z</time>
      </trkpt>
      <trkpt lat="48.52125" lon="1.96524">
        <ele>156.4</ele>
        <time>2022-08-06T10:41:44Z</time>
      </trkpt>
      <trkpt lat="48.5213" lon="1.96514">
        <ele>155.9</ele>
        <time>2022-08-06T10:41:46Z</time>
      </trkpt>
      <trkpt lat="48.52132" lon="1.96505">
        <ele>155.4</ele>
        <time>2022-08-06T10:41:48Z</time>
      </trkpt>
      <trkpt lat="48.52136" lon="1.96497">
        <ele>155</ele>
        <time>2022-08-06T10:41:50Z</time>
      </trkpt>
      <trkpt lat="48.52139" lon="1.96486">
        <ele>154.5</ele>
        <time>2022-08-06T10:41:52Z</time>
      </trkpt>
      <trkpt lat="48.52142" lon="1.96476">
        <ele>153.9</ele>
        <time>2022-08-06T10:41:54Z</time>
      </trkpt>
      <trkpt lat="48.52146" lon="1.96465">
        <ele>153.7</ele>
        <time>2022-08-06T10:41:56Z</time>
      </trkpt>
      <trkpt lat="48.5215" lon="1.96456">
        <ele>153.7</ele>
        <time>2022-08-06T10:41:58Z</time>
      </trkpt>
      <trkpt lat="48.52155" lon="1.96445">
        <ele>153.8</ele>
        <time>2022-08-06T10:42:00Z</time>
      </trkpt>
      <trkpt lat="48.5216" lon="1.96437">
        <ele>153.7</ele>
        <time>2022-08-06T10:42:02Z</time>
      </trkpt>
      <trkpt lat="48.52167" lon="1.96431">
        <ele>153.5</ele>
        <time>2022-08-06T10:42:04Z</time>
      </trkpt>
      <trkpt lat="48.52173" lon="1.96426">
        <ele>153.6</ele>
        <time>2022-08-06T10:42:06Z</time>
      </trkpt>
      <trkpt lat="48.52178" lon="1.96419">
        <ele>153.9</ele>
        <time>2022-08-06T10:42:08Z</time>
      </trkpt>
      <trkpt lat="48.52184" lon="1.9641">
        <ele>154.4</ele>
        <time>2022-08-06T10:42:10Z</time>
      </trkpt>
      <trkpt lat="48.52191" lon="1.96403">
        <ele>154.9</ele>
        <time>2022-08-06T10:42:12Z</time>
      </trkpt>
      <trkpt lat="48.52197" lon="1.96397">
        <ele>155.4</ele>
        <time>2022-08-06T10:42:14Z</time>
      </trkpt>
      <trkpt lat="48.52203" lon="1.96392">
        <ele>155.8</ele>
        <time>2022-08-06T10:42:16Z</time>
      </trkpt>
      <trkpt lat="48.52211" lon="1.96387">
        <ele>156</ele>
        <time>2022-08-06T10:42:18Z</time>
      </trkpt>
      <trkpt lat="48.52217" lon="1.9638">
        <ele>156</ele>
        <time>2022-08-06T10:42:20Z</time>
      </trkpt>
      <trkpt lat="48.52223" lon="1.96375">
        <ele>156</ele>
        <time>2022-08-06T10:42:22Z</time>
      </trkpt>
      <trkpt lat="48.5223" lon="1.96369">
        <ele>155.9</ele>
        <time>2022-08-06T10:42:24Z</time>
      </trkpt>
      <trkpt lat="48.52236" lon="1.96364">
        <ele>156</ele>
        <time>2022-08-06T10:42:26Z</time>
      </trkpt>
      <trkpt lat="48.52243" lon="1.96357">
        <ele>156</ele>
        <time>2022-08-06T10:42:28Z</time>
      </trkpt>
      <trkpt lat="48.52249" lon="1.96351">
        <ele>156</ele>
        <time>2022-08-06T10:42:30Z</time>
      </trkpt>
      <trkpt lat="48.52256" lon="1.96344">
        <ele>155.8</ele>
        <time>2022-08-06T10:42:32Z</time>
      </trkpt>
      <trkpt lat="48.52263" lon="1.96339">
        <ele>155.5</ele>
        <time>2022-08-06T10:42:34Z</time>
      </trkpt>
      <trkpt lat="48.52272" lon="1.96331">
        <ele>155.2</ele>
        <time>2022-08-06T10:42:36Z</time>
      </trkpt>
      <trkpt lat="48.5228" lon="1.96324">
        <ele>155</ele>
        <time>2022-08-06T10:42:38Z</time>
      </trkpt>
      <trkpt lat="48.52288" lon="1.96316">
        <ele>155</ele>
        <time>2022-08-06T10:42:40Z</time>
      </trkpt>
      <trkpt lat="48.52296" lon="1.9631">
        <ele>155</ele>
        <time>2022-08-06T10:42:42Z</time>
      </trkpt>
      <trkpt lat="48.52304" lon="1.96304">
        <ele>155</ele>
        <time>2022-08-06T10:42:44Z</time>
      </trkpt>
      <trkpt lat="48.52312" lon="1.96297">
        <ele>154.9</ele>
        <time>2022-08-06T10:42:46Z</time>
      </trkpt>
      <trkpt lat="48.52319" lon="1.96289">
        <ele>154.8</ele>
        <time>2022-08-06T10:42:48Z</time>
      </trkpt>
      <trkpt lat="48.52326" lon="1.96281">
        <ele>154.9</ele>
        <time>2022-08-06T10:42:50Z</time>
      </trkpt>
      <trkpt lat="48.52333" lon="1.96273">
        <ele>155</ele>
        <time>2022-08-06T10:42:52Z</time>
      </trkpt>
      <trkpt lat="48.5234" lon="1.96265">
        <ele>154.7</ele>
        <time>2022-08-06T10:42:54Z</time>
      </trkpt>
      <trkpt lat="48.52347" lon="1.96259">
        <ele>154.2</ele>
        <time>2022-08-06T10:42:56Z</time>
      </trkpt>
      <trkpt lat="48.52357" lon="1.96254">
        <ele>153.4</ele>
        <time>2022-08-06T10:42:58Z</time>
      </trkpt>
      <trkpt lat="48.52363" lon="1.9625">
        <ele>152.7</ele>
        <time>2022-08-06T10:43:00Z</time>
      </trkpt>
      <trkpt lat="48.52366" lon="1.96241">
        <ele>151.8</ele>
        <time>2022-08-06T10:43:02Z</time>
      </trkpt>
      <trkpt lat="48.52368" lon="1.96235">
        <ele>151</ele>
        <time>2022-08-06T10:43:04Z</time>
      </trkpt>
      <trkpt lat="48.52371" lon="1.96228">
        <ele>150.1</ele>
        <time>2022-08-06T10:43:08Z</time>
      </trkpt>
      <trkpt lat="48.52367" lon="1.96224">
        <ele>150.3</ele>
        <time>2022-08-06T10:43:12Z</time>
      </trkpt>
      <trkpt lat="48.5236" lon="1.96218">
        <ele>151</ele>
        <time>2022-08-06T10:43:16Z</time>
      </trkpt>
      <trkpt lat="48.52359" lon="1.96206">
        <ele>150.7</ele>
        <time>2022-08-06T10:43:20Z</time>
      </trkpt>
      <trkpt lat="48.52365" lon="1.96195">
        <ele>149.2</ele>
        <time>2022-08-06T10:43:24Z</time>
      </trkpt>
      <trkpt lat="48.52367" lon="1.96183">
        <ele>149.5</ele>
        <time>2022-08-06T10:43:28Z</time>
      </trkpt>
      <trkpt lat="48.52368" lon="1.96174">
        <ele>149.9</ele>
        <time>2022-08-06T10:43:32Z</time>
      </trkpt>
      <trkpt lat="48.52369" lon="1.96167">
        <ele>150.1</ele>
        <time>2022-08-06T10:43:36Z</time>
      </trkpt>
      <trkpt lat="48.52374" lon="1.96168">
        <ele>149.5</ele>
        <time>2022-08-06T10:43:38Z</time>
      </trkpt>
      <trkpt lat="48.52377" lon="1.96162">
        <ele>149.6</ele>
        <time>2022-08-06T10:43:40Z</time>
      </trkpt>
      <trkpt lat="48.52383" lon="1.96159">
        <ele>149.3</ele>
        <time>2022-08-06T10:43:42Z</time>
      </trkpt>
      <trkpt lat="48.52388" lon="1.96156">
        <ele>149.2</ele>
        <time>2022-08-06T10:43:44Z</time>
      </trkpt>
      <trkpt lat="48.52397" lon="1.96156">
        <ele>148.7</ele>
        <time>2022-08-06T10:43:48Z</time>
      </trkpt>
      <trkpt lat="48.52402" lon="1.96158">
        <ele>148.1</ele>
        <time>2022-08-06T10:43:50Z</time>
      </trkpt>
      <trkpt lat="48.5241" lon="1.96163">
        <ele>147</ele>
        <time>2022-08-06T10:43:54Z</time>
      </trkpt>
      <trkpt lat="48.52418" lon="1.96166">
        <ele>145.9</ele>
        <time>2022-08-06T10:43:56Z</time>
      </trkpt>
      <trkpt lat="48.52424" lon="1.96167">
        <ele>144.8</ele>
        <time>2022-08-06T10:43:58Z</time>
      </trkpt>
      <trkpt lat="48.5243" lon="1.96168">
        <ele>143.8</ele>
        <time>2022-08-06T10:44:00Z</time>
      </trkpt>
      <trkpt lat="48.52438" lon="1.96169">
        <ele>142.6</ele>
        <time>2022-08-06T10:44:04Z</time>
      </trkpt>
      <trkpt lat="48.52445" lon="1.96169">
        <ele>141.6</ele>
        <time>2022-08-06T10:44:06Z</time>
      </trkpt>
      <trkpt lat="48.52452" lon="1.96165">
        <ele>140.4</ele>
        <time>2022-08-06T10:44:08Z</time>
      </trkpt>
      <trkpt lat="48.52458" lon="1.96161">
        <ele>139.2</ele>
        <time>2022-08-06T10:44:10Z</time>
      </trkpt>
      <trkpt lat="48.52461" lon="1.9615">
        <ele>138.6</ele>
        <time>2022-08-06T10:44:12Z</time>
      </trkpt>
      <trkpt lat="48.52463" lon="1.96141">
        <ele>138.2</ele>
        <time>2022-08-06T10:44:14Z</time>
      </trkpt>
      <trkpt lat="48.52471" lon="1.96128">
        <ele>135.6</ele>
        <time>2022-08-06T10:44:16Z</time>
      </trkpt>
      <trkpt lat="48.52477" lon="1.96111">
        <ele>133.2</ele>
        <time>2022-08-06T10:44:18Z</time>
      </trkpt>
      <trkpt lat="48.52485" lon="1.96098">
        <ele>130.9</ele>
        <time>2022-08-06T10:44:20Z</time>
      </trkpt>
      <trkpt lat="48.52489" lon="1.96086">
        <ele>129.3</ele>
        <time>2022-08-06T10:44:22Z</time>
      </trkpt>
      <trkpt lat="48.52489" lon="1.96074">
        <ele>128.4</ele>
        <time>2022-08-06T10:44:24Z</time>
      </trkpt>
      <trkpt lat="48.52494" lon="1.96064">
        <ele>126.9</ele>
        <time>2022-08-06T10:44:26Z</time>
      </trkpt>
      <trkpt lat="48.52499" lon="1.96052">
        <ele>124.7</ele>
        <time>2022-08-06T10:44:28Z</time>
      </trkpt>
      <trkpt lat="48.52504" lon="1.9604">
        <ele>123.5</ele>
        <time>2022-08-06T10:44:30Z</time>
      </trkpt>
      <trkpt lat="48.52507" lon="1.96028">
        <ele>122.3</ele>
        <time>2022-08-06T10:44:32Z</time>
      </trkpt>
      <trkpt lat="48.52508" lon="1.96014">
        <ele>121.2</ele>
        <time>2022-08-06T10:44:34Z</time>
      </trkpt>
      <trkpt lat="48.52513" lon="1.96001">
        <ele>120.1</ele>
        <time>2022-08-06T10:44:36Z</time>
      </trkpt>
      <trkpt lat="48.5252" lon="1.95986">
        <ele>118.3</ele>
        <time>2022-08-06T10:44:38Z</time>
      </trkpt>
      <trkpt lat="48.52526" lon="1.95971">
        <ele>116.1</ele>
        <time>2022-08-06T10:44:40Z</time>
      </trkpt>
      <trkpt lat="48.52532" lon="1.95956">
        <ele>114.9</ele>
        <time>2022-08-06T10:44:42Z</time>
      </trkpt>
      <trkpt lat="48.52536" lon="1.95945">
        <ele>114.1</ele>
        <time>2022-08-06T10:44:44Z</time>
      </trkpt>
      <trkpt lat="48.52542" lon="1.95938">
        <ele>113.4</ele>
        <time>2022-08-06T10:44:48Z</time>
      </trkpt>
      <trkpt lat="48.52551" lon="1.95931">
        <ele>112.7</ele>
        <time>2022-08-06T10:44:52Z</time>
      </trkpt>
      <trkpt lat="48.52556" lon="1.95926">
        <ele>112</ele>
        <time>2022-08-06T10:44:54Z</time>
      </trkpt>
      <trkpt lat="48.52562" lon="1.9592">
        <ele>111.1</ele>
        <time>2022-08-06T10:44:56Z</time>
      </trkpt>
      <trkpt lat="48.52569" lon="1.95913">
        <ele>110.4</ele>
        <time>2022-08-06T10:44:58Z</time>
      </trkpt>
      <trkpt lat="48.52574" lon="1.95909">
        <ele>110.1</ele>
        <time>2022-08-06T10:45:00Z</time>
      </trkpt>
      <trkpt lat="48.52578" lon="1.95905">
        <ele>109.8</ele>
        <time>2022-08-06T10:45:02Z</time>
      </trkpt>
      <trkpt lat="48.52582" lon="1.959">
        <ele>109.5</ele>
        <time>2022-08-06T10:45:06Z</time>
      </trkpt>
      <trkpt lat="48.5258" lon="1.95889">
        <ele>109.1</ele>
        <time>2022-08-06T10:45:12Z</time>
      </trkpt>
      <trkpt lat="48.52577" lon="1.95877">
        <ele>108.9</ele>
        <time>2022-08-06T10:45:16Z</time>
      </trkpt>
      <trkpt lat="48.52575" lon="1.95868">
        <ele>108.7</ele>
        <time>2022-08-06T10:45:18Z</time>
      </trkpt>
      <trkpt lat="48.52571" lon="1.95856">
        <ele>108.9</ele>
        <time>2022-08-06T10:45:20Z</time>
      </trkpt>
      <trkpt lat="48.52567" lon="1.95848">
        <ele>109.2</ele>
        <time>2022-08-06T10:45:22Z</time>
      </trkpt>
      <trkpt lat="48.52563" lon="1.95841">
        <ele>109.4</ele>
        <time>2022-08-06T10:45:24Z</time>
      </trkpt>
      <trkpt lat="48.52559" lon="1.95834">
        <ele>109.8</ele>
        <time>2022-08-06T10:45:26Z</time>
      </trkpt>
      <trkpt lat="48.52555" lon="1.95829">
        <ele>110</ele>
        <time>2022-08-06T10:45:28Z</time>
      </trkpt>
      <trkpt lat="48.52552" lon="1.95824">
        <ele>110.3</ele>
        <time>2022-08-06T10:45:30Z</time>
      </trkpt>
      <trkpt lat="48.52546" lon="1.95812">
        <ele>110.7</ele>
        <time>2022-08-06T10:45:34Z</time>
      </trkpt>
      <trkpt lat="48.52543" lon="1.95805">
        <ele>110.9</ele>
        <time>2022-08-06T10:45:36Z</time>
      </trkpt>
      <trkpt lat="48.52539" lon="1.95799">
        <ele>111.3</ele>
        <time>2022-08-06T10:45:38Z</time>
      </trkpt>
      <trkpt lat="48.52537" lon="1.95792">
        <ele>111.7</ele>
        <time>2022-08-06T10:45:40Z</time>
      </trkpt>
      <trkpt lat="48.52534" lon="1.95786">
        <ele>112.1</ele>
        <time>2022-08-06T10:45:42Z</time>
      </trkpt>
      <trkpt lat="48.52528" lon="1.95776">
        <ele>112.9</ele>
        <time>2022-08-06T10:45:46Z</time>
      </trkpt>
      <trkpt lat="48.52525" lon="1.9577">
        <ele>112.9</ele>
        <time>2022-08-06T10:45:48Z</time>
      </trkpt>
      <trkpt lat="48.52521" lon="1.95763">
        <ele>112.9</ele>
        <time>2022-08-06T10:45:50Z</time>
      </trkpt>
      <trkpt lat="48.52515" lon="1.95752">
        <ele>113</ele>
        <time>2022-08-06T10:45:54Z</time>
      </trkpt>
      <trkpt lat="48.5251" lon="1.95744">
        <ele>113.1</ele>
        <time>2022-08-06T10:45:58Z</time>
      </trkpt>
      <trkpt lat="48.52504" lon="1.95735">
        <ele>113.2</ele>
        <time>2022-08-06T10:46:02Z</time>
      </trkpt>
      <trkpt lat="48.52499" lon="1.9573">
        <ele>113.2</ele>
        <time>2022-08-06T10:46:04Z</time>
      </trkpt>
      <trkpt lat="48.52491" lon="1.95725">
        <ele>112.8</ele>
        <time>2022-08-06T10:46:06Z</time>
      </trkpt>
      <trkpt lat="48.52484" lon="1.9572">
        <ele>112.3</ele>
        <time>2022-08-06T10:46:08Z</time>
      </trkpt>
      <trkpt lat="48.52473" lon="1.9572">
        <ele>111.9</ele>
        <time>2022-08-06T10:46:10Z</time>
      </trkpt>
      <trkpt lat="48.52462" lon="1.95721">
        <ele>111.9</ele>
        <time>2022-08-06T10:46:12Z</time>
      </trkpt>
      <trkpt lat="48.5245" lon="1.9572">
        <ele>111.8</ele>
        <time>2022-08-06T10:46:14Z</time>
      </trkpt>
      <trkpt lat="48.5244" lon="1.95719">
        <ele>111.5</ele>
        <time>2022-08-06T10:46:16Z</time>
      </trkpt>
      <trkpt lat="48.52432" lon="1.95719">
        <ele>111.2</ele>
        <time>2022-08-06T10:46:18Z</time>
      </trkpt>
      <trkpt lat="48.52423" lon="1.9572">
        <ele>111.1</ele>
        <time>2022-08-06T10:46:20Z</time>
      </trkpt>
      <trkpt lat="48.52414" lon="1.95722">
        <ele>110.8</ele>
        <time>2022-08-06T10:46:22Z</time>
      </trkpt>
      <trkpt lat="48.52404" lon="1.95725">
        <ele>110.5</ele>
        <time>2022-08-06T10:46:24Z</time>
      </trkpt>
      <trkpt lat="48.52394" lon="1.95728">
        <ele>110.5</ele>
        <time>2022-08-06T10:46:26Z</time>
      </trkpt>
      <trkpt lat="48.52385" lon="1.95734">
        <ele>110.9</ele>
        <time>2022-08-06T10:46:28Z</time>
      </trkpt>
      <trkpt lat="48.52376" lon="1.95735">
        <ele>110.7</ele>
        <time>2022-08-06T10:46:30Z</time>
      </trkpt>
      <trkpt lat="48.52366" lon="1.95734">
        <ele>110.1</ele>
        <time>2022-08-06T10:46:32Z</time>
      </trkpt>
      <trkpt lat="48.52358" lon="1.95732">
        <ele>109.8</ele>
        <time>2022-08-06T10:46:34Z</time>
      </trkpt>
      <trkpt lat="48.52349" lon="1.95725">
        <ele>109.6</ele>
        <time>2022-08-06T10:46:36Z</time>
      </trkpt>
      <trkpt lat="48.52342" lon="1.95717">
        <ele>109.4</ele>
        <time>2022-08-06T10:46:38Z</time>
      </trkpt>
      <trkpt lat="48.52335" lon="1.95709">
        <ele>109</ele>
        <time>2022-08-06T10:46:40Z</time>
      </trkpt>
      <trkpt lat="48.52328" lon="1.95701">
        <ele>108.7</ele>
        <time>2022-08-06T10:46:42Z</time>
      </trkpt>
      <trkpt lat="48.5232" lon="1.95695">
        <ele>108.5</ele>
        <time>2022-08-06T10:46:44Z</time>
      </trkpt>
      <trkpt lat="48.52312" lon="1.95689">
        <ele>108.6</ele>
        <time>2022-08-06T10:46:46Z</time>
      </trkpt>
      <trkpt lat="48.52304" lon="1.95683">
        <ele>108.8</ele>
        <time>2022-08-06T10:46:48Z</time>
      </trkpt>
      <trkpt lat="48.52297" lon="1.95677">
        <ele>109.6</ele>
        <time>2022-08-06T10:46:50Z</time>
      </trkpt>
      <trkpt lat="48.52291" lon="1.9567">
        <ele>110.2</ele>
        <time>2022-08-06T10:46:52Z</time>
      </trkpt>
      <trkpt lat="48.52287" lon="1.95664">
        <ele>110.6</ele>
        <time>2022-08-06T10:46:54Z</time>
      </trkpt>
      <trkpt lat="48.52282" lon="1.95653">
        <ele>110.9</ele>
        <time>2022-08-06T10:46:56Z</time>
      </trkpt>
      <trkpt lat="48.5228" lon="1.95644">
        <ele>110.9</ele>
        <time>2022-08-06T10:46:58Z</time>
      </trkpt>
      <trkpt lat="48.52277" lon="1.95632">
        <ele>111.2</ele>
        <time>2022-08-06T10:47:00Z</time>
      </trkpt>
      <trkpt lat="48.52275" lon="1.95625">
        <ele>111.4</ele>
        <time>2022-08-06T10:47:02Z</time>
      </trkpt>
      <trkpt lat="48.52274" lon="1.95615">
        <ele>111.4</ele>
        <time>2022-08-06T10:47:04Z</time>
      </trkpt>
      <trkpt lat="48.52272" lon="1.95604">
        <ele>111.6</ele>
        <time>2022-08-06T10:47:06Z</time>
      </trkpt>
      <trkpt lat="48.5227" lon="1.95594">
        <ele>111.8</ele>
        <time>2022-08-06T10:47:08Z</time>
      </trkpt>
      <trkpt lat="48.52268" lon="1.95585">
        <ele>111.8</ele>
        <time>2022-08-06T10:47:10Z</time>
      </trkpt>
      <trkpt lat="48.52266" lon="1.95576">
        <ele>112.6</ele>
        <time>2022-08-06T10:47:12Z</time>
      </trkpt>
      <trkpt lat="48.52266" lon="1.95567">
        <ele>112.7</ele>
        <time>2022-08-06T10:47:14Z</time>
      </trkpt>
      <trkpt lat="48.52265" lon="1.95558">
        <ele>113.3</ele>
        <time>2022-08-06T10:47:16Z</time>
      </trkpt>
      <trkpt lat="48.52264" lon="1.95551">
        <ele>113.4</ele>
        <time>2022-08-06T10:47:18Z</time>
      </trkpt>
      <trkpt lat="48.52263" lon="1.95542">
        <ele>113.7</ele>
        <time>2022-08-06T10:47:20Z</time>
      </trkpt>
      <trkpt lat="48.52262" lon="1.95533">
        <ele>114.1</ele>
        <time>2022-08-06T10:47:22Z</time>
      </trkpt>
      <trkpt lat="48.5226" lon="1.95525">
        <ele>114.4</ele>
        <time>2022-08-06T10:47:24Z</time>
      </trkpt>
      <trkpt lat="48.52257" lon="1.95516">
        <ele>114.8</ele>
        <time>2022-08-06T10:47:26Z</time>
      </trkpt>
      <trkpt lat="48.52256" lon="1.95508">
        <ele>114.8</ele>
        <time>2022-08-06T10:47:28Z</time>
      </trkpt>
      <trkpt lat="48.52255" lon="1.955">
        <ele>114.8</ele>
        <time>2022-08-06T10:47:30Z</time>
      </trkpt>
      <trkpt lat="48.52255" lon="1.95493">
        <ele>114.6</ele>
        <time>2022-08-06T10:47:32Z</time>
      </trkpt>
      <trkpt lat="48.52254" lon="1.95486">
        <ele>114.3</ele>
        <time>2022-08-06T10:47:34Z</time>
      </trkpt>
      <trkpt lat="48.52253" lon="1.95472">
        <ele>113.6</ele>
        <time>2022-08-06T10:47:38Z</time>
      </trkpt>
      <trkpt lat="48.5225" lon="1.95465">
        <ele>113.7</ele>
        <time>2022-08-06T10:47:40Z</time>
      </trkpt>
      <trkpt lat="48.52246" lon="1.95457">
        <ele>113.4</ele>
        <time>2022-08-06T10:47:42Z</time>
      </trkpt>
      <trkpt lat="48.52239" lon="1.95452">
        <ele>113</ele>
        <time>2022-08-06T10:47:44Z</time>
      </trkpt>
      <trkpt lat="48.52229" lon="1.95451">
        <ele>112.7</ele>
        <time>2022-08-06T10:47:46Z</time>
      </trkpt>
      <trkpt lat="48.52218" lon="1.95458">
        <ele>112.6</ele>
        <time>2022-08-06T10:47:48Z</time>
      </trkpt>
      <trkpt lat="48.52208" lon="1.95469">
        <ele>112.3</ele>
        <time>2022-08-06T10:47:50Z</time>
      </trkpt>
      <trkpt lat="48.52199" lon="1.95478">
        <ele>112.2</ele>
        <time>2022-08-06T10:47:52Z</time>
      </trkpt>
      <trkpt lat="48.52192" lon="1.95486">
        <ele>112.4</ele>
        <time>2022-08-06T10:47:54Z</time>
      </trkpt>
      <trkpt lat="48.52188" lon="1.95492">
        <ele>112.9</ele>
        <time>2022-08-06T10:47:56Z</time>
      </trkpt>
      <trkpt lat="48.52182" lon="1.95499">
        <ele>113.4</ele>
        <time>2022-08-06T10:48:00Z</time>
      </trkpt>
      <trkpt lat="48.52177" lon="1.95499">
        <ele>113.3</ele>
        <time>2022-08-06T10:48:02Z</time>
      </trkpt>
      <trkpt lat="48.52169" lon="1.95497">
        <ele>112.8</ele>
        <time>2022-08-06T10:48:04Z</time>
      </trkpt>
      <trkpt lat="48.5216" lon="1.95494">
        <ele>111.9</ele>
        <time>2022-08-06T10:48:06Z</time>
      </trkpt>
      <trkpt lat="48.5215" lon="1.95493">
        <ele>111.2</ele>
        <time>2022-08-06T10:48:08Z</time>
      </trkpt>
      <trkpt lat="48.52141" lon="1.95496">
        <ele>110.9</ele>
        <time>2022-08-06T10:48:10Z</time>
      </trkpt>
      <trkpt lat="48.52134" lon="1.955">
        <ele>111</ele>
        <time>2022-08-06T10:48:12Z</time>
      </trkpt>
      <trkpt lat="48.52127" lon="1.955">
        <ele>111.1</ele>
        <time>2022-08-06T10:48:14Z</time>
      </trkpt>
      <trkpt lat="48.5212" lon="1.95499">
        <ele>110.9</ele>
        <time>2022-08-06T10:48:16Z</time>
      </trkpt>
      <trkpt lat="48.52115" lon="1.95497">
        <ele>110.8</ele>
        <time>2022-08-06T10:48:18Z</time>
      </trkpt>
      <trkpt lat="48.52109" lon="1.95495">
        <ele>110.8</ele>
        <time>2022-08-06T10:48:20Z</time>
      </trkpt>
      <trkpt lat="48.52102" lon="1.95493">
        <ele>111.1</ele>
        <time>2022-08-06T10:48:22Z</time>
      </trkpt>
      <trkpt lat="48.52097" lon="1.95491">
        <ele>111.2</ele>
        <time>2022-08-06T10:48:24Z</time>
      </trkpt>
      <trkpt lat="48.52087" lon="1.95482">
        <ele>110.9</ele>
        <time>2022-08-06T10:48:28Z</time>
      </trkpt>
      <trkpt lat="48.52081" lon="1.95478">
        <ele>110.8</ele>
        <time>2022-08-06T10:48:30Z</time>
      </trkpt>
      <trkpt lat="48.52076" lon="1.95471">
        <ele>110.5</ele>
        <time>2022-08-06T10:48:32Z</time>
      </trkpt>
      <trkpt lat="48.52072" lon="1.95463">
        <ele>110.4</ele>
        <time>2022-08-06T10:48:34Z</time>
      </trkpt>
      <trkpt lat="48.52068" lon="1.95457">
        <ele>110.2</ele>
        <time>2022-08-06T10:48:36Z</time>
      </trkpt>
      <trkpt lat="48.52063" lon="1.95448">
        <ele>110</ele>
        <time>2022-08-06T10:48:38Z</time>
      </trkpt>
      <trkpt lat="48.52059" lon="1.95441">
        <ele>109.9</ele>
        <time>2022-08-06T10:48:40Z</time>
      </trkpt>
      <trkpt lat="48.52054" lon="1.9543">
        <ele>110.1</ele>
        <time>2022-08-06T10:48:42Z</time>
      </trkpt>
      <trkpt lat="48.52051" lon="1.95423">
        <ele>110.2</ele>
        <time>2022-08-06T10:48:44Z</time>
      </trkpt>
      <trkpt lat="48.52047" lon="1.95413">
        <ele>110.2</ele>
        <time>2022-08-06T10:48:46Z</time>
      </trkpt>
      <trkpt lat="48.52042" lon="1.95405">
        <ele>110.1</ele>
        <time>2022-08-06T10:48:48Z</time>
      </trkpt>
      <trkpt lat="48.52039" lon="1.95396">
        <ele>109.8</ele>
        <time>2022-08-06T10:48:50Z</time>
      </trkpt>
      <trkpt lat="48.52035" lon="1.95391">
        <ele>109.8</ele>
        <time>2022-08-06T10:48:52Z</time>
      </trkpt>
      <trkpt lat="48.52029" lon="1.95385">
        <ele>109.9</ele>
        <time>2022-08-06T10:48:54Z</time>
      </trkpt>
      <trkpt lat="48.52025" lon="1.95377">
        <ele>110.1</ele>
        <time>2022-08-06T10:48:56Z</time>
      </trkpt>
      <trkpt lat="48.52021" lon="1.9537">
        <ele>110.3</ele>
        <time>2022-08-06T10:48:58Z</time>
      </trkpt>
      <trkpt lat="48.5202" lon="1.95364">
        <ele>110.3</ele>
        <time>2022-08-06T10:49:00Z</time>
      </trkpt>
      <trkpt lat="48.52015" lon="1.95355">
        <ele>110.3</ele>
        <time>2022-08-06T10:49:02Z</time>
      </trkpt>
      <trkpt lat="48.52009" lon="1.95347">
        <ele>110.2</ele>
        <time>2022-08-06T10:49:04Z</time>
      </trkpt>
      <trkpt lat="48.52004" lon="1.95341">
        <ele>110.2</ele>
        <time>2022-08-06T10:49:06Z</time>
      </trkpt>
      <trkpt lat="48.51999" lon="1.95336">
        <ele>110.2</ele>
        <time>2022-08-06T10:49:08Z</time>
      </trkpt>
      <trkpt lat="48.51994" lon="1.95329">
        <ele>110.3</ele>
        <time>2022-08-06T10:49:10Z</time>
      </trkpt>
      <trkpt lat="48.51987" lon="1.95319">
        <ele>110.5</ele>
        <time>2022-08-06T10:49:12Z</time>
      </trkpt>
      <trkpt lat="48.51979" lon="1.95314">
        <ele>110.8</ele>
        <time>2022-08-06T10:49:14Z</time>
      </trkpt>
      <trkpt lat="48.51972" lon="1.95309">
        <ele>111.2</ele>
        <time>2022-08-06T10:49:16Z</time>
      </trkpt>
      <trkpt lat="48.51966" lon="1.95303">
        <ele>111.8</ele>
        <time>2022-08-06T10:49:18Z</time>
      </trkpt>
      <trkpt lat="48.5196" lon="1.953">
        <ele>112.2</ele>
        <time>2022-08-06T10:49:20Z</time>
      </trkpt>
      <trkpt lat="48.51956" lon="1.95296">
        <ele>112.4</ele>
        <time>2022-08-06T10:49:22Z</time>
      </trkpt>
      <trkpt lat="48.51947" lon="1.95288">
        <ele>112.2</ele>
        <time>2022-08-06T10:49:26Z</time>
      </trkpt>
      <trkpt lat="48.5194" lon="1.9528">
        <ele>112.1</ele>
        <time>2022-08-06T10:49:28Z</time>
      </trkpt>
      <trkpt lat="48.51933" lon="1.95277">
        <ele>113</ele>
        <time>2022-08-06T10:49:30Z</time>
      </trkpt>
      <trkpt lat="48.51927" lon="1.95269">
        <ele>113.3</ele>
        <time>2022-08-06T10:49:32Z</time>
      </trkpt>
      <trkpt lat="48.5192" lon="1.95263">
        <ele>113.9</ele>
        <time>2022-08-06T10:49:34Z</time>
      </trkpt>
      <trkpt lat="48.51912" lon="1.95256">
        <ele>114.7</ele>
        <time>2022-08-06T10:49:36Z</time>
      </trkpt>
      <trkpt lat="48.51907" lon="1.9525">
        <ele>115.2</ele>
        <time>2022-08-06T10:49:38Z</time>
      </trkpt>
      <trkpt lat="48.51901" lon="1.95244">
        <ele>115.4</ele>
        <time>2022-08-06T10:49:40Z</time>
      </trkpt>
      <trkpt lat="48.51894" lon="1.95237">
        <ele>115.3</ele>
        <time>2022-08-06T10:49:42Z</time>
      </trkpt>
      <trkpt lat="48.51886" lon="1.95229">
        <ele>115</ele>
        <time>2022-08-06T10:49:44Z</time>
      </trkpt>
      <trkpt lat="48.5188" lon="1.95222">
        <ele>114.6</ele>
        <time>2022-08-06T10:49:46Z</time>
      </trkpt>
      <trkpt lat="48.51872" lon="1.95217">
        <ele>115</ele>
        <time>2022-08-06T10:49:48Z</time>
      </trkpt>
      <trkpt lat="48.51864" lon="1.9521">
        <ele>114.6</ele>
        <time>2022-08-06T10:49:50Z</time>
      </trkpt>
      <trkpt lat="48.51856" lon="1.95206">
        <ele>114.2</ele>
        <time>2022-08-06T10:49:52Z</time>
      </trkpt>
      <trkpt lat="48.51848" lon="1.95204">
        <ele>114</ele>
        <time>2022-08-06T10:49:54Z</time>
      </trkpt>
      <trkpt lat="48.51841" lon="1.95201">
        <ele>113.7</ele>
        <time>2022-08-06T10:49:56Z</time>
      </trkpt>
      <trkpt lat="48.51835" lon="1.95196">
        <ele>113.2</ele>
        <time>2022-08-06T10:49:58Z</time>
      </trkpt>
      <trkpt lat="48.51828" lon="1.95192">
        <ele>113</ele>
        <time>2022-08-06T10:50:00Z</time>
      </trkpt>
      <trkpt lat="48.51821" lon="1.95189">
        <ele>113</ele>
        <time>2022-08-06T10:50:02Z</time>
      </trkpt>
      <trkpt lat="48.51816" lon="1.95187">
        <ele>113</ele>
        <time>2022-08-06T10:50:04Z</time>
      </trkpt>
      <trkpt lat="48.51807" lon="1.9518">
        <ele>112.9</ele>
        <time>2022-08-06T10:50:08Z</time>
      </trkpt>
      <trkpt lat="48.51804" lon="1.95172">
        <ele>112.6</ele>
        <time>2022-08-06T10:50:10Z</time>
      </trkpt>
      <trkpt lat="48.51802" lon="1.95165">
        <ele>112.4</ele>
        <time>2022-08-06T10:50:12Z</time>
      </trkpt>
      <trkpt lat="48.51801" lon="1.95157">
        <ele>112.3</ele>
        <time>2022-08-06T10:50:14Z</time>
      </trkpt>
      <trkpt lat="48.51797" lon="1.95143">
        <ele>112.4</ele>
        <time>2022-08-06T10:50:18Z</time>
      </trkpt>
      <trkpt lat="48.51789" lon="1.95131">
        <ele>112.9</ele>
        <time>2022-08-06T10:50:22Z</time>
      </trkpt>
      <trkpt lat="48.51781" lon="1.95125">
        <ele>113.6</ele>
        <time>2022-08-06T10:50:24Z</time>
      </trkpt>
      <trkpt lat="48.51775" lon="1.95115">
        <ele>114</ele>
        <time>2022-08-06T10:50:26Z</time>
      </trkpt>
      <trkpt lat="48.51771" lon="1.95108">
        <ele>114.5</ele>
        <time>2022-08-06T10:50:28Z</time>
      </trkpt>
      <trkpt lat="48.5177" lon="1.95097">
        <ele>114.6</ele>
        <time>2022-08-06T10:50:30Z</time>
      </trkpt>
      <trkpt lat="48.51771" lon="1.9509">
        <ele>114.3</ele>
        <time>2022-08-06T10:50:32Z</time>
      </trkpt>
      <trkpt lat="48.51772" lon="1.95082">
        <ele>114.1</ele>
        <time>2022-08-06T10:50:34Z</time>
      </trkpt>
      <trkpt lat="48.51775" lon="1.95071">
        <ele>114.4</ele>
        <time>2022-08-06T10:50:36Z</time>
      </trkpt>
      <trkpt lat="48.51781" lon="1.95065">
        <ele>113.9</ele>
        <time>2022-08-06T10:50:38Z</time>
      </trkpt>
      <trkpt lat="48.51785" lon="1.95056">
        <ele>113.9</ele>
        <time>2022-08-06T10:50:40Z</time>
      </trkpt>
      <trkpt lat="48.5179" lon="1.95047">
        <ele>114.4</ele>
        <time>2022-08-06T10:50:42Z</time>
      </trkpt>
      <trkpt lat="48.51797" lon="1.95039">
        <ele>114</ele>
        <time>2022-08-06T10:50:44Z</time>
      </trkpt>
      <trkpt lat="48.51802" lon="1.95032">
        <ele>113.5</ele>
        <time>2022-08-06T10:50:46Z</time>
      </trkpt>
      <trkpt lat="48.51801" lon="1.95022">
        <ele>115</ele>
        <time>2022-08-06T10:50:48Z</time>
      </trkpt>
      <trkpt lat="48.51807" lon="1.95012">
        <ele>115.2</ele>
        <time>2022-08-06T10:50:50Z</time>
      </trkpt>
      <trkpt lat="48.51813" lon="1.95003">
        <ele>114.9</ele>
        <time>2022-08-06T10:50:52Z</time>
      </trkpt>
      <trkpt lat="48.5182" lon="1.94993">
        <ele>114.6</ele>
        <time>2022-08-06T10:50:54Z</time>
      </trkpt>
      <trkpt lat="48.51824" lon="1.94984">
        <ele>114.6</ele>
        <time>2022-08-06T10:50:56Z</time>
      </trkpt>
      <trkpt lat="48.51827" lon="1.94975">
        <ele>114.6</ele>
        <time>2022-08-06T10:50:58Z</time>
      </trkpt>
      <trkpt lat="48.51828" lon="1.94965">
        <ele>114.8</ele>
        <time>2022-08-06T10:51:00Z</time>
      </trkpt>
      <trkpt lat="48.51828" lon="1.94954">
        <ele>115.4</ele>
        <time>2022-08-06T10:51:02Z</time>
      </trkpt>
      <trkpt lat="48.5183" lon="1.94945">
        <ele>115.5</ele>
        <time>2022-08-06T10:51:04Z</time>
      </trkpt>
      <trkpt lat="48.51831" lon="1.94934">
        <ele>115.1</ele>
        <time>2022-08-06T10:51:06Z</time>
      </trkpt>
      <trkpt lat="48.51832" lon="1.94924">
        <ele>114.8</ele>
        <time>2022-08-06T10:51:08Z</time>
      </trkpt>
      <trkpt lat="48.51831" lon="1.94915">
        <ele>115</ele>
        <time>2022-08-06T10:51:10Z</time>
      </trkpt>
      <trkpt lat="48.5183" lon="1.94906">
        <ele>115.4</ele>
        <time>2022-08-06T10:51:12Z</time>
      </trkpt>
      <trkpt lat="48.51829" lon="1.94898">
        <ele>115.6</ele>
        <time>2022-08-06T10:51:14Z</time>
      </trkpt>
      <trkpt lat="48.51828" lon="1.94891">
        <ele>115.9</ele>
        <time>2022-08-06T10:51:16Z</time>
      </trkpt>
      <trkpt lat="48.51827" lon="1.94884">
        <ele>116</ele>
        <time>2022-08-06T10:51:18Z</time>
      </trkpt>
      <trkpt lat="48.51827" lon="1.94875">
        <ele>116</ele>
        <time>2022-08-06T10:51:20Z</time>
      </trkpt>
      <trkpt lat="48.51825" lon="1.94864">
        <ele>116.1</ele>
        <time>2022-08-06T10:51:24Z</time>
      </trkpt>
      <trkpt lat="48.51824" lon="1.94856">
        <ele>116.2</ele>
        <time>2022-08-06T10:51:26Z</time>
      </trkpt>
      <trkpt lat="48.51823" lon="1.94848">
        <ele>116.1</ele>
        <time>2022-08-06T10:51:28Z</time>
      </trkpt>
      <trkpt lat="48.5182" lon="1.94837">
        <ele>116.6</ele>
        <time>2022-08-06T10:51:32Z</time>
      </trkpt>
      <trkpt lat="48.51816" lon="1.94832">
        <ele>117.1</ele>
        <time>2022-08-06T10:51:34Z</time>
      </trkpt>
      <trkpt lat="48.51811" lon="1.94829">
        <ele>117.8</ele>
        <time>2022-08-06T10:51:36Z</time>
      </trkpt>
      <trkpt lat="48.51806" lon="1.94825">
        <ele>118.4</ele>
        <time>2022-08-06T10:51:38Z</time>
      </trkpt>
      <trkpt lat="48.51801" lon="1.94825">
        <ele>118.5</ele>
        <time>2022-08-06T10:51:40Z</time>
      </trkpt>
      <trkpt lat="48.51796" lon="1.94825">
        <ele>118.7</ele>
        <time>2022-08-06T10:51:42Z</time>
      </trkpt>
      <trkpt lat="48.51791" lon="1.94827">
        <ele>118.9</ele>
        <time>2022-08-06T10:51:44Z</time>
      </trkpt>
      <trkpt lat="48.51787" lon="1.94829">
        <ele>119.2</ele>
        <time>2022-08-06T10:51:46Z</time>
      </trkpt>
      <trkpt lat="48.51781" lon="1.94828">
        <ele>119.4</ele>
        <time>2022-08-06T10:51:48Z</time>
      </trkpt>
      <trkpt lat="48.51777" lon="1.94831">
        <ele>119.7</ele>
        <time>2022-08-06T10:51:50Z</time>
      </trkpt>
      <trkpt lat="48.5177" lon="1.94833">
        <ele>119.7</ele>
        <time>2022-08-06T10:51:52Z</time>
      </trkpt>
      <trkpt lat="48.51765" lon="1.94834">
        <ele>119.7</ele>
        <time>2022-08-06T10:51:54Z</time>
      </trkpt>
      <trkpt lat="48.5176" lon="1.94836">
        <ele>120</ele>
        <time>2022-08-06T10:51:56Z</time>
      </trkpt>
      <trkpt lat="48.51755" lon="1.94838">
        <ele>120.1</ele>
        <time>2022-08-06T10:51:58Z</time>
      </trkpt>
      <trkpt lat="48.51746" lon="1.9484">
        <ele>120.3</ele>
        <time>2022-08-06T10:52:02Z</time>
      </trkpt>
      <trkpt lat="48.51742" lon="1.94843">
        <ele>120.9</ele>
        <time>2022-08-06T10:52:04Z</time>
      </trkpt>
      <trkpt lat="48.51733" lon="1.94842">
        <ele>120.5</ele>
        <time>2022-08-06T10:52:08Z</time>
      </trkpt>
      <trkpt lat="48.51725" lon="1.9484">
        <ele>120</ele>
        <time>2022-08-06T10:52:12Z</time>
      </trkpt>
      <trkpt lat="48.51719" lon="1.94836">
        <ele>119.5</ele>
        <time>2022-08-06T10:52:14Z</time>
      </trkpt>
      <trkpt lat="48.51712" lon="1.94831">
        <ele>119.1</ele>
        <time>2022-08-06T10:52:16Z</time>
      </trkpt>
      <trkpt lat="48.51706" lon="1.94829">
        <ele>119</ele>
        <time>2022-08-06T10:52:18Z</time>
      </trkpt>
      <trkpt lat="48.51697" lon="1.94825">
        <ele>118.9</ele>
        <time>2022-08-06T10:52:20Z</time>
      </trkpt>
      <trkpt lat="48.51687" lon="1.9482">
        <ele>119</ele>
        <time>2022-08-06T10:52:22Z</time>
      </trkpt>
      <trkpt lat="48.51678" lon="1.94812">
        <ele>118.4</ele>
        <time>2022-08-06T10:52:24Z</time>
      </trkpt>
      <trkpt lat="48.51672" lon="1.94802">
        <ele>117.6</ele>
        <time>2022-08-06T10:52:26Z</time>
      </trkpt>
      <trkpt lat="48.51667" lon="1.94793">
        <ele>117.1</ele>
        <time>2022-08-06T10:52:28Z</time>
      </trkpt>
      <trkpt lat="48.51661" lon="1.94785">
        <ele>117.2</ele>
        <time>2022-08-06T10:52:30Z</time>
      </trkpt>
      <trkpt lat="48.51653" lon="1.94776">
        <ele>117.4</ele>
        <time>2022-08-06T10:52:32Z</time>
      </trkpt>
      <trkpt lat="48.51645" lon="1.94763">
        <ele>117.3</ele>
        <time>2022-08-06T10:52:34Z</time>
      </trkpt>
      <trkpt lat="48.51641" lon="1.94749">
        <ele>116.7</ele>
        <time>2022-08-06T10:52:36Z</time>
      </trkpt>
      <trkpt lat="48.51638" lon="1.94735">
        <ele>116</ele>
        <time>2022-08-06T10:52:38Z</time>
      </trkpt>
      <trkpt lat="48.51632" lon="1.9472">
        <ele>115.8</ele>
        <time>2022-08-06T10:52:40Z</time>
      </trkpt>
      <trkpt lat="48.51625" lon="1.94709">
        <ele>115.8</ele>
        <time>2022-08-06T10:52:42Z</time>
      </trkpt>
      <trkpt lat="48.51617" lon="1.947">
        <ele>115.5</ele>
        <time>2022-08-06T10:52:44Z</time>
      </trkpt>
      <trkpt lat="48.51608" lon="1.94696">
        <ele>115.2</ele>
        <time>2022-08-06T10:52:46Z</time>
      </trkpt>
      <trkpt lat="48.51598" lon="1.94695">
        <ele>115.1</ele>
        <time>2022-08-06T10:52:48Z</time>
      </trkpt>
      <trkpt lat="48.5159" lon="1.94698">
        <ele>115.5</ele>
        <time>2022-08-06T10:52:50Z</time>
      </trkpt>
      <trkpt lat="48.51582" lon="1.94701">
        <ele>115.7</ele>
        <time>2022-08-06T10:52:52Z</time>
      </trkpt>
      <trkpt lat="48.51574" lon="1.94707">
        <ele>115.7</ele>
        <time>2022-08-06T10:52:54Z</time>
      </trkpt>
      <trkpt lat="48.51568" lon="1.94714">
        <ele>115.7</ele>
        <time>2022-08-06T10:52:56Z</time>
      </trkpt>
      <trkpt lat="48.51562" lon="1.9472">
        <ele>115.5</ele>
        <time>2022-08-06T10:52:58Z</time>
      </trkpt>
      <trkpt lat="48.51556" lon="1.94726">
        <ele>115.6</ele>
        <time>2022-08-06T10:53:00Z</time>
      </trkpt>
      <trkpt lat="48.51549" lon="1.94733">
        <ele>115.9</ele>
        <time>2022-08-06T10:53:02Z</time>
      </trkpt>
      <trkpt lat="48.51544" lon="1.9474">
        <ele>116.3</ele>
        <time>2022-08-06T10:53:04Z</time>
      </trkpt>
      <trkpt lat="48.51536" lon="1.94746">
        <ele>115.8</ele>
        <time>2022-08-06T10:53:06Z</time>
      </trkpt>
      <trkpt lat="48.51529" lon="1.94749">
        <ele>115.2</ele>
        <time>2022-08-06T10:53:08Z</time>
      </trkpt>
      <trkpt lat="48.51524" lon="1.94754">
        <ele>115.3</ele>
        <time>2022-08-06T10:53:10Z</time>
      </trkpt>
      <trkpt lat="48.51517" lon="1.94762">
        <ele>115.7</ele>
        <time>2022-08-06T10:53:12Z</time>
      </trkpt>
      <trkpt lat="48.51509" lon="1.94767">
        <ele>115.8</ele>
        <time>2022-08-06T10:53:14Z</time>
      </trkpt>
      <trkpt lat="48.51502" lon="1.94773">
        <ele>115.8</ele>
        <time>2022-08-06T10:53:16Z</time>
      </trkpt>
      <trkpt lat="48.51496" lon="1.94777">
        <ele>115.8</ele>
        <time>2022-08-06T10:53:18Z</time>
      </trkpt>
      <trkpt lat="48.5149" lon="1.94781">
        <ele>115.9</ele>
        <time>2022-08-06T10:53:20Z</time>
      </trkpt>
      <trkpt lat="48.51486" lon="1.94785">
        <ele>116.1</ele>
        <time>2022-08-06T10:53:22Z</time>
      </trkpt>
      <trkpt lat="48.51481" lon="1.9479">
        <ele>116.3</ele>
        <time>2022-08-06T10:53:24Z</time>
      </trkpt>
      <trkpt lat="48.51475" lon="1.94794">
        <ele>116.3</ele>
        <time>2022-08-06T10:53:26Z</time>
      </trkpt>
      <trkpt lat="48.51469" lon="1.94798">
        <ele>116.4</ele>
        <time>2022-08-06T10:53:28Z</time>
      </trkpt>
      <trkpt lat="48.51462" lon="1.94803">
        <ele>116.5</ele>
        <time>2022-08-06T10:53:30Z</time>
      </trkpt>
      <trkpt lat="48.51454" lon="1.94804">
        <ele>116.3</ele>
        <time>2022-08-06T10:53:32Z</time>
      </trkpt>
      <trkpt lat="48.51445" lon="1.94808">
        <ele>116.2</ele>
        <time>2022-08-06T10:53:34Z</time>
      </trkpt>
      <trkpt lat="48.51439" lon="1.9481">
        <ele>116.1</ele>
        <time>2022-08-06T10:53:36Z</time>
      </trkpt>
      <trkpt lat="48.51433" lon="1.94814">
        <ele>116.1</ele>
        <time>2022-08-06T10:53:38Z</time>
      </trkpt>
      <trkpt lat="48.51426" lon="1.94817">
        <ele>115.9</ele>
        <time>2022-08-06T10:53:40Z</time>
      </trkpt>
      <trkpt lat="48.51421" lon="1.9482">
        <ele>115.7</ele>
        <time>2022-08-06T10:53:42Z</time>
      </trkpt>
      <trkpt lat="48.51415" lon="1.94825">
        <ele>115.7</ele>
        <time>2022-08-06T10:53:44Z</time>
      </trkpt>
      <trkpt lat="48.51408" lon="1.9483">
        <ele>115.6</ele>
        <time>2022-08-06T10:53:46Z</time>
      </trkpt>
      <trkpt lat="48.514" lon="1.94835">
        <ele>115.5</ele>
        <time>2022-08-06T10:53:48Z</time>
      </trkpt>
      <trkpt lat="48.51394" lon="1.94841">
        <ele>115.5</ele>
        <time>2022-08-06T10:53:50Z</time>
      </trkpt>
      <trkpt lat="48.51386" lon="1.94846">
        <ele>115.4</ele>
        <time>2022-08-06T10:53:52Z</time>
      </trkpt>
      <trkpt lat="48.51378" lon="1.94852">
        <ele>115.7</ele>
        <time>2022-08-06T10:53:54Z</time>
      </trkpt>
      <trkpt lat="48.5137" lon="1.94857">
        <ele>115.9</ele>
        <time>2022-08-06T10:53:56Z</time>
      </trkpt>
      <trkpt lat="48.51363" lon="1.94862">
        <ele>116</ele>
        <time>2022-08-06T10:53:58Z</time>
      </trkpt>
      <trkpt lat="48.51356" lon="1.94859">
        <ele>116.3</ele>
        <time>2022-08-06T10:54:00Z</time>
      </trkpt>
      <trkpt lat="48.5135" lon="1.94855">
        <ele>116.5</ele>
        <time>2022-08-06T10:54:02Z</time>
      </trkpt>
      <trkpt lat="48.51344" lon="1.94852">
        <ele>116.7</ele>
        <time>2022-08-06T10:54:04Z</time>
      </trkpt>
      <trkpt lat="48.5134" lon="1.94839">
        <ele>116.1</ele>
        <time>2022-08-06T10:54:08Z</time>
      </trkpt>
      <trkpt lat="48.5134" lon="1.94831">
        <ele>115.7</ele>
        <time>2022-08-06T10:54:10Z</time>
      </trkpt>
      <trkpt lat="48.51337" lon="1.94821">
        <ele>115.4</ele>
        <time>2022-08-06T10:54:12Z</time>
      </trkpt>
      <trkpt lat="48.51335" lon="1.94813">
        <ele>115.2</ele>
        <time>2022-08-06T10:54:14Z</time>
      </trkpt>
      <trkpt lat="48.51332" lon="1.94807">
        <ele>115.1</ele>
        <time>2022-08-06T10:54:16Z</time>
      </trkpt>
      <trkpt lat="48.51327" lon="1.94797">
        <ele>115.2</ele>
        <time>2022-08-06T10:54:18Z</time>
      </trkpt>
      <trkpt lat="48.51321" lon="1.94785">
        <ele>115.1</ele>
        <time>2022-08-06T10:54:20Z</time>
      </trkpt>
      <trkpt lat="48.51316" lon="1.94775">
        <ele>115</ele>
        <time>2022-08-06T10:54:22Z</time>
      </trkpt>
      <trkpt lat="48.51313" lon="1.94768">
        <ele>114.9</ele>
        <time>2022-08-06T10:54:24Z</time>
      </trkpt>
      <trkpt lat="48.51306" lon="1.94761">
        <ele>115</ele>
        <time>2022-08-06T10:54:26Z</time>
      </trkpt>
      <trkpt lat="48.51299" lon="1.94754">
        <ele>115.7</ele>
        <time>2022-08-06T10:54:28Z</time>
      </trkpt>
      <trkpt lat="48.51293" lon="1.94747">
        <ele>116.3</ele>
        <time>2022-08-06T10:54:30Z</time>
      </trkpt>
      <trkpt lat="48.51288" lon="1.94741">
        <ele>116.6</ele>
        <time>2022-08-06T10:54:32Z</time>
      </trkpt>
      <trkpt lat="48.51284" lon="1.94734">
        <ele>116.7</ele>
        <time>2022-08-06T10:54:34Z</time>
      </trkpt>
      <trkpt lat="48.51281" lon="1.94727">
        <ele>116.8</ele>
        <time>2022-08-06T10:54:36Z</time>
      </trkpt>
      <trkpt lat="48.51277" lon="1.94719">
        <ele>117.1</ele>
        <time>2022-08-06T10:54:38Z</time>
      </trkpt>
      <trkpt lat="48.51276" lon="1.94711">
        <ele>117.5</ele>
        <time>2022-08-06T10:54:40Z</time>
      </trkpt>
      <trkpt lat="48.51278" lon="1.94704">
        <ele>117</ele>
        <time>2022-08-06T10:54:42Z</time>
      </trkpt>
      <trkpt lat="48.51277" lon="1.94694">
        <ele>117.1</ele>
        <time>2022-08-06T10:54:46Z</time>
      </trkpt>
      <trkpt lat="48.51278" lon="1.94679">
        <ele>117.1</ele>
        <time>2022-08-06T10:54:50Z</time>
      </trkpt>
      <trkpt lat="48.51278" lon="1.94668">
        <ele>117.1</ele>
        <time>2022-08-06T10:54:52Z</time>
      </trkpt>
      <trkpt lat="48.51278" lon="1.94656">
        <ele>117</ele>
        <time>2022-08-06T10:54:54Z</time>
      </trkpt>
      <trkpt lat="48.51278" lon="1.94649">
        <ele>116.9</ele>
        <time>2022-08-06T10:54:56Z</time>
      </trkpt>
      <trkpt lat="48.51279" lon="1.94639">
        <ele>116.8</ele>
        <time>2022-08-06T10:54:58Z</time>
      </trkpt>
      <trkpt lat="48.51281" lon="1.9463">
        <ele>116.6</ele>
        <time>2022-08-06T10:55:00Z</time>
      </trkpt>
      <trkpt lat="48.5128" lon="1.94618">
        <ele>116.8</ele>
        <time>2022-08-06T10:55:02Z</time>
      </trkpt>
      <trkpt lat="48.5128" lon="1.94605">
        <ele>116.7</ele>
        <time>2022-08-06T10:55:04Z</time>
      </trkpt>
      <trkpt lat="48.51282" lon="1.94595">
        <ele>116.6</ele>
        <time>2022-08-06T10:55:06Z</time>
      </trkpt>
      <trkpt lat="48.51282" lon="1.94587">
        <ele>116.5</ele>
        <time>2022-08-06T10:55:08Z</time>
      </trkpt>
      <trkpt lat="48.51284" lon="1.9458">
        <ele>116.3</ele>
        <time>2022-08-06T10:55:10Z</time>
      </trkpt>
      <trkpt lat="48.5129" lon="1.94569">
        <ele>116</ele>
        <time>2022-08-06T10:55:14Z</time>
      </trkpt>
      <trkpt lat="48.51293" lon="1.94559">
        <ele>115.8</ele>
        <time>2022-08-06T10:55:18Z</time>
      </trkpt>
      <trkpt lat="48.51296" lon="1.94551">
        <ele>115.9</ele>
        <time>2022-08-06T10:55:20Z</time>
      </trkpt>
      <trkpt lat="48.51298" lon="1.94545">
        <ele>115.9</ele>
        <time>2022-08-06T10:55:22Z</time>
      </trkpt>
      <trkpt lat="48.513" lon="1.94537">
        <ele>116.1</ele>
        <time>2022-08-06T10:55:24Z</time>
      </trkpt>
      <trkpt lat="48.51302" lon="1.94528">
        <ele>116.2</ele>
        <time>2022-08-06T10:55:26Z</time>
      </trkpt>
      <trkpt lat="48.51307" lon="1.9452">
        <ele>116.2</ele>
        <time>2022-08-06T10:55:28Z</time>
      </trkpt>
      <trkpt lat="48.5131" lon="1.94513">
        <ele>116.3</ele>
        <time>2022-08-06T10:55:30Z</time>
      </trkpt>
      <trkpt lat="48.51317" lon="1.9451">
        <ele>116</ele>
        <time>2022-08-06T10:55:32Z</time>
      </trkpt>
      <trkpt lat="48.51324" lon="1.94513">
        <ele>115.5</ele>
        <time>2022-08-06T10:55:34Z</time>
      </trkpt>
      <trkpt lat="48.5133" lon="1.94526">
        <ele>115.1</ele>
        <time>2022-08-06T10:55:36Z</time>
      </trkpt>
      <trkpt lat="48.51336" lon="1.94536">
        <ele>114.6</ele>
        <time>2022-08-06T10:55:38Z</time>
      </trkpt>
      <trkpt lat="48.51341" lon="1.94548">
        <ele>114.2</ele>
        <time>2022-08-06T10:55:40Z</time>
      </trkpt>
      <trkpt lat="48.51347" lon="1.94555">
        <ele>114</ele>
        <time>2022-08-06T10:55:42Z</time>
      </trkpt>
      <trkpt lat="48.5135" lon="1.94559">
        <ele>114</ele>
        <time>2022-08-06T10:55:44Z</time>
      </trkpt>
      <trkpt lat="48.51356" lon="1.94555">
        <ele>114</ele>
        <time>2022-08-06T10:55:50Z</time>
      </trkpt>
      <trkpt lat="48.51358" lon="1.94543">
        <ele>114.1</ele>
        <time>2022-08-06T10:55:56Z</time>
      </trkpt>
      <trkpt lat="48.51354" lon="1.9453">
        <ele>114.2</ele>
        <time>2022-08-06T10:56:00Z</time>
      </trkpt>
      <trkpt lat="48.51353" lon="1.94521">
        <ele>114.5</ele>
        <time>2022-08-06T10:56:02Z</time>
      </trkpt>
      <trkpt lat="48.51354" lon="1.94512">
        <ele>114.7</ele>
        <time>2022-08-06T10:56:04Z</time>
      </trkpt>
      <trkpt lat="48.51351" lon="1.94503">
        <ele>114.9</ele>
        <time>2022-08-06T10:56:06Z</time>
      </trkpt>
      <trkpt lat="48.51351" lon="1.94495">
        <ele>115.1</ele>
        <time>2022-08-06T10:56:08Z</time>
      </trkpt>
      <trkpt lat="48.5135" lon="1.94488">
        <ele>115.2</ele>
        <time>2022-08-06T10:56:10Z</time>
      </trkpt>
      <trkpt lat="48.51349" lon="1.94478">
        <ele>115.3</ele>
        <time>2022-08-06T10:56:12Z</time>
      </trkpt>
      <trkpt lat="48.51348" lon="1.94469">
        <ele>115.5</ele>
        <time>2022-08-06T10:56:14Z</time>
      </trkpt>
      <trkpt lat="48.51348" lon="1.94458">
        <ele>115.5</ele>
        <time>2022-08-06T10:56:16Z</time>
      </trkpt>
      <trkpt lat="48.51346" lon="1.94449">
        <ele>115.5</ele>
        <time>2022-08-06T10:56:18Z</time>
      </trkpt>
      <trkpt lat="48.51346" lon="1.94438">
        <ele>115.8</ele>
        <time>2022-08-06T10:56:20Z</time>
      </trkpt>
      <trkpt lat="48.51346" lon="1.94428">
        <ele>116.1</ele>
        <time>2022-08-06T10:56:22Z</time>
      </trkpt>
      <trkpt lat="48.51347" lon="1.94419">
        <ele>116.4</ele>
        <time>2022-08-06T10:56:24Z</time>
      </trkpt>
      <trkpt lat="48.5135" lon="1.9441">
        <ele>116.7</ele>
        <time>2022-08-06T10:56:26Z</time>
      </trkpt>
      <trkpt lat="48.51353" lon="1.94402">
        <ele>117</ele>
        <time>2022-08-06T10:56:28Z</time>
      </trkpt>
      <trkpt lat="48.51356" lon="1.94392">
        <ele>117.2</ele>
        <time>2022-08-06T10:56:30Z</time>
      </trkpt>
      <trkpt lat="48.51359" lon="1.94384">
        <ele>117.2</ele>
        <time>2022-08-06T10:56:32Z</time>
      </trkpt>
      <trkpt lat="48.51361" lon="1.94374">
        <ele>117</ele>
        <time>2022-08-06T10:56:34Z</time>
      </trkpt>
      <trkpt lat="48.51365" lon="1.94367">
        <ele>116.8</ele>
        <time>2022-08-06T10:56:36Z</time>
      </trkpt>
      <trkpt lat="48.51367" lon="1.94358">
        <ele>116.7</ele>
        <time>2022-08-06T10:56:38Z</time>
      </trkpt>
      <trkpt lat="48.5137" lon="1.94349">
        <ele>116.6</ele>
        <time>2022-08-06T10:56:40Z</time>
      </trkpt>
      <trkpt lat="48.51374" lon="1.9434">
        <ele>116.5</ele>
        <time>2022-08-06T10:56:42Z</time>
      </trkpt>
      <trkpt lat="48.51378" lon="1.9433">
        <ele>116.3</ele>
        <time>2022-08-06T10:56:44Z</time>
      </trkpt>
      <trkpt lat="48.51381" lon="1.9432">
        <ele>116</ele>
        <time>2022-08-06T10:56:46Z</time>
      </trkpt>
      <trkpt lat="48.51382" lon="1.9431">
        <ele>115.9</ele>
        <time>2022-08-06T10:56:48Z</time>
      </trkpt>
      <trkpt lat="48.51384" lon="1.943">
        <ele>116</ele>
        <time>2022-08-06T10:56:50Z</time>
      </trkpt>
      <trkpt lat="48.51386" lon="1.94292">
        <ele>116</ele>
        <time>2022-08-06T10:56:52Z</time>
      </trkpt>
      <trkpt lat="48.51385" lon="1.94281">
        <ele>116.5</ele>
        <time>2022-08-06T10:56:54Z</time>
      </trkpt>
      <trkpt lat="48.51386" lon="1.9427">
        <ele>116.6</ele>
        <time>2022-08-06T10:56:56Z</time>
      </trkpt>
      <trkpt lat="48.51388" lon="1.94262">
        <ele>116.7</ele>
        <time>2022-08-06T10:56:58Z</time>
      </trkpt>
      <trkpt lat="48.51389" lon="1.94254">
        <ele>116.9</ele>
        <time>2022-08-06T10:57:00Z</time>
      </trkpt>
      <trkpt lat="48.51389" lon="1.94244">
        <ele>117.1</ele>
        <time>2022-08-06T10:57:02Z</time>
      </trkpt>
      <trkpt lat="48.51387" lon="1.94234">
        <ele>117.3</ele>
        <time>2022-08-06T10:57:04Z</time>
      </trkpt>
      <trkpt lat="48.51384" lon="1.94225">
        <ele>117.7</ele>
        <time>2022-08-06T10:57:06Z</time>
      </trkpt>
      <trkpt lat="48.5138" lon="1.94212">
        <ele>118.7</ele>
        <time>2022-08-06T10:57:10Z</time>
      </trkpt>
      <trkpt lat="48.51376" lon="1.94204">
        <ele>119.5</ele>
        <time>2022-08-06T10:57:12Z</time>
      </trkpt>
      <trkpt lat="48.51374" lon="1.94198">
        <ele>120.1</ele>
        <time>2022-08-06T10:57:14Z</time>
      </trkpt>
      <trkpt lat="48.51367" lon="1.94188">
        <ele>121.2</ele>
        <time>2022-08-06T10:57:18Z</time>
      </trkpt>
      <trkpt lat="48.51363" lon="1.94182">
        <ele>121.7</ele>
        <time>2022-08-06T10:57:20Z</time>
      </trkpt>
      <trkpt lat="48.51359" lon="1.94174">
        <ele>122.3</ele>
        <time>2022-08-06T10:57:22Z</time>
      </trkpt>
      <trkpt lat="48.51355" lon="1.94167">
        <ele>123.2</ele>
        <time>2022-08-06T10:57:24Z</time>
      </trkpt>
      <trkpt lat="48.51351" lon="1.94159">
        <ele>123.8</ele>
        <time>2022-08-06T10:57:26Z</time>
      </trkpt>
      <trkpt lat="48.51348" lon="1.94152">
        <ele>124.4</ele>
        <time>2022-08-06T10:57:28Z</time>
      </trkpt>
      <trkpt lat="48.51345" lon="1.94146">
        <ele>125</ele>
        <time>2022-08-06T10:57:30Z</time>
      </trkpt>
      <trkpt lat="48.51341" lon="1.9414">
        <ele>125.6</ele>
        <time>2022-08-06T10:57:32Z</time>
      </trkpt>
      <trkpt lat="48.51338" lon="1.94134">
        <ele>126</ele>
        <time>2022-08-06T10:57:34Z</time>
      </trkpt>
      <trkpt lat="48.51333" lon="1.94128">
        <ele>126.6</ele>
        <time>2022-08-06T10:57:36Z</time>
      </trkpt>
      <trkpt lat="48.5133" lon="1.94123">
        <ele>127</ele>
        <time>2022-08-06T10:57:38Z</time>
      </trkpt>
      <trkpt lat="48.51328" lon="1.94117">
        <ele>127.2</ele>
        <time>2022-08-06T10:57:40Z</time>
      </trkpt>
      <trkpt lat="48.51324" lon="1.94111">
        <ele>127.7</ele>
        <time>2022-08-06T10:57:42Z</time>
      </trkpt>
      <trkpt lat="48.5132" lon="1.94105">
        <ele>128</ele>
        <time>2022-08-06T10:57:44Z</time>
      </trkpt>
      <trkpt lat="48.51317" lon="1.94097">
        <ele>128.2</ele>
        <time>2022-08-06T10:57:46Z</time>
      </trkpt>
      <trkpt lat="48.51314" lon="1.9409">
        <ele>128.3</ele>
        <time>2022-08-06T10:57:48Z</time>
      </trkpt>
      <trkpt lat="48.5131" lon="1.94084">
        <ele>128.4</ele>
        <time>2022-08-06T10:57:50Z</time>
      </trkpt>
      <trkpt lat="48.51306" lon="1.94075">
        <ele>128.3</ele>
        <time>2022-08-06T10:57:52Z</time>
      </trkpt>
      <trkpt lat="48.51303" lon="1.94067">
        <ele>128.3</ele>
        <time>2022-08-06T10:57:54Z</time>
      </trkpt>
      <trkpt lat="48.513" lon="1.9406">
        <ele>128.1</ele>
        <time>2022-08-06T10:57:56Z</time>
      </trkpt>
      <trkpt lat="48.51298" lon="1.94052">
        <ele>127.9</ele>
        <time>2022-08-06T10:57:58Z</time>
      </trkpt>
      <trkpt lat="48.51293" lon="1.94044">
        <ele>127.7</ele>
        <time>2022-08-06T10:58:00Z</time>
      </trkpt>
      <trkpt lat="48.5129" lon="1.94035">
        <ele>127.4</ele>
        <time>2022-08-06T10:58:02Z</time>
      </trkpt>
      <trkpt lat="48.51285" lon="1.94024">
        <ele>127.1</ele>
        <time>2022-08-06T10:58:04Z</time>
      </trkpt>
      <trkpt lat="48.5128" lon="1.94011">
        <ele>127.1</ele>
        <time>2022-08-06T10:58:06Z</time>
      </trkpt>
      <trkpt lat="48.51277" lon="1.94001">
        <ele>127.1</ele>
        <time>2022-08-06T10:58:08Z</time>
      </trkpt>
      <trkpt lat="48.51275" lon="1.93989">
        <ele>127.3</ele>
        <time>2022-08-06T10:58:10Z</time>
      </trkpt>
      <trkpt lat="48.51272" lon="1.93979">
        <ele>127.5</ele>
        <time>2022-08-06T10:58:12Z</time>
      </trkpt>
      <trkpt lat="48.5127" lon="1.93972">
        <ele>127.8</ele>
        <time>2022-08-06T10:58:14Z</time>
      </trkpt>
      <trkpt lat="48.51269" lon="1.93964">
        <ele>128.1</ele>
        <time>2022-08-06T10:58:16Z</time>
      </trkpt>
      <trkpt lat="48.51267" lon="1.93955">
        <ele>128.4</ele>
        <time>2022-08-06T10:58:18Z</time>
      </trkpt>
      <trkpt lat="48.51264" lon="1.93944">
        <ele>129</ele>
        <time>2022-08-06T10:58:20Z</time>
      </trkpt>
      <trkpt lat="48.51261" lon="1.93935">
        <ele>129.3</ele>
        <time>2022-08-06T10:58:22Z</time>
      </trkpt>
      <trkpt lat="48.51259" lon="1.93925">
        <ele>129.5</ele>
        <time>2022-08-06T10:58:24Z</time>
      </trkpt>
      <trkpt lat="48.51258" lon="1.93917">
        <ele>129.6</ele>
        <time>2022-08-06T10:58:26Z</time>
      </trkpt>
      <trkpt lat="48.51256" lon="1.93909">
        <ele>129.4</ele>
        <time>2022-08-06T10:58:28Z</time>
      </trkpt>
      <trkpt lat="48.51254" lon="1.93897">
        <ele>128.9</ele>
        <time>2022-08-06T10:58:30Z</time>
      </trkpt>
      <trkpt lat="48.51251" lon="1.93882">
        <ele>128.1</ele>
        <time>2022-08-06T10:58:32Z</time>
      </trkpt>
      <trkpt lat="48.51248" lon="1.93866">
        <ele>126.8</ele>
        <time>2022-08-06T10:58:34Z</time>
      </trkpt>
      <trkpt lat="48.51243" lon="1.93848">
        <ele>125.2</ele>
        <time>2022-08-06T10:58:36Z</time>
      </trkpt>
      <trkpt lat="48.51238" lon="1.93835">
        <ele>124.1</ele>
        <time>2022-08-06T10:58:38Z</time>
      </trkpt>
      <trkpt lat="48.51229" lon="1.93824">
        <ele>123.5</ele>
        <time>2022-08-06T10:58:40Z</time>
      </trkpt>
      <trkpt lat="48.5122" lon="1.93808">
        <ele>122.5</ele>
        <time>2022-08-06T10:58:42Z</time>
      </trkpt>
      <trkpt lat="48.51214" lon="1.93792">
        <ele>121.1</ele>
        <time>2022-08-06T10:58:44Z</time>
      </trkpt>
      <trkpt lat="48.51208" lon="1.93777">
        <ele>120</ele>
        <time>2022-08-06T10:58:46Z</time>
      </trkpt>
      <trkpt lat="48.51203" lon="1.93763">
        <ele>119.7</ele>
        <time>2022-08-06T10:58:48Z</time>
      </trkpt>
      <trkpt lat="48.51198" lon="1.93749">
        <ele>119.5</ele>
        <time>2022-08-06T10:58:50Z</time>
      </trkpt>
      <trkpt lat="48.51193" lon="1.93738">
        <ele>119.3</ele>
        <time>2022-08-06T10:58:52Z</time>
      </trkpt>
      <trkpt lat="48.5119" lon="1.93725">
        <ele>119.1</ele>
        <time>2022-08-06T10:58:54Z</time>
      </trkpt>
      <trkpt lat="48.51185" lon="1.93711">
        <ele>119.3</ele>
        <time>2022-08-06T10:58:56Z</time>
      </trkpt>
      <trkpt lat="48.51181" lon="1.93699">
        <ele>119.5</ele>
        <time>2022-08-06T10:58:58Z</time>
      </trkpt>
      <trkpt lat="48.51177" lon="1.93686">
        <ele>119.9</ele>
        <time>2022-08-06T10:59:00Z</time>
      </trkpt>
      <trkpt lat="48.51173" lon="1.93671">
        <ele>120.3</ele>
        <time>2022-08-06T10:59:02Z</time>
      </trkpt>
      <trkpt lat="48.51169" lon="1.93657">
        <ele>120</ele>
        <time>2022-08-06T10:59:04Z</time>
      </trkpt>
      <trkpt lat="48.51167" lon="1.93644">
        <ele>119.3</ele>
        <time>2022-08-06T10:59:06Z</time>
      </trkpt>
      <trkpt lat="48.51163" lon="1.93633">
        <ele>119.6</ele>
        <time>2022-08-06T10:59:08Z</time>
      </trkpt>
      <trkpt lat="48.51161" lon="1.93623">
        <ele>119.7</ele>
        <time>2022-08-06T10:59:10Z</time>
      </trkpt>
      <trkpt lat="48.51156" lon="1.9361">
        <ele>119.8</ele>
        <time>2022-08-06T10:59:12Z</time>
      </trkpt>
      <trkpt lat="48.51152" lon="1.93596">
        <ele>119.6</ele>
        <time>2022-08-06T10:59:14Z</time>
      </trkpt>
      <trkpt lat="48.51147" lon="1.93583">
        <ele>119.1</ele>
        <time>2022-08-06T10:59:16Z</time>
      </trkpt>
      <trkpt lat="48.51143" lon="1.9357">
        <ele>119.2</ele>
        <time>2022-08-06T10:59:18Z</time>
      </trkpt>
      <trkpt lat="48.51142" lon="1.93559">
        <ele>118.9</ele>
        <time>2022-08-06T10:59:20Z</time>
      </trkpt>
      <trkpt lat="48.5114" lon="1.93547">
        <ele>118.6</ele>
        <time>2022-08-06T10:59:22Z</time>
      </trkpt>
      <trkpt lat="48.5114" lon="1.93536">
        <ele>118.2</ele>
        <time>2022-08-06T10:59:24Z</time>
      </trkpt>
      <trkpt lat="48.51138" lon="1.93526">
        <ele>118.1</ele>
        <time>2022-08-06T10:59:26Z</time>
      </trkpt>
      <trkpt lat="48.51136" lon="1.93516">
        <ele>118.4</ele>
        <time>2022-08-06T10:59:28Z</time>
      </trkpt>
      <trkpt lat="48.51134" lon="1.93506">
        <ele>118.8</ele>
        <time>2022-08-06T10:59:30Z</time>
      </trkpt>
      <trkpt lat="48.5113" lon="1.93493">
        <ele>119.2</ele>
        <time>2022-08-06T10:59:32Z</time>
      </trkpt>
      <trkpt lat="48.51128" lon="1.93483">
        <ele>119.6</ele>
        <time>2022-08-06T10:59:34Z</time>
      </trkpt>
      <trkpt lat="48.51124" lon="1.9347">
        <ele>120</ele>
        <time>2022-08-06T10:59:36Z</time>
      </trkpt>
      <trkpt lat="48.51122" lon="1.93459">
        <ele>120.2</ele>
        <time>2022-08-06T10:59:38Z</time>
      </trkpt>
      <trkpt lat="48.51121" lon="1.93452">
        <ele>120</ele>
        <time>2022-08-06T10:59:40Z</time>
      </trkpt>
      <trkpt lat="48.51119" lon="1.93443">
        <ele>120</ele>
        <time>2022-08-06T10:59:42Z</time>
      </trkpt>
      <trkpt lat="48.51116" lon="1.93433">
        <ele>120.1</ele>
        <time>2022-08-06T10:59:44Z</time>
      </trkpt>
      <trkpt lat="48.51113" lon="1.93423">
        <ele>120</ele>
        <time>2022-08-06T10:59:46Z</time>
      </trkpt>
      <trkpt lat="48.5111" lon="1.93413">
        <ele>120.3</ele>
        <time>2022-08-06T10:59:48Z</time>
      </trkpt>
      <trkpt lat="48.51107" lon="1.93404">
        <ele>120.7</ele>
        <time>2022-08-06T10:59:50Z</time>
      </trkpt>
      <trkpt lat="48.51105" lon="1.93396">
        <ele>121.1</ele>
        <time>2022-08-06T10:59:52Z</time>
      </trkpt>
      <trkpt lat="48.51101" lon="1.93386">
        <ele>121.6</ele>
        <time>2022-08-06T10:59:54Z</time>
      </trkpt>
      <trkpt lat="48.51098" lon="1.93377">
        <ele>121.9</ele>
        <time>2022-08-06T10:59:56Z</time>
      </trkpt>
      <trkpt lat="48.51095" lon="1.93369">
        <ele>122.2</ele>
        <time>2022-08-06T10:59:58Z</time>
      </trkpt>
      <trkpt lat="48.51092" lon="1.93358">
        <ele>122.4</ele>
        <time>2022-08-06T11:00:02Z</time>
      </trkpt>
      <trkpt lat="48.51089" lon="1.93346">
        <ele>122.9</ele>
        <time>2022-08-06T11:00:06Z</time>
      </trkpt>
      <trkpt lat="48.51088" lon="1.93339">
        <ele>123.1</ele>
        <time>2022-08-06T11:00:08Z</time>
      </trkpt>
      <trkpt lat="48.51087" lon="1.93331">
        <ele>123.3</ele>
        <time>2022-08-06T11:00:10Z</time>
      </trkpt>
      <trkpt lat="48.51086" lon="1.93323">
        <ele>123.5</ele>
        <time>2022-08-06T11:00:12Z</time>
      </trkpt>
      <trkpt lat="48.51084" lon="1.93311">
        <ele>123.8</ele>
        <time>2022-08-06T11:00:16Z</time>
      </trkpt>
      <trkpt lat="48.51083" lon="1.93302">
        <ele>124</ele>
        <time>2022-08-06T11:00:18Z</time>
      </trkpt>
      <trkpt lat="48.51083" lon="1.93295">
        <ele>124</ele>
        <time>2022-08-06T11:00:20Z</time>
      </trkpt>
      <trkpt lat="48.51081" lon="1.93285">
        <ele>124.5</ele>
        <time>2022-08-06T11:00:24Z</time>
      </trkpt>
      <trkpt lat="48.51081" lon="1.93275">
        <ele>124.4</ele>
        <time>2022-08-06T11:00:26Z</time>
      </trkpt>
      <trkpt lat="48.51082" lon="1.93264">
        <ele>123.9</ele>
        <time>2022-08-06T11:00:28Z</time>
      </trkpt>
      <trkpt lat="48.5108" lon="1.9325">
        <ele>123.7</ele>
        <time>2022-08-06T11:00:30Z</time>
      </trkpt>
      <trkpt lat="48.51077" lon="1.93231">
        <ele>123.8</ele>
        <time>2022-08-06T11:00:32Z</time>
      </trkpt>
      <trkpt lat="48.51073" lon="1.93217">
        <ele>123.8</ele>
        <time>2022-08-06T11:00:34Z</time>
      </trkpt>
      <trkpt lat="48.51067" lon="1.93202">
        <ele>123.7</ele>
        <time>2022-08-06T11:00:36Z</time>
      </trkpt>
      <trkpt lat="48.51062" lon="1.93187">
        <ele>123.2</ele>
        <time>2022-08-06T11:00:38Z</time>
      </trkpt>
      <trkpt lat="48.51054" lon="1.93176">
        <ele>123.3</ele>
        <time>2022-08-06T11:00:40Z</time>
      </trkpt>
      <trkpt lat="48.51046" lon="1.93167">
        <ele>123.8</ele>
        <time>2022-08-06T11:00:42Z</time>
      </trkpt>
      <trkpt lat="48.51036" lon="1.93161">
        <ele>124.7</ele>
        <time>2022-08-06T11:00:44Z</time>
      </trkpt>
      <trkpt lat="48.51026" lon="1.93154">
        <ele>125.3</ele>
        <time>2022-08-06T11:00:46Z</time>
      </trkpt>
      <trkpt lat="48.51015" lon="1.93147">
        <ele>124.8</ele>
        <time>2022-08-06T11:00:48Z</time>
      </trkpt>
      <trkpt lat="48.51004" lon="1.93141">
        <ele>124.3</ele>
        <time>2022-08-06T11:00:50Z</time>
      </trkpt>
      <trkpt lat="48.50997" lon="1.93136">
        <ele>123.6</ele>
        <time>2022-08-06T11:00:52Z</time>
      </trkpt>
      <trkpt lat="48.50988" lon="1.93131">
        <ele>123</ele>
        <time>2022-08-06T11:00:54Z</time>
      </trkpt>
      <trkpt lat="48.5098" lon="1.93122">
        <ele>122</ele>
        <time>2022-08-06T11:00:56Z</time>
      </trkpt>
      <trkpt lat="48.50974" lon="1.9311">
        <ele>120.9</ele>
        <time>2022-08-06T11:00:58Z</time>
      </trkpt>
      <trkpt lat="48.5097" lon="1.93101">
        <ele>120.2</ele>
        <time>2022-08-06T11:01:00Z</time>
      </trkpt>
      <trkpt lat="48.50965" lon="1.93087">
        <ele>119.2</ele>
        <time>2022-08-06T11:01:04Z</time>
      </trkpt>
      <trkpt lat="48.50962" lon="1.93076">
        <ele>118.8</ele>
        <time>2022-08-06T11:01:06Z</time>
      </trkpt>
      <trkpt lat="48.5096" lon="1.9307">
        <ele>118.7</ele>
        <time>2022-08-06T11:01:08Z</time>
      </trkpt>
      <trkpt lat="48.50956" lon="1.9306">
        <ele>118.6</ele>
        <time>2022-08-06T11:01:10Z</time>
      </trkpt>
      <trkpt lat="48.50951" lon="1.93051">
        <ele>118.8</ele>
        <time>2022-08-06T11:01:12Z</time>
      </trkpt>
      <trkpt lat="48.50945" lon="1.93042">
        <ele>119</ele>
        <time>2022-08-06T11:01:14Z</time>
      </trkpt>
      <trkpt lat="48.50941" lon="1.93035">
        <ele>118.9</ele>
        <time>2022-08-06T11:01:16Z</time>
      </trkpt>
      <trkpt lat="48.50938" lon="1.93028">
        <ele>118.8</ele>
        <time>2022-08-06T11:01:18Z</time>
      </trkpt>
      <trkpt lat="48.5093" lon="1.9302">
        <ele>118.6</ele>
        <time>2022-08-06T11:01:22Z</time>
      </trkpt>
      <trkpt lat="48.50928" lon="1.93011">
        <ele>118.8</ele>
        <time>2022-08-06T11:01:26Z</time>
      </trkpt>
      <trkpt lat="48.50927" lon="1.93002">
        <ele>118.9</ele>
        <time>2022-08-06T11:01:28Z</time>
      </trkpt>
      <trkpt lat="48.50929" lon="1.92994">
        <ele>119.2</ele>
        <time>2022-08-06T11:01:30Z</time>
      </trkpt>
      <trkpt lat="48.50932" lon="1.92985">
        <ele>119.5</ele>
        <time>2022-08-06T11:01:32Z</time>
      </trkpt>
      <trkpt lat="48.50932" lon="1.92975">
        <ele>119.9</ele>
        <time>2022-08-06T11:01:34Z</time>
      </trkpt>
      <trkpt lat="48.50936" lon="1.92966">
        <ele>120.5</ele>
        <time>2022-08-06T11:01:36Z</time>
      </trkpt>
      <trkpt lat="48.50939" lon="1.92958">
        <ele>121</ele>
        <time>2022-08-06T11:01:38Z</time>
      </trkpt>
      <trkpt lat="48.50943" lon="1.92951">
        <ele>121.6</ele>
        <time>2022-08-06T11:01:40Z</time>
      </trkpt>
      <trkpt lat="48.50946" lon="1.92944">
        <ele>122</ele>
        <time>2022-08-06T11:01:42Z</time>
      </trkpt>
      <trkpt lat="48.50948" lon="1.92938">
        <ele>122.5</ele>
        <time>2022-08-06T11:01:44Z</time>
      </trkpt>
      <trkpt lat="48.5095" lon="1.92932">
        <ele>122.9</ele>
        <time>2022-08-06T11:01:46Z</time>
      </trkpt>
      <trkpt lat="48.50956" lon="1.92921">
        <ele>123.7</ele>
        <time>2022-08-06T11:01:50Z</time>
      </trkpt>
      <trkpt lat="48.5096" lon="1.92917">
        <ele>124</ele>
        <time>2022-08-06T11:01:52Z</time>
      </trkpt>
      <trkpt lat="48.50966" lon="1.92915">
        <ele>124.1</ele>
        <time>2022-08-06T11:01:54Z</time>
      </trkpt>
      <trkpt lat="48.50975" lon="1.92913">
        <ele>124.3</ele>
        <time>2022-08-06T11:01:58Z</time>
      </trkpt>
      <trkpt lat="48.50981" lon="1.92907">
        <ele>125</ele>
        <time>2022-08-06T11:02:02Z</time>
      </trkpt>
      <trkpt lat="48.50984" lon="1.92897">
        <ele>125.8</ele>
        <time>2022-08-06T11:02:06Z</time>
      </trkpt>
      <trkpt lat="48.50985" lon="1.92889">
        <ele>126.4</ele>
        <time>2022-08-06T11:02:10Z</time>
      </trkpt>
      <trkpt lat="48.50985" lon="1.9288">
        <ele>127</ele>
        <time>2022-08-06T11:02:16Z</time>
      </trkpt>
      <trkpt lat="48.50988" lon="1.92872">
        <ele>127.5</ele>
        <time>2022-08-06T11:02:20Z</time>
      </trkpt>
      <trkpt lat="48.50993" lon="1.92865">
        <ele>127.8</ele>
        <time>2022-08-06T11:02:24Z</time>
      </trkpt>
      <trkpt lat="48.51001" lon="1.92864">
        <ele>127.9</ele>
        <time>2022-08-06T11:02:28Z</time>
      </trkpt>
      <trkpt lat="48.5101" lon="1.92867">
        <ele>127.8</ele>
        <time>2022-08-06T11:02:32Z</time>
      </trkpt>
      <trkpt lat="48.51013" lon="1.92862">
        <ele>128</ele>
        <time>2022-08-06T11:04:48Z</time>
      </trkpt>
      <trkpt lat="48.51016" lon="1.92851">
        <ele>127.8</ele>
        <time>2022-08-06T11:04:54Z</time>
      </trkpt>
      <trkpt lat="48.51014" lon="1.92841">
        <ele>127.6</ele>
        <time>2022-08-06T11:04:56Z</time>
      </trkpt>
      <trkpt lat="48.51012" lon="1.9283">
        <ele>127.4</ele>
        <time>2022-08-06T11:04:58Z</time>
      </trkpt>
      <trkpt lat="48.51009" lon="1.92819">
        <ele>127</ele>
        <time>2022-08-06T11:05:00Z</time>
      </trkpt>
      <trkpt lat="48.51006" lon="1.92807">
        <ele>126.5</ele>
        <time>2022-08-06T11:05:02Z</time>
      </trkpt>
      <trkpt lat="48.51002" lon="1.92794">
        <ele>125.8</ele>
        <time>2022-08-06T11:05:04Z</time>
      </trkpt>
      <trkpt lat="48.50999" lon="1.92781">
        <ele>125.1</ele>
        <time>2022-08-06T11:05:06Z</time>
      </trkpt>
      <trkpt lat="48.50997" lon="1.92773">
        <ele>125</ele>
        <time>2022-08-06T11:05:08Z</time>
      </trkpt>
      <trkpt lat="48.50993" lon="1.92769">
        <ele>124.9</ele>
        <time>2022-08-06T11:05:10Z</time>
      </trkpt>
      <trkpt lat="48.50989" lon="1.92767">
        <ele>124.8</ele>
        <time>2022-08-06T11:05:12Z</time>
      </trkpt>
      <trkpt lat="48.50979" lon="1.92771">
        <ele>124.8</ele>
        <time>2022-08-06T11:05:16Z</time>
      </trkpt>
      <trkpt lat="48.5097" lon="1.92777">
        <ele>125</ele>
        <time>2022-08-06T11:05:20Z</time>
      </trkpt>
      <trkpt lat="48.50965" lon="1.9278">
        <ele>125.2</ele>
        <time>2022-08-06T11:05:22Z</time>
      </trkpt>
      <trkpt lat="48.50959" lon="1.92784">
        <ele>125.6</ele>
        <time>2022-08-06T11:05:26Z</time>
      </trkpt>
      <trkpt lat="48.50952" lon="1.92788">
        <ele>126</ele>
        <time>2022-08-06T11:05:30Z</time>
      </trkpt>
      <trkpt lat="48.50947" lon="1.9279">
        <ele>126.3</ele>
        <time>2022-08-06T11:05:34Z</time>
      </trkpt>
      <trkpt lat="48.50947" lon="1.92797">
        <ele>127</ele>
        <time>2022-08-06T11:06:12Z</time>
      </trkpt>
      <trkpt lat="48.50952" lon="1.92793">
        <ele>126.5</ele>
        <time>2022-08-06T11:06:28Z</time>
      </trkpt>
      <trkpt lat="48.50958" lon="1.92786">
        <ele>125.7</ele>
        <time>2022-08-06T11:06:32Z</time>
      </trkpt>
      <trkpt lat="48.50964" lon="1.92783">
        <ele>125.4</ele>
        <time>2022-08-06T11:06:34Z</time>
      </trkpt>
      <trkpt lat="48.50973" lon="1.9278">
        <ele>125.1</ele>
        <time>2022-08-06T11:06:36Z</time>
      </trkpt>
      <trkpt lat="48.50981" lon="1.92775">
        <ele>124.9</ele>
        <time>2022-08-06T11:06:38Z</time>
      </trkpt>
      <trkpt lat="48.50987" lon="1.92771">
        <ele>124.9</ele>
        <time>2022-08-06T11:06:40Z</time>
      </trkpt>
      <trkpt lat="48.50991" lon="1.92763">
        <ele>124.8</ele>
        <time>2022-08-06T11:06:44Z</time>
      </trkpt>
      <trkpt lat="48.50992" lon="1.92754">
        <ele>124.7</ele>
        <time>2022-08-06T11:06:46Z</time>
      </trkpt>
      <trkpt lat="48.5099" lon="1.92742">
        <ele>124.5</ele>
        <time>2022-08-06T11:06:48Z</time>
      </trkpt>
      <trkpt lat="48.50988" lon="1.9273">
        <ele>124.2</ele>
        <time>2022-08-06T11:06:50Z</time>
      </trkpt>
      <trkpt lat="48.50986" lon="1.9272">
        <ele>124</ele>
        <time>2022-08-06T11:06:52Z</time>
      </trkpt>
      <trkpt lat="48.50983" lon="1.92713">
        <ele>123.9</ele>
        <time>2022-08-06T11:06:56Z</time>
      </trkpt>
      <trkpt lat="48.50983" lon="1.92723">
        <ele>123.8</ele>
        <time>2022-08-06T11:07:00Z</time>
      </trkpt>
      <trkpt lat="48.50984" lon="1.92732">
        <ele>124.1</ele>
        <time>2022-08-06T11:07:04Z</time>
      </trkpt>
      <trkpt lat="48.50989" lon="1.92737">
        <ele>124.4</ele>
        <time>2022-08-06T11:07:22Z</time>
      </trkpt>
      <trkpt lat="48.50989" lon="1.92729">
        <ele>124.3</ele>
        <time>2022-08-06T11:07:26Z</time>
      </trkpt>
      <trkpt lat="48.50987" lon="1.92722">
        <ele>124</ele>
        <time>2022-08-06T11:07:30Z</time>
      </trkpt>
      <trkpt lat="48.50985" lon="1.92711">
        <ele>124.1</ele>
        <time>2022-08-06T11:07:50Z</time>
      </trkpt>
      <trkpt lat="48.50984" lon="1.92701">
        <ele>124.2</ele>
        <time>2022-08-06T11:07:52Z</time>
      </trkpt>
      <trkpt lat="48.50983" lon="1.92689">
        <ele>124.1</ele>
        <time>2022-08-06T11:07:54Z</time>
      </trkpt>
      <trkpt lat="48.50981" lon="1.92677">
        <ele>123.7</ele>
        <time>2022-08-06T11:07:56Z</time>
      </trkpt>
      <trkpt lat="48.50978" lon="1.92664">
        <ele>123.2</ele>
        <time>2022-08-06T11:07:58Z</time>
      </trkpt>
      <trkpt lat="48.50976" lon="1.92652">
        <ele>123.2</ele>
        <time>2022-08-06T11:08:00Z</time>
      </trkpt>
      <trkpt lat="48.50973" lon="1.92638">
        <ele>123.2</ele>
        <time>2022-08-06T11:08:02Z</time>
      </trkpt>
      <trkpt lat="48.50971" lon="1.92625">
        <ele>122.9</ele>
        <time>2022-08-06T11:08:04Z</time>
      </trkpt>
      <trkpt lat="48.50968" lon="1.92611">
        <ele>122.7</ele>
        <time>2022-08-06T11:08:06Z</time>
      </trkpt>
      <trkpt lat="48.50966" lon="1.92598">
        <ele>123</ele>
        <time>2022-08-06T11:08:08Z</time>
      </trkpt>
      <trkpt lat="48.50964" lon="1.92584">
        <ele>123.4</ele>
        <time>2022-08-06T11:08:10Z</time>
      </trkpt>
      <trkpt lat="48.50963" lon="1.9257">
        <ele>123.7</ele>
        <time>2022-08-06T11:08:12Z</time>
      </trkpt>
      <trkpt lat="48.50964" lon="1.92556">
        <ele>124.1</ele>
        <time>2022-08-06T11:08:14Z</time>
      </trkpt>
      <trkpt lat="48.50965" lon="1.92544">
        <ele>124.7</ele>
        <time>2022-08-06T11:08:16Z</time>
      </trkpt>
      <trkpt lat="48.50967" lon="1.92534">
        <ele>125.4</ele>
        <time>2022-08-06T11:08:18Z</time>
      </trkpt>
      <trkpt lat="48.5097" lon="1.92524">
        <ele>125.9</ele>
        <time>2022-08-06T11:08:20Z</time>
      </trkpt>
      <trkpt lat="48.50972" lon="1.92512">
        <ele>126</ele>
        <time>2022-08-06T11:08:22Z</time>
      </trkpt>
      <trkpt lat="48.50974" lon="1.925">
        <ele>126.2</ele>
        <time>2022-08-06T11:08:24Z</time>
      </trkpt>
      <trkpt lat="48.50974" lon="1.92487">
        <ele>125.7</ele>
        <time>2022-08-06T11:08:26Z</time>
      </trkpt>
      <trkpt lat="48.50973" lon="1.92475">
        <ele>125.1</ele>
        <time>2022-08-06T11:08:28Z</time>
      </trkpt>
      <trkpt lat="48.5097" lon="1.92464">
        <ele>125.2</ele>
        <time>2022-08-06T11:08:30Z</time>
      </trkpt>
      <trkpt lat="48.50965" lon="1.92454">
        <ele>125.4</ele>
        <time>2022-08-06T11:08:32Z</time>
      </trkpt>
      <trkpt lat="48.5096" lon="1.92445">
        <ele>125.4</ele>
        <time>2022-08-06T11:08:34Z</time>
      </trkpt>
      <trkpt lat="48.50957" lon="1.92434">
        <ele>125.5</ele>
        <time>2022-08-06T11:08:36Z</time>
      </trkpt>
      <trkpt lat="48.50955" lon="1.92422">
        <ele>125.4</ele>
        <time>2022-08-06T11:08:38Z</time>
      </trkpt>
      <trkpt lat="48.50954" lon="1.92408">
        <ele>125.3</ele>
        <time>2022-08-06T11:08:40Z</time>
      </trkpt>
      <trkpt lat="48.50953" lon="1.92395">
        <ele>125</ele>
        <time>2022-08-06T11:08:42Z</time>
      </trkpt>
      <trkpt lat="48.50952" lon="1.92382">
        <ele>125</ele>
        <time>2022-08-06T11:08:44Z</time>
      </trkpt>
      <trkpt lat="48.50951" lon="1.9237">
        <ele>125.4</ele>
        <time>2022-08-06T11:08:46Z</time>
      </trkpt>
      <trkpt lat="48.50949" lon="1.92357">
        <ele>125.5</ele>
        <time>2022-08-06T11:08:48Z</time>
      </trkpt>
      <trkpt lat="48.50948" lon="1.92347">
        <ele>125.4</ele>
        <time>2022-08-06T11:08:50Z</time>
      </trkpt>
      <trkpt lat="48.50946" lon="1.92335">
        <ele>125.2</ele>
        <time>2022-08-06T11:08:52Z</time>
      </trkpt>
      <trkpt lat="48.50944" lon="1.92322">
        <ele>125</ele>
        <time>2022-08-06T11:08:54Z</time>
      </trkpt>
      <trkpt lat="48.50942" lon="1.92307">
        <ele>124.9</ele>
        <time>2022-08-06T11:08:56Z</time>
      </trkpt>
      <trkpt lat="48.5094" lon="1.92291">
        <ele>124.9</ele>
        <time>2022-08-06T11:08:58Z</time>
      </trkpt>
      <trkpt lat="48.50939" lon="1.92275">
        <ele>124.8</ele>
        <time>2022-08-06T11:09:00Z</time>
      </trkpt>
      <trkpt lat="48.50937" lon="1.92261">
        <ele>125</ele>
        <time>2022-08-06T11:09:02Z</time>
      </trkpt>
      <trkpt lat="48.50936" lon="1.92248">
        <ele>125.1</ele>
        <time>2022-08-06T11:09:04Z</time>
      </trkpt>
      <trkpt lat="48.50935" lon="1.92233">
        <ele>125.4</ele>
        <time>2022-08-06T11:09:06Z</time>
      </trkpt>
      <trkpt lat="48.50934" lon="1.92219">
        <ele>125.7</ele>
        <time>2022-08-06T11:09:08Z</time>
      </trkpt>
      <trkpt lat="48.50933" lon="1.92206">
        <ele>125.9</ele>
        <time>2022-08-06T11:09:10Z</time>
      </trkpt>
      <trkpt lat="48.50932" lon="1.92195">
        <ele>126.2</ele>
        <time>2022-08-06T11:09:12Z</time>
      </trkpt>
      <trkpt lat="48.50931" lon="1.92186">
        <ele>126.2</ele>
        <time>2022-08-06T11:09:14Z</time>
      </trkpt>
      <trkpt lat="48.50931" lon="1.92175">
        <ele>126.4</ele>
        <time>2022-08-06T11:09:16Z</time>
      </trkpt>
      <trkpt lat="48.5093" lon="1.92164">
        <ele>126.6</ele>
        <time>2022-08-06T11:09:18Z</time>
      </trkpt>
      <trkpt lat="48.50929" lon="1.92153">
        <ele>126.8</ele>
        <time>2022-08-06T11:09:20Z</time>
      </trkpt>
      <trkpt lat="48.50929" lon="1.92142">
        <ele>127</ele>
        <time>2022-08-06T11:09:22Z</time>
      </trkpt>
      <trkpt lat="48.50927" lon="1.92132">
        <ele>127</ele>
        <time>2022-08-06T11:09:24Z</time>
      </trkpt>
      <trkpt lat="48.50927" lon="1.92121">
        <ele>127</ele>
        <time>2022-08-06T11:09:26Z</time>
      </trkpt>
      <trkpt lat="48.50924" lon="1.92108">
        <ele>126.8</ele>
        <time>2022-08-06T11:09:28Z</time>
      </trkpt>
      <trkpt lat="48.50921" lon="1.92096">
        <ele>126.7</ele>
        <time>2022-08-06T11:09:30Z</time>
      </trkpt>
      <trkpt lat="48.5092" lon="1.92084">
        <ele>126.8</ele>
        <time>2022-08-06T11:09:32Z</time>
      </trkpt>
      <trkpt lat="48.50918" lon="1.92074">
        <ele>126.6</ele>
        <time>2022-08-06T11:09:34Z</time>
      </trkpt>
      <trkpt lat="48.50914" lon="1.92063">
        <ele>126.5</ele>
        <time>2022-08-06T11:09:36Z</time>
      </trkpt>
      <trkpt lat="48.5091" lon="1.92052">
        <ele>126.4</ele>
        <time>2022-08-06T11:09:38Z</time>
      </trkpt>
      <trkpt lat="48.50905" lon="1.92044">
        <ele>126</ele>
        <time>2022-08-06T11:09:40Z</time>
      </trkpt>
      <trkpt lat="48.50903" lon="1.92033">
        <ele>125.9</ele>
        <time>2022-08-06T11:09:42Z</time>
      </trkpt>
      <trkpt lat="48.50898" lon="1.92022">
        <ele>125.5</ele>
        <time>2022-08-06T11:09:44Z</time>
      </trkpt>
      <trkpt lat="48.50893" lon="1.9201">
        <ele>125.2</ele>
        <time>2022-08-06T11:09:46Z</time>
      </trkpt>
      <trkpt lat="48.50889" lon="1.91999">
        <ele>125.1</ele>
        <time>2022-08-06T11:09:48Z</time>
      </trkpt>
      <trkpt lat="48.50886" lon="1.91987">
        <ele>125.7</ele>
        <time>2022-08-06T11:09:50Z</time>
      </trkpt>
      <trkpt lat="48.50885" lon="1.91974">
        <ele>126.4</ele>
        <time>2022-08-06T11:09:52Z</time>
      </trkpt>
      <trkpt lat="48.50885" lon="1.91963">
        <ele>127.1</ele>
        <time>2022-08-06T11:09:54Z</time>
      </trkpt>
      <trkpt lat="48.50884" lon="1.91952">
        <ele>127.7</ele>
        <time>2022-08-06T11:09:56Z</time>
      </trkpt>
      <trkpt lat="48.50882" lon="1.9194">
        <ele>128</ele>
        <time>2022-08-06T11:09:58Z</time>
      </trkpt>
      <trkpt lat="48.5088" lon="1.9193">
        <ele>128</ele>
        <time>2022-08-06T11:10:00Z</time>
      </trkpt>
      <trkpt lat="48.50879" lon="1.91921">
        <ele>128.4</ele>
        <time>2022-08-06T11:10:02Z</time>
      </trkpt>
      <trkpt lat="48.5088" lon="1.91912">
        <ele>128.8</ele>
        <time>2022-08-06T11:10:04Z</time>
      </trkpt>
      <trkpt lat="48.50884" lon="1.91905">
        <ele>129.3</ele>
        <time>2022-08-06T11:10:06Z</time>
      </trkpt>
      <trkpt lat="48.50888" lon="1.91898">
        <ele>129.9</ele>
        <time>2022-08-06T11:10:08Z</time>
      </trkpt>
      <trkpt lat="48.50893" lon="1.91892">
        <ele>130.5</ele>
        <time>2022-08-06T11:10:10Z</time>
      </trkpt>
      <trkpt lat="48.50897" lon="1.91885">
        <ele>130.6</ele>
        <time>2022-08-06T11:10:12Z</time>
      </trkpt>
      <trkpt lat="48.50901" lon="1.91879">
        <ele>130.7</ele>
        <time>2022-08-06T11:10:14Z</time>
      </trkpt>
      <trkpt lat="48.50904" lon="1.91872">
        <ele>130.4</ele>
        <time>2022-08-06T11:10:16Z</time>
      </trkpt>
      <trkpt lat="48.5091" lon="1.91867">
        <ele>130.4</ele>
        <time>2022-08-06T11:10:20Z</time>
      </trkpt>
      <trkpt lat="48.50915" lon="1.91865">
        <ele>130.3</ele>
        <time>2022-08-06T11:10:22Z</time>
      </trkpt>
      <trkpt lat="48.50921" lon="1.91862">
        <ele>130.6</ele>
        <time>2022-08-06T11:10:24Z</time>
      </trkpt>
      <trkpt lat="48.50926" lon="1.91857">
        <ele>131.1</ele>
        <time>2022-08-06T11:10:26Z</time>
      </trkpt>
      <trkpt lat="48.50932" lon="1.91852">
        <ele>131.5</ele>
        <time>2022-08-06T11:10:28Z</time>
      </trkpt>
      <trkpt lat="48.50937" lon="1.91848">
        <ele>131.8</ele>
        <time>2022-08-06T11:10:30Z</time>
      </trkpt>
      <trkpt lat="48.50942" lon="1.91844">
        <ele>131.9</ele>
        <time>2022-08-06T11:10:32Z</time>
      </trkpt>
      <trkpt lat="48.50948" lon="1.9184">
        <ele>132.5</ele>
        <time>2022-08-06T11:10:34Z</time>
      </trkpt>
      <trkpt lat="48.50953" lon="1.91836">
        <ele>133.5</ele>
        <time>2022-08-06T11:10:36Z</time>
      </trkpt>
      <trkpt lat="48.50958" lon="1.91832">
        <ele>134.2</ele>
        <time>2022-08-06T11:10:38Z</time>
      </trkpt>
      <trkpt lat="48.50963" lon="1.91827">
        <ele>134.9</ele>
        <time>2022-08-06T11:10:40Z</time>
      </trkpt>
      <trkpt lat="48.50967" lon="1.91822">
        <ele>135.2</ele>
        <time>2022-08-06T11:10:42Z</time>
      </trkpt>
      <trkpt lat="48.50972" lon="1.91818">
        <ele>135.6</ele>
        <time>2022-08-06T11:10:44Z</time>
      </trkpt>
      <trkpt lat="48.50976" lon="1.91812">
        <ele>135.9</ele>
        <time>2022-08-06T11:10:46Z</time>
      </trkpt>
      <trkpt lat="48.50984" lon="1.91807">
        <ele>136.8</ele>
        <time>2022-08-06T11:10:50Z</time>
      </trkpt>
      <trkpt lat="48.50989" lon="1.91802">
        <ele>137.1</ele>
        <time>2022-08-06T11:10:52Z</time>
      </trkpt>
      <trkpt lat="48.50994" lon="1.918">
        <ele>137.9</ele>
        <time>2022-08-06T11:10:54Z</time>
      </trkpt>
      <trkpt lat="48.50999" lon="1.91797">
        <ele>138.3</ele>
        <time>2022-08-06T11:10:56Z</time>
      </trkpt>
      <trkpt lat="48.51003" lon="1.91795">
        <ele>138.7</ele>
        <time>2022-08-06T11:10:58Z</time>
      </trkpt>
      <trkpt lat="48.5101" lon="1.91792">
        <ele>139.1</ele>
        <time>2022-08-06T11:11:02Z</time>
      </trkpt>
      <trkpt lat="48.51016" lon="1.91789">
        <ele>139.5</ele>
        <time>2022-08-06T11:11:06Z</time>
      </trkpt>
      <trkpt lat="48.51024" lon="1.91787">
        <ele>140.3</ele>
        <time>2022-08-06T11:11:10Z</time>
      </trkpt>
      <trkpt lat="48.5103" lon="1.91785">
        <ele>140.9</ele>
        <time>2022-08-06T11:11:14Z</time>
      </trkpt>
      <trkpt lat="48.51037" lon="1.91785">
        <ele>141.5</ele>
        <time>2022-08-06T11:11:18Z</time>
      </trkpt>
      <trkpt lat="48.51043" lon="1.91785">
        <ele>142.2</ele>
        <time>2022-08-06T11:11:22Z</time>
      </trkpt>
      <trkpt lat="48.51048" lon="1.91785">
        <ele>143</ele>
        <time>2022-08-06T11:11:26Z</time>
      </trkpt>
      <trkpt lat="48.51054" lon="1.91785">
        <ele>143.5</ele>
        <time>2022-08-06T11:11:30Z</time>
      </trkpt>
      <trkpt lat="48.5106" lon="1.91782">
        <ele>143.7</ele>
        <time>2022-08-06T11:11:34Z</time>
      </trkpt>
      <trkpt lat="48.51066" lon="1.9178">
        <ele>144.1</ele>
        <time>2022-08-06T11:11:38Z</time>
      </trkpt>
      <trkpt lat="48.51072" lon="1.91776">
        <ele>144</ele>
        <time>2022-08-06T11:11:42Z</time>
      </trkpt>
      <trkpt lat="48.51077" lon="1.91774">
        <ele>144.1</ele>
        <time>2022-08-06T11:11:46Z</time>
      </trkpt>
      <trkpt lat="48.51083" lon="1.91771">
        <ele>144.5</ele>
        <time>2022-08-06T11:11:50Z</time>
      </trkpt>
      <trkpt lat="48.51088" lon="1.91768">
        <ele>144.5</ele>
        <time>2022-08-06T11:11:54Z</time>
      </trkpt>
      <trkpt lat="48.51093" lon="1.91766">
        <ele>144.9</ele>
        <time>2022-08-06T11:11:58Z</time>
      </trkpt>
      <trkpt lat="48.51099" lon="1.91763">
        <ele>145.1</ele>
        <time>2022-08-06T11:12:02Z</time>
      </trkpt>
      <trkpt lat="48.51106" lon="1.91761">
        <ele>145.6</ele>
        <time>2022-08-06T11:12:06Z</time>
      </trkpt>
      <trkpt lat="48.51113" lon="1.91758">
        <ele>146.1</ele>
        <time>2022-08-06T11:12:10Z</time>
      </trkpt>
      <trkpt lat="48.5112" lon="1.91755">
        <ele>146.7</ele>
        <time>2022-08-06T11:12:14Z</time>
      </trkpt>
      <trkpt lat="48.51127" lon="1.91753">
        <ele>147.5</ele>
        <time>2022-08-06T11:12:18Z</time>
      </trkpt>
      <trkpt lat="48.51135" lon="1.9175">
        <ele>148.3</ele>
        <time>2022-08-06T11:12:22Z</time>
      </trkpt>
      <trkpt lat="48.51142" lon="1.91747">
        <ele>148.9</ele>
        <time>2022-08-06T11:12:26Z</time>
      </trkpt>
      <trkpt lat="48.51149" lon="1.91745">
        <ele>149.9</ele>
        <time>2022-08-06T11:12:30Z</time>
      </trkpt>
      <trkpt lat="48.51158" lon="1.91743">
        <ele>151.5</ele>
        <time>2022-08-06T11:12:34Z</time>
      </trkpt>
      <trkpt lat="48.51163" lon="1.91743">
        <ele>152.5</ele>
        <time>2022-08-06T11:12:36Z</time>
      </trkpt>
      <trkpt lat="48.51168" lon="1.91743">
        <ele>153.2</ele>
        <time>2022-08-06T11:12:38Z</time>
      </trkpt>
      <trkpt lat="48.51173" lon="1.91743">
        <ele>153.9</ele>
        <time>2022-08-06T11:12:40Z</time>
      </trkpt>
      <trkpt lat="48.51181" lon="1.91748">
        <ele>155.5</ele>
        <time>2022-08-06T11:12:44Z</time>
      </trkpt>
      <trkpt lat="48.51189" lon="1.91753">
        <ele>156.7</ele>
        <time>2022-08-06T11:12:48Z</time>
      </trkpt>
      <trkpt lat="48.51193" lon="1.91756">
        <ele>157.1</ele>
        <time>2022-08-06T11:12:50Z</time>
      </trkpt>
      <trkpt lat="48.51198" lon="1.91759">
        <ele>157.3</ele>
        <time>2022-08-06T11:12:52Z</time>
      </trkpt>
      <trkpt lat="48.51203" lon="1.91762">
        <ele>157.4</ele>
        <time>2022-08-06T11:12:54Z</time>
      </trkpt>
      <trkpt lat="48.51209" lon="1.91766">
        <ele>157.6</ele>
        <time>2022-08-06T11:12:56Z</time>
      </trkpt>
      <trkpt lat="48.51214" lon="1.9177">
        <ele>157.7</ele>
        <time>2022-08-06T11:12:58Z</time>
      </trkpt>
      <trkpt lat="48.5122" lon="1.91774">
        <ele>157.9</ele>
        <time>2022-08-06T11:13:00Z</time>
      </trkpt>
      <trkpt lat="48.51225" lon="1.91779">
        <ele>158</ele>
        <time>2022-08-06T11:13:02Z</time>
      </trkpt>
      <trkpt lat="48.51231" lon="1.91783">
        <ele>158</ele>
        <time>2022-08-06T11:13:04Z</time>
      </trkpt>
      <trkpt lat="48.51236" lon="1.91787">
        <ele>158</ele>
        <time>2022-08-06T11:13:06Z</time>
      </trkpt>
      <trkpt lat="48.51241" lon="1.91792">
        <ele>158</ele>
        <time>2022-08-06T11:13:08Z</time>
      </trkpt>
      <trkpt lat="48.51246" lon="1.91796">
        <ele>158</ele>
        <time>2022-08-06T11:13:10Z</time>
      </trkpt>
      <trkpt lat="48.51251" lon="1.918">
        <ele>158</ele>
        <time>2022-08-06T11:13:12Z</time>
      </trkpt>
      <trkpt lat="48.51256" lon="1.91805">
        <ele>158</ele>
        <time>2022-08-06T11:13:14Z</time>
      </trkpt>
      <trkpt lat="48.51262" lon="1.9181">
        <ele>158</ele>
        <time>2022-08-06T11:13:16Z</time>
      </trkpt>
      <trkpt lat="48.51267" lon="1.91815">
        <ele>158</ele>
        <time>2022-08-06T11:13:18Z</time>
      </trkpt>
      <trkpt lat="48.51272" lon="1.91821">
        <ele>158</ele>
        <time>2022-08-06T11:13:20Z</time>
      </trkpt>
      <trkpt lat="48.51278" lon="1.91826">
        <ele>158</ele>
        <time>2022-08-06T11:13:22Z</time>
      </trkpt>
      <trkpt lat="48.51283" lon="1.9183">
        <ele>158.2</ele>
        <time>2022-08-06T11:13:24Z</time>
      </trkpt>
      <trkpt lat="48.51289" lon="1.91835">
        <ele>158.4</ele>
        <time>2022-08-06T11:13:26Z</time>
      </trkpt>
      <trkpt lat="48.51294" lon="1.9184">
        <ele>158.6</ele>
        <time>2022-08-06T11:13:28Z</time>
      </trkpt>
      <trkpt lat="48.51299" lon="1.91846">
        <ele>158.8</ele>
        <time>2022-08-06T11:13:30Z</time>
      </trkpt>
      <trkpt lat="48.51304" lon="1.91851">
        <ele>159</ele>
        <time>2022-08-06T11:13:32Z</time>
      </trkpt>
      <trkpt lat="48.5131" lon="1.91854">
        <ele>159</ele>
        <time>2022-08-06T11:13:34Z</time>
      </trkpt>
      <trkpt lat="48.51316" lon="1.91858">
        <ele>159</ele>
        <time>2022-08-06T11:13:36Z</time>
      </trkpt>
      <trkpt lat="48.51322" lon="1.91862">
        <ele>159</ele>
        <time>2022-08-06T11:13:38Z</time>
      </trkpt>
      <trkpt lat="48.51327" lon="1.91866">
        <ele>159</ele>
        <time>2022-08-06T11:13:40Z</time>
      </trkpt>
      <trkpt lat="48.51333" lon="1.9187">
        <ele>159</ele>
        <time>2022-08-06T11:13:42Z</time>
      </trkpt>
      <trkpt lat="48.51338" lon="1.91875">
        <ele>159</ele>
        <time>2022-08-06T11:13:44Z</time>
      </trkpt>
      <trkpt lat="48.51344" lon="1.91879">
        <ele>159</ele>
        <time>2022-08-06T11:13:46Z</time>
      </trkpt>
      <trkpt lat="48.51351" lon="1.91881">
        <ele>159</ele>
        <time>2022-08-06T11:13:48Z</time>
      </trkpt>
      <trkpt lat="48.51356" lon="1.91885">
        <ele>159</ele>
        <time>2022-08-06T11:13:50Z</time>
      </trkpt>
      <trkpt lat="48.51362" lon="1.9189">
        <ele>159</ele>
        <time>2022-08-06T11:13:52Z</time>
      </trkpt>
      <trkpt lat="48.51367" lon="1.91892">
        <ele>159</ele>
        <time>2022-08-06T11:13:54Z</time>
      </trkpt>
      <trkpt lat="48.51373" lon="1.91892">
        <ele>159</ele>
        <time>2022-08-06T11:13:56Z</time>
      </trkpt>
      <trkpt lat="48.51377" lon="1.91888">
        <ele>159</ele>
        <time>2022-08-06T11:13:58Z</time>
      </trkpt>
      <trkpt lat="48.51381" lon="1.91884">
        <ele>159</ele>
        <time>2022-08-06T11:14:00Z</time>
      </trkpt>
      <trkpt lat="48.51389" lon="1.91879">
        <ele>159</ele>
        <time>2022-08-06T11:14:04Z</time>
      </trkpt>
      <trkpt lat="48.51398" lon="1.91874">
        <ele>159</ele>
        <time>2022-08-06T11:14:08Z</time>
      </trkpt>
      <trkpt lat="48.51403" lon="1.9187">
        <ele>159</ele>
        <time>2022-08-06T11:14:10Z</time>
      </trkpt>
      <trkpt lat="48.51409" lon="1.91867">
        <ele>159</ele>
        <time>2022-08-06T11:14:12Z</time>
      </trkpt>
      <trkpt lat="48.51415" lon="1.91863">
        <ele>159</ele>
        <time>2022-08-06T11:14:14Z</time>
      </trkpt>
      <trkpt lat="48.51421" lon="1.91859">
        <ele>159</ele>
        <time>2022-08-06T11:14:16Z</time>
      </trkpt>
      <trkpt lat="48.51427" lon="1.91855">
        <ele>159</ele>
        <time>2022-08-06T11:14:18Z</time>
      </trkpt>
      <trkpt lat="48.51434" lon="1.91851">
        <ele>159</ele>
        <time>2022-08-06T11:14:20Z</time>
      </trkpt>
      <trkpt lat="48.51439" lon="1.91844">
        <ele>159</ele>
        <time>2022-08-06T11:14:22Z</time>
      </trkpt>
      <trkpt lat="48.51443" lon="1.91835">
        <ele>159</ele>
        <time>2022-08-06T11:14:24Z</time>
      </trkpt>
      <trkpt lat="48.51446" lon="1.91826">
        <ele>159</ele>
        <time>2022-08-06T11:14:26Z</time>
      </trkpt>
      <trkpt lat="48.51447" lon="1.91819">
        <ele>159</ele>
        <time>2022-08-06T11:14:28Z</time>
      </trkpt>
      <trkpt lat="48.5145" lon="1.91813">
        <ele>159</ele>
        <time>2022-08-06T11:14:32Z</time>
      </trkpt>
      <trkpt lat="48.51456" lon="1.91818">
        <ele>159</ele>
        <time>2022-08-06T11:14:36Z</time>
      </trkpt>
      <trkpt lat="48.5146" lon="1.91822">
        <ele>159</ele>
        <time>2022-08-06T11:16:16Z</time>
      </trkpt>
      <trkpt lat="48.51466" lon="1.91826">
        <ele>159</ele>
        <time>2022-08-06T11:18:58Z</time>
      </trkpt>
      <trkpt lat="48.51471" lon="1.91828">
        <ele>159</ele>
        <time>2022-08-06T11:19:00Z</time>
      </trkpt>
      <trkpt lat="48.51476" lon="1.91831">
        <ele>159</ele>
        <time>2022-08-06T11:19:02Z</time>
      </trkpt>
      <trkpt lat="48.51482" lon="1.91835">
        <ele>159</ele>
        <time>2022-08-06T11:19:04Z</time>
      </trkpt>
      <trkpt lat="48.51489" lon="1.91839">
        <ele>159</ele>
        <time>2022-08-06T11:19:06Z</time>
      </trkpt>
      <trkpt lat="48.51497" lon="1.91841">
        <ele>159</ele>
        <time>2022-08-06T11:19:08Z</time>
      </trkpt>
      <trkpt lat="48.51505" lon="1.91844">
        <ele>159</ele>
        <time>2022-08-06T11:19:10Z</time>
      </trkpt>
      <trkpt lat="48.51513" lon="1.91848">
        <ele>159</ele>
        <time>2022-08-06T11:19:12Z</time>
      </trkpt>
      <trkpt lat="48.5152" lon="1.91851">
        <ele>159</ele>
        <time>2022-08-06T11:19:14Z</time>
      </trkpt>
      <trkpt lat="48.51528" lon="1.91853">
        <ele>159</ele>
        <time>2022-08-06T11:19:16Z</time>
      </trkpt>
      <trkpt lat="48.51536" lon="1.91856">
        <ele>159</ele>
        <time>2022-08-06T11:19:18Z</time>
      </trkpt>
      <trkpt lat="48.51544" lon="1.91857">
        <ele>159</ele>
        <time>2022-08-06T11:19:20Z</time>
      </trkpt>
      <trkpt lat="48.51552" lon="1.91858">
        <ele>159</ele>
        <time>2022-08-06T11:19:22Z</time>
      </trkpt>
      <trkpt lat="48.5156" lon="1.91859">
        <ele>159</ele>
        <time>2022-08-06T11:19:24Z</time>
      </trkpt>
      <trkpt lat="48.51568" lon="1.91859">
        <ele>159</ele>
        <time>2022-08-06T11:19:26Z</time>
      </trkpt>
      <trkpt lat="48.51576" lon="1.91859">
        <ele>158.9</ele>
        <time>2022-08-06T11:19:28Z</time>
      </trkpt>
      <trkpt lat="48.51585" lon="1.91859">
        <ele>158.9</ele>
        <time>2022-08-06T11:19:30Z</time>
      </trkpt>
      <trkpt lat="48.51593" lon="1.91858">
        <ele>158.6</ele>
        <time>2022-08-06T11:19:32Z</time>
      </trkpt>
      <trkpt lat="48.51602" lon="1.91857">
        <ele>158.3</ele>
        <time>2022-08-06T11:19:34Z</time>
      </trkpt>
      <trkpt lat="48.51611" lon="1.91857">
        <ele>158</ele>
        <time>2022-08-06T11:19:36Z</time>
      </trkpt>
      <trkpt lat="48.5162" lon="1.91857">
        <ele>158</ele>
        <time>2022-08-06T11:19:38Z</time>
      </trkpt>
      <trkpt lat="48.51629" lon="1.91857">
        <ele>158</ele>
        <time>2022-08-06T11:19:40Z</time>
      </trkpt>
      <trkpt lat="48.51639" lon="1.91856">
        <ele>158</ele>
        <time>2022-08-06T11:19:42Z</time>
      </trkpt>
      <trkpt lat="48.51648" lon="1.91855">
        <ele>158</ele>
        <time>2022-08-06T11:19:44Z</time>
      </trkpt>
      <trkpt lat="48.51657" lon="1.91853">
        <ele>158</ele>
        <time>2022-08-06T11:19:46Z</time>
      </trkpt>
      <trkpt lat="48.51666" lon="1.91852">
        <ele>158</ele>
        <time>2022-08-06T11:19:48Z</time>
      </trkpt>
      <trkpt lat="48.51676" lon="1.91852">
        <ele>158</ele>
        <time>2022-08-06T11:19:50Z</time>
      </trkpt>
      <trkpt lat="48.51685" lon="1.91851">
        <ele>158</ele>
        <time>2022-08-06T11:19:52Z</time>
      </trkpt>
      <trkpt lat="48.51693" lon="1.9185">
        <ele>158</ele>
        <time>2022-08-06T11:19:54Z</time>
      </trkpt>
      <trkpt lat="48.517" lon="1.9185">
        <ele>158</ele>
        <time>2022-08-06T11:19:56Z</time>
      </trkpt>
      <trkpt lat="48.51708" lon="1.9185">
        <ele>158</ele>
        <time>2022-08-06T11:19:58Z</time>
      </trkpt>
      <trkpt lat="48.51716" lon="1.91849">
        <ele>158</ele>
        <time>2022-08-06T11:20:00Z</time>
      </trkpt>
      <trkpt lat="48.51724" lon="1.91849">
        <ele>158</ele>
        <time>2022-08-06T11:20:02Z</time>
      </trkpt>
      <trkpt lat="48.51731" lon="1.91848">
        <ele>157.8</ele>
        <time>2022-08-06T11:20:04Z</time>
      </trkpt>
      <trkpt lat="48.51739" lon="1.91848">
        <ele>157.7</ele>
        <time>2022-08-06T11:20:06Z</time>
      </trkpt>
      <trkpt lat="48.51747" lon="1.91846">
        <ele>157.6</ele>
        <time>2022-08-06T11:20:08Z</time>
      </trkpt>
      <trkpt lat="48.51755" lon="1.91845">
        <ele>157.6</ele>
        <time>2022-08-06T11:20:10Z</time>
      </trkpt>
      <trkpt lat="48.51762" lon="1.91844">
        <ele>157.6</ele>
        <time>2022-08-06T11:20:12Z</time>
      </trkpt>
      <trkpt lat="48.5177" lon="1.91843">
        <ele>157.7</ele>
        <time>2022-08-06T11:20:14Z</time>
      </trkpt>
      <trkpt lat="48.51778" lon="1.91842">
        <ele>157.7</ele>
        <time>2022-08-06T11:20:16Z</time>
      </trkpt>
      <trkpt lat="48.51785" lon="1.9184">
        <ele>157.7</ele>
        <time>2022-08-06T11:20:18Z</time>
      </trkpt>
      <trkpt lat="48.51792" lon="1.91839">
        <ele>157.8</ele>
        <time>2022-08-06T11:20:20Z</time>
      </trkpt>
      <trkpt lat="48.51799" lon="1.91838">
        <ele>157.8</ele>
        <time>2022-08-06T11:20:22Z</time>
      </trkpt>
      <trkpt lat="48.51807" lon="1.91838">
        <ele>157.8</ele>
        <time>2022-08-06T11:20:24Z</time>
      </trkpt>
      <trkpt lat="48.51814" lon="1.91837">
        <ele>157.9</ele>
        <time>2022-08-06T11:20:26Z</time>
      </trkpt>
      <trkpt lat="48.51822" lon="1.91835">
        <ele>157.9</ele>
        <time>2022-08-06T11:20:28Z</time>
      </trkpt>
      <trkpt lat="48.51829" lon="1.91833">
        <ele>158</ele>
        <time>2022-08-06T11:20:30Z</time>
      </trkpt>
      <trkpt lat="48.51836" lon="1.91832">
        <ele>158</ele>
        <time>2022-08-06T11:20:32Z</time>
      </trkpt>
      <trkpt lat="48.51843" lon="1.91832">
        <ele>158</ele>
        <time>2022-08-06T11:20:34Z</time>
      </trkpt>
      <trkpt lat="48.51851" lon="1.9183">
        <ele>158</ele>
        <time>2022-08-06T11:20:36Z</time>
      </trkpt>
      <trkpt lat="48.51858" lon="1.91829">
        <ele>158</ele>
        <time>2022-08-06T11:20:38Z</time>
      </trkpt>
      <trkpt lat="48.51865" lon="1.91827">
        <ele>158</ele>
        <time>2022-08-06T11:20:40Z</time>
      </trkpt>
      <trkpt lat="48.51871" lon="1.91825">
        <ele>158</ele>
        <time>2022-08-06T11:20:42Z</time>
      </trkpt>
      <trkpt lat="48.51878" lon="1.91825">
        <ele>158</ele>
        <time>2022-08-06T11:20:44Z</time>
      </trkpt>
      <trkpt lat="48.51884" lon="1.91824">
        <ele>158</ele>
        <time>2022-08-06T11:20:46Z</time>
      </trkpt>
      <trkpt lat="48.5189" lon="1.91822">
        <ele>158</ele>
        <time>2022-08-06T11:20:48Z</time>
      </trkpt>
      <trkpt lat="48.51896" lon="1.91821">
        <ele>158.1</ele>
        <time>2022-08-06T11:20:50Z</time>
      </trkpt>
      <trkpt lat="48.51902" lon="1.9182">
        <ele>158.2</ele>
        <time>2022-08-06T11:20:52Z</time>
      </trkpt>
      <trkpt lat="48.51908" lon="1.91819">
        <ele>158.4</ele>
        <time>2022-08-06T11:20:54Z</time>
      </trkpt>
      <trkpt lat="48.51914" lon="1.91818">
        <ele>158.5</ele>
        <time>2022-08-06T11:20:56Z</time>
      </trkpt>
      <trkpt lat="48.51921" lon="1.91817">
        <ele>158.7</ele>
        <time>2022-08-06T11:20:58Z</time>
      </trkpt>
      <trkpt lat="48.51927" lon="1.91815">
        <ele>158.8</ele>
        <time>2022-08-06T11:21:00Z</time>
      </trkpt>
      <trkpt lat="48.51933" lon="1.91816">
        <ele>158.9</ele>
        <time>2022-08-06T11:21:02Z</time>
      </trkpt>
      <trkpt lat="48.51939" lon="1.91815">
        <ele>158.9</ele>
        <time>2022-08-06T11:21:04Z</time>
      </trkpt>
      <trkpt lat="48.51946" lon="1.91814">
        <ele>159</ele>
        <time>2022-08-06T11:21:06Z</time>
      </trkpt>
      <trkpt lat="48.51952" lon="1.91813">
        <ele>159</ele>
        <time>2022-08-06T11:21:08Z</time>
      </trkpt>
      <trkpt lat="48.51959" lon="1.91811">
        <ele>159</ele>
        <time>2022-08-06T11:21:10Z</time>
      </trkpt>
      <trkpt lat="48.51965" lon="1.9181">
        <ele>159</ele>
        <time>2022-08-06T11:21:12Z</time>
      </trkpt>
      <trkpt lat="48.51972" lon="1.91809">
        <ele>159</ele>
        <time>2022-08-06T11:21:14Z</time>
      </trkpt>
      <trkpt lat="48.51978" lon="1.91808">
        <ele>159</ele>
        <time>2022-08-06T11:21:16Z</time>
      </trkpt>
      <trkpt lat="48.51985" lon="1.91807">
        <ele>159</ele>
        <time>2022-08-06T11:21:18Z</time>
      </trkpt>
      <trkpt lat="48.51991" lon="1.91805">
        <ele>159</ele>
        <time>2022-08-06T11:21:20Z</time>
      </trkpt>
      <trkpt lat="48.51998" lon="1.91804">
        <ele>159</ele>
        <time>2022-08-06T11:21:22Z</time>
      </trkpt>
      <trkpt lat="48.52004" lon="1.91803">
        <ele>159</ele>
        <time>2022-08-06T11:21:24Z</time>
      </trkpt>
      <trkpt lat="48.52011" lon="1.91802">
        <ele>159</ele>
        <time>2022-08-06T11:21:26Z</time>
      </trkpt>
      <trkpt lat="48.52017" lon="1.91801">
        <ele>159</ele>
        <time>2022-08-06T11:21:28Z</time>
      </trkpt>
      <trkpt lat="48.52023" lon="1.918">
        <ele>159</ele>
        <time>2022-08-06T11:21:30Z</time>
      </trkpt>
      <trkpt lat="48.5203" lon="1.91798">
        <ele>159.1</ele>
        <time>2022-08-06T11:21:32Z</time>
      </trkpt>
      <trkpt lat="48.52036" lon="1.91797">
        <ele>159.3</ele>
        <time>2022-08-06T11:21:34Z</time>
      </trkpt>
      <trkpt lat="48.52043" lon="1.91795">
        <ele>159.5</ele>
        <time>2022-08-06T11:21:36Z</time>
      </trkpt>
      <trkpt lat="48.52049" lon="1.91793">
        <ele>159.7</ele>
        <time>2022-08-06T11:21:38Z</time>
      </trkpt>
      <trkpt lat="48.52055" lon="1.91791">
        <ele>160</ele>
        <time>2022-08-06T11:21:40Z</time>
      </trkpt>
      <trkpt lat="48.52061" lon="1.91788">
        <ele>160</ele>
        <time>2022-08-06T11:21:42Z</time>
      </trkpt>
      <trkpt lat="48.52067" lon="1.91785">
        <ele>160</ele>
        <time>2022-08-06T11:21:44Z</time>
      </trkpt>
      <trkpt lat="48.52073" lon="1.91782">
        <ele>160</ele>
        <time>2022-08-06T11:21:46Z</time>
      </trkpt>
      <trkpt lat="48.5208" lon="1.91778">
        <ele>160</ele>
        <time>2022-08-06T11:21:48Z</time>
      </trkpt>
      <trkpt lat="48.52087" lon="1.91775">
        <ele>160</ele>
        <time>2022-08-06T11:21:50Z</time>
      </trkpt>
      <trkpt lat="48.52093" lon="1.91772">
        <ele>160</ele>
        <time>2022-08-06T11:21:52Z</time>
      </trkpt>
      <trkpt lat="48.521" lon="1.91768">
        <ele>160</ele>
        <time>2022-08-06T11:21:54Z</time>
      </trkpt>
      <trkpt lat="48.52106" lon="1.91764">
        <ele>160</ele>
        <time>2022-08-06T11:21:56Z</time>
      </trkpt>
      <trkpt lat="48.52113" lon="1.91762">
        <ele>160</ele>
        <time>2022-08-06T11:21:58Z</time>
      </trkpt>
      <trkpt lat="48.52119" lon="1.91758">
        <ele>159.9</ele>
        <time>2022-08-06T11:22:00Z</time>
      </trkpt>
      <trkpt lat="48.52125" lon="1.91755">
        <ele>159.9</ele>
        <time>2022-08-06T11:22:02Z</time>
      </trkpt>
      <trkpt lat="48.52131" lon="1.91752">
        <ele>159.9</ele>
        <time>2022-08-06T11:22:04Z</time>
      </trkpt>
      <trkpt lat="48.52138" lon="1.91749">
        <ele>160</ele>
        <time>2022-08-06T11:22:06Z</time>
      </trkpt>
      <trkpt lat="48.52144" lon="1.91746">
        <ele>160</ele>
        <time>2022-08-06T11:22:08Z</time>
      </trkpt>
      <trkpt lat="48.52151" lon="1.91742">
        <ele>160</ele>
        <time>2022-08-06T11:22:10Z</time>
      </trkpt>
      <trkpt lat="48.52156" lon="1.9174">
        <ele>160</ele>
        <time>2022-08-06T11:22:12Z</time>
      </trkpt>
      <trkpt lat="48.52161" lon="1.91738">
        <ele>160</ele>
        <time>2022-08-06T11:22:14Z</time>
      </trkpt>
      <trkpt lat="48.52166" lon="1.91737">
        <ele>160</ele>
        <time>2022-08-06T11:22:18Z</time>
      </trkpt>
      <trkpt lat="48.52174" lon="1.91735">
        <ele>159.7</ele>
        <time>2022-08-06T11:22:22Z</time>
      </trkpt>
      <trkpt lat="48.5218" lon="1.91734">
        <ele>159.5</ele>
        <time>2022-08-06T11:22:24Z</time>
      </trkpt>
      <trkpt lat="48.52187" lon="1.91734">
        <ele>159.3</ele>
        <time>2022-08-06T11:22:26Z</time>
      </trkpt>
      <trkpt lat="48.52194" lon="1.91734">
        <ele>159</ele>
        <time>2022-08-06T11:22:28Z</time>
      </trkpt>
      <trkpt lat="48.52202" lon="1.91734">
        <ele>159</ele>
        <time>2022-08-06T11:22:30Z</time>
      </trkpt>
      <trkpt lat="48.5221" lon="1.91734">
        <ele>159</ele>
        <time>2022-08-06T11:22:32Z</time>
      </trkpt>
      <trkpt lat="48.52218" lon="1.91734">
        <ele>159</ele>
        <time>2022-08-06T11:22:34Z</time>
      </trkpt>
      <trkpt lat="48.52225" lon="1.91734">
        <ele>159</ele>
        <time>2022-08-06T11:22:36Z</time>
      </trkpt>
      <trkpt lat="48.52233" lon="1.91734">
        <ele>159</ele>
        <time>2022-08-06T11:22:38Z</time>
      </trkpt>
      <trkpt lat="48.52241" lon="1.91735">
        <ele>159</ele>
        <time>2022-08-06T11:22:40Z</time>
      </trkpt>
      <trkpt lat="48.5225" lon="1.91737">
        <ele>159</ele>
        <time>2022-08-06T11:22:42Z</time>
      </trkpt>
      <trkpt lat="48.52257" lon="1.9174">
        <ele>159</ele>
        <time>2022-08-06T11:22:44Z</time>
      </trkpt>
      <trkpt lat="48.52265" lon="1.91743">
        <ele>159</ele>
        <time>2022-08-06T11:22:46Z</time>
      </trkpt>
      <trkpt lat="48.52272" lon="1.91746">
        <ele>159</ele>
        <time>2022-08-06T11:22:48Z</time>
      </trkpt>
      <trkpt lat="48.52279" lon="1.91749">
        <ele>159</ele>
        <time>2022-08-06T11:22:50Z</time>
      </trkpt>
      <trkpt lat="48.52287" lon="1.91752">
        <ele>159</ele>
        <time>2022-08-06T11:22:52Z</time>
      </trkpt>
      <trkpt lat="48.52295" lon="1.91755">
        <ele>159</ele>
        <time>2022-08-06T11:22:54Z</time>
      </trkpt>
      <trkpt lat="48.52303" lon="1.91758">
        <ele>159</ele>
        <time>2022-08-06T11:22:56Z</time>
      </trkpt>
      <trkpt lat="48.52311" lon="1.91761">
        <ele>158.8</ele>
        <time>2022-08-06T11:22:58Z</time>
      </trkpt>
      <trkpt lat="48.52318" lon="1.91765">
        <ele>158.5</ele>
        <time>2022-08-06T11:23:00Z</time>
      </trkpt>
      <trkpt lat="48.52325" lon="1.91769">
        <ele>158.3</ele>
        <time>2022-08-06T11:23:02Z</time>
      </trkpt>
      <trkpt lat="48.52333" lon="1.91773">
        <ele>158</ele>
        <time>2022-08-06T11:23:04Z</time>
      </trkpt>
      <trkpt lat="48.52341" lon="1.91777">
        <ele>158</ele>
        <time>2022-08-06T11:23:06Z</time>
      </trkpt>
      <trkpt lat="48.52349" lon="1.9178">
        <ele>158</ele>
        <time>2022-08-06T11:23:08Z</time>
      </trkpt>
      <trkpt lat="48.52356" lon="1.91785">
        <ele>158</ele>
        <time>2022-08-06T11:23:10Z</time>
      </trkpt>
      <trkpt lat="48.52362" lon="1.91791">
        <ele>158</ele>
        <time>2022-08-06T11:23:12Z</time>
      </trkpt>
      <trkpt lat="48.52368" lon="1.91792">
        <ele>157.8</ele>
        <time>2022-08-06T11:23:14Z</time>
      </trkpt>
      <trkpt lat="48.52375" lon="1.91792">
        <ele>157.5</ele>
        <time>2022-08-06T11:23:16Z</time>
      </trkpt>
      <trkpt lat="48.52383" lon="1.91794">
        <ele>157.2</ele>
        <time>2022-08-06T11:23:18Z</time>
      </trkpt>
      <trkpt lat="48.52393" lon="1.91798">
        <ele>157</ele>
        <time>2022-08-06T11:23:20Z</time>
      </trkpt>
      <trkpt lat="48.52402" lon="1.91801">
        <ele>157</ele>
        <time>2022-08-06T11:23:22Z</time>
      </trkpt>
      <trkpt lat="48.52412" lon="1.91803">
        <ele>157</ele>
        <time>2022-08-06T11:23:24Z</time>
      </trkpt>
      <trkpt lat="48.52423" lon="1.91802">
        <ele>156.8</ele>
        <time>2022-08-06T11:23:26Z</time>
      </trkpt>
      <trkpt lat="48.52434" lon="1.91803">
        <ele>156.4</ele>
        <time>2022-08-06T11:23:28Z</time>
      </trkpt>
      <trkpt lat="48.52445" lon="1.91804">
        <ele>156</ele>
        <time>2022-08-06T11:23:30Z</time>
      </trkpt>
      <trkpt lat="48.52455" lon="1.91807">
        <ele>155.6</ele>
        <time>2022-08-06T11:23:32Z</time>
      </trkpt>
      <trkpt lat="48.52465" lon="1.9181">
        <ele>155.2</ele>
        <time>2022-08-06T11:23:34Z</time>
      </trkpt>
      <trkpt lat="48.52475" lon="1.91807">
        <ele>155.1</ele>
        <time>2022-08-06T11:23:36Z</time>
      </trkpt>
      <trkpt lat="48.52485" lon="1.91803">
        <ele>155.4</ele>
        <time>2022-08-06T11:23:38Z</time>
      </trkpt>
      <trkpt lat="48.52494" lon="1.91797">
        <ele>155.8</ele>
        <time>2022-08-06T11:23:40Z</time>
      </trkpt>
      <trkpt lat="48.52502" lon="1.9179">
        <ele>156</ele>
        <time>2022-08-06T11:23:42Z</time>
      </trkpt>
      <trkpt lat="48.52511" lon="1.91783">
        <ele>156.1</ele>
        <time>2022-08-06T11:23:44Z</time>
      </trkpt>
      <trkpt lat="48.52519" lon="1.91778">
        <ele>156</ele>
        <time>2022-08-06T11:23:46Z</time>
      </trkpt>
      <trkpt lat="48.52527" lon="1.91773">
        <ele>156</ele>
        <time>2022-08-06T11:23:48Z</time>
      </trkpt>
      <trkpt lat="48.52533" lon="1.91769">
        <ele>156.2</ele>
        <time>2022-08-06T11:23:50Z</time>
      </trkpt>
      <trkpt lat="48.5254" lon="1.91763">
        <ele>156.4</ele>
        <time>2022-08-06T11:23:52Z</time>
      </trkpt>
      <trkpt lat="48.52546" lon="1.91759">
        <ele>156.6</ele>
        <time>2022-08-06T11:23:54Z</time>
      </trkpt>
      <trkpt lat="48.52553" lon="1.91755">
        <ele>156.9</ele>
        <time>2022-08-06T11:23:56Z</time>
      </trkpt>
      <trkpt lat="48.5256" lon="1.9175">
        <ele>157.2</ele>
        <time>2022-08-06T11:23:58Z</time>
      </trkpt>
      <trkpt lat="48.52568" lon="1.91745">
        <ele>157.4</ele>
        <time>2022-08-06T11:24:00Z</time>
      </trkpt>
      <trkpt lat="48.52575" lon="1.91741">
        <ele>157.5</ele>
        <time>2022-08-06T11:24:02Z</time>
      </trkpt>
      <trkpt lat="48.52582" lon="1.91738">
        <ele>157.5</ele>
        <time>2022-08-06T11:24:04Z</time>
      </trkpt>
      <trkpt lat="48.5259" lon="1.91735">
        <ele>157.6</ele>
        <time>2022-08-06T11:24:06Z</time>
      </trkpt>
      <trkpt lat="48.52598" lon="1.91733">
        <ele>157.7</ele>
        <time>2022-08-06T11:24:08Z</time>
      </trkpt>
      <trkpt lat="48.52606" lon="1.91731">
        <ele>157.9</ele>
        <time>2022-08-06T11:24:10Z</time>
      </trkpt>
      <trkpt lat="48.52613" lon="1.91729">
        <ele>158</ele>
        <time>2022-08-06T11:24:12Z</time>
      </trkpt>
      <trkpt lat="48.52621" lon="1.91727">
        <ele>158</ele>
        <time>2022-08-06T11:24:14Z</time>
      </trkpt>
      <trkpt lat="48.52629" lon="1.91724">
        <ele>158</ele>
        <time>2022-08-06T11:24:16Z</time>
      </trkpt>
      <trkpt lat="48.52637" lon="1.91723">
        <ele>158</ele>
        <time>2022-08-06T11:24:18Z</time>
      </trkpt>
      <trkpt lat="48.52644" lon="1.91726">
        <ele>158.2</ele>
        <time>2022-08-06T11:24:20Z</time>
      </trkpt>
      <trkpt lat="48.5265" lon="1.91736">
        <ele>158.4</ele>
        <time>2022-08-06T11:24:22Z</time>
      </trkpt>
      <trkpt lat="48.52657" lon="1.91745">
        <ele>158.6</ele>
        <time>2022-08-06T11:24:24Z</time>
      </trkpt>
      <trkpt lat="48.52662" lon="1.91752">
        <ele>158.8</ele>
        <time>2022-08-06T11:24:26Z</time>
      </trkpt>
      <trkpt lat="48.52667" lon="1.9176">
        <ele>159</ele>
        <time>2022-08-06T11:24:28Z</time>
      </trkpt>
      <trkpt lat="48.52673" lon="1.91767">
        <ele>159</ele>
        <time>2022-08-06T11:24:30Z</time>
      </trkpt>
      <trkpt lat="48.52679" lon="1.91773">
        <ele>159</ele>
        <time>2022-08-06T11:24:32Z</time>
      </trkpt>
      <trkpt lat="48.52684" lon="1.9178">
        <ele>159</ele>
        <time>2022-08-06T11:24:34Z</time>
      </trkpt>
      <trkpt lat="48.5269" lon="1.91784">
        <ele>159</ele>
        <time>2022-08-06T11:24:36Z</time>
      </trkpt>
      <trkpt lat="48.52697" lon="1.9179">
        <ele>159</ele>
        <time>2022-08-06T11:24:38Z</time>
      </trkpt>
      <trkpt lat="48.52704" lon="1.91794">
        <ele>159</ele>
        <time>2022-08-06T11:24:40Z</time>
      </trkpt>
      <trkpt lat="48.5271" lon="1.91799">
        <ele>159</ele>
        <time>2022-08-06T11:24:42Z</time>
      </trkpt>
      <trkpt lat="48.52717" lon="1.91804">
        <ele>159</ele>
        <time>2022-08-06T11:24:44Z</time>
      </trkpt>
      <trkpt lat="48.52724" lon="1.91809">
        <ele>159</ele>
        <time>2022-08-06T11:24:46Z</time>
      </trkpt>
      <trkpt lat="48.5273" lon="1.91814">
        <ele>159</ele>
        <time>2022-08-06T11:24:48Z</time>
      </trkpt>
      <trkpt lat="48.52736" lon="1.91819">
        <ele>159</ele>
        <time>2022-08-06T11:24:50Z</time>
      </trkpt>
      <trkpt lat="48.52743" lon="1.91823">
        <ele>159</ele>
        <time>2022-08-06T11:24:52Z</time>
      </trkpt>
      <trkpt lat="48.52749" lon="1.91828">
        <ele>159</ele>
        <time>2022-08-06T11:24:54Z</time>
      </trkpt>
      <trkpt lat="48.52756" lon="1.91833">
        <ele>159</ele>
        <time>2022-08-06T11:24:56Z</time>
      </trkpt>
      <trkpt lat="48.52762" lon="1.91838">
        <ele>159</ele>
        <time>2022-08-06T11:24:58Z</time>
      </trkpt>
      <trkpt lat="48.52769" lon="1.91842">
        <ele>159</ele>
        <time>2022-08-06T11:25:00Z</time>
      </trkpt>
      <trkpt lat="48.52776" lon="1.91846">
        <ele>159</ele>
        <time>2022-08-06T11:25:02Z</time>
      </trkpt>
      <trkpt lat="48.52784" lon="1.91852">
        <ele>159</ele>
        <time>2022-08-06T11:25:04Z</time>
      </trkpt>
      <trkpt lat="48.52791" lon="1.91856">
        <ele>159</ele>
        <time>2022-08-06T11:25:06Z</time>
      </trkpt>
      <trkpt lat="48.52799" lon="1.91861">
        <ele>159</ele>
        <time>2022-08-06T11:25:08Z</time>
      </trkpt>
      <trkpt lat="48.52806" lon="1.91867">
        <ele>159</ele>
        <time>2022-08-06T11:25:10Z</time>
      </trkpt>
      <trkpt lat="48.52813" lon="1.91872">
        <ele>159</ele>
        <time>2022-08-06T11:25:12Z</time>
      </trkpt>
      <trkpt lat="48.52821" lon="1.91878">
        <ele>159</ele>
        <time>2022-08-06T11:25:14Z</time>
      </trkpt>
      <trkpt lat="48.52829" lon="1.91883">
        <ele>159</ele>
        <time>2022-08-06T11:25:16Z</time>
      </trkpt>
      <trkpt lat="48.52837" lon="1.91889">
        <ele>158.9</ele>
        <time>2022-08-06T11:25:18Z</time>
      </trkpt>
      <trkpt lat="48.52845" lon="1.91895">
        <ele>158.5</ele>
        <time>2022-08-06T11:25:20Z</time>
      </trkpt>
      <trkpt lat="48.52853" lon="1.919">
        <ele>158.2</ele>
        <time>2022-08-06T11:25:22Z</time>
      </trkpt>
      <trkpt lat="48.52861" lon="1.91906">
        <ele>158</ele>
        <time>2022-08-06T11:25:24Z</time>
      </trkpt>
      <trkpt lat="48.52869" lon="1.91911">
        <ele>158</ele>
        <time>2022-08-06T11:25:26Z</time>
      </trkpt>
      <trkpt lat="48.52876" lon="1.91917">
        <ele>158</ele>
        <time>2022-08-06T11:25:28Z</time>
      </trkpt>
      <trkpt lat="48.52885" lon="1.91923">
        <ele>158</ele>
        <time>2022-08-06T11:25:30Z</time>
      </trkpt>
      <trkpt lat="48.52893" lon="1.91929">
        <ele>157.9</ele>
        <time>2022-08-06T11:25:32Z</time>
      </trkpt>
      <trkpt lat="48.529" lon="1.91934">
        <ele>157.6</ele>
        <time>2022-08-06T11:25:34Z</time>
      </trkpt>
      <trkpt lat="48.52909" lon="1.9194">
        <ele>157.3</ele>
        <time>2022-08-06T11:25:36Z</time>
      </trkpt>
      <trkpt lat="48.52917" lon="1.91946">
        <ele>157</ele>
        <time>2022-08-06T11:25:38Z</time>
      </trkpt>
      <trkpt lat="48.52926" lon="1.91952">
        <ele>156.9</ele>
        <time>2022-08-06T11:25:40Z</time>
      </trkpt>
      <trkpt lat="48.52935" lon="1.91959">
        <ele>156.7</ele>
        <time>2022-08-06T11:25:42Z</time>
      </trkpt>
      <trkpt lat="48.52944" lon="1.91966">
        <ele>156.2</ele>
        <time>2022-08-06T11:25:44Z</time>
      </trkpt>
      <trkpt lat="48.52953" lon="1.91973">
        <ele>156</ele>
        <time>2022-08-06T11:25:46Z</time>
      </trkpt>
      <trkpt lat="48.52962" lon="1.91979">
        <ele>155.8</ele>
        <time>2022-08-06T11:25:48Z</time>
      </trkpt>
      <trkpt lat="48.52972" lon="1.91985">
        <ele>155.5</ele>
        <time>2022-08-06T11:25:50Z</time>
      </trkpt>
      <trkpt lat="48.52982" lon="1.91992">
        <ele>154.9</ele>
        <time>2022-08-06T11:25:52Z</time>
      </trkpt>
      <trkpt lat="48.52992" lon="1.91999">
        <ele>154.3</ele>
        <time>2022-08-06T11:25:54Z</time>
      </trkpt>
      <trkpt lat="48.53003" lon="1.92006">
        <ele>153.9</ele>
        <time>2022-08-06T11:25:56Z</time>
      </trkpt>
      <trkpt lat="48.53014" lon="1.92014">
        <ele>153.2</ele>
        <time>2022-08-06T11:25:58Z</time>
      </trkpt>
      <trkpt lat="48.53027" lon="1.92023">
        <ele>152.3</ele>
        <time>2022-08-06T11:26:00Z</time>
      </trkpt>
      <trkpt lat="48.53039" lon="1.92032">
        <ele>151</ele>
        <time>2022-08-06T11:26:02Z</time>
      </trkpt>
      <trkpt lat="48.53053" lon="1.92042">
        <ele>149.7</ele>
        <time>2022-08-06T11:26:04Z</time>
      </trkpt>
      <trkpt lat="48.53067" lon="1.92053">
        <ele>148.7</ele>
        <time>2022-08-06T11:26:06Z</time>
      </trkpt>
      <trkpt lat="48.53082" lon="1.92063">
        <ele>147.8</ele>
        <time>2022-08-06T11:26:08Z</time>
      </trkpt>
      <trkpt lat="48.53097" lon="1.92073">
        <ele>147.4</ele>
        <time>2022-08-06T11:26:10Z</time>
      </trkpt>
      <trkpt lat="48.53111" lon="1.92084">
        <ele>147</ele>
        <time>2022-08-06T11:26:12Z</time>
      </trkpt>
      <trkpt lat="48.53124" lon="1.92093">
        <ele>146.8</ele>
        <time>2022-08-06T11:26:14Z</time>
      </trkpt>
      <trkpt lat="48.53136" lon="1.92099">
        <ele>146.9</ele>
        <time>2022-08-06T11:26:16Z</time>
      </trkpt>
      <trkpt lat="48.53145" lon="1.92109">
        <ele>147.6</ele>
        <time>2022-08-06T11:26:18Z</time>
      </trkpt>
      <trkpt lat="48.53152" lon="1.92119">
        <ele>148.7</ele>
        <time>2022-08-06T11:26:20Z</time>
      </trkpt>
      <trkpt lat="48.53158" lon="1.92126">
        <ele>149.6</ele>
        <time>2022-08-06T11:26:22Z</time>
      </trkpt>
      <trkpt lat="48.53163" lon="1.92129">
        <ele>150.2</ele>
        <time>2022-08-06T11:26:24Z</time>
      </trkpt>
      <trkpt lat="48.53168" lon="1.92134">
        <ele>151</ele>
        <time>2022-08-06T11:26:26Z</time>
      </trkpt>
      <trkpt lat="48.53172" lon="1.92139">
        <ele>151.6</ele>
        <time>2022-08-06T11:26:28Z</time>
      </trkpt>
      <trkpt lat="48.53178" lon="1.92142">
        <ele>152.3</ele>
        <time>2022-08-06T11:26:30Z</time>
      </trkpt>
      <trkpt lat="48.53184" lon="1.92147">
        <ele>153.2</ele>
        <time>2022-08-06T11:26:34Z</time>
      </trkpt>
      <trkpt lat="48.53193" lon="1.92151">
        <ele>154.2</ele>
        <time>2022-08-06T11:26:38Z</time>
      </trkpt>
      <trkpt lat="48.532" lon="1.92155">
        <ele>154.9</ele>
        <time>2022-08-06T11:26:42Z</time>
      </trkpt>
      <trkpt lat="48.53205" lon="1.92158">
        <ele>155.2</ele>
        <time>2022-08-06T11:26:44Z</time>
      </trkpt>
      <trkpt lat="48.5321" lon="1.92164">
        <ele>155.5</ele>
        <time>2022-08-06T11:26:46Z</time>
      </trkpt>
      <trkpt lat="48.53217" lon="1.92174">
        <ele>155.8</ele>
        <time>2022-08-06T11:26:50Z</time>
      </trkpt>
      <trkpt lat="48.53222" lon="1.92181">
        <ele>156</ele>
        <time>2022-08-06T11:26:52Z</time>
      </trkpt>
      <trkpt lat="48.53225" lon="1.92187">
        <ele>156.1</ele>
        <time>2022-08-06T11:26:54Z</time>
      </trkpt>
      <trkpt lat="48.5323" lon="1.92194">
        <ele>156.3</ele>
        <time>2022-08-06T11:26:58Z</time>
      </trkpt>
      <trkpt lat="48.53234" lon="1.922">
        <ele>156.4</ele>
        <time>2022-08-06T11:27:00Z</time>
      </trkpt>
      <trkpt lat="48.53238" lon="1.92206">
        <ele>156.6</ele>
        <time>2022-08-06T11:27:02Z</time>
      </trkpt>
      <trkpt lat="48.53241" lon="1.9221">
        <ele>156.7</ele>
        <time>2022-08-06T11:27:04Z</time>
      </trkpt>
      <trkpt lat="48.53246" lon="1.92216">
        <ele>156.8</ele>
        <time>2022-08-06T11:27:06Z</time>
      </trkpt>
      <trkpt lat="48.53249" lon="1.92222">
        <ele>157</ele>
        <time>2022-08-06T11:27:08Z</time>
      </trkpt>
      <trkpt lat="48.53254" lon="1.92226">
        <ele>156.9</ele>
        <time>2022-08-06T11:27:10Z</time>
      </trkpt>
      <trkpt lat="48.53258" lon="1.92231">
        <ele>156.8</ele>
        <time>2022-08-06T11:27:12Z</time>
      </trkpt>
      <trkpt lat="48.53262" lon="1.92238">
        <ele>156.7</ele>
        <time>2022-08-06T11:27:14Z</time>
      </trkpt>
      <trkpt lat="48.53268" lon="1.92242">
        <ele>156.7</ele>
        <time>2022-08-06T11:27:16Z</time>
      </trkpt>
      <trkpt lat="48.53273" lon="1.92248">
        <ele>156.8</ele>
        <time>2022-08-06T11:27:18Z</time>
      </trkpt>
      <trkpt lat="48.5328" lon="1.92253">
        <ele>156.9</ele>
        <time>2022-08-06T11:27:20Z</time>
      </trkpt>
      <trkpt lat="48.53286" lon="1.92258">
        <ele>156.7</ele>
        <time>2022-08-06T11:27:22Z</time>
      </trkpt>
      <trkpt lat="48.53291" lon="1.92262">
        <ele>156.6</ele>
        <time>2022-08-06T11:27:24Z</time>
      </trkpt>
      <trkpt lat="48.53297" lon="1.92264">
        <ele>156.5</ele>
        <time>2022-08-06T11:27:26Z</time>
      </trkpt>
      <trkpt lat="48.53303" lon="1.92269">
        <ele>156.3</ele>
        <time>2022-08-06T11:27:28Z</time>
      </trkpt>
      <trkpt lat="48.5331" lon="1.92271">
        <ele>156.2</ele>
        <time>2022-08-06T11:27:30Z</time>
      </trkpt>
      <trkpt lat="48.53317" lon="1.92274">
        <ele>156.2</ele>
        <time>2022-08-06T11:27:32Z</time>
      </trkpt>
      <trkpt lat="48.53324" lon="1.92277">
        <ele>156</ele>
        <time>2022-08-06T11:27:34Z</time>
      </trkpt>
      <trkpt lat="48.53328" lon="1.92276">
        <ele>156.1</ele>
        <time>2022-08-06T11:27:36Z</time>
      </trkpt>
      <trkpt lat="48.53336" lon="1.92278">
        <ele>156.1</ele>
        <time>2022-08-06T11:27:38Z</time>
      </trkpt>
      <trkpt lat="48.53344" lon="1.92284">
        <ele>156.4</ele>
        <time>2022-08-06T11:27:40Z</time>
      </trkpt>
      <trkpt lat="48.53351" lon="1.9229">
        <ele>156.6</ele>
        <time>2022-08-06T11:27:42Z</time>
      </trkpt>
      <trkpt lat="48.53358" lon="1.92295">
        <ele>156.9</ele>
        <time>2022-08-06T11:27:44Z</time>
      </trkpt>
      <trkpt lat="48.53366" lon="1.92299">
        <ele>157</ele>
        <time>2022-08-06T11:27:46Z</time>
      </trkpt>
      <trkpt lat="48.53373" lon="1.92303">
        <ele>157</ele>
        <time>2022-08-06T11:27:48Z</time>
      </trkpt>
      <trkpt lat="48.5338" lon="1.92305">
        <ele>157</ele>
        <time>2022-08-06T11:27:50Z</time>
      </trkpt>
      <trkpt lat="48.53388" lon="1.92309">
        <ele>157</ele>
        <time>2022-08-06T11:27:52Z</time>
      </trkpt>
      <trkpt lat="48.53395" lon="1.92316">
        <ele>157</ele>
        <time>2022-08-06T11:27:54Z</time>
      </trkpt>
      <trkpt lat="48.53399" lon="1.92325">
        <ele>157</ele>
        <time>2022-08-06T11:27:56Z</time>
      </trkpt>
      <trkpt lat="48.53405" lon="1.92333">
        <ele>157</ele>
        <time>2022-08-06T11:27:58Z</time>
      </trkpt>
      <trkpt lat="48.5341" lon="1.92342">
        <ele>157</ele>
        <time>2022-08-06T11:28:00Z</time>
      </trkpt>
      <trkpt lat="48.53418" lon="1.92349">
        <ele>157</ele>
        <time>2022-08-06T11:28:02Z</time>
      </trkpt>
      <trkpt lat="48.53425" lon="1.92357">
        <ele>157</ele>
        <time>2022-08-06T11:28:04Z</time>
      </trkpt>
      <trkpt lat="48.53431" lon="1.92366">
        <ele>157</ele>
        <time>2022-08-06T11:28:06Z</time>
      </trkpt>
      <trkpt lat="48.53437" lon="1.92374">
        <ele>157</ele>
        <time>2022-08-06T11:28:08Z</time>
      </trkpt>
      <trkpt lat="48.53441" lon="1.92384">
        <ele>157</ele>
        <time>2022-08-06T11:28:10Z</time>
      </trkpt>
      <trkpt lat="48.53444" lon="1.9239">
        <ele>157</ele>
        <time>2022-08-06T11:28:12Z</time>
      </trkpt>
      <trkpt lat="48.53448" lon="1.92399">
        <ele>157</ele>
        <time>2022-08-06T11:28:14Z</time>
      </trkpt>
      <trkpt lat="48.53452" lon="1.92409">
        <ele>157</ele>
        <time>2022-08-06T11:28:16Z</time>
      </trkpt>
      <trkpt lat="48.53456" lon="1.9242">
        <ele>157</ele>
        <time>2022-08-06T11:28:18Z</time>
      </trkpt>
      <trkpt lat="48.53462" lon="1.9243">
        <ele>157</ele>
        <time>2022-08-06T11:28:20Z</time>
      </trkpt>
      <trkpt lat="48.53466" lon="1.92435">
        <ele>157</ele>
        <time>2022-08-06T11:28:22Z</time>
      </trkpt>
      <trkpt lat="48.53473" lon="1.92442">
        <ele>157</ele>
        <time>2022-08-06T11:28:24Z</time>
      </trkpt>
      <trkpt lat="48.53478" lon="1.92449">
        <ele>156.9</ele>
        <time>2022-08-06T11:28:26Z</time>
      </trkpt>
      <trkpt lat="48.53485" lon="1.92453">
        <ele>156.8</ele>
        <time>2022-08-06T11:28:28Z</time>
      </trkpt>
      <trkpt lat="48.53491" lon="1.9246">
        <ele>156.8</ele>
        <time>2022-08-06T11:28:30Z</time>
      </trkpt>
      <trkpt lat="48.53497" lon="1.92467">
        <ele>156.9</ele>
        <time>2022-08-06T11:28:32Z</time>
      </trkpt>
      <trkpt lat="48.535" lon="1.92477">
        <ele>156.8</ele>
        <time>2022-08-06T11:28:34Z</time>
      </trkpt>
      <trkpt lat="48.53506" lon="1.92488">
        <ele>156.6</ele>
        <time>2022-08-06T11:28:36Z</time>
      </trkpt>
      <trkpt lat="48.53511" lon="1.92497">
        <ele>156.5</ele>
        <time>2022-08-06T11:28:38Z</time>
      </trkpt>
      <trkpt lat="48.53517" lon="1.92509">
        <ele>156.6</ele>
        <time>2022-08-06T11:28:40Z</time>
      </trkpt>
      <trkpt lat="48.53523" lon="1.92519">
        <ele>156.8</ele>
        <time>2022-08-06T11:28:42Z</time>
      </trkpt>
      <trkpt lat="48.53529" lon="1.92531">
        <ele>157</ele>
        <time>2022-08-06T11:28:44Z</time>
      </trkpt>
      <trkpt lat="48.53533" lon="1.92543">
        <ele>157</ele>
        <time>2022-08-06T11:28:46Z</time>
      </trkpt>
      <trkpt lat="48.53537" lon="1.92555">
        <ele>157</ele>
        <time>2022-08-06T11:28:48Z</time>
      </trkpt>
      <trkpt lat="48.53544" lon="1.92566">
        <ele>156.8</ele>
        <time>2022-08-06T11:28:50Z</time>
      </trkpt>
      <trkpt lat="48.53552" lon="1.92575">
        <ele>156.9</ele>
        <time>2022-08-06T11:28:52Z</time>
      </trkpt>
      <trkpt lat="48.53559" lon="1.92584">
        <ele>156.9</ele>
        <time>2022-08-06T11:28:54Z</time>
      </trkpt>
      <trkpt lat="48.53566" lon="1.92591">
        <ele>156.6</ele>
        <time>2022-08-06T11:28:56Z</time>
      </trkpt>
      <trkpt lat="48.53573" lon="1.92597">
        <ele>156.4</ele>
        <time>2022-08-06T11:28:58Z</time>
      </trkpt>
      <trkpt lat="48.53579" lon="1.92612">
        <ele>156.2</ele>
        <time>2022-08-06T11:29:00Z</time>
      </trkpt>
      <trkpt lat="48.53586" lon="1.92623">
        <ele>156</ele>
        <time>2022-08-06T11:29:02Z</time>
      </trkpt>
      <trkpt lat="48.53593" lon="1.92632">
        <ele>156</ele>
        <time>2022-08-06T11:29:04Z</time>
      </trkpt>
      <trkpt lat="48.53598" lon="1.92643">
        <ele>156</ele>
        <time>2022-08-06T11:29:06Z</time>
      </trkpt>
      <trkpt lat="48.53607" lon="1.92648">
        <ele>156</ele>
        <time>2022-08-06T11:29:08Z</time>
      </trkpt>
      <trkpt lat="48.53614" lon="1.92653">
        <ele>155.8</ele>
        <time>2022-08-06T11:29:10Z</time>
      </trkpt>
      <trkpt lat="48.53623" lon="1.92663">
        <ele>155.2</ele>
        <time>2022-08-06T11:29:12Z</time>
      </trkpt>
      <trkpt lat="48.53631" lon="1.92671">
        <ele>154.5</ele>
        <time>2022-08-06T11:29:14Z</time>
      </trkpt>
      <trkpt lat="48.53642" lon="1.92678">
        <ele>153.9</ele>
        <time>2022-08-06T11:29:16Z</time>
      </trkpt>
      <trkpt lat="48.53652" lon="1.92684">
        <ele>153.5</ele>
        <time>2022-08-06T11:29:18Z</time>
      </trkpt>
      <trkpt lat="48.53659" lon="1.92691">
        <ele>153.3</ele>
        <time>2022-08-06T11:29:20Z</time>
      </trkpt>
      <trkpt lat="48.53673" lon="1.92692">
        <ele>152.5</ele>
        <time>2022-08-06T11:29:22Z</time>
      </trkpt>
      <trkpt lat="48.53685" lon="1.92694">
        <ele>151.7</ele>
        <time>2022-08-06T11:29:24Z</time>
      </trkpt>
      <trkpt lat="48.53698" lon="1.92697">
        <ele>150.8</ele>
        <time>2022-08-06T11:29:26Z</time>
      </trkpt>
      <trkpt lat="48.53711" lon="1.92701">
        <ele>150.1</ele>
        <time>2022-08-06T11:29:28Z</time>
      </trkpt>
      <trkpt lat="48.53723" lon="1.92707">
        <ele>149.3</ele>
        <time>2022-08-06T11:29:30Z</time>
      </trkpt>
      <trkpt lat="48.53735" lon="1.92713">
        <ele>148.5</ele>
        <time>2022-08-06T11:29:32Z</time>
      </trkpt>
      <trkpt lat="48.53749" lon="1.92719">
        <ele>147.1</ele>
        <time>2022-08-06T11:29:34Z</time>
      </trkpt>
      <trkpt lat="48.5376" lon="1.92726">
        <ele>146.2</ele>
        <time>2022-08-06T11:29:36Z</time>
      </trkpt>
      <trkpt lat="48.53775" lon="1.92736">
        <ele>145.2</ele>
        <time>2022-08-06T11:29:38Z</time>
      </trkpt>
      <trkpt lat="48.5379" lon="1.92747">
        <ele>144.2</ele>
        <time>2022-08-06T11:29:40Z</time>
      </trkpt>
      <trkpt lat="48.53805" lon="1.92757">
        <ele>143</ele>
        <time>2022-08-06T11:29:42Z</time>
      </trkpt>
      <trkpt lat="48.53823" lon="1.92767">
        <ele>141.8</ele>
        <time>2022-08-06T11:29:44Z</time>
      </trkpt>
      <trkpt lat="48.5384" lon="1.92777">
        <ele>140.8</ele>
        <time>2022-08-06T11:29:46Z</time>
      </trkpt>
      <trkpt lat="48.53857" lon="1.92785">
        <ele>139.9</ele>
        <time>2022-08-06T11:29:48Z</time>
      </trkpt>
      <trkpt lat="48.53874" lon="1.92793">
        <ele>139.7</ele>
        <time>2022-08-06T11:29:50Z</time>
      </trkpt>
      <trkpt lat="48.53885" lon="1.92805">
        <ele>139.9</ele>
        <time>2022-08-06T11:29:52Z</time>
      </trkpt>
      <trkpt lat="48.53895" lon="1.92819">
        <ele>140.8</ele>
        <time>2022-08-06T11:29:54Z</time>
      </trkpt>
      <trkpt lat="48.53902" lon="1.92833">
        <ele>141.8</ele>
        <time>2022-08-06T11:29:56Z</time>
      </trkpt>
      <trkpt lat="48.53908" lon="1.92843">
        <ele>142.7</ele>
        <time>2022-08-06T11:29:58Z</time>
      </trkpt>
      <trkpt lat="48.53912" lon="1.92853">
        <ele>143.4</ele>
        <time>2022-08-06T11:30:00Z</time>
      </trkpt>
      <trkpt lat="48.53916" lon="1.92861">
        <ele>143.9</ele>
        <time>2022-08-06T11:30:02Z</time>
      </trkpt>
      <trkpt lat="48.53919" lon="1.92869">
        <ele>144.6</ele>
        <time>2022-08-06T11:30:04Z</time>
      </trkpt>
      <trkpt lat="48.53922" lon="1.92875">
        <ele>145.3</ele>
        <time>2022-08-06T11:30:06Z</time>
      </trkpt>
      <trkpt lat="48.53925" lon="1.92881">
        <ele>145.9</ele>
        <time>2022-08-06T11:30:08Z</time>
      </trkpt>
      <trkpt lat="48.53928" lon="1.92889">
        <ele>146.6</ele>
        <time>2022-08-06T11:30:10Z</time>
      </trkpt>
      <trkpt lat="48.53932" lon="1.92897">
        <ele>147.2</ele>
        <time>2022-08-06T11:30:12Z</time>
      </trkpt>
      <trkpt lat="48.53938" lon="1.92903">
        <ele>148</ele>
        <time>2022-08-06T11:30:14Z</time>
      </trkpt>
      <trkpt lat="48.5394" lon="1.92909">
        <ele>148.3</ele>
        <time>2022-08-06T11:30:16Z</time>
      </trkpt>
      <trkpt lat="48.53943" lon="1.92914">
        <ele>148.8</ele>
        <time>2022-08-06T11:30:18Z</time>
      </trkpt>
      <trkpt lat="48.53946" lon="1.9292">
        <ele>149.3</ele>
        <time>2022-08-06T11:30:20Z</time>
      </trkpt>
      <trkpt lat="48.5395" lon="1.92924">
        <ele>149.8</ele>
        <time>2022-08-06T11:30:22Z</time>
      </trkpt>
      <trkpt lat="48.53956" lon="1.92928">
        <ele>150.5</ele>
        <time>2022-08-06T11:30:24Z</time>
      </trkpt>
      <trkpt lat="48.53959" lon="1.92933">
        <ele>150.9</ele>
        <time>2022-08-06T11:30:26Z</time>
      </trkpt>
      <trkpt lat="48.53964" lon="1.92936">
        <ele>151.3</ele>
        <time>2022-08-06T11:30:28Z</time>
      </trkpt>
      <trkpt lat="48.5397" lon="1.92942">
        <ele>151.8</ele>
        <time>2022-08-06T11:30:32Z</time>
      </trkpt>
      <trkpt lat="48.53974" lon="1.92947">
        <ele>152.2</ele>
        <time>2022-08-06T11:30:34Z</time>
      </trkpt>
      <trkpt lat="48.53979" lon="1.92953">
        <ele>152.5</ele>
        <time>2022-08-06T11:30:38Z</time>
      </trkpt>
      <trkpt lat="48.53986" lon="1.9296">
        <ele>153</ele>
        <time>2022-08-06T11:30:42Z</time>
      </trkpt>
      <trkpt lat="48.53993" lon="1.92966">
        <ele>153.5</ele>
        <time>2022-08-06T11:30:46Z</time>
      </trkpt>
      <trkpt lat="48.53997" lon="1.9297">
        <ele>153.8</ele>
        <time>2022-08-06T11:30:48Z</time>
      </trkpt>
      <trkpt lat="48.54004" lon="1.92978">
        <ele>154.2</ele>
        <time>2022-08-06T11:30:52Z</time>
      </trkpt>
      <trkpt lat="48.54013" lon="1.92986">
        <ele>154.5</ele>
        <time>2022-08-06T11:30:56Z</time>
      </trkpt>
      <trkpt lat="48.54018" lon="1.9299">
        <ele>154.6</ele>
        <time>2022-08-06T11:30:58Z</time>
      </trkpt>
      <trkpt lat="48.54022" lon="1.92995">
        <ele>154.8</ele>
        <time>2022-08-06T11:31:00Z</time>
      </trkpt>
      <trkpt lat="48.54026" lon="1.93">
        <ele>154.9</ele>
        <time>2022-08-06T11:31:02Z</time>
      </trkpt>
      <trkpt lat="48.5403" lon="1.93004">
        <ele>155.1</ele>
        <time>2022-08-06T11:31:04Z</time>
      </trkpt>
      <trkpt lat="48.54036" lon="1.9301">
        <ele>155.3</ele>
        <time>2022-08-06T11:31:06Z</time>
      </trkpt>
      <trkpt lat="48.54039" lon="1.93017">
        <ele>155.4</ele>
        <time>2022-08-06T11:31:08Z</time>
      </trkpt>
      <trkpt lat="48.54042" lon="1.93025">
        <ele>155.5</ele>
        <time>2022-08-06T11:31:10Z</time>
      </trkpt>
      <trkpt lat="48.54049" lon="1.93036">
        <ele>155.5</ele>
        <time>2022-08-06T11:31:14Z</time>
      </trkpt>
      <trkpt lat="48.54053" lon="1.93042">
        <ele>155.4</ele>
        <time>2022-08-06T11:31:16Z</time>
      </trkpt>
      <trkpt lat="48.54058" lon="1.9305">
        <ele>155.2</ele>
        <time>2022-08-06T11:31:18Z</time>
      </trkpt>
      <trkpt lat="48.54061" lon="1.93055">
        <ele>155</ele>
        <time>2022-08-06T11:31:20Z</time>
      </trkpt>
      <trkpt lat="48.54065" lon="1.93062">
        <ele>154.8</ele>
        <time>2022-08-06T11:31:22Z</time>
      </trkpt>
      <trkpt lat="48.54068" lon="1.9307">
        <ele>154.7</ele>
        <time>2022-08-06T11:31:24Z</time>
      </trkpt>
      <trkpt lat="48.5407" lon="1.93078">
        <ele>154.6</ele>
        <time>2022-08-06T11:31:26Z</time>
      </trkpt>
      <trkpt lat="48.54073" lon="1.93088">
        <ele>154.5</ele>
        <time>2022-08-06T11:31:28Z</time>
      </trkpt>
      <trkpt lat="48.54076" lon="1.93097">
        <ele>154.2</ele>
        <time>2022-08-06T11:31:30Z</time>
      </trkpt>
      <trkpt lat="48.54081" lon="1.93108">
        <ele>154</ele>
        <time>2022-08-06T11:31:32Z</time>
      </trkpt>
      <trkpt lat="48.54081" lon="1.93122">
        <ele>153.6</ele>
        <time>2022-08-06T11:31:34Z</time>
      </trkpt>
      <trkpt lat="48.54082" lon="1.93137">
        <ele>153</ele>
        <time>2022-08-06T11:31:36Z</time>
      </trkpt>
      <trkpt lat="48.54086" lon="1.93151">
        <ele>152.1</ele>
        <time>2022-08-06T11:31:38Z</time>
      </trkpt>
      <trkpt lat="48.54091" lon="1.93163">
        <ele>151.5</ele>
        <time>2022-08-06T11:31:40Z</time>
      </trkpt>
      <trkpt lat="48.54094" lon="1.93172">
        <ele>151.1</ele>
        <time>2022-08-06T11:31:42Z</time>
      </trkpt>
      <trkpt lat="48.54097" lon="1.93178">
        <ele>150.9</ele>
        <time>2022-08-06T11:31:46Z</time>
      </trkpt>
      <trkpt lat="48.54098" lon="1.93187">
        <ele>150.4</ele>
        <time>2022-08-06T11:33:06Z</time>
      </trkpt>
      <trkpt lat="48.54102" lon="1.93195">
        <ele>150</ele>
        <time>2022-08-06T11:33:08Z</time>
      </trkpt>
      <trkpt lat="48.54107" lon="1.93205">
        <ele>149.6</ele>
        <time>2022-08-06T11:33:10Z</time>
      </trkpt>
      <trkpt lat="48.54113" lon="1.93217">
        <ele>149.2</ele>
        <time>2022-08-06T11:33:12Z</time>
      </trkpt>
      <trkpt lat="48.5412" lon="1.9323">
        <ele>148.5</ele>
        <time>2022-08-06T11:33:14Z</time>
      </trkpt>
      <trkpt lat="48.54126" lon="1.93243">
        <ele>147.5</ele>
        <time>2022-08-06T11:33:16Z</time>
      </trkpt>
      <trkpt lat="48.54133" lon="1.93257">
        <ele>146.7</ele>
        <time>2022-08-06T11:33:18Z</time>
      </trkpt>
      <trkpt lat="48.54141" lon="1.93272">
        <ele>146.2</ele>
        <time>2022-08-06T11:33:20Z</time>
      </trkpt>
      <trkpt lat="48.54148" lon="1.93286">
        <ele>145.7</ele>
        <time>2022-08-06T11:33:22Z</time>
      </trkpt>
      <trkpt lat="48.54156" lon="1.933">
        <ele>145.2</ele>
        <time>2022-08-06T11:33:24Z</time>
      </trkpt>
      <trkpt lat="48.54163" lon="1.93315">
        <ele>144.7</ele>
        <time>2022-08-06T11:33:26Z</time>
      </trkpt>
      <trkpt lat="48.54171" lon="1.93329">
        <ele>144.2</ele>
        <time>2022-08-06T11:33:28Z</time>
      </trkpt>
      <trkpt lat="48.54178" lon="1.93343">
        <ele>143.5</ele>
        <time>2022-08-06T11:33:30Z</time>
      </trkpt>
      <trkpt lat="48.54185" lon="1.93357">
        <ele>142.6</ele>
        <time>2022-08-06T11:33:32Z</time>
      </trkpt>
      <trkpt lat="48.54193" lon="1.93371">
        <ele>142</ele>
        <time>2022-08-06T11:33:34Z</time>
      </trkpt>
      <trkpt lat="48.542" lon="1.93386">
        <ele>141.8</ele>
        <time>2022-08-06T11:33:36Z</time>
      </trkpt>
      <trkpt lat="48.54208" lon="1.93402">
        <ele>141.1</ele>
        <time>2022-08-06T11:33:38Z</time>
      </trkpt>
      <trkpt lat="48.54216" lon="1.93416">
        <ele>140.3</ele>
        <time>2022-08-06T11:33:40Z</time>
      </trkpt>
      <trkpt lat="48.54224" lon="1.9343">
        <ele>140</ele>
        <time>2022-08-06T11:33:42Z</time>
      </trkpt>
      <trkpt lat="48.54231" lon="1.93445">
        <ele>139.7</ele>
        <time>2022-08-06T11:33:44Z</time>
      </trkpt>
      <trkpt lat="48.54238" lon="1.9346">
        <ele>138.8</ele>
        <time>2022-08-06T11:33:46Z</time>
      </trkpt>
      <trkpt lat="48.54246" lon="1.93476">
        <ele>138</ele>
        <time>2022-08-06T11:33:48Z</time>
      </trkpt>
      <trkpt lat="48.54254" lon="1.93493">
        <ele>137.2</ele>
        <time>2022-08-06T11:33:50Z</time>
      </trkpt>
      <trkpt lat="48.54261" lon="1.9351">
        <ele>136.9</ele>
        <time>2022-08-06T11:33:52Z</time>
      </trkpt>
      <trkpt lat="48.54267" lon="1.93527">
        <ele>136.4</ele>
        <time>2022-08-06T11:33:54Z</time>
      </trkpt>
      <trkpt lat="48.54272" lon="1.93545">
        <ele>136.1</ele>
        <time>2022-08-06T11:33:56Z</time>
      </trkpt>
      <trkpt lat="48.54277" lon="1.93562">
        <ele>135.8</ele>
        <time>2022-08-06T11:33:58Z</time>
      </trkpt>
      <trkpt lat="48.54281" lon="1.9358">
        <ele>135.1</ele>
        <time>2022-08-06T11:34:00Z</time>
      </trkpt>
      <trkpt lat="48.54285" lon="1.93597">
        <ele>134.9</ele>
        <time>2022-08-06T11:34:02Z</time>
      </trkpt>
      <trkpt lat="48.54291" lon="1.9361">
        <ele>134.5</ele>
        <time>2022-08-06T11:34:04Z</time>
      </trkpt>
      <trkpt lat="48.54298" lon="1.93622">
        <ele>134.2</ele>
        <time>2022-08-06T11:34:06Z</time>
      </trkpt>
      <trkpt lat="48.54304" lon="1.93636">
        <ele>134</ele>
        <time>2022-08-06T11:34:08Z</time>
      </trkpt>
      <trkpt lat="48.5431" lon="1.93651">
        <ele>133.6</ele>
        <time>2022-08-06T11:34:10Z</time>
      </trkpt>
      <trkpt lat="48.54317" lon="1.93666">
        <ele>133</ele>
        <time>2022-08-06T11:34:12Z</time>
      </trkpt>
      <trkpt lat="48.54325" lon="1.93681">
        <ele>132.6</ele>
        <time>2022-08-06T11:34:14Z</time>
      </trkpt>
      <trkpt lat="48.54334" lon="1.93698">
        <ele>132</ele>
        <time>2022-08-06T11:34:16Z</time>
      </trkpt>
      <trkpt lat="48.54343" lon="1.93714">
        <ele>131.5</ele>
        <time>2022-08-06T11:34:18Z</time>
      </trkpt>
      <trkpt lat="48.54351" lon="1.93729">
        <ele>130.5</ele>
        <time>2022-08-06T11:34:20Z</time>
      </trkpt>
      <trkpt lat="48.54357" lon="1.9374">
        <ele>129.7</ele>
        <time>2022-08-06T11:34:22Z</time>
      </trkpt>
      <trkpt lat="48.54361" lon="1.93748">
        <ele>129.1</ele>
        <time>2022-08-06T11:34:24Z</time>
      </trkpt>
      <trkpt lat="48.54364" lon="1.93754">
        <ele>129</ele>
        <time>2022-08-06T11:34:26Z</time>
      </trkpt>
      <trkpt lat="48.54367" lon="1.93762">
        <ele>128.9</ele>
        <time>2022-08-06T11:34:28Z</time>
      </trkpt>
      <trkpt lat="48.5437" lon="1.9377">
        <ele>128.8</ele>
        <time>2022-08-06T11:34:30Z</time>
      </trkpt>
      <trkpt lat="48.54373" lon="1.9378">
        <ele>128.5</ele>
        <time>2022-08-06T11:34:32Z</time>
      </trkpt>
      <trkpt lat="48.54376" lon="1.93792">
        <ele>128.2</ele>
        <time>2022-08-06T11:34:34Z</time>
      </trkpt>
      <trkpt lat="48.54378" lon="1.93805">
        <ele>128</ele>
        <time>2022-08-06T11:34:36Z</time>
      </trkpt>
      <trkpt lat="48.54381" lon="1.93818">
        <ele>128</ele>
        <time>2022-08-06T11:34:38Z</time>
      </trkpt>
      <trkpt lat="48.54385" lon="1.9383">
        <ele>128</ele>
        <time>2022-08-06T11:34:40Z</time>
      </trkpt>
      <trkpt lat="48.54388" lon="1.93843">
        <ele>128.3</ele>
        <time>2022-08-06T11:34:42Z</time>
      </trkpt>
      <trkpt lat="48.54391" lon="1.93855">
        <ele>128.8</ele>
        <time>2022-08-06T11:34:44Z</time>
      </trkpt>
      <trkpt lat="48.54396" lon="1.93866">
        <ele>129.2</ele>
        <time>2022-08-06T11:34:46Z</time>
      </trkpt>
      <trkpt lat="48.54401" lon="1.93873">
        <ele>129.4</ele>
        <time>2022-08-06T11:34:48Z</time>
      </trkpt>
      <trkpt lat="48.54405" lon="1.93877">
        <ele>129.6</ele>
        <time>2022-08-06T11:34:50Z</time>
      </trkpt>
      <trkpt lat="48.54412" lon="1.93885">
        <ele>129.9</ele>
        <time>2022-08-06T11:34:54Z</time>
      </trkpt>
      <trkpt lat="48.54416" lon="1.9389">
        <ele>130.1</ele>
        <time>2022-08-06T11:34:56Z</time>
      </trkpt>
      <trkpt lat="48.54421" lon="1.93896">
        <ele>131.1</ele>
        <time>2022-08-06T11:34:58Z</time>
      </trkpt>
      <trkpt lat="48.54426" lon="1.93902">
        <ele>131.9</ele>
        <time>2022-08-06T11:35:00Z</time>
      </trkpt>
      <trkpt lat="48.54429" lon="1.93907">
        <ele>132.4</ele>
        <time>2022-08-06T11:35:02Z</time>
      </trkpt>
      <trkpt lat="48.54433" lon="1.93913">
        <ele>133</ele>
        <time>2022-08-06T11:35:04Z</time>
      </trkpt>
      <trkpt lat="48.54437" lon="1.93918">
        <ele>133.4</ele>
        <time>2022-08-06T11:35:06Z</time>
      </trkpt>
      <trkpt lat="48.5444" lon="1.93924">
        <ele>134.2</ele>
        <time>2022-08-06T11:35:08Z</time>
      </trkpt>
      <trkpt lat="48.54444" lon="1.93929">
        <ele>134.7</ele>
        <time>2022-08-06T11:35:10Z</time>
      </trkpt>
      <trkpt lat="48.5445" lon="1.93935">
        <ele>135.4</ele>
        <time>2022-08-06T11:35:14Z</time>
      </trkpt>
      <trkpt lat="48.54456" lon="1.93932">
        <ele>135</ele>
        <time>2022-08-06T11:35:18Z</time>
      </trkpt>
      <trkpt lat="48.54461" lon="1.93932">
        <ele>134.8</ele>
        <time>2022-08-06T11:35:20Z</time>
      </trkpt>
      <trkpt lat="48.54467" lon="1.93932">
        <ele>134.7</ele>
        <time>2022-08-06T11:35:24Z</time>
      </trkpt>
      <trkpt lat="48.54475" lon="1.93932">
        <ele>134.8</ele>
        <time>2022-08-06T11:35:28Z</time>
      </trkpt>
      <trkpt lat="48.5448" lon="1.93932">
        <ele>135.1</ele>
        <time>2022-08-06T11:35:32Z</time>
      </trkpt>
      <trkpt lat="48.54487" lon="1.93932">
        <ele>135.7</ele>
        <time>2022-08-06T11:35:36Z</time>
      </trkpt>
      <trkpt lat="48.54492" lon="1.93932">
        <ele>136</ele>
        <time>2022-08-06T11:35:40Z</time>
      </trkpt>
      <trkpt lat="48.545" lon="1.93934">
        <ele>136.6</ele>
        <time>2022-08-06T11:35:44Z</time>
      </trkpt>
      <trkpt lat="48.54506" lon="1.93938">
        <ele>137.3</ele>
        <time>2022-08-06T11:35:48Z</time>
      </trkpt>
      <trkpt lat="48.54511" lon="1.93944">
        <ele>138.2</ele>
        <time>2022-08-06T11:35:54Z</time>
      </trkpt>
      <trkpt lat="48.54515" lon="1.93949">
        <ele>138.9</ele>
        <time>2022-08-06T11:35:58Z</time>
      </trkpt>
      <trkpt lat="48.5452" lon="1.93955">
        <ele>140</ele>
        <time>2022-08-06T11:36:02Z</time>
      </trkpt>
      <trkpt lat="48.54527" lon="1.93961">
        <ele>141.1</ele>
        <time>2022-08-06T11:36:06Z</time>
      </trkpt>
      <trkpt lat="48.54532" lon="1.93966">
        <ele>141.8</ele>
        <time>2022-08-06T11:36:10Z</time>
      </trkpt>
      <trkpt lat="48.54536" lon="1.93972">
        <ele>142.6</ele>
        <time>2022-08-06T11:36:14Z</time>
      </trkpt>
      <trkpt lat="48.5454" lon="1.93979">
        <ele>144.2</ele>
        <time>2022-08-06T11:36:18Z</time>
      </trkpt>
      <trkpt lat="48.54543" lon="1.93987">
        <ele>146</ele>
        <time>2022-08-06T11:36:22Z</time>
      </trkpt>
      <trkpt lat="48.54547" lon="1.93994">
        <ele>147.5</ele>
        <time>2022-08-06T11:36:26Z</time>
      </trkpt>
      <trkpt lat="48.54552" lon="1.93999">
        <ele>148.7</ele>
        <time>2022-08-06T11:36:30Z</time>
      </trkpt>
      <trkpt lat="48.54556" lon="1.94004">
        <ele>149.8</ele>
        <time>2022-08-06T11:36:34Z</time>
      </trkpt>
      <trkpt lat="48.54561" lon="1.94009">
        <ele>150.5</ele>
        <time>2022-08-06T11:36:38Z</time>
      </trkpt>
      <trkpt lat="48.54565" lon="1.94015">
        <ele>151.5</ele>
        <time>2022-08-06T11:36:42Z</time>
      </trkpt>
      <trkpt lat="48.54569" lon="1.94019">
        <ele>152.2</ele>
        <time>2022-08-06T11:36:46Z</time>
      </trkpt>
      <trkpt lat="48.54573" lon="1.94024">
        <ele>152.7</ele>
        <time>2022-08-06T11:36:50Z</time>
      </trkpt>
      <trkpt lat="48.54578" lon="1.94029">
        <ele>153.4</ele>
        <time>2022-08-06T11:36:54Z</time>
      </trkpt>
      <trkpt lat="48.54583" lon="1.94032">
        <ele>153.7</ele>
        <time>2022-08-06T11:36:58Z</time>
      </trkpt>
      <trkpt lat="48.54589" lon="1.94037">
        <ele>154.5</ele>
        <time>2022-08-06T11:37:02Z</time>
      </trkpt>
      <trkpt lat="48.54593" lon="1.94043">
        <ele>155.3</ele>
        <time>2022-08-06T11:37:06Z</time>
      </trkpt>
      <trkpt lat="48.54598" lon="1.94048">
        <ele>156.1</ele>
        <time>2022-08-06T11:37:12Z</time>
      </trkpt>
      <trkpt lat="48.54602" lon="1.94052">
        <ele>156.5</ele>
        <time>2022-08-06T11:37:16Z</time>
      </trkpt>
      <trkpt lat="48.54609" lon="1.94052">
        <ele>156.6</ele>
        <time>2022-08-06T11:37:22Z</time>
      </trkpt>
      <trkpt lat="48.54615" lon="1.94048">
        <ele>156.4</ele>
        <time>2022-08-06T11:37:28Z</time>
      </trkpt>
      <trkpt lat="48.54621" lon="1.94044">
        <ele>156.4</ele>
        <time>2022-08-06T11:37:32Z</time>
      </trkpt>
      <trkpt lat="48.54626" lon="1.94041">
        <ele>156.5</ele>
        <time>2022-08-06T11:37:36Z</time>
      </trkpt>
      <trkpt lat="48.54631" lon="1.94038">
        <ele>156.7</ele>
        <time>2022-08-06T11:37:42Z</time>
      </trkpt>
      <trkpt lat="48.54636" lon="1.94035">
        <ele>157</ele>
        <time>2022-08-06T11:37:48Z</time>
      </trkpt>
      <trkpt lat="48.54641" lon="1.94031">
        <ele>157.3</ele>
        <time>2022-08-06T11:37:56Z</time>
      </trkpt>
      <trkpt lat="48.54645" lon="1.94026">
        <ele>157.5</ele>
        <time>2022-08-06T11:38:02Z</time>
      </trkpt>
      <trkpt lat="48.5465" lon="1.94024">
        <ele>157.8</ele>
        <time>2022-08-06T11:38:08Z</time>
      </trkpt>
      <trkpt lat="48.54656" lon="1.94023">
        <ele>158.2</ele>
        <time>2022-08-06T11:38:12Z</time>
      </trkpt>
      <trkpt lat="48.54661" lon="1.94018">
        <ele>158.6</ele>
        <time>2022-08-06T11:38:30Z</time>
      </trkpt>
      <trkpt lat="48.54665" lon="1.94014">
        <ele>158.9</ele>
        <time>2022-08-06T11:38:32Z</time>
      </trkpt>
      <trkpt lat="48.54674" lon="1.94007">
        <ele>159.5</ele>
        <time>2022-08-06T11:38:36Z</time>
      </trkpt>
      <trkpt lat="48.5468" lon="1.94005">
        <ele>159.9</ele>
        <time>2022-08-06T11:38:38Z</time>
      </trkpt>
      <trkpt lat="48.54687" lon="1.94">
        <ele>160.5</ele>
        <time>2022-08-06T11:38:40Z</time>
      </trkpt>
      <trkpt lat="48.54694" lon="1.93996">
        <ele>161</ele>
        <time>2022-08-06T11:38:42Z</time>
      </trkpt>
      <trkpt lat="48.547" lon="1.93992">
        <ele>161</ele>
        <time>2022-08-06T11:38:44Z</time>
      </trkpt>
      <trkpt lat="48.54705" lon="1.93988">
        <ele>161</ele>
        <time>2022-08-06T11:38:46Z</time>
      </trkpt>
      <trkpt lat="48.54713" lon="1.93984">
        <ele>161</ele>
        <time>2022-08-06T11:38:48Z</time>
      </trkpt>
      <trkpt lat="48.5472" lon="1.9398">
        <ele>161</ele>
        <time>2022-08-06T11:38:50Z</time>
      </trkpt>
      <trkpt lat="48.54727" lon="1.93976">
        <ele>161</ele>
        <time>2022-08-06T11:38:52Z</time>
      </trkpt>
      <trkpt lat="48.54734" lon="1.93974">
        <ele>161</ele>
        <time>2022-08-06T11:38:54Z</time>
      </trkpt>
      <trkpt lat="48.54741" lon="1.93972">
        <ele>161</ele>
        <time>2022-08-06T11:38:56Z</time>
      </trkpt>
      <trkpt lat="48.54749" lon="1.93974">
        <ele>161</ele>
        <time>2022-08-06T11:38:58Z</time>
      </trkpt>
      <trkpt lat="48.54755" lon="1.93973">
        <ele>161</ele>
        <time>2022-08-06T11:39:00Z</time>
      </trkpt>
      <trkpt lat="48.54761" lon="1.93973">
        <ele>161</ele>
        <time>2022-08-06T11:39:02Z</time>
      </trkpt>
      <trkpt lat="48.54769" lon="1.9397">
        <ele>161</ele>
        <time>2022-08-06T11:39:04Z</time>
      </trkpt>
      <trkpt lat="48.54776" lon="1.93967">
        <ele>161</ele>
        <time>2022-08-06T11:39:06Z</time>
      </trkpt>
      <trkpt lat="48.54781" lon="1.93961">
        <ele>161</ele>
        <time>2022-08-06T11:39:08Z</time>
      </trkpt>
      <trkpt lat="48.54789" lon="1.93958">
        <ele>161</ele>
        <time>2022-08-06T11:39:10Z</time>
      </trkpt>
      <trkpt lat="48.54792" lon="1.93955">
        <ele>161</ele>
        <time>2022-08-06T11:39:12Z</time>
      </trkpt>
      <trkpt lat="48.54797" lon="1.93951">
        <ele>161</ele>
        <time>2022-08-06T11:39:14Z</time>
      </trkpt>
      <trkpt lat="48.54801" lon="1.93945">
        <ele>161</ele>
        <time>2022-08-06T11:39:16Z</time>
      </trkpt>
      <trkpt lat="48.54806" lon="1.93937">
        <ele>160.7</ele>
        <time>2022-08-06T11:39:18Z</time>
      </trkpt>
      <trkpt lat="48.54809" lon="1.93931">
        <ele>160.5</ele>
        <time>2022-08-06T11:39:20Z</time>
      </trkpt>
      <trkpt lat="48.5481" lon="1.93924">
        <ele>160.2</ele>
        <time>2022-08-06T11:39:22Z</time>
      </trkpt>
      <trkpt lat="48.54811" lon="1.93914">
        <ele>160</ele>
        <time>2022-08-06T11:39:24Z</time>
      </trkpt>
      <trkpt lat="48.5481" lon="1.93905">
        <ele>160</ele>
        <time>2022-08-06T11:39:26Z</time>
      </trkpt>
      <trkpt lat="48.54811" lon="1.93897">
        <ele>160</ele>
        <time>2022-08-06T11:39:28Z</time>
      </trkpt>
      <trkpt lat="48.54811" lon="1.93889">
        <ele>160</ele>
        <time>2022-08-06T11:39:30Z</time>
      </trkpt>
      <trkpt lat="48.54811" lon="1.93881">
        <ele>160</ele>
        <time>2022-08-06T11:39:32Z</time>
      </trkpt>
      <trkpt lat="48.54813" lon="1.93873">
        <ele>160</ele>
        <time>2022-08-06T11:39:34Z</time>
      </trkpt>
      <trkpt lat="48.54813" lon="1.93863">
        <ele>160</ele>
        <time>2022-08-06T11:39:36Z</time>
      </trkpt>
      <trkpt lat="48.54813" lon="1.93852">
        <ele>160</ele>
        <time>2022-08-06T11:39:38Z</time>
      </trkpt>
      <trkpt lat="48.54814" lon="1.93841">
        <ele>160</ele>
        <time>2022-08-06T11:39:40Z</time>
      </trkpt>
      <trkpt lat="48.54815" lon="1.93829">
        <ele>159.8</ele>
        <time>2022-08-06T11:39:42Z</time>
      </trkpt>
      <trkpt lat="48.54816" lon="1.93817">
        <ele>159.4</ele>
        <time>2022-08-06T11:39:44Z</time>
      </trkpt>
      <trkpt lat="48.54817" lon="1.93805">
        <ele>159</ele>
        <time>2022-08-06T11:39:46Z</time>
      </trkpt>
      <trkpt lat="48.54819" lon="1.93792">
        <ele>159</ele>
        <time>2022-08-06T11:39:48Z</time>
      </trkpt>
      <trkpt lat="48.5482" lon="1.93781">
        <ele>159</ele>
        <time>2022-08-06T11:39:50Z</time>
      </trkpt>
      <trkpt lat="48.54822" lon="1.93766">
        <ele>159</ele>
        <time>2022-08-06T11:39:52Z</time>
      </trkpt>
      <trkpt lat="48.54824" lon="1.93752">
        <ele>159</ele>
        <time>2022-08-06T11:39:54Z</time>
      </trkpt>
      <trkpt lat="48.54826" lon="1.93739">
        <ele>159</ele>
        <time>2022-08-06T11:39:56Z</time>
      </trkpt>
      <trkpt lat="48.54829" lon="1.93723">
        <ele>159</ele>
        <time>2022-08-06T11:39:58Z</time>
      </trkpt>
      <trkpt lat="48.54834" lon="1.93711">
        <ele>159</ele>
        <time>2022-08-06T11:40:00Z</time>
      </trkpt>
      <trkpt lat="48.54835" lon="1.93698">
        <ele>159</ele>
        <time>2022-08-06T11:40:02Z</time>
      </trkpt>
      <trkpt lat="48.54837" lon="1.93684">
        <ele>159</ele>
        <time>2022-08-06T11:40:04Z</time>
      </trkpt>
      <trkpt lat="48.54839" lon="1.93671">
        <ele>159</ele>
        <time>2022-08-06T11:40:06Z</time>
      </trkpt>
      <trkpt lat="48.54843" lon="1.93658">
        <ele>158.7</ele>
        <time>2022-08-06T11:40:08Z</time>
      </trkpt>
      <trkpt lat="48.54845" lon="1.93645">
        <ele>158.2</ele>
        <time>2022-08-06T11:40:10Z</time>
      </trkpt>
      <trkpt lat="48.54847" lon="1.93634">
        <ele>157.9</ele>
        <time>2022-08-06T11:40:12Z</time>
      </trkpt>
      <trkpt lat="48.54853" lon="1.93623">
        <ele>157.8</ele>
        <time>2022-08-06T11:40:14Z</time>
      </trkpt>
      <trkpt lat="48.54856" lon="1.93613">
        <ele>157.8</ele>
        <time>2022-08-06T11:40:16Z</time>
      </trkpt>
      <trkpt lat="48.54861" lon="1.936">
        <ele>157.6</ele>
        <time>2022-08-06T11:40:18Z</time>
      </trkpt>
      <trkpt lat="48.54868" lon="1.93591">
        <ele>157.7</ele>
        <time>2022-08-06T11:40:20Z</time>
      </trkpt>
      <trkpt lat="48.54872" lon="1.93582">
        <ele>157.8</ele>
        <time>2022-08-06T11:40:22Z</time>
      </trkpt>
      <trkpt lat="48.54879" lon="1.93574">
        <ele>158.1</ele>
        <time>2022-08-06T11:40:24Z</time>
      </trkpt>
      <trkpt lat="48.54885" lon="1.93568">
        <ele>158.3</ele>
        <time>2022-08-06T11:40:26Z</time>
      </trkpt>
      <trkpt lat="48.54892" lon="1.93564">
        <ele>158.4</ele>
        <time>2022-08-06T11:40:28Z</time>
      </trkpt>
      <trkpt lat="48.54899" lon="1.93559">
        <ele>158.5</ele>
        <time>2022-08-06T11:40:30Z</time>
      </trkpt>
      <trkpt lat="48.54907" lon="1.93555">
        <ele>158.6</ele>
        <time>2022-08-06T11:40:32Z</time>
      </trkpt>
      <trkpt lat="48.54915" lon="1.93549">
        <ele>158.7</ele>
        <time>2022-08-06T11:40:34Z</time>
      </trkpt>
      <trkpt lat="48.54924" lon="1.93546">
        <ele>158.4</ele>
        <time>2022-08-06T11:40:36Z</time>
      </trkpt>
      <trkpt lat="48.5493" lon="1.93544">
        <ele>158.1</ele>
        <time>2022-08-06T11:40:38Z</time>
      </trkpt>
      <trkpt lat="48.54938" lon="1.9354">
        <ele>157.7</ele>
        <time>2022-08-06T11:40:40Z</time>
      </trkpt>
      <trkpt lat="48.54945" lon="1.93536">
        <ele>157.3</ele>
        <time>2022-08-06T11:40:42Z</time>
      </trkpt>
      <trkpt lat="48.54955" lon="1.93533">
        <ele>157.2</ele>
        <time>2022-08-06T11:40:44Z</time>
      </trkpt>
      <trkpt lat="48.54964" lon="1.93529">
        <ele>157</ele>
        <time>2022-08-06T11:40:46Z</time>
      </trkpt>
      <trkpt lat="48.54973" lon="1.93522">
        <ele>157</ele>
        <time>2022-08-06T11:40:48Z</time>
      </trkpt>
      <trkpt lat="48.54981" lon="1.93518">
        <ele>157</ele>
        <time>2022-08-06T11:40:50Z</time>
      </trkpt>
      <trkpt lat="48.5499" lon="1.93514">
        <ele>157</ele>
        <time>2022-08-06T11:40:52Z</time>
      </trkpt>
      <trkpt lat="48.54998" lon="1.93511">
        <ele>157</ele>
        <time>2022-08-06T11:40:54Z</time>
      </trkpt>
      <trkpt lat="48.55005" lon="1.93508">
        <ele>157</ele>
        <time>2022-08-06T11:40:56Z</time>
      </trkpt>
      <trkpt lat="48.55016" lon="1.93505">
        <ele>157</ele>
        <time>2022-08-06T11:40:58Z</time>
      </trkpt>
      <trkpt lat="48.55024" lon="1.935">
        <ele>157</ele>
        <time>2022-08-06T11:41:00Z</time>
      </trkpt>
      <trkpt lat="48.55033" lon="1.93497">
        <ele>157</ele>
        <time>2022-08-06T11:41:02Z</time>
      </trkpt>
      <trkpt lat="48.5504" lon="1.93495">
        <ele>157</ele>
        <time>2022-08-06T11:41:04Z</time>
      </trkpt>
      <trkpt lat="48.5505" lon="1.93495">
        <ele>157</ele>
        <time>2022-08-06T11:41:06Z</time>
      </trkpt>
      <trkpt lat="48.55056" lon="1.93496">
        <ele>157</ele>
        <time>2022-08-06T11:41:08Z</time>
      </trkpt>
      <trkpt lat="48.55065" lon="1.93498">
        <ele>157</ele>
        <time>2022-08-06T11:41:10Z</time>
      </trkpt>
      <trkpt lat="48.55071" lon="1.93494">
        <ele>157</ele>
        <time>2022-08-06T11:41:12Z</time>
      </trkpt>
      <trkpt lat="48.55079" lon="1.93487">
        <ele>157</ele>
        <time>2022-08-06T11:41:14Z</time>
      </trkpt>
      <trkpt lat="48.55087" lon="1.93479">
        <ele>156.9</ele>
        <time>2022-08-06T11:41:16Z</time>
      </trkpt>
      <trkpt lat="48.55095" lon="1.93472">
        <ele>156.6</ele>
        <time>2022-08-06T11:41:18Z</time>
      </trkpt>
      <trkpt lat="48.55103" lon="1.93465">
        <ele>156.2</ele>
        <time>2022-08-06T11:41:20Z</time>
      </trkpt>
      <trkpt lat="48.55112" lon="1.93454">
        <ele>156</ele>
        <time>2022-08-06T11:41:22Z</time>
      </trkpt>
      <trkpt lat="48.55121" lon="1.93445">
        <ele>155.6</ele>
        <time>2022-08-06T11:41:24Z</time>
      </trkpt>
      <trkpt lat="48.55131" lon="1.93437">
        <ele>155.3</ele>
        <time>2022-08-06T11:41:26Z</time>
      </trkpt>
      <trkpt lat="48.55141" lon="1.93426">
        <ele>155</ele>
        <time>2022-08-06T11:41:28Z</time>
      </trkpt>
      <trkpt lat="48.55152" lon="1.93412">
        <ele>154.5</ele>
        <time>2022-08-06T11:41:30Z</time>
      </trkpt>
      <trkpt lat="48.55162" lon="1.934">
        <ele>154.2</ele>
        <time>2022-08-06T11:41:32Z</time>
      </trkpt>
      <trkpt lat="48.55172" lon="1.9339">
        <ele>154</ele>
        <time>2022-08-06T11:41:34Z</time>
      </trkpt>
      <trkpt lat="48.55183" lon="1.9338">
        <ele>154</ele>
        <time>2022-08-06T11:41:36Z</time>
      </trkpt>
      <trkpt lat="48.55193" lon="1.93371">
        <ele>154</ele>
        <time>2022-08-06T11:41:38Z</time>
      </trkpt>
      <trkpt lat="48.55204" lon="1.93362">
        <ele>154</ele>
        <time>2022-08-06T11:41:40Z</time>
      </trkpt>
      <trkpt lat="48.55214" lon="1.93352">
        <ele>153.7</ele>
        <time>2022-08-06T11:41:42Z</time>
      </trkpt>
      <trkpt lat="48.55222" lon="1.93344">
        <ele>153.4</ele>
        <time>2022-08-06T11:41:44Z</time>
      </trkpt>
      <trkpt lat="48.5523" lon="1.93334">
        <ele>153</ele>
        <time>2022-08-06T11:41:46Z</time>
      </trkpt>
      <trkpt lat="48.55235" lon="1.93324">
        <ele>152.7</ele>
        <time>2022-08-06T11:41:48Z</time>
      </trkpt>
      <trkpt lat="48.55239" lon="1.93315">
        <ele>152.3</ele>
        <time>2022-08-06T11:41:50Z</time>
      </trkpt>
      <trkpt lat="48.5524" lon="1.93308">
        <ele>152.1</ele>
        <time>2022-08-06T11:41:52Z</time>
      </trkpt>
      <trkpt lat="48.55236" lon="1.933">
        <ele>152</ele>
        <time>2022-08-06T11:41:54Z</time>
      </trkpt>
      <trkpt lat="48.55228" lon="1.93292">
        <ele>152</ele>
        <time>2022-08-06T11:41:56Z</time>
      </trkpt>
      <trkpt lat="48.55218" lon="1.93283">
        <ele>152.2</ele>
        <time>2022-08-06T11:41:58Z</time>
      </trkpt>
      <trkpt lat="48.55207" lon="1.93276">
        <ele>152.5</ele>
        <time>2022-08-06T11:42:00Z</time>
      </trkpt>
      <trkpt lat="48.55198" lon="1.9327">
        <ele>152.9</ele>
        <time>2022-08-06T11:42:02Z</time>
      </trkpt>
      <trkpt lat="48.55191" lon="1.93266">
        <ele>153.1</ele>
        <time>2022-08-06T11:42:04Z</time>
      </trkpt>
      <trkpt lat="48.55184" lon="1.93262">
        <ele>153.4</ele>
        <time>2022-08-06T11:42:06Z</time>
      </trkpt>
      <trkpt lat="48.55178" lon="1.93258">
        <ele>153.6</ele>
        <time>2022-08-06T11:42:08Z</time>
      </trkpt>
      <trkpt lat="48.55171" lon="1.93255">
        <ele>153.9</ele>
        <time>2022-08-06T11:42:10Z</time>
      </trkpt>
      <trkpt lat="48.55165" lon="1.93253">
        <ele>154.1</ele>
        <time>2022-08-06T11:42:12Z</time>
      </trkpt>
      <trkpt lat="48.55158" lon="1.93249">
        <ele>154.5</ele>
        <time>2022-08-06T11:42:14Z</time>
      </trkpt>
      <trkpt lat="48.55151" lon="1.93247">
        <ele>155</ele>
        <time>2022-08-06T11:42:16Z</time>
      </trkpt>
      <trkpt lat="48.55143" lon="1.93244">
        <ele>155.5</ele>
        <time>2022-08-06T11:42:18Z</time>
      </trkpt>
      <trkpt lat="48.55134" lon="1.93242">
        <ele>155.9</ele>
        <time>2022-08-06T11:42:20Z</time>
      </trkpt>
      <trkpt lat="48.55126" lon="1.9324">
        <ele>156.3</ele>
        <time>2022-08-06T11:42:22Z</time>
      </trkpt>
      <trkpt lat="48.55118" lon="1.93237">
        <ele>156.6</ele>
        <time>2022-08-06T11:42:24Z</time>
      </trkpt>
      <trkpt lat="48.55112" lon="1.93235">
        <ele>157</ele>
        <time>2022-08-06T11:42:26Z</time>
      </trkpt>
      <trkpt lat="48.55104" lon="1.93233">
        <ele>157.3</ele>
        <time>2022-08-06T11:42:28Z</time>
      </trkpt>
      <trkpt lat="48.55097" lon="1.9323">
        <ele>157.5</ele>
        <time>2022-08-06T11:42:30Z</time>
      </trkpt>
      <trkpt lat="48.55089" lon="1.93228">
        <ele>157.8</ele>
        <time>2022-08-06T11:42:32Z</time>
      </trkpt>
      <trkpt lat="48.5508" lon="1.93223">
        <ele>158</ele>
        <time>2022-08-06T11:42:34Z</time>
      </trkpt>
      <trkpt lat="48.55072" lon="1.93218">
        <ele>157.9</ele>
        <time>2022-08-06T11:42:36Z</time>
      </trkpt>
      <trkpt lat="48.55065" lon="1.93211">
        <ele>157.9</ele>
        <time>2022-08-06T11:42:38Z</time>
      </trkpt>
      <trkpt lat="48.55059" lon="1.93201">
        <ele>157.9</ele>
        <time>2022-08-06T11:42:40Z</time>
      </trkpt>
      <trkpt lat="48.55052" lon="1.93191">
        <ele>157.9</ele>
        <time>2022-08-06T11:42:42Z</time>
      </trkpt>
      <trkpt lat="48.55046" lon="1.93179">
        <ele>157.5</ele>
        <time>2022-08-06T11:42:44Z</time>
      </trkpt>
      <trkpt lat="48.5504" lon="1.93169">
        <ele>157.1</ele>
        <time>2022-08-06T11:42:46Z</time>
      </trkpt>
      <trkpt lat="48.55035" lon="1.93157">
        <ele>157</ele>
        <time>2022-08-06T11:42:48Z</time>
      </trkpt>
      <trkpt lat="48.55029" lon="1.93146">
        <ele>157</ele>
        <time>2022-08-06T11:42:50Z</time>
      </trkpt>
      <trkpt lat="48.55023" lon="1.93136">
        <ele>156.8</ele>
        <time>2022-08-06T11:42:52Z</time>
      </trkpt>
      <trkpt lat="48.55017" lon="1.93124">
        <ele>156.4</ele>
        <time>2022-08-06T11:42:54Z</time>
      </trkpt>
      <trkpt lat="48.5501" lon="1.93114">
        <ele>155.8</ele>
        <time>2022-08-06T11:42:56Z</time>
      </trkpt>
      <trkpt lat="48.55003" lon="1.93103">
        <ele>154.9</ele>
        <time>2022-08-06T11:42:58Z</time>
      </trkpt>
      <trkpt lat="48.54991" lon="1.93093">
        <ele>153.4</ele>
        <time>2022-08-06T11:43:00Z</time>
      </trkpt>
      <trkpt lat="48.54978" lon="1.93083">
        <ele>151.6</ele>
        <time>2022-08-06T11:43:02Z</time>
      </trkpt>
      <trkpt lat="48.54964" lon="1.9307">
        <ele>149</ele>
        <time>2022-08-06T11:43:04Z</time>
      </trkpt>
      <trkpt lat="48.54949" lon="1.93055">
        <ele>146.5</ele>
        <time>2022-08-06T11:43:06Z</time>
      </trkpt>
      <trkpt lat="48.54936" lon="1.93041">
        <ele>144.2</ele>
        <time>2022-08-06T11:43:08Z</time>
      </trkpt>
      <trkpt lat="48.54922" lon="1.93021">
        <ele>141.6</ele>
        <time>2022-08-06T11:43:10Z</time>
      </trkpt>
      <trkpt lat="48.54911" lon="1.93">
        <ele>139.4</ele>
        <time>2022-08-06T11:43:12Z</time>
      </trkpt>
      <trkpt lat="48.54903" lon="1.92979">
        <ele>138.6</ele>
        <time>2022-08-06T11:43:14Z</time>
      </trkpt>
      <trkpt lat="48.54898" lon="1.92958">
        <ele>138.4</ele>
        <time>2022-08-06T11:43:16Z</time>
      </trkpt>
      <trkpt lat="48.54893" lon="1.92936">
        <ele>138.7</ele>
        <time>2022-08-06T11:43:18Z</time>
      </trkpt>
      <trkpt lat="48.54888" lon="1.92914">
        <ele>139</ele>
        <time>2022-08-06T11:43:20Z</time>
      </trkpt>
      <trkpt lat="48.54883" lon="1.92895">
        <ele>139.4</ele>
        <time>2022-08-06T11:43:22Z</time>
      </trkpt>
      <trkpt lat="48.5488" lon="1.92876">
        <ele>139.7</ele>
        <time>2022-08-06T11:43:24Z</time>
      </trkpt>
      <trkpt lat="48.54876" lon="1.9286">
        <ele>139.7</ele>
        <time>2022-08-06T11:43:26Z</time>
      </trkpt>
      <trkpt lat="48.54872" lon="1.92845">
        <ele>139.4</ele>
        <time>2022-08-06T11:43:28Z</time>
      </trkpt>
      <trkpt lat="48.54871" lon="1.92831">
        <ele>139.4</ele>
        <time>2022-08-06T11:43:30Z</time>
      </trkpt>
      <trkpt lat="48.54865" lon="1.92822">
        <ele>138.9</ele>
        <time>2022-08-06T11:43:32Z</time>
      </trkpt>
      <trkpt lat="48.54861" lon="1.9281">
        <ele>138.8</ele>
        <time>2022-08-06T11:43:34Z</time>
      </trkpt>
      <trkpt lat="48.54854" lon="1.92807">
        <ele>139</ele>
        <time>2022-08-06T11:43:36Z</time>
      </trkpt>
      <trkpt lat="48.54846" lon="1.92809">
        <ele>138.9</ele>
        <time>2022-08-06T11:43:38Z</time>
      </trkpt>
      <trkpt lat="48.54838" lon="1.92812">
        <ele>138.8</ele>
        <time>2022-08-06T11:43:40Z</time>
      </trkpt>
      <trkpt lat="48.54833" lon="1.92817">
        <ele>138.6</ele>
        <time>2022-08-06T11:43:44Z</time>
      </trkpt>
      <trkpt lat="48.54829" lon="1.92813">
        <ele>138.9</ele>
        <time>2022-08-06T11:44:04Z</time>
      </trkpt>
      <trkpt lat="48.54823" lon="1.92814">
        <ele>139.1</ele>
        <time>2022-08-06T11:44:12Z</time>
      </trkpt>
      <trkpt lat="48.54816" lon="1.92813">
        <ele>139.4</ele>
        <time>2022-08-06T11:44:16Z</time>
      </trkpt>
      <trkpt lat="48.54811" lon="1.92812">
        <ele>139.6</ele>
        <time>2022-08-06T11:44:18Z</time>
      </trkpt>
      <trkpt lat="48.54806" lon="1.92809">
        <ele>139.8</ele>
        <time>2022-08-06T11:44:20Z</time>
      </trkpt>
      <trkpt lat="48.54802" lon="1.92806">
        <ele>140.1</ele>
        <time>2022-08-06T11:44:22Z</time>
      </trkpt>
      <trkpt lat="48.54797" lon="1.92803">
        <ele>140.3</ele>
        <time>2022-08-06T11:44:24Z</time>
      </trkpt>
      <trkpt lat="48.54791" lon="1.92798">
        <ele>140.5</ele>
        <time>2022-08-06T11:44:26Z</time>
      </trkpt>
      <trkpt lat="48.54786" lon="1.92794">
        <ele>140.7</ele>
        <time>2022-08-06T11:44:28Z</time>
      </trkpt>
      <trkpt lat="48.54783" lon="1.92787">
        <ele>140.8</ele>
        <time>2022-08-06T11:44:30Z</time>
      </trkpt>
      <trkpt lat="48.54784" lon="1.92777">
        <ele>140.8</ele>
        <time>2022-08-06T11:44:32Z</time>
      </trkpt>
      <trkpt lat="48.54787" lon="1.92767">
        <ele>140.7</ele>
        <time>2022-08-06T11:44:34Z</time>
      </trkpt>
      <trkpt lat="48.54789" lon="1.92754">
        <ele>140.6</ele>
        <time>2022-08-06T11:44:36Z</time>
      </trkpt>
      <trkpt lat="48.5479" lon="1.92741">
        <ele>140.7</ele>
        <time>2022-08-06T11:44:38Z</time>
      </trkpt>
      <trkpt lat="48.54791" lon="1.92727">
        <ele>141</ele>
        <time>2022-08-06T11:44:40Z</time>
      </trkpt>
      <trkpt lat="48.54794" lon="1.92714">
        <ele>140.9</ele>
        <time>2022-08-06T11:44:42Z</time>
      </trkpt>
      <trkpt lat="48.54798" lon="1.92701">
        <ele>140.6</ele>
        <time>2022-08-06T11:44:44Z</time>
      </trkpt>
      <trkpt lat="48.54801" lon="1.92687">
        <ele>140.3</ele>
        <time>2022-08-06T11:44:46Z</time>
      </trkpt>
      <trkpt lat="48.54806" lon="1.92673">
        <ele>140</ele>
        <time>2022-08-06T11:44:48Z</time>
      </trkpt>
      <trkpt lat="48.5481" lon="1.92659">
        <ele>140.3</ele>
        <time>2022-08-06T11:44:50Z</time>
      </trkpt>
      <trkpt lat="48.54814" lon="1.92645">
        <ele>140.1</ele>
        <time>2022-08-06T11:44:52Z</time>
      </trkpt>
      <trkpt lat="48.54819" lon="1.92628">
        <ele>139.8</ele>
        <time>2022-08-06T11:44:54Z</time>
      </trkpt>
      <trkpt lat="48.54824" lon="1.9261">
        <ele>139.3</ele>
        <time>2022-08-06T11:44:56Z</time>
      </trkpt>
      <trkpt lat="48.54829" lon="1.92594">
        <ele>139.2</ele>
        <time>2022-08-06T11:44:58Z</time>
      </trkpt>
      <trkpt lat="48.54834" lon="1.92578">
        <ele>139</ele>
        <time>2022-08-06T11:45:00Z</time>
      </trkpt>
      <trkpt lat="48.54839" lon="1.9256">
        <ele>139</ele>
        <time>2022-08-06T11:45:02Z</time>
      </trkpt>
      <trkpt lat="48.54844" lon="1.92544">
        <ele>139</ele>
        <time>2022-08-06T11:45:04Z</time>
      </trkpt>
      <trkpt lat="48.54848" lon="1.92528">
        <ele>139</ele>
        <time>2022-08-06T11:45:06Z</time>
      </trkpt>
      <trkpt lat="48.54853" lon="1.92513">
        <ele>139.2</ele>
        <time>2022-08-06T11:45:08Z</time>
      </trkpt>
      <trkpt lat="48.54858" lon="1.92497">
        <ele>139.1</ele>
        <time>2022-08-06T11:45:10Z</time>
      </trkpt>
      <trkpt lat="48.54862" lon="1.92484">
        <ele>139</ele>
        <time>2022-08-06T11:45:12Z</time>
      </trkpt>
      <trkpt lat="48.54866" lon="1.92469">
        <ele>139.3</ele>
        <time>2022-08-06T11:45:14Z</time>
      </trkpt>
      <trkpt lat="48.5487" lon="1.92455">
        <ele>139.7</ele>
        <time>2022-08-06T11:45:16Z</time>
      </trkpt>
      <trkpt lat="48.54874" lon="1.92441">
        <ele>140</ele>
        <time>2022-08-06T11:45:18Z</time>
      </trkpt>
      <trkpt lat="48.54878" lon="1.92428">
        <ele>140</ele>
        <time>2022-08-06T11:45:20Z</time>
      </trkpt>
      <trkpt lat="48.54883" lon="1.92414">
        <ele>140</ele>
        <time>2022-08-06T11:45:22Z</time>
      </trkpt>
      <trkpt lat="48.54886" lon="1.92399">
        <ele>140.1</ele>
        <time>2022-08-06T11:45:24Z</time>
      </trkpt>
      <trkpt lat="48.5489" lon="1.92385">
        <ele>140</ele>
        <time>2022-08-06T11:45:26Z</time>
      </trkpt>
      <trkpt lat="48.54894" lon="1.92372">
        <ele>140.2</ele>
        <time>2022-08-06T11:45:28Z</time>
      </trkpt>
      <trkpt lat="48.54898" lon="1.92358">
        <ele>140.4</ele>
        <time>2022-08-06T11:45:30Z</time>
      </trkpt>
      <trkpt lat="48.54902" lon="1.92345">
        <ele>140.8</ele>
        <time>2022-08-06T11:45:32Z</time>
      </trkpt>
      <trkpt lat="48.54906" lon="1.92332">
        <ele>141</ele>
        <time>2022-08-06T11:45:34Z</time>
      </trkpt>
      <trkpt lat="48.5491" lon="1.92318">
        <ele>141</ele>
        <time>2022-08-06T11:45:36Z</time>
      </trkpt>
      <trkpt lat="48.54913" lon="1.92304">
        <ele>141</ele>
        <time>2022-08-06T11:45:38Z</time>
      </trkpt>
      <trkpt lat="48.54917" lon="1.92291">
        <ele>141</ele>
        <time>2022-08-06T11:45:40Z</time>
      </trkpt>
      <trkpt lat="48.54921" lon="1.92277">
        <ele>141.1</ele>
        <time>2022-08-06T11:45:42Z</time>
      </trkpt>
      <trkpt lat="48.54924" lon="1.92264">
        <ele>141.3</ele>
        <time>2022-08-06T11:45:44Z</time>
      </trkpt>
      <trkpt lat="48.54928" lon="1.92252">
        <ele>141.4</ele>
        <time>2022-08-06T11:45:46Z</time>
      </trkpt>
      <trkpt lat="48.54932" lon="1.92238">
        <ele>141.7</ele>
        <time>2022-08-06T11:45:48Z</time>
      </trkpt>
      <trkpt lat="48.54936" lon="1.92226">
        <ele>142</ele>
        <time>2022-08-06T11:45:50Z</time>
      </trkpt>
      <trkpt lat="48.54941" lon="1.92214">
        <ele>142.3</ele>
        <time>2022-08-06T11:45:52Z</time>
      </trkpt>
      <trkpt lat="48.54944" lon="1.92202">
        <ele>142.7</ele>
        <time>2022-08-06T11:45:54Z</time>
      </trkpt>
      <trkpt lat="48.54947" lon="1.92191">
        <ele>143.1</ele>
        <time>2022-08-06T11:45:56Z</time>
      </trkpt>
      <trkpt lat="48.54951" lon="1.9218">
        <ele>143.2</ele>
        <time>2022-08-06T11:45:58Z</time>
      </trkpt>
      <trkpt lat="48.54954" lon="1.92168">
        <ele>143.3</ele>
        <time>2022-08-06T11:46:00Z</time>
      </trkpt>
      <trkpt lat="48.54958" lon="1.92156">
        <ele>143.9</ele>
        <time>2022-08-06T11:46:02Z</time>
      </trkpt>
      <trkpt lat="48.54961" lon="1.92144">
        <ele>144.4</ele>
        <time>2022-08-06T11:46:04Z</time>
      </trkpt>
      <trkpt lat="48.54965" lon="1.92133">
        <ele>144.8</ele>
        <time>2022-08-06T11:46:06Z</time>
      </trkpt>
      <trkpt lat="48.54968" lon="1.92122">
        <ele>144.9</ele>
        <time>2022-08-06T11:46:08Z</time>
      </trkpt>
      <trkpt lat="48.54971" lon="1.92112">
        <ele>145</ele>
        <time>2022-08-06T11:46:10Z</time>
      </trkpt>
      <trkpt lat="48.54974" lon="1.92101">
        <ele>145.2</ele>
        <time>2022-08-06T11:46:12Z</time>
      </trkpt>
      <trkpt lat="48.54978" lon="1.92091">
        <ele>145.6</ele>
        <time>2022-08-06T11:46:14Z</time>
      </trkpt>
      <trkpt lat="48.54981" lon="1.9208">
        <ele>146</ele>
        <time>2022-08-06T11:46:16Z</time>
      </trkpt>
      <trkpt lat="48.54984" lon="1.92069">
        <ele>146.4</ele>
        <time>2022-08-06T11:46:18Z</time>
      </trkpt>
      <trkpt lat="48.54987" lon="1.92058">
        <ele>147</ele>
        <time>2022-08-06T11:46:20Z</time>
      </trkpt>
      <trkpt lat="48.5499" lon="1.92047">
        <ele>148</ele>
        <time>2022-08-06T11:46:22Z</time>
      </trkpt>
      <trkpt lat="48.54992" lon="1.92036">
        <ele>149</ele>
        <time>2022-08-06T11:46:24Z</time>
      </trkpt>
      <trkpt lat="48.54994" lon="1.92025">
        <ele>149.7</ele>
        <time>2022-08-06T11:46:26Z</time>
      </trkpt>
      <trkpt lat="48.54994" lon="1.92003">
        <ele>150.7</ele>
        <time>2022-08-06T11:46:30Z</time>
      </trkpt>
      <trkpt lat="48.54994" lon="1.91994">
        <ele>150.7</ele>
        <time>2022-08-06T11:46:32Z</time>
      </trkpt>
      <trkpt lat="48.54997" lon="1.91986">
        <ele>150.5</ele>
        <time>2022-08-06T11:46:34Z</time>
      </trkpt>
      <trkpt lat="48.5501" lon="1.91979">
        <ele>149.9</ele>
        <time>2022-08-06T11:46:36Z</time>
      </trkpt>
      <trkpt lat="48.55014" lon="1.91961">
        <ele>149.1</ele>
        <time>2022-08-06T11:46:38Z</time>
      </trkpt>
      <trkpt lat="48.55018" lon="1.91949">
        <ele>148.2</ele>
        <time>2022-08-06T11:46:40Z</time>
      </trkpt>
      <trkpt lat="48.55022" lon="1.91938">
        <ele>147.6</ele>
        <time>2022-08-06T11:46:42Z</time>
      </trkpt>
      <trkpt lat="48.55025" lon="1.91928">
        <ele>147.3</ele>
        <time>2022-08-06T11:46:44Z</time>
      </trkpt>
      <trkpt lat="48.55028" lon="1.91918">
        <ele>147</ele>
        <time>2022-08-06T11:46:46Z</time>
      </trkpt>
      <trkpt lat="48.55031" lon="1.91909">
        <ele>147.7</ele>
        <time>2022-08-06T11:46:48Z</time>
      </trkpt>
      <trkpt lat="48.55033" lon="1.91899">
        <ele>148.6</ele>
        <time>2022-08-06T11:46:50Z</time>
      </trkpt>
      <trkpt lat="48.55036" lon="1.91889">
        <ele>149.3</ele>
        <time>2022-08-06T11:46:52Z</time>
      </trkpt>
      <trkpt lat="48.55038" lon="1.91879">
        <ele>149.9</ele>
        <time>2022-08-06T11:46:54Z</time>
      </trkpt>
      <trkpt lat="48.55041" lon="1.9187">
        <ele>150.5</ele>
        <time>2022-08-06T11:46:56Z</time>
      </trkpt>
      <trkpt lat="48.55044" lon="1.91861">
        <ele>151</ele>
        <time>2022-08-06T11:46:58Z</time>
      </trkpt>
      <trkpt lat="48.55046" lon="1.91853">
        <ele>151.1</ele>
        <time>2022-08-06T11:47:00Z</time>
      </trkpt>
      <trkpt lat="48.55048" lon="1.91844">
        <ele>151.2</ele>
        <time>2022-08-06T11:47:02Z</time>
      </trkpt>
      <trkpt lat="48.55051" lon="1.91835">
        <ele>151.1</ele>
        <time>2022-08-06T11:47:04Z</time>
      </trkpt>
      <trkpt lat="48.55054" lon="1.91826">
        <ele>151.3</ele>
        <time>2022-08-06T11:47:06Z</time>
      </trkpt>
      <trkpt lat="48.55056" lon="1.91817">
        <ele>151.6</ele>
        <time>2022-08-06T11:47:08Z</time>
      </trkpt>
      <trkpt lat="48.55058" lon="1.91808">
        <ele>152</ele>
        <time>2022-08-06T11:47:10Z</time>
      </trkpt>
      <trkpt lat="48.55061" lon="1.91798">
        <ele>152.4</ele>
        <time>2022-08-06T11:47:12Z</time>
      </trkpt>
      <trkpt lat="48.55063" lon="1.91789">
        <ele>152.7</ele>
        <time>2022-08-06T11:47:14Z</time>
      </trkpt>
      <trkpt lat="48.55064" lon="1.91779">
        <ele>153</ele>
        <time>2022-08-06T11:47:16Z</time>
      </trkpt>
      <trkpt lat="48.55066" lon="1.9177">
        <ele>153.4</ele>
        <time>2022-08-06T11:47:18Z</time>
      </trkpt>
      <trkpt lat="48.55067" lon="1.9176">
        <ele>153.8</ele>
        <time>2022-08-06T11:47:20Z</time>
      </trkpt>
      <trkpt lat="48.55068" lon="1.91751">
        <ele>154.1</ele>
        <time>2022-08-06T11:47:22Z</time>
      </trkpt>
      <trkpt lat="48.55069" lon="1.91741">
        <ele>154</ele>
        <time>2022-08-06T11:47:24Z</time>
      </trkpt>
      <trkpt lat="48.55069" lon="1.91733">
        <ele>154</ele>
        <time>2022-08-06T11:47:26Z</time>
      </trkpt>
      <trkpt lat="48.55071" lon="1.91722">
        <ele>153.9</ele>
        <time>2022-08-06T11:47:28Z</time>
      </trkpt>
      <trkpt lat="48.55071" lon="1.91713">
        <ele>153.9</ele>
        <time>2022-08-06T11:47:30Z</time>
      </trkpt>
      <trkpt lat="48.55073" lon="1.91703">
        <ele>153.8</ele>
        <time>2022-08-06T11:47:32Z</time>
      </trkpt>
      <trkpt lat="48.55073" lon="1.91693">
        <ele>153.7</ele>
        <time>2022-08-06T11:47:34Z</time>
      </trkpt>
      <trkpt lat="48.55074" lon="1.91684">
        <ele>153.4</ele>
        <time>2022-08-06T11:47:36Z</time>
      </trkpt>
      <trkpt lat="48.55074" lon="1.91672">
        <ele>153.1</ele>
        <time>2022-08-06T11:47:38Z</time>
      </trkpt>
      <trkpt lat="48.55075" lon="1.91662">
        <ele>152.9</ele>
        <time>2022-08-06T11:47:40Z</time>
      </trkpt>
      <trkpt lat="48.55075" lon="1.91649">
        <ele>152.9</ele>
        <time>2022-08-06T11:47:42Z</time>
      </trkpt>
      <trkpt lat="48.55073" lon="1.91637">
        <ele>153.1</ele>
        <time>2022-08-06T11:47:44Z</time>
      </trkpt>
      <trkpt lat="48.55075" lon="1.91627">
        <ele>152.9</ele>
        <time>2022-08-06T11:47:46Z</time>
      </trkpt>
      <trkpt lat="48.55074" lon="1.91616">
        <ele>153</ele>
        <time>2022-08-06T11:47:48Z</time>
      </trkpt>
      <trkpt lat="48.55074" lon="1.91606">
        <ele>153</ele>
        <time>2022-08-06T11:47:50Z</time>
      </trkpt>
      <trkpt lat="48.55075" lon="1.91593">
        <ele>152.9</ele>
        <time>2022-08-06T11:47:52Z</time>
      </trkpt>
      <trkpt lat="48.55075" lon="1.91581">
        <ele>152.9</ele>
        <time>2022-08-06T11:47:54Z</time>
      </trkpt>
      <trkpt lat="48.55075" lon="1.9157">
        <ele>153.1</ele>
        <time>2022-08-06T11:47:56Z</time>
      </trkpt>
      <trkpt lat="48.55076" lon="1.91558">
        <ele>153</ele>
        <time>2022-08-06T11:47:58Z</time>
      </trkpt>
      <trkpt lat="48.55076" lon="1.91546">
        <ele>153</ele>
        <time>2022-08-06T11:48:00Z</time>
      </trkpt>
      <trkpt lat="48.55076" lon="1.91533">
        <ele>153.1</ele>
        <time>2022-08-06T11:48:02Z</time>
      </trkpt>
      <trkpt lat="48.55076" lon="1.9152">
        <ele>153.1</ele>
        <time>2022-08-06T11:48:04Z</time>
      </trkpt>
      <trkpt lat="48.55076" lon="1.91506">
        <ele>153.1</ele>
        <time>2022-08-06T11:48:06Z</time>
      </trkpt>
      <trkpt lat="48.55076" lon="1.91492">
        <ele>153.1</ele>
        <time>2022-08-06T11:48:08Z</time>
      </trkpt>
      <trkpt lat="48.55077" lon="1.91477">
        <ele>152.9</ele>
        <time>2022-08-06T11:48:10Z</time>
      </trkpt>
      <trkpt lat="48.55073" lon="1.91462">
        <ele>153.3</ele>
        <time>2022-08-06T11:48:12Z</time>
      </trkpt>
      <trkpt lat="48.55074" lon="1.91449">
        <ele>153.1</ele>
        <time>2022-08-06T11:48:14Z</time>
      </trkpt>
      <trkpt lat="48.55072" lon="1.91434">
        <ele>153.2</ele>
        <time>2022-08-06T11:48:16Z</time>
      </trkpt>
      <trkpt lat="48.55074" lon="1.91417">
        <ele>153</ele>
        <time>2022-08-06T11:48:18Z</time>
      </trkpt>
      <trkpt lat="48.55076" lon="1.914">
        <ele>153.2</ele>
        <time>2022-08-06T11:48:20Z</time>
      </trkpt>
      <trkpt lat="48.55077" lon="1.91384">
        <ele>153.6</ele>
        <time>2022-08-06T11:48:22Z</time>
      </trkpt>
      <trkpt lat="48.55078" lon="1.91368">
        <ele>154</ele>
        <time>2022-08-06T11:48:24Z</time>
      </trkpt>
      <trkpt lat="48.55078" lon="1.91354">
        <ele>154.1</ele>
        <time>2022-08-06T11:48:26Z</time>
      </trkpt>
      <trkpt lat="48.55079" lon="1.91338">
        <ele>154</ele>
        <time>2022-08-06T11:48:28Z</time>
      </trkpt>
      <trkpt lat="48.5508" lon="1.91323">
        <ele>153.7</ele>
        <time>2022-08-06T11:48:30Z</time>
      </trkpt>
      <trkpt lat="48.55081" lon="1.91307">
        <ele>153.1</ele>
        <time>2022-08-06T11:48:32Z</time>
      </trkpt>
      <trkpt lat="48.55083" lon="1.91294">
        <ele>152.6</ele>
        <time>2022-08-06T11:48:34Z</time>
      </trkpt>
      <trkpt lat="48.55089" lon="1.91283">
        <ele>152.6</ele>
        <time>2022-08-06T11:48:36Z</time>
      </trkpt>
      <trkpt lat="48.55094" lon="1.9128">
        <ele>152.8</ele>
        <time>2022-08-06T11:48:38Z</time>
      </trkpt>
      <trkpt lat="48.551" lon="1.91286">
        <ele>153.3</ele>
        <time>2022-08-06T11:48:42Z</time>
      </trkpt>
      <trkpt lat="48.55105" lon="1.91291">
        <ele>153.6</ele>
        <time>2022-08-06T11:48:46Z</time>
      </trkpt>
      <trkpt lat="48.55109" lon="1.91299">
        <ele>153.9</ele>
        <time>2022-08-06T11:48:50Z</time>
      </trkpt>
      <trkpt lat="48.55116" lon="1.91307">
        <ele>154</ele>
        <time>2022-08-06T11:48:54Z</time>
      </trkpt>
      <trkpt lat="48.5512" lon="1.91318">
        <ele>154</ele>
        <time>2022-08-06T11:48:58Z</time>
      </trkpt>
      <trkpt lat="48.55122" lon="1.91329">
        <ele>154</ele>
        <time>2022-08-06T11:49:02Z</time>
      </trkpt>
      <trkpt lat="48.55123" lon="1.91337">
        <ele>153.9</ele>
        <time>2022-08-06T11:49:04Z</time>
      </trkpt>
      <trkpt lat="48.55124" lon="1.91345">
        <ele>153.8</ele>
        <time>2022-08-06T11:49:06Z</time>
      </trkpt>
      <trkpt lat="48.55124" lon="1.91353">
        <ele>153.7</ele>
        <time>2022-08-06T11:49:08Z</time>
      </trkpt>
      <trkpt lat="48.55126" lon="1.91362">
        <ele>153.4</ele>
        <time>2022-08-06T11:49:10Z</time>
      </trkpt>
      <trkpt lat="48.55128" lon="1.91374">
        <ele>152.9</ele>
        <time>2022-08-06T11:49:12Z</time>
      </trkpt>
      <trkpt lat="48.5513" lon="1.91388">
        <ele>152.3</ele>
        <time>2022-08-06T11:49:14Z</time>
      </trkpt>
      <trkpt lat="48.55132" lon="1.91404">
        <ele>151.6</ele>
        <time>2022-08-06T11:49:16Z</time>
      </trkpt>
      <trkpt lat="48.55134" lon="1.91423">
        <ele>150.8</ele>
        <time>2022-08-06T11:49:18Z</time>
      </trkpt>
      <trkpt lat="48.55136" lon="1.91443">
        <ele>150</ele>
        <time>2022-08-06T11:49:20Z</time>
      </trkpt>
      <trkpt lat="48.55138" lon="1.91466">
        <ele>149.3</ele>
        <time>2022-08-06T11:49:22Z</time>
      </trkpt>
      <trkpt lat="48.5514" lon="1.91488">
        <ele>149.1</ele>
        <time>2022-08-06T11:49:24Z</time>
      </trkpt>
      <trkpt lat="48.55141" lon="1.91508">
        <ele>149.2</ele>
        <time>2022-08-06T11:49:26Z</time>
      </trkpt>
      <trkpt lat="48.55141" lon="1.91529">
        <ele>149.2</ele>
        <time>2022-08-06T11:49:28Z</time>
      </trkpt>
      <trkpt lat="48.55141" lon="1.91548">
        <ele>149.9</ele>
        <time>2022-08-06T11:49:30Z</time>
      </trkpt>
      <trkpt lat="48.55141" lon="1.91566">
        <ele>150.1</ele>
        <time>2022-08-06T11:49:32Z</time>
      </trkpt>
      <trkpt lat="48.55141" lon="1.91583">
        <ele>150.1</ele>
        <time>2022-08-06T11:49:34Z</time>
      </trkpt>
      <trkpt lat="48.55141" lon="1.91601">
        <ele>149.5</ele>
        <time>2022-08-06T11:49:36Z</time>
      </trkpt>
      <trkpt lat="48.55143" lon="1.9162">
        <ele>149.2</ele>
        <time>2022-08-06T11:49:38Z</time>
      </trkpt>
      <trkpt lat="48.55143" lon="1.9164">
        <ele>149.1</ele>
        <time>2022-08-06T11:49:40Z</time>
      </trkpt>
      <trkpt lat="48.55143" lon="1.91661">
        <ele>149</ele>
        <time>2022-08-06T11:49:42Z</time>
      </trkpt>
      <trkpt lat="48.55144" lon="1.9168">
        <ele>149</ele>
        <time>2022-08-06T11:49:44Z</time>
      </trkpt>
      <trkpt lat="48.55144" lon="1.91701">
        <ele>149</ele>
        <time>2022-08-06T11:49:46Z</time>
      </trkpt>
      <trkpt lat="48.55146" lon="1.91721">
        <ele>149</ele>
        <time>2022-08-06T11:49:48Z</time>
      </trkpt>
      <trkpt lat="48.55145" lon="1.91738">
        <ele>148.4</ele>
        <time>2022-08-06T11:49:50Z</time>
      </trkpt>
      <trkpt lat="48.55146" lon="1.91756">
        <ele>147.8</ele>
        <time>2022-08-06T11:49:52Z</time>
      </trkpt>
      <trkpt lat="48.55151" lon="1.91767">
        <ele>147.4</ele>
        <time>2022-08-06T11:49:54Z</time>
      </trkpt>
      <trkpt lat="48.5516" lon="1.91768">
        <ele>147.3</ele>
        <time>2022-08-06T11:49:56Z</time>
      </trkpt>
      <trkpt lat="48.55166" lon="1.91773">
        <ele>147.2</ele>
        <time>2022-08-06T11:49:58Z</time>
      </trkpt>
      <trkpt lat="48.55171" lon="1.91778">
        <ele>147.7</ele>
        <time>2022-08-06T11:50:00Z</time>
      </trkpt>
      <trkpt lat="48.55176" lon="1.91786">
        <ele>148.2</ele>
        <time>2022-08-06T11:50:04Z</time>
      </trkpt>
      <trkpt lat="48.55182" lon="1.91793">
        <ele>149</ele>
        <time>2022-08-06T11:50:08Z</time>
      </trkpt>
      <trkpt lat="48.55188" lon="1.91796">
        <ele>149.9</ele>
        <time>2022-08-06T11:50:12Z</time>
      </trkpt>
      <trkpt lat="48.55191" lon="1.91801">
        <ele>150.5</ele>
        <time>2022-08-06T11:50:16Z</time>
      </trkpt>
      <trkpt lat="48.55195" lon="1.91806">
        <ele>151.1</ele>
        <time>2022-08-06T11:50:20Z</time>
      </trkpt>
      <trkpt lat="48.55198" lon="1.91813">
        <ele>151.5</ele>
        <time>2022-08-06T11:50:24Z</time>
      </trkpt>
      <trkpt lat="48.55199" lon="1.9182">
        <ele>151.7</ele>
        <time>2022-08-06T11:50:28Z</time>
      </trkpt>
      <trkpt lat="48.55199" lon="1.9183">
        <ele>151.6</ele>
        <time>2022-08-06T11:50:32Z</time>
      </trkpt>
      <trkpt lat="48.552" lon="1.91838">
        <ele>151.8</ele>
        <time>2022-08-06T11:50:34Z</time>
      </trkpt>
      <trkpt lat="48.55201" lon="1.91846">
        <ele>151.9</ele>
        <time>2022-08-06T11:50:36Z</time>
      </trkpt>
      <trkpt lat="48.55201" lon="1.91856">
        <ele>151.9</ele>
        <time>2022-08-06T11:50:38Z</time>
      </trkpt>
      <trkpt lat="48.55203" lon="1.91866">
        <ele>152.2</ele>
        <time>2022-08-06T11:50:40Z</time>
      </trkpt>
      <trkpt lat="48.55204" lon="1.91877">
        <ele>152.4</ele>
        <time>2022-08-06T11:50:42Z</time>
      </trkpt>
      <trkpt lat="48.55207" lon="1.91889">
        <ele>152.8</ele>
        <time>2022-08-06T11:50:44Z</time>
      </trkpt>
      <trkpt lat="48.55208" lon="1.91904">
        <ele>152.7</ele>
        <time>2022-08-06T11:50:46Z</time>
      </trkpt>
      <trkpt lat="48.5521" lon="1.91921">
        <ele>152.6</ele>
        <time>2022-08-06T11:50:48Z</time>
      </trkpt>
      <trkpt lat="48.55215" lon="1.91936">
        <ele>153.1</ele>
        <time>2022-08-06T11:50:50Z</time>
      </trkpt>
      <trkpt lat="48.55219" lon="1.91952">
        <ele>153.3</ele>
        <time>2022-08-06T11:50:52Z</time>
      </trkpt>
      <trkpt lat="48.55221" lon="1.91968">
        <ele>153</ele>
        <time>2022-08-06T11:50:54Z</time>
      </trkpt>
      <trkpt lat="48.55224" lon="1.91984">
        <ele>153.2</ele>
        <time>2022-08-06T11:50:56Z</time>
      </trkpt>
      <trkpt lat="48.55223" lon="1.91996">
        <ele>153</ele>
        <time>2022-08-06T11:50:58Z</time>
      </trkpt>
      <trkpt lat="48.55223" lon="1.92008">
        <ele>153.1</ele>
        <time>2022-08-06T11:51:00Z</time>
      </trkpt>
      <trkpt lat="48.55225" lon="1.92023">
        <ele>153.3</ele>
        <time>2022-08-06T11:51:02Z</time>
      </trkpt>
      <trkpt lat="48.55227" lon="1.92041">
        <ele>153.5</ele>
        <time>2022-08-06T11:51:04Z</time>
      </trkpt>
      <trkpt lat="48.55227" lon="1.92057">
        <ele>153.6</ele>
        <time>2022-08-06T11:51:06Z</time>
      </trkpt>
      <trkpt lat="48.55228" lon="1.92073">
        <ele>153.7</ele>
        <time>2022-08-06T11:51:08Z</time>
      </trkpt>
      <trkpt lat="48.55227" lon="1.92087">
        <ele>153.6</ele>
        <time>2022-08-06T11:51:10Z</time>
      </trkpt>
      <trkpt lat="48.55226" lon="1.92098">
        <ele>153.9</ele>
        <time>2022-08-06T11:51:12Z</time>
      </trkpt>
      <trkpt lat="48.55227" lon="1.92108">
        <ele>154.2</ele>
        <time>2022-08-06T11:51:14Z</time>
      </trkpt>
      <trkpt lat="48.55228" lon="1.92119">
        <ele>154.7</ele>
        <time>2022-08-06T11:51:16Z</time>
      </trkpt>
      <trkpt lat="48.55228" lon="1.9213">
        <ele>155.1</ele>
        <time>2022-08-06T11:51:18Z</time>
      </trkpt>
      <trkpt lat="48.5523" lon="1.9214">
        <ele>155.6</ele>
        <time>2022-08-06T11:51:20Z</time>
      </trkpt>
      <trkpt lat="48.55232" lon="1.92151">
        <ele>156</ele>
        <time>2022-08-06T11:51:22Z</time>
      </trkpt>
      <trkpt lat="48.55232" lon="1.92163">
        <ele>156.3</ele>
        <time>2022-08-06T11:51:24Z</time>
      </trkpt>
      <trkpt lat="48.55235" lon="1.92176">
        <ele>156.5</ele>
        <time>2022-08-06T11:51:26Z</time>
      </trkpt>
      <trkpt lat="48.55238" lon="1.92189">
        <ele>156.6</ele>
        <time>2022-08-06T11:51:28Z</time>
      </trkpt>
      <trkpt lat="48.5524" lon="1.92199">
        <ele>156.7</ele>
        <time>2022-08-06T11:51:30Z</time>
      </trkpt>
      <trkpt lat="48.55241" lon="1.92209">
        <ele>156.9</ele>
        <time>2022-08-06T11:51:32Z</time>
      </trkpt>
      <trkpt lat="48.55241" lon="1.9222">
        <ele>157</ele>
        <time>2022-08-06T11:51:34Z</time>
      </trkpt>
      <trkpt lat="48.55242" lon="1.92234">
        <ele>157.3</ele>
        <time>2022-08-06T11:51:36Z</time>
      </trkpt>
      <trkpt lat="48.55243" lon="1.92247">
        <ele>157.7</ele>
        <time>2022-08-06T11:51:38Z</time>
      </trkpt>
      <trkpt lat="48.55245" lon="1.9226">
        <ele>157.8</ele>
        <time>2022-08-06T11:51:40Z</time>
      </trkpt>
      <trkpt lat="48.55245" lon="1.92272">
        <ele>157.8</ele>
        <time>2022-08-06T11:51:42Z</time>
      </trkpt>
      <trkpt lat="48.55245" lon="1.92287">
        <ele>157.8</ele>
        <time>2022-08-06T11:51:44Z</time>
      </trkpt>
      <trkpt lat="48.55246" lon="1.92299">
        <ele>157.9</ele>
        <time>2022-08-06T11:51:46Z</time>
      </trkpt>
      <trkpt lat="48.55247" lon="1.9231">
        <ele>157.9</ele>
        <time>2022-08-06T11:51:48Z</time>
      </trkpt>
      <trkpt lat="48.55249" lon="1.92322">
        <ele>157.9</ele>
        <time>2022-08-06T11:51:50Z</time>
      </trkpt>
      <trkpt lat="48.5525" lon="1.92335">
        <ele>158</ele>
        <time>2022-08-06T11:51:52Z</time>
      </trkpt>
      <trkpt lat="48.55248" lon="1.92344">
        <ele>157.6</ele>
        <time>2022-08-06T11:51:54Z</time>
      </trkpt>
      <trkpt lat="48.55245" lon="1.92352">
        <ele>157.3</ele>
        <time>2022-08-06T11:51:56Z</time>
      </trkpt>
      <trkpt lat="48.55242" lon="1.92359">
        <ele>157.1</ele>
        <time>2022-08-06T11:51:58Z</time>
      </trkpt>
      <trkpt lat="48.55239" lon="1.92366">
        <ele>156.9</ele>
        <time>2022-08-06T11:52:00Z</time>
      </trkpt>
      <trkpt lat="48.55238" lon="1.92379">
        <ele>156.7</ele>
        <time>2022-08-06T11:52:04Z</time>
      </trkpt>
      <trkpt lat="48.55241" lon="1.92392">
        <ele>156.7</ele>
        <time>2022-08-06T11:52:08Z</time>
      </trkpt>
      <trkpt lat="48.55246" lon="1.92395">
        <ele>156.8</ele>
        <time>2022-08-06T11:52:14Z</time>
      </trkpt>
      <trkpt lat="48.55249" lon="1.92403">
        <ele>157</ele>
        <time>2022-08-06T11:52:36Z</time>
      </trkpt>
      <trkpt lat="48.55251" lon="1.9241">
        <ele>157</ele>
        <time>2022-08-06T11:52:38Z</time>
      </trkpt>
      <trkpt lat="48.55255" lon="1.92418">
        <ele>157</ele>
        <time>2022-08-06T11:52:40Z</time>
      </trkpt>
      <trkpt lat="48.5526" lon="1.92429">
        <ele>156.7</ele>
        <time>2022-08-06T11:52:42Z</time>
      </trkpt>
      <trkpt lat="48.55265" lon="1.92439">
        <ele>156.6</ele>
        <time>2022-08-06T11:52:44Z</time>
      </trkpt>
      <trkpt lat="48.5527" lon="1.92452">
        <ele>156.5</ele>
        <time>2022-08-06T11:52:46Z</time>
      </trkpt>
      <trkpt lat="48.55276" lon="1.92467">
        <ele>156.2</ele>
        <time>2022-08-06T11:52:48Z</time>
      </trkpt>
      <trkpt lat="48.55281" lon="1.92483">
        <ele>156</ele>
        <time>2022-08-06T11:52:50Z</time>
      </trkpt>
      <trkpt lat="48.55287" lon="1.92498">
        <ele>156</ele>
        <time>2022-08-06T11:52:52Z</time>
      </trkpt>
      <trkpt lat="48.55291" lon="1.92517">
        <ele>156</ele>
        <time>2022-08-06T11:52:54Z</time>
      </trkpt>
      <trkpt lat="48.55299" lon="1.92533">
        <ele>156</ele>
        <time>2022-08-06T11:52:56Z</time>
      </trkpt>
      <trkpt lat="48.55304" lon="1.92549">
        <ele>156</ele>
        <time>2022-08-06T11:52:58Z</time>
      </trkpt>
      <trkpt lat="48.55308" lon="1.92564">
        <ele>156</ele>
        <time>2022-08-06T11:53:00Z</time>
      </trkpt>
      <trkpt lat="48.55312" lon="1.9258">
        <ele>156</ele>
        <time>2022-08-06T11:53:02Z</time>
      </trkpt>
      <trkpt lat="48.55316" lon="1.92592">
        <ele>155.9</ele>
        <time>2022-08-06T11:53:04Z</time>
      </trkpt>
      <trkpt lat="48.55317" lon="1.92608">
        <ele>155.7</ele>
        <time>2022-08-06T11:53:06Z</time>
      </trkpt>
      <trkpt lat="48.55322" lon="1.92621">
        <ele>155.6</ele>
        <time>2022-08-06T11:53:08Z</time>
      </trkpt>
      <trkpt lat="48.55328" lon="1.92633">
        <ele>155.8</ele>
        <time>2022-08-06T11:53:10Z</time>
      </trkpt>
      <trkpt lat="48.55333" lon="1.92644">
        <ele>156</ele>
        <time>2022-08-06T11:53:12Z</time>
      </trkpt>
      <trkpt lat="48.55335" lon="1.92656">
        <ele>156</ele>
        <time>2022-08-06T11:53:14Z</time>
      </trkpt>
      <trkpt lat="48.55336" lon="1.92668">
        <ele>156</ele>
        <time>2022-08-06T11:53:16Z</time>
      </trkpt>
      <trkpt lat="48.55338" lon="1.9268">
        <ele>156</ele>
        <time>2022-08-06T11:53:18Z</time>
      </trkpt>
      <trkpt lat="48.55335" lon="1.92692">
        <ele>156</ele>
        <time>2022-08-06T11:53:20Z</time>
      </trkpt>
      <trkpt lat="48.55333" lon="1.92707">
        <ele>156</ele>
        <time>2022-08-06T11:53:22Z</time>
      </trkpt>
      <trkpt lat="48.55337" lon="1.92722">
        <ele>156</ele>
        <time>2022-08-06T11:53:24Z</time>
      </trkpt>
      <trkpt lat="48.55339" lon="1.92736">
        <ele>156</ele>
        <time>2022-08-06T11:53:26Z</time>
      </trkpt>
      <trkpt lat="48.55341" lon="1.92751">
        <ele>156</ele>
        <time>2022-08-06T11:53:28Z</time>
      </trkpt>
      <trkpt lat="48.55344" lon="1.92765">
        <ele>156.5</ele>
        <time>2022-08-06T11:53:30Z</time>
      </trkpt>
      <trkpt lat="48.55347" lon="1.92777">
        <ele>157</ele>
        <time>2022-08-06T11:53:32Z</time>
      </trkpt>
      <trkpt lat="48.55349" lon="1.92789">
        <ele>157</ele>
        <time>2022-08-06T11:53:34Z</time>
      </trkpt>
      <trkpt lat="48.55353" lon="1.92801">
        <ele>157</ele>
        <time>2022-08-06T11:53:36Z</time>
      </trkpt>
      <trkpt lat="48.55359" lon="1.92811">
        <ele>157</ele>
        <time>2022-08-06T11:53:38Z</time>
      </trkpt>
      <trkpt lat="48.55366" lon="1.92818">
        <ele>157</ele>
        <time>2022-08-06T11:53:40Z</time>
      </trkpt>
      <trkpt lat="48.55372" lon="1.92828">
        <ele>157</ele>
        <time>2022-08-06T11:53:42Z</time>
      </trkpt>
      <trkpt lat="48.55379" lon="1.92836">
        <ele>157</ele>
        <time>2022-08-06T11:53:44Z</time>
      </trkpt>
      <trkpt lat="48.55385" lon="1.92848">
        <ele>157</ele>
        <time>2022-08-06T11:53:46Z</time>
      </trkpt>
      <trkpt lat="48.55388" lon="1.9286">
        <ele>157</ele>
        <time>2022-08-06T11:53:48Z</time>
      </trkpt>
      <trkpt lat="48.55393" lon="1.9287">
        <ele>157.2</ele>
        <time>2022-08-06T11:53:50Z</time>
      </trkpt>
      <trkpt lat="48.55399" lon="1.9288">
        <ele>157.4</ele>
        <time>2022-08-06T11:53:52Z</time>
      </trkpt>
      <trkpt lat="48.55405" lon="1.92889">
        <ele>157.6</ele>
        <time>2022-08-06T11:53:54Z</time>
      </trkpt>
      <trkpt lat="48.55411" lon="1.92895">
        <ele>157.9</ele>
        <time>2022-08-06T11:53:56Z</time>
      </trkpt>
      <trkpt lat="48.55416" lon="1.92901">
        <ele>158</ele>
        <time>2022-08-06T11:53:58Z</time>
      </trkpt>
      <trkpt lat="48.55418" lon="1.92908">
        <ele>158</ele>
        <time>2022-08-06T11:54:00Z</time>
      </trkpt>
      <trkpt lat="48.55418" lon="1.92915">
        <ele>158.1</ele>
        <time>2022-08-06T11:54:02Z</time>
      </trkpt>
      <trkpt lat="48.55421" lon="1.92922">
        <ele>158.3</ele>
        <time>2022-08-06T11:54:04Z</time>
      </trkpt>
      <trkpt lat="48.55425" lon="1.92927">
        <ele>158.6</ele>
        <time>2022-08-06T11:54:06Z</time>
      </trkpt>
      <trkpt lat="48.55429" lon="1.92931">
        <ele>158.7</ele>
        <time>2022-08-06T11:54:08Z</time>
      </trkpt>
      <trkpt lat="48.55434" lon="1.92936">
        <ele>158.9</ele>
        <time>2022-08-06T11:54:10Z</time>
      </trkpt>
      <trkpt lat="48.55441" lon="1.92939">
        <ele>159</ele>
        <time>2022-08-06T11:54:12Z</time>
      </trkpt>
      <trkpt lat="48.55448" lon="1.92944">
        <ele>159</ele>
        <time>2022-08-06T11:54:14Z</time>
      </trkpt>
      <trkpt lat="48.55456" lon="1.92951">
        <ele>159.1</ele>
        <time>2022-08-06T11:54:16Z</time>
      </trkpt>
      <trkpt lat="48.55463" lon="1.92956">
        <ele>159.1</ele>
        <time>2022-08-06T11:54:18Z</time>
      </trkpt>
      <trkpt lat="48.55473" lon="1.9296">
        <ele>159</ele>
        <time>2022-08-06T11:54:20Z</time>
      </trkpt>
      <trkpt lat="48.55481" lon="1.92967">
        <ele>159</ele>
        <time>2022-08-06T11:54:22Z</time>
      </trkpt>
      <trkpt lat="48.55487" lon="1.9298">
        <ele>159.1</ele>
        <time>2022-08-06T11:54:24Z</time>
      </trkpt>
      <trkpt lat="48.55487" lon="1.92993">
        <ele>159.3</ele>
        <time>2022-08-06T11:54:26Z</time>
      </trkpt>
      <trkpt lat="48.55492" lon="1.93003">
        <ele>159.4</ele>
        <time>2022-08-06T11:54:28Z</time>
      </trkpt>
      <trkpt lat="48.55496" lon="1.93015">
        <ele>159.7</ele>
        <time>2022-08-06T11:54:30Z</time>
      </trkpt>
      <trkpt lat="48.55504" lon="1.93023">
        <ele>159.8</ele>
        <time>2022-08-06T11:54:32Z</time>
      </trkpt>
      <trkpt lat="48.55511" lon="1.93034">
        <ele>160</ele>
        <time>2022-08-06T11:54:34Z</time>
      </trkpt>
      <trkpt lat="48.55509" lon="1.93051">
        <ele>160</ele>
        <time>2022-08-06T11:54:36Z</time>
      </trkpt>
      <trkpt lat="48.55512" lon="1.93062">
        <ele>160.2</ele>
        <time>2022-08-06T11:54:38Z</time>
      </trkpt>
      <trkpt lat="48.55518" lon="1.93075">
        <ele>160.7</ele>
        <time>2022-08-06T11:54:40Z</time>
      </trkpt>
      <trkpt lat="48.55522" lon="1.93088">
        <ele>160.9</ele>
        <time>2022-08-06T11:54:42Z</time>
      </trkpt>
      <trkpt lat="48.55528" lon="1.931">
        <ele>160.4</ele>
        <time>2022-08-06T11:54:44Z</time>
      </trkpt>
      <trkpt lat="48.55536" lon="1.93106">
        <ele>160.1</ele>
        <time>2022-08-06T11:54:46Z</time>
      </trkpt>
      <trkpt lat="48.55543" lon="1.93112">
        <ele>160</ele>
        <time>2022-08-06T11:54:48Z</time>
      </trkpt>
      <trkpt lat="48.55549" lon="1.93117">
        <ele>160</ele>
        <time>2022-08-06T11:54:50Z</time>
      </trkpt>
      <trkpt lat="48.55558" lon="1.93123">
        <ele>160</ele>
        <time>2022-08-06T11:54:52Z</time>
      </trkpt>
      <trkpt lat="48.55569" lon="1.93129">
        <ele>160</ele>
        <time>2022-08-06T11:54:54Z</time>
      </trkpt>
      <trkpt lat="48.55574" lon="1.93136">
        <ele>160</ele>
        <time>2022-08-06T11:54:56Z</time>
      </trkpt>
      <trkpt lat="48.55576" lon="1.93143">
        <ele>160</ele>
        <time>2022-08-06T11:54:58Z</time>
      </trkpt>
      <trkpt lat="48.55578" lon="1.93149">
        <ele>160</ele>
        <time>2022-08-06T11:55:02Z</time>
      </trkpt>
      <trkpt lat="48.55577" lon="1.93159">
        <ele>160</ele>
        <time>2022-08-06T11:55:08Z</time>
      </trkpt>
      <trkpt lat="48.55573" lon="1.93165">
        <ele>160</ele>
        <time>2022-08-06T11:55:10Z</time>
      </trkpt>
      <trkpt lat="48.55568" lon="1.93173">
        <ele>160</ele>
        <time>2022-08-06T11:55:12Z</time>
      </trkpt>
      <trkpt lat="48.55562" lon="1.93185">
        <ele>160</ele>
        <time>2022-08-06T11:55:14Z</time>
      </trkpt>
      <trkpt lat="48.55563" lon="1.93197">
        <ele>160</ele>
        <time>2022-08-06T11:55:16Z</time>
      </trkpt>
      <trkpt lat="48.55565" lon="1.93209">
        <ele>160</ele>
        <time>2022-08-06T11:55:18Z</time>
      </trkpt>
      <trkpt lat="48.5557" lon="1.9322">
        <ele>160</ele>
        <time>2022-08-06T11:55:20Z</time>
      </trkpt>
      <trkpt lat="48.55572" lon="1.93234">
        <ele>160</ele>
        <time>2022-08-06T11:55:22Z</time>
      </trkpt>
      <trkpt lat="48.55576" lon="1.93246">
        <ele>160</ele>
        <time>2022-08-06T11:55:24Z</time>
      </trkpt>
      <trkpt lat="48.55577" lon="1.93257">
        <ele>160</ele>
        <time>2022-08-06T11:55:26Z</time>
      </trkpt>
      <trkpt lat="48.55574" lon="1.93268">
        <ele>160</ele>
        <time>2022-08-06T11:55:28Z</time>
      </trkpt>
      <trkpt lat="48.55572" lon="1.93279">
        <ele>160</ele>
        <time>2022-08-06T11:55:30Z</time>
      </trkpt>
      <trkpt lat="48.55574" lon="1.93292">
        <ele>160.2</ele>
        <time>2022-08-06T11:55:32Z</time>
      </trkpt>
      <trkpt lat="48.55574" lon="1.93304">
        <ele>160.3</ele>
        <time>2022-08-06T11:55:34Z</time>
      </trkpt>
      <trkpt lat="48.55577" lon="1.93316">
        <ele>160.2</ele>
        <time>2022-08-06T11:55:36Z</time>
      </trkpt>
      <trkpt lat="48.55579" lon="1.93331">
        <ele>160.2</ele>
        <time>2022-08-06T11:55:38Z</time>
      </trkpt>
      <trkpt lat="48.55582" lon="1.93343">
        <ele>160</ele>
        <time>2022-08-06T11:55:40Z</time>
      </trkpt>
      <trkpt lat="48.55583" lon="1.93355">
        <ele>160</ele>
        <time>2022-08-06T11:55:42Z</time>
      </trkpt>
      <trkpt lat="48.55586" lon="1.93367">
        <ele>160.3</ele>
        <time>2022-08-06T11:55:44Z</time>
      </trkpt>
      <trkpt lat="48.55591" lon="1.93376">
        <ele>160.7</ele>
        <time>2022-08-06T11:55:46Z</time>
      </trkpt>
      <trkpt lat="48.55597" lon="1.93386">
        <ele>161</ele>
        <time>2022-08-06T11:55:48Z</time>
      </trkpt>
      <trkpt lat="48.55603" lon="1.93397">
        <ele>161</ele>
        <time>2022-08-06T11:55:50Z</time>
      </trkpt>
      <trkpt lat="48.55606" lon="1.93407">
        <ele>161</ele>
        <time>2022-08-06T11:55:52Z</time>
      </trkpt>
      <trkpt lat="48.55606" lon="1.9342">
        <ele>161</ele>
        <time>2022-08-06T11:55:54Z</time>
      </trkpt>
      <trkpt lat="48.55606" lon="1.93434">
        <ele>161</ele>
        <time>2022-08-06T11:55:56Z</time>
      </trkpt>
      <trkpt lat="48.55606" lon="1.93449">
        <ele>161</ele>
        <time>2022-08-06T11:55:58Z</time>
      </trkpt>
      <trkpt lat="48.55606" lon="1.9346">
        <ele>161</ele>
        <time>2022-08-06T11:56:00Z</time>
      </trkpt>
      <trkpt lat="48.55604" lon="1.9347">
        <ele>161</ele>
        <time>2022-08-06T11:56:02Z</time>
      </trkpt>
      <trkpt lat="48.55608" lon="1.9348">
        <ele>161</ele>
        <time>2022-08-06T11:56:04Z</time>
      </trkpt>
      <trkpt lat="48.55609" lon="1.93491">
        <ele>160.9</ele>
        <time>2022-08-06T11:56:06Z</time>
      </trkpt>
      <trkpt lat="48.55611" lon="1.93503">
        <ele>161.1</ele>
        <time>2022-08-06T11:56:08Z</time>
      </trkpt>
      <trkpt lat="48.55616" lon="1.93515">
        <ele>161.6</ele>
        <time>2022-08-06T11:56:10Z</time>
      </trkpt>
      <trkpt lat="48.55618" lon="1.93527">
        <ele>162</ele>
        <time>2022-08-06T11:56:12Z</time>
      </trkpt>
      <trkpt lat="48.55621" lon="1.9354">
        <ele>161.7</ele>
        <time>2022-08-06T11:56:14Z</time>
      </trkpt>
      <trkpt lat="48.55625" lon="1.93551">
        <ele>161.6</ele>
        <time>2022-08-06T11:56:16Z</time>
      </trkpt>
      <trkpt lat="48.55627" lon="1.93561">
        <ele>161.4</ele>
        <time>2022-08-06T11:56:18Z</time>
      </trkpt>
      <trkpt lat="48.55632" lon="1.93572">
        <ele>161.2</ele>
        <time>2022-08-06T11:56:20Z</time>
      </trkpt>
      <trkpt lat="48.55635" lon="1.93582">
        <ele>160.9</ele>
        <time>2022-08-06T11:56:22Z</time>
      </trkpt>
      <trkpt lat="48.55639" lon="1.93593">
        <ele>161</ele>
        <time>2022-08-06T11:56:24Z</time>
      </trkpt>
      <trkpt lat="48.55642" lon="1.93604">
        <ele>161</ele>
        <time>2022-08-06T11:56:26Z</time>
      </trkpt>
      <trkpt lat="48.55646" lon="1.93615">
        <ele>160.9</ele>
        <time>2022-08-06T11:56:28Z</time>
      </trkpt>
      <trkpt lat="48.55648" lon="1.93627">
        <ele>160.6</ele>
        <time>2022-08-06T11:56:30Z</time>
      </trkpt>
      <trkpt lat="48.55653" lon="1.93637">
        <ele>160.5</ele>
        <time>2022-08-06T11:56:32Z</time>
      </trkpt>
      <trkpt lat="48.55658" lon="1.93649">
        <ele>160.7</ele>
        <time>2022-08-06T11:56:34Z</time>
      </trkpt>
      <trkpt lat="48.55664" lon="1.93662">
        <ele>160.9</ele>
        <time>2022-08-06T11:56:36Z</time>
      </trkpt>
      <trkpt lat="48.55671" lon="1.93673">
        <ele>160.8</ele>
        <time>2022-08-06T11:56:38Z</time>
      </trkpt>
      <trkpt lat="48.55678" lon="1.93682">
        <ele>160.7</ele>
        <time>2022-08-06T11:56:40Z</time>
      </trkpt>
      <trkpt lat="48.55684" lon="1.9369">
        <ele>160.7</ele>
        <time>2022-08-06T11:56:42Z</time>
      </trkpt>
      <trkpt lat="48.55688" lon="1.93696">
        <ele>160.8</ele>
        <time>2022-08-06T11:56:44Z</time>
      </trkpt>
      <trkpt lat="48.55691" lon="1.93703">
        <ele>160.9</ele>
        <time>2022-08-06T11:56:46Z</time>
      </trkpt>
      <trkpt lat="48.55696" lon="1.9371">
        <ele>161</ele>
        <time>2022-08-06T11:56:48Z</time>
      </trkpt>
      <trkpt lat="48.55701" lon="1.93718">
        <ele>161</ele>
        <time>2022-08-06T11:56:50Z</time>
      </trkpt>
      <trkpt lat="48.55706" lon="1.93726">
        <ele>160.9</ele>
        <time>2022-08-06T11:56:52Z</time>
      </trkpt>
      <trkpt lat="48.55712" lon="1.93734">
        <ele>160.6</ele>
        <time>2022-08-06T11:56:54Z</time>
      </trkpt>
      <trkpt lat="48.55718" lon="1.93746">
        <ele>160.1</ele>
        <time>2022-08-06T11:56:56Z</time>
      </trkpt>
      <trkpt lat="48.5572" lon="1.9376">
        <ele>159.7</ele>
        <time>2022-08-06T11:56:58Z</time>
      </trkpt>
      <trkpt lat="48.55725" lon="1.93773">
        <ele>158.9</ele>
        <time>2022-08-06T11:57:00Z</time>
      </trkpt>
      <trkpt lat="48.55729" lon="1.93785">
        <ele>157.8</ele>
        <time>2022-08-06T11:57:02Z</time>
      </trkpt>
      <trkpt lat="48.55733" lon="1.93794">
        <ele>156.6</ele>
        <time>2022-08-06T11:57:04Z</time>
      </trkpt>
      <trkpt lat="48.5574" lon="1.93805">
        <ele>155.1</ele>
        <time>2022-08-06T11:57:06Z</time>
      </trkpt>
      <trkpt lat="48.55742" lon="1.93812">
        <ele>154.4</ele>
        <time>2022-08-06T11:57:08Z</time>
      </trkpt>
      <trkpt lat="48.55745" lon="1.93822">
        <ele>153.4</ele>
        <time>2022-08-06T11:57:10Z</time>
      </trkpt>
      <trkpt lat="48.55749" lon="1.93831">
        <ele>152.3</ele>
        <time>2022-08-06T11:57:12Z</time>
      </trkpt>
      <trkpt lat="48.5575" lon="1.93845">
        <ele>152</ele>
        <time>2022-08-06T11:57:14Z</time>
      </trkpt>
      <trkpt lat="48.55751" lon="1.93858">
        <ele>151.9</ele>
        <time>2022-08-06T11:57:16Z</time>
      </trkpt>
      <trkpt lat="48.55752" lon="1.93871">
        <ele>152.2</ele>
        <time>2022-08-06T11:57:18Z</time>
      </trkpt>
      <trkpt lat="48.55754" lon="1.93881">
        <ele>152.3</ele>
        <time>2022-08-06T11:57:20Z</time>
      </trkpt>
      <trkpt lat="48.55758" lon="1.93892">
        <ele>152.3</ele>
        <time>2022-08-06T11:57:22Z</time>
      </trkpt>
      <trkpt lat="48.55763" lon="1.93898">
        <ele>152.1</ele>
        <time>2022-08-06T11:57:24Z</time>
      </trkpt>
      <trkpt lat="48.55769" lon="1.93901">
        <ele>151.7</ele>
        <time>2022-08-06T11:57:26Z</time>
      </trkpt>
      <trkpt lat="48.5577" lon="1.9391">
        <ele>152.1</ele>
        <time>2022-08-06T11:57:28Z</time>
      </trkpt>
      <trkpt lat="48.55772" lon="1.93919">
        <ele>152.5</ele>
        <time>2022-08-06T11:57:30Z</time>
      </trkpt>
      <trkpt lat="48.55774" lon="1.93925">
        <ele>152.6</ele>
        <time>2022-08-06T11:57:32Z</time>
      </trkpt>
      <trkpt lat="48.55773" lon="1.93932">
        <ele>152.9</ele>
        <time>2022-08-06T11:57:34Z</time>
      </trkpt>
      <trkpt lat="48.55775" lon="1.93939">
        <ele>153</ele>
        <time>2022-08-06T11:57:36Z</time>
      </trkpt>
      <trkpt lat="48.55774" lon="1.93946">
        <ele>153.4</ele>
        <time>2022-08-06T11:57:38Z</time>
      </trkpt>
      <trkpt lat="48.55777" lon="1.93957">
        <ele>154</ele>
        <time>2022-08-06T11:57:42Z</time>
      </trkpt>
      <trkpt lat="48.55779" lon="1.93965">
        <ele>154.5</ele>
        <time>2022-08-06T11:57:46Z</time>
      </trkpt>
      <trkpt lat="48.55781" lon="1.93972">
        <ele>155</ele>
        <time>2022-08-06T11:57:50Z</time>
      </trkpt>
      <trkpt lat="48.55784" lon="1.93983">
        <ele>155.1</ele>
        <time>2022-08-06T11:57:56Z</time>
      </trkpt>
      <trkpt lat="48.55789" lon="1.93989">
        <ele>155.2</ele>
        <time>2022-08-06T11:58:00Z</time>
      </trkpt>
      <trkpt lat="48.55795" lon="1.93993">
        <ele>155.5</ele>
        <time>2022-08-06T11:58:04Z</time>
      </trkpt>
      <trkpt lat="48.55801" lon="1.94002">
        <ele>155.8</ele>
        <time>2022-08-06T11:58:08Z</time>
      </trkpt>
      <trkpt lat="48.55805" lon="1.94009">
        <ele>155.7</ele>
        <time>2022-08-06T11:58:12Z</time>
      </trkpt>
      <trkpt lat="48.55812" lon="1.94017">
        <ele>155.7</ele>
        <time>2022-08-06T11:58:16Z</time>
      </trkpt>
      <trkpt lat="48.55815" lon="1.94023">
        <ele>155.8</ele>
        <time>2022-08-06T11:58:18Z</time>
      </trkpt>
      <trkpt lat="48.55818" lon="1.94028">
        <ele>155.9</ele>
        <time>2022-08-06T11:58:20Z</time>
      </trkpt>
      <trkpt lat="48.55823" lon="1.94035">
        <ele>156.1</ele>
        <time>2022-08-06T11:58:24Z</time>
      </trkpt>
      <trkpt lat="48.55829" lon="1.94038">
        <ele>156.4</ele>
        <time>2022-08-06T11:58:34Z</time>
      </trkpt>
      <trkpt lat="48.55836" lon="1.94047">
        <ele>156.4</ele>
        <time>2022-08-06T11:58:38Z</time>
      </trkpt>
      <trkpt lat="48.5584" lon="1.94052">
        <ele>156.4</ele>
        <time>2022-08-06T11:58:40Z</time>
      </trkpt>
      <trkpt lat="48.55842" lon="1.94059">
        <ele>156.2</ele>
        <time>2022-08-06T11:58:42Z</time>
      </trkpt>
      <trkpt lat="48.55846" lon="1.94068">
        <ele>156</ele>
        <time>2022-08-06T11:58:44Z</time>
      </trkpt>
      <trkpt lat="48.55846" lon="1.94076">
        <ele>155.7</ele>
        <time>2022-08-06T11:58:46Z</time>
      </trkpt>
      <trkpt lat="48.55847" lon="1.94091">
        <ele>154.9</ele>
        <time>2022-08-06T11:58:50Z</time>
      </trkpt>
      <trkpt lat="48.55845" lon="1.941">
        <ele>154.3</ele>
        <time>2022-08-06T11:58:52Z</time>
      </trkpt>
      <trkpt lat="48.55848" lon="1.94108">
        <ele>153.8</ele>
        <time>2022-08-06T11:58:54Z</time>
      </trkpt>
      <trkpt lat="48.55854" lon="1.94119">
        <ele>153</ele>
        <time>2022-08-06T11:58:56Z</time>
      </trkpt>
      <trkpt lat="48.55859" lon="1.94124">
        <ele>152.6</ele>
        <time>2022-08-06T11:58:58Z</time>
      </trkpt>
      <trkpt lat="48.55862" lon="1.94132">
        <ele>151.7</ele>
        <time>2022-08-06T11:59:00Z</time>
      </trkpt>
      <trkpt lat="48.55862" lon="1.94143">
        <ele>150.8</ele>
        <time>2022-08-06T11:59:02Z</time>
      </trkpt>
      <trkpt lat="48.55867" lon="1.94156">
        <ele>150.3</ele>
        <time>2022-08-06T11:59:04Z</time>
      </trkpt>
      <trkpt lat="48.5587" lon="1.94176">
        <ele>150</ele>
        <time>2022-08-06T11:59:06Z</time>
      </trkpt>
      <trkpt lat="48.55873" lon="1.94189">
        <ele>150.1</ele>
        <time>2022-08-06T11:59:08Z</time>
      </trkpt>
      <trkpt lat="48.55878" lon="1.94197">
        <ele>149.7</ele>
        <time>2022-08-06T11:59:10Z</time>
      </trkpt>
      <trkpt lat="48.55885" lon="1.94206">
        <ele>149</ele>
        <time>2022-08-06T11:59:12Z</time>
      </trkpt>
      <trkpt lat="48.5589" lon="1.94215">
        <ele>148.6</ele>
        <time>2022-08-06T11:59:14Z</time>
      </trkpt>
      <trkpt lat="48.55894" lon="1.94222">
        <ele>148.3</ele>
        <time>2022-08-06T11:59:16Z</time>
      </trkpt>
      <trkpt lat="48.55898" lon="1.94228">
        <ele>148</ele>
        <time>2022-08-06T11:59:18Z</time>
      </trkpt>
      <trkpt lat="48.55903" lon="1.94236">
        <ele>147.4</ele>
        <time>2022-08-06T11:59:20Z</time>
      </trkpt>
      <trkpt lat="48.5591" lon="1.94248">
        <ele>146.5</ele>
        <time>2022-08-06T11:59:24Z</time>
      </trkpt>
      <trkpt lat="48.55919" lon="1.94259">
        <ele>145.4</ele>
        <time>2022-08-06T11:59:26Z</time>
      </trkpt>
      <trkpt lat="48.55929" lon="1.94271">
        <ele>145</ele>
        <time>2022-08-06T11:59:28Z</time>
      </trkpt>
      <trkpt lat="48.5594" lon="1.9428">
        <ele>143.8</ele>
        <time>2022-08-06T11:59:30Z</time>
      </trkpt>
      <trkpt lat="48.55951" lon="1.94289">
        <ele>142.8</ele>
        <time>2022-08-06T11:59:32Z</time>
      </trkpt>
      <trkpt lat="48.55957" lon="1.94308">
        <ele>142.7</ele>
        <time>2022-08-06T11:59:34Z</time>
      </trkpt>
      <trkpt lat="48.55959" lon="1.94326">
        <ele>143.2</ele>
        <time>2022-08-06T11:59:36Z</time>
      </trkpt>
      <trkpt lat="48.55963" lon="1.94339">
        <ele>142.9</ele>
        <time>2022-08-06T11:59:38Z</time>
      </trkpt>
      <trkpt lat="48.55973" lon="1.94345">
        <ele>141.3</ele>
        <time>2022-08-06T11:59:40Z</time>
      </trkpt>
      <trkpt lat="48.55982" lon="1.94352">
        <ele>140.8</ele>
        <time>2022-08-06T11:59:42Z</time>
      </trkpt>
      <trkpt lat="48.55989" lon="1.9436">
        <ele>140.2</ele>
        <time>2022-08-06T11:59:44Z</time>
      </trkpt>
      <trkpt lat="48.55992" lon="1.94369">
        <ele>140.4</ele>
        <time>2022-08-06T11:59:46Z</time>
      </trkpt>
      <trkpt lat="48.55993" lon="1.94381">
        <ele>141.2</ele>
        <time>2022-08-06T11:59:50Z</time>
      </trkpt>
      <trkpt lat="48.55995" lon="1.94391">
        <ele>141.7</ele>
        <time>2022-08-06T11:59:54Z</time>
      </trkpt>
      <trkpt lat="48.55997" lon="1.94399">
        <ele>142</ele>
        <time>2022-08-06T11:59:56Z</time>
      </trkpt>
      <trkpt lat="48.56" lon="1.94408">
        <ele>142.4</ele>
        <time>2022-08-06T11:59:58Z</time>
      </trkpt>
      <trkpt lat="48.56002" lon="1.94415">
        <ele>142.8</ele>
        <time>2022-08-06T12:00:00Z</time>
      </trkpt>
      <trkpt lat="48.56003" lon="1.94424">
        <ele>143.4</ele>
        <time>2022-08-06T12:00:02Z</time>
      </trkpt>
      <trkpt lat="48.56006" lon="1.94434">
        <ele>144</ele>
        <time>2022-08-06T12:00:04Z</time>
      </trkpt>
      <trkpt lat="48.56008" lon="1.94441">
        <ele>144.5</ele>
        <time>2022-08-06T12:00:06Z</time>
      </trkpt>
      <trkpt lat="48.56011" lon="1.94453">
        <ele>144.9</ele>
        <time>2022-08-06T12:00:10Z</time>
      </trkpt>
      <trkpt lat="48.56013" lon="1.94463">
        <ele>145.2</ele>
        <time>2022-08-06T12:00:14Z</time>
      </trkpt>
      <trkpt lat="48.56015" lon="1.94476">
        <ele>145.7</ele>
        <time>2022-08-06T12:00:18Z</time>
      </trkpt>
      <trkpt lat="48.56015" lon="1.94487">
        <ele>146.2</ele>
        <time>2022-08-06T12:00:20Z</time>
      </trkpt>
      <trkpt lat="48.56013" lon="1.94493">
        <ele>146.7</ele>
        <time>2022-08-06T12:00:24Z</time>
      </trkpt>
      <trkpt lat="48.56009" lon="1.94503">
        <ele>147.3</ele>
        <time>2022-08-06T12:00:28Z</time>
      </trkpt>
      <trkpt lat="48.56007" lon="1.94512">
        <ele>147.5</ele>
        <time>2022-08-06T12:00:32Z</time>
      </trkpt>
      <trkpt lat="48.56003" lon="1.94518">
        <ele>147.8</ele>
        <time>2022-08-06T12:00:36Z</time>
      </trkpt>
      <trkpt lat="48.56003" lon="1.94525">
        <ele>147.8</ele>
        <time>2022-08-06T12:00:38Z</time>
      </trkpt>
      <trkpt lat="48.56006" lon="1.9454">
        <ele>148.3</ele>
        <time>2022-08-06T12:00:42Z</time>
      </trkpt>
      <trkpt lat="48.56011" lon="1.94549">
        <ele>148.1</ele>
        <time>2022-08-06T12:00:44Z</time>
      </trkpt>
      <trkpt lat="48.56014" lon="1.94557">
        <ele>148.1</ele>
        <time>2022-08-06T12:00:46Z</time>
      </trkpt>
      <trkpt lat="48.56018" lon="1.94566">
        <ele>148.1</ele>
        <time>2022-08-06T12:00:48Z</time>
      </trkpt>
      <trkpt lat="48.56021" lon="1.94578">
        <ele>148.1</ele>
        <time>2022-08-06T12:00:50Z</time>
      </trkpt>
      <trkpt lat="48.56023" lon="1.94591">
        <ele>148.5</ele>
        <time>2022-08-06T12:00:52Z</time>
      </trkpt>
      <trkpt lat="48.5603" lon="1.94603">
        <ele>148.2</ele>
        <time>2022-08-06T12:00:54Z</time>
      </trkpt>
      <trkpt lat="48.56037" lon="1.94613">
        <ele>147.7</ele>
        <time>2022-08-06T12:00:56Z</time>
      </trkpt>
      <trkpt lat="48.56044" lon="1.94625">
        <ele>147.4</ele>
        <time>2022-08-06T12:00:58Z</time>
      </trkpt>
      <trkpt lat="48.56044" lon="1.94635">
        <ele>147.8</ele>
        <time>2022-08-06T12:01:00Z</time>
      </trkpt>
      <trkpt lat="48.56044" lon="1.94642">
        <ele>148.1</ele>
        <time>2022-08-06T12:01:02Z</time>
      </trkpt>
      <trkpt lat="48.56048" lon="1.94652">
        <ele>147.6</ele>
        <time>2022-08-06T12:01:06Z</time>
      </trkpt>
      <trkpt lat="48.56044" lon="1.94658">
        <ele>148.6</ele>
        <time>2022-08-06T12:01:12Z</time>
      </trkpt>
      <trkpt lat="48.56042" lon="1.94668">
        <ele>149</ele>
        <time>2022-08-06T12:01:16Z</time>
      </trkpt>
      <trkpt lat="48.56038" lon="1.94679">
        <ele>149.6</ele>
        <time>2022-08-06T12:01:20Z</time>
      </trkpt>
      <trkpt lat="48.56034" lon="1.94688">
        <ele>150.2</ele>
        <time>2022-08-06T12:01:24Z</time>
      </trkpt>
      <trkpt lat="48.56032" lon="1.94694">
        <ele>150.6</ele>
        <time>2022-08-06T12:01:26Z</time>
      </trkpt>
      <trkpt lat="48.56028" lon="1.94706">
        <ele>150.6</ele>
        <time>2022-08-06T12:01:30Z</time>
      </trkpt>
      <trkpt lat="48.56026" lon="1.94712">
        <ele>151</ele>
        <time>2022-08-06T12:01:32Z</time>
      </trkpt>
      <trkpt lat="48.56023" lon="1.94718">
        <ele>151.8</ele>
        <time>2022-08-06T12:01:34Z</time>
      </trkpt>
      <trkpt lat="48.56022" lon="1.94726">
        <ele>152.3</ele>
        <time>2022-08-06T12:01:36Z</time>
      </trkpt>
      <trkpt lat="48.56019" lon="1.94734">
        <ele>153.5</ele>
        <time>2022-08-06T12:01:38Z</time>
      </trkpt>
      <trkpt lat="48.56016" lon="1.94741">
        <ele>154.5</ele>
        <time>2022-08-06T12:01:40Z</time>
      </trkpt>
      <trkpt lat="48.56014" lon="1.94749">
        <ele>155.4</ele>
        <time>2022-08-06T12:01:42Z</time>
      </trkpt>
      <trkpt lat="48.56012" lon="1.9476">
        <ele>156.7</ele>
        <time>2022-08-06T12:01:46Z</time>
      </trkpt>
      <trkpt lat="48.5601" lon="1.94767">
        <ele>157.6</ele>
        <time>2022-08-06T12:01:48Z</time>
      </trkpt>
      <trkpt lat="48.56006" lon="1.94782">
        <ele>159</ele>
        <time>2022-08-06T12:01:50Z</time>
      </trkpt>
      <trkpt lat="48.56003" lon="1.94792">
        <ele>159.5</ele>
        <time>2022-08-06T12:01:52Z</time>
      </trkpt>
      <trkpt lat="48.56" lon="1.94803">
        <ele>160</ele>
        <time>2022-08-06T12:01:56Z</time>
      </trkpt>
      <trkpt lat="48.55992" lon="1.94815">
        <ele>158.6</ele>
        <time>2022-08-06T12:01:58Z</time>
      </trkpt>
      <trkpt lat="48.55988" lon="1.94827">
        <ele>157.5</ele>
        <time>2022-08-06T12:02:00Z</time>
      </trkpt>
      <trkpt lat="48.55985" lon="1.94835">
        <ele>156.9</ele>
        <time>2022-08-06T12:02:02Z</time>
      </trkpt>
      <trkpt lat="48.55981" lon="1.94842">
        <ele>156.6</ele>
        <time>2022-08-06T12:02:04Z</time>
      </trkpt>
      <trkpt lat="48.55975" lon="1.9485">
        <ele>156.2</ele>
        <time>2022-08-06T12:02:08Z</time>
      </trkpt>
      <trkpt lat="48.55973" lon="1.94856">
        <ele>156</ele>
        <time>2022-08-06T12:02:10Z</time>
      </trkpt>
      <trkpt lat="48.55971" lon="1.94864">
        <ele>156.3</ele>
        <time>2022-08-06T12:02:12Z</time>
      </trkpt>
      <trkpt lat="48.55969" lon="1.94872">
        <ele>156.9</ele>
        <time>2022-08-06T12:02:14Z</time>
      </trkpt>
      <trkpt lat="48.55966" lon="1.94881">
        <ele>157.5</ele>
        <time>2022-08-06T12:02:16Z</time>
      </trkpt>
      <trkpt lat="48.55964" lon="1.9489">
        <ele>158</ele>
        <time>2022-08-06T12:02:18Z</time>
      </trkpt>
      <trkpt lat="48.55961" lon="1.949">
        <ele>158.9</ele>
        <time>2022-08-06T12:02:20Z</time>
      </trkpt>
      <trkpt lat="48.55958" lon="1.94909">
        <ele>159.6</ele>
        <time>2022-08-06T12:02:22Z</time>
      </trkpt>
      <trkpt lat="48.55954" lon="1.94919">
        <ele>160</ele>
        <time>2022-08-06T12:02:24Z</time>
      </trkpt>
      <trkpt lat="48.55951" lon="1.94928">
        <ele>160</ele>
        <time>2022-08-06T12:02:26Z</time>
      </trkpt>
      <trkpt lat="48.55947" lon="1.94938">
        <ele>159.5</ele>
        <time>2022-08-06T12:02:28Z</time>
      </trkpt>
      <trkpt lat="48.55943" lon="1.94947">
        <ele>159.3</ele>
        <time>2022-08-06T12:02:30Z</time>
      </trkpt>
      <trkpt lat="48.55938" lon="1.94958">
        <ele>160.1</ele>
        <time>2022-08-06T12:02:32Z</time>
      </trkpt>
      <trkpt lat="48.55933" lon="1.94969">
        <ele>160.7</ele>
        <time>2022-08-06T12:02:34Z</time>
      </trkpt>
      <trkpt lat="48.5593" lon="1.9498">
        <ele>161.2</ele>
        <time>2022-08-06T12:02:36Z</time>
      </trkpt>
      <trkpt lat="48.55926" lon="1.94991">
        <ele>161.3</ele>
        <time>2022-08-06T12:02:38Z</time>
      </trkpt>
      <trkpt lat="48.55921" lon="1.95003">
        <ele>161.2</ele>
        <time>2022-08-06T12:02:40Z</time>
      </trkpt>
      <trkpt lat="48.55916" lon="1.95014">
        <ele>161</ele>
        <time>2022-08-06T12:02:42Z</time>
      </trkpt>
      <trkpt lat="48.55912" lon="1.95024">
        <ele>161.2</ele>
        <time>2022-08-06T12:02:44Z</time>
      </trkpt>
      <trkpt lat="48.55908" lon="1.95034">
        <ele>161.5</ele>
        <time>2022-08-06T12:02:46Z</time>
      </trkpt>
      <trkpt lat="48.55904" lon="1.95044">
        <ele>161.8</ele>
        <time>2022-08-06T12:02:48Z</time>
      </trkpt>
      <trkpt lat="48.55901" lon="1.95054">
        <ele>162</ele>
        <time>2022-08-06T12:02:50Z</time>
      </trkpt>
      <trkpt lat="48.55897" lon="1.95063">
        <ele>162.1</ele>
        <time>2022-08-06T12:02:52Z</time>
      </trkpt>
      <trkpt lat="48.55893" lon="1.95072">
        <ele>162.1</ele>
        <time>2022-08-06T12:02:54Z</time>
      </trkpt>
      <trkpt lat="48.5589" lon="1.95081">
        <ele>162</ele>
        <time>2022-08-06T12:02:56Z</time>
      </trkpt>
      <trkpt lat="48.55886" lon="1.9509">
        <ele>162</ele>
        <time>2022-08-06T12:02:58Z</time>
      </trkpt>
      <trkpt lat="48.55883" lon="1.951">
        <ele>162</ele>
        <time>2022-08-06T12:03:00Z</time>
      </trkpt>
      <trkpt lat="48.5588" lon="1.95109">
        <ele>162</ele>
        <time>2022-08-06T12:03:02Z</time>
      </trkpt>
      <trkpt lat="48.55877" lon="1.95118">
        <ele>162</ele>
        <time>2022-08-06T12:03:04Z</time>
      </trkpt>
      <trkpt lat="48.55872" lon="1.95123">
        <ele>162</ele>
        <time>2022-08-06T12:03:06Z</time>
      </trkpt>
      <trkpt lat="48.55868" lon="1.95118">
        <ele>162</ele>
        <time>2022-08-06T12:03:08Z</time>
      </trkpt>
      <trkpt lat="48.55867" lon="1.95108">
        <ele>162</ele>
        <time>2022-08-06T12:03:10Z</time>
      </trkpt>
      <trkpt lat="48.55871" lon="1.95098">
        <ele>162</ele>
        <time>2022-08-06T12:03:12Z</time>
      </trkpt>
      <trkpt lat="48.55875" lon="1.95088">
        <ele>162</ele>
        <time>2022-08-06T12:03:14Z</time>
      </trkpt>
      <trkpt lat="48.55879" lon="1.95079">
        <ele>162</ele>
        <time>2022-08-06T12:03:16Z</time>
      </trkpt>
      <trkpt lat="48.55882" lon="1.95069">
        <ele>162</ele>
        <time>2022-08-06T12:03:18Z</time>
      </trkpt>
      <trkpt lat="48.55884" lon="1.95061">
        <ele>162</ele>
        <time>2022-08-06T12:03:20Z</time>
      </trkpt>
      <trkpt lat="48.55887" lon="1.95053">
        <ele>162</ele>
        <time>2022-08-06T12:03:22Z</time>
      </trkpt>
      <trkpt lat="48.55889" lon="1.95045">
        <ele>162</ele>
        <time>2022-08-06T12:03:24Z</time>
      </trkpt>
      <trkpt lat="48.55892" lon="1.95035">
        <ele>161.9</ele>
        <time>2022-08-06T12:03:26Z</time>
      </trkpt>
      <trkpt lat="48.55896" lon="1.95025">
        <ele>161.7</ele>
        <time>2022-08-06T12:03:28Z</time>
      </trkpt>
      <trkpt lat="48.559" lon="1.95016">
        <ele>161.6</ele>
        <time>2022-08-06T12:03:30Z</time>
      </trkpt>
      <trkpt lat="48.55904" lon="1.95008">
        <ele>161.5</ele>
        <time>2022-08-06T12:03:32Z</time>
      </trkpt>
      <trkpt lat="48.55906" lon="1.95">
        <ele>161.4</ele>
        <time>2022-08-06T12:03:34Z</time>
      </trkpt>
      <trkpt lat="48.55907" lon="1.94992">
        <ele>161.5</ele>
        <time>2022-08-06T12:03:36Z</time>
      </trkpt>
      <trkpt lat="48.55905" lon="1.94986">
        <ele>161.7</ele>
        <time>2022-08-06T12:03:38Z</time>
      </trkpt>
    </trkseg>
  </trk>
</gpx>